<?xml version="1.0" encoding="UTF-8" standalone="no" ?>
<gpx xmlns="http://www.topografix.com/GPX/1/1" xmlns:xsi="http://www.w3.org/2001/XMLSchema-instance" xsi:schemaLocation="http://www.topografix.com/GPX/1/1 http://www.topografix.com/GPX/1/1/gpx.xsd" version="1.1" creator="VisuGPX - https://www.visugpx.com">
  <metadata>
    <name>Projet vacances toussaint</name>
  </metadata>
  <trk>
    <name><![CDATA[200 dijon 3 BPF]]></name>
    <extensions>
      <line xmlns="http://www.topografix.com/GPX/gpx_style/0/2">
        <color>ffa800</color>
        <width>4</width>
      </line>
    </extensions>
    <trkseg>
      <trkpt lat="46.65239" lon="5.82064">
        <ele>612.637666</ele>
        <time>2020-10-11T06:21:43.438Z</time>
      </trkpt>
      <trkpt lat="46.65236" lon="5.82041">
        <ele>612.637666</ele>
        <time>2020-10-11T06:21:47.380Z</time>
      </trkpt>
      <trkpt lat="46.65223" lon="5.82015">
        <ele>612.637666</ele>
        <time>2020-10-11T06:21:52.252Z</time>
      </trkpt>
      <trkpt lat="46.65192" lon="5.82004">
        <ele>612.637666</ele>
        <time>2020-10-11T06:21:59.683Z</time>
      </trkpt>
      <trkpt lat="46.65187" lon="5.81999">
        <ele>612.637666</ele>
        <time>2020-10-11T06:22:00.850Z</time>
      </trkpt>
      <trkpt lat="46.65202" lon="5.81986">
        <ele>612.538914</ele>
        <time>2020-10-11T06:22:03.602Z</time>
      </trkpt>
      <trkpt lat="46.65222" lon="5.81971">
        <ele>611.782315</ele>
        <time>2020-10-11T06:22:07.056Z</time>
      </trkpt>
      <trkpt lat="46.65233" lon="5.81962">
        <ele>611.387224</ele>
        <time>2020-10-11T06:22:08.911Z</time>
      </trkpt>
      <trkpt lat="46.65243" lon="5.81956">
        <ele>611.033832</ele>
        <time>2020-10-11T06:22:10.396Z</time>
      </trkpt>
      <trkpt lat="46.6536" lon="5.81884">
        <ele>606.849292</ele>
        <time>2020-10-11T06:22:28.047Z</time>
      </trkpt>
      <trkpt lat="46.65383" lon="5.81852">
        <ele>605.577572</ele>
        <time>2020-10-11T06:22:32.370Z</time>
      </trkpt>
      <trkpt lat="46.654" lon="5.81815">
        <ele>604.329597</ele>
        <time>2020-10-11T06:22:36.527Z</time>
      </trkpt>
      <trkpt lat="46.6543" lon="5.81742">
        <ele>601.946766</ele>
        <time>2020-10-11T06:22:44.419Z</time>
      </trkpt>
      <trkpt lat="46.65449" lon="5.8167">
        <ele>599.789493</ele>
        <time>2020-10-11T06:22:51.602Z</time>
      </trkpt>
      <trkpt lat="46.65466" lon="5.81593">
        <ele>598.061369</ele>
        <time>2020-10-11T06:22:59.365Z</time>
      </trkpt>
      <trkpt lat="46.65474" lon="5.81516">
        <ele>596.517332</ele>
        <time>2020-10-11T06:23:07.108Z</time>
      </trkpt>
      <trkpt lat="46.65479" lon="5.81463">
        <ele>595.461564</ele>
        <time>2020-10-11T06:23:12.464Z</time>
      </trkpt>
      <trkpt lat="46.65484" lon="5.81424">
        <ele>594.671822</ele>
        <time>2020-10-11T06:23:16.495Z</time>
      </trkpt>
      <trkpt lat="46.6551" lon="5.81298">
        <ele>592.992925</ele>
        <time>2020-10-11T06:23:30.760Z</time>
      </trkpt>
      <trkpt lat="46.65526" lon="5.81226">
        <ele>592.157882</ele>
        <time>2020-10-11T06:23:39.138Z</time>
      </trkpt>
      <trkpt lat="46.65532" lon="5.812">
        <ele>591.846623</ele>
        <time>2020-10-11T06:23:42.274Z</time>
      </trkpt>
      <trkpt lat="46.65549" lon="5.81151">
        <ele>591.250272</ele>
        <time>2020-10-11T06:23:48.423Z</time>
      </trkpt>
      <trkpt lat="46.6569" lon="5.80737">
        <ele>588.120702</ele>
        <time>2020-10-11T06:24:41.503Z</time>
      </trkpt>
      <trkpt lat="46.65691" lon="5.80677">
        <ele>587.848083</ele>
        <time>2020-10-11T06:24:50.472Z</time>
      </trkpt>
      <trkpt lat="46.6567" lon="5.8054">
        <ele>589.343068</ele>
        <time>2020-10-11T06:25:17.874Z</time>
      </trkpt>
      <trkpt lat="46.6568" lon="5.80442">
        <ele>590.399488</ele>
        <time>2020-10-11T06:25:40.637Z</time>
      </trkpt>
      <trkpt lat="46.65686" lon="5.80384">
        <ele>590.856359</ele>
        <time>2020-10-11T06:25:53.676Z</time>
      </trkpt>
      <trkpt lat="46.6569" lon="5.80351">
        <ele>591.056874</ele>
        <time>2020-10-11T06:26:01.010Z</time>
      </trkpt>
      <trkpt lat="46.65697" lon="5.80275">
        <ele>591.518394</ele>
        <time>2020-10-11T06:26:16.588Z</time>
      </trkpt>
      <trkpt lat="46.65698" lon="5.79875">
        <ele>591.031712</ele>
        <time>2020-10-11T06:27:09.007Z</time>
      </trkpt>
      <trkpt lat="46.65692" lon="5.7983">
        <ele>590.475324</ele>
        <time>2020-10-11T06:27:13.898Z</time>
      </trkpt>
      <trkpt lat="46.65661" lon="5.79671">
        <ele>588.464981</ele>
        <time>2020-10-11T06:27:31.264Z</time>
      </trkpt>
      <trkpt lat="46.6564" lon="5.79537">
        <ele>586.658115</ele>
        <time>2020-10-11T06:27:45.813Z</time>
      </trkpt>
      <trkpt lat="46.65639" lon="5.79517">
        <ele>586.387231</ele>
        <time>2020-10-11T06:27:47.942Z</time>
      </trkpt>
      <trkpt lat="46.65639" lon="5.79494">
        <ele>586.078219</ele>
        <time>2020-10-11T06:27:50.456Z</time>
      </trkpt>
      <trkpt lat="46.65638" lon="5.79428">
        <ele>585.195537</ele>
        <time>2020-10-11T06:27:57.533Z</time>
      </trkpt>
      <trkpt lat="46.65638" lon="5.79413">
        <ele>584.989984</ele>
        <time>2020-10-11T06:27:59.154Z</time>
      </trkpt>
      <trkpt lat="46.65638" lon="5.7938">
        <ele>584.485168</ele>
        <time>2020-10-11T06:28:02.650Z</time>
      </trkpt>
      <trkpt lat="46.65634" lon="5.79259">
        <ele>581.055148</ele>
        <time>2020-10-11T06:28:15.222Z</time>
      </trkpt>
      <trkpt lat="46.65624" lon="5.79174">
        <ele>578.610096</ele>
        <time>2020-10-11T06:28:23.466Z</time>
      </trkpt>
      <trkpt lat="46.65582" lon="5.79066">
        <ele>571.366205</ele>
        <time>2020-10-11T06:28:33.994Z</time>
      </trkpt>
      <trkpt lat="46.65553" lon="5.79024">
        <ele>566.562883</ele>
        <time>2020-10-11T06:28:38.875Z</time>
      </trkpt>
      <trkpt lat="46.65531" lon="5.79003">
        <ele>563.529758</ele>
        <time>2020-10-11T06:28:41.968Z</time>
      </trkpt>
      <trkpt lat="46.6551" lon="5.78983">
        <ele>560.642322</ele>
        <time>2020-10-11T06:28:44.875Z</time>
      </trkpt>
      <trkpt lat="46.65477" lon="5.78929">
        <ele>555.100519</ele>
        <time>2020-10-11T06:28:50.777Z</time>
      </trkpt>
      <trkpt lat="46.65464" lon="5.78901">
        <ele>552.818759</ele>
        <time>2020-10-11T06:28:53.440Z</time>
      </trkpt>
      <trkpt lat="46.65457" lon="5.78874">
        <ele>550.821103</ele>
        <time>2020-10-11T06:28:55.837Z</time>
      </trkpt>
      <trkpt lat="46.65443" lon="5.78803">
        <ele>545.757721</ele>
        <time>2020-10-11T06:29:01.809Z</time>
      </trkpt>
      <trkpt lat="46.65358" lon="5.7846">
        <ele>529.970982</ele>
        <time>2020-10-11T06:29:34.901Z</time>
      </trkpt>
      <trkpt lat="46.65327" lon="5.78308">
        <ele>526.782571</ele>
        <time>2020-10-11T06:29:50.495Z</time>
      </trkpt>
      <trkpt lat="46.65317" lon="5.78219">
        <ele>525.004837</ele>
        <time>2020-10-11T06:29:59.619Z</time>
      </trkpt>
      <trkpt lat="46.65312" lon="5.78111">
        <ele>524.448768</ele>
        <time>2020-10-11T06:30:11.628Z</time>
      </trkpt>
      <trkpt lat="46.65325" lon="5.77989">
        <ele>524.170705</ele>
        <time>2020-10-11T06:30:31.500Z</time>
      </trkpt>
      <trkpt lat="46.65327" lon="5.77983">
        <ele>524.156058</ele>
        <time>2020-10-11T06:30:32.330Z</time>
      </trkpt>
      <trkpt lat="46.65329" lon="5.77973">
        <ele>524.132278</ele>
        <time>2020-10-11T06:30:35.133Z</time>
      </trkpt>
      <trkpt lat="46.65341" lon="5.77956">
        <ele>524.079584</ele>
        <time>2020-10-11T06:30:38.281Z</time>
      </trkpt>
      <trkpt lat="46.65345" lon="5.77952">
        <ele>524.065325</ele>
        <time>2020-10-11T06:30:39.707Z</time>
      </trkpt>
      <trkpt lat="46.65359" lon="5.77937">
        <ele>524.119226</ele>
        <time>2020-10-11T06:30:43.974Z</time>
      </trkpt>
      <trkpt lat="46.65381" lon="5.77911">
        <ele>524.20541</ele>
        <time>2020-10-11T06:30:49.712Z</time>
      </trkpt>
      <trkpt lat="46.6539" lon="5.77897">
        <ele>524.244501</ele>
        <time>2020-10-11T06:30:53.233Z</time>
      </trkpt>
      <trkpt lat="46.65398" lon="5.77895">
        <ele>524.269355</ele>
        <time>2020-10-11T06:30:55.106Z</time>
      </trkpt>
      <trkpt lat="46.65448" lon="5.77881">
        <ele>524.42223</ele>
        <time>2020-10-11T06:31:06.869Z</time>
      </trkpt>
      <trkpt lat="46.65453" lon="5.77875">
        <ele>524.44347</ele>
        <time>2020-10-11T06:31:09.307Z</time>
      </trkpt>
      <trkpt lat="46.65462" lon="5.77862">
        <ele>524.47957</ele>
        <time>2020-10-11T06:31:11.458Z</time>
      </trkpt>
      <trkpt lat="46.65475" lon="5.7785">
        <ele>524.526517</ele>
        <time>2020-10-11T06:31:15.392Z</time>
      </trkpt>
      <trkpt lat="46.65478" lon="5.77846">
        <ele>524.539235</ele>
        <time>2020-10-11T06:31:15.971Z</time>
      </trkpt>
      <trkpt lat="46.65483" lon="5.77852">
        <ele>524.559497</ele>
        <time>2020-10-11T06:31:18.291Z</time>
      </trkpt>
      <trkpt lat="46.65517" lon="5.77873">
        <ele>524.479319</ele>
        <time>2020-10-11T06:31:25.328Z</time>
      </trkpt>
      <trkpt lat="46.65549" lon="5.77871">
        <ele>524.27138</ele>
        <time>2020-10-11T06:31:31.279Z</time>
      </trkpt>
      <trkpt lat="46.65597" lon="5.77853">
        <ele>523.944606</ele>
        <time>2020-10-11T06:31:39.414Z</time>
      </trkpt>
      <trkpt lat="46.65601" lon="5.77852">
        <ele>523.921014</ele>
        <time>2020-10-11T06:31:40.011Z</time>
      </trkpt>
      <trkpt lat="46.6561" lon="5.77849">
        <ele>523.861879</ele>
        <time>2020-10-11T06:31:41.605Z</time>
      </trkpt>
      <trkpt lat="46.65612" lon="5.77848">
        <ele>523.846434</ele>
        <time>2020-10-11T06:31:41.955Z</time>
      </trkpt>
      <trkpt lat="46.65616" lon="5.77847">
        <ele>523.817656</ele>
        <time>2020-10-11T06:31:42.559Z</time>
      </trkpt>
      <trkpt lat="46.65621" lon="5.77845">
        <ele>523.789514</ele>
        <time>2020-10-11T06:31:43.538Z</time>
      </trkpt>
      <trkpt lat="46.65623" lon="5.77844">
        <ele>523.771318</ele>
        <time>2020-10-11T06:31:44.088Z</time>
      </trkpt>
      <trkpt lat="46.65647" lon="5.77836">
        <ele>523.612952</ele>
        <time>2020-10-11T06:31:48.423Z</time>
      </trkpt>
      <trkpt lat="46.65649" lon="5.77835">
        <ele>523.596132</ele>
        <time>2020-10-11T06:31:49.141Z</time>
      </trkpt>
      <trkpt lat="46.65677" lon="5.77825">
        <ele>523.446278</ele>
        <time>2020-10-11T06:31:54.392Z</time>
      </trkpt>
      <trkpt lat="46.65689" lon="5.7782">
        <ele>523.48485</ele>
        <time>2020-10-11T06:31:57.056Z</time>
      </trkpt>
      <trkpt lat="46.65697" lon="5.77813">
        <ele>523.511184</ele>
        <time>2020-10-11T06:31:59.123Z</time>
      </trkpt>
      <trkpt lat="46.65719" lon="5.77795">
        <ele>523.586609</ele>
        <time>2020-10-11T06:32:04.176Z</time>
      </trkpt>
      <trkpt lat="46.65745" lon="5.77769">
        <ele>523.683543</ele>
        <time>2020-10-11T06:32:11.487Z</time>
      </trkpt>
      <trkpt lat="46.65772" lon="5.7774">
        <ele>523.78311</ele>
        <time>2020-10-11T06:32:19.755Z</time>
      </trkpt>
      <trkpt lat="46.65786" lon="5.77727">
        <ele>523.83244</ele>
        <time>2020-10-11T06:32:24.560Z</time>
      </trkpt>
      <trkpt lat="46.65811" lon="5.77716">
        <ele>523.911071</ele>
        <time>2020-10-11T06:32:30.307Z</time>
      </trkpt>
      <trkpt lat="46.65821" lon="5.77718">
        <ele>523.941403</ele>
        <time>2020-10-11T06:32:33.137Z</time>
      </trkpt>
      <trkpt lat="46.65843" lon="5.77721">
        <ele>523.990736</ele>
        <time>2020-10-11T06:32:37.416Z</time>
      </trkpt>
      <trkpt lat="46.65848" lon="5.7772">
        <ele>523.998381</ele>
        <time>2020-10-11T06:32:38.696Z</time>
      </trkpt>
      <trkpt lat="46.65854" lon="5.77718">
        <ele>524.009147</ele>
        <time>2020-10-11T06:32:40.529Z</time>
      </trkpt>
      <trkpt lat="46.65869" lon="5.77709">
        <ele>524.034376</ele>
        <time>2020-10-11T06:32:43.887Z</time>
      </trkpt>
      <trkpt lat="46.65897" lon="5.77691">
        <ele>524.081029</ele>
        <time>2020-10-11T06:32:51.013Z</time>
      </trkpt>
      <trkpt lat="46.65922" lon="5.77674">
        <ele>524.124653</ele>
        <time>2020-10-11T06:32:57.700Z</time>
      </trkpt>
      <trkpt lat="46.65929" lon="5.7767">
        <ele>524.135466</ele>
        <time>2020-10-11T06:32:59.205Z</time>
      </trkpt>
      <trkpt lat="46.65933" lon="5.77667">
        <ele>524.142964</ele>
        <time>2020-10-11T06:33:00.138Z</time>
      </trkpt>
      <trkpt lat="46.66003" lon="5.77622">
        <ele>524.215063</ele>
        <time>2020-10-11T06:33:15.849Z</time>
      </trkpt>
      <trkpt lat="46.66102" lon="5.77556">
        <ele>523.415617</ele>
        <time>2020-10-11T06:33:35.206Z</time>
      </trkpt>
      <trkpt lat="46.66103" lon="5.77555">
        <ele>523.404854</ele>
        <time>2020-10-11T06:33:35.412Z</time>
      </trkpt>
      <trkpt lat="46.66161" lon="5.77504">
        <ele>522.915254</ele>
        <time>2020-10-11T06:33:47.088Z</time>
      </trkpt>
      <trkpt lat="46.66182" lon="5.77484">
        <ele>522.755686</ele>
        <time>2020-10-11T06:33:51.472Z</time>
      </trkpt>
      <trkpt lat="46.6619" lon="5.77476">
        <ele>522.692172</ele>
        <time>2020-10-11T06:33:53.188Z</time>
      </trkpt>
      <trkpt lat="46.66181" lon="5.77459">
        <ele>522.601283</ele>
        <time>2020-10-11T06:33:55.610Z</time>
      </trkpt>
      <trkpt lat="46.66177" lon="5.77443">
        <ele>522.523633</ele>
        <time>2020-10-11T06:33:57.876Z</time>
      </trkpt>
      <trkpt lat="46.66177" lon="5.77434">
        <ele>522.483925</ele>
        <time>2020-10-11T06:33:58.957Z</time>
      </trkpt>
      <trkpt lat="46.66179" lon="5.77428">
        <ele>522.454317</ele>
        <time>2020-10-11T06:33:59.744Z</time>
      </trkpt>
      <trkpt lat="46.66205" lon="5.77386">
        <ele>522.208259</ele>
        <time>2020-10-11T06:34:06.592Z</time>
      </trkpt>
      <trkpt lat="46.66334" lon="5.7712">
        <ele>521.579568</ele>
        <time>2020-10-11T06:34:50.785Z</time>
      </trkpt>
      <trkpt lat="46.66353" lon="5.77073">
        <ele>521.54</ele>
        <time>2020-10-11T06:34:58.841Z</time>
      </trkpt>
      <trkpt lat="46.66379" lon="5.77008">
        <ele>521.506608</ele>
        <time>2020-10-11T06:35:10.018Z</time>
      </trkpt>
      <trkpt lat="46.66393" lon="5.76959">
        <ele>521.483498</ele>
        <time>2020-10-11T06:35:17.663Z</time>
      </trkpt>
      <trkpt lat="46.6639" lon="5.76925">
        <ele>521.468692</ele>
        <time>2020-10-11T06:35:22.493Z</time>
      </trkpt>
      <trkpt lat="46.66336" lon="5.7674">
        <ele>520.85968</ele>
        <time>2020-10-11T06:35:49.090Z</time>
      </trkpt>
      <trkpt lat="46.66295" lon="5.76602">
        <ele>520.057348</ele>
        <time>2020-10-11T06:36:06.968Z</time>
      </trkpt>
      <trkpt lat="46.66273" lon="5.76526">
        <ele>518.939395</ele>
        <time>2020-10-11T06:36:16.435Z</time>
      </trkpt>
      <trkpt lat="46.66104" lon="5.75973">
        <ele>509.639712</ele>
        <time>2020-10-11T06:37:19.709Z</time>
      </trkpt>
      <trkpt lat="46.66093" lon="5.7595">
        <ele>509.064323</ele>
        <time>2020-10-11T06:37:22.361Z</time>
      </trkpt>
      <trkpt lat="46.66065" lon="5.7592">
        <ele>508.057378</ele>
        <time>2020-10-11T06:37:26.948Z</time>
      </trkpt>
      <trkpt lat="46.65993" lon="5.7587">
        <ele>505.184177</ele>
        <time>2020-10-11T06:37:37.654Z</time>
      </trkpt>
      <trkpt lat="46.65946" lon="5.75833">
        <ele>503.249936</ele>
        <time>2020-10-11T06:37:44.824Z</time>
      </trkpt>
      <trkpt lat="46.65846" lon="5.75753">
        <ele>501.570399</ele>
        <time>2020-10-11T06:38:02.264Z</time>
      </trkpt>
      <trkpt lat="46.65833" lon="5.75738">
        <ele>501.628888</ele>
        <time>2020-10-11T06:38:05.717Z</time>
      </trkpt>
      <trkpt lat="46.65826" lon="5.75719">
        <ele>501.686277</ele>
        <time>2020-10-11T06:38:09.487Z</time>
      </trkpt>
      <trkpt lat="46.65813" lon="5.75649">
        <ele>501.867953</ele>
        <time>2020-10-11T06:38:25.246Z</time>
      </trkpt>
      <trkpt lat="46.65823" lon="5.75586">
        <ele>502.146586</ele>
        <time>2020-10-11T06:38:41.212Z</time>
      </trkpt>
      <trkpt lat="46.65844" lon="5.75513">
        <ele>503.11384</ele>
        <time>2020-10-11T06:39:00.701Z</time>
      </trkpt>
      <trkpt lat="46.65872" lon="5.75416">
        <ele>504.388038</ele>
        <time>2020-10-11T06:39:23.945Z</time>
      </trkpt>
      <trkpt lat="46.65912" lon="5.75278">
        <ele>504.692944</ele>
        <time>2020-10-11T06:39:48.231Z</time>
      </trkpt>
      <trkpt lat="46.65921" lon="5.75228">
        <ele>504.382728</ele>
        <time>2020-10-11T06:39:54.392Z</time>
      </trkpt>
      <trkpt lat="46.65913" lon="5.75189">
        <ele>504.142045</ele>
        <time>2020-10-11T06:39:58.775Z</time>
      </trkpt>
      <trkpt lat="46.65865" lon="5.7512">
        <ele>503.431914</ele>
        <time>2020-10-11T06:40:09.224Z</time>
      </trkpt>
      <trkpt lat="46.65834" lon="5.75055">
        <ele>502.107588</ele>
        <time>2020-10-11T06:40:17.558Z</time>
      </trkpt>
      <trkpt lat="46.65811" lon="5.75031">
        <ele>501.401948</ele>
        <time>2020-10-11T06:40:21.911Z</time>
      </trkpt>
      <trkpt lat="46.65737" lon="5.74987">
        <ele>499.452363</ele>
        <time>2020-10-11T06:40:33.701Z</time>
      </trkpt>
      <trkpt lat="46.65724" lon="5.7497">
        <ele>498.880567</ele>
        <time>2020-10-11T06:40:36.225Z</time>
      </trkpt>
      <trkpt lat="46.65714" lon="5.7494">
        <ele>497.967939</ele>
        <time>2020-10-11T06:40:39.448Z</time>
      </trkpt>
      <trkpt lat="46.65681" lon="5.7476">
        <ele>492.779612</ele>
        <time>2020-10-11T06:40:56.858Z</time>
      </trkpt>
      <trkpt lat="46.65635" lon="5.74639">
        <ele>487.882465</ele>
        <time>2020-10-11T06:41:09.415Z</time>
      </trkpt>
      <trkpt lat="46.6561" lon="5.74588">
        <ele>485.601622</ele>
        <time>2020-10-11T06:41:14.905Z</time>
      </trkpt>
      <trkpt lat="46.6556" lon="5.74529">
        <ele>482.115033</ele>
        <time>2020-10-11T06:41:23.246Z</time>
      </trkpt>
      <trkpt lat="46.65527" lon="5.74458">
        <ele>478.837235</ele>
        <time>2020-10-11T06:41:30.953Z</time>
      </trkpt>
      <trkpt lat="46.65476" lon="5.74345">
        <ele>473.72924</ele>
        <time>2020-10-11T06:41:43.128Z</time>
      </trkpt>
      <trkpt lat="46.65446" lon="5.74277">
        <ele>470.732181</ele>
        <time>2020-10-11T06:41:50.344Z</time>
      </trkpt>
      <trkpt lat="46.65401" lon="5.74175">
        <ele>466.295379</ele>
        <time>2020-10-11T06:42:01.007Z</time>
      </trkpt>
      <trkpt lat="46.654" lon="5.74141">
        <ele>465.033512</ele>
        <time>2020-10-11T06:42:04.064Z</time>
      </trkpt>
      <trkpt lat="46.65405" lon="5.74126">
        <ele>464.398655</ele>
        <time>2020-10-11T06:42:05.668Z</time>
      </trkpt>
      <trkpt lat="46.65415" lon="5.74107">
        <ele>463.514863</ele>
        <time>2020-10-11T06:42:07.842Z</time>
      </trkpt>
      <trkpt lat="46.6545" lon="5.7405">
        <ele>461.894812</ele>
        <time>2020-10-11T06:42:15.050Z</time>
      </trkpt>
      <trkpt lat="46.65458" lon="5.74037">
        <ele>461.63883</ele>
        <time>2020-10-11T06:42:16.713Z</time>
      </trkpt>
      <trkpt lat="46.6547" lon="5.74008">
        <ele>461.142612</ele>
        <time>2020-10-11T06:42:20.040Z</time>
      </trkpt>
      <trkpt lat="46.65477" lon="5.73969">
        <ele>460.548524</ele>
        <time>2020-10-11T06:42:24.101Z</time>
      </trkpt>
      <trkpt lat="46.65479" lon="5.7394">
        <ele>460.123321</ele>
        <time>2020-10-11T06:42:27.128Z</time>
      </trkpt>
      <trkpt lat="46.65483" lon="5.73834">
        <ele>458.976798</ele>
        <time>2020-10-11T06:42:40.897Z</time>
      </trkpt>
      <trkpt lat="46.65492" lon="5.73653">
        <ele>460.508405</ele>
        <time>2020-10-11T06:43:17.352Z</time>
      </trkpt>
      <trkpt lat="46.655" lon="5.73539">
        <ele>461.733996</ele>
        <time>2020-10-11T06:43:40.847Z</time>
      </trkpt>
      <trkpt lat="46.65517" lon="5.7344">
        <ele>463.117832</ele>
        <time>2020-10-11T06:44:03.117Z</time>
      </trkpt>
      <trkpt lat="46.65521" lon="5.73426">
        <ele>463.318899</ele>
        <time>2020-10-11T06:44:06.300Z</time>
      </trkpt>
      <trkpt lat="46.65527" lon="5.73415">
        <ele>463.507238</ele>
        <time>2020-10-11T06:44:09.928Z</time>
      </trkpt>
      <trkpt lat="46.65542" lon="5.73396">
        <ele>463.894656</ele>
        <time>2020-10-11T06:44:15.851Z</time>
      </trkpt>
      <trkpt lat="46.65571" lon="5.73373">
        <ele>464.553396</ele>
        <time>2020-10-11T06:44:26.926Z</time>
      </trkpt>
      <trkpt lat="46.65585" lon="5.73366">
        <ele>464.934357</ele>
        <time>2020-10-11T06:44:32.172Z</time>
      </trkpt>
      <trkpt lat="46.65606" lon="5.73357">
        <ele>465.501918</ele>
        <time>2020-10-11T06:44:39.150Z</time>
      </trkpt>
      <trkpt lat="46.65623" lon="5.73352">
        <ele>465.947621</ele>
        <time>2020-10-11T06:44:45.494Z</time>
      </trkpt>
      <trkpt lat="46.65682" lon="5.73347">
        <ele>467.495457</ele>
        <time>2020-10-11T06:45:06.130Z</time>
      </trkpt>
      <trkpt lat="46.65905" lon="5.73329">
        <ele>473.945009</ele>
        <time>2020-10-11T06:46:29.010Z</time>
      </trkpt>
      <trkpt lat="46.65921" lon="5.73325">
        <ele>474.411121</ele>
        <time>2020-10-11T06:46:35.220Z</time>
      </trkpt>
      <trkpt lat="46.65933" lon="5.73314">
        <ele>474.87354</ele>
        <time>2020-10-11T06:46:40.076Z</time>
      </trkpt>
      <trkpt lat="46.65936" lon="5.73307">
        <ele>475.096937</ele>
        <time>2020-10-11T06:46:43.014Z</time>
      </trkpt>
      <trkpt lat="46.65939" lon="5.73298">
        <ele>475.327218</ele>
        <time>2020-10-11T06:46:46.181Z</time>
      </trkpt>
      <trkpt lat="46.65937" lon="5.73275">
        <ele>475.904635</ele>
        <time>2020-10-11T06:46:51.741Z</time>
      </trkpt>
      <trkpt lat="46.65927" lon="5.7326">
        <ele>476.40681</ele>
        <time>2020-10-11T06:46:57.461Z</time>
      </trkpt>
      <trkpt lat="46.6585" lon="5.73226">
        <ele>479.339337</ele>
        <time>2020-10-11T06:47:30.865Z</time>
      </trkpt>
      <trkpt lat="46.65829" lon="5.7319">
        <ele>480.514251</ele>
        <time>2020-10-11T06:47:44.470Z</time>
      </trkpt>
      <trkpt lat="46.65811" lon="5.73129">
        <ele>482.652672</ele>
        <time>2020-10-11T06:48:01.605Z</time>
      </trkpt>
      <trkpt lat="46.65786" lon="5.72926">
        <ele>490.402408</ele>
        <time>2020-10-11T06:49:17.308Z</time>
      </trkpt>
      <trkpt lat="46.65783" lon="5.729">
        <ele>491.452456</ele>
        <time>2020-10-11T06:49:27.853Z</time>
      </trkpt>
      <trkpt lat="46.6578" lon="5.72874">
        <ele>492.595617</ele>
        <time>2020-10-11T06:49:39.847Z</time>
      </trkpt>
      <trkpt lat="46.65777" lon="5.72844">
        <ele>493.918476</ele>
        <time>2020-10-11T06:49:51.625Z</time>
      </trkpt>
      <trkpt lat="46.65777" lon="5.7284">
        <ele>494.067669</ele>
        <time>2020-10-11T06:49:53.020Z</time>
      </trkpt>
      <trkpt lat="46.65781" lon="5.72839">
        <ele>494.344506</ele>
        <time>2020-10-11T06:50:04.038Z</time>
      </trkpt>
      <trkpt lat="46.65791" lon="5.72832">
        <ele>495.049895</ele>
        <time>2020-10-11T06:50:23.650Z</time>
      </trkpt>
      <trkpt lat="46.65819" lon="5.72779">
        <ele>497.944657</ele>
        <time>2020-10-11T06:51:49.926Z</time>
      </trkpt>
      <trkpt lat="46.65825" lon="5.72776">
        <ele>498.340907</ele>
        <time>2020-10-11T06:52:03.913Z</time>
      </trkpt>
      <trkpt lat="46.6583" lon="5.72784">
        <ele>498.815035</ele>
        <time>2020-10-11T06:52:09.431Z</time>
      </trkpt>
      <trkpt lat="46.65836" lon="5.72794">
        <ele>499.423995</ele>
        <time>2020-10-11T06:52:14.001Z</time>
      </trkpt>
      <trkpt lat="46.65842" lon="5.72806">
        <ele>500.030821</ele>
        <time>2020-10-11T06:52:17.355Z</time>
      </trkpt>
      <trkpt lat="46.65888" lon="5.72989">
        <ele>507.835828</ele>
        <time>2020-10-11T06:53:30.230Z</time>
      </trkpt>
      <trkpt lat="46.65898" lon="5.73015">
        <ele>509.010696</ele>
        <time>2020-10-11T06:53:39.871Z</time>
      </trkpt>
      <trkpt lat="46.65905" lon="5.73028">
        <ele>509.658806</ele>
        <time>2020-10-11T06:53:44.908Z</time>
      </trkpt>
      <trkpt lat="46.65924" lon="5.73049">
        <ele>511.002865</ele>
        <time>2020-10-11T06:53:56.349Z</time>
      </trkpt>
      <trkpt lat="46.65943" lon="5.73054">
        <ele>512.071947</ele>
        <time>2020-10-11T06:54:05.039Z</time>
      </trkpt>
      <trkpt lat="46.65953" lon="5.73052">
        <ele>512.674349</ele>
        <time>2020-10-11T06:54:11.364Z</time>
      </trkpt>
      <trkpt lat="46.65964" lon="5.73046">
        <ele>513.471984</ele>
        <time>2020-10-11T06:54:17.848Z</time>
      </trkpt>
      <trkpt lat="46.65996" lon="5.73">
        <ele>516.63789</ele>
        <time>2020-10-11T06:54:42.882Z</time>
      </trkpt>
      <trkpt lat="46.66006" lon="5.72986">
        <ele>517.607373</ele>
        <time>2020-10-11T06:54:51.255Z</time>
      </trkpt>
      <trkpt lat="46.6601" lon="5.72982">
        <ele>517.912537</ele>
        <time>2020-10-11T06:54:54.947Z</time>
      </trkpt>
      <trkpt lat="46.66046" lon="5.7294">
        <ele>521.152966</ele>
        <time>2020-10-11T06:55:23.547Z</time>
      </trkpt>
      <trkpt lat="46.66063" lon="5.72912">
        <ele>522.917462</ele>
        <time>2020-10-11T06:55:40.396Z</time>
      </trkpt>
      <trkpt lat="46.66092" lon="5.72877">
        <ele>525.659181</ele>
        <time>2020-10-11T06:56:03.849Z</time>
      </trkpt>
      <trkpt lat="46.66207" lon="5.72815">
        <ele>535.272062</ele>
        <time>2020-10-11T06:57:22.219Z</time>
      </trkpt>
      <trkpt lat="46.66263" lon="5.72774">
        <ele>540.236208</ele>
        <time>2020-10-11T06:58:04.403Z</time>
      </trkpt>
      <trkpt lat="46.66282" lon="5.72746">
        <ele>542.352265</ele>
        <time>2020-10-11T06:58:22.913Z</time>
      </trkpt>
      <trkpt lat="46.66315" lon="5.72652">
        <ele>548.072936</ele>
        <time>2020-10-11T06:59:12.604Z</time>
      </trkpt>
      <trkpt lat="46.66322" lon="5.72615">
        <ele>550.176845</ele>
        <time>2020-10-11T06:59:30.112Z</time>
      </trkpt>
      <trkpt lat="46.66322" lon="5.72576">
        <ele>552.28803</ele>
        <time>2020-10-11T06:59:46.734Z</time>
      </trkpt>
      <trkpt lat="46.66314" lon="5.72534">
        <ele>553.992286</ele>
        <time>2020-10-11T07:00:03.942Z</time>
      </trkpt>
      <trkpt lat="46.66295" lon="5.72481">
        <ele>555.386896</ele>
        <time>2020-10-11T07:00:25.781Z</time>
      </trkpt>
      <trkpt lat="46.66275" lon="5.72445">
        <ele>556.490819</ele>
        <time>2020-10-11T07:00:41.383Z</time>
      </trkpt>
      <trkpt lat="46.66166" lon="5.72295">
        <ele>559.309575</ele>
        <time>2020-10-11T07:01:21.220Z</time>
      </trkpt>
      <trkpt lat="46.6615" lon="5.72282">
        <ele>559.206675</ele>
        <time>2020-10-11T07:01:24.504Z</time>
      </trkpt>
      <trkpt lat="46.661" lon="5.72273">
        <ele>558.931112</ele>
        <time>2020-10-11T07:01:31.607Z</time>
      </trkpt>
      <trkpt lat="46.66082" lon="5.72261">
        <ele>558.821607</ele>
        <time>2020-10-11T07:01:34.706Z</time>
      </trkpt>
      <trkpt lat="46.66074" lon="5.72252">
        <ele>558.76503</ele>
        <time>2020-10-11T07:01:37.144Z</time>
      </trkpt>
      <trkpt lat="46.66068" lon="5.72241">
        <ele>558.711701</ele>
        <time>2020-10-11T07:01:38.480Z</time>
      </trkpt>
      <trkpt lat="46.66007" lon="5.72149">
        <ele>561.098064</ele>
        <time>2020-10-11T07:02:02.113Z</time>
      </trkpt>
      <trkpt lat="46.65996" lon="5.72113">
        <ele>562.009617</ele>
        <time>2020-10-11T07:02:11.545Z</time>
      </trkpt>
      <trkpt lat="46.65996" lon="5.72103">
        <ele>562.241621</ele>
        <time>2020-10-11T07:02:13.615Z</time>
      </trkpt>
      <trkpt lat="46.65997" lon="5.72093">
        <ele>562.48763</ele>
        <time>2020-10-11T07:02:19.263Z</time>
      </trkpt>
      <trkpt lat="46.65999" lon="5.72083">
        <ele>562.709202</ele>
        <time>2020-10-11T07:02:21.111Z</time>
      </trkpt>
      <trkpt lat="46.66017" lon="5.72032">
        <ele>564.052437</ele>
        <time>2020-10-11T07:02:42.042Z</time>
      </trkpt>
      <trkpt lat="46.66083" lon="5.71845">
        <ele>572.202613</ele>
        <time>2020-10-11T07:04:17.289Z</time>
      </trkpt>
      <trkpt lat="46.66104" lon="5.71769">
        <ele>575.453449</ele>
        <time>2020-10-11T07:04:39.371Z</time>
      </trkpt>
      <trkpt lat="46.66106" lon="5.71751">
        <ele>575.195034</ele>
        <time>2020-10-11T07:04:44.890Z</time>
      </trkpt>
      <trkpt lat="46.66106" lon="5.71737">
        <ele>574.981068</ele>
        <time>2020-10-11T07:04:46.651Z</time>
      </trkpt>
      <trkpt lat="46.661" lon="5.71678">
        <ele>574.097882</ele>
        <time>2020-10-11T07:04:55.159Z</time>
      </trkpt>
      <trkpt lat="46.6607" lon="5.71566">
        <ele>572.338105</ele>
        <time>2020-10-11T07:05:06.871Z</time>
      </trkpt>
      <trkpt lat="46.66066" lon="5.7153">
        <ele>571.802276</ele>
        <time>2020-10-11T07:05:10.072Z</time>
      </trkpt>
      <trkpt lat="46.66068" lon="5.71494">
        <ele>570.800429</ele>
        <time>2020-10-11T07:05:13.201Z</time>
      </trkpt>
      <trkpt lat="46.66077" lon="5.71457">
        <ele>569.46148</ele>
        <time>2020-10-11T07:05:16.603Z</time>
      </trkpt>
      <trkpt lat="46.66093" lon="5.71419">
        <ele>567.939737</ele>
        <time>2020-10-11T07:05:20.517Z</time>
      </trkpt>
      <trkpt lat="46.66109" lon="5.71398">
        <ele>566.881012</ele>
        <time>2020-10-11T07:05:23.296Z</time>
      </trkpt>
      <trkpt lat="46.66141" lon="5.71357">
        <ele>564.747134</ele>
        <time>2020-10-11T07:05:28.922Z</time>
      </trkpt>
      <trkpt lat="46.66179" lon="5.71312">
        <ele>562.682532</ele>
        <time>2020-10-11T07:05:35.591Z</time>
      </trkpt>
      <trkpt lat="46.66535" lon="5.70884">
        <ele>561.367615</ele>
        <time>2020-10-11T07:07:09.693Z</time>
      </trkpt>
      <trkpt lat="46.6656" lon="5.70865">
        <ele>561.386525</ele>
        <time>2020-10-11T07:07:16.088Z</time>
      </trkpt>
      <trkpt lat="46.66638" lon="5.70835">
        <ele>561.541997</ele>
        <time>2020-10-11T07:07:34.132Z</time>
      </trkpt>
      <trkpt lat="46.66734" lon="5.70822">
        <ele>561.859888</ele>
        <time>2020-10-11T07:07:56.006Z</time>
      </trkpt>
      <trkpt lat="46.66888" lon="5.70812">
        <ele>562.423123</ele>
        <time>2020-10-11T07:08:30.125Z</time>
      </trkpt>
      <trkpt lat="46.66967" lon="5.70806">
        <ele>562.789145</ele>
        <time>2020-10-11T07:08:48.166Z</time>
      </trkpt>
      <trkpt lat="46.66994" lon="5.70804">
        <ele>563.110125</ele>
        <time>2020-10-11T07:08:55.294Z</time>
      </trkpt>
      <trkpt lat="46.67018" lon="5.70788">
        <ele>563.422013</ele>
        <time>2020-10-11T07:09:02.562Z</time>
      </trkpt>
      <trkpt lat="46.67025" lon="5.70763">
        <ele>563.640293</ele>
        <time>2020-10-11T07:09:07.619Z</time>
      </trkpt>
      <trkpt lat="46.67023" lon="5.70707">
        <ele>564.099796</ele>
        <time>2020-10-11T07:09:18.482Z</time>
      </trkpt>
      <trkpt lat="46.67016" lon="5.70661">
        <ele>564.480779</ele>
        <time>2020-10-11T07:09:27.839Z</time>
      </trkpt>
      <trkpt lat="46.66998" lon="5.70571">
        <ele>565.20939</ele>
        <time>2020-10-11T07:09:47.159Z</time>
      </trkpt>
      <trkpt lat="46.66928" lon="5.70384">
        <ele>566.771287</ele>
        <time>2020-10-11T07:10:27.304Z</time>
      </trkpt>
      <trkpt lat="46.66885" lon="5.7031">
        <ele>566.07107</ele>
        <time>2020-10-11T07:10:40.615Z</time>
      </trkpt>
      <trkpt lat="46.66811" lon="5.70233">
        <ele>565.115635</ele>
        <time>2020-10-11T07:10:56.192Z</time>
      </trkpt>
      <trkpt lat="46.6674" lon="5.70116">
        <ele>559.37641</ele>
        <time>2020-10-11T07:11:10.941Z</time>
      </trkpt>
      <trkpt lat="46.66715" lon="5.70016">
        <ele>554.729381</ele>
        <time>2020-10-11T07:11:19.997Z</time>
      </trkpt>
      <trkpt lat="46.66712" lon="5.69958">
        <ele>551.222338</ele>
        <time>2020-10-11T07:11:24.810Z</time>
      </trkpt>
      <trkpt lat="46.66734" lon="5.69767">
        <ele>536.186365</ele>
        <time>2020-10-11T07:11:40.521Z</time>
      </trkpt>
      <trkpt lat="46.66763" lon="5.69627">
        <ele>529.573458</ele>
        <time>2020-10-11T07:11:52.737Z</time>
      </trkpt>
      <trkpt lat="46.66796" lon="5.69524">
        <ele>525.790167</ele>
        <time>2020-10-11T07:12:03.532Z</time>
      </trkpt>
      <trkpt lat="46.66875" lon="5.69321">
        <ele>527.260751</ele>
        <time>2020-10-11T07:12:57.014Z</time>
      </trkpt>
      <trkpt lat="46.669" lon="5.69269">
        <ele>528.219791</ele>
        <time>2020-10-11T07:13:14.535Z</time>
      </trkpt>
      <trkpt lat="46.66923" lon="5.69233">
        <ele>529.120609</ele>
        <time>2020-10-11T07:13:27.715Z</time>
      </trkpt>
      <trkpt lat="46.67101" lon="5.69019">
        <ele>534.465124</ele>
        <time>2020-10-11T07:14:50.636Z</time>
      </trkpt>
      <trkpt lat="46.67122" lon="5.68982">
        <ele>534.918604</ele>
        <time>2020-10-11T07:14:59.957Z</time>
      </trkpt>
      <trkpt lat="46.67128" lon="5.68953">
        <ele>535.210017</ele>
        <time>2020-10-11T07:15:05.658Z</time>
      </trkpt>
      <trkpt lat="46.67149" lon="5.68745">
        <ele>534.249786</ele>
        <time>2020-10-11T07:15:32.166Z</time>
      </trkpt>
      <trkpt lat="46.67172" lon="5.67887">
        <ele>518.185037</ele>
        <time>2020-10-11T07:16:56.839Z</time>
      </trkpt>
      <trkpt lat="46.67174" lon="5.67828">
        <ele>517.297117</ele>
        <time>2020-10-11T07:17:03.417Z</time>
      </trkpt>
      <trkpt lat="46.67176" lon="5.67716">
        <ele>516.776494</ele>
        <time>2020-10-11T07:17:17.147Z</time>
      </trkpt>
      <trkpt lat="46.67176" lon="5.67698">
        <ele>516.693346</ele>
        <time>2020-10-11T07:17:19.855Z</time>
      </trkpt>
      <trkpt lat="46.67178" lon="5.67651">
        <ele>516.475662</ele>
        <time>2020-10-11T07:17:26.221Z</time>
      </trkpt>
      <trkpt lat="46.67183" lon="5.67464">
        <ele>515.350528</ele>
        <time>2020-10-11T07:17:51.002Z</time>
      </trkpt>
      <trkpt lat="46.67185" lon="5.67409">
        <ele>514.964612</ele>
        <time>2020-10-11T07:17:57.255Z</time>
      </trkpt>
      <trkpt lat="46.67192" lon="5.67201">
        <ele>513.006644</ele>
        <time>2020-10-11T07:18:19.871Z</time>
      </trkpt>
      <trkpt lat="46.67193" lon="5.67115">
        <ele>512.021033</ele>
        <time>2020-10-11T07:18:29.209Z</time>
      </trkpt>
      <trkpt lat="46.67178" lon="5.67018">
        <ele>511.020577</ele>
        <time>2020-10-11T07:18:40.095Z</time>
      </trkpt>
      <trkpt lat="46.67173" lon="5.6699">
        <ele>510.786441</ele>
        <time>2020-10-11T07:18:43.380Z</time>
      </trkpt>
      <trkpt lat="46.67143" lon="5.66811">
        <ele>509.300547</ele>
        <time>2020-10-11T07:19:04.741Z</time>
      </trkpt>
      <trkpt lat="46.67095" lon="5.66508">
        <ele>507.693561</ele>
        <time>2020-10-11T07:19:42.713Z</time>
      </trkpt>
      <trkpt lat="46.67078" lon="5.66457">
        <ele>507.501884</ele>
        <time>2020-10-11T07:19:49.893Z</time>
      </trkpt>
      <trkpt lat="46.67031" lon="5.66349">
        <ele>507.066209</ele>
        <time>2020-10-11T07:20:06.391Z</time>
      </trkpt>
      <trkpt lat="46.67001" lon="5.66221">
        <ele>506.932852</ele>
        <time>2020-10-11T07:20:24.406Z</time>
      </trkpt>
      <trkpt lat="46.66947" lon="5.66071">
        <ele>506.958653</ele>
        <time>2020-10-11T07:20:48.310Z</time>
      </trkpt>
      <trkpt lat="46.66874" lon="5.65886">
        <ele>508.631944</ele>
        <time>2020-10-11T07:21:28.091Z</time>
      </trkpt>
      <trkpt lat="46.66856" lon="5.65839">
        <ele>509.105563</ele>
        <time>2020-10-11T07:21:39.399Z</time>
      </trkpt>
      <trkpt lat="46.668" lon="5.65701">
        <ele>511.398973</ele>
        <time>2020-10-11T07:22:15.097Z</time>
      </trkpt>
      <trkpt lat="46.66777" lon="5.65646">
        <ele>512.30923</ele>
        <time>2020-10-11T07:22:29.916Z</time>
      </trkpt>
      <trkpt lat="46.66701" lon="5.65457">
        <ele>515.778789</ele>
        <time>2020-10-11T07:23:21.573Z</time>
      </trkpt>
      <trkpt lat="46.66672" lon="5.65373">
        <ele>517.0811</ele>
        <time>2020-10-11T07:23:43.673Z</time>
      </trkpt>
      <trkpt lat="46.66658" lon="5.65333">
        <ele>517.349103</ele>
        <time>2020-10-11T07:23:53.048Z</time>
      </trkpt>
      <trkpt lat="46.66649" lon="5.65305">
        <ele>517.527489</ele>
        <time>2020-10-11T07:23:59.362Z</time>
      </trkpt>
      <trkpt lat="46.6664" lon="5.65274">
        <ele>517.730321</ele>
        <time>2020-10-11T07:24:05.470Z</time>
      </trkpt>
      <trkpt lat="46.66631" lon="5.65237">
        <ele>517.965746</ele>
        <time>2020-10-11T07:24:12.584Z</time>
      </trkpt>
      <trkpt lat="46.66627" lon="5.65205">
        <ele>518.158283</ele>
        <time>2020-10-11T07:24:18.091Z</time>
      </trkpt>
      <trkpt lat="46.66625" lon="5.65188">
        <ele>518.263404</ele>
        <time>2020-10-11T07:24:20.185Z</time>
      </trkpt>
      <trkpt lat="46.66599" lon="5.65127">
        <ele>518.260888</ele>
        <time>2020-10-11T07:24:29.333Z</time>
      </trkpt>
      <trkpt lat="46.6656" lon="5.65073">
        <ele>517.609842</ele>
        <time>2020-10-11T07:24:38.092Z</time>
      </trkpt>
      <trkpt lat="46.66539" lon="5.65051">
        <ele>517.298653</ele>
        <time>2020-10-11T07:24:42.130Z</time>
      </trkpt>
      <trkpt lat="46.66535" lon="5.65044">
        <ele>517.220393</ele>
        <time>2020-10-11T07:24:43.162Z</time>
      </trkpt>
      <trkpt lat="46.66533" lon="5.65042">
        <ele>517.193753</ele>
        <time>2020-10-11T07:24:43.487Z</time>
      </trkpt>
      <trkpt lat="46.66531" lon="5.65031">
        <ele>517.099194</ele>
        <time>2020-10-11T07:24:44.629Z</time>
      </trkpt>
      <trkpt lat="46.66533" lon="5.64982">
        <ele>516.697005</ele>
        <time>2020-10-11T07:24:50.315Z</time>
      </trkpt>
      <trkpt lat="46.6654" lon="5.64928">
        <ele>516.293179</ele>
        <time>2020-10-11T07:24:56.705Z</time>
      </trkpt>
      <trkpt lat="46.66541" lon="5.6492">
        <ele>516.259741</ele>
        <time>2020-10-11T07:24:57.652Z</time>
      </trkpt>
      <trkpt lat="46.66545" lon="5.64891">
        <ele>516.145566</ele>
        <time>2020-10-11T07:25:01.198Z</time>
      </trkpt>
      <trkpt lat="46.66555" lon="5.64832">
        <ele>515.907049</ele>
        <time>2020-10-11T07:25:08.259Z</time>
      </trkpt>
      <trkpt lat="46.66556" lon="5.64826">
        <ele>515.881681</ele>
        <time>2020-10-11T07:25:08.988Z</time>
      </trkpt>
      <trkpt lat="46.66555" lon="5.64812">
        <ele>515.824842</ele>
        <time>2020-10-11T07:25:10.703Z</time>
      </trkpt>
      <trkpt lat="46.66553" lon="5.64801">
        <ele>515.781564</ele>
        <time>2020-10-11T07:25:12.144Z</time>
      </trkpt>
      <trkpt lat="46.6655" lon="5.64788">
        <ele>515.724327</ele>
        <time>2020-10-11T07:25:14.027Z</time>
      </trkpt>
      <trkpt lat="46.66548" lon="5.64775">
        <ele>515.671544</ele>
        <time>2020-10-11T07:25:15.836Z</time>
      </trkpt>
      <trkpt lat="46.66547" lon="5.64767">
        <ele>515.642282</ele>
        <time>2020-10-11T07:25:16.704Z</time>
      </trkpt>
      <trkpt lat="46.66553" lon="5.64721">
        <ele>515.457337</ele>
        <time>2020-10-11T07:25:22.946Z</time>
      </trkpt>
      <trkpt lat="46.66563" lon="5.64679">
        <ele>515.330727</ele>
        <time>2020-10-11T07:25:29.626Z</time>
      </trkpt>
      <trkpt lat="46.66573" lon="5.64638">
        <ele>515.500954</ele>
        <time>2020-10-11T07:25:36.409Z</time>
      </trkpt>
      <trkpt lat="46.6658" lon="5.64607">
        <ele>515.627651</ele>
        <time>2020-10-11T07:25:41.391Z</time>
      </trkpt>
      <trkpt lat="46.66584" lon="5.64588">
        <ele>515.70407</ele>
        <time>2020-10-11T07:25:45.249Z</time>
      </trkpt>
      <trkpt lat="46.66595" lon="5.64509">
        <ele>516.01674</ele>
        <time>2020-10-11T07:25:58.294Z</time>
      </trkpt>
      <trkpt lat="46.66599" lon="5.64473">
        <ele>516.155244</ele>
        <time>2020-10-11T07:26:04.629Z</time>
      </trkpt>
      <trkpt lat="46.66601" lon="5.64397">
        <ele>516.626984</ele>
        <time>2020-10-11T07:26:17.481Z</time>
      </trkpt>
      <trkpt lat="46.66598" lon="5.64385">
        <ele>516.74793</ele>
        <time>2020-10-11T07:26:20.527Z</time>
      </trkpt>
      <trkpt lat="46.66592" lon="5.64353">
        <ele>517.050125</ele>
        <time>2020-10-11T07:26:26.611Z</time>
      </trkpt>
      <trkpt lat="46.6659" lon="5.64323">
        <ele>517.331967</ele>
        <time>2020-10-11T07:26:33.198Z</time>
      </trkpt>
      <trkpt lat="46.66596" lon="5.64224">
        <ele>518.247909</ele>
        <time>2020-10-11T07:26:53.628Z</time>
      </trkpt>
      <trkpt lat="46.66595" lon="5.6421">
        <ele>518.376943</ele>
        <time>2020-10-11T07:26:56.314Z</time>
      </trkpt>
      <trkpt lat="46.66594" lon="5.64186">
        <ele>518.594733</ele>
        <time>2020-10-11T07:27:00.713Z</time>
      </trkpt>
      <trkpt lat="46.66594" lon="5.64163">
        <ele>518.756589</ele>
        <time>2020-10-11T07:27:05.821Z</time>
      </trkpt>
      <trkpt lat="46.66599" lon="5.64124">
        <ele>518.872931</ele>
        <time>2020-10-11T07:27:12.865Z</time>
      </trkpt>
      <trkpt lat="46.6662" lon="5.64061">
        <ele>519.076202</ele>
        <time>2020-10-11T07:27:25.067Z</time>
      </trkpt>
      <trkpt lat="46.66631" lon="5.6402">
        <ele>519.204846</ele>
        <time>2020-10-11T07:27:32.198Z</time>
      </trkpt>
      <trkpt lat="46.66606" lon="5.64007">
        <ele>519.318205</ele>
        <time>2020-10-11T07:27:39.179Z</time>
      </trkpt>
      <trkpt lat="46.6655" lon="5.63982">
        <ele>519.495578</ele>
        <time>2020-10-11T07:27:54.876Z</time>
      </trkpt>
      <trkpt lat="46.66521" lon="5.63949">
        <ele>519.493033</ele>
        <time>2020-10-11T07:28:04.441Z</time>
      </trkpt>
      <trkpt lat="46.66504" lon="5.63917">
        <ele>519.491084</ele>
        <time>2020-10-11T07:28:11.822Z</time>
      </trkpt>
      <trkpt lat="46.66493" lon="5.6389">
        <ele>519.489611</ele>
        <time>2020-10-11T07:28:17.069Z</time>
      </trkpt>
      <trkpt lat="46.66474" lon="5.63823">
        <ele>519.48611</ele>
        <time>2020-10-11T07:28:31.245Z</time>
      </trkpt>
      <trkpt lat="46.66457" lon="5.63709">
        <ele>520.81088</ele>
        <time>2020-10-11T07:28:58.182Z</time>
      </trkpt>
      <trkpt lat="46.66459" lon="5.63649">
        <ele>521.868907</ele>
        <time>2020-10-11T07:29:17.687Z</time>
      </trkpt>
      <trkpt lat="46.66474" lon="5.6358">
        <ele>523.13935</ele>
        <time>2020-10-11T07:29:41.802Z</time>
      </trkpt>
      <trkpt lat="46.66482" lon="5.63519">
        <ele>524.185396</ele>
        <time>2020-10-11T07:30:01.739Z</time>
      </trkpt>
      <trkpt lat="46.66479" lon="5.63491">
        <ele>524.566677</ele>
        <time>2020-10-11T07:30:11.739Z</time>
      </trkpt>
      <trkpt lat="46.66459" lon="5.63485">
        <ele>524.961585</ele>
        <time>2020-10-11T07:30:19.913Z</time>
      </trkpt>
      <trkpt lat="46.66442" lon="5.63477">
        <ele>525.313409</ele>
        <time>2020-10-11T07:30:28.166Z</time>
      </trkpt>
      <trkpt lat="46.66422" lon="5.6346">
        <ele>525.760713</ele>
        <time>2020-10-11T07:30:37.203Z</time>
      </trkpt>
      <trkpt lat="46.66387" lon="5.63436">
        <ele>526.528995</ele>
        <time>2020-10-11T07:30:52.620Z</time>
      </trkpt>
      <trkpt lat="46.66369" lon="5.63409">
        <ele>527.030629</ele>
        <time>2020-10-11T07:31:01.524Z</time>
      </trkpt>
      <trkpt lat="46.66364" lon="5.63387">
        <ele>527.339905</ele>
        <time>2020-10-11T07:31:07.699Z</time>
      </trkpt>
      <trkpt lat="46.6636" lon="5.63359">
        <ele>527.511347</ele>
        <time>2020-10-11T07:31:13.460Z</time>
      </trkpt>
      <trkpt lat="46.66358" lon="5.63333">
        <ele>527.325747</ele>
        <time>2020-10-11T07:31:18.194Z</time>
      </trkpt>
      <trkpt lat="46.66348" lon="5.63295">
        <ele>527.035405</ele>
        <time>2020-10-11T07:31:25.122Z</time>
      </trkpt>
      <trkpt lat="46.66324" lon="5.63247">
        <ele>526.615672</ele>
        <time>2020-10-11T07:31:34.792Z</time>
      </trkpt>
      <trkpt lat="46.66275" lon="5.63199">
        <ele>526.000653</ele>
        <time>2020-10-11T07:31:48.008Z</time>
      </trkpt>
      <trkpt lat="46.66268" lon="5.63185">
        <ele>525.877885</ele>
        <time>2020-10-11T07:31:50.729Z</time>
      </trkpt>
      <trkpt lat="46.66244" lon="5.63093">
        <ele>525.067101</ele>
        <time>2020-10-11T07:32:06.308Z</time>
      </trkpt>
      <trkpt lat="46.66241" lon="5.63069">
        <ele>524.861126</ele>
        <time>2020-10-11T07:32:10.227Z</time>
      </trkpt>
      <trkpt lat="46.66232" lon="5.63064">
        <ele>524.746184</ele>
        <time>2020-10-11T07:32:12.212Z</time>
      </trkpt>
      <trkpt lat="46.66178" lon="5.63043">
        <ele>524.04266</ele>
        <time>2020-10-11T07:32:25.784Z</time>
      </trkpt>
      <trkpt lat="46.66152" lon="5.63023">
        <ele>523.685185</ele>
        <time>2020-10-11T07:32:32.704Z</time>
      </trkpt>
      <trkpt lat="46.66135" lon="5.6299">
        <ele>523.534263</ele>
        <time>2020-10-11T07:32:39.647Z</time>
      </trkpt>
      <trkpt lat="46.66119" lon="5.62922">
        <ele>523.765403</ele>
        <time>2020-10-11T07:32:52.604Z</time>
      </trkpt>
      <trkpt lat="46.66066" lon="5.62853">
        <ele>524.09832</ele>
        <time>2020-10-11T07:33:14.797Z</time>
      </trkpt>
      <trkpt lat="46.65991" lon="5.6273">
        <ele>526.114331</ele>
        <time>2020-10-11T07:33:58.075Z</time>
      </trkpt>
      <trkpt lat="46.65937" lon="5.62642">
        <ele>528.297578</ele>
        <time>2020-10-11T07:34:36.055Z</time>
      </trkpt>
      <trkpt lat="46.65924" lon="5.62624">
        <ele>528.800733</ele>
        <time>2020-10-11T07:34:45.270Z</time>
      </trkpt>
      <trkpt lat="46.65865" lon="5.62573">
        <ele>530.447388</ele>
        <time>2020-10-11T07:35:16.428Z</time>
      </trkpt>
      <trkpt lat="46.65862" lon="5.62569">
        <ele>530.534915</ele>
        <time>2020-10-11T07:35:19.301Z</time>
      </trkpt>
      <trkpt lat="46.65855" lon="5.62558">
        <ele>530.769403</ele>
        <time>2020-10-11T07:35:22.968Z</time>
      </trkpt>
      <trkpt lat="46.65831" lon="5.62516">
        <ele>531.639659</ele>
        <time>2020-10-11T07:35:36.111Z</time>
      </trkpt>
      <trkpt lat="46.65817" lon="5.62501">
        <ele>532.044892</ele>
        <time>2020-10-11T07:35:41.184Z</time>
      </trkpt>
      <trkpt lat="46.65814" lon="5.62487">
        <ele>532.273589</ele>
        <time>2020-10-11T07:35:45.098Z</time>
      </trkpt>
      <trkpt lat="46.65768" lon="5.62387">
        <ele>533.334812</ele>
        <time>2020-10-11T07:36:07.706Z</time>
      </trkpt>
      <trkpt lat="46.65743" lon="5.62351">
        <ele>533.302961</ele>
        <time>2020-10-11T07:36:14.156Z</time>
      </trkpt>
      <trkpt lat="46.65689" lon="5.62298">
        <ele>533.242649</ele>
        <time>2020-10-11T07:36:26.213Z</time>
      </trkpt>
      <trkpt lat="46.6567" lon="5.62279">
        <ele>533.221004</ele>
        <time>2020-10-11T07:36:30.809Z</time>
      </trkpt>
      <trkpt lat="46.6566" lon="5.62265">
        <ele>533.208529</ele>
        <time>2020-10-11T07:36:33.089Z</time>
      </trkpt>
      <trkpt lat="46.65599" lon="5.6213">
        <ele>532.625247</ele>
        <time>2020-10-11T07:36:53.513Z</time>
      </trkpt>
      <trkpt lat="46.65568" lon="5.62108">
        <ele>532.432663</ele>
        <time>2020-10-11T07:36:59.880Z</time>
      </trkpt>
      <trkpt lat="46.65555" lon="5.62092">
        <ele>532.338789</ele>
        <time>2020-10-11T07:37:03.307Z</time>
      </trkpt>
      <trkpt lat="46.65544" lon="5.62052">
        <ele>532.150321</ele>
        <time>2020-10-11T07:37:09.011Z</time>
      </trkpt>
      <trkpt lat="46.65528" lon="5.61891">
        <ele>530.97307</ele>
        <time>2020-10-11T07:37:28.337Z</time>
      </trkpt>
      <trkpt lat="46.65474" lon="5.61761">
        <ele>529.82584</ele>
        <time>2020-10-11T07:37:45.102Z</time>
      </trkpt>
      <trkpt lat="46.65445" lon="5.61638">
        <ele>528.783716</ele>
        <time>2020-10-11T07:37:59.298Z</time>
      </trkpt>
      <trkpt lat="46.65399" lon="5.61518">
        <ele>528.562072</ele>
        <time>2020-10-11T07:38:17.788Z</time>
      </trkpt>
      <trkpt lat="46.65387" lon="5.615">
        <ele>528.696263</ele>
        <time>2020-10-11T07:38:21.597Z</time>
      </trkpt>
      <trkpt lat="46.65346" lon="5.61439">
        <ele>529.16961</ele>
        <time>2020-10-11T07:38:37.567Z</time>
      </trkpt>
      <trkpt lat="46.65309" lon="5.61383">
        <ele>529.598112</ele>
        <time>2020-10-11T07:38:53.527Z</time>
      </trkpt>
      <trkpt lat="46.65227" lon="5.61257">
        <ele>530.577654</ele>
        <time>2020-10-11T07:39:28.083Z</time>
      </trkpt>
      <trkpt lat="46.65221" lon="5.61244">
        <ele>530.666686</ele>
        <time>2020-10-11T07:39:30.860Z</time>
      </trkpt>
      <trkpt lat="46.65217" lon="5.61236">
        <ele>530.721227</ele>
        <time>2020-10-11T07:39:32.311Z</time>
      </trkpt>
      <trkpt lat="46.65206" lon="5.61205">
        <ele>530.917148</ele>
        <time>2020-10-11T07:39:37.763Z</time>
      </trkpt>
      <trkpt lat="46.65188" lon="5.61173">
        <ele>531.088461</ele>
        <time>2020-10-11T07:39:43.547Z</time>
      </trkpt>
      <trkpt lat="46.65003" lon="5.60967">
        <ele>526.788452</ele>
        <time>2020-10-11T07:40:21.364Z</time>
      </trkpt>
      <trkpt lat="46.64973" lon="5.60912">
        <ele>525.034083</ele>
        <time>2020-10-11T07:40:27.893Z</time>
      </trkpt>
      <trkpt lat="46.64962" lon="5.60886">
        <ele>524.252766</ele>
        <time>2020-10-11T07:40:30.757Z</time>
      </trkpt>
      <trkpt lat="46.6496" lon="5.60875">
        <ele>523.970343</ele>
        <time>2020-10-11T07:40:31.783Z</time>
      </trkpt>
      <trkpt lat="46.64961" lon="5.6084">
        <ele>523.095296</ele>
        <time>2020-10-11T07:40:34.942Z</time>
      </trkpt>
      <trkpt lat="46.64973" lon="5.60799">
        <ele>521.864814</ele>
        <time>2020-10-11T07:40:38.936Z</time>
      </trkpt>
      <trkpt lat="46.64982" lon="5.60784">
        <ele>521.14105</ele>
        <time>2020-10-11T07:40:40.731Z</time>
      </trkpt>
      <trkpt lat="46.65005" lon="5.60758">
        <ele>519.589402</ele>
        <time>2020-10-11T07:40:44.492Z</time>
      </trkpt>
      <trkpt lat="46.65037" lon="5.60728">
        <ele>517.585408</ele>
        <time>2020-10-11T07:40:49.398Z</time>
      </trkpt>
      <trkpt lat="46.65127" lon="5.6067">
        <ele>512.574874</ele>
        <time>2020-10-11T07:41:02.252Z</time>
      </trkpt>
      <trkpt lat="46.65186" lon="5.6065">
        <ele>511.108321</ele>
        <time>2020-10-11T07:41:10.825Z</time>
      </trkpt>
      <trkpt lat="46.65224" lon="5.60625">
        <ele>510.087917</ele>
        <time>2020-10-11T07:41:17.197Z</time>
      </trkpt>
      <trkpt lat="46.65247" lon="5.6062">
        <ele>509.535077</ele>
        <time>2020-10-11T07:41:20.821Z</time>
      </trkpt>
      <trkpt lat="46.65255" lon="5.60625">
        <ele>509.306144</ele>
        <time>2020-10-11T07:41:22.436Z</time>
      </trkpt>
      <trkpt lat="46.6527" lon="5.60656">
        <ele>508.670779</ele>
        <time>2020-10-11T07:41:26.983Z</time>
      </trkpt>
      <trkpt lat="46.6529" lon="5.6076">
        <ele>507.5524</ele>
        <time>2020-10-11T07:41:40.417Z</time>
      </trkpt>
      <trkpt lat="46.6534" lon="5.60884">
        <ele>506.236531</ele>
        <time>2020-10-11T07:41:56.472Z</time>
      </trkpt>
      <trkpt lat="46.65368" lon="5.60987">
        <ele>503.568325</ele>
        <time>2020-10-11T07:42:08.114Z</time>
      </trkpt>
      <trkpt lat="46.65394" lon="5.61049">
        <ele>501.453578</ele>
        <time>2020-10-11T07:42:15.334Z</time>
      </trkpt>
      <trkpt lat="46.6541" lon="5.61127">
        <ele>499.079892</ele>
        <time>2020-10-11T07:42:23.195Z</time>
      </trkpt>
      <trkpt lat="46.6543" lon="5.61194">
        <ele>493.627113</ele>
        <time>2020-10-11T07:42:29.228Z</time>
      </trkpt>
      <trkpt lat="46.65467" lon="5.6128">
        <ele>483.583682</ele>
        <time>2020-10-11T07:42:37.361Z</time>
      </trkpt>
      <trkpt lat="46.65492" lon="5.61321">
        <ele>478.165402</ele>
        <time>2020-10-11T07:42:41.726Z</time>
      </trkpt>
      <trkpt lat="46.65496" lon="5.61324">
        <ele>477.495543</ele>
        <time>2020-10-11T07:42:42.271Z</time>
      </trkpt>
      <trkpt lat="46.65501" lon="5.61324">
        <ele>476.830509</ele>
        <time>2020-10-11T07:42:42.789Z</time>
      </trkpt>
      <trkpt lat="46.65508" lon="5.61323">
        <ele>475.710515</ele>
        <time>2020-10-11T07:42:43.739Z</time>
      </trkpt>
      <trkpt lat="46.65516" lon="5.61318">
        <ele>474.536514</ele>
        <time>2020-10-11T07:42:44.683Z</time>
      </trkpt>
      <trkpt lat="46.6552" lon="5.61314">
        <ele>473.808792</ele>
        <time>2020-10-11T07:42:45.296Z</time>
      </trkpt>
      <trkpt lat="46.65528" lon="5.61298">
        <ele>471.825428</ele>
        <time>2020-10-11T07:42:46.824Z</time>
      </trkpt>
      <trkpt lat="46.65554" lon="5.61196">
        <ele>459.203163</ele>
        <time>2020-10-11T07:42:55.437Z</time>
      </trkpt>
      <trkpt lat="46.65564" lon="5.61175">
        <ele>456.274674</ele>
        <time>2020-10-11T07:42:57.431Z</time>
      </trkpt>
      <trkpt lat="46.65611" lon="5.6111">
        <ele>445.242318</ele>
        <time>2020-10-11T07:43:04.979Z</time>
      </trkpt>
      <trkpt lat="46.65716" lon="5.61009">
        <ele>432.308095</ele>
        <time>2020-10-11T07:43:20.251Z</time>
      </trkpt>
      <trkpt lat="46.65881" lon="5.60965">
        <ele>417.916991</ele>
        <time>2020-10-11T07:43:41.160Z</time>
      </trkpt>
      <trkpt lat="46.65949" lon="5.60958">
        <ele>412.310984</ele>
        <time>2020-10-11T07:43:49.533Z</time>
      </trkpt>
      <trkpt lat="46.66065" lon="5.60964">
        <ele>400.702797</ele>
        <time>2020-10-11T07:44:03.508Z</time>
      </trkpt>
      <trkpt lat="46.66067" lon="5.60953">
        <ele>399.871852</ele>
        <time>2020-10-11T07:44:04.474Z</time>
      </trkpt>
      <trkpt lat="46.66058" lon="5.60935">
        <ele>398.294275</ele>
        <time>2020-10-11T07:44:06.319Z</time>
      </trkpt>
      <trkpt lat="46.66013" lon="5.60909">
        <ele>393.263245</ele>
        <time>2020-10-11T07:44:12.166Z</time>
      </trkpt>
      <trkpt lat="46.65886" lon="5.60809">
        <ele>376.574982</ele>
        <time>2020-10-11T07:44:29.273Z</time>
      </trkpt>
      <trkpt lat="46.65874" lon="5.60795">
        <ele>374.840698</ele>
        <time>2020-10-11T07:44:31.031Z</time>
      </trkpt>
      <trkpt lat="46.65835" lon="5.60745">
        <ele>369.161759</ele>
        <time>2020-10-11T07:44:37.299Z</time>
      </trkpt>
      <trkpt lat="46.65793" lon="5.60703">
        <ele>364.192265</ele>
        <time>2020-10-11T07:44:43.319Z</time>
      </trkpt>
      <trkpt lat="46.65714" lon="5.60662">
        <ele>355.996217</ele>
        <time>2020-10-11T07:44:53.439Z</time>
      </trkpt>
      <trkpt lat="46.65695" lon="5.60649">
        <ele>353.882313</ele>
        <time>2020-10-11T07:44:56.149Z</time>
      </trkpt>
      <trkpt lat="46.65679" lon="5.60635">
        <ele>352.642067</ele>
        <time>2020-10-11T07:44:58.497Z</time>
      </trkpt>
      <trkpt lat="46.65659" lon="5.6061">
        <ele>350.904532</ele>
        <time>2020-10-11T07:45:01.858Z</time>
      </trkpt>
      <trkpt lat="46.65652" lon="5.60601">
        <ele>350.226028</ele>
        <time>2020-10-11T07:45:03.161Z</time>
      </trkpt>
      <trkpt lat="46.6563" lon="5.60575">
        <ele>348.401413</ele>
        <time>2020-10-11T07:45:06.635Z</time>
      </trkpt>
      <trkpt lat="46.65601" lon="5.60547">
        <ele>346.040228</ele>
        <time>2020-10-11T07:45:11.184Z</time>
      </trkpt>
      <trkpt lat="46.65598" lon="5.60544">
        <ele>345.800995</ele>
        <time>2020-10-11T07:45:11.669Z</time>
      </trkpt>
      <trkpt lat="46.65589" lon="5.60534">
        <ele>345.064146</ele>
        <time>2020-10-11T07:45:13.060Z</time>
      </trkpt>
      <trkpt lat="46.65583" lon="5.60522">
        <ele>344.406964</ele>
        <time>2020-10-11T07:45:14.286Z</time>
      </trkpt>
      <trkpt lat="46.65578" lon="5.6051">
        <ele>343.748553</ele>
        <time>2020-10-11T07:45:15.531Z</time>
      </trkpt>
      <trkpt lat="46.6557" lon="5.60473">
        <ele>341.986853</ele>
        <time>2020-10-11T07:45:19.017Z</time>
      </trkpt>
      <trkpt lat="46.65562" lon="5.60438">
        <ele>340.40241</ele>
        <time>2020-10-11T07:45:22.308Z</time>
      </trkpt>
      <trkpt lat="46.65556" lon="5.60411">
        <ele>339.175023</ele>
        <time>2020-10-11T07:45:24.823Z</time>
      </trkpt>
      <trkpt lat="46.6554" lon="5.60354">
        <ele>336.502054</ele>
        <time>2020-10-11T07:45:30.306Z</time>
      </trkpt>
      <trkpt lat="46.65536" lon="5.60328">
        <ele>335.368588</ele>
        <time>2020-10-11T07:45:32.595Z</time>
      </trkpt>
      <trkpt lat="46.65534" lon="5.60312">
        <ele>334.664119</ele>
        <time>2020-10-11T07:45:33.995Z</time>
      </trkpt>
      <trkpt lat="46.65534" lon="5.60265">
        <ele>332.656552</ele>
        <time>2020-10-11T07:45:38.034Z</time>
      </trkpt>
      <trkpt lat="46.6553" lon="5.60245">
        <ele>331.716389</ele>
        <time>2020-10-11T07:45:39.955Z</time>
      </trkpt>
      <trkpt lat="46.65523" lon="5.60214">
        <ele>330.368029</ele>
        <time>2020-10-11T07:45:42.709Z</time>
      </trkpt>
      <trkpt lat="46.65517" lon="5.60189">
        <ele>329.446166</ele>
        <time>2020-10-11T07:45:45.087Z</time>
      </trkpt>
      <trkpt lat="46.65513" lon="5.60171">
        <ele>328.770551</ele>
        <time>2020-10-11T07:45:46.758Z</time>
      </trkpt>
      <trkpt lat="46.65514" lon="5.60072">
        <ele>325.295449</ele>
        <time>2020-10-11T07:45:55.726Z</time>
      </trkpt>
      <trkpt lat="46.65514" lon="5.60026">
        <ele>323.684517</ele>
        <time>2020-10-11T07:45:59.953Z</time>
      </trkpt>
      <trkpt lat="46.65516" lon="5.60009">
        <ele>323.073089</ele>
        <time>2020-10-11T07:46:01.527Z</time>
      </trkpt>
      <trkpt lat="46.65509" lon="5.59946">
        <ele>321.001803</ele>
        <time>2020-10-11T07:46:07.494Z</time>
      </trkpt>
      <trkpt lat="46.6549" lon="5.59896">
        <ele>319.667074</ele>
        <time>2020-10-11T07:46:12.918Z</time>
      </trkpt>
      <trkpt lat="46.65484" lon="5.59886">
        <ele>319.326994</ele>
        <time>2020-10-11T07:46:14.239Z</time>
      </trkpt>
      <trkpt lat="46.65475" lon="5.59873">
        <ele>318.89985</ele>
        <time>2020-10-11T07:46:15.946Z</time>
      </trkpt>
      <trkpt lat="46.6546" lon="5.59849">
        <ele>318.136653</ele>
        <time>2020-10-11T07:46:18.993Z</time>
      </trkpt>
      <trkpt lat="46.65463" lon="5.59839">
        <ele>317.872957</ele>
        <time>2020-10-11T07:46:20.039Z</time>
      </trkpt>
      <trkpt lat="46.6548" lon="5.5978">
        <ele>316.35852</ele>
        <time>2020-10-11T07:46:26.372Z</time>
      </trkpt>
      <trkpt lat="46.65507" lon="5.59724">
        <ele>314.819296</ele>
        <time>2020-10-11T07:46:33.287Z</time>
      </trkpt>
      <trkpt lat="46.6552" lon="5.59702">
        <ele>314.264853</ele>
        <time>2020-10-11T07:46:36.158Z</time>
      </trkpt>
      <trkpt lat="46.65534" lon="5.59675">
        <ele>313.649565</ele>
        <time>2020-10-11T07:46:39.446Z</time>
      </trkpt>
      <trkpt lat="46.65604" lon="5.59544">
        <ele>310.556619</ele>
        <time>2020-10-11T07:46:56.205Z</time>
      </trkpt>
      <trkpt lat="46.65617" lon="5.59525">
        <ele>310.088375</ele>
        <time>2020-10-11T07:46:58.845Z</time>
      </trkpt>
      <trkpt lat="46.65623" lon="5.59519">
        <ele>309.913873</ele>
        <time>2020-10-11T07:46:59.934Z</time>
      </trkpt>
      <trkpt lat="46.6566" lon="5.5947">
        <ele>308.704296</ele>
        <time>2020-10-11T07:47:07.519Z</time>
      </trkpt>
      <trkpt lat="46.65711" lon="5.59403">
        <ele>307.058167</ele>
        <time>2020-10-11T07:47:17.685Z</time>
      </trkpt>
      <trkpt lat="46.65768" lon="5.59326">
        <ele>305.243066</ele>
        <time>2020-10-11T07:47:29.378Z</time>
      </trkpt>
      <trkpt lat="46.65788" lon="5.593">
        <ele>304.635235</ele>
        <time>2020-10-11T07:47:33.482Z</time>
      </trkpt>
      <trkpt lat="46.65843" lon="5.59227">
        <ele>302.979705</ele>
        <time>2020-10-11T07:47:44.634Z</time>
      </trkpt>
      <trkpt lat="46.65847" lon="5.59222">
        <ele>302.858357</ele>
        <time>2020-10-11T07:47:45.462Z</time>
      </trkpt>
      <trkpt lat="46.65924" lon="5.59121">
        <ele>300.854565</ele>
        <time>2020-10-11T07:48:01.196Z</time>
      </trkpt>
      <trkpt lat="46.65979" lon="5.59049">
        <ele>299.564637</ele>
        <time>2020-10-11T07:48:13.030Z</time>
      </trkpt>
      <trkpt lat="46.65984" lon="5.59042">
        <ele>299.449298</ele>
        <time>2020-10-11T07:48:14.130Z</time>
      </trkpt>
      <trkpt lat="46.65992" lon="5.5903">
        <ele>299.252762</ele>
        <time>2020-10-11T07:48:15.947Z</time>
      </trkpt>
      <trkpt lat="46.65997" lon="5.59023">
        <ele>299.134472</ele>
        <time>2020-10-11T07:48:17.041Z</time>
      </trkpt>
      <trkpt lat="46.66006" lon="5.59015">
        <ele>298.948153</ele>
        <time>2020-10-11T07:48:18.780Z</time>
      </trkpt>
      <trkpt lat="46.66011" lon="5.59008">
        <ele>298.821122</ele>
        <time>2020-10-11T07:48:20.019Z</time>
      </trkpt>
      <trkpt lat="46.66038" lon="5.58969">
        <ele>298.258272</ele>
        <time>2020-10-11T07:48:26.246Z</time>
      </trkpt>
      <trkpt lat="46.66082" lon="5.58905">
        <ele>297.349733</ele>
        <time>2020-10-11T07:48:36.260Z</time>
      </trkpt>
      <trkpt lat="46.66084" lon="5.58903">
        <ele>297.32036</ele>
        <time>2020-10-11T07:48:36.687Z</time>
      </trkpt>
      <trkpt lat="46.66092" lon="5.58891">
        <ele>297.145861</ele>
        <time>2020-10-11T07:48:38.661Z</time>
      </trkpt>
      <trkpt lat="46.66107" lon="5.58868">
        <ele>296.831153</ele>
        <time>2020-10-11T07:48:42.168Z</time>
      </trkpt>
      <trkpt lat="46.66125" lon="5.58842">
        <ele>296.460156</ele>
        <time>2020-10-11T07:48:46.385Z</time>
      </trkpt>
      <trkpt lat="46.66127" lon="5.58838">
        <ele>296.41226</ele>
        <time>2020-10-11T07:48:46.875Z</time>
      </trkpt>
      <trkpt lat="46.6616" lon="5.58788">
        <ele>295.603352</ele>
        <time>2020-10-11T07:48:54.472Z</time>
      </trkpt>
      <trkpt lat="46.66168" lon="5.58776">
        <ele>295.395267</ele>
        <time>2020-10-11T07:48:56.263Z</time>
      </trkpt>
      <trkpt lat="46.66185" lon="5.58751">
        <ele>294.9444</ele>
        <time>2020-10-11T07:49:00.096Z</time>
      </trkpt>
      <trkpt lat="46.66216" lon="5.58707">
        <ele>294.166388</ele>
        <time>2020-10-11T07:49:06.576Z</time>
      </trkpt>
      <trkpt lat="46.66262" lon="5.58635">
        <ele>292.929501</ele>
        <time>2020-10-11T07:49:17.022Z</time>
      </trkpt>
      <trkpt lat="46.66296" lon="5.58582">
        <ele>292.249262</ele>
        <time>2020-10-11T07:49:25.075Z</time>
      </trkpt>
      <trkpt lat="46.6631" lon="5.58559">
        <ele>291.961206</ele>
        <time>2020-10-11T07:49:28.577Z</time>
      </trkpt>
      <trkpt lat="46.66342" lon="5.5851">
        <ele>291.348688</ele>
        <time>2020-10-11T07:49:36.337Z</time>
      </trkpt>
      <trkpt lat="46.66358" lon="5.58486">
        <ele>291.037192</ele>
        <time>2020-10-11T07:49:40.153Z</time>
      </trkpt>
      <trkpt lat="46.66378" lon="5.58455">
        <ele>290.647486</ele>
        <time>2020-10-11T07:49:45.036Z</time>
      </trkpt>
      <trkpt lat="46.66424" lon="5.58382">
        <ele>289.732372</ele>
        <time>2020-10-11T07:49:56.368Z</time>
      </trkpt>
      <trkpt lat="46.66436" lon="5.58365">
        <ele>289.512846</ele>
        <time>2020-10-11T07:49:59.115Z</time>
      </trkpt>
      <trkpt lat="46.66443" lon="5.58354">
        <ele>289.374125</ele>
        <time>2020-10-11T07:50:00.897Z</time>
      </trkpt>
      <trkpt lat="46.66448" lon="5.58344">
        <ele>289.256903</ele>
        <time>2020-10-11T07:50:02.341Z</time>
      </trkpt>
      <trkpt lat="46.66455" lon="5.58334">
        <ele>289.132889</ele>
        <time>2020-10-11T07:50:03.847Z</time>
      </trkpt>
      <trkpt lat="46.66499" lon="5.58262">
        <ele>288.239405</ele>
        <time>2020-10-11T07:50:14.805Z</time>
      </trkpt>
      <trkpt lat="46.66532" lon="5.58212">
        <ele>287.583346</ele>
        <time>2020-10-11T07:50:22.379Z</time>
      </trkpt>
      <trkpt lat="46.66543" lon="5.58195">
        <ele>287.355497</ele>
        <time>2020-10-11T07:50:24.951Z</time>
      </trkpt>
      <trkpt lat="46.66546" lon="5.58189">
        <ele>287.279382</ele>
        <time>2020-10-11T07:50:25.796Z</time>
      </trkpt>
      <trkpt lat="46.66555" lon="5.58174">
        <ele>287.092069</ele>
        <time>2020-10-11T07:50:27.898Z</time>
      </trkpt>
      <trkpt lat="46.66559" lon="5.58168">
        <ele>287.009058</ele>
        <time>2020-10-11T07:50:28.866Z</time>
      </trkpt>
      <trkpt lat="46.66574" lon="5.58139">
        <ele>286.655791</ele>
        <time>2020-10-11T07:50:32.885Z</time>
      </trkpt>
      <trkpt lat="46.66594" lon="5.58108">
        <ele>286.245134</ele>
        <time>2020-10-11T07:50:37.638Z</time>
      </trkpt>
      <trkpt lat="46.66653" lon="5.58015">
        <ele>285.106551</ele>
        <time>2020-10-11T07:50:52.270Z</time>
      </trkpt>
      <trkpt lat="46.66685" lon="5.57964">
        <ele>284.547846</ele>
        <time>2020-10-11T07:51:00.154Z</time>
      </trkpt>
      <trkpt lat="46.667" lon="5.57934">
        <ele>284.243506</ele>
        <time>2020-10-11T07:51:04.433Z</time>
      </trkpt>
      <trkpt lat="46.66739" lon="5.5783">
        <ele>283.252481</ele>
        <time>2020-10-11T07:51:18.158Z</time>
      </trkpt>
      <trkpt lat="46.66751" lon="5.578">
        <ele>282.900136</ele>
        <time>2020-10-11T07:51:22.089Z</time>
      </trkpt>
      <trkpt lat="46.66806" lon="5.57684">
        <ele>281.464556</ele>
        <time>2020-10-11T07:51:37.695Z</time>
      </trkpt>
      <trkpt lat="46.6683" lon="5.57636">
        <ele>280.849889</ele>
        <time>2020-10-11T07:51:44.169Z</time>
      </trkpt>
      <trkpt lat="46.66836" lon="5.57624">
        <ele>280.697337</ele>
        <time>2020-10-11T07:51:45.731Z</time>
      </trkpt>
      <trkpt lat="46.6684" lon="5.57616">
        <ele>280.586046</ele>
        <time>2020-10-11T07:51:46.815Z</time>
      </trkpt>
      <trkpt lat="46.66846" lon="5.57604">
        <ele>280.422797</ele>
        <time>2020-10-11T07:51:48.394Z</time>
      </trkpt>
      <trkpt lat="46.66857" lon="5.57581">
        <ele>280.094504</ele>
        <time>2020-10-11T07:51:51.575Z</time>
      </trkpt>
      <trkpt lat="46.66869" lon="5.57559">
        <ele>279.777805</ele>
        <time>2020-10-11T07:51:54.685Z</time>
      </trkpt>
      <trkpt lat="46.66874" lon="5.5755">
        <ele>279.641765</ele>
        <time>2020-10-11T07:51:56.007Z</time>
      </trkpt>
      <trkpt lat="46.66892" lon="5.5751">
        <ele>279.093769</ele>
        <time>2020-10-11T07:52:01.307Z</time>
      </trkpt>
      <trkpt lat="46.66893" lon="5.57509">
        <ele>279.079616</ele>
        <time>2020-10-11T07:52:01.443Z</time>
      </trkpt>
      <trkpt lat="46.66898" lon="5.57498">
        <ele>278.932428</ele>
        <time>2020-10-11T07:52:02.849Z</time>
      </trkpt>
      <trkpt lat="46.66909" lon="5.57476">
        <ele>278.616458</ele>
        <time>2020-10-11T07:52:05.834Z</time>
      </trkpt>
      <trkpt lat="46.66922" lon="5.57455">
        <ele>278.287054</ele>
        <time>2020-10-11T07:52:08.931Z</time>
      </trkpt>
      <trkpt lat="46.66941" lon="5.57397">
        <ele>277.525302</ele>
        <time>2020-10-11T07:52:15.715Z</time>
      </trkpt>
      <trkpt lat="46.66944" lon="5.57388">
        <ele>277.398881</ele>
        <time>2020-10-11T07:52:16.701Z</time>
      </trkpt>
      <trkpt lat="46.66949" lon="5.57386">
        <ele>277.29166</ele>
        <time>2020-10-11T07:52:17.559Z</time>
      </trkpt>
      <trkpt lat="46.66954" lon="5.57383">
        <ele>277.195003</ele>
        <time>2020-10-11T07:52:18.325Z</time>
      </trkpt>
      <trkpt lat="46.66957" lon="5.57378">
        <ele>277.100303</ele>
        <time>2020-10-11T07:52:19.117Z</time>
      </trkpt>
      <trkpt lat="46.6696" lon="5.57372">
        <ele>277.004668</ele>
        <time>2020-10-11T07:52:19.896Z</time>
      </trkpt>
      <trkpt lat="46.66962" lon="5.57364">
        <ele>276.896247</ele>
        <time>2020-10-11T07:52:20.798Z</time>
      </trkpt>
      <trkpt lat="46.66962" lon="5.57357">
        <ele>276.792368</ele>
        <time>2020-10-11T07:52:21.661Z</time>
      </trkpt>
      <trkpt lat="46.6696" lon="5.57349">
        <ele>276.690139</ele>
        <time>2020-10-11T07:52:22.507Z</time>
      </trkpt>
      <trkpt lat="46.66961" lon="5.57326">
        <ele>276.379343</ele>
        <time>2020-10-11T07:52:25.052Z</time>
      </trkpt>
      <trkpt lat="46.66962" lon="5.57302">
        <ele>276.064318</ele>
        <time>2020-10-11T07:52:27.509Z</time>
      </trkpt>
      <trkpt lat="46.66966" lon="5.57289">
        <ele>275.872123</ele>
        <time>2020-10-11T07:52:29.078Z</time>
      </trkpt>
      <trkpt lat="46.66972" lon="5.57275">
        <ele>275.658435</ele>
        <time>2020-10-11T07:52:30.847Z</time>
      </trkpt>
      <trkpt lat="46.66979" lon="5.57261">
        <ele>275.428878</ele>
        <time>2020-10-11T07:52:32.601Z</time>
      </trkpt>
      <trkpt lat="46.66985" lon="5.57251">
        <ele>275.245122</ele>
        <time>2020-10-11T07:52:34.099Z</time>
      </trkpt>
      <trkpt lat="46.66991" lon="5.57242">
        <ele>275.073902</ele>
        <time>2020-10-11T07:52:35.498Z</time>
      </trkpt>
      <trkpt lat="46.66997" lon="5.57236">
        <ele>274.94328</ele>
        <time>2020-10-11T07:52:36.566Z</time>
      </trkpt>
      <trkpt lat="46.67013" lon="5.57222">
        <ele>274.582114</ele>
        <time>2020-10-11T07:52:39.378Z</time>
      </trkpt>
      <trkpt lat="46.67022" lon="5.57214">
        <ele>274.370173</ele>
        <time>2020-10-11T07:52:41.083Z</time>
      </trkpt>
      <trkpt lat="46.67026" lon="5.57208">
        <ele>274.257359</ele>
        <time>2020-10-11T07:52:42.005Z</time>
      </trkpt>
      <trkpt lat="46.6703" lon="5.5721">
        <ele>274.180758</ele>
        <time>2020-10-11T07:52:42.539Z</time>
      </trkpt>
      <trkpt lat="46.67035" lon="5.57218">
        <ele>274.017014</ele>
        <time>2020-10-11T07:52:43.719Z</time>
      </trkpt>
      <trkpt lat="46.67042" lon="5.5723">
        <ele>273.796134</ele>
        <time>2020-10-11T07:52:45.250Z</time>
      </trkpt>
      <trkpt lat="46.67049" lon="5.57224">
        <ele>273.619051</ele>
        <time>2020-10-11T07:52:48.962Z</time>
      </trkpt>
      <trkpt lat="46.67055" lon="5.57222">
        <ele>273.498131</ele>
        <time>2020-10-11T07:52:51.538Z</time>
      </trkpt>
      <trkpt lat="46.67055" lon="5.57214">
        <ele>273.384464</ele>
        <time>2020-10-11T07:52:52.288Z</time>
      </trkpt>
      <trkpt lat="46.67061" lon="5.57182">
        <ele>272.904387</ele>
        <time>2020-10-11T07:52:55.780Z</time>
      </trkpt>
      <trkpt lat="46.67058" lon="5.57149">
        <ele>272.417499</ele>
        <time>2020-10-11T07:52:59.385Z</time>
      </trkpt>
      <trkpt lat="46.67086" lon="5.57052">
        <ele>270.915258</ele>
        <time>2020-10-11T07:53:10.472Z</time>
      </trkpt>
      <trkpt lat="46.67089" lon="5.57045">
        <ele>270.793368</ele>
        <time>2020-10-11T07:53:11.319Z</time>
      </trkpt>
      <trkpt lat="46.67098" lon="5.57016">
        <ele>270.375782</ele>
        <time>2020-10-11T07:53:14.674Z</time>
      </trkpt>
      <trkpt lat="46.67098" lon="5.5701">
        <ele>270.315974</ele>
        <time>2020-10-11T07:53:15.370Z</time>
      </trkpt>
      <trkpt lat="46.67131" lon="5.56902">
        <ele>269.118922</ele>
        <time>2020-10-11T07:53:28.265Z</time>
      </trkpt>
      <trkpt lat="46.67124" lon="5.56898">
        <ele>269.015926</ele>
        <time>2020-10-11T07:53:29.427Z</time>
      </trkpt>
      <trkpt lat="46.67139" lon="5.56848">
        <ele>268.465319</ele>
        <time>2020-10-11T07:53:35.461Z</time>
      </trkpt>
      <trkpt lat="46.67144" lon="5.56831">
        <ele>268.276831</ele>
        <time>2020-10-11T07:53:37.560Z</time>
      </trkpt>
      <trkpt lat="46.67159" lon="5.5678">
        <ele>267.760011</ele>
        <time>2020-10-11T07:53:44.146Z</time>
      </trkpt>
      <trkpt lat="46.67162" lon="5.5677">
        <ele>267.69318</ele>
        <time>2020-10-11T07:53:45.447Z</time>
      </trkpt>
      <trkpt lat="46.6719" lon="5.56677">
        <ele>267.075884</ele>
        <time>2020-10-11T07:53:57.840Z</time>
      </trkpt>
      <trkpt lat="46.6719" lon="5.56675">
        <ele>267.059915</ele>
        <time>2020-10-11T07:53:58.170Z</time>
      </trkpt>
      <trkpt lat="46.67194" lon="5.56664">
        <ele>266.983799</ele>
        <time>2020-10-11T07:53:59.706Z</time>
      </trkpt>
      <trkpt lat="46.67199" lon="5.56644">
        <ele>266.855136</ele>
        <time>2020-10-11T07:54:02.214Z</time>
      </trkpt>
      <trkpt lat="46.67242" lon="5.56498">
        <ele>265.729788</ele>
        <time>2020-10-11T07:54:21.110Z</time>
      </trkpt>
      <trkpt lat="46.67248" lon="5.56461">
        <ele>265.392869</ele>
        <time>2020-10-11T07:54:25.468Z</time>
      </trkpt>
      <trkpt lat="46.67249" lon="5.56454">
        <ele>265.328018</ele>
        <time>2020-10-11T07:54:26.265Z</time>
      </trkpt>
      <trkpt lat="46.67255" lon="5.5641">
        <ele>264.929016</ele>
        <time>2020-10-11T07:54:31.391Z</time>
      </trkpt>
      <trkpt lat="46.67274" lon="5.56261">
        <ele>263.585679</ele>
        <time>2020-10-11T07:54:48.105Z</time>
      </trkpt>
      <trkpt lat="46.67298" lon="5.56065">
        <ele>261.814103</ele>
        <time>2020-10-11T07:55:10.615Z</time>
      </trkpt>
      <trkpt lat="46.67302" lon="5.56032">
        <ele>261.532461</ele>
        <time>2020-10-11T07:55:14.538Z</time>
      </trkpt>
      <trkpt lat="46.67303" lon="5.5602">
        <ele>261.461392</ele>
        <time>2020-10-11T07:55:16.026Z</time>
      </trkpt>
      <trkpt lat="46.67304" lon="5.56008">
        <ele>261.395194</ele>
        <time>2020-10-11T07:55:17.399Z</time>
      </trkpt>
      <trkpt lat="46.67306" lon="5.55973">
        <ele>261.192544</ele>
        <time>2020-10-11T07:55:21.646Z</time>
      </trkpt>
      <trkpt lat="46.67306" lon="5.55964">
        <ele>261.143404</ele>
        <time>2020-10-11T07:55:22.696Z</time>
      </trkpt>
      <trkpt lat="46.67306" lon="5.55962">
        <ele>261.129103</ele>
        <time>2020-10-11T07:55:23.004Z</time>
      </trkpt>
      <trkpt lat="46.67306" lon="5.55939">
        <ele>261.000547</ele>
        <time>2020-10-11T07:55:25.702Z</time>
      </trkpt>
      <trkpt lat="46.67308" lon="5.559">
        <ele>260.775648</ele>
        <time>2020-10-11T07:55:30.486Z</time>
      </trkpt>
      <trkpt lat="46.67308" lon="5.55859">
        <ele>260.540357</ele>
        <time>2020-10-11T07:55:35.526Z</time>
      </trkpt>
      <trkpt lat="46.67305" lon="5.55848">
        <ele>260.472837</ele>
        <time>2020-10-11T07:55:36.931Z</time>
      </trkpt>
      <trkpt lat="46.67304" lon="5.5577">
        <ele>260.045863</ele>
        <time>2020-10-11T07:55:46.393Z</time>
      </trkpt>
      <trkpt lat="46.67304" lon="5.55704">
        <ele>259.846034</ele>
        <time>2020-10-11T07:55:54.610Z</time>
      </trkpt>
      <trkpt lat="46.67303" lon="5.55683">
        <ele>259.780923</ele>
        <time>2020-10-11T07:55:57.362Z</time>
      </trkpt>
      <trkpt lat="46.67303" lon="5.55609">
        <ele>259.557186</ele>
        <time>2020-10-11T07:56:07.390Z</time>
      </trkpt>
      <trkpt lat="46.67303" lon="5.55577">
        <ele>259.460004</ele>
        <time>2020-10-11T07:56:11.422Z</time>
      </trkpt>
      <trkpt lat="46.67304" lon="5.55548">
        <ele>259.372326</ele>
        <time>2020-10-11T07:56:15.401Z</time>
      </trkpt>
      <trkpt lat="46.67305" lon="5.55531">
        <ele>259.321939</ele>
        <time>2020-10-11T07:56:17.377Z</time>
      </trkpt>
      <trkpt lat="46.67307" lon="5.55522">
        <ele>259.293095</ele>
        <time>2020-10-11T07:56:18.885Z</time>
      </trkpt>
      <trkpt lat="46.67314" lon="5.55488">
        <ele>259.264035</ele>
        <time>2020-10-11T07:56:23.445Z</time>
      </trkpt>
      <trkpt lat="46.67314" lon="5.55485">
        <ele>259.26338</ele>
        <time>2020-10-11T07:56:23.795Z</time>
      </trkpt>
      <trkpt lat="46.67317" lon="5.55472">
        <ele>259.260171</ele>
        <time>2020-10-11T07:56:25.835Z</time>
      </trkpt>
      <trkpt lat="46.67312" lon="5.55471">
        <ele>259.258488</ele>
        <time>2020-10-11T07:56:26.945Z</time>
      </trkpt>
      <trkpt lat="46.67271" lon="5.55464">
        <ele>259.244662</ele>
        <time>2020-10-11T07:56:35.245Z</time>
      </trkpt>
      <trkpt lat="46.67269" lon="5.55463">
        <ele>259.243699</ele>
        <time>2020-10-11T07:56:35.846Z</time>
      </trkpt>
      <trkpt lat="46.6726" lon="5.55462">
        <ele>259.240705</ele>
        <time>2020-10-11T07:56:37.462Z</time>
      </trkpt>
      <trkpt lat="46.6725" lon="5.5546">
        <ele>259.237307</ele>
        <time>2020-10-11T07:56:39.434Z</time>
      </trkpt>
      <trkpt lat="46.67195" lon="5.55452">
        <ele>259.218321</ele>
        <time>2020-10-11T07:56:51.734Z</time>
      </trkpt>
      <trkpt lat="46.67188" lon="5.55451">
        <ele>259.215985</ele>
        <time>2020-10-11T07:56:52.960Z</time>
      </trkpt>
      <trkpt lat="46.67188" lon="5.55443">
        <ele>259.214199</ele>
        <time>2020-10-11T07:56:54.042Z</time>
      </trkpt>
      <trkpt lat="46.67193" lon="5.55351">
        <ele>259.400445</ele>
        <time>2020-10-11T07:57:07.265Z</time>
      </trkpt>
      <trkpt lat="46.672" lon="5.55208">
        <ele>259.786627</ele>
        <time>2020-10-11T07:57:31.085Z</time>
      </trkpt>
      <trkpt lat="46.67202" lon="5.55188">
        <ele>259.843401</ele>
        <time>2020-10-11T07:57:34.459Z</time>
      </trkpt>
      <trkpt lat="46.67203" lon="5.55182">
        <ele>259.858227</ele>
        <time>2020-10-11T07:57:35.207Z</time>
      </trkpt>
      <trkpt lat="46.67205" lon="5.55172">
        <ele>259.887949</ele>
        <time>2020-10-11T07:57:37.534Z</time>
      </trkpt>
      <trkpt lat="46.67219" lon="5.55082">
        <ele>259.962403</ele>
        <time>2020-10-11T07:57:51.551Z</time>
      </trkpt>
      <trkpt lat="46.67222" lon="5.55067">
        <ele>259.97147</ele>
        <time>2020-10-11T07:57:54.455Z</time>
      </trkpt>
      <trkpt lat="46.67224" lon="5.55057">
        <ele>259.977215</ele>
        <time>2020-10-11T07:57:55.870Z</time>
      </trkpt>
      <trkpt lat="46.67225" lon="5.55054">
        <ele>259.979092</ele>
        <time>2020-10-11T07:57:56.408Z</time>
      </trkpt>
      <trkpt lat="46.67227" lon="5.55047">
        <ele>259.983373</ele>
        <time>2020-10-11T07:57:57.536Z</time>
      </trkpt>
      <trkpt lat="46.67229" lon="5.55043">
        <ele>259.986017</ele>
        <time>2020-10-11T07:57:58.230Z</time>
      </trkpt>
      <trkpt lat="46.67238" lon="5.55013">
        <ele>260.005074</ele>
        <time>2020-10-11T07:58:03.543Z</time>
      </trkpt>
      <trkpt lat="46.67252" lon="5.54962">
        <ele>260.035988</ele>
        <time>2020-10-11T07:58:11.760Z</time>
      </trkpt>
      <trkpt lat="46.67255" lon="5.5492">
        <ele>260.059823</ele>
        <time>2020-10-11T07:58:17.452Z</time>
      </trkpt>
      <trkpt lat="46.67254" lon="5.54913">
        <ele>260.063908</ele>
        <time>2020-10-11T07:58:18.356Z</time>
      </trkpt>
      <trkpt lat="46.67256" lon="5.54865">
        <ele>259.620848</ele>
        <time>2020-10-11T07:58:23.868Z</time>
      </trkpt>
      <trkpt lat="46.67272" lon="5.54778">
        <ele>258.747713</ele>
        <time>2020-10-11T07:58:33.831Z</time>
      </trkpt>
      <trkpt lat="46.67273" lon="5.54773">
        <ele>258.691503</ele>
        <time>2020-10-11T07:58:34.451Z</time>
      </trkpt>
      <trkpt lat="46.67274" lon="5.54764">
        <ele>258.604365</ele>
        <time>2020-10-11T07:58:35.451Z</time>
      </trkpt>
      <trkpt lat="46.67285" lon="5.54695">
        <ele>257.915307</ele>
        <time>2020-10-11T07:58:43.239Z</time>
      </trkpt>
      <trkpt lat="46.67285" lon="5.54678">
        <ele>257.753957</ele>
        <time>2020-10-11T07:58:44.932Z</time>
      </trkpt>
      <trkpt lat="46.67262" lon="5.54495">
        <ele>256.244276</ele>
        <time>2020-10-11T07:59:04.982Z</time>
      </trkpt>
      <trkpt lat="46.67268" lon="5.54395">
        <ele>255.467151</ele>
        <time>2020-10-11T07:59:18.194Z</time>
      </trkpt>
      <trkpt lat="46.67274" lon="5.54383">
        <ele>255.646489</ele>
        <time>2020-10-11T07:59:20.528Z</time>
      </trkpt>
      <trkpt lat="46.67277" lon="5.54381">
        <ele>255.698428</ele>
        <time>2020-10-11T07:59:20.956Z</time>
      </trkpt>
      <trkpt lat="46.67261" lon="5.54325">
        <ele>256.436917</ele>
        <time>2020-10-11T07:59:30.829Z</time>
      </trkpt>
      <trkpt lat="46.67257" lon="5.54298">
        <ele>256.766619</ele>
        <time>2020-10-11T07:59:36.629Z</time>
      </trkpt>
      <trkpt lat="46.67256" lon="5.54296">
        <ele>256.792622</ele>
        <time>2020-10-11T07:59:37.059Z</time>
      </trkpt>
      <trkpt lat="46.67256" lon="5.54295">
        <ele>256.804873</ele>
        <time>2020-10-11T07:59:37.391Z</time>
      </trkpt>
      <trkpt lat="46.67254" lon="5.54278">
        <ele>257.014828</ele>
        <time>2020-10-11T07:59:40.052Z</time>
      </trkpt>
      <trkpt lat="46.67241" lon="5.54259">
        <ele>257.342679</ele>
        <time>2020-10-11T07:59:45.392Z</time>
      </trkpt>
      <trkpt lat="46.6724" lon="5.54256">
        <ele>257.379068</ele>
        <time>2020-10-11T07:59:46.812Z</time>
      </trkpt>
      <trkpt lat="46.67199" lon="5.54125">
        <ele>259.79485</ele>
        <time>2020-10-11T08:00:23.788Z</time>
      </trkpt>
      <trkpt lat="46.67192" lon="5.54096">
        <ele>260.666934</ele>
        <time>2020-10-11T08:00:34.936Z</time>
      </trkpt>
      <trkpt lat="46.67185" lon="5.54047">
        <ele>262.107065</ele>
        <time>2020-10-11T08:00:50.965Z</time>
      </trkpt>
      <trkpt lat="46.67184" lon="5.54038">
        <ele>262.367572</ele>
        <time>2020-10-11T08:00:53.717Z</time>
      </trkpt>
      <trkpt lat="46.67177" lon="5.5404">
        <ele>262.651754</ele>
        <time>2020-10-11T08:00:56.058Z</time>
      </trkpt>
      <trkpt lat="46.6714" lon="5.5404">
        <ele>264.225621</ele>
        <time>2020-10-11T08:01:13.702Z</time>
      </trkpt>
      <trkpt lat="46.67134" lon="5.54043">
        <ele>264.450844</ele>
        <time>2020-10-11T08:01:16.664Z</time>
      </trkpt>
      <trkpt lat="46.67132" lon="5.54017">
        <ele>265.18689</ele>
        <time>2020-10-11T08:01:25.764Z</time>
      </trkpt>
      <trkpt lat="46.67155" lon="5.5393">
        <ele>266.870056</ele>
        <time>2020-10-11T08:01:53.092Z</time>
      </trkpt>
      <trkpt lat="46.67156" lon="5.53903">
        <ele>267.194941</ele>
        <time>2020-10-11T08:01:58.976Z</time>
      </trkpt>
      <trkpt lat="46.67159" lon="5.5389">
        <ele>267.358685</ele>
        <time>2020-10-11T08:02:03.881Z</time>
      </trkpt>
      <trkpt lat="46.67164" lon="5.53874">
        <ele>267.55988</ele>
        <time>2020-10-11T08:02:08.727Z</time>
      </trkpt>
      <trkpt lat="46.67168" lon="5.53861">
        <ele>267.736961</ele>
        <time>2020-10-11T08:02:11.011Z</time>
      </trkpt>
      <trkpt lat="46.67274" lon="5.53475">
        <ele>268.792092</ele>
        <time>2020-10-11T08:03:09.427Z</time>
      </trkpt>
      <trkpt lat="46.67283" lon="5.53388">
        <ele>267.884491</ele>
        <time>2020-10-11T08:03:19.643Z</time>
      </trkpt>
      <trkpt lat="46.67279" lon="5.53256">
        <ele>266.527421</ele>
        <time>2020-10-11T08:03:34.088Z</time>
      </trkpt>
      <trkpt lat="46.67263" lon="5.52902">
        <ele>259.080264</ele>
        <time>2020-10-11T08:04:08.743Z</time>
      </trkpt>
      <trkpt lat="46.67261" lon="5.52872">
        <ele>258.390157</ele>
        <time>2020-10-11T08:04:11.544Z</time>
      </trkpt>
      <trkpt lat="46.6725" lon="5.5268">
        <ele>254.761648</ele>
        <time>2020-10-11T08:04:30.083Z</time>
      </trkpt>
      <trkpt lat="46.67251" lon="5.52581">
        <ele>254.773174</ele>
        <time>2020-10-11T08:04:40.901Z</time>
      </trkpt>
      <trkpt lat="46.67255" lon="5.52542">
        <ele>254.777891</ele>
        <time>2020-10-11T08:04:50.210Z</time>
      </trkpt>
      <trkpt lat="46.67261" lon="5.52499">
        <ele>254.782977</ele>
        <time>2020-10-11T08:04:59.524Z</time>
      </trkpt>
      <trkpt lat="46.67266" lon="5.52469">
        <ele>254.786589</ele>
        <time>2020-10-11T08:05:06.774Z</time>
      </trkpt>
      <trkpt lat="46.67287" lon="5.52376">
        <ele>256.397515</ele>
        <time>2020-10-11T08:05:32.686Z</time>
      </trkpt>
      <trkpt lat="46.67291" lon="5.52364">
        <ele>256.663162</ele>
        <time>2020-10-11T08:05:36.947Z</time>
      </trkpt>
      <trkpt lat="46.67298" lon="5.52343">
        <ele>257.09645</ele>
        <time>2020-10-11T08:05:44.467Z</time>
      </trkpt>
      <trkpt lat="46.67397" lon="5.52086">
        <ele>260.320658</ele>
        <time>2020-10-11T08:06:52.503Z</time>
      </trkpt>
      <trkpt lat="46.67469" lon="5.51886">
        <ele>259.705627</ele>
        <time>2020-10-11T08:07:16.410Z</time>
      </trkpt>
      <trkpt lat="46.67503" lon="5.51763">
        <ele>258.597176</ele>
        <time>2020-10-11T08:07:31.521Z</time>
      </trkpt>
      <trkpt lat="46.67521" lon="5.51673">
        <ele>258.855658</ele>
        <time>2020-10-11T08:07:48.292Z</time>
      </trkpt>
      <trkpt lat="46.6754" lon="5.51535">
        <ele>259.482606</ele>
        <time>2020-10-11T08:08:17.091Z</time>
      </trkpt>
      <trkpt lat="46.67548" lon="5.51419">
        <ele>258.610495</ele>
        <time>2020-10-11T08:08:31.833Z</time>
      </trkpt>
      <trkpt lat="46.67551" lon="5.51373">
        <ele>257.959207</ele>
        <time>2020-10-11T08:08:36.645Z</time>
      </trkpt>
      <trkpt lat="46.6756" lon="5.51225">
        <ele>255.886299</ele>
        <time>2020-10-11T08:08:51.346Z</time>
      </trkpt>
      <trkpt lat="46.67566" lon="5.51117">
        <ele>254.105973</ele>
        <time>2020-10-11T08:09:01.893Z</time>
      </trkpt>
      <trkpt lat="46.67569" lon="5.51047">
        <ele>252.961199</ele>
        <time>2020-10-11T08:09:09.489Z</time>
      </trkpt>
      <trkpt lat="46.6757" lon="5.51042">
        <ele>252.875392</ele>
        <time>2020-10-11T08:09:10.092Z</time>
      </trkpt>
      <trkpt lat="46.67571" lon="5.51023">
        <ele>252.560131</ele>
        <time>2020-10-11T08:09:12.070Z</time>
      </trkpt>
      <trkpt lat="46.67581" lon="5.50852">
        <ele>248.841779</ele>
        <time>2020-10-11T08:09:30.660Z</time>
      </trkpt>
      <trkpt lat="46.67609" lon="5.50392">
        <ele>236.333844</ele>
        <time>2020-10-11T08:10:12.583Z</time>
      </trkpt>
      <trkpt lat="46.67613" lon="5.50337">
        <ele>235.932018</ele>
        <time>2020-10-11T08:10:18.952Z</time>
      </trkpt>
      <trkpt lat="46.67614" lon="5.50289">
        <ele>235.577005</ele>
        <time>2020-10-11T08:10:25.402Z</time>
      </trkpt>
      <trkpt lat="46.67613" lon="5.50258">
        <ele>235.356628</ele>
        <time>2020-10-11T08:10:30.882Z</time>
      </trkpt>
      <trkpt lat="46.6761" lon="5.50225">
        <ele>235.110606</ele>
        <time>2020-10-11T08:10:36.364Z</time>
      </trkpt>
      <trkpt lat="46.67608" lon="5.50204">
        <ele>234.956175</ele>
        <time>2020-10-11T08:10:41.124Z</time>
      </trkpt>
      <trkpt lat="46.67591" lon="5.50099">
        <ele>235.605542</ele>
        <time>2020-10-11T08:11:04.807Z</time>
      </trkpt>
      <trkpt lat="46.67491" lon="5.498">
        <ele>237.495146</ele>
        <time>2020-10-11T08:12:03.045Z</time>
      </trkpt>
      <trkpt lat="46.67472" lon="5.49715">
        <ele>237.785162</ele>
        <time>2020-10-11T08:12:15.481Z</time>
      </trkpt>
      <trkpt lat="46.67461" lon="5.49613">
        <ele>237.684809</ele>
        <time>2020-10-11T08:12:29.466Z</time>
      </trkpt>
      <trkpt lat="46.6746" lon="5.49562">
        <ele>237.614092</ele>
        <time>2020-10-11T08:12:36.187Z</time>
      </trkpt>
      <trkpt lat="46.6746" lon="5.49511">
        <ele>237.542162</ele>
        <time>2020-10-11T08:12:43.074Z</time>
      </trkpt>
      <trkpt lat="46.67462" lon="5.4948">
        <ele>237.498855</ele>
        <time>2020-10-11T08:12:48.965Z</time>
      </trkpt>
      <trkpt lat="46.67473" lon="5.49387">
        <ele>237.28476</ele>
        <time>2020-10-11T08:13:06.724Z</time>
      </trkpt>
      <trkpt lat="46.67495" lon="5.49294">
        <ele>237.009019</ele>
        <time>2020-10-11T08:13:24.946Z</time>
      </trkpt>
      <trkpt lat="46.67521" lon="5.49221">
        <ele>236.776803</ele>
        <time>2020-10-11T08:13:39.868Z</time>
      </trkpt>
      <trkpt lat="46.67476" lon="5.48806">
        <ele>234.765999</ele>
        <time>2020-10-11T08:14:30.187Z</time>
      </trkpt>
      <trkpt lat="46.6746" lon="5.48666">
        <ele>234.32286</ele>
        <time>2020-10-11T08:14:49.994Z</time>
      </trkpt>
      <trkpt lat="46.6745" lon="5.48572">
        <ele>234.13786</ele>
        <time>2020-10-11T08:15:04.256Z</time>
      </trkpt>
      <trkpt lat="46.67447" lon="5.48554">
        <ele>234.102194</ele>
        <time>2020-10-11T08:15:07.020Z</time>
      </trkpt>
      <trkpt lat="46.6743" lon="5.48402">
        <ele>233.67721</ele>
        <time>2020-10-11T08:15:26.733Z</time>
      </trkpt>
      <trkpt lat="46.67397" lon="5.48109">
        <ele>231.50788</ele>
        <time>2020-10-11T08:16:00.520Z</time>
      </trkpt>
      <trkpt lat="46.67389" lon="5.48031">
        <ele>231.070833</ele>
        <time>2020-10-11T08:16:09.942Z</time>
      </trkpt>
      <trkpt lat="46.67344" lon="5.47623">
        <ele>229.239409</ele>
        <time>2020-10-11T08:17:02.448Z</time>
      </trkpt>
      <trkpt lat="46.67333" lon="5.47517">
        <ele>228.552525</ele>
        <time>2020-10-11T08:17:15.010Z</time>
      </trkpt>
      <trkpt lat="46.67297" lon="5.47196">
        <ele>226.679458</ele>
        <time>2020-10-11T08:17:53.517Z</time>
      </trkpt>
      <trkpt lat="46.67272" lon="5.4697">
        <ele>226.077523</ele>
        <time>2020-10-11T08:18:24.330Z</time>
      </trkpt>
      <trkpt lat="46.67228" lon="5.46575">
        <ele>225.752486</ele>
        <time>2020-10-11T08:19:19.580Z</time>
      </trkpt>
      <trkpt lat="46.67206" lon="5.46374">
        <ele>225.773436</ele>
        <time>2020-10-11T08:19:49.543Z</time>
      </trkpt>
      <trkpt lat="46.6717" lon="5.46039">
        <ele>225.449645</ele>
        <time>2020-10-11T08:20:37.159Z</time>
      </trkpt>
      <trkpt lat="46.67117" lon="5.45592">
        <ele>223.333088</ele>
        <time>2020-10-11T08:21:32.699Z</time>
      </trkpt>
      <trkpt lat="46.67115" lon="5.45577">
        <ele>223.252625</ele>
        <time>2020-10-11T08:21:34.477Z</time>
      </trkpt>
      <trkpt lat="46.67106" lon="5.45494">
        <ele>222.786941</ele>
        <time>2020-10-11T08:21:44.591Z</time>
      </trkpt>
      <trkpt lat="46.67035" lon="5.44879">
        <ele>219.683832</ele>
        <time>2020-10-11T08:23:00.531Z</time>
      </trkpt>
      <trkpt lat="46.66987" lon="5.44453">
        <ele>219.159574</ele>
        <time>2020-10-11T08:24:00.846Z</time>
      </trkpt>
      <trkpt lat="46.66869" lon="5.43412">
        <ele>218.493714</ele>
        <time>2020-10-11T08:26:26.352Z</time>
      </trkpt>
      <trkpt lat="46.66861" lon="5.43346">
        <ele>218.625513</ele>
        <time>2020-10-11T08:26:37.916Z</time>
      </trkpt>
      <trkpt lat="46.66856" lon="5.43302">
        <ele>218.71148</ele>
        <time>2020-10-11T08:26:45.102Z</time>
      </trkpt>
      <trkpt lat="46.66851" lon="5.43261">
        <ele>218.792174</ele>
        <time>2020-10-11T08:26:51.918Z</time>
      </trkpt>
      <trkpt lat="46.66846" lon="5.43229">
        <ele>218.757691</ele>
        <time>2020-10-11T08:26:57.243Z</time>
      </trkpt>
      <trkpt lat="46.66837" lon="5.43166">
        <ele>218.590505</ele>
        <time>2020-10-11T08:27:07.250Z</time>
      </trkpt>
      <trkpt lat="46.66797" lon="5.42916">
        <ele>217.63225</ele>
        <time>2020-10-11T08:27:38.396Z</time>
      </trkpt>
      <trkpt lat="46.66787" lon="5.42851">
        <ele>217.212227</ele>
        <time>2020-10-11T08:27:46.270Z</time>
      </trkpt>
      <trkpt lat="46.66778" lon="5.42753">
        <ele>216.589212</ele>
        <time>2020-10-11T08:27:58.025Z</time>
      </trkpt>
      <trkpt lat="46.66776" lon="5.42722">
        <ele>216.398757</ele>
        <time>2020-10-11T08:28:01.645Z</time>
      </trkpt>
      <trkpt lat="46.6677" lon="5.42559">
        <ele>215.432239</ele>
        <time>2020-10-11T08:28:20.639Z</time>
      </trkpt>
      <trkpt lat="46.66766" lon="5.42449">
        <ele>214.91657</ele>
        <time>2020-10-11T08:28:34.459Z</time>
      </trkpt>
      <trkpt lat="46.66754" lon="5.42188">
        <ele>214.695852</ele>
        <time>2020-10-11T08:29:12.241Z</time>
      </trkpt>
      <trkpt lat="46.66753" lon="5.42099">
        <ele>214.485271</ele>
        <time>2020-10-11T08:29:24.336Z</time>
      </trkpt>
      <trkpt lat="46.66759" lon="5.4204">
        <ele>214.344001</ele>
        <time>2020-10-11T08:29:31.657Z</time>
      </trkpt>
      <trkpt lat="46.66795" lon="5.41819">
        <ele>213.892796</ele>
        <time>2020-10-11T08:30:01.015Z</time>
      </trkpt>
      <trkpt lat="46.66812" lon="5.41774">
        <ele>213.802828</ele>
        <time>2020-10-11T08:30:08.075Z</time>
      </trkpt>
      <trkpt lat="46.66817" lon="5.41767">
        <ele>213.784947</ele>
        <time>2020-10-11T08:30:09.671Z</time>
      </trkpt>
      <trkpt lat="46.66823" lon="5.41763">
        <ele>213.768079</ele>
        <time>2020-10-11T08:30:10.969Z</time>
      </trkpt>
      <trkpt lat="46.66829" lon="5.41758">
        <ele>213.751361</ele>
        <time>2020-10-11T08:30:12.432Z</time>
      </trkpt>
      <trkpt lat="46.66833" lon="5.41748">
        <ele>213.731268</ele>
        <time>2020-10-11T08:30:13.943Z</time>
      </trkpt>
      <trkpt lat="46.66836" lon="5.41737">
        <ele>213.711052</ele>
        <time>2020-10-11T08:30:15.557Z</time>
      </trkpt>
      <trkpt lat="46.66836" lon="5.41726">
        <ele>213.691065</ele>
        <time>2020-10-11T08:30:17.407Z</time>
      </trkpt>
      <trkpt lat="46.6683" lon="5.41705">
        <ele>213.627875</ele>
        <time>2020-10-11T08:30:20.638Z</time>
      </trkpt>
      <trkpt lat="46.66826" lon="5.41701">
        <ele>213.605215</ele>
        <time>2020-10-11T08:30:21.682Z</time>
      </trkpt>
      <trkpt lat="46.66823" lon="5.41685">
        <ele>213.550012</ele>
        <time>2020-10-11T08:30:24.227Z</time>
      </trkpt>
      <trkpt lat="46.66823" lon="5.4167">
        <ele>213.50182</ele>
        <time>2020-10-11T08:30:26.522Z</time>
      </trkpt>
      <trkpt lat="46.66825" lon="5.41638">
        <ele>213.396546</ele>
        <time>2020-10-11T08:30:31.400Z</time>
      </trkpt>
      <trkpt lat="46.66894" lon="5.41236">
        <ele>211.235471</ele>
        <time>2020-10-11T08:31:21.576Z</time>
      </trkpt>
      <trkpt lat="46.66923" lon="5.41056">
        <ele>209.349669</ele>
        <time>2020-10-11T08:31:41.598Z</time>
      </trkpt>
      <trkpt lat="46.66965" lon="5.40771">
        <ele>206.905689</ele>
        <time>2020-10-11T08:32:14.022Z</time>
      </trkpt>
      <trkpt lat="46.66971" lon="5.40736">
        <ele>206.64839</ele>
        <time>2020-10-11T08:32:18.462Z</time>
      </trkpt>
      <trkpt lat="46.67042" lon="5.40372">
        <ele>208.185016</ele>
        <time>2020-10-11T08:33:19.129Z</time>
      </trkpt>
      <trkpt lat="46.67064" lon="5.40179">
        <ele>210.777724</ele>
        <time>2020-10-11T08:34:06.480Z</time>
      </trkpt>
      <trkpt lat="46.67068" lon="5.40121">
        <ele>211.541297</ele>
        <time>2020-10-11T08:34:21.311Z</time>
      </trkpt>
      <trkpt lat="46.67074" lon="5.40041">
        <ele>212.614478</ele>
        <time>2020-10-11T08:34:40.121Z</time>
      </trkpt>
      <trkpt lat="46.67076" lon="5.40014">
        <ele>212.971562</ele>
        <time>2020-10-11T08:34:46.314Z</time>
      </trkpt>
      <trkpt lat="46.67081" lon="5.39963">
        <ele>213.652575</ele>
        <time>2020-10-11T08:34:56.854Z</time>
      </trkpt>
      <trkpt lat="46.67086" lon="5.39902">
        <ele>213.865621</ele>
        <time>2020-10-11T08:35:07.697Z</time>
      </trkpt>
      <trkpt lat="46.67104" lon="5.39725">
        <ele>212.740861</ele>
        <time>2020-10-11T08:35:28.335Z</time>
      </trkpt>
      <trkpt lat="46.67132" lon="5.39437">
        <ele>209.950064</ele>
        <time>2020-10-11T08:35:59.118Z</time>
      </trkpt>
      <trkpt lat="46.67154" lon="5.3922">
        <ele>210.546165</ele>
        <time>2020-10-11T08:36:36.349Z</time>
      </trkpt>
      <trkpt lat="46.67157" lon="5.39184">
        <ele>210.702447</ele>
        <time>2020-10-11T08:36:43.625Z</time>
      </trkpt>
      <trkpt lat="46.67156" lon="5.39175">
        <ele>210.739028</ele>
        <time>2020-10-11T08:36:45.632Z</time>
      </trkpt>
      <trkpt lat="46.67155" lon="5.39159">
        <ele>210.809063</ele>
        <time>2020-10-11T08:36:48.702Z</time>
      </trkpt>
      <trkpt lat="46.67139" lon="5.39127">
        <ele>211.000215</ele>
        <time>2020-10-11T08:36:56.280Z</time>
      </trkpt>
      <trkpt lat="46.67069" lon="5.39032">
        <ele>211.690759</ele>
        <time>2020-10-11T08:37:20.650Z</time>
      </trkpt>
      <trkpt lat="46.67049" lon="5.39013">
        <ele>211.858955</ele>
        <time>2020-10-11T08:37:26.081Z</time>
      </trkpt>
      <trkpt lat="46.67029" lon="5.38997">
        <ele>212.021663</ele>
        <time>2020-10-11T08:37:30.686Z</time>
      </trkpt>
      <trkpt lat="46.67021" lon="5.3899">
        <ele>212.088762</ele>
        <time>2020-10-11T08:37:32.647Z</time>
      </trkpt>
      <trkpt lat="46.66953" lon="5.38935">
        <ele>212.626049</ele>
        <time>2020-10-11T08:37:49.999Z</time>
      </trkpt>
      <trkpt lat="46.66932" lon="5.38919">
        <ele>212.782917</ele>
        <time>2020-10-11T08:37:55.568Z</time>
      </trkpt>
      <trkpt lat="46.66905" lon="5.38891">
        <ele>213.013519</ele>
        <time>2020-10-11T08:38:04.687Z</time>
      </trkpt>
      <trkpt lat="46.6685" lon="5.38813">
        <ele>213.262907</ele>
        <time>2020-10-11T08:38:26.108Z</time>
      </trkpt>
      <trkpt lat="46.66779" lon="5.38704">
        <ele>212.92238</ele>
        <time>2020-10-11T08:38:49.984Z</time>
      </trkpt>
      <trkpt lat="46.66728" lon="5.38607">
        <ele>211.389186</ele>
        <time>2020-10-11T08:39:02.680Z</time>
      </trkpt>
      <trkpt lat="46.66704" lon="5.38543">
        <ele>209.390715</ele>
        <time>2020-10-11T08:39:09.415Z</time>
      </trkpt>
      <trkpt lat="46.66694" lon="5.38493">
        <ele>207.975221</ele>
        <time>2020-10-11T08:39:14.111Z</time>
      </trkpt>
      <trkpt lat="46.66684" lon="5.38437">
        <ele>206.391332</ele>
        <time>2020-10-11T08:39:19.388Z</time>
      </trkpt>
      <trkpt lat="46.66678" lon="5.38406">
        <ele>205.570044</ele>
        <time>2020-10-11T08:39:22.307Z</time>
      </trkpt>
      <trkpt lat="46.66669" lon="5.38351">
        <ele>205.008501</ele>
        <time>2020-10-11T08:39:27.619Z</time>
      </trkpt>
      <trkpt lat="46.66664" lon="5.38315">
        <ele>204.642439</ele>
        <time>2020-10-11T08:39:31.278Z</time>
      </trkpt>
      <trkpt lat="46.66638" lon="5.38202">
        <ele>203.445835</ele>
        <time>2020-10-11T08:39:44.847Z</time>
      </trkpt>
      <trkpt lat="46.66624" lon="5.3815">
        <ele>203.182813</ele>
        <time>2020-10-11T08:39:56.430Z</time>
      </trkpt>
      <trkpt lat="46.66606" lon="5.38081">
        <ele>204.674634</ele>
        <time>2020-10-11T08:40:15.889Z</time>
      </trkpt>
      <trkpt lat="46.66576" lon="5.37969">
        <ele>207.129604</ele>
        <time>2020-10-11T08:40:47.884Z</time>
      </trkpt>
      <trkpt lat="46.66569" lon="5.37936">
        <ele>207.832703</ele>
        <time>2020-10-11T08:40:58.225Z</time>
      </trkpt>
      <trkpt lat="46.66568" lon="5.37933">
        <ele>207.893476</ele>
        <time>2020-10-11T08:40:59.395Z</time>
      </trkpt>
      <trkpt lat="46.66564" lon="5.37912">
        <ele>208.344617</ele>
        <time>2020-10-11T08:41:05.181Z</time>
      </trkpt>
      <trkpt lat="46.66561" lon="5.37896">
        <ele>208.70208</ele>
        <time>2020-10-11T08:41:10.258Z</time>
      </trkpt>
      <trkpt lat="46.66558" lon="5.37879">
        <ele>209.057353</ele>
        <time>2020-10-11T08:41:15.416Z</time>
      </trkpt>
      <trkpt lat="46.6655" lon="5.37822">
        <ele>210.300271</ele>
        <time>2020-10-11T08:41:31.097Z</time>
      </trkpt>
      <trkpt lat="46.66541" lon="5.37761">
        <ele>211.611816</ele>
        <time>2020-10-11T08:41:47.924Z</time>
      </trkpt>
      <trkpt lat="46.66533" lon="5.37702">
        <ele>212.892767</ele>
        <time>2020-10-11T08:42:04.639Z</time>
      </trkpt>
      <trkpt lat="46.66516" lon="5.37568">
        <ele>214.190935</ele>
        <time>2020-10-11T08:42:34.104Z</time>
      </trkpt>
      <trkpt lat="46.66511" lon="5.37527">
        <ele>214.345633</ele>
        <time>2020-10-11T08:42:42.092Z</time>
      </trkpt>
      <trkpt lat="46.66505" lon="5.37475">
        <ele>214.53627</ele>
        <time>2020-10-11T08:42:50.235Z</time>
      </trkpt>
      <trkpt lat="46.6649" lon="5.37355">
        <ele>214.213976</ele>
        <time>2020-10-11T08:43:04.187Z</time>
      </trkpt>
      <trkpt lat="46.66477" lon="5.37246">
        <ele>212.714359</ele>
        <time>2020-10-11T08:43:15.385Z</time>
      </trkpt>
      <trkpt lat="46.66473" lon="5.37218">
        <ele>212.3258</ele>
        <time>2020-10-11T08:43:18.178Z</time>
      </trkpt>
      <trkpt lat="46.66461" lon="5.37119">
        <ele>211.12935</ele>
        <time>2020-10-11T08:43:28.901Z</time>
      </trkpt>
      <trkpt lat="46.6644" lon="5.36984">
        <ele>210.36785</ele>
        <time>2020-10-11T08:43:45.256Z</time>
      </trkpt>
      <trkpt lat="46.66435" lon="5.36967">
        <ele>210.267239</ele>
        <time>2020-10-11T08:43:47.570Z</time>
      </trkpt>
      <trkpt lat="46.66431" lon="5.36952">
        <ele>210.180334</ele>
        <time>2020-10-11T08:43:50.251Z</time>
      </trkpt>
      <trkpt lat="46.66367" lon="5.36796">
        <ele>209.485698</ele>
        <time>2020-10-11T08:44:15.801Z</time>
      </trkpt>
      <trkpt lat="46.66304" lon="5.36644">
        <ele>208.70726</ele>
        <time>2020-10-11T08:44:38.087Z</time>
      </trkpt>
      <trkpt lat="46.66255" lon="5.36524">
        <ele>207.004045</ele>
        <time>2020-10-11T08:44:53.259Z</time>
      </trkpt>
      <trkpt lat="46.66213" lon="5.36422">
        <ele>205.37477</ele>
        <time>2020-10-11T08:45:05.438Z</time>
      </trkpt>
      <trkpt lat="46.66206" lon="5.36401">
        <ele>204.91443</ele>
        <time>2020-10-11T08:45:07.860Z</time>
      </trkpt>
      <trkpt lat="46.66199" lon="5.36379">
        <ele>204.461601</ele>
        <time>2020-10-11T08:45:10.228Z</time>
      </trkpt>
      <trkpt lat="46.66187" lon="5.36322">
        <ele>203.316794</ele>
        <time>2020-10-11T08:45:16.179Z</time>
      </trkpt>
      <trkpt lat="46.66167" lon="5.36219">
        <ele>201.270725</ele>
        <time>2020-10-11T08:45:26.708Z</time>
      </trkpt>
      <trkpt lat="46.66142" lon="5.35996">
        <ele>198.436918</ele>
        <time>2020-10-11T08:45:50.278Z</time>
      </trkpt>
      <trkpt lat="46.66126" lon="5.35924">
        <ele>197.825611</ele>
        <time>2020-10-11T08:46:00.116Z</time>
      </trkpt>
      <trkpt lat="46.66122" lon="5.35908">
        <ele>197.894068</ele>
        <time>2020-10-11T08:46:02.210Z</time>
      </trkpt>
      <trkpt lat="46.66107" lon="5.35864">
        <ele>198.089854</ele>
        <time>2020-10-11T08:46:09.664Z</time>
      </trkpt>
      <trkpt lat="46.65993" lon="5.35579">
        <ele>199.614923</ele>
        <time>2020-10-11T08:47:10.324Z</time>
      </trkpt>
      <trkpt lat="46.65947" lon="5.35482">
        <ele>200.234974</ele>
        <time>2020-10-11T08:47:29.277Z</time>
      </trkpt>
      <trkpt lat="46.65862" lon="5.3531">
        <ele>200.814484</ele>
        <time>2020-10-11T08:48:00.999Z</time>
      </trkpt>
      <trkpt lat="46.6582" lon="5.35225">
        <ele>201.601766</ele>
        <time>2020-10-11T08:48:19.135Z</time>
      </trkpt>
      <trkpt lat="46.65704" lon="5.34996">
        <ele>204.50444</ele>
        <time>2020-10-11T08:49:20.840Z</time>
      </trkpt>
      <trkpt lat="46.65683" lon="5.34961">
        <ele>204.913892</ele>
        <time>2020-10-11T08:49:30.937Z</time>
      </trkpt>
      <trkpt lat="46.65675" lon="5.34948">
        <ele>205.063071</ele>
        <time>2020-10-11T08:49:34.293Z</time>
      </trkpt>
      <trkpt lat="46.65642" lon="5.34893">
        <ele>205.700302</ele>
        <time>2020-10-11T08:49:47.398Z</time>
      </trkpt>
      <trkpt lat="46.65617" lon="5.3485">
        <ele>205.964188</ele>
        <time>2020-10-11T08:49:56.218Z</time>
      </trkpt>
      <trkpt lat="46.65582" lon="5.34786">
        <ele>205.589859</ele>
        <time>2020-10-11T08:50:06.740Z</time>
      </trkpt>
      <trkpt lat="46.65561" lon="5.34747">
        <ele>205.35856</ele>
        <time>2020-10-11T08:50:12.565Z</time>
      </trkpt>
      <trkpt lat="46.65494" lon="5.34624">
        <ele>204.678995</ele>
        <time>2020-10-11T08:50:30.782Z</time>
      </trkpt>
      <trkpt lat="46.6542" lon="5.34486">
        <ele>204.0793</ele>
        <time>2020-10-11T08:50:52.849Z</time>
      </trkpt>
      <trkpt lat="46.65359" lon="5.34371">
        <ele>203.925625</ele>
        <time>2020-10-11T08:51:14.609Z</time>
      </trkpt>
      <trkpt lat="46.65296" lon="5.34254">
        <ele>203.920769</ele>
        <time>2020-10-11T08:51:36.378Z</time>
      </trkpt>
      <trkpt lat="46.65275" lon="5.34215">
        <ele>203.690393</ele>
        <time>2020-10-11T08:51:42.771Z</time>
      </trkpt>
      <trkpt lat="46.65254" lon="5.34172">
        <ele>203.359334</ele>
        <time>2020-10-11T08:51:49.401Z</time>
      </trkpt>
      <trkpt lat="46.65237" lon="5.34112">
        <ele>202.956104</ele>
        <time>2020-10-11T08:51:57.181Z</time>
      </trkpt>
      <trkpt lat="46.65236" lon="5.34104">
        <ele>202.908237</ele>
        <time>2020-10-11T08:51:58.051Z</time>
      </trkpt>
      <trkpt lat="46.65233" lon="5.34088">
        <ele>202.806039</ele>
        <time>2020-10-11T08:52:00.081Z</time>
      </trkpt>
      <trkpt lat="46.65229" lon="5.3405">
        <ele>202.564626</ele>
        <time>2020-10-11T08:52:04.493Z</time>
      </trkpt>
      <trkpt lat="46.65229" lon="5.33983">
        <ele>201.967802</ele>
        <time>2020-10-11T08:52:12.025Z</time>
      </trkpt>
      <trkpt lat="46.65237" lon="5.33837">
        <ele>199.898759</ele>
        <time>2020-10-11T08:52:27.489Z</time>
      </trkpt>
      <trkpt lat="46.6524" lon="5.33762">
        <ele>198.832654</ele>
        <time>2020-10-11T08:52:35.230Z</time>
      </trkpt>
      <trkpt lat="46.65247" lon="5.3356">
        <ele>196.259555</ele>
        <time>2020-10-11T08:52:55.765Z</time>
      </trkpt>
      <trkpt lat="46.65251" lon="5.33419">
        <ele>195.824842</ele>
        <time>2020-10-11T08:53:13.337Z</time>
      </trkpt>
      <trkpt lat="46.65251" lon="5.33414">
        <ele>195.869245</ele>
        <time>2020-10-11T08:53:14.130Z</time>
      </trkpt>
      <trkpt lat="46.65263" lon="5.33045">
        <ele>198.684629</ele>
        <time>2020-10-11T08:54:35.939Z</time>
      </trkpt>
      <trkpt lat="46.65275" lon="5.32645">
        <ele>196.491608</ele>
        <time>2020-10-11T08:55:22.349Z</time>
      </trkpt>
      <trkpt lat="46.65279" lon="5.32509">
        <ele>194.635783</ele>
        <time>2020-10-11T08:55:36.431Z</time>
      </trkpt>
      <trkpt lat="46.65283" lon="5.32363">
        <ele>193.049403</ele>
        <time>2020-10-11T08:55:51.686Z</time>
      </trkpt>
      <trkpt lat="46.65281" lon="5.32295">
        <ele>192.501517</ele>
        <time>2020-10-11T08:55:59.212Z</time>
      </trkpt>
      <trkpt lat="46.65276" lon="5.32233">
        <ele>192.007142</ele>
        <time>2020-10-11T08:56:06.618Z</time>
      </trkpt>
      <trkpt lat="46.65266" lon="5.32169">
        <ele>191.596446</ele>
        <time>2020-10-11T08:56:15.383Z</time>
      </trkpt>
      <trkpt lat="46.65241" lon="5.32059">
        <ele>192.649872</ele>
        <time>2020-10-11T08:56:34.863Z</time>
      </trkpt>
      <trkpt lat="46.65165" lon="5.31722">
        <ele>197.091776</ele>
        <time>2020-10-11T08:57:55.903Z</time>
      </trkpt>
      <trkpt lat="46.65123" lon="5.31531">
        <ele>199.400805</ele>
        <time>2020-10-11T08:58:38.731Z</time>
      </trkpt>
      <trkpt lat="46.65093" lon="5.31433">
        <ele>200.546377</ele>
        <time>2020-10-11T08:58:59.121Z</time>
      </trkpt>
      <trkpt lat="46.65079" lon="5.31403">
        <ele>200.572082</ele>
        <time>2020-10-11T08:59:05.494Z</time>
      </trkpt>
      <trkpt lat="46.65063" lon="5.31375">
        <ele>200.59293</ele>
        <time>2020-10-11T08:59:11.573Z</time>
      </trkpt>
      <trkpt lat="46.65002" lon="5.31292">
        <ele>200.66272</ele>
        <time>2020-10-11T08:59:29.998Z</time>
      </trkpt>
      <trkpt lat="46.64737" lon="5.31">
        <ele>197.49354</ele>
        <time>2020-10-11T09:00:27.442Z</time>
      </trkpt>
      <trkpt lat="46.64701" lon="5.30946">
        <ele>196.70804</ele>
        <time>2020-10-11T09:00:35.366Z</time>
      </trkpt>
      <trkpt lat="46.64665" lon="5.30861">
        <ele>195.460476</ele>
        <time>2020-10-11T09:00:45.478Z</time>
      </trkpt>
      <trkpt lat="46.64659" lon="5.30843">
        <ele>195.187587</ele>
        <time>2020-10-11T09:00:47.426Z</time>
      </trkpt>
      <trkpt lat="46.64641" lon="5.30782">
        <ele>194.288713</ele>
        <time>2020-10-11T09:00:54.189Z</time>
      </trkpt>
      <trkpt lat="46.64634" lon="5.30754">
        <ele>193.883216</ele>
        <time>2020-10-11T09:00:57.276Z</time>
      </trkpt>
      <trkpt lat="46.6463" lon="5.30743">
        <ele>193.707778</ele>
        <time>2020-10-11T09:00:58.658Z</time>
      </trkpt>
      <trkpt lat="46.64594" lon="5.30619">
        <ele>193.164598</ele>
        <time>2020-10-11T09:01:14.271Z</time>
      </trkpt>
      <trkpt lat="46.64503" lon="5.30314">
        <ele>195.074863</ele>
        <time>2020-10-11T09:02:21.812Z</time>
      </trkpt>
      <trkpt lat="46.64465" lon="5.30189">
        <ele>195.837388</ele>
        <time>2020-10-11T09:02:43.485Z</time>
      </trkpt>
      <trkpt lat="46.64448" lon="5.30133">
        <ele>195.759356</ele>
        <time>2020-10-11T09:02:51.443Z</time>
      </trkpt>
      <trkpt lat="46.64424" lon="5.30063">
        <ele>195.657772</ele>
        <time>2020-10-11T09:03:01.391Z</time>
      </trkpt>
      <trkpt lat="46.64388" lon="5.29942">
        <ele>195.658321</ele>
        <time>2020-10-11T09:03:18.637Z</time>
      </trkpt>
      <trkpt lat="46.64327" lon="5.29736">
        <ele>197.047003</ele>
        <time>2020-10-11T09:04:00.360Z</time>
      </trkpt>
      <trkpt lat="46.64318" lon="5.29704">
        <ele>197.251375</ele>
        <time>2020-10-11T09:04:07.844Z</time>
      </trkpt>
      <trkpt lat="46.64254" lon="5.29485">
        <ele>198.612522</ele>
        <time>2020-10-11T09:04:50.056Z</time>
      </trkpt>
      <trkpt lat="46.64213" lon="5.29344">
        <ele>198.461354</ele>
        <time>2020-10-11T09:05:10.448Z</time>
      </trkpt>
      <trkpt lat="46.64099" lon="5.28965">
        <ele>197.640595</ele>
        <time>2020-10-11T09:06:05.065Z</time>
      </trkpt>
      <trkpt lat="46.64028" lon="5.2873">
        <ele>196.950598</ele>
        <time>2020-10-11T09:06:39.913Z</time>
      </trkpt>
      <trkpt lat="46.64006" lon="5.28657">
        <ele>196.286025</ele>
        <time>2020-10-11T09:06:49.235Z</time>
      </trkpt>
      <trkpt lat="46.63913" lon="5.2838">
        <ele>193.119551</ele>
        <time>2020-10-11T09:07:22.962Z</time>
      </trkpt>
      <trkpt lat="46.6385" lon="5.28193">
        <ele>190.494297</ele>
        <time>2020-10-11T09:07:45.052Z</time>
      </trkpt>
      <trkpt lat="46.63812" lon="5.28078">
        <ele>188.836286</ele>
        <time>2020-10-11T09:07:58.676Z</time>
      </trkpt>
      <trkpt lat="46.63778" lon="5.27975">
        <ele>188.22648</ele>
        <time>2020-10-11T09:08:11.190Z</time>
      </trkpt>
      <trkpt lat="46.63695" lon="5.27726">
        <ele>188.598139</ele>
        <time>2020-10-11T09:08:53.679Z</time>
      </trkpt>
      <trkpt lat="46.63605" lon="5.27461">
        <ele>192.591728</ele>
        <time>2020-10-11T09:09:57.173Z</time>
      </trkpt>
      <trkpt lat="46.63566" lon="5.27343">
        <ele>195.158294</ele>
        <time>2020-10-11T09:10:34.529Z</time>
      </trkpt>
      <trkpt lat="46.63536" lon="5.27247">
        <ele>197.374783</ele>
        <time>2020-10-11T09:11:06.591Z</time>
      </trkpt>
      <trkpt lat="46.63523" lon="5.27182">
        <ele>198.807371</ele>
        <time>2020-10-11T09:11:25.550Z</time>
      </trkpt>
      <trkpt lat="46.63516" lon="5.27133">
        <ele>199.844975</ele>
        <time>2020-10-11T09:11:37.733Z</time>
      </trkpt>
      <trkpt lat="46.63483" lon="5.26828">
        <ele>201.883371</ele>
        <time>2020-10-11T09:12:30.257Z</time>
      </trkpt>
      <trkpt lat="46.63463" lon="5.2665">
        <ele>201.494622</ele>
        <time>2020-10-11T09:12:53.147Z</time>
      </trkpt>
      <trkpt lat="46.63453" lon="5.2655">
        <ele>201.321135</ele>
        <time>2020-10-11T09:13:06.271Z</time>
      </trkpt>
      <trkpt lat="46.63433" lon="5.26377">
        <ele>201.192939</ele>
        <time>2020-10-11T09:13:30.964Z</time>
      </trkpt>
      <trkpt lat="46.6342" lon="5.26259">
        <ele>201.015766</ele>
        <time>2020-10-11T09:13:48.726Z</time>
      </trkpt>
      <trkpt lat="46.63417" lon="5.26226">
        <ele>200.943977</ele>
        <time>2020-10-11T09:13:53.387Z</time>
      </trkpt>
      <trkpt lat="46.63407" lon="5.26134">
        <ele>200.744574</ele>
        <time>2020-10-11T09:14:06.145Z</time>
      </trkpt>
      <trkpt lat="46.63383" lon="5.25893">
        <ele>199.731317</ele>
        <time>2020-10-11T09:14:34.954Z</time>
      </trkpt>
      <trkpt lat="46.63358" lon="5.25666">
        <ele>199.42987</ele>
        <time>2020-10-11T09:15:04.883Z</time>
      </trkpt>
      <trkpt lat="46.63356" lon="5.25646">
        <ele>199.451537</ele>
        <time>2020-10-11T09:15:08.073Z</time>
      </trkpt>
      <trkpt lat="46.63338" lon="5.25462">
        <ele>199.931208</ele>
        <time>2020-10-11T09:15:40.995Z</time>
      </trkpt>
      <trkpt lat="46.63317" lon="5.2527">
        <ele>200.648368</ele>
        <time>2020-10-11T09:16:14.345Z</time>
      </trkpt>
      <trkpt lat="46.63302" lon="5.25134">
        <ele>200.061949</ele>
        <time>2020-10-11T09:16:31.868Z</time>
      </trkpt>
      <trkpt lat="46.63299" lon="5.25102">
        <ele>199.924065</ele>
        <time>2020-10-11T09:16:35.710Z</time>
      </trkpt>
      <trkpt lat="46.63295" lon="5.25059">
        <ele>199.741491</ele>
        <time>2020-10-11T09:16:40.613Z</time>
      </trkpt>
      <trkpt lat="46.63291" lon="5.24971">
        <ele>199.019597</ele>
        <time>2020-10-11T09:16:50.548Z</time>
      </trkpt>
      <trkpt lat="46.63289" lon="5.24921">
        <ele>198.503</ele>
        <time>2020-10-11T09:16:56.062Z</time>
      </trkpt>
      <trkpt lat="46.63286" lon="5.24859">
        <ele>197.863378</ele>
        <time>2020-10-11T09:17:02.765Z</time>
      </trkpt>
      <trkpt lat="46.63275" lon="5.24684">
        <ele>196.695002</ele>
        <time>2020-10-11T09:17:22.296Z</time>
      </trkpt>
      <trkpt lat="46.63268" lon="5.2456">
        <ele>196.393607</ele>
        <time>2020-10-11T09:17:39.826Z</time>
      </trkpt>
      <trkpt lat="46.6326" lon="5.24434">
        <ele>196.356434</ele>
        <time>2020-10-11T09:18:00.576Z</time>
      </trkpt>
      <trkpt lat="46.63258" lon="5.24397">
        <ele>196.407492</ele>
        <time>2020-10-11T09:18:06.979Z</time>
      </trkpt>
      <trkpt lat="46.63256" lon="5.24375">
        <ele>196.437687</ele>
        <time>2020-10-11T09:18:10.776Z</time>
      </trkpt>
      <trkpt lat="46.63254" lon="5.24362">
        <ele>196.455955</ele>
        <time>2020-10-11T09:18:13.316Z</time>
      </trkpt>
      <trkpt lat="46.63207" lon="5.24032">
        <ele>196.065101</ele>
        <time>2020-10-11T09:18:57.881Z</time>
      </trkpt>
      <trkpt lat="46.63198" lon="5.23966">
        <ele>195.988212</ele>
        <time>2020-10-11T09:19:06.178Z</time>
      </trkpt>
      <trkpt lat="46.63197" lon="5.23957">
        <ele>196.000584</ele>
        <time>2020-10-11T09:19:07.361Z</time>
      </trkpt>
      <trkpt lat="46.63181" lon="5.23851">
        <ele>196.144949</ele>
        <time>2020-10-11T09:19:22.613Z</time>
      </trkpt>
      <trkpt lat="46.63168" lon="5.23759">
        <ele>196.269797</ele>
        <time>2020-10-11T09:19:37.954Z</time>
      </trkpt>
      <trkpt lat="46.63158" lon="5.23688">
        <ele>196.302824</ele>
        <time>2020-10-11T09:19:51.419Z</time>
      </trkpt>
      <trkpt lat="46.63153" lon="5.23645">
        <ele>196.300803</ele>
        <time>2020-10-11T09:19:58.900Z</time>
      </trkpt>
      <trkpt lat="46.63151" lon="5.23627">
        <ele>196.299972</ele>
        <time>2020-10-11T09:20:01.805Z</time>
      </trkpt>
      <trkpt lat="46.63141" lon="5.23558">
        <ele>196.296721</ele>
        <time>2020-10-11T09:20:12.488Z</time>
      </trkpt>
      <trkpt lat="46.63138" lon="5.23534">
        <ele>196.295579</ele>
        <time>2020-10-11T09:20:15.604Z</time>
      </trkpt>
      <trkpt lat="46.63137" lon="5.23531">
        <ele>196.295458</ele>
        <time>2020-10-11T09:20:15.977Z</time>
      </trkpt>
      <trkpt lat="46.63135" lon="5.23514">
        <ele>196.29465</ele>
        <time>2020-10-11T09:20:18.235Z</time>
      </trkpt>
      <trkpt lat="46.63134" lon="5.23509">
        <ele>196.29439</ele>
        <time>2020-10-11T09:20:18.953Z</time>
      </trkpt>
      <trkpt lat="46.6313" lon="5.23484">
        <ele>196.293228</ele>
        <time>2020-10-11T09:20:21.684Z</time>
      </trkpt>
      <trkpt lat="46.63107" lon="5.23339">
        <ele>193.962811</ele>
        <time>2020-10-11T09:20:37.812Z</time>
      </trkpt>
      <trkpt lat="46.63102" lon="5.23303">
        <ele>193.358175</ele>
        <time>2020-10-11T09:20:41.607Z</time>
      </trkpt>
      <trkpt lat="46.63097" lon="5.23277">
        <ele>192.91809</ele>
        <time>2020-10-11T09:20:44.170Z</time>
      </trkpt>
      <trkpt lat="46.63064" lon="5.23079">
        <ele>188.375662</ele>
        <time>2020-10-11T09:21:03.596Z</time>
      </trkpt>
      <trkpt lat="46.63062" lon="5.23066">
        <ele>188.055785</ele>
        <time>2020-10-11T09:21:04.783Z</time>
      </trkpt>
      <trkpt lat="46.63056" lon="5.23039">
        <ele>187.353529</ele>
        <time>2020-10-11T09:21:07.593Z</time>
      </trkpt>
      <trkpt lat="46.63047" lon="5.22982">
        <ele>185.932348</ele>
        <time>2020-10-11T09:21:13.237Z</time>
      </trkpt>
      <trkpt lat="46.63044" lon="5.22966">
        <ele>185.528883</ele>
        <time>2020-10-11T09:21:14.846Z</time>
      </trkpt>
      <trkpt lat="46.63036" lon="5.2292">
        <ele>184.778461</ele>
        <time>2020-10-11T09:21:19.519Z</time>
      </trkpt>
      <trkpt lat="46.6303" lon="5.22885">
        <ele>184.207642</ele>
        <time>2020-10-11T09:21:23.087Z</time>
      </trkpt>
      <trkpt lat="46.63024" lon="5.22842">
        <ele>183.514849</ele>
        <time>2020-10-11T09:21:27.433Z</time>
      </trkpt>
      <trkpt lat="46.63022" lon="5.22827">
        <ele>183.270892</ele>
        <time>2020-10-11T09:21:29.022Z</time>
      </trkpt>
      <trkpt lat="46.6302" lon="5.22801">
        <ele>182.859765</ele>
        <time>2020-10-11T09:21:31.815Z</time>
      </trkpt>
      <trkpt lat="46.63017" lon="5.22781">
        <ele>182.530472</ele>
        <time>2020-10-11T09:21:34.054Z</time>
      </trkpt>
      <trkpt lat="46.6301" lon="5.22722">
        <ele>181.594092</ele>
        <time>2020-10-11T09:21:40.646Z</time>
      </trkpt>
      <trkpt lat="46.63004" lon="5.22665">
        <ele>181.261078</ele>
        <time>2020-10-11T09:21:47.351Z</time>
      </trkpt>
      <trkpt lat="46.63002" lon="5.22647">
        <ele>181.201185</ele>
        <time>2020-10-11T09:21:49.616Z</time>
      </trkpt>
      <trkpt lat="46.62996" lon="5.22606">
        <ele>181.070725</ele>
        <time>2020-10-11T09:21:54.790Z</time>
      </trkpt>
      <trkpt lat="46.62995" lon="5.22603">
        <ele>181.059115</ele>
        <time>2020-10-11T09:21:55.257Z</time>
      </trkpt>
      <trkpt lat="46.62987" lon="5.22578">
        <ele>180.971992</ele>
        <time>2020-10-11T09:21:58.959Z</time>
      </trkpt>
      <trkpt lat="46.62984" lon="5.2257">
        <ele>180.944099</ele>
        <time>2020-10-11T09:22:00.064Z</time>
      </trkpt>
      <trkpt lat="46.62972" lon="5.22534">
        <ele>180.817205</ele>
        <time>2020-10-11T09:22:05.624Z</time>
      </trkpt>
      <trkpt lat="46.62963" lon="5.22539">
        <ele>180.772115</ele>
        <time>2020-10-11T09:22:07.599Z</time>
      </trkpt>
      <trkpt lat="46.62934" lon="5.2255">
        <ele>180.635793</ele>
        <time>2020-10-11T09:22:13.999Z</time>
      </trkpt>
      <trkpt lat="46.62906" lon="5.22562">
        <ele>180.613744</ele>
        <time>2020-10-11T09:22:20.198Z</time>
      </trkpt>
      <trkpt lat="46.62904" lon="5.22554">
        <ele>180.624395</ele>
        <time>2020-10-11T09:22:21.688Z</time>
      </trkpt>
      <trkpt lat="46.62849" lon="5.22311">
        <ele>180.812637</ele>
        <time>2020-10-11T09:23:01.054Z</time>
      </trkpt>
      <trkpt lat="46.62847" lon="5.22305">
        <ele>180.781579</ele>
        <time>2020-10-11T09:23:01.940Z</time>
      </trkpt>
      <trkpt lat="46.62845" lon="5.22301">
        <ele>180.759771</ele>
        <time>2020-10-11T09:23:02.577Z</time>
      </trkpt>
      <trkpt lat="46.62843" lon="5.22296">
        <ele>180.730575</ele>
        <time>2020-10-11T09:23:03.316Z</time>
      </trkpt>
      <trkpt lat="46.6284" lon="5.22292">
        <ele>180.702067</ele>
        <time>2020-10-11T09:23:04.141Z</time>
      </trkpt>
      <trkpt lat="46.62841" lon="5.22288">
        <ele>180.684961</ele>
        <time>2020-10-11T09:23:04.644Z</time>
      </trkpt>
      <trkpt lat="46.62841" lon="5.22284">
        <ele>180.666299</ele>
        <time>2020-10-11T09:23:05.222Z</time>
      </trkpt>
      <trkpt lat="46.6284" lon="5.22278">
        <ele>180.636233</ele>
        <time>2020-10-11T09:23:06.034Z</time>
      </trkpt>
      <trkpt lat="46.62838" lon="5.22267">
        <ele>180.580216</ele>
        <time>2020-10-11T09:23:07.462Z</time>
      </trkpt>
      <trkpt lat="46.62811" lon="5.22153">
        <ele>180.004991</ele>
        <time>2020-10-11T09:23:21.819Z</time>
      </trkpt>
      <trkpt lat="46.6281" lon="5.22149">
        <ele>179.982104</ele>
        <time>2020-10-11T09:23:22.336Z</time>
      </trkpt>
      <trkpt lat="46.62813" lon="5.22147">
        <ele>179.962289</ele>
        <time>2020-10-11T09:23:22.832Z</time>
      </trkpt>
      <trkpt lat="46.62817" lon="5.22142">
        <ele>179.922723</ele>
        <time>2020-10-11T09:23:23.799Z</time>
      </trkpt>
      <trkpt lat="46.62818" lon="5.22138">
        <ele>179.902709</ele>
        <time>2020-10-11T09:23:24.342Z</time>
      </trkpt>
      <trkpt lat="46.62819" lon="5.22135">
        <ele>179.888086</ele>
        <time>2020-10-11T09:23:24.678Z</time>
      </trkpt>
      <trkpt lat="46.62815" lon="5.22122">
        <ele>179.817602</ele>
        <time>2020-10-11T09:23:26.272Z</time>
      </trkpt>
      <trkpt lat="46.62813" lon="5.2212">
        <ele>179.802908</ele>
        <time>2020-10-11T09:23:26.626Z</time>
      </trkpt>
      <trkpt lat="46.62811" lon="5.22119">
        <ele>179.787513</ele>
        <time>2020-10-11T09:23:27.037Z</time>
      </trkpt>
      <trkpt lat="46.62802" lon="5.22122">
        <ele>179.726788</ele>
        <time>2020-10-11T09:23:28.546Z</time>
      </trkpt>
      <trkpt lat="46.62801" lon="5.22124">
        <ele>179.711122</ele>
        <time>2020-10-11T09:23:28.928Z</time>
      </trkpt>
      <trkpt lat="46.62799" lon="5.22122">
        <ele>179.692955</ele>
        <time>2020-10-11T09:23:29.337Z</time>
      </trkpt>
      <trkpt lat="46.62796" lon="5.22116">
        <ele>179.651619</ele>
        <time>2020-10-11T09:23:30.252Z</time>
      </trkpt>
      <trkpt lat="46.62792" lon="5.22105">
        <ele>179.577574</ele>
        <time>2020-10-11T09:23:31.617Z</time>
      </trkpt>
      <trkpt lat="46.62789" lon="5.22084">
        <ele>179.450421</ele>
        <time>2020-10-11T09:23:34.243Z</time>
      </trkpt>
      <trkpt lat="46.62785" lon="5.22072">
        <ele>179.373686</ele>
        <time>2020-10-11T09:23:35.749Z</time>
      </trkpt>
      <trkpt lat="46.62781" lon="5.2206">
        <ele>179.294271</ele>
        <time>2020-10-11T09:23:37.341Z</time>
      </trkpt>
      <trkpt lat="46.62777" lon="5.22051">
        <ele>179.235104</ele>
        <time>2020-10-11T09:23:38.457Z</time>
      </trkpt>
      <trkpt lat="46.62775" lon="5.22031">
        <ele>179.111222</ele>
        <time>2020-10-11T09:23:40.985Z</time>
      </trkpt>
      <trkpt lat="46.62783" lon="5.2201">
        <ele>178.969691</ele>
        <time>2020-10-11T09:23:43.749Z</time>
      </trkpt>
      <trkpt lat="46.62789" lon="5.22005">
        <ele>178.91415</ele>
        <time>2020-10-11T09:23:44.721Z</time>
      </trkpt>
      <trkpt lat="46.62836" lon="5.21973">
        <ele>178.465754</ele>
        <time>2020-10-11T09:23:53.881Z</time>
      </trkpt>
      <trkpt lat="46.62868" lon="5.21945">
        <ele>178.14348</ele>
        <time>2020-10-11T09:24:00.749Z</time>
      </trkpt>
      <trkpt lat="46.62884" lon="5.21932">
        <ele>178.176612</ele>
        <time>2020-10-11T09:24:04.019Z</time>
      </trkpt>
      <trkpt lat="46.62899" lon="5.21918">
        <ele>178.211767</ele>
        <time>2020-10-11T09:24:08.303Z</time>
      </trkpt>
      <trkpt lat="46.62904" lon="5.21904">
        <ele>178.232653</ele>
        <time>2020-10-11T09:24:10.811Z</time>
      </trkpt>
      <trkpt lat="46.62903" lon="5.21899">
        <ele>178.239635</ele>
        <time>2020-10-11T09:24:11.416Z</time>
      </trkpt>
      <trkpt lat="46.62902" lon="5.21893">
        <ele>178.247617</ele>
        <time>2020-10-11T09:24:12.174Z</time>
      </trkpt>
      <trkpt lat="46.62868" lon="5.21802">
        <ele>178.38548</ele>
        <time>2020-10-11T09:24:28.755Z</time>
      </trkpt>
      <trkpt lat="46.62868" lon="5.218">
        <ele>178.388272</ele>
        <time>2020-10-11T09:24:29.116Z</time>
      </trkpt>
      <trkpt lat="46.62844" lon="5.21752">
        <ele>178.466406</ele>
        <time>2020-10-11T09:24:38.374Z</time>
      </trkpt>
      <trkpt lat="46.62833" lon="5.21735">
        <ele>178.494998</ele>
        <time>2020-10-11T09:24:42.083Z</time>
      </trkpt>
      <trkpt lat="46.62822" lon="5.21718">
        <ele>178.51185</ele>
        <time>2020-10-11T09:24:45.634Z</time>
      </trkpt>
      <trkpt lat="46.62807" lon="5.21702">
        <ele>178.530986</ele>
        <time>2020-10-11T09:24:49.980Z</time>
      </trkpt>
      <trkpt lat="46.62789" lon="5.21682">
        <ele>178.55389</ele>
        <time>2020-10-11T09:24:55.069Z</time>
      </trkpt>
      <trkpt lat="46.62781" lon="5.21675">
        <ele>178.563525</ele>
        <time>2020-10-11T09:24:57.075Z</time>
      </trkpt>
      <trkpt lat="46.62813" lon="5.21583">
        <ele>178.636952</ele>
        <time>2020-10-11T09:25:12.737Z</time>
      </trkpt>
      <trkpt lat="46.62827" lon="5.21545">
        <ele>178.667184</ele>
        <time>2020-10-11T09:25:18.560Z</time>
      </trkpt>
      <trkpt lat="46.62834" lon="5.21516">
        <ele>178.611977</ele>
        <time>2020-10-11T09:25:22.438Z</time>
      </trkpt>
      <trkpt lat="46.62839" lon="5.21486">
        <ele>178.495532</ele>
        <time>2020-10-11T09:25:26.416Z</time>
      </trkpt>
      <trkpt lat="46.62844" lon="5.21451">
        <ele>178.354608</ele>
        <time>2020-10-11T09:25:30.907Z</time>
      </trkpt>
      <trkpt lat="46.62853" lon="5.2139">
        <ele>178.116583</ele>
        <time>2020-10-11T09:25:38.456Z</time>
      </trkpt>
      <trkpt lat="46.62856" lon="5.21361">
        <ele>178.00472</ele>
        <time>2020-10-11T09:25:41.899Z</time>
      </trkpt>
      <trkpt lat="46.62856" lon="5.21259">
        <ele>177.708994</ele>
        <time>2020-10-11T09:25:54.840Z</time>
      </trkpt>
      <trkpt lat="46.62851" lon="5.21228">
        <ele>177.786581</ele>
        <time>2020-10-11T09:25:59.114Z</time>
      </trkpt>
      <trkpt lat="46.62847" lon="5.21211">
        <ele>177.830017</ele>
        <time>2020-10-11T09:26:01.579Z</time>
      </trkpt>
      <trkpt lat="46.62839" lon="5.21188">
        <ele>177.892581</ele>
        <time>2020-10-11T09:26:05.332Z</time>
      </trkpt>
      <trkpt lat="46.62815" lon="5.21151">
        <ele>178.016271</ele>
        <time>2020-10-11T09:26:12.680Z</time>
      </trkpt>
      <trkpt lat="46.62777" lon="5.21122">
        <ele>178.169798</ele>
        <time>2020-10-11T09:26:23.057Z</time>
      </trkpt>
      <trkpt lat="46.62769" lon="5.21121">
        <ele>178.196677</ele>
        <time>2020-10-11T09:26:25.127Z</time>
      </trkpt>
      <trkpt lat="46.62751" lon="5.21118">
        <ele>178.260815</ele>
        <time>2020-10-11T09:26:29.888Z</time>
      </trkpt>
      <trkpt lat="46.62737" lon="5.21115">
        <ele>178.320592</ele>
        <time>2020-10-11T09:26:33.822Z</time>
      </trkpt>
      <trkpt lat="46.62608" lon="5.21088">
        <ele>179.885019</ele>
        <time>2020-10-11T09:27:11.974Z</time>
      </trkpt>
      <trkpt lat="46.62612" lon="5.20987">
        <ele>180.513335</ele>
        <time>2020-10-11T09:27:30.174Z</time>
      </trkpt>
      <trkpt lat="46.62625" lon="5.20562">
        <ele>181.366297</ele>
        <time>2020-10-11T09:28:30.630Z</time>
      </trkpt>
      <trkpt lat="46.62627" lon="5.2051">
        <ele>181.52071</ele>
        <time>2020-10-11T09:28:40.904Z</time>
      </trkpt>
      <trkpt lat="46.62627" lon="5.20503">
        <ele>181.542533</ele>
        <time>2020-10-11T09:28:42.349Z</time>
      </trkpt>
      <trkpt lat="46.62628" lon="5.20446">
        <ele>182.055856</ele>
        <time>2020-10-11T09:28:53.770Z</time>
      </trkpt>
      <trkpt lat="46.62632" lon="5.2031">
        <ele>183.462647</ele>
        <time>2020-10-11T09:29:22.264Z</time>
      </trkpt>
      <trkpt lat="46.62644" lon="5.1996">
        <ele>186.806999</ele>
        <time>2020-10-11T09:30:29.793Z</time>
      </trkpt>
      <trkpt lat="46.62648" lon="5.19856">
        <ele>187.788724</ele>
        <time>2020-10-11T09:30:52.148Z</time>
      </trkpt>
      <trkpt lat="46.62651" lon="5.1977">
        <ele>188.600278</ele>
        <time>2020-10-11T09:31:10.277Z</time>
      </trkpt>
      <trkpt lat="46.62655" lon="5.19613">
        <ele>188.879838</ele>
        <time>2020-10-11T09:31:36.281Z</time>
      </trkpt>
      <trkpt lat="46.62656" lon="5.19583">
        <ele>188.783819</ele>
        <time>2020-10-11T09:31:39.986Z</time>
      </trkpt>
      <trkpt lat="46.62659" lon="5.1946">
        <ele>188.394187</ele>
        <time>2020-10-11T09:31:54.324Z</time>
      </trkpt>
      <trkpt lat="46.62659" lon="5.19429">
        <ele>188.186327</ele>
        <time>2020-10-11T09:31:57.727Z</time>
      </trkpt>
      <trkpt lat="46.62657" lon="5.19374">
        <ele>187.675433</ele>
        <time>2020-10-11T09:32:03.636Z</time>
      </trkpt>
      <trkpt lat="46.62655" lon="5.19292">
        <ele>186.908603</ele>
        <time>2020-10-11T09:32:12.782Z</time>
      </trkpt>
      <trkpt lat="46.6265" lon="5.18969">
        <ele>184.111507</ele>
        <time>2020-10-11T09:32:49.980Z</time>
      </trkpt>
      <trkpt lat="46.62645" lon="5.18735">
        <ele>182.418829</ele>
        <time>2020-10-11T09:33:16.919Z</time>
      </trkpt>
      <trkpt lat="46.62643" lon="5.1867">
        <ele>181.966636</ele>
        <time>2020-10-11T09:33:24.629Z</time>
      </trkpt>
      <trkpt lat="46.62638" lon="5.18449">
        <ele>181.358026</ele>
        <time>2020-10-11T09:33:54.058Z</time>
      </trkpt>
      <trkpt lat="46.62636" lon="5.18399">
        <ele>181.228995</ele>
        <time>2020-10-11T09:34:00.824Z</time>
      </trkpt>
      <trkpt lat="46.62634" lon="5.18301">
        <ele>181.080434</ele>
        <time>2020-10-11T09:34:13.664Z</time>
      </trkpt>
      <trkpt lat="46.62634" lon="5.18288">
        <ele>181.06109</ele>
        <time>2020-10-11T09:34:15.657Z</time>
      </trkpt>
      <trkpt lat="46.62633" lon="5.18277">
        <ele>181.044604</ele>
        <time>2020-10-11T09:34:16.940Z</time>
      </trkpt>
      <trkpt lat="46.62629" lon="5.18088">
        <ele>180.889282</ele>
        <time>2020-10-11T09:34:43.184Z</time>
      </trkpt>
      <trkpt lat="46.62628" lon="5.18023">
        <ele>180.962503</ele>
        <time>2020-10-11T09:34:52.555Z</time>
      </trkpt>
      <trkpt lat="46.62627" lon="5.17982">
        <ele>181.007998</ele>
        <time>2020-10-11T09:34:58.747Z</time>
      </trkpt>
      <trkpt lat="46.62627" lon="5.17961">
        <ele>181.031923</ele>
        <time>2020-10-11T09:35:02.077Z</time>
      </trkpt>
      <trkpt lat="46.62626" lon="5.17934">
        <ele>181.061555</ele>
        <time>2020-10-11T09:35:06.247Z</time>
      </trkpt>
      <trkpt lat="46.62625" lon="5.17906">
        <ele>181.092668</ele>
        <time>2020-10-11T09:35:10.701Z</time>
      </trkpt>
      <trkpt lat="46.62623" lon="5.17807">
        <ele>181.099172</ele>
        <time>2020-10-11T09:35:26.299Z</time>
      </trkpt>
      <trkpt lat="46.62622" lon="5.17745">
        <ele>181.074312</ele>
        <time>2020-10-11T09:35:35.383Z</time>
      </trkpt>
      <trkpt lat="46.62622" lon="5.17729">
        <ele>181.067957</ele>
        <time>2020-10-11T09:35:37.547Z</time>
      </trkpt>
      <trkpt lat="46.62621" lon="5.17704">
        <ele>181.058164</ele>
        <time>2020-10-11T09:35:40.976Z</time>
      </trkpt>
      <trkpt lat="46.62621" lon="5.17693">
        <ele>181.053568</ele>
        <time>2020-10-11T09:35:42.540Z</time>
      </trkpt>
      <trkpt lat="46.62617" lon="5.17514">
        <ele>180.938011</ele>
        <time>2020-10-11T09:36:05.497Z</time>
      </trkpt>
      <trkpt lat="46.62617" lon="5.17505">
        <ele>180.929999</ele>
        <time>2020-10-11T09:36:06.742Z</time>
      </trkpt>
      <trkpt lat="46.62613" lon="5.17357">
        <ele>180.805562</ele>
        <time>2020-10-11T09:36:26.324Z</time>
      </trkpt>
      <trkpt lat="46.62611" lon="5.17241">
        <ele>182.569889</ele>
        <time>2020-10-11T09:36:49.307Z</time>
      </trkpt>
      <trkpt lat="46.6261" lon="5.17195">
        <ele>183.297853</ele>
        <time>2020-10-11T09:37:00.163Z</time>
      </trkpt>
      <trkpt lat="46.62608" lon="5.17112">
        <ele>184.623433</ele>
        <time>2020-10-11T09:37:22.804Z</time>
      </trkpt>
      <trkpt lat="46.62603" lon="5.16883">
        <ele>190.240327</ele>
        <time>2020-10-11T09:38:32.281Z</time>
      </trkpt>
      <trkpt lat="46.62598" lon="5.16678">
        <ele>193.698738</ele>
        <time>2020-10-11T09:39:21.952Z</time>
      </trkpt>
      <trkpt lat="46.62598" lon="5.16551">
        <ele>195.29822</ele>
        <time>2020-10-11T09:39:45.696Z</time>
      </trkpt>
      <trkpt lat="46.62598" lon="5.16492">
        <ele>195.577511</ele>
        <time>2020-10-11T09:39:56.304Z</time>
      </trkpt>
      <trkpt lat="46.62598" lon="5.16412">
        <ele>195.959935</ele>
        <time>2020-10-11T09:40:09.716Z</time>
      </trkpt>
      <trkpt lat="46.626" lon="5.16288">
        <ele>196.485352</ele>
        <time>2020-10-11T09:40:29.813Z</time>
      </trkpt>
      <trkpt lat="46.626" lon="5.16284">
        <ele>196.48958</ele>
        <time>2020-10-11T09:40:30.827Z</time>
      </trkpt>
      <trkpt lat="46.62599" lon="5.16105">
        <ele>196.64646</ele>
        <time>2020-10-11T09:40:58.027Z</time>
      </trkpt>
      <trkpt lat="46.62599" lon="5.16093">
        <ele>196.657294</ele>
        <time>2020-10-11T09:40:59.786Z</time>
      </trkpt>
      <trkpt lat="46.626" lon="5.1582">
        <ele>195.997349</ele>
        <time>2020-10-11T09:41:34.903Z</time>
      </trkpt>
      <trkpt lat="46.626" lon="5.15724">
        <ele>195.676546</ele>
        <time>2020-10-11T09:41:46.915Z</time>
      </trkpt>
      <trkpt lat="46.62601" lon="5.15648">
        <ele>195.416086</ele>
        <time>2020-10-11T09:41:56.351Z</time>
      </trkpt>
      <trkpt lat="46.62602" lon="5.15293">
        <ele>194.488731</ele>
        <time>2020-10-11T09:42:43.116Z</time>
      </trkpt>
      <trkpt lat="46.62602" lon="5.15213">
        <ele>194.225271</ele>
        <time>2020-10-11T09:42:54.175Z</time>
      </trkpt>
      <trkpt lat="46.62589" lon="5.15124">
        <ele>193.841</ele>
        <time>2020-10-11T09:43:06.520Z</time>
      </trkpt>
      <trkpt lat="46.62576" lon="5.15085">
        <ele>193.659117</ele>
        <time>2020-10-11T09:43:12.006Z</time>
      </trkpt>
      <trkpt lat="46.62519" lon="5.14948">
        <ele>192.253059</ele>
        <time>2020-10-11T09:43:30.419Z</time>
      </trkpt>
      <trkpt lat="46.62437" lon="5.14757">
        <ele>189.100957</ele>
        <time>2020-10-11T09:43:53.590Z</time>
      </trkpt>
      <trkpt lat="46.6233" lon="5.14505">
        <ele>184.958469</ele>
        <time>2020-10-11T09:44:24.036Z</time>
      </trkpt>
      <trkpt lat="46.62239" lon="5.14292">
        <ele>183.521187</ele>
        <time>2020-10-11T09:44:54.705Z</time>
      </trkpt>
      <trkpt lat="46.62183" lon="5.14163">
        <ele>183.794086</ele>
        <time>2020-10-11T09:45:20.079Z</time>
      </trkpt>
      <trkpt lat="46.62174" lon="5.14141">
        <ele>183.838985</ele>
        <time>2020-10-11T09:45:24.701Z</time>
      </trkpt>
      <trkpt lat="46.62105" lon="5.13977">
        <ele>184.235793</ele>
        <time>2020-10-11T09:45:57.049Z</time>
      </trkpt>
      <trkpt lat="46.62015" lon="5.13765">
        <ele>183.960001</ele>
        <time>2020-10-11T09:46:29.722Z</time>
      </trkpt>
      <trkpt lat="46.6195" lon="5.13613">
        <ele>183.474327</ele>
        <time>2020-10-11T09:46:52.404Z</time>
      </trkpt>
      <trkpt lat="46.61827" lon="5.13325">
        <ele>182.336393</ele>
        <time>2020-10-11T09:47:37.495Z</time>
      </trkpt>
      <trkpt lat="46.61808" lon="5.1328">
        <ele>182.10372</ele>
        <time>2020-10-11T09:47:43.658Z</time>
      </trkpt>
      <trkpt lat="46.6173" lon="5.13096">
        <ele>180.858436</ele>
        <time>2020-10-11T09:48:08.700Z</time>
      </trkpt>
      <trkpt lat="46.6164" lon="5.12888">
        <ele>179.988028</ele>
        <time>2020-10-11T09:48:40.015Z</time>
      </trkpt>
      <trkpt lat="46.61611" lon="5.12819">
        <ele>179.846936</ele>
        <time>2020-10-11T09:48:51.506Z</time>
      </trkpt>
      <trkpt lat="46.61561" lon="5.12702">
        <ele>180.41494</ele>
        <time>2020-10-11T09:49:12.355Z</time>
      </trkpt>
      <trkpt lat="46.61524" lon="5.12618">
        <ele>181.023288</ele>
        <time>2020-10-11T09:49:29.653Z</time>
      </trkpt>
      <trkpt lat="46.61407" lon="5.12344">
        <ele>184.920621</ele>
        <time>2020-10-11T09:50:40.604Z</time>
      </trkpt>
      <trkpt lat="46.61367" lon="5.1225">
        <ele>186.058158</ele>
        <time>2020-10-11T09:51:05.336Z</time>
      </trkpt>
      <trkpt lat="46.61306" lon="5.12107">
        <ele>187.674543</ele>
        <time>2020-10-11T09:51:37.387Z</time>
      </trkpt>
      <trkpt lat="46.61303" lon="5.12101">
        <ele>187.698975</ele>
        <time>2020-10-11T09:51:38.471Z</time>
      </trkpt>
      <trkpt lat="46.61147" lon="5.11739">
        <ele>189.889829</ele>
        <time>2020-10-11T09:52:46.281Z</time>
      </trkpt>
      <trkpt lat="46.61063" lon="5.1154">
        <ele>192.941466</ele>
        <time>2020-10-11T09:53:41.394Z</time>
      </trkpt>
      <trkpt lat="46.60999" lon="5.11388">
        <ele>195.070193</ele>
        <time>2020-10-11T09:54:22.401Z</time>
      </trkpt>
      <trkpt lat="46.60973" lon="5.11321">
        <ele>195.61557</ele>
        <time>2020-10-11T09:54:36.098Z</time>
      </trkpt>
      <trkpt lat="46.60937" lon="5.11221">
        <ele>196.353396</ele>
        <time>2020-10-11T09:54:53.170Z</time>
      </trkpt>
      <trkpt lat="46.60922" lon="5.11179">
        <ele>196.301724</ele>
        <time>2020-10-11T09:54:59.832Z</time>
      </trkpt>
      <trkpt lat="46.60876" lon="5.11052">
        <ele>196.146921</ele>
        <time>2020-10-11T09:55:18.424Z</time>
      </trkpt>
      <trkpt lat="46.60747" lon="5.10696">
        <ele>196.207601</ele>
        <time>2020-10-11T09:56:17.860Z</time>
      </trkpt>
      <trkpt lat="46.60719" lon="5.10619">
        <ele>196.172312</ele>
        <time>2020-10-11T09:56:30.324Z</time>
      </trkpt>
      <trkpt lat="46.6071" lon="5.10596">
        <ele>196.161918</ele>
        <time>2020-10-11T09:56:33.780Z</time>
      </trkpt>
      <trkpt lat="46.6069" lon="5.1054">
        <ele>196.136438</ele>
        <time>2020-10-11T09:56:42.120Z</time>
      </trkpt>
      <trkpt lat="46.60624" lon="5.1036">
        <ele>195.990573</ele>
        <time>2020-10-11T09:57:10.130Z</time>
      </trkpt>
      <trkpt lat="46.60554" lon="5.10169">
        <ele>195.875536</ele>
        <time>2020-10-11T09:57:41.129Z</time>
      </trkpt>
      <trkpt lat="46.60491" lon="5.0999">
        <ele>195.726646</ele>
        <time>2020-10-11T09:58:08.690Z</time>
      </trkpt>
      <trkpt lat="46.60484" lon="5.09971">
        <ele>195.70319</ele>
        <time>2020-10-11T09:58:11.594Z</time>
      </trkpt>
      <trkpt lat="46.60476" lon="5.09953">
        <ele>195.680262</ele>
        <time>2020-10-11T09:58:14.186Z</time>
      </trkpt>
      <trkpt lat="46.60472" lon="5.09943">
        <ele>195.667603</ele>
        <time>2020-10-11T09:58:15.736Z</time>
      </trkpt>
      <trkpt lat="46.60409" lon="5.09865">
        <ele>195.540539</ele>
        <time>2020-10-11T09:58:32.558Z</time>
      </trkpt>
      <trkpt lat="46.60267" lon="5.09701">
        <ele>195.734962</ele>
        <time>2020-10-11T09:59:12.413Z</time>
      </trkpt>
      <trkpt lat="46.60188" lon="5.09611">
        <ele>195.619243</ele>
        <time>2020-10-11T09:59:32.389Z</time>
      </trkpt>
      <trkpt lat="46.60126" lon="5.09539">
        <ele>195.529419</ele>
        <time>2020-10-11T09:59:47.951Z</time>
      </trkpt>
      <trkpt lat="46.60072" lon="5.09476">
        <ele>195.49938</ele>
        <time>2020-10-11T10:00:01.578Z</time>
      </trkpt>
      <trkpt lat="46.60073" lon="5.09473">
        <ele>195.498242</ele>
        <time>2020-10-11T10:00:02.174Z</time>
      </trkpt>
      <trkpt lat="46.60079" lon="5.09457">
        <ele>195.492756</ele>
        <time>2020-10-11T10:00:04.729Z</time>
      </trkpt>
      <trkpt lat="46.60091" lon="5.09213">
        <ele>195.289616</ele>
        <time>2020-10-11T10:00:40.579Z</time>
      </trkpt>
      <trkpt lat="46.60128" lon="5.08939">
        <ele>194.033275</ele>
        <time>2020-10-11T10:01:16.663Z</time>
      </trkpt>
      <trkpt lat="46.60129" lon="5.08929">
        <ele>193.945115</ele>
        <time>2020-10-11T10:01:17.836Z</time>
      </trkpt>
      <trkpt lat="46.60127" lon="5.08918">
        <ele>193.853645</ele>
        <time>2020-10-11T10:01:19.181Z</time>
      </trkpt>
      <trkpt lat="46.6011" lon="5.08892">
        <ele>193.565983</ele>
        <time>2020-10-11T10:01:23.041Z</time>
      </trkpt>
      <trkpt lat="46.60102" lon="5.08877">
        <ele>193.416225</ele>
        <time>2020-10-11T10:01:25.085Z</time>
      </trkpt>
      <trkpt lat="46.60134" lon="5.08822">
        <ele>192.72395</ele>
        <time>2020-10-11T10:01:32.636Z</time>
      </trkpt>
      <trkpt lat="46.60304" lon="5.08489">
        <ele>186.075581</ele>
        <time>2020-10-11T10:02:14.695Z</time>
      </trkpt>
      <trkpt lat="46.60328" lon="5.08427">
        <ele>185.049993</ele>
        <time>2020-10-11T10:02:22.543Z</time>
      </trkpt>
      <trkpt lat="46.60333" lon="5.08414">
        <ele>184.830682</ele>
        <time>2020-10-11T10:02:24.223Z</time>
      </trkpt>
      <trkpt lat="46.60309" lon="5.08399">
        <ele>184.548751</ele>
        <time>2020-10-11T10:02:28.618Z</time>
      </trkpt>
      <trkpt lat="46.60181" lon="5.08349">
        <ele>183.560611</ele>
        <time>2020-10-11T10:02:52.871Z</time>
      </trkpt>
      <trkpt lat="46.6015" lon="5.08329">
        <ele>183.275651</ele>
        <time>2020-10-11T10:02:59.067Z</time>
      </trkpt>
      <trkpt lat="46.60129" lon="5.08305">
        <ele>182.881944</ele>
        <time>2020-10-11T10:03:04.007Z</time>
      </trkpt>
      <trkpt lat="46.60107" lon="5.08275">
        <ele>182.443725</ele>
        <time>2020-10-11T10:03:09.330Z</time>
      </trkpt>
      <trkpt lat="46.60122" lon="5.08241">
        <ele>182.039865</ele>
        <time>2020-10-11T10:03:14.055Z</time>
      </trkpt>
      <trkpt lat="46.60255" lon="5.0794">
        <ele>177.367589</ele>
        <time>2020-10-11T10:03:51.597Z</time>
      </trkpt>
      <trkpt lat="46.60255" lon="5.07934">
        <ele>177.278523</ele>
        <time>2020-10-11T10:03:52.110Z</time>
      </trkpt>
      <trkpt lat="46.60253" lon="5.07928">
        <ele>177.176059</ele>
        <time>2020-10-11T10:03:52.820Z</time>
      </trkpt>
      <trkpt lat="46.60198" lon="5.07851">
        <ele>175.860802</ele>
        <time>2020-10-11T10:04:04.440Z</time>
      </trkpt>
      <trkpt lat="46.60186" lon="5.07823">
        <ele>175.494994</ele>
        <time>2020-10-11T10:04:08.291Z</time>
      </trkpt>
      <trkpt lat="46.6018" lon="5.07806">
        <ele>175.285392</ele>
        <time>2020-10-11T10:04:10.126Z</time>
      </trkpt>
      <trkpt lat="46.60165" lon="5.07752">
        <ele>174.63648</ele>
        <time>2020-10-11T10:04:16.577Z</time>
      </trkpt>
      <trkpt lat="46.60152" lon="5.07659">
        <ele>173.817954</ele>
        <time>2020-10-11T10:04:28.188Z</time>
      </trkpt>
      <trkpt lat="46.60124" lon="5.07435">
        <ele>172.931589</ele>
        <time>2020-10-11T10:04:57.118Z</time>
      </trkpt>
      <trkpt lat="46.60122" lon="5.07416">
        <ele>172.958421</ele>
        <time>2020-10-11T10:04:59.725Z</time>
      </trkpt>
      <trkpt lat="46.6011" lon="5.07324">
        <ele>173.101197</ele>
        <time>2020-10-11T10:05:13.351Z</time>
      </trkpt>
      <trkpt lat="46.60106" lon="5.07291">
        <ele>173.152995</ele>
        <time>2020-10-11T10:05:18.506Z</time>
      </trkpt>
      <trkpt lat="46.60094" lon="5.07197">
        <ele>173.297027</ele>
        <time>2020-10-11T10:05:33.846Z</time>
      </trkpt>
      <trkpt lat="46.60085" lon="5.07108">
        <ele>173.714272</ele>
        <time>2020-10-11T10:05:48.891Z</time>
      </trkpt>
      <trkpt lat="46.60083" lon="5.07073">
        <ele>173.909055</ele>
        <time>2020-10-11T10:05:54.866Z</time>
      </trkpt>
      <trkpt lat="46.60083" lon="5.07048">
        <ele>174.050422</ele>
        <time>2020-10-11T10:05:59.389Z</time>
      </trkpt>
      <trkpt lat="46.60083" lon="5.07023">
        <ele>174.190175</ele>
        <time>2020-10-11T10:06:03.662Z</time>
      </trkpt>
      <trkpt lat="46.60085" lon="5.07014">
        <ele>174.244708</ele>
        <time>2020-10-11T10:06:05.391Z</time>
      </trkpt>
      <trkpt lat="46.60089" lon="5.07003">
        <ele>174.311138</ele>
        <time>2020-10-11T10:06:07.395Z</time>
      </trkpt>
      <trkpt lat="46.60166" lon="5.06892">
        <ele>175.170921</ele>
        <time>2020-10-11T10:06:35.942Z</time>
      </trkpt>
      <trkpt lat="46.60179" lon="5.06855">
        <ele>175.3931</ele>
        <time>2020-10-11T10:06:43.303Z</time>
      </trkpt>
      <trkpt lat="46.60179" lon="5.06838">
        <ele>175.483247</ele>
        <time>2020-10-11T10:06:46.204Z</time>
      </trkpt>
      <trkpt lat="46.60172" lon="5.06751">
        <ele>175.948525</ele>
        <time>2020-10-11T10:07:01.005Z</time>
      </trkpt>
      <trkpt lat="46.6017" lon="5.0672">
        <ele>176.113542</ele>
        <time>2020-10-11T10:07:06.427Z</time>
      </trkpt>
      <trkpt lat="46.60125" lon="5.06739">
        <ele>176.37031</ele>
        <time>2020-10-11T10:07:17.430Z</time>
      </trkpt>
      <trkpt lat="46.60025" lon="5.06783">
        <ele>176.888537</ele>
        <time>2020-10-11T10:07:42.445Z</time>
      </trkpt>
      <trkpt lat="46.59988" lon="5.06781">
        <ele>177.07422</ele>
        <time>2020-10-11T10:07:50.461Z</time>
      </trkpt>
      <trkpt lat="46.59986" lon="5.06781">
        <ele>177.08289</ele>
        <time>2020-10-11T10:07:50.655Z</time>
      </trkpt>
      <trkpt lat="46.59962" lon="5.06773">
        <ele>177.256635</ele>
        <time>2020-10-11T10:07:56.368Z</time>
      </trkpt>
      <trkpt lat="46.59873" lon="5.06752">
        <ele>177.894294</ele>
        <time>2020-10-11T10:08:18.146Z</time>
      </trkpt>
      <trkpt lat="46.59787" lon="5.06669">
        <ele>178.79744</ele>
        <time>2020-10-11T10:08:45.481Z</time>
      </trkpt>
      <trkpt lat="46.59705" lon="5.06624">
        <ele>179.801818</ele>
        <time>2020-10-11T10:09:09.603Z</time>
      </trkpt>
      <trkpt lat="46.59655" lon="5.0658">
        <ele>180.472558</ele>
        <time>2020-10-11T10:09:25.774Z</time>
      </trkpt>
      <trkpt lat="46.59629" lon="5.06555">
        <ele>180.794181</ele>
        <time>2020-10-11T10:09:34.153Z</time>
      </trkpt>
      <trkpt lat="46.59615" lon="5.06534">
        <ele>181.008505</ele>
        <time>2020-10-11T10:09:40.024Z</time>
      </trkpt>
      <trkpt lat="46.59603" lon="5.06512">
        <ele>181.209933</ele>
        <time>2020-10-11T10:09:45.138Z</time>
      </trkpt>
      <trkpt lat="46.59515" lon="5.06329">
        <ele>182.583019</ele>
        <time>2020-10-11T10:10:25.184Z</time>
      </trkpt>
      <trkpt lat="46.59484" lon="5.06261">
        <ele>182.90738</ele>
        <time>2020-10-11T10:10:38.375Z</time>
      </trkpt>
      <trkpt lat="46.59423" lon="5.06094">
        <ele>183.838748</ele>
        <time>2020-10-11T10:11:07.573Z</time>
      </trkpt>
      <trkpt lat="46.59396" lon="5.06005">
        <ele>184.431842</ele>
        <time>2020-10-11T10:11:24.382Z</time>
      </trkpt>
      <trkpt lat="46.59383" lon="5.05984">
        <ele>184.606998</ele>
        <time>2020-10-11T10:11:29.857Z</time>
      </trkpt>
      <trkpt lat="46.59338" lon="5.05925">
        <ele>185.586358</ele>
        <time>2020-10-11T10:11:48.040Z</time>
      </trkpt>
      <trkpt lat="46.59324" lon="5.05902">
        <ele>186.171486</ele>
        <time>2020-10-11T10:11:54.580Z</time>
      </trkpt>
      <trkpt lat="46.59303" lon="5.0586">
        <ele>187.15051</ele>
        <time>2020-10-11T10:12:06.940Z</time>
      </trkpt>
      <trkpt lat="46.59284" lon="5.05815">
        <ele>188.160644</ele>
        <time>2020-10-11T10:12:19.842Z</time>
      </trkpt>
      <trkpt lat="46.59278" lon="5.058">
        <ele>188.498441</ele>
        <time>2020-10-11T10:12:24.531Z</time>
      </trkpt>
      <trkpt lat="46.59246" lon="5.05722">
        <ele>190.338996</ele>
        <time>2020-10-11T10:12:50.868Z</time>
      </trkpt>
      <trkpt lat="46.59245" lon="5.05717">
        <ele>190.478951</ele>
        <time>2020-10-11T10:12:52.909Z</time>
      </trkpt>
      <trkpt lat="46.59236" lon="5.05689">
        <ele>191.267803</ele>
        <time>2020-10-11T10:13:02.455Z</time>
      </trkpt>
      <trkpt lat="46.59219" lon="5.05606">
        <ele>193.499303</ele>
        <time>2020-10-11T10:13:28.413Z</time>
      </trkpt>
      <trkpt lat="46.59216" lon="5.05582">
        <ele>194.129296</ele>
        <time>2020-10-11T10:13:35.492Z</time>
      </trkpt>
      <trkpt lat="46.59209" lon="5.05528">
        <ele>195.532896</ele>
        <time>2020-10-11T10:13:50.479Z</time>
      </trkpt>
      <trkpt lat="46.59203" lon="5.05493">
        <ele>196.466725</ele>
        <time>2020-10-11T10:14:00.677Z</time>
      </trkpt>
      <trkpt lat="46.59202" lon="5.05482">
        <ele>196.72064</ele>
        <time>2020-10-11T10:14:03.902Z</time>
      </trkpt>
      <trkpt lat="46.592" lon="5.05473">
        <ele>196.868095</ele>
        <time>2020-10-11T10:14:06.338Z</time>
      </trkpt>
      <trkpt lat="46.59189" lon="5.05396">
        <ele>198.080842</ele>
        <time>2020-10-11T10:14:26.466Z</time>
      </trkpt>
      <trkpt lat="46.59178" lon="5.05317">
        <ele>199.324173</ele>
        <time>2020-10-11T10:14:45.531Z</time>
      </trkpt>
      <trkpt lat="46.59172" lon="5.0527">
        <ele>200.064003</ele>
        <time>2020-10-11T10:14:55.340Z</time>
      </trkpt>
      <trkpt lat="46.59168" lon="5.0524">
        <ele>200.541362</ele>
        <time>2020-10-11T10:15:01.037Z</time>
      </trkpt>
      <trkpt lat="46.59167" lon="5.05234">
        <ele>200.635302</ele>
        <time>2020-10-11T10:15:02.120Z</time>
      </trkpt>
      <trkpt lat="46.59161" lon="5.05188">
        <ele>200.910926</ele>
        <time>2020-10-11T10:15:10.369Z</time>
      </trkpt>
      <trkpt lat="46.59159" lon="5.05166">
        <ele>201.015883</ele>
        <time>2020-10-11T10:15:14.045Z</time>
      </trkpt>
      <trkpt lat="46.59158" lon="5.0515">
        <ele>201.090949</ele>
        <time>2020-10-11T10:15:16.858Z</time>
      </trkpt>
      <trkpt lat="46.59157" lon="5.05137">
        <ele>201.151752</ele>
        <time>2020-10-11T10:15:19.135Z</time>
      </trkpt>
      <trkpt lat="46.59157" lon="5.05115">
        <ele>201.252988</ele>
        <time>2020-10-11T10:15:22.680Z</time>
      </trkpt>
      <trkpt lat="46.59157" lon="5.0511">
        <ele>201.27607</ele>
        <time>2020-10-11T10:15:23.477Z</time>
      </trkpt>
      <trkpt lat="46.59158" lon="5.05071">
        <ele>201.462549</ele>
        <time>2020-10-11T10:15:30.321Z</time>
      </trkpt>
      <trkpt lat="46.59164" lon="5.04873">
        <ele>202.033241</ele>
        <time>2020-10-11T10:16:01.358Z</time>
      </trkpt>
      <trkpt lat="46.59173" lon="5.04611">
        <ele>201.850937</ele>
        <time>2020-10-11T10:16:39.132Z</time>
      </trkpt>
      <trkpt lat="46.59187" lon="5.04237">
        <ele>200.401738</ele>
        <time>2020-10-11T10:17:24.450Z</time>
      </trkpt>
      <trkpt lat="46.59192" lon="5.04112">
        <ele>200.542136</ele>
        <time>2020-10-11T10:17:42.588Z</time>
      </trkpt>
      <trkpt lat="46.59193" lon="5.04095">
        <ele>200.625049</ele>
        <time>2020-10-11T10:17:45.200Z</time>
      </trkpt>
      <trkpt lat="46.59192" lon="5.04082">
        <ele>200.69219</ele>
        <time>2020-10-11T10:17:47.225Z</time>
      </trkpt>
      <trkpt lat="46.5919" lon="5.04067">
        <ele>200.766502</ele>
        <time>2020-10-11T10:17:49.678Z</time>
      </trkpt>
      <trkpt lat="46.59187" lon="5.04054">
        <ele>200.836006</ele>
        <time>2020-10-11T10:17:52.189Z</time>
      </trkpt>
      <trkpt lat="46.59142" lon="5.03821">
        <ele>202.689646</ele>
        <time>2020-10-11T10:18:39.054Z</time>
      </trkpt>
      <trkpt lat="46.59096" lon="5.03581">
        <ele>205.455049</ele>
        <time>2020-10-11T10:19:31.435Z</time>
      </trkpt>
      <trkpt lat="46.59068" lon="5.0344">
        <ele>207.152097</ele>
        <time>2020-10-11T10:20:02.249Z</time>
      </trkpt>
      <trkpt lat="46.59058" lon="5.0339">
        <ele>207.627022</ele>
        <time>2020-10-11T10:20:12.797Z</time>
      </trkpt>
      <trkpt lat="46.59054" lon="5.03375">
        <ele>207.751266</ele>
        <time>2020-10-11T10:20:16.223Z</time>
      </trkpt>
      <trkpt lat="46.58994" lon="5.03208">
        <ele>209.241877</ele>
        <time>2020-10-11T10:20:51.275Z</time>
      </trkpt>
      <trkpt lat="46.5896" lon="5.03044">
        <ele>209.931776</ele>
        <time>2020-10-11T10:21:19.492Z</time>
      </trkpt>
      <trkpt lat="46.58956" lon="5.03034">
        <ele>209.97278</ele>
        <time>2020-10-11T10:21:21.183Z</time>
      </trkpt>
      <trkpt lat="46.58951" lon="5.03023">
        <ele>210.018889</ele>
        <time>2020-10-11T10:21:23.340Z</time>
      </trkpt>
      <trkpt lat="46.58928" lon="5.02998">
        <ele>210.163025</ele>
        <time>2020-10-11T10:21:29.653Z</time>
      </trkpt>
      <trkpt lat="46.58904" lon="5.02992">
        <ele>210.287098</ele>
        <time>2020-10-11T10:21:35.198Z</time>
      </trkpt>
      <trkpt lat="46.58899" lon="5.02993">
        <ele>210.30894</ele>
        <time>2020-10-11T10:21:36.201Z</time>
      </trkpt>
      <trkpt lat="46.5889" lon="5.02995">
        <ele>210.363968</ele>
        <time>2020-10-11T10:21:38.130Z</time>
      </trkpt>
      <trkpt lat="46.58749" lon="5.03082">
        <ele>211.294709</ele>
        <time>2020-10-11T10:22:14.025Z</time>
      </trkpt>
      <trkpt lat="46.58703" lon="5.03104">
        <ele>211.836508</ele>
        <time>2020-10-11T10:22:27.446Z</time>
      </trkpt>
      <trkpt lat="46.58661" lon="5.03108">
        <ele>212.450994</ele>
        <time>2020-10-11T10:22:40.291Z</time>
      </trkpt>
      <trkpt lat="46.58627" lon="5.03093">
        <ele>212.965504</ele>
        <time>2020-10-11T10:22:51.085Z</time>
      </trkpt>
      <trkpt lat="46.58617" lon="5.03087">
        <ele>213.116528</ele>
        <time>2020-10-11T10:22:54.730Z</time>
      </trkpt>
      <trkpt lat="46.58591" lon="5.03072">
        <ele>213.522069</ele>
        <time>2020-10-11T10:23:02.768Z</time>
      </trkpt>
      <trkpt lat="46.58536" lon="5.03038">
        <ele>214.162937</ele>
        <time>2020-10-11T10:23:20.849Z</time>
      </trkpt>
      <trkpt lat="46.58326" lon="5.02909">
        <ele>214.456736</ele>
        <time>2020-10-11T10:24:10.978Z</time>
      </trkpt>
      <trkpt lat="46.58291" lon="5.0288">
        <ele>214.160289</ele>
        <time>2020-10-11T10:24:17.745Z</time>
      </trkpt>
      <trkpt lat="46.58278" lon="5.02863">
        <ele>214.029198</ele>
        <time>2020-10-11T10:24:20.592Z</time>
      </trkpt>
      <trkpt lat="46.58266" lon="5.02846">
        <ele>213.908357</ele>
        <time>2020-10-11T10:24:23.413Z</time>
      </trkpt>
      <trkpt lat="46.58257" lon="5.02832">
        <ele>213.810846</ele>
        <time>2020-10-11T10:24:25.577Z</time>
      </trkpt>
      <trkpt lat="46.5825" lon="5.02823">
        <ele>213.74409</ele>
        <time>2020-10-11T10:24:26.997Z</time>
      </trkpt>
      <trkpt lat="46.58232" lon="5.02787">
        <ele>213.120657</ele>
        <time>2020-10-11T10:24:32.010Z</time>
      </trkpt>
      <trkpt lat="46.58225" lon="5.0277">
        <ele>212.752204</ele>
        <time>2020-10-11T10:24:34.221Z</time>
      </trkpt>
      <trkpt lat="46.58214" lon="5.02744">
        <ele>212.201506</ele>
        <time>2020-10-11T10:24:37.457Z</time>
      </trkpt>
      <trkpt lat="46.58211" lon="5.02736">
        <ele>212.041035</ele>
        <time>2020-10-11T10:24:38.343Z</time>
      </trkpt>
      <trkpt lat="46.58162" lon="5.02593">
        <ele>209.138046</ele>
        <time>2020-10-11T10:24:54.299Z</time>
      </trkpt>
      <trkpt lat="46.58116" lon="5.02464">
        <ele>204.055452</ele>
        <time>2020-10-11T10:25:07.774Z</time>
      </trkpt>
      <trkpt lat="46.58084" lon="5.02368">
        <ele>200.165267</ele>
        <time>2020-10-11T10:25:17.199Z</time>
      </trkpt>
      <trkpt lat="46.5808" lon="5.02358">
        <ele>199.77395</ele>
        <time>2020-10-11T10:25:18.139Z</time>
      </trkpt>
      <trkpt lat="46.57983" lon="5.02063">
        <ele>185.425248</ele>
        <time>2020-10-11T10:25:46.570Z</time>
      </trkpt>
      <trkpt lat="46.57928" lon="5.01894">
        <ele>179.376737</ele>
        <time>2020-10-11T10:26:03.830Z</time>
      </trkpt>
      <trkpt lat="46.57875" lon="5.01727">
        <ele>177.136042</ele>
        <time>2020-10-11T10:26:23.872Z</time>
      </trkpt>
      <trkpt lat="46.57869" lon="5.01712">
        <ele>176.964413</ele>
        <time>2020-10-11T10:26:26.047Z</time>
      </trkpt>
      <trkpt lat="46.57853" lon="5.01661">
        <ele>176.410875</ele>
        <time>2020-10-11T10:26:33.398Z</time>
      </trkpt>
      <trkpt lat="46.57847" lon="5.01641">
        <ele>176.195514</ele>
        <time>2020-10-11T10:26:36.322Z</time>
      </trkpt>
      <trkpt lat="46.57793" lon="5.01477">
        <ele>175.76548</ele>
        <time>2020-10-11T10:27:01.224Z</time>
      </trkpt>
      <trkpt lat="46.5777" lon="5.01406">
        <ele>175.583393</ele>
        <time>2020-10-11T10:27:11.326Z</time>
      </trkpt>
      <trkpt lat="46.57726" lon="5.01178">
        <ele>174.741139</ele>
        <time>2020-10-11T10:27:41.250Z</time>
      </trkpt>
      <trkpt lat="46.57709" lon="5.01085">
        <ele>174.52462</ele>
        <time>2020-10-11T10:27:53.699Z</time>
      </trkpt>
      <trkpt lat="46.57658" lon="5.00812">
        <ele>174.016789</ele>
        <time>2020-10-11T10:28:32.386Z</time>
      </trkpt>
      <trkpt lat="46.5764" lon="5.00748">
        <ele>173.88605</ele>
        <time>2020-10-11T10:28:41.554Z</time>
      </trkpt>
      <trkpt lat="46.57623" lon="5.00703">
        <ele>173.788813</ele>
        <time>2020-10-11T10:28:48.258Z</time>
      </trkpt>
      <trkpt lat="46.57581" lon="5.00589">
        <ele>173.653642</ele>
        <time>2020-10-11T10:29:05.399Z</time>
      </trkpt>
      <trkpt lat="46.57565" lon="5.00539">
        <ele>173.628037</ele>
        <time>2020-10-11T10:29:13.036Z</time>
      </trkpt>
      <trkpt lat="46.57547" lon="5.00472">
        <ele>173.595263</ele>
        <time>2020-10-11T10:29:23.119Z</time>
      </trkpt>
      <trkpt lat="46.57533" lon="5.00412">
        <ele>173.584738</ele>
        <time>2020-10-11T10:29:32.692Z</time>
      </trkpt>
      <trkpt lat="46.5751" lon="5.00325">
        <ele>173.820518</ele>
        <time>2020-10-11T10:29:47.719Z</time>
      </trkpt>
      <trkpt lat="46.57487" lon="5.00273">
        <ele>173.974284</ele>
        <time>2020-10-11T10:29:57.645Z</time>
      </trkpt>
      <trkpt lat="46.5743" lon="5.00191">
        <ele>174.269988</ele>
        <time>2020-10-11T10:30:16.107Z</time>
      </trkpt>
      <trkpt lat="46.57358" lon="5.0009">
        <ele>174.644738</ele>
        <time>2020-10-11T10:30:37.942Z</time>
      </trkpt>
      <trkpt lat="46.57311" lon="5.00023">
        <ele>174.89186</ele>
        <time>2020-10-11T10:30:53.277Z</time>
      </trkpt>
      <trkpt lat="46.57301" lon="5.00009">
        <ele>175.141421</ele>
        <time>2020-10-11T10:30:56.417Z</time>
      </trkpt>
      <trkpt lat="46.57292" lon="4.99995">
        <ele>175.419632</ele>
        <time>2020-10-11T10:30:59.644Z</time>
      </trkpt>
      <trkpt lat="46.57288" lon="4.99987">
        <ele>175.577208</ele>
        <time>2020-10-11T10:31:01.480Z</time>
      </trkpt>
      <trkpt lat="46.57282" lon="4.99975">
        <ele>175.791463</ele>
        <time>2020-10-11T10:31:03.815Z</time>
      </trkpt>
      <trkpt lat="46.5727" lon="4.9994">
        <ele>176.369669</ele>
        <time>2020-10-11T10:31:10.835Z</time>
      </trkpt>
      <trkpt lat="46.57209" lon="4.99734">
        <ele>180.951263</ele>
        <time>2020-10-11T10:32:08.768Z</time>
      </trkpt>
      <trkpt lat="46.57191" lon="4.99675">
        <ele>183.225415</ele>
        <time>2020-10-11T10:32:30.720Z</time>
      </trkpt>
      <trkpt lat="46.57172" lon="4.99606">
        <ele>185.861611</ele>
        <time>2020-10-11T10:32:59.533Z</time>
      </trkpt>
      <trkpt lat="46.57171" lon="4.996">
        <ele>186.048504</ele>
        <time>2020-10-11T10:33:01.713Z</time>
      </trkpt>
      <trkpt lat="46.57153" lon="4.9953">
        <ele>188.590821</ele>
        <time>2020-10-11T10:33:30.537Z</time>
      </trkpt>
      <trkpt lat="46.5714" lon="4.99475">
        <ele>190.29091</ele>
        <time>2020-10-11T10:33:52.185Z</time>
      </trkpt>
      <trkpt lat="46.57135" lon="4.99444">
        <ele>191.260775</ele>
        <time>2020-10-11T10:34:04.555Z</time>
      </trkpt>
      <trkpt lat="46.57116" lon="4.99295">
        <ele>195.746171</ele>
        <time>2020-10-11T10:34:46.203Z</time>
      </trkpt>
      <trkpt lat="46.57114" lon="4.99255">
        <ele>195.829608</ele>
        <time>2020-10-11T10:34:54.109Z</time>
      </trkpt>
      <trkpt lat="46.57114" lon="4.99226">
        <ele>195.892054</ele>
        <time>2020-10-11T10:34:59.570Z</time>
      </trkpt>
      <trkpt lat="46.57116" lon="4.99162">
        <ele>196.028164</ele>
        <time>2020-10-11T10:35:08.763Z</time>
      </trkpt>
      <trkpt lat="46.57122" lon="4.9902">
        <ele>196.224776</ele>
        <time>2020-10-11T10:35:26.553Z</time>
      </trkpt>
      <trkpt lat="46.57126" lon="4.98883">
        <ele>195.504005</ele>
        <time>2020-10-11T10:35:43.057Z</time>
      </trkpt>
      <trkpt lat="46.57124" lon="4.98808">
        <ele>195.112007</ele>
        <time>2020-10-11T10:35:52.093Z</time>
      </trkpt>
      <trkpt lat="46.57121" lon="4.98743">
        <ele>194.869082</ele>
        <time>2020-10-11T10:36:00.245Z</time>
      </trkpt>
      <trkpt lat="46.57119" lon="4.98714">
        <ele>194.812479</ele>
        <time>2020-10-11T10:36:04.033Z</time>
      </trkpt>
      <trkpt lat="46.571" lon="4.9866">
        <ele>194.696596</ele>
        <time>2020-10-11T10:36:12.005Z</time>
      </trkpt>
      <trkpt lat="46.57084" lon="4.98621">
        <ele>194.608263</ele>
        <time>2020-10-11T10:36:18.106Z</time>
      </trkpt>
      <trkpt lat="46.57075" lon="4.98589">
        <ele>194.540894</ele>
        <time>2020-10-11T10:36:23.047Z</time>
      </trkpt>
      <trkpt lat="46.57074" lon="4.98548">
        <ele>194.462437</ele>
        <time>2020-10-11T10:36:28.738Z</time>
      </trkpt>
      <trkpt lat="46.57079" lon="4.98492">
        <ele>194.46193</ele>
        <time>2020-10-11T10:36:37.087Z</time>
      </trkpt>
      <trkpt lat="46.57077" lon="4.9846">
        <ele>194.498722</ele>
        <time>2020-10-11T10:36:41.717Z</time>
      </trkpt>
      <trkpt lat="46.57069" lon="4.98367">
        <ele>194.605329</ele>
        <time>2020-10-11T10:36:56.027Z</time>
      </trkpt>
      <trkpt lat="46.57045" lon="4.9804">
        <ele>195.005402</ele>
        <time>2020-10-11T10:37:45.152Z</time>
      </trkpt>
      <trkpt lat="46.57026" lon="4.97818">
        <ele>195.293061</ele>
        <time>2020-10-11T10:38:18.825Z</time>
      </trkpt>
      <trkpt lat="46.56998" lon="4.97489">
        <ele>195.67464</ele>
        <time>2020-10-11T10:39:08.310Z</time>
      </trkpt>
      <trkpt lat="46.56982" lon="4.97267">
        <ele>195.70219</ele>
        <time>2020-10-11T10:39:40.910Z</time>
      </trkpt>
      <trkpt lat="46.56981" lon="4.97262">
        <ele>195.702727</ele>
        <time>2020-10-11T10:39:41.602Z</time>
      </trkpt>
      <trkpt lat="46.56941" lon="4.96778">
        <ele>195.048214</ele>
        <time>2020-10-11T10:40:47.722Z</time>
      </trkpt>
      <trkpt lat="46.56937" lon="4.96734">
        <ele>194.986933</ele>
        <time>2020-10-11T10:40:54.144Z</time>
      </trkpt>
      <trkpt lat="46.56924" lon="4.96581">
        <ele>194.49784</ele>
        <time>2020-10-11T10:41:15.178Z</time>
      </trkpt>
      <trkpt lat="46.56921" lon="4.96539">
        <ele>194.351499</ele>
        <time>2020-10-11T10:41:20.489Z</time>
      </trkpt>
      <trkpt lat="46.56918" lon="4.96499">
        <ele>194.206838</ele>
        <time>2020-10-11T10:41:25.528Z</time>
      </trkpt>
      <trkpt lat="46.56914" lon="4.9633">
        <ele>192.9603</ele>
        <time>2020-10-11T10:41:44.833Z</time>
      </trkpt>
      <trkpt lat="46.56913" lon="4.96299">
        <ele>192.675657</ele>
        <time>2020-10-11T10:41:48.331Z</time>
      </trkpt>
      <trkpt lat="46.5691" lon="4.96206">
        <ele>191.829953</ele>
        <time>2020-10-11T10:41:58.696Z</time>
      </trkpt>
      <trkpt lat="46.56909" lon="4.96149">
        <ele>191.251729</ele>
        <time>2020-10-11T10:42:05.140Z</time>
      </trkpt>
      <trkpt lat="46.56903" lon="4.95991">
        <ele>189.558177</ele>
        <time>2020-10-11T10:42:22.947Z</time>
      </trkpt>
      <trkpt lat="46.56889" lon="4.95936">
        <ele>188.931593</ele>
        <time>2020-10-11T10:42:29.323Z</time>
      </trkpt>
      <trkpt lat="46.56834" lon="4.95804">
        <ele>186.557845</ele>
        <time>2020-10-11T10:42:45.518Z</time>
      </trkpt>
      <trkpt lat="46.56808" lon="4.95747">
        <ele>185.488478</ele>
        <time>2020-10-11T10:42:52.418Z</time>
      </trkpt>
      <trkpt lat="46.56781" lon="4.95658">
        <ele>184.083802</ele>
        <time>2020-10-11T10:43:02.240Z</time>
      </trkpt>
      <trkpt lat="46.56771" lon="4.95624">
        <ele>183.587763</ele>
        <time>2020-10-11T10:43:06.062Z</time>
      </trkpt>
      <trkpt lat="46.5675" lon="4.95546">
        <ele>182.475052</ele>
        <time>2020-10-11T10:43:14.929Z</time>
      </trkpt>
      <trkpt lat="46.56741" lon="4.95514">
        <ele>182.014987</ele>
        <time>2020-10-11T10:43:18.734Z</time>
      </trkpt>
      <trkpt lat="46.56737" lon="4.95488">
        <ele>181.663729</ele>
        <time>2020-10-11T10:43:21.701Z</time>
      </trkpt>
      <trkpt lat="46.5674" lon="4.95453">
        <ele>181.24906</ele>
        <time>2020-10-11T10:43:25.791Z</time>
      </trkpt>
      <trkpt lat="46.56753" lon="4.95379">
        <ele>180.942834</ele>
        <time>2020-10-11T10:43:34.817Z</time>
      </trkpt>
      <trkpt lat="46.56775" lon="4.95254">
        <ele>180.420779</ele>
        <time>2020-10-11T10:43:52.006Z</time>
      </trkpt>
      <trkpt lat="46.56795" lon="4.9513">
        <ele>179.979149</ele>
        <time>2020-10-11T10:44:09.103Z</time>
      </trkpt>
      <trkpt lat="46.5682" lon="4.94758">
        <ele>178.756195</ele>
        <time>2020-10-11T10:44:56.466Z</time>
      </trkpt>
      <trkpt lat="46.56823" lon="4.94713">
        <ele>178.599671</ele>
        <time>2020-10-11T10:45:02.318Z</time>
      </trkpt>
      <trkpt lat="46.56832" lon="4.94594">
        <ele>178.358537</ele>
        <time>2020-10-11T10:45:18.325Z</time>
      </trkpt>
      <trkpt lat="46.56837" lon="4.94484">
        <ele>178.182292</ele>
        <time>2020-10-11T10:45:33.322Z</time>
      </trkpt>
      <trkpt lat="46.56838" lon="4.94469">
        <ele>178.158903</ele>
        <time>2020-10-11T10:45:35.446Z</time>
      </trkpt>
      <trkpt lat="46.56839" lon="4.94455">
        <ele>178.135692</ele>
        <time>2020-10-11T10:45:37.509Z</time>
      </trkpt>
      <trkpt lat="46.56841" lon="4.94448">
        <ele>178.123681</ele>
        <time>2020-10-11T10:45:38.564Z</time>
      </trkpt>
      <trkpt lat="46.56838" lon="4.94444">
        <ele>178.114187</ele>
        <time>2020-10-11T10:45:39.380Z</time>
      </trkpt>
      <trkpt lat="46.56811" lon="4.94394">
        <ele>178.005409</ele>
        <time>2020-10-11T10:45:48.253Z</time>
      </trkpt>
      <trkpt lat="46.56715" lon="4.9411">
        <ele>177.683256</ele>
        <time>2020-10-11T10:46:30.305Z</time>
      </trkpt>
      <trkpt lat="46.56632" lon="4.93869">
        <ele>178.444781</ele>
        <time>2020-10-11T10:47:11.973Z</time>
      </trkpt>
      <trkpt lat="46.56601" lon="4.93776">
        <ele>179.082601</ele>
        <time>2020-10-11T10:47:32.238Z</time>
      </trkpt>
      <trkpt lat="46.56564" lon="4.93667">
        <ele>179.720178</ele>
        <time>2020-10-11T10:47:56.272Z</time>
      </trkpt>
      <trkpt lat="46.56551" lon="4.93626">
        <ele>179.934143</ele>
        <time>2020-10-11T10:48:04.885Z</time>
      </trkpt>
      <trkpt lat="46.56527" lon="4.93556">
        <ele>180.301288</ele>
        <time>2020-10-11T10:48:18.209Z</time>
      </trkpt>
      <trkpt lat="46.56462" lon="4.93382">
        <ele>179.95804</ele>
        <time>2020-10-11T10:48:43.529Z</time>
      </trkpt>
      <trkpt lat="46.56417" lon="4.93293">
        <ele>179.428102</ele>
        <time>2020-10-11T10:48:56.500Z</time>
      </trkpt>
      <trkpt lat="46.5638" lon="4.9323">
        <ele>179.125292</ele>
        <time>2020-10-11T10:49:06.493Z</time>
      </trkpt>
      <trkpt lat="46.56367" lon="4.93209">
        <ele>179.032365</ele>
        <time>2020-10-11T10:49:09.871Z</time>
      </trkpt>
      <trkpt lat="46.56354" lon="4.93188">
        <ele>178.936013</ele>
        <time>2020-10-11T10:49:13.426Z</time>
      </trkpt>
      <trkpt lat="46.56348" lon="4.93181">
        <ele>178.898487</ele>
        <time>2020-10-11T10:49:14.807Z</time>
      </trkpt>
      <trkpt lat="46.56339" lon="4.93169">
        <ele>178.83662</ele>
        <time>2020-10-11T10:49:17.133Z</time>
      </trkpt>
      <trkpt lat="46.56167" lon="4.92991">
        <ele>178.048599</ele>
        <time>2020-10-11T10:50:00.104Z</time>
      </trkpt>
      <trkpt lat="46.5606" lon="4.92905">
        <ele>176.946107</ele>
        <time>2020-10-11T10:50:21.061Z</time>
      </trkpt>
      <trkpt lat="46.56043" lon="4.92885">
        <ele>176.678138</ele>
        <time>2020-10-11T10:50:24.789Z</time>
      </trkpt>
      <trkpt lat="46.5604" lon="4.92882">
        <ele>176.628423</ele>
        <time>2020-10-11T10:50:25.478Z</time>
      </trkpt>
      <trkpt lat="46.56046" lon="4.92876">
        <ele>176.535387</ele>
        <time>2020-10-11T10:50:26.521Z</time>
      </trkpt>
      <trkpt lat="46.56061" lon="4.92845">
        <ele>176.216453</ele>
        <time>2020-10-11T10:50:30.924Z</time>
      </trkpt>
      <trkpt lat="46.56064" lon="4.92834">
        <ele>176.120109</ele>
        <time>2020-10-11T10:50:32.031Z</time>
      </trkpt>
      <trkpt lat="46.56074" lon="4.92799">
        <ele>175.79333</ele>
        <time>2020-10-11T10:50:36.362Z</time>
      </trkpt>
      <trkpt lat="46.56082" lon="4.92772">
        <ele>175.545897</ele>
        <time>2020-10-11T10:50:39.434Z</time>
      </trkpt>
      <trkpt lat="46.56084" lon="4.92765">
        <ele>175.486851</ele>
        <time>2020-10-11T10:50:40.240Z</time>
      </trkpt>
      <trkpt lat="46.56087" lon="4.92755">
        <ele>175.397581</ele>
        <time>2020-10-11T10:50:41.456Z</time>
      </trkpt>
      <trkpt lat="46.56235" lon="4.92245">
        <ele>171.476441</ele>
        <time>2020-10-11T10:51:46.261Z</time>
      </trkpt>
      <trkpt lat="46.56238" lon="4.92236">
        <ele>171.454891</ele>
        <time>2020-10-11T10:51:47.431Z</time>
      </trkpt>
      <trkpt lat="46.56243" lon="4.92218">
        <ele>171.409059</ele>
        <time>2020-10-11T10:51:49.952Z</time>
      </trkpt>
      <trkpt lat="46.56244" lon="4.92216">
        <ele>171.405003</ele>
        <time>2020-10-11T10:51:50.182Z</time>
      </trkpt>
      <trkpt lat="46.56246" lon="4.92207">
        <ele>171.382471</ele>
        <time>2020-10-11T10:51:51.407Z</time>
      </trkpt>
      <trkpt lat="46.56303" lon="4.92014">
        <ele>171.23392</ele>
        <time>2020-10-11T10:52:21.577Z</time>
      </trkpt>
      <trkpt lat="46.5631" lon="4.91989">
        <ele>171.338509</ele>
        <time>2020-10-11T10:52:25.835Z</time>
      </trkpt>
      <trkpt lat="46.56353" lon="4.91835">
        <ele>171.971014</ele>
        <time>2020-10-11T10:52:54.442Z</time>
      </trkpt>
      <trkpt lat="46.56367" lon="4.9179">
        <ele>172.200731</ele>
        <time>2020-10-11T10:53:03.813Z</time>
      </trkpt>
      <trkpt lat="46.56429" lon="4.91579">
        <ele>173.353846</ele>
        <time>2020-10-11T10:53:42.499Z</time>
      </trkpt>
      <trkpt lat="46.56441" lon="4.91538">
        <ele>173.727569</ele>
        <time>2020-10-11T10:53:49.579Z</time>
      </trkpt>
      <trkpt lat="46.56446" lon="4.91521">
        <ele>173.88224</ele>
        <time>2020-10-11T10:53:52.593Z</time>
      </trkpt>
      <trkpt lat="46.56457" lon="4.9148">
        <ele>174.252754</ele>
        <time>2020-10-11T10:53:59.460Z</time>
      </trkpt>
      <trkpt lat="46.5646" lon="4.91462">
        <ele>174.408905</ele>
        <time>2020-10-11T10:54:03.193Z</time>
      </trkpt>
      <trkpt lat="46.56462" lon="4.91451">
        <ele>174.506232</ele>
        <time>2020-10-11T10:54:04.746Z</time>
      </trkpt>
      <trkpt lat="46.56463" lon="4.91444">
        <ele>174.566255</ele>
        <time>2020-10-11T10:54:06.270Z</time>
      </trkpt>
      <trkpt lat="46.56463" lon="4.91435">
        <ele>174.635994</ele>
        <time>2020-10-11T10:54:07.667Z</time>
      </trkpt>
      <trkpt lat="46.56463" lon="4.91429">
        <ele>174.684661</ele>
        <time>2020-10-11T10:54:08.379Z</time>
      </trkpt>
      <trkpt lat="46.56462" lon="4.91413">
        <ele>174.81971</ele>
        <time>2020-10-11T10:54:11.964Z</time>
      </trkpt>
      <trkpt lat="46.5646" lon="4.91405">
        <ele>174.895887</ele>
        <time>2020-10-11T10:54:13.202Z</time>
      </trkpt>
      <trkpt lat="46.56402" lon="4.91218">
        <ele>178.139033</ele>
        <time>2020-10-11T10:55:02.769Z</time>
      </trkpt>
      <trkpt lat="46.56401" lon="4.91215">
        <ele>178.204753</ele>
        <time>2020-10-11T10:55:03.712Z</time>
      </trkpt>
      <trkpt lat="46.564" lon="4.91211">
        <ele>178.300282</ele>
        <time>2020-10-11T10:55:05.320Z</time>
      </trkpt>
      <trkpt lat="46.56398" lon="4.91204">
        <ele>178.449363</ele>
        <time>2020-10-11T10:55:08.281Z</time>
      </trkpt>
      <trkpt lat="46.56387" lon="4.91171">
        <ele>179.174597</ele>
        <time>2020-10-11T10:55:16.739Z</time>
      </trkpt>
      <trkpt lat="46.56383" lon="4.91157">
        <ele>179.47715</ele>
        <time>2020-10-11T10:55:22.196Z</time>
      </trkpt>
      <trkpt lat="46.56373" lon="4.91124">
        <ele>180.215173</ele>
        <time>2020-10-11T10:55:30.213Z</time>
      </trkpt>
      <trkpt lat="46.56366" lon="4.91103">
        <ele>180.667859</ele>
        <time>2020-10-11T10:55:37.411Z</time>
      </trkpt>
      <trkpt lat="46.56349" lon="4.91059">
        <ele>181.558143</ele>
        <time>2020-10-11T10:55:50.912Z</time>
      </trkpt>
      <trkpt lat="46.56339" lon="4.91022">
        <ele>182.258784</ele>
        <time>2020-10-11T10:56:01.287Z</time>
      </trkpt>
      <trkpt lat="46.56336" lon="4.91015">
        <ele>182.393644</ele>
        <time>2020-10-11T10:56:04.176Z</time>
      </trkpt>
      <trkpt lat="46.56336" lon="4.91011">
        <ele>182.45154</ele>
        <time>2020-10-11T10:56:05.097Z</time>
      </trkpt>
      <trkpt lat="46.56322" lon="4.90964">
        <ele>183.33071</ele>
        <time>2020-10-11T10:56:16.824Z</time>
      </trkpt>
      <trkpt lat="46.56316" lon="4.90919">
        <ele>184.117921</ele>
        <time>2020-10-11T10:56:26.157Z</time>
      </trkpt>
      <trkpt lat="46.56323" lon="4.90914">
        <ele>184.305631</ele>
        <time>2020-10-11T10:56:29.177Z</time>
      </trkpt>
      <trkpt lat="46.56327" lon="4.9091">
        <ele>184.436113</ele>
        <time>2020-10-11T10:56:31.393Z</time>
      </trkpt>
      <trkpt lat="46.56341" lon="4.90901">
        <ele>184.807084</ele>
        <time>2020-10-11T10:56:36.387Z</time>
      </trkpt>
      <trkpt lat="46.56356" lon="4.90892">
        <ele>185.218029</ele>
        <time>2020-10-11T10:56:42.625Z</time>
      </trkpt>
      <trkpt lat="46.56393" lon="4.90868">
        <ele>186.185714</ele>
        <time>2020-10-11T10:56:59.370Z</time>
      </trkpt>
      <trkpt lat="46.56385" lon="4.90847">
        <ele>186.591091</ele>
        <time>2020-10-11T10:57:06.000Z</time>
      </trkpt>
      <trkpt lat="46.5638" lon="4.90835">
        <ele>186.813396</ele>
        <time>2020-10-11T10:57:09.896Z</time>
      </trkpt>
      <trkpt lat="46.56378" lon="4.90828">
        <ele>186.935202</ele>
        <time>2020-10-11T10:57:12.319Z</time>
      </trkpt>
      <trkpt lat="46.56412" lon="4.90805">
        <ele>187.827563</ele>
        <time>2020-10-11T10:57:25.964Z</time>
      </trkpt>
      <trkpt lat="46.56435" lon="4.90787">
        <ele>188.460887</ele>
        <time>2020-10-11T10:57:35.270Z</time>
      </trkpt>
      <trkpt lat="46.56448" lon="4.90779">
        <ele>188.805546</ele>
        <time>2020-10-11T10:57:40.907Z</time>
      </trkpt>
      <trkpt lat="46.56459" lon="4.90774">
        <ele>189.083145</ele>
        <time>2020-10-11T10:57:44.610Z</time>
      </trkpt>
      <trkpt lat="46.56464" lon="4.9074">
        <ele>189.65172</ele>
        <time>2020-10-11T10:57:52.890Z</time>
      </trkpt>
      <trkpt lat="46.56465" lon="4.90733">
        <ele>189.752839</ele>
        <time>2020-10-11T10:57:54.399Z</time>
      </trkpt>
      <trkpt lat="46.56476" lon="4.9069">
        <ele>190.381795</ele>
        <time>2020-10-11T10:58:04.364Z</time>
      </trkpt>
      <trkpt lat="46.56477" lon="4.90687">
        <ele>190.434203</ele>
        <time>2020-10-11T10:58:05.214Z</time>
      </trkpt>
      <trkpt lat="46.56481" lon="4.90666">
        <ele>190.733464</ele>
        <time>2020-10-11T10:58:10.006Z</time>
      </trkpt>
      <trkpt lat="46.56495" lon="4.90599">
        <ele>191.701347</ele>
        <time>2020-10-11T10:58:26.112Z</time>
      </trkpt>
      <trkpt lat="46.56514" lon="4.90513">
        <ele>192.943259</ele>
        <time>2020-10-11T10:58:45.172Z</time>
      </trkpt>
      <trkpt lat="46.56514" lon="4.90511">
        <ele>192.977934</ele>
        <time>2020-10-11T10:58:45.693Z</time>
      </trkpt>
      <trkpt lat="46.56517" lon="4.90498">
        <ele>193.16894</ele>
        <time>2020-10-11T10:58:48.529Z</time>
      </trkpt>
      <trkpt lat="46.5652" lon="4.90487">
        <ele>193.312685</ele>
        <time>2020-10-11T10:58:50.846Z</time>
      </trkpt>
      <trkpt lat="46.56521" lon="4.90481">
        <ele>193.392321</ele>
        <time>2020-10-11T10:58:52.146Z</time>
      </trkpt>
      <trkpt lat="46.56529" lon="4.90445">
        <ele>193.859654</ele>
        <time>2020-10-11T10:58:59.850Z</time>
      </trkpt>
      <trkpt lat="46.56545" lon="4.90378">
        <ele>194.746792</ele>
        <time>2020-10-11T10:59:14.692Z</time>
      </trkpt>
      <trkpt lat="46.56574" lon="4.90276">
        <ele>196.107221</ele>
        <time>2020-10-11T10:59:38.206Z</time>
      </trkpt>
      <trkpt lat="46.56589" lon="4.90216">
        <ele>197.061802</ele>
        <time>2020-10-11T10:59:52.232Z</time>
      </trkpt>
      <trkpt lat="46.56601" lon="4.90165">
        <ele>197.980787</ele>
        <time>2020-10-11T11:00:04.343Z</time>
      </trkpt>
      <trkpt lat="46.56608" lon="4.9014">
        <ele>198.437518</ele>
        <time>2020-10-11T11:00:10.454Z</time>
      </trkpt>
      <trkpt lat="46.56616" lon="4.90105">
        <ele>199.059763</ele>
        <time>2020-10-11T11:00:18.979Z</time>
      </trkpt>
      <trkpt lat="46.56671" lon="4.89898">
        <ele>203.33927</ele>
        <time>2020-10-11T11:01:15.993Z</time>
      </trkpt>
      <trkpt lat="46.56704" lon="4.89768">
        <ele>206.313904</ele>
        <time>2020-10-11T11:01:53.564Z</time>
      </trkpt>
      <trkpt lat="46.56715" lon="4.89722">
        <ele>207.435808</ele>
        <time>2020-10-11T11:02:06.081Z</time>
      </trkpt>
      <trkpt lat="46.56719" lon="4.89707">
        <ele>207.822204</ele>
        <time>2020-10-11T11:02:10.262Z</time>
      </trkpt>
      <trkpt lat="46.56746" lon="4.896">
        <ele>210.479215</ele>
        <time>2020-10-11T11:02:40.000Z</time>
      </trkpt>
      <trkpt lat="46.56768" lon="4.8951">
        <ele>212.785305</ele>
        <time>2020-10-11T11:03:07.742Z</time>
      </trkpt>
      <trkpt lat="46.56781" lon="4.89467">
        <ele>214.491751</ele>
        <time>2020-10-11T11:03:21.996Z</time>
      </trkpt>
      <trkpt lat="46.56787" lon="4.89442">
        <ele>215.470246</ele>
        <time>2020-10-11T11:03:30.560Z</time>
      </trkpt>
      <trkpt lat="46.56798" lon="4.89398">
        <ele>217.190589</ele>
        <time>2020-10-11T11:03:45.883Z</time>
      </trkpt>
      <trkpt lat="46.56801" lon="4.89386">
        <ele>217.661594</ele>
        <time>2020-10-11T11:03:50.520Z</time>
      </trkpt>
      <trkpt lat="46.56832" lon="4.89264">
        <ele>222.533581</ele>
        <time>2020-10-11T11:04:39.432Z</time>
      </trkpt>
      <trkpt lat="46.5685" lon="4.8919">
        <ele>226.898061</ele>
        <time>2020-10-11T11:05:11.664Z</time>
      </trkpt>
      <trkpt lat="46.5687" lon="4.89114">
        <ele>231.440843</ele>
        <time>2020-10-11T11:05:48.504Z</time>
      </trkpt>
      <trkpt lat="46.56878" lon="4.89075">
        <ele>233.68727</ele>
        <time>2020-10-11T11:06:07.584Z</time>
      </trkpt>
      <trkpt lat="46.5688" lon="4.8907">
        <ele>233.978367</ele>
        <time>2020-10-11T11:06:09.598Z</time>
      </trkpt>
      <trkpt lat="46.56911" lon="4.88947">
        <ele>242.644422</ele>
        <time>2020-10-11T11:07:18.783Z</time>
      </trkpt>
      <trkpt lat="46.56913" lon="4.88938">
        <ele>243.278111</ele>
        <time>2020-10-11T11:07:26.453Z</time>
      </trkpt>
      <trkpt lat="46.56934" lon="4.88852">
        <ele>249.88393</ele>
        <time>2020-10-11T11:08:16.514Z</time>
      </trkpt>
      <trkpt lat="46.56941" lon="4.88825">
        <ele>251.972775</ele>
        <time>2020-10-11T11:08:35.317Z</time>
      </trkpt>
      <trkpt lat="46.56944" lon="4.88813">
        <ele>252.948727</ele>
        <time>2020-10-11T11:08:41.746Z</time>
      </trkpt>
      <trkpt lat="46.56957" lon="4.88765">
        <ele>256.376187</ele>
        <time>2020-10-11T11:09:11.478Z</time>
      </trkpt>
      <trkpt lat="46.56961" lon="4.8875">
        <ele>257.252176</ele>
        <time>2020-10-11T11:09:21.765Z</time>
      </trkpt>
      <trkpt lat="46.57038" lon="4.88549">
        <ele>269.047687</ele>
        <time>2020-10-11T11:10:59.719Z</time>
      </trkpt>
      <trkpt lat="46.57047" lon="4.88525">
        <ele>269.76232</ele>
        <time>2020-10-11T11:11:06.502Z</time>
      </trkpt>
      <trkpt lat="46.5706" lon="4.88489">
        <ele>270.663367</ele>
        <time>2020-10-11T11:11:15.889Z</time>
      </trkpt>
      <trkpt lat="46.57121" lon="4.88324">
        <ele>274.808964</ele>
        <time>2020-10-11T11:12:00.124Z</time>
      </trkpt>
      <trkpt lat="46.57148" lon="4.88243">
        <ele>276.849458</ele>
        <time>2020-10-11T11:12:25.711Z</time>
      </trkpt>
      <trkpt lat="46.57149" lon="4.88228">
        <ele>277.204956</ele>
        <time>2020-10-11T11:12:31.070Z</time>
      </trkpt>
      <trkpt lat="46.57147" lon="4.88214">
        <ele>277.516016</ele>
        <time>2020-10-11T11:12:34.847Z</time>
      </trkpt>
      <trkpt lat="46.57142" lon="4.88195">
        <ele>277.986459</ele>
        <time>2020-10-11T11:12:40.157Z</time>
      </trkpt>
      <trkpt lat="46.57113" lon="4.88094">
        <ele>280.489828</ele>
        <time>2020-10-11T11:13:10.803Z</time>
      </trkpt>
      <trkpt lat="46.57105" lon="4.88071">
        <ele>280.975614</ele>
        <time>2020-10-11T11:13:18.186Z</time>
      </trkpt>
      <trkpt lat="46.57092" lon="4.88035">
        <ele>280.840051</ele>
        <time>2020-10-11T11:13:28.836Z</time>
      </trkpt>
      <trkpt lat="46.57079" lon="4.88005">
        <ele>280.722027</ele>
        <time>2020-10-11T11:13:36.439Z</time>
      </trkpt>
      <trkpt lat="46.57014" lon="4.87872">
        <ele>280.179339</ele>
        <time>2020-10-11T11:13:55.113Z</time>
      </trkpt>
      <trkpt lat="46.57013" lon="4.87863">
        <ele>280.151337</ele>
        <time>2020-10-11T11:13:55.889Z</time>
      </trkpt>
      <trkpt lat="46.57011" lon="4.87856">
        <ele>280.124425</ele>
        <time>2020-10-11T11:13:56.645Z</time>
      </trkpt>
      <trkpt lat="46.5701" lon="4.87839">
        <ele>279.471642</ele>
        <time>2020-10-11T11:13:58.179Z</time>
      </trkpt>
      <trkpt lat="46.5701" lon="4.87823">
        <ele>278.780777</ele>
        <time>2020-10-11T11:13:59.701Z</time>
      </trkpt>
      <trkpt lat="46.57011" lon="4.87789">
        <ele>277.298649</ele>
        <time>2020-10-11T11:14:02.872Z</time>
      </trkpt>
      <trkpt lat="46.57012" lon="4.87742">
        <ele>275.272241</ele>
        <time>2020-10-11T11:14:06.948Z</time>
      </trkpt>
      <trkpt lat="46.57014" lon="4.87725">
        <ele>274.544303</ele>
        <time>2020-10-11T11:14:08.545Z</time>
      </trkpt>
      <trkpt lat="46.57017" lon="4.87708">
        <ele>273.771659</ele>
        <time>2020-10-11T11:14:10.030Z</time>
      </trkpt>
      <trkpt lat="46.5702" lon="4.877">
        <ele>273.393532</ele>
        <time>2020-10-11T11:14:10.764Z</time>
      </trkpt>
      <trkpt lat="46.57038" lon="4.87647">
        <ele>270.824261</ele>
        <time>2020-10-11T11:14:15.883Z</time>
      </trkpt>
      <trkpt lat="46.57063" lon="4.87582">
        <ele>267.171926</ele>
        <time>2020-10-11T11:14:22.337Z</time>
      </trkpt>
      <trkpt lat="46.57067" lon="4.87574">
        <ele>266.602591</ele>
        <time>2020-10-11T11:14:23.131Z</time>
      </trkpt>
      <trkpt lat="46.57071" lon="4.87567">
        <ele>266.06713</ele>
        <time>2020-10-11T11:14:23.883Z</time>
      </trkpt>
      <trkpt lat="46.57126" lon="4.87465">
        <ele>258.466829</ele>
        <time>2020-10-11T11:14:34.891Z</time>
      </trkpt>
      <trkpt lat="46.57172" lon="4.87337">
        <ele>250.059066</ele>
        <time>2020-10-11T11:14:47.031Z</time>
      </trkpt>
      <trkpt lat="46.57183" lon="4.87321">
        <ele>248.806627</ele>
        <time>2020-10-11T11:14:48.866Z</time>
      </trkpt>
      <trkpt lat="46.57226" lon="4.8727">
        <ele>244.132725</ele>
        <time>2020-10-11T11:14:55.799Z</time>
      </trkpt>
      <trkpt lat="46.57245" lon="4.87249">
        <ele>242.14307</ele>
        <time>2020-10-11T11:14:58.772Z</time>
      </trkpt>
      <trkpt lat="46.57252" lon="4.87239">
        <ele>241.36166</ele>
        <time>2020-10-11T11:14:59.944Z</time>
      </trkpt>
      <trkpt lat="46.57266" lon="4.87203">
        <ele>238.946835</ele>
        <time>2020-10-11T11:15:03.499Z</time>
      </trkpt>
      <trkpt lat="46.57269" lon="4.87192">
        <ele>238.273398</ele>
        <time>2020-10-11T11:15:04.500Z</time>
      </trkpt>
      <trkpt lat="46.5727" lon="4.87187">
        <ele>237.939986</ele>
        <time>2020-10-11T11:15:04.960Z</time>
      </trkpt>
      <trkpt lat="46.57275" lon="4.87132">
        <ele>234.7379</ele>
        <time>2020-10-11T11:15:09.605Z</time>
      </trkpt>
      <trkpt lat="46.57273" lon="4.87101">
        <ele>232.928108</ele>
        <time>2020-10-11T11:15:12.332Z</time>
      </trkpt>
      <trkpt lat="46.57266" lon="4.87074">
        <ele>231.28833</ele>
        <time>2020-10-11T11:15:14.670Z</time>
      </trkpt>
      <trkpt lat="46.57251" lon="4.87048">
        <ele>229.288774</ele>
        <time>2020-10-11T11:15:17.745Z</time>
      </trkpt>
      <trkpt lat="46.57242" lon="4.87039">
        <ele>228.425407</ele>
        <time>2020-10-11T11:15:18.947Z</time>
      </trkpt>
      <trkpt lat="46.57208" lon="4.87009">
        <ele>225.08833</ele>
        <time>2020-10-11T11:15:23.796Z</time>
      </trkpt>
      <trkpt lat="46.57199" lon="4.86996">
        <ele>223.971197</ele>
        <time>2020-10-11T11:15:25.531Z</time>
      </trkpt>
      <trkpt lat="46.57192" lon="4.86985">
        <ele>223.204445</ele>
        <time>2020-10-11T11:15:26.844Z</time>
      </trkpt>
      <trkpt lat="46.57185" lon="4.86972">
        <ele>222.68093</ele>
        <time>2020-10-11T11:15:28.189Z</time>
      </trkpt>
      <trkpt lat="46.57173" lon="4.86926">
        <ele>221.133705</ele>
        <time>2020-10-11T11:15:32.385Z</time>
      </trkpt>
      <trkpt lat="46.57172" lon="4.86897">
        <ele>220.18419</ele>
        <time>2020-10-11T11:15:35.080Z</time>
      </trkpt>
      <trkpt lat="46.57178" lon="4.86842">
        <ele>218.419743</ele>
        <time>2020-10-11T11:15:40.032Z</time>
      </trkpt>
      <trkpt lat="46.5718" lon="4.86823">
        <ele>217.807793</ele>
        <time>2020-10-11T11:15:41.729Z</time>
      </trkpt>
      <trkpt lat="46.57188" lon="4.86748">
        <ele>215.393265</ele>
        <time>2020-10-11T11:15:49.486Z</time>
      </trkpt>
      <trkpt lat="46.57195" lon="4.86676">
        <ele>216.44256</ele>
        <time>2020-10-11T11:16:00.388Z</time>
      </trkpt>
      <trkpt lat="46.57199" lon="4.86629">
        <ele>217.609984</ele>
        <time>2020-10-11T11:16:12.495Z</time>
      </trkpt>
      <trkpt lat="46.57217" lon="4.86441">
        <ele>222.798393</ele>
        <time>2020-10-11T11:17:21.332Z</time>
      </trkpt>
      <trkpt lat="46.57219" lon="4.86425">
        <ele>223.427122</ele>
        <time>2020-10-11T11:17:29.073Z</time>
      </trkpt>
      <trkpt lat="46.5726" lon="4.85984">
        <ele>240.392438</ele>
        <time>2020-10-11T11:20:10.003Z</time>
      </trkpt>
      <trkpt lat="46.57281" lon="4.85759">
        <ele>245.757701</ele>
        <time>2020-10-11T11:21:13.672Z</time>
      </trkpt>
      <trkpt lat="46.57296" lon="4.85567">
        <ele>247.597964</ele>
        <time>2020-10-11T11:21:52.687Z</time>
      </trkpt>
      <trkpt lat="46.57303" lon="4.85498">
        <ele>247.864736</ele>
        <time>2020-10-11T11:22:01.897Z</time>
      </trkpt>
      <trkpt lat="46.57313" lon="4.85416">
        <ele>248.147189</ele>
        <time>2020-10-11T11:22:11.921Z</time>
      </trkpt>
      <trkpt lat="46.57318" lon="4.85379">
        <ele>248.23815</ele>
        <time>2020-10-11T11:22:16.439Z</time>
      </trkpt>
      <trkpt lat="46.57338" lon="4.85231">
        <ele>248.601146</ele>
        <time>2020-10-11T11:22:39.396Z</time>
      </trkpt>
      <trkpt lat="46.57353" lon="4.85105">
        <ele>249.541481</ele>
        <time>2020-10-11T11:23:06.781Z</time>
      </trkpt>
      <trkpt lat="46.5737" lon="4.84983">
        <ele>250.857344</ele>
        <time>2020-10-11T11:23:35.444Z</time>
      </trkpt>
      <trkpt lat="46.57375" lon="4.8495">
        <ele>251.207153</ele>
        <time>2020-10-11T11:23:41.847Z</time>
      </trkpt>
      <trkpt lat="46.57393" lon="4.84847">
        <ele>251.23256</ele>
        <time>2020-10-11T11:23:56.625Z</time>
      </trkpt>
      <trkpt lat="46.57431" lon="4.84651">
        <ele>251.255191</ele>
        <time>2020-10-11T11:24:20.289Z</time>
      </trkpt>
      <trkpt lat="46.57432" lon="4.84642">
        <ele>251.448862</ele>
        <time>2020-10-11T11:24:21.649Z</time>
      </trkpt>
      <trkpt lat="46.57434" lon="4.84632">
        <ele>251.68641</ele>
        <time>2020-10-11T11:24:23.395Z</time>
      </trkpt>
      <trkpt lat="46.57437" lon="4.84617">
        <ele>252.054694</ele>
        <time>2020-10-11T11:24:26.224Z</time>
      </trkpt>
      <trkpt lat="46.57446" lon="4.84562">
        <ele>253.345114</ele>
        <time>2020-10-11T11:24:39.781Z</time>
      </trkpt>
      <trkpt lat="46.57451" lon="4.84537">
        <ele>253.952331</ele>
        <time>2020-10-11T11:24:48.066Z</time>
      </trkpt>
      <trkpt lat="46.57454" lon="4.84519">
        <ele>254.374942</ele>
        <time>2020-10-11T11:24:53.133Z</time>
      </trkpt>
      <trkpt lat="46.5747" lon="4.84417">
        <ele>256.82136</ele>
        <time>2020-10-11T11:25:30.970Z</time>
      </trkpt>
      <trkpt lat="46.57473" lon="4.84399">
        <ele>257.575869</ele>
        <time>2020-10-11T11:25:38.015Z</time>
      </trkpt>
      <trkpt lat="46.57474" lon="4.84388">
        <ele>258.004038</ele>
        <time>2020-10-11T11:25:43.898Z</time>
      </trkpt>
      <trkpt lat="46.57515" lon="4.84123">
        <ele>267.889879</ele>
        <time>2020-10-11T11:27:26.426Z</time>
      </trkpt>
      <trkpt lat="46.57559" lon="4.83831">
        <ele>272.387236</ele>
        <time>2020-10-11T11:28:23.270Z</time>
      </trkpt>
      <trkpt lat="46.57565" lon="4.8379">
        <ele>272.952259</ele>
        <time>2020-10-11T11:28:30.980Z</time>
      </trkpt>
      <trkpt lat="46.57563" lon="4.83755">
        <ele>273.416694</ele>
        <time>2020-10-11T11:28:37.825Z</time>
      </trkpt>
      <trkpt lat="46.57557" lon="4.83729">
        <ele>273.782765</ele>
        <time>2020-10-11T11:28:43.356Z</time>
      </trkpt>
      <trkpt lat="46.57538" lon="4.83685">
        <ele>274.479154</ele>
        <time>2020-10-11T11:28:55.667Z</time>
      </trkpt>
      <trkpt lat="46.57514" lon="4.83638">
        <ele>276.234742</ele>
        <time>2020-10-11T11:29:11.797Z</time>
      </trkpt>
      <trkpt lat="46.57471" lon="4.83547">
        <ele>281.0297</ele>
        <time>2020-10-11T11:29:50.400Z</time>
      </trkpt>
      <trkpt lat="46.57419" lon="4.8344">
        <ele>286.974501</ele>
        <time>2020-10-11T11:30:50.333Z</time>
      </trkpt>
      <trkpt lat="46.57349" lon="4.83296">
        <ele>297.960454</ele>
        <time>2020-10-11T11:32:21.844Z</time>
      </trkpt>
      <trkpt lat="46.57341" lon="4.8328">
        <ele>299.234099</ele>
        <time>2020-10-11T11:32:32.388Z</time>
      </trkpt>
      <trkpt lat="46.57311" lon="4.83219">
        <ele>303.334055</ele>
        <time>2020-10-11T11:33:10.300Z</time>
      </trkpt>
      <trkpt lat="46.57231" lon="4.83057">
        <ele>310.636443</ele>
        <time>2020-10-11T11:34:19.894Z</time>
      </trkpt>
      <trkpt lat="46.57151" lon="4.82892">
        <ele>315.580175</ele>
        <time>2020-10-11T11:35:02.894Z</time>
      </trkpt>
      <trkpt lat="46.57116" lon="4.82823">
        <ele>317.392532</ele>
        <time>2020-10-11T11:35:26.329Z</time>
      </trkpt>
      <trkpt lat="46.57112" lon="4.82812">
        <ele>317.671135</ele>
        <time>2020-10-11T11:35:29.250Z</time>
      </trkpt>
      <trkpt lat="46.57103" lon="4.82793">
        <ele>318.986351</ele>
        <time>2020-10-11T11:35:38.910Z</time>
      </trkpt>
      <trkpt lat="46.57092" lon="4.82762">
        <ele>321.152145</ele>
        <time>2020-10-11T11:35:50.606Z</time>
      </trkpt>
      <trkpt lat="46.57044" lon="4.82582">
        <ele>333.028714</ele>
        <time>2020-10-11T11:37:34.300Z</time>
      </trkpt>
      <trkpt lat="46.57011" lon="4.82463">
        <ele>342.587734</ele>
        <time>2020-10-11T11:38:49.152Z</time>
      </trkpt>
      <trkpt lat="46.57007" lon="4.82445">
        <ele>344.015919</ele>
        <time>2020-10-11T11:39:00.592Z</time>
      </trkpt>
      <trkpt lat="46.57005" lon="4.82421">
        <ele>345.833088</ele>
        <time>2020-10-11T11:39:13.312Z</time>
      </trkpt>
      <trkpt lat="46.57013" lon="4.82405">
        <ele>347.286071</ele>
        <time>2020-10-11T11:39:23.767Z</time>
      </trkpt>
      <trkpt lat="46.57021" lon="4.82399">
        <ele>348.356406</ele>
        <time>2020-10-11T11:39:34.400Z</time>
      </trkpt>
      <trkpt lat="46.57031" lon="4.82397">
        <ele>349.40107</ele>
        <time>2020-10-11T11:39:42.527Z</time>
      </trkpt>
      <trkpt lat="46.57146" lon="4.82394">
        <ele>361.083088</ele>
        <time>2020-10-11T11:41:12.406Z</time>
      </trkpt>
      <trkpt lat="46.57157" lon="4.82384">
        <ele>362.296204</ele>
        <time>2020-10-11T11:41:21.376Z</time>
      </trkpt>
      <trkpt lat="46.57162" lon="4.82371">
        <ele>363.296209</ele>
        <time>2020-10-11T11:41:30.925Z</time>
      </trkpt>
      <trkpt lat="46.57162" lon="4.82351">
        <ele>364.58697</ele>
        <time>2020-10-11T11:41:38.850Z</time>
      </trkpt>
      <trkpt lat="46.57153" lon="4.82307">
        <ele>367.667418</ele>
        <time>2020-10-11T11:42:00.147Z</time>
      </trkpt>
      <trkpt lat="46.57111" lon="4.82171">
        <ele>377.221407</ele>
        <time>2020-10-11T11:43:16.301Z</time>
      </trkpt>
      <trkpt lat="46.57101" lon="4.82132">
        <ele>379.860361</ele>
        <time>2020-10-11T11:43:36.208Z</time>
      </trkpt>
      <trkpt lat="46.571" lon="4.82102">
        <ele>381.717507</ele>
        <time>2020-10-11T11:43:50.593Z</time>
      </trkpt>
      <trkpt lat="46.57108" lon="4.82073">
        <ele>383.648965</ele>
        <time>2020-10-11T11:44:05.755Z</time>
      </trkpt>
      <trkpt lat="46.57151" lon="4.82006">
        <ele>389.277213</ele>
        <time>2020-10-11T11:44:52.132Z</time>
      </trkpt>
      <trkpt lat="46.57225" lon="4.81959">
        <ele>395.973248</ele>
        <time>2020-10-11T11:45:49.275Z</time>
      </trkpt>
      <trkpt lat="46.57246" lon="4.81934">
        <ele>398.279903</ele>
        <time>2020-10-11T11:46:08.275Z</time>
      </trkpt>
      <trkpt lat="46.57248" lon="4.81904">
        <ele>400.049506</ele>
        <time>2020-10-11T11:46:22.431Z</time>
      </trkpt>
      <trkpt lat="46.57234" lon="4.81881">
        <ele>401.857362</ele>
        <time>2020-10-11T11:46:36.636Z</time>
      </trkpt>
      <trkpt lat="46.56998" lon="4.81687">
        <ele>414.106299</ele>
        <time>2020-10-11T11:48:56.019Z</time>
      </trkpt>
      <trkpt lat="46.56817" lon="4.8154">
        <ele>411.930662</ele>
        <time>2020-10-11T11:49:28.190Z</time>
      </trkpt>
      <trkpt lat="46.56787" lon="4.81518">
        <ele>410.849111</ele>
        <time>2020-10-11T11:49:32.546Z</time>
      </trkpt>
      <trkpt lat="46.56771" lon="4.81502">
        <ele>410.206651</ele>
        <time>2020-10-11T11:49:35.142Z</time>
      </trkpt>
      <trkpt lat="46.56759" lon="4.81486">
        <ele>409.618326</ele>
        <time>2020-10-11T11:49:37.262Z</time>
      </trkpt>
      <trkpt lat="46.56742" lon="4.81457">
        <ele>408.034222</ele>
        <time>2020-10-11T11:49:40.617Z</time>
      </trkpt>
      <trkpt lat="46.56726" lon="4.81421">
        <ele>406.252556</ele>
        <time>2020-10-11T11:49:44.401Z</time>
      </trkpt>
      <trkpt lat="46.56698" lon="4.81328">
        <ele>401.956575</ele>
        <time>2020-10-11T11:49:53.418Z</time>
      </trkpt>
      <trkpt lat="46.56691" lon="4.81306">
        <ele>400.966912</ele>
        <time>2020-10-11T11:49:55.430Z</time>
      </trkpt>
      <trkpt lat="46.56672" lon="4.81278">
        <ele>399.308141</ele>
        <time>2020-10-11T11:49:58.922Z</time>
      </trkpt>
      <trkpt lat="46.5662" lon="4.81227">
        <ele>395.563821</ele>
        <time>2020-10-11T11:50:07.014Z</time>
      </trkpt>
      <trkpt lat="46.56602" lon="4.8118">
        <ele>393.34704</ele>
        <time>2020-10-11T11:50:11.798Z</time>
      </trkpt>
      <trkpt lat="46.56576" lon="4.81084">
        <ele>389.158613</ele>
        <time>2020-10-11T11:50:20.925Z</time>
      </trkpt>
      <trkpt lat="46.56557" lon="4.80998">
        <ele>385.22639</ele>
        <time>2020-10-11T11:50:28.983Z</time>
      </trkpt>
      <trkpt lat="46.56492" lon="4.80774">
        <ele>373.265391</ele>
        <time>2020-10-11T11:50:50.254Z</time>
      </trkpt>
      <trkpt lat="46.56485" lon="4.80708">
        <ele>368.716732</ele>
        <time>2020-10-11T11:50:55.852Z</time>
      </trkpt>
      <trkpt lat="46.56484" lon="4.80636">
        <ele>363.735717</ele>
        <time>2020-10-11T11:51:01.890Z</time>
      </trkpt>
      <trkpt lat="46.56476" lon="4.80586">
        <ele>360.231921</ele>
        <time>2020-10-11T11:51:06.077Z</time>
      </trkpt>
      <trkpt lat="46.56382" lon="4.80351">
        <ele>334.052553</ele>
        <time>2020-10-11T11:51:27.935Z</time>
      </trkpt>
      <trkpt lat="46.56373" lon="4.80287">
        <ele>327.645117</ele>
        <time>2020-10-11T11:51:33.112Z</time>
      </trkpt>
      <trkpt lat="46.56372" lon="4.8023">
        <ele>322.029333</ele>
        <time>2020-10-11T11:51:37.664Z</time>
      </trkpt>
      <trkpt lat="46.56379" lon="4.79977">
        <ele>300.244603</ele>
        <time>2020-10-11T11:51:58.178Z</time>
      </trkpt>
      <trkpt lat="46.5638" lon="4.79969">
        <ele>299.732764</ele>
        <time>2020-10-11T11:51:58.831Z</time>
      </trkpt>
      <trkpt lat="46.56375" lon="4.79967">
        <ele>299.242344</ele>
        <time>2020-10-11T11:51:59.691Z</time>
      </trkpt>
      <trkpt lat="46.56336" lon="4.79941">
        <ele>295.147598</ele>
        <time>2020-10-11T11:52:07.169Z</time>
      </trkpt>
      <trkpt lat="46.56248" lon="4.79956">
        <ele>288.172528</ele>
        <time>2020-10-11T11:52:23.413Z</time>
      </trkpt>
      <trkpt lat="46.56221" lon="4.7995">
        <ele>286.967287</ele>
        <time>2020-10-11T11:52:28.844Z</time>
      </trkpt>
      <trkpt lat="46.56205" lon="4.79939">
        <ele>286.189487</ele>
        <time>2020-10-11T11:52:32.233Z</time>
      </trkpt>
      <trkpt lat="46.56199" lon="4.79944">
        <ele>285.887833</ele>
        <time>2020-10-11T11:52:33.167Z</time>
      </trkpt>
      <trkpt lat="46.56133" lon="4.79951">
        <ele>282.946654</ele>
        <time>2020-10-11T11:52:42.333Z</time>
      </trkpt>
      <trkpt lat="46.56113" lon="4.7995">
        <ele>282.06737</ele>
        <time>2020-10-11T11:52:45.133Z</time>
      </trkpt>
      <trkpt lat="46.56108" lon="4.79944">
        <ele>281.78244</ele>
        <time>2020-10-11T11:52:45.956Z</time>
      </trkpt>
      <trkpt lat="46.561" lon="4.7993">
        <ele>281.354102</ele>
        <time>2020-10-11T11:52:47.729Z</time>
      </trkpt>
      <trkpt lat="46.56096" lon="4.79908">
        <ele>281.011716</ele>
        <time>2020-10-11T11:52:49.816Z</time>
      </trkpt>
      <trkpt lat="46.56096" lon="4.79896">
        <ele>280.814574</ele>
        <time>2020-10-11T11:52:50.954Z</time>
      </trkpt>
      <trkpt lat="46.56097" lon="4.79882">
        <ele>280.59892</ele>
        <time>2020-10-11T11:52:52.307Z</time>
      </trkpt>
      <trkpt lat="46.56098" lon="4.79873">
        <ele>280.458794</ele>
        <time>2020-10-11T11:52:53.159Z</time>
      </trkpt>
      <trkpt lat="46.56097" lon="4.79868">
        <ele>280.382443</ele>
        <time>2020-10-11T11:52:53.614Z</time>
      </trkpt>
      <trkpt lat="46.56096" lon="4.79866">
        <ele>280.345625</ele>
        <time>2020-10-11T11:52:53.818Z</time>
      </trkpt>
      <trkpt lat="46.56081" lon="4.79846">
        <ele>279.879854</ele>
        <time>2020-10-11T11:52:56.739Z</time>
      </trkpt>
      <trkpt lat="46.56053" lon="4.79825">
        <ele>279.164184</ele>
        <time>2020-10-11T11:53:01.455Z</time>
      </trkpt>
      <trkpt lat="46.56032" lon="4.79804">
        <ele>278.607268</ele>
        <time>2020-10-11T11:53:05.434Z</time>
      </trkpt>
      <trkpt lat="46.56025" lon="4.79792">
        <ele>278.353296</ele>
        <time>2020-10-11T11:53:07.062Z</time>
      </trkpt>
      <trkpt lat="46.56021" lon="4.79784">
        <ele>278.194311</ele>
        <time>2020-10-11T11:53:08.186Z</time>
      </trkpt>
      <trkpt lat="46.56017" lon="4.79776">
        <ele>278.047726</ele>
        <time>2020-10-11T11:53:09.369Z</time>
      </trkpt>
      <trkpt lat="46.56008" lon="4.79766">
        <ele>277.790297</ele>
        <time>2020-10-11T11:53:11.869Z</time>
      </trkpt>
      <trkpt lat="46.55998" lon="4.79748">
        <ele>277.434908</ele>
        <time>2020-10-11T11:53:14.579Z</time>
      </trkpt>
      <trkpt lat="46.55984" lon="4.79703">
        <ele>278.302675</ele>
        <time>2020-10-11T11:53:22.802Z</time>
      </trkpt>
      <trkpt lat="46.55983" lon="4.79693">
        <ele>278.483606</ele>
        <time>2020-10-11T11:53:24.075Z</time>
      </trkpt>
      <trkpt lat="46.55969" lon="4.79688">
        <ele>278.856362</ele>
        <time>2020-10-11T11:53:29.421Z</time>
      </trkpt>
      <trkpt lat="46.55864" lon="4.79668">
        <ele>281.554356</ele>
        <time>2020-10-11T11:54:10.618Z</time>
      </trkpt>
      <trkpt lat="46.55789" lon="4.79654">
        <ele>284.153626</ele>
        <time>2020-10-11T11:54:46.640Z</time>
      </trkpt>
      <trkpt lat="46.55766" lon="4.7965">
        <ele>285.055119</ele>
        <time>2020-10-11T11:54:57.349Z</time>
      </trkpt>
      <trkpt lat="46.5574" lon="4.79645">
        <ele>286.009428</ele>
        <time>2020-10-11T11:55:08.595Z</time>
      </trkpt>
      <trkpt lat="46.55712" lon="4.7964">
        <ele>287.070365</ele>
        <time>2020-10-11T11:55:20.880Z</time>
      </trkpt>
      <trkpt lat="46.55596" lon="4.79618">
        <ele>289.588332</ele>
        <time>2020-10-11T11:56:01.074Z</time>
      </trkpt>
      <trkpt lat="46.55567" lon="4.79603">
        <ele>289.938688</ele>
        <time>2020-10-11T11:56:08.737Z</time>
      </trkpt>
      <trkpt lat="46.555" lon="4.79545">
        <ele>290.821449</ele>
        <time>2020-10-11T11:56:25.474Z</time>
      </trkpt>
      <trkpt lat="46.55476" lon="4.79525">
        <ele>290.720669</ele>
        <time>2020-10-11T11:56:30.639Z</time>
      </trkpt>
      <trkpt lat="46.55455" lon="4.79514">
        <ele>290.641435</ele>
        <time>2020-10-11T11:56:34.770Z</time>
      </trkpt>
      <trkpt lat="46.55415" lon="4.79512">
        <ele>290.494657</ele>
        <time>2020-10-11T11:56:42.072Z</time>
      </trkpt>
      <trkpt lat="46.55364" lon="4.79525">
        <ele>290.309308</ele>
        <time>2020-10-11T11:56:51.448Z</time>
      </trkpt>
      <trkpt lat="46.55325" lon="4.79536">
        <ele>290.216835</ele>
        <time>2020-10-11T11:56:58.701Z</time>
      </trkpt>
      <trkpt lat="46.55295" lon="4.79545">
        <ele>290.691199</ele>
        <time>2020-10-11T11:57:05.487Z</time>
      </trkpt>
      <trkpt lat="46.55181" lon="4.79604">
        <ele>292.549424</ele>
        <time>2020-10-11T11:57:39.408Z</time>
      </trkpt>
      <trkpt lat="46.55151" lon="4.79627">
        <ele>293.528176</ele>
        <time>2020-10-11T11:57:52.038Z</time>
      </trkpt>
      <trkpt lat="46.5511" lon="4.79669">
        <ele>297.156268</ele>
        <time>2020-10-11T11:58:17.134Z</time>
      </trkpt>
      <trkpt lat="46.55021" lon="4.79816">
        <ele>307.230383</ele>
        <time>2020-10-11T11:59:48.491Z</time>
      </trkpt>
      <trkpt lat="46.55012" lon="4.79826">
        <ele>308.38676</ele>
        <time>2020-10-11T11:59:59.985Z</time>
      </trkpt>
      <trkpt lat="46.55004" lon="4.7983">
        <ele>309.283307</ele>
        <time>2020-10-11T12:00:06.210Z</time>
      </trkpt>
      <trkpt lat="46.54992" lon="4.79827">
        <ele>310.564547</ele>
        <time>2020-10-11T12:00:14.347Z</time>
      </trkpt>
      <trkpt lat="46.54986" lon="4.79822">
        <ele>311.319807</ele>
        <time>2020-10-11T12:00:19.805Z</time>
      </trkpt>
      <trkpt lat="46.54978" lon="4.79831">
        <ele>312.437364</ele>
        <time>2020-10-11T12:00:34.236Z</time>
      </trkpt>
      <trkpt lat="46.54969" lon="4.79838">
        <ele>313.497915</ele>
        <time>2020-10-11T12:00:44.418Z</time>
      </trkpt>
      <trkpt lat="46.54946" lon="4.79848">
        <ele>316.0126</ele>
        <time>2020-10-11T12:01:12.543Z</time>
      </trkpt>
      <trkpt lat="46.54931" lon="4.79864">
        <ele>317.968332</ele>
        <time>2020-10-11T12:01:32.188Z</time>
      </trkpt>
      <trkpt lat="46.54907" lon="4.79894">
        <ele>321.378717</ele>
        <time>2020-10-11T12:02:09.691Z</time>
      </trkpt>
      <trkpt lat="46.54844" lon="4.79963">
        <ele>329.796839</ele>
        <time>2020-10-11T12:03:38.652Z</time>
      </trkpt>
      <trkpt lat="46.54865" lon="4.79925">
        <ele>333.370425</ele>
        <time>2020-10-11T12:04:14.539Z</time>
      </trkpt>
      <trkpt lat="46.54867" lon="4.79897">
        <ele>335.441606</ele>
        <time>2020-10-11T12:04:35.013Z</time>
      </trkpt>
      <trkpt lat="46.54834" lon="4.79908">
        <ele>339.077319</ele>
        <time>2020-10-11T12:05:15.276Z</time>
      </trkpt>
      <trkpt lat="46.54815" lon="4.799">
        <ele>341.155329</ele>
        <time>2020-10-11T12:05:38.861Z</time>
      </trkpt>
      <trkpt lat="46.54807" lon="4.79885">
        <ele>342.580124</ele>
        <time>2020-10-11T12:05:53.066Z</time>
      </trkpt>
      <trkpt lat="46.54802" lon="4.79822">
        <ele>346.509977</ele>
        <time>2020-10-11T12:06:42.014Z</time>
      </trkpt>
      <trkpt lat="46.5481" lon="4.79808">
        <ele>347.478362</ele>
        <time>2020-10-11T12:06:55.465Z</time>
      </trkpt>
      <trkpt lat="46.54806" lon="4.79785">
        <ele>348.816529</ele>
        <time>2020-10-11T12:07:12.287Z</time>
      </trkpt>
      <trkpt lat="46.548" lon="4.79749">
        <ele>350.84376</ele>
        <time>2020-10-11T12:07:38.131Z</time>
      </trkpt>
      <trkpt lat="46.54797" lon="4.79746">
        <ele>351.176804</ele>
        <time>2020-10-11T12:07:41.173Z</time>
      </trkpt>
      <trkpt lat="46.54742" lon="4.79735">
        <ele>355.629895</ele>
        <time>2020-10-11T12:08:15.350Z</time>
      </trkpt>
      <trkpt lat="46.54725" lon="4.79721">
        <ele>357.23328</ele>
        <time>2020-10-11T12:08:27.417Z</time>
      </trkpt>
      <trkpt lat="46.5473" lon="4.79715">
        <ele>357.781638</ele>
        <time>2020-10-11T12:08:32.168Z</time>
      </trkpt>
      <trkpt lat="46.54752" lon="4.79704">
        <ele>358.433468</ele>
        <time>2020-10-11T12:08:48.287Z</time>
      </trkpt>
      <trkpt lat="46.54754" lon="4.79701">
        <ele>358.373972</ele>
        <time>2020-10-11T12:08:50.166Z</time>
      </trkpt>
      <trkpt lat="46.54758" lon="4.79678">
        <ele>358.00448</ele>
        <time>2020-10-11T12:09:01.741Z</time>
      </trkpt>
      <trkpt lat="46.54746" lon="4.79674">
        <ele>357.724745</ele>
        <time>2020-10-11T12:09:10.469Z</time>
      </trkpt>
      <trkpt lat="46.54732" lon="4.79669">
        <ele>357.417182</ele>
        <time>2020-10-11T12:09:20.098Z</time>
      </trkpt>
      <trkpt lat="46.54746" lon="4.79674">
        <ele>357.109619</ele>
        <time>2020-10-11T12:09:29.728Z</time>
      </trkpt>
      <trkpt lat="46.54758" lon="4.79678">
        <ele>356.829884</ele>
        <time>2020-10-11T12:09:38.455Z</time>
      </trkpt>
      <trkpt lat="46.54754" lon="4.79701">
        <ele>356.460392</ele>
        <time>2020-10-11T12:09:50.031Z</time>
      </trkpt>
      <trkpt lat="46.54752" lon="4.79704">
        <ele>356.400896</ele>
        <time>2020-10-11T12:09:51.909Z</time>
      </trkpt>
      <trkpt lat="46.5473" lon="4.79715">
        <ele>355.885257</ele>
        <time>2020-10-11T12:10:08.029Z</time>
      </trkpt>
      <trkpt lat="46.54725" lon="4.79721">
        <ele>355.734053</ele>
        <time>2020-10-11T12:10:12.779Z</time>
      </trkpt>
      <trkpt lat="46.54742" lon="4.79735">
        <ele>355.291936</ele>
        <time>2020-10-11T12:10:15.274Z</time>
      </trkpt>
      <trkpt lat="46.54797" lon="4.79746">
        <ele>351.952892</ele>
        <time>2020-10-11T12:10:22.181Z</time>
      </trkpt>
      <trkpt lat="46.548" lon="4.79749">
        <ele>351.553273</ele>
        <time>2020-10-11T12:10:22.681Z</time>
      </trkpt>
      <trkpt lat="46.54806" lon="4.79785">
        <ele>349.120802</ele>
        <time>2020-10-11T12:10:31.473Z</time>
      </trkpt>
      <trkpt lat="46.5481" lon="4.79808">
        <ele>347.515137</ele>
        <time>2020-10-11T12:10:37.287Z</time>
      </trkpt>
      <trkpt lat="46.54802" lon="4.79822">
        <ele>346.353173</ele>
        <time>2020-10-11T12:10:41.376Z</time>
      </trkpt>
      <trkpt lat="46.54807" lon="4.79885">
        <ele>342.112694</ele>
        <time>2020-10-11T12:10:56.317Z</time>
      </trkpt>
      <trkpt lat="46.54815" lon="4.799">
        <ele>340.826033</ele>
        <time>2020-10-11T12:11:00.887Z</time>
      </trkpt>
      <trkpt lat="46.54834" lon="4.79908">
        <ele>338.949484</ele>
        <time>2020-10-11T12:11:07.342Z</time>
      </trkpt>
      <trkpt lat="46.54867" lon="4.79897">
        <ele>335.478143</ele>
        <time>2020-10-11T12:11:18.649Z</time>
      </trkpt>
      <trkpt lat="46.54865" lon="4.79925">
        <ele>333.389113</ele>
        <time>2020-10-11T12:11:25.343Z</time>
      </trkpt>
      <trkpt lat="46.54844" lon="4.79963">
        <ele>329.784733</ele>
        <time>2020-10-11T12:11:36.800Z</time>
      </trkpt>
      <trkpt lat="46.54907" lon="4.79894">
        <ele>321.262238</ele>
        <time>2020-10-11T12:12:03.522Z</time>
      </trkpt>
      <trkpt lat="46.54931" lon="4.79864">
        <ele>317.793899</ele>
        <time>2020-10-11T12:12:14.301Z</time>
      </trkpt>
      <trkpt lat="46.54946" lon="4.79848">
        <ele>315.963561</ele>
        <time>2020-10-11T12:12:20.650Z</time>
      </trkpt>
      <trkpt lat="46.54969" lon="4.79838">
        <ele>313.610109</ele>
        <time>2020-10-11T12:12:28.548Z</time>
      </trkpt>
      <trkpt lat="46.54978" lon="4.79831">
        <ele>312.617557</ele>
        <time>2020-10-11T12:12:32.078Z</time>
      </trkpt>
      <trkpt lat="46.54986" lon="4.79822">
        <ele>311.571654</ele>
        <time>2020-10-11T12:12:35.466Z</time>
      </trkpt>
      <trkpt lat="46.54992" lon="4.79827">
        <ele>310.864818</ele>
        <time>2020-10-11T12:12:36.318Z</time>
      </trkpt>
      <trkpt lat="46.55004" lon="4.7983">
        <ele>309.665727</ele>
        <time>2020-10-11T12:12:37.803Z</time>
      </trkpt>
      <trkpt lat="46.55012" lon="4.79826">
        <ele>308.826663</ele>
        <time>2020-10-11T12:12:38.830Z</time>
      </trkpt>
      <trkpt lat="46.55021" lon="4.79816">
        <ele>307.744429</ele>
        <time>2020-10-11T12:12:40.086Z</time>
      </trkpt>
      <trkpt lat="46.5511" lon="4.79669">
        <ele>297.201254</ele>
        <time>2020-10-11T12:12:56.646Z</time>
      </trkpt>
      <trkpt lat="46.55151" lon="4.79627">
        <ele>294.719993</ele>
        <time>2020-10-11T12:13:03.338Z</time>
      </trkpt>
      <trkpt lat="46.55181" lon="4.79604">
        <ele>293.078895</ele>
        <time>2020-10-11T12:13:08.173Z</time>
      </trkpt>
      <trkpt lat="46.55295" lon="4.79545">
        <ele>290.76393</ele>
        <time>2020-10-11T12:13:28.095Z</time>
      </trkpt>
      <trkpt lat="46.55325" lon="4.79536">
        <ele>290.617067</ele>
        <time>2020-10-11T12:13:34.164Z</time>
      </trkpt>
      <trkpt lat="46.55364" lon="4.79525">
        <ele>290.427734</ele>
        <time>2020-10-11T12:13:43.781Z</time>
      </trkpt>
      <trkpt lat="46.55415" lon="4.79512">
        <ele>290.345651</ele>
        <time>2020-10-11T12:13:56.157Z</time>
      </trkpt>
      <trkpt lat="46.55455" lon="4.79514">
        <ele>290.431551</ele>
        <time>2020-10-11T12:14:06.170Z</time>
      </trkpt>
      <trkpt lat="46.55476" lon="4.79525">
        <ele>290.477923</ele>
        <time>2020-10-11T12:14:11.308Z</time>
      </trkpt>
      <trkpt lat="46.555" lon="4.79545">
        <ele>290.536903</ele>
        <time>2020-10-11T12:14:17.940Z</time>
      </trkpt>
      <trkpt lat="46.55567" lon="4.79603">
        <ele>290.397807</ele>
        <time>2020-10-11T12:14:33.651Z</time>
      </trkpt>
      <trkpt lat="46.55596" lon="4.79618">
        <ele>289.722594</ele>
        <time>2020-10-11T12:14:39.084Z</time>
      </trkpt>
      <trkpt lat="46.55712" lon="4.7964">
        <ele>287.14745</ele>
        <time>2020-10-11T12:14:56.474Z</time>
      </trkpt>
      <trkpt lat="46.5574" lon="4.79645">
        <ele>286.314706</ele>
        <time>2020-10-11T12:15:00.323Z</time>
      </trkpt>
      <trkpt lat="46.55766" lon="4.7965">
        <ele>285.131714</ele>
        <time>2020-10-11T12:15:03.780Z</time>
      </trkpt>
      <trkpt lat="46.55789" lon="4.79654">
        <ele>284.014193</ele>
        <time>2020-10-11T12:15:07.014Z</time>
      </trkpt>
      <trkpt lat="46.55864" lon="4.79668">
        <ele>280.521861</ele>
        <time>2020-10-11T12:15:16.860Z</time>
      </trkpt>
      <trkpt lat="46.55969" lon="4.79688">
        <ele>276.155378</ele>
        <time>2020-10-11T12:15:30.854Z</time>
      </trkpt>
      <trkpt lat="46.55983" lon="4.79693">
        <ele>275.614369</ele>
        <time>2020-10-11T12:15:32.798Z</time>
      </trkpt>
      <trkpt lat="46.56" lon="4.797">
        <ele>274.976309</ele>
        <time>2020-10-11T12:15:35.301Z</time>
      </trkpt>
      <trkpt lat="46.5602" lon="4.79708">
        <ele>274.203573</ele>
        <time>2020-10-11T12:15:38.153Z</time>
      </trkpt>
      <trkpt lat="46.56044" lon="4.79719">
        <ele>273.277402</ele>
        <time>2020-10-11T12:15:41.845Z</time>
      </trkpt>
      <trkpt lat="46.56111" lon="4.7975">
        <ele>271.125979</ele>
        <time>2020-10-11T12:15:52.245Z</time>
      </trkpt>
      <trkpt lat="46.56126" lon="4.79754">
        <ele>270.807434</ele>
        <time>2020-10-11T12:15:54.454Z</time>
      </trkpt>
      <trkpt lat="46.56135" lon="4.79753">
        <ele>270.61241</ele>
        <time>2020-10-11T12:15:56.058Z</time>
      </trkpt>
      <trkpt lat="46.56144" lon="4.7975">
        <ele>270.422448</ele>
        <time>2020-10-11T12:15:57.737Z</time>
      </trkpt>
      <trkpt lat="46.56151" lon="4.79743">
        <ele>270.241274</ele>
        <time>2020-10-11T12:15:59.070Z</time>
      </trkpt>
      <trkpt lat="46.56179" lon="4.79683">
        <ele>269.203439</ele>
        <time>2020-10-11T12:16:07.484Z</time>
      </trkpt>
      <trkpt lat="46.56253" lon="4.79599">
        <ele>266.615602</ele>
        <time>2020-10-11T12:16:21.367Z</time>
      </trkpt>
      <trkpt lat="46.56261" lon="4.79591">
        <ele>266.232157</ele>
        <time>2020-10-11T12:16:22.750Z</time>
      </trkpt>
      <trkpt lat="46.56267" lon="4.79586">
        <ele>265.961115</ele>
        <time>2020-10-11T12:16:23.727Z</time>
      </trkpt>
      <trkpt lat="46.56271" lon="4.79582">
        <ele>265.766849</ele>
        <time>2020-10-11T12:16:24.424Z</time>
      </trkpt>
      <trkpt lat="46.56275" lon="4.79579">
        <ele>265.612226</ele>
        <time>2020-10-11T12:16:24.995Z</time>
      </trkpt>
      <trkpt lat="46.56276" lon="4.79567">
        <ele>265.286982</ele>
        <time>2020-10-11T12:16:26.125Z</time>
      </trkpt>
      <trkpt lat="46.56282" lon="4.79521">
        <ele>264.008943</ele>
        <time>2020-10-11T12:16:30.569Z</time>
      </trkpt>
      <trkpt lat="46.56292" lon="4.79399">
        <ele>260.588475</ele>
        <time>2020-10-11T12:16:41.857Z</time>
      </trkpt>
      <trkpt lat="46.56294" lon="4.79273">
        <ele>255.875111</ele>
        <time>2020-10-11T12:16:53.141Z</time>
      </trkpt>
      <trkpt lat="46.56319" lon="4.7907">
        <ele>248.636356</ele>
        <time>2020-10-11T12:17:11.619Z</time>
      </trkpt>
      <trkpt lat="46.56323" lon="4.78929">
        <ele>244.145249</ele>
        <time>2020-10-11T12:17:24.762Z</time>
      </trkpt>
      <trkpt lat="46.56331" lon="4.78887">
        <ele>242.731835</ele>
        <time>2020-10-11T12:17:28.937Z</time>
      </trkpt>
      <trkpt lat="46.56338" lon="4.78871">
        <ele>242.128494</ele>
        <time>2020-10-11T12:17:30.586Z</time>
      </trkpt>
      <trkpt lat="46.56346" lon="4.78862">
        <ele>241.621821</ele>
        <time>2020-10-11T12:17:32.223Z</time>
      </trkpt>
      <trkpt lat="46.5636" lon="4.78851">
        <ele>240.84684</ele>
        <time>2020-10-11T12:17:34.368Z</time>
      </trkpt>
      <trkpt lat="46.56383" lon="4.78846">
        <ele>239.76023</ele>
        <time>2020-10-11T12:17:37.567Z</time>
      </trkpt>
      <trkpt lat="46.56398" lon="4.78841">
        <ele>239.016916</ele>
        <time>2020-10-11T12:17:39.585Z</time>
      </trkpt>
      <trkpt lat="46.56407" lon="4.78843">
        <ele>238.610565</ele>
        <time>2020-10-11T12:17:40.704Z</time>
      </trkpt>
      <trkpt lat="46.56418" lon="4.78845">
        <ele>238.063479</ele>
        <time>2020-10-11T12:17:42.386Z</time>
      </trkpt>
      <trkpt lat="46.56418" lon="4.78834">
        <ele>237.692087</ele>
        <time>2020-10-11T12:17:43.368Z</time>
      </trkpt>
      <trkpt lat="46.56424" lon="4.78683">
        <ele>232.474983</ele>
        <time>2020-10-11T12:17:56.984Z</time>
      </trkpt>
      <trkpt lat="46.5643" lon="4.78516">
        <ele>225.932661</ele>
        <time>2020-10-11T12:18:11.786Z</time>
      </trkpt>
      <trkpt lat="46.56434" lon="4.78396">
        <ele>222.583874</ele>
        <time>2020-10-11T12:18:22.660Z</time>
      </trkpt>
      <trkpt lat="46.56459" lon="4.77711">
        <ele>209.827622</ele>
        <time>2020-10-11T12:19:32.882Z</time>
      </trkpt>
      <trkpt lat="46.56468" lon="4.77495">
        <ele>207.019251</ele>
        <time>2020-10-11T12:19:55.801Z</time>
      </trkpt>
      <trkpt lat="46.56472" lon="4.77382">
        <ele>206.379759</ele>
        <time>2020-10-11T12:20:08.480Z</time>
      </trkpt>
      <trkpt lat="46.56472" lon="4.77367">
        <ele>206.491595</ele>
        <time>2020-10-11T12:20:10.320Z</time>
      </trkpt>
      <trkpt lat="46.56476" lon="4.77256">
        <ele>207.315152</ele>
        <time>2020-10-11T12:20:27.147Z</time>
      </trkpt>
      <trkpt lat="46.56477" lon="4.77236">
        <ele>207.464822</ele>
        <time>2020-10-11T12:20:31.166Z</time>
      </trkpt>
      <trkpt lat="46.56482" lon="4.7709">
        <ele>211.077543</ele>
        <time>2020-10-11T12:21:12.781Z</time>
      </trkpt>
      <trkpt lat="46.56497" lon="4.76698">
        <ele>229.380501</ele>
        <time>2020-10-11T12:24:03.521Z</time>
      </trkpt>
      <trkpt lat="46.56497" lon="4.76683">
        <ele>230.122</ele>
        <time>2020-10-11T12:24:11.490Z</time>
      </trkpt>
      <trkpt lat="46.56513" lon="4.76262">
        <ele>242.660153</ele>
        <time>2020-10-11T12:26:38.920Z</time>
      </trkpt>
      <trkpt lat="46.56514" lon="4.76233">
        <ele>242.755686</ele>
        <time>2020-10-11T12:26:42.634Z</time>
      </trkpt>
      <trkpt lat="46.56519" lon="4.76083">
        <ele>241.748046</ele>
        <time>2020-10-11T12:26:57.176Z</time>
      </trkpt>
      <trkpt lat="46.56525" lon="4.75934">
        <ele>235.264367</ele>
        <time>2020-10-11T12:27:10.048Z</time>
      </trkpt>
      <trkpt lat="46.56537" lon="4.75628">
        <ele>222.405649</ele>
        <time>2020-10-11T12:27:36.786Z</time>
      </trkpt>
      <trkpt lat="46.56542" lon="4.75539">
        <ele>219.755843</ele>
        <time>2020-10-11T12:27:45.190Z</time>
      </trkpt>
      <trkpt lat="46.56552" lon="4.75323">
        <ele>215.131554</ele>
        <time>2020-10-11T12:28:07.151Z</time>
      </trkpt>
      <trkpt lat="46.56559" lon="4.75288">
        <ele>214.465026</ele>
        <time>2020-10-11T12:28:10.931Z</time>
      </trkpt>
      <trkpt lat="46.56574" lon="4.75241">
        <ele>213.533203</ele>
        <time>2020-10-11T12:28:16.140Z</time>
      </trkpt>
      <trkpt lat="46.56692" lon="4.7494">
        <ele>208.562639</ele>
        <time>2020-10-11T12:28:51.076Z</time>
      </trkpt>
      <trkpt lat="46.56694" lon="4.74933">
        <ele>208.477605</ele>
        <time>2020-10-11T12:28:52.129Z</time>
      </trkpt>
      <trkpt lat="46.56732" lon="4.74838">
        <ele>208.181668</ele>
        <time>2020-10-11T12:29:09.667Z</time>
      </trkpt>
      <trkpt lat="46.56735" lon="4.74829">
        <ele>208.321655</ele>
        <time>2020-10-11T12:29:11.647Z</time>
      </trkpt>
      <trkpt lat="46.56769" lon="4.74743">
        <ele>209.666915</ele>
        <time>2020-10-11T12:29:33.771Z</time>
      </trkpt>
      <trkpt lat="46.56933" lon="4.74319">
        <ele>217.741045</ele>
        <time>2020-10-11T12:31:35.859Z</time>
      </trkpt>
      <trkpt lat="46.57183" lon="4.73676">
        <ele>226.857193</ele>
        <time>2020-10-11T12:34:10.182Z</time>
      </trkpt>
      <trkpt lat="46.5728" lon="4.7343">
        <ele>230.235633</ele>
        <time>2020-10-11T12:35:01.837Z</time>
      </trkpt>
      <trkpt lat="46.57342" lon="4.73269">
        <ele>233.997029</ele>
        <time>2020-10-11T12:35:53.087Z</time>
      </trkpt>
      <trkpt lat="46.57356" lon="4.73234">
        <ele>235.517313</ele>
        <time>2020-10-11T12:36:06.940Z</time>
      </trkpt>
      <trkpt lat="46.57435" lon="4.73032">
        <ele>244.056712</ele>
        <time>2020-10-11T12:37:33.129Z</time>
      </trkpt>
      <trkpt lat="46.57518" lon="4.72824">
        <ele>251.918669</ele>
        <time>2020-10-11T12:38:52.559Z</time>
      </trkpt>
      <trkpt lat="46.57567" lon="4.72701">
        <ele>254.233199</ele>
        <time>2020-10-11T12:39:27.900Z</time>
      </trkpt>
      <trkpt lat="46.57655" lon="4.72475">
        <ele>256.810286</ele>
        <time>2020-10-11T12:40:17.685Z</time>
      </trkpt>
      <trkpt lat="46.57725" lon="4.72302">
        <ele>255.98688</ele>
        <time>2020-10-11T12:40:47.823Z</time>
      </trkpt>
      <trkpt lat="46.57814" lon="4.7208">
        <ele>249.381838</ele>
        <time>2020-10-11T12:41:12.241Z</time>
      </trkpt>
      <trkpt lat="46.57828" lon="4.72045">
        <ele>247.530359</ele>
        <time>2020-10-11T12:41:15.735Z</time>
      </trkpt>
      <trkpt lat="46.57862" lon="4.71963">
        <ele>243.1725</ele>
        <time>2020-10-11T12:41:23.927Z</time>
      </trkpt>
      <trkpt lat="46.57901" lon="4.71863">
        <ele>237.57802</ele>
        <time>2020-10-11T12:41:33.680Z</time>
      </trkpt>
      <trkpt lat="46.58029" lon="4.71544">
        <ele>220.603896</ele>
        <time>2020-10-11T12:42:05.595Z</time>
      </trkpt>
      <trkpt lat="46.5804" lon="4.71519">
        <ele>219.392194</ele>
        <time>2020-10-11T12:42:08.359Z</time>
      </trkpt>
      <trkpt lat="46.5807" lon="4.71444">
        <ele>216.635613</ele>
        <time>2020-10-11T12:42:16.519Z</time>
      </trkpt>
      <trkpt lat="46.58554" lon="4.70234">
        <ele>201.099075</ele>
        <time>2020-10-11T12:44:52.370Z</time>
      </trkpt>
      <trkpt lat="46.58676" lon="4.69928">
        <ele>195.686853</ele>
        <time>2020-10-11T12:45:28.330Z</time>
      </trkpt>
      <trkpt lat="46.58679" lon="4.69917">
        <ele>195.50172</ele>
        <time>2020-10-11T12:45:29.513Z</time>
      </trkpt>
      <trkpt lat="46.5868" lon="4.69891">
        <ele>195.085435</ele>
        <time>2020-10-11T12:45:32.376Z</time>
      </trkpt>
      <trkpt lat="46.58672" lon="4.69868">
        <ele>194.795272</ele>
        <time>2020-10-11T12:45:35.148Z</time>
      </trkpt>
      <trkpt lat="46.5867" lon="4.69863">
        <ele>194.761032</ele>
        <time>2020-10-11T12:45:35.801Z</time>
      </trkpt>
      <trkpt lat="46.58684" lon="4.69846">
        <ele>194.620879</ele>
        <time>2020-10-11T12:45:39.059Z</time>
      </trkpt>
      <trkpt lat="46.58721" lon="4.69792">
        <ele>194.226334</ele>
        <time>2020-10-11T12:45:47.919Z</time>
      </trkpt>
      <trkpt lat="46.58732" lon="4.69774">
        <ele>194.101478</ele>
        <time>2020-10-11T12:45:51.192Z</time>
      </trkpt>
      <trkpt lat="46.58746" lon="4.69746">
        <ele>193.92124</ele>
        <time>2020-10-11T12:45:55.520Z</time>
      </trkpt>
      <trkpt lat="46.5877" lon="4.69695">
        <ele>193.599205</ele>
        <time>2020-10-11T12:46:04.026Z</time>
      </trkpt>
      <trkpt lat="46.58817" lon="4.69577">
        <ele>193.335705</ele>
        <time>2020-10-11T12:46:23.004Z</time>
      </trkpt>
      <trkpt lat="46.58868" lon="4.69446">
        <ele>193.129728</ele>
        <time>2020-10-11T12:46:43.419Z</time>
      </trkpt>
      <trkpt lat="46.5889" lon="4.69392">
        <ele>192.983551</ele>
        <time>2020-10-11T12:46:51.512Z</time>
      </trkpt>
      <trkpt lat="46.58899" lon="4.69371">
        <ele>192.924783</ele>
        <time>2020-10-11T12:46:54.710Z</time>
      </trkpt>
      <trkpt lat="46.58904" lon="4.69357">
        <ele>192.888542</ele>
        <time>2020-10-11T12:46:56.636Z</time>
      </trkpt>
      <trkpt lat="46.58982" lon="4.69161">
        <ele>192.417543</ele>
        <time>2020-10-11T12:47:27.196Z</time>
      </trkpt>
      <trkpt lat="46.59015" lon="4.69079">
        <ele>192.276646</ele>
        <time>2020-10-11T12:47:39.543Z</time>
      </trkpt>
      <trkpt lat="46.59161" lon="4.68714">
        <ele>192.348324</ele>
        <time>2020-10-11T12:48:38.444Z</time>
      </trkpt>
      <trkpt lat="46.59217" lon="4.68576">
        <ele>193.191508</ele>
        <time>2020-10-11T12:49:06.831Z</time>
      </trkpt>
      <trkpt lat="46.59243" lon="4.68526">
        <ele>193.817471</ele>
        <time>2020-10-11T12:49:19.337Z</time>
      </trkpt>
      <trkpt lat="46.59292" lon="4.6845">
        <ele>195.50902</ele>
        <time>2020-10-11T12:49:41.991Z</time>
      </trkpt>
      <trkpt lat="46.59318" lon="4.68417">
        <ele>196.332227</ele>
        <time>2020-10-11T12:49:54.247Z</time>
      </trkpt>
      <trkpt lat="46.59316" lon="4.68411">
        <ele>196.439419</ele>
        <time>2020-10-11T12:49:56.248Z</time>
      </trkpt>
      <trkpt lat="46.59304" lon="4.68381">
        <ele>197.00992</ele>
        <time>2020-10-11T12:50:05.111Z</time>
      </trkpt>
      <trkpt lat="46.59308" lon="4.68345">
        <ele>197.594056</ele>
        <time>2020-10-11T12:50:14.742Z</time>
      </trkpt>
      <trkpt lat="46.59322" lon="4.6831">
        <ele>198.541737</ele>
        <time>2020-10-11T12:50:26.040Z</time>
      </trkpt>
      <trkpt lat="46.59365" lon="4.68204">
        <ele>201.456618</ele>
        <time>2020-10-11T12:51:00.626Z</time>
      </trkpt>
      <trkpt lat="46.59396" lon="4.68127">
        <ele>203.586913</ele>
        <time>2020-10-11T12:51:25.959Z</time>
      </trkpt>
      <trkpt lat="46.59463" lon="4.67956">
        <ele>207.520902</ele>
        <time>2020-10-11T12:52:17.302Z</time>
      </trkpt>
      <trkpt lat="46.59513" lon="4.67838">
        <ele>209.901365</ele>
        <time>2020-10-11T12:52:49.047Z</time>
      </trkpt>
      <trkpt lat="46.59545" lon="4.67795">
        <ele>210.796906</ele>
        <time>2020-10-11T12:53:03.520Z</time>
      </trkpt>
      <trkpt lat="46.59681" lon="4.67664">
        <ele>213.850625</ele>
        <time>2020-10-11T12:53:54.438Z</time>
      </trkpt>
      <trkpt lat="46.59859" lon="4.67492">
        <ele>217.825602</ele>
        <time>2020-10-11T12:54:56.782Z</time>
      </trkpt>
      <trkpt lat="46.60119" lon="4.6724">
        <ele>225.85697</ele>
        <time>2020-10-11T12:56:52.586Z</time>
      </trkpt>
      <trkpt lat="46.60135" lon="4.67227">
        <ele>226.249738</ele>
        <time>2020-10-11T12:56:59.505Z</time>
      </trkpt>
      <trkpt lat="46.60142" lon="4.67221">
        <ele>226.421819</ele>
        <time>2020-10-11T12:57:02.471Z</time>
      </trkpt>
      <trkpt lat="46.60153" lon="4.67214">
        <ele>226.6638</ele>
        <time>2020-10-11T12:57:05.873Z</time>
      </trkpt>
      <trkpt lat="46.60229" lon="4.67167">
        <ele>228.444631</ele>
        <time>2020-10-11T12:57:31.932Z</time>
      </trkpt>
      <trkpt lat="46.6026" lon="4.67151">
        <ele>228.26028</ele>
        <time>2020-10-11T12:57:39.948Z</time>
      </trkpt>
      <trkpt lat="46.60297" lon="4.67129">
        <ele>227.965248</ele>
        <time>2020-10-11T12:57:47.745Z</time>
      </trkpt>
      <trkpt lat="46.60348" lon="4.67099">
        <ele>227.560911</ele>
        <time>2020-10-11T12:57:57.086Z</time>
      </trkpt>
      <trkpt lat="46.60375" lon="4.67077">
        <ele>227.331174</ele>
        <time>2020-10-11T12:58:02.029Z</time>
      </trkpt>
      <trkpt lat="46.60382" lon="4.67066">
        <ele>227.257307</ele>
        <time>2020-10-11T12:58:03.606Z</time>
      </trkpt>
      <trkpt lat="46.60388" lon="4.67052">
        <ele>227.175783</ele>
        <time>2020-10-11T12:58:05.167Z</time>
      </trkpt>
      <trkpt lat="46.60419" lon="4.66933">
        <ele>225.888124</ele>
        <time>2020-10-11T12:58:18.461Z</time>
      </trkpt>
      <trkpt lat="46.60423" lon="4.66869">
        <ele>225.2307</ele>
        <time>2020-10-11T12:58:25.572Z</time>
      </trkpt>
      <trkpt lat="46.60422" lon="4.66841">
        <ele>224.948586</ele>
        <time>2020-10-11T12:58:28.414Z</time>
      </trkpt>
      <trkpt lat="46.60419" lon="4.66807">
        <ele>224.594933</ele>
        <time>2020-10-11T12:58:33.941Z</time>
      </trkpt>
      <trkpt lat="46.60416" lon="4.66752">
        <ele>224.841475</ele>
        <time>2020-10-11T12:58:42.006Z</time>
      </trkpt>
      <trkpt lat="46.60415" lon="4.66731">
        <ele>224.997624</ele>
        <time>2020-10-11T12:58:44.831Z</time>
      </trkpt>
      <trkpt lat="46.60417" lon="4.66714">
        <ele>225.126071</ele>
        <time>2020-10-11T12:58:48.719Z</time>
      </trkpt>
      <trkpt lat="46.60432" lon="4.66677">
        <ele>225.452079</ele>
        <time>2020-10-11T12:58:55.384Z</time>
      </trkpt>
      <trkpt lat="46.60454" lon="4.66665">
        <ele>225.719078</ele>
        <time>2020-10-11T12:59:01.709Z</time>
      </trkpt>
      <trkpt lat="46.60463" lon="4.66667">
        <ele>225.815079</ele>
        <time>2020-10-11T12:59:04.442Z</time>
      </trkpt>
      <trkpt lat="46.60473" lon="4.66671">
        <ele>225.926852</ele>
        <time>2020-10-11T12:59:08.218Z</time>
      </trkpt>
      <trkpt lat="46.60571" lon="4.66731">
        <ele>227.463971</ele>
        <time>2020-10-11T12:59:44.048Z</time>
      </trkpt>
      <trkpt lat="46.60579" lon="4.66736">
        <ele>227.605195</ele>
        <time>2020-10-11T12:59:47.054Z</time>
      </trkpt>
      <trkpt lat="46.60648" lon="4.66778">
        <ele>228.904821</ele>
        <time>2020-10-11T13:00:10.165Z</time>
      </trkpt>
      <trkpt lat="46.60679" lon="4.66808">
        <ele>229.555117</ele>
        <time>2020-10-11T13:00:20.208Z</time>
      </trkpt>
      <trkpt lat="46.60706" lon="4.66864">
        <ele>230.001864</ele>
        <time>2020-10-11T13:00:31.821Z</time>
      </trkpt>
      <trkpt lat="46.60716" lon="4.66873">
        <ele>230.11046</ele>
        <time>2020-10-11T13:00:34.412Z</time>
      </trkpt>
      <trkpt lat="46.6072" lon="4.66874">
        <ele>230.147957</ele>
        <time>2020-10-11T13:00:35.618Z</time>
      </trkpt>
      <trkpt lat="46.60726" lon="4.66875">
        <ele>230.202873</ele>
        <time>2020-10-11T13:00:36.966Z</time>
      </trkpt>
      <trkpt lat="46.6073" lon="4.66874">
        <ele>230.237294</ele>
        <time>2020-10-11T13:00:37.785Z</time>
      </trkpt>
      <trkpt lat="46.60737" lon="4.6687">
        <ele>230.310953</ele>
        <time>2020-10-11T13:00:39.541Z</time>
      </trkpt>
      <trkpt lat="46.60742" lon="4.66868">
        <ele>230.351002</ele>
        <time>2020-10-11T13:00:40.366Z</time>
      </trkpt>
      <trkpt lat="46.60823" lon="4.66818">
        <ele>231.158913</ele>
        <time>2020-10-11T13:01:02.215Z</time>
      </trkpt>
      <trkpt lat="46.60851" lon="4.66801">
        <ele>231.895541</ele>
        <time>2020-10-11T13:01:11.223Z</time>
      </trkpt>
      <trkpt lat="46.60878" lon="4.66786">
        <ele>232.768963</ele>
        <time>2020-10-11T13:01:20.421Z</time>
      </trkpt>
      <trkpt lat="46.60964" lon="4.66735">
        <ele>235.622379</ele>
        <time>2020-10-11T13:01:57.142Z</time>
      </trkpt>
      <trkpt lat="46.60969" lon="4.66732">
        <ele>235.7869</ele>
        <time>2020-10-11T13:02:00.004Z</time>
      </trkpt>
      <trkpt lat="46.61053" lon="4.6668">
        <ele>239.097195</ele>
        <time>2020-10-11T13:02:41.090Z</time>
      </trkpt>
      <trkpt lat="46.61061" lon="4.66676">
        <ele>239.431596</ele>
        <time>2020-10-11T13:02:45.999Z</time>
      </trkpt>
      <trkpt lat="46.61194" lon="4.66595">
        <ele>243.785971</ele>
        <time>2020-10-11T13:03:46.871Z</time>
      </trkpt>
      <trkpt lat="46.61215" lon="4.66585">
        <ele>243.76945</ele>
        <time>2020-10-11T13:03:53.353Z</time>
      </trkpt>
      <trkpt lat="46.6128" lon="4.66547">
        <ele>243.715832</ele>
        <time>2020-10-11T13:04:08.026Z</time>
      </trkpt>
      <trkpt lat="46.61347" lon="4.6651">
        <ele>242.880756</ele>
        <time>2020-10-11T13:04:18.289Z</time>
      </trkpt>
      <trkpt lat="46.61388" lon="4.66476">
        <ele>240.627216</ele>
        <time>2020-10-11T13:04:24.551Z</time>
      </trkpt>
      <trkpt lat="46.61388" lon="4.66471">
        <ele>240.469853</ele>
        <time>2020-10-11T13:04:24.953Z</time>
      </trkpt>
      <trkpt lat="46.61387" lon="4.66463">
        <ele>240.191785</ele>
        <time>2020-10-11T13:04:25.719Z</time>
      </trkpt>
      <trkpt lat="46.61385" lon="4.66451">
        <ele>239.802875</ele>
        <time>2020-10-11T13:04:26.872Z</time>
      </trkpt>
      <trkpt lat="46.61383" lon="4.66433">
        <ele>239.200268</ele>
        <time>2020-10-11T13:04:28.579Z</time>
      </trkpt>
      <trkpt lat="46.61376" lon="4.66378">
        <ele>237.367326</ele>
        <time>2020-10-11T13:04:33.649Z</time>
      </trkpt>
      <trkpt lat="46.61375" lon="4.6637">
        <ele>237.113638</ele>
        <time>2020-10-11T13:04:34.305Z</time>
      </trkpt>
      <trkpt lat="46.61361" lon="4.66294">
        <ele>234.595096</ele>
        <time>2020-10-11T13:04:41.410Z</time>
      </trkpt>
      <trkpt lat="46.61356" lon="4.6627">
        <ele>233.856803</ele>
        <time>2020-10-11T13:04:43.667Z</time>
      </trkpt>
      <trkpt lat="46.61359" lon="4.66268">
        <ele>233.727662</ele>
        <time>2020-10-11T13:04:44.046Z</time>
      </trkpt>
      <trkpt lat="46.61363" lon="4.66258">
        <ele>233.39871</ele>
        <time>2020-10-11T13:04:45.079Z</time>
      </trkpt>
      <trkpt lat="46.61363" lon="4.66255">
        <ele>233.311326</ele>
        <time>2020-10-11T13:04:45.363Z</time>
      </trkpt>
      <trkpt lat="46.61362" lon="4.66253">
        <ele>233.240142</ele>
        <time>2020-10-11T13:04:45.586Z</time>
      </trkpt>
      <trkpt lat="46.61361" lon="4.66249">
        <ele>233.116585</ele>
        <time>2020-10-11T13:04:45.970Z</time>
      </trkpt>
      <trkpt lat="46.61358" lon="4.66247">
        <ele>232.996016</ele>
        <time>2020-10-11T13:04:46.347Z</time>
      </trkpt>
      <trkpt lat="46.61358" lon="4.66247">
        <ele>232.996016</ele>
        <time>2020-10-11T13:04:46.349Z</time>
      </trkpt>
      <trkpt lat="46.61355" lon="4.66246">
        <ele>232.862127</ele>
        <time>2020-10-11T13:04:46.760Z</time>
      </trkpt>
      <trkpt lat="46.61347" lon="4.66253">
        <ele>232.482718</ele>
        <time>2020-10-11T13:04:47.938Z</time>
      </trkpt>
      <trkpt lat="46.61347" lon="4.66258">
        <ele>232.329982</ele>
        <time>2020-10-11T13:04:48.399Z</time>
      </trkpt>
      <trkpt lat="46.61335" lon="4.66257">
        <ele>231.85913</ele>
        <time>2020-10-11T13:04:49.934Z</time>
      </trkpt>
      <trkpt lat="46.61332" lon="4.66257">
        <ele>231.716462</ele>
        <time>2020-10-11T13:04:50.378Z</time>
      </trkpt>
      <trkpt lat="46.61311" lon="4.66257">
        <ele>230.839462</ele>
        <time>2020-10-11T13:04:53.175Z</time>
      </trkpt>
      <trkpt lat="46.61288" lon="4.66256">
        <ele>229.86553</ele>
        <time>2020-10-11T13:04:56.453Z</time>
      </trkpt>
      <trkpt lat="46.61239" lon="4.66255">
        <ele>227.804827</ele>
        <time>2020-10-11T13:05:03.537Z</time>
      </trkpt>
      <trkpt lat="46.61215" lon="4.6625">
        <ele>227.334299</ele>
        <time>2020-10-11T13:05:07.106Z</time>
      </trkpt>
      <trkpt lat="46.61209" lon="4.66249">
        <ele>227.265686</ele>
        <time>2020-10-11T13:05:08.006Z</time>
      </trkpt>
      <trkpt lat="46.61194" lon="4.66249">
        <ele>227.09126</ele>
        <time>2020-10-11T13:05:10.261Z</time>
      </trkpt>
      <trkpt lat="46.61167" lon="4.66256">
        <ele>226.773467</ele>
        <time>2020-10-11T13:05:14.348Z</time>
      </trkpt>
      <trkpt lat="46.61163" lon="4.66257">
        <ele>226.725309</ele>
        <time>2020-10-11T13:05:14.958Z</time>
      </trkpt>
      <trkpt lat="46.61146" lon="4.66258">
        <ele>226.534672</ele>
        <time>2020-10-11T13:05:17.467Z</time>
      </trkpt>
      <trkpt lat="46.61139" lon="4.66258">
        <ele>226.454905</ele>
        <time>2020-10-11T13:05:18.491Z</time>
      </trkpt>
      <trkpt lat="46.61127" lon="4.66259">
        <ele>226.312682</ele>
        <time>2020-10-11T13:05:20.362Z</time>
      </trkpt>
      <trkpt lat="46.61121" lon="4.6626">
        <ele>226.250224</ele>
        <time>2020-10-11T13:05:21.428Z</time>
      </trkpt>
      <trkpt lat="46.6111" lon="4.66262">
        <ele>226.11212</ele>
        <time>2020-10-11T13:05:23.426Z</time>
      </trkpt>
      <trkpt lat="46.61093" lon="4.66267">
        <ele>225.917072</ele>
        <time>2020-10-11T13:05:27.269Z</time>
      </trkpt>
      <trkpt lat="46.61054" lon="4.66278">
        <ele>225.499315</ele>
        <time>2020-10-11T13:05:37.707Z</time>
      </trkpt>
      <trkpt lat="46.61037" lon="4.66284">
        <ele>226.017055</ele>
        <time>2020-10-11T13:05:42.160Z</time>
      </trkpt>
      <trkpt lat="46.61002" lon="4.66301">
        <ele>227.119218</ele>
        <time>2020-10-11T13:05:54.157Z</time>
      </trkpt>
      <trkpt lat="46.60988" lon="4.6631">
        <ele>227.567359</ele>
        <time>2020-10-11T13:05:59.792Z</time>
      </trkpt>
      <trkpt lat="46.60988" lon="4.66315">
        <ele>227.68038</ele>
        <time>2020-10-11T13:06:01.639Z</time>
      </trkpt>
      <trkpt lat="46.60988" lon="4.66337">
        <ele>228.123875</ele>
        <time>2020-10-11T13:06:06.447Z</time>
      </trkpt>
      <trkpt lat="46.60989" lon="4.66366">
        <ele>228.713427</ele>
        <time>2020-10-11T13:06:15.132Z</time>
      </trkpt>
      <trkpt lat="46.6099" lon="4.66454">
        <ele>230.527739</ele>
        <time>2020-10-11T13:06:40.485Z</time>
      </trkpt>
      <trkpt lat="46.60998" lon="4.66514">
        <ele>231.956424</ele>
        <time>2020-10-11T13:07:00.778Z</time>
      </trkpt>
      <trkpt lat="46.61016" lon="4.66582">
        <ele>233.727465</ele>
        <time>2020-10-11T13:07:24.745Z</time>
      </trkpt>
      <trkpt lat="46.61051" lon="4.66676">
        <ele>236.339571</ele>
        <time>2020-10-11T13:07:52.809Z</time>
      </trkpt>
      <trkpt lat="46.61053" lon="4.6668">
        <ele>236.463706</ele>
        <time>2020-10-11T13:07:54.855Z</time>
      </trkpt>
      <trkpt lat="46.61055" lon="4.66688">
        <ele>236.656242</ele>
        <time>2020-10-11T13:07:56.381Z</time>
      </trkpt>
      <trkpt lat="46.61056" lon="4.66832">
        <ele>238.484835</ele>
        <time>2020-10-11T13:08:25.650Z</time>
      </trkpt>
      <trkpt lat="46.61055" lon="4.66886">
        <ele>239.048286</ele>
        <time>2020-10-11T13:08:36.960Z</time>
      </trkpt>
      <trkpt lat="46.61054" lon="4.66904">
        <ele>239.232154</ele>
        <time>2020-10-11T13:08:40.197Z</time>
      </trkpt>
      <trkpt lat="46.61053" lon="4.66967">
        <ele>239.894428</ele>
        <time>2020-10-11T13:08:51.693Z</time>
      </trkpt>
      <trkpt lat="46.61051" lon="4.67043">
        <ele>240.224189</ele>
        <time>2020-10-11T13:09:05.272Z</time>
      </trkpt>
      <trkpt lat="46.61051" lon="4.67068">
        <ele>240.319115</ele>
        <time>2020-10-11T13:09:09.442Z</time>
      </trkpt>
      <trkpt lat="46.61051" lon="4.6708">
        <ele>240.36485</ele>
        <time>2020-10-11T13:09:11.442Z</time>
      </trkpt>
      <trkpt lat="46.6105" lon="4.67095">
        <ele>240.424061</ele>
        <time>2020-10-11T13:09:14.178Z</time>
      </trkpt>
      <trkpt lat="46.61051" lon="4.67122">
        <ele>240.529772</ele>
        <time>2020-10-11T13:09:18.549Z</time>
      </trkpt>
      <trkpt lat="46.61061" lon="4.67147">
        <ele>240.640828</ele>
        <time>2020-10-11T13:09:23.233Z</time>
      </trkpt>
      <trkpt lat="46.61064" lon="4.67151">
        <ele>240.660102</ele>
        <time>2020-10-11T13:09:24.507Z</time>
      </trkpt>
      <trkpt lat="46.61058" lon="4.67164">
        <ele>240.717853</ele>
        <time>2020-10-11T13:09:26.718Z</time>
      </trkpt>
      <trkpt lat="46.61055" lon="4.67173">
        <ele>240.757729</ele>
        <time>2020-10-11T13:09:28.387Z</time>
      </trkpt>
      <trkpt lat="46.61052" lon="4.67184">
        <ele>240.802844</ele>
        <time>2020-10-11T13:09:30.341Z</time>
      </trkpt>
      <trkpt lat="46.61049" lon="4.67199">
        <ele>240.86191</ele>
        <time>2020-10-11T13:09:33.218Z</time>
      </trkpt>
      <trkpt lat="46.6105" lon="4.67272">
        <ele>240.453537</ele>
        <time>2020-10-11T13:09:43.696Z</time>
      </trkpt>
      <trkpt lat="46.61053" lon="4.67295">
        <ele>240.195326</ele>
        <time>2020-10-11T13:09:46.467Z</time>
      </trkpt>
      <trkpt lat="46.61076" lon="4.67452">
        <ele>238.471346</ele>
        <time>2020-10-11T13:10:03.781Z</time>
      </trkpt>
      <trkpt lat="46.61081" lon="4.67472">
        <ele>238.235576</ele>
        <time>2020-10-11T13:10:05.951Z</time>
      </trkpt>
      <trkpt lat="46.61089" lon="4.67496">
        <ele>237.714298</ele>
        <time>2020-10-11T13:10:08.532Z</time>
      </trkpt>
      <trkpt lat="46.61164" lon="4.67619">
        <ele>233.798823</ele>
        <time>2020-10-11T13:10:24.190Z</time>
      </trkpt>
      <trkpt lat="46.61172" lon="4.67636">
        <ele>233.301056</ele>
        <time>2020-10-11T13:10:26.140Z</time>
      </trkpt>
      <trkpt lat="46.61191" lon="4.67679">
        <ele>232.083319</ele>
        <time>2020-10-11T13:10:31.012Z</time>
      </trkpt>
      <trkpt lat="46.61196" lon="4.67676">
        <ele>231.913329</ele>
        <time>2020-10-11T13:10:31.762Z</time>
      </trkpt>
      <trkpt lat="46.612" lon="4.67678">
        <ele>231.766439</ele>
        <time>2020-10-11T13:10:32.463Z</time>
      </trkpt>
      <trkpt lat="46.61203" lon="4.6768">
        <ele>231.680985</ele>
        <time>2020-10-11T13:10:32.907Z</time>
      </trkpt>
      <trkpt lat="46.61206" lon="4.67685">
        <ele>231.527149</ele>
        <time>2020-10-11T13:10:33.563Z</time>
      </trkpt>
      <trkpt lat="46.61221" lon="4.67707">
        <ele>230.889659</ele>
        <time>2020-10-11T13:10:36.486Z</time>
      </trkpt>
      <trkpt lat="46.61293" lon="4.67778">
        <ele>228.208189</ele>
        <time>2020-10-11T13:10:48.744Z</time>
      </trkpt>
      <trkpt lat="46.61412" lon="4.67878">
        <ele>225.017913</ele>
        <time>2020-10-11T13:11:09.373Z</time>
      </trkpt>
      <trkpt lat="46.61556" lon="4.67974">
        <ele>222.857814</ele>
        <time>2020-10-11T13:11:35.164Z</time>
      </trkpt>
      <trkpt lat="46.61634" lon="4.68014">
        <ele>222.339373</ele>
        <time>2020-10-11T13:11:50.648Z</time>
      </trkpt>
      <trkpt lat="46.61715" lon="4.68046">
        <ele>222.42368</ele>
        <time>2020-10-11T13:12:08.461Z</time>
      </trkpt>
      <trkpt lat="46.62416" lon="4.68224">
        <ele>228.436752</ele>
        <time>2020-10-11T13:15:10.365Z</time>
      </trkpt>
      <trkpt lat="46.62538" lon="4.68264">
        <ele>230.164674</ele>
        <time>2020-10-11T13:15:47.903Z</time>
      </trkpt>
      <trkpt lat="46.62935" lon="4.68457">
        <ele>235.289627</ele>
        <time>2020-10-11T13:17:46.660Z</time>
      </trkpt>
      <trkpt lat="46.6305" lon="4.68513">
        <ele>235.389493</ele>
        <time>2020-10-11T13:18:10.878Z</time>
      </trkpt>
      <trkpt lat="46.63116" lon="4.68545">
        <ele>235.132657</ele>
        <time>2020-10-11T13:18:22.836Z</time>
      </trkpt>
      <trkpt lat="46.6324" lon="4.68605">
        <ele>234.429159</ele>
        <time>2020-10-11T13:18:46.295Z</time>
      </trkpt>
      <trkpt lat="46.6341" lon="4.68688">
        <ele>235.027522</ele>
        <time>2020-10-11T13:19:27.681Z</time>
      </trkpt>
      <trkpt lat="46.63511" lon="4.68725">
        <ele>235.773902</ele>
        <time>2020-10-11T13:19:55.136Z</time>
      </trkpt>
      <trkpt lat="46.63582" lon="4.68737">
        <ele>236.283253</ele>
        <time>2020-10-11T13:20:12.591Z</time>
      </trkpt>
      <trkpt lat="46.63657" lon="4.68745">
        <ele>235.985832</ele>
        <time>2020-10-11T13:20:29.185Z</time>
      </trkpt>
      <trkpt lat="46.64267" lon="4.68805">
        <ele>233.060342</ele>
        <time>2020-10-11T13:22:20.903Z</time>
      </trkpt>
      <trkpt lat="46.64434" lon="4.68824">
        <ele>232.358203</ele>
        <time>2020-10-11T13:22:52.382Z</time>
      </trkpt>
      <trkpt lat="46.64578" lon="4.68838">
        <ele>232.360709</ele>
        <time>2020-10-11T13:23:20.279Z</time>
      </trkpt>
      <trkpt lat="46.64726" lon="4.68853">
        <ele>232.768766</ele>
        <time>2020-10-11T13:23:57.303Z</time>
      </trkpt>
      <trkpt lat="46.64784" lon="4.68862">
        <ele>232.984888</ele>
        <time>2020-10-11T13:24:12.338Z</time>
      </trkpt>
      <trkpt lat="46.64825" lon="4.6887">
        <ele>233.137345</ele>
        <time>2020-10-11T13:24:22.048Z</time>
      </trkpt>
      <trkpt lat="46.65082" lon="4.68963">
        <ele>229.656288</ele>
        <time>2020-10-11T13:25:05.517Z</time>
      </trkpt>
      <trkpt lat="46.65085" lon="4.68964">
        <ele>229.593209</ele>
        <time>2020-10-11T13:25:05.896Z</time>
      </trkpt>
      <trkpt lat="46.65088" lon="4.68965">
        <ele>229.538377</ele>
        <time>2020-10-11T13:25:06.241Z</time>
      </trkpt>
      <trkpt lat="46.65428" lon="4.69094">
        <ele>222.98856</ele>
        <time>2020-10-11T13:25:59.407Z</time>
      </trkpt>
      <trkpt lat="46.65438" lon="4.69098">
        <ele>222.911137</ele>
        <time>2020-10-11T13:26:01.227Z</time>
      </trkpt>
      <trkpt lat="46.65475" lon="4.69112">
        <ele>222.634634</ele>
        <time>2020-10-11T13:26:08.073Z</time>
      </trkpt>
      <trkpt lat="46.65605" lon="4.69161">
        <ele>222.857854</ele>
        <time>2020-10-11T13:26:41.122Z</time>
      </trkpt>
      <trkpt lat="46.65667" lon="4.69193">
        <ele>223.510129</ele>
        <time>2020-10-11T13:26:58.624Z</time>
      </trkpt>
      <trkpt lat="46.65669" lon="4.69194">
        <ele>223.53727</ele>
        <time>2020-10-11T13:27:00.086Z</time>
      </trkpt>
      <trkpt lat="46.65672" lon="4.69195">
        <ele>223.562147</ele>
        <time>2020-10-11T13:27:01.234Z</time>
      </trkpt>
      <trkpt lat="46.65824" lon="4.69262">
        <ele>224.779708</ele>
        <time>2020-10-11T13:27:43.709Z</time>
      </trkpt>
      <trkpt lat="46.65909" lon="4.69313">
        <ele>225.152301</ele>
        <time>2020-10-11T13:28:02.348Z</time>
      </trkpt>
      <trkpt lat="46.66095" lon="4.69427">
        <ele>225.096724</ele>
        <time>2020-10-11T13:28:42.439Z</time>
      </trkpt>
      <trkpt lat="46.66231" lon="4.69511">
        <ele>225.610991</ele>
        <time>2020-10-11T13:29:17.258Z</time>
      </trkpt>
      <trkpt lat="46.66478" lon="4.69695">
        <ele>227.238088</ele>
        <time>2020-10-11T13:30:24.196Z</time>
      </trkpt>
      <trkpt lat="46.66825" lon="4.69954">
        <ele>230.031331</ele>
        <time>2020-10-11T13:31:59.271Z</time>
      </trkpt>
      <trkpt lat="46.66937" lon="4.70038">
        <ele>231.534648</ele>
        <time>2020-10-11T13:32:34.961Z</time>
      </trkpt>
      <trkpt lat="46.67034" lon="4.70102">
        <ele>232.876139</ele>
        <time>2020-10-11T13:33:05.870Z</time>
      </trkpt>
      <trkpt lat="46.67147" lon="4.70138">
        <ele>234.01307</ele>
        <time>2020-10-11T13:33:36.809Z</time>
      </trkpt>
      <trkpt lat="46.67382" lon="4.70112">
        <ele>234.803114</ele>
        <time>2020-10-11T13:34:31.234Z</time>
      </trkpt>
      <trkpt lat="46.67485" lon="4.70108">
        <ele>233.466596</ele>
        <time>2020-10-11T13:34:48.381Z</time>
      </trkpt>
      <trkpt lat="46.67579" lon="4.70112">
        <ele>232.076817</ele>
        <time>2020-10-11T13:35:02.651Z</time>
      </trkpt>
      <trkpt lat="46.67691" lon="4.70135">
        <ele>229.957385</ele>
        <time>2020-10-11T13:35:20.045Z</time>
      </trkpt>
      <trkpt lat="46.67838" lon="4.70172">
        <ele>227.547637</ele>
        <time>2020-10-11T13:35:43.990Z</time>
      </trkpt>
      <trkpt lat="46.68237" lon="4.70272">
        <ele>222.570027</ele>
        <time>2020-10-11T13:36:49.537Z</time>
      </trkpt>
      <trkpt lat="46.68599" lon="4.70362">
        <ele>227.111532</ele>
        <time>2020-10-11T13:38:40.665Z</time>
      </trkpt>
      <trkpt lat="46.69066" lon="4.70477">
        <ele>224.124258</ele>
        <time>2020-10-11T13:40:04.842Z</time>
      </trkpt>
      <trkpt lat="46.69321" lon="4.7054">
        <ele>222.043566</ele>
        <time>2020-10-11T13:40:49.435Z</time>
      </trkpt>
      <trkpt lat="46.69483" lon="4.70581">
        <ele>222.299211</ele>
        <time>2020-10-11T13:41:24.635Z</time>
      </trkpt>
      <trkpt lat="46.6973" lon="4.7064">
        <ele>224.442875</ele>
        <time>2020-10-11T13:42:31.485Z</time>
      </trkpt>
      <trkpt lat="46.69866" lon="4.70659">
        <ele>225.175073</ele>
        <time>2020-10-11T13:43:04.725Z</time>
      </trkpt>
      <trkpt lat="46.69956" lon="4.70635">
        <ele>224.557668</ele>
        <time>2020-10-11T13:43:21.548Z</time>
      </trkpt>
      <trkpt lat="46.70029" lon="4.70604">
        <ele>224.041003</ele>
        <time>2020-10-11T13:43:34.221Z</time>
      </trkpt>
      <trkpt lat="46.70062" lon="4.70589">
        <ele>223.72235</ele>
        <time>2020-10-11T13:43:39.799Z</time>
      </trkpt>
      <trkpt lat="46.70076" lon="4.70581">
        <ele>223.576323</ele>
        <time>2020-10-11T13:43:42.301Z</time>
      </trkpt>
      <trkpt lat="46.70142" lon="4.7055">
        <ele>222.9222</ele>
        <time>2020-10-11T13:43:53.832Z</time>
      </trkpt>
      <trkpt lat="46.70166" lon="4.70537">
        <ele>222.673689</ele>
        <time>2020-10-11T13:43:58.341Z</time>
      </trkpt>
      <trkpt lat="46.70247" lon="4.70498">
        <ele>222.594333</ele>
        <time>2020-10-11T13:44:14.396Z</time>
      </trkpt>
      <trkpt lat="46.70708" lon="4.70274">
        <ele>226.165295</ele>
        <time>2020-10-11T13:46:16.554Z</time>
      </trkpt>
      <trkpt lat="46.70737" lon="4.7026">
        <ele>226.609984</ele>
        <time>2020-10-11T13:46:26.548Z</time>
      </trkpt>
      <trkpt lat="46.70756" lon="4.7025">
        <ele>226.950372</ele>
        <time>2020-10-11T13:46:33.055Z</time>
      </trkpt>
      <trkpt lat="46.70762" lon="4.70248">
        <ele>227.046411</ele>
        <time>2020-10-11T13:46:35.960Z</time>
      </trkpt>
      <trkpt lat="46.70931" lon="4.7017">
        <ele>229.194426</ele>
        <time>2020-10-11T13:47:28.420Z</time>
      </trkpt>
      <trkpt lat="46.71011" lon="4.70157">
        <ele>229.282057</ele>
        <time>2020-10-11T13:47:43.497Z</time>
      </trkpt>
      <trkpt lat="46.71063" lon="4.70161">
        <ele>229.340609</ele>
        <time>2020-10-11T13:47:53.308Z</time>
      </trkpt>
      <trkpt lat="46.71076" lon="4.70163">
        <ele>229.376589</ele>
        <time>2020-10-11T13:47:55.403Z</time>
      </trkpt>
      <trkpt lat="46.71086" lon="4.70164">
        <ele>229.404988</ele>
        <time>2020-10-11T13:47:57.404Z</time>
      </trkpt>
      <trkpt lat="46.71107" lon="4.7017">
        <ele>229.46507</ele>
        <time>2020-10-11T13:48:01.348Z</time>
      </trkpt>
      <trkpt lat="46.7116" lon="4.70189">
        <ele>229.618065</ele>
        <time>2020-10-11T13:48:12.411Z</time>
      </trkpt>
      <trkpt lat="46.71201" lon="4.70217">
        <ele>229.743257</ele>
        <time>2020-10-11T13:48:22.933Z</time>
      </trkpt>
      <trkpt lat="46.7125" lon="4.70272">
        <ele>230.36511</ele>
        <time>2020-10-11T13:48:40.993Z</time>
      </trkpt>
      <trkpt lat="46.71251" lon="4.70276">
        <ele>230.430422</ele>
        <time>2020-10-11T13:48:42.248Z</time>
      </trkpt>
      <trkpt lat="46.71249" lon="4.7029">
        <ele>230.611039</ele>
        <time>2020-10-11T13:48:44.477Z</time>
      </trkpt>
      <trkpt lat="46.71257" lon="4.70283">
        <ele>230.793245</ele>
        <time>2020-10-11T13:48:46.887Z</time>
      </trkpt>
      <trkpt lat="46.71259" lon="4.70294">
        <ele>230.950644</ele>
        <time>2020-10-11T13:48:50.563Z</time>
      </trkpt>
      <trkpt lat="46.71265" lon="4.70289">
        <ele>231.096742</ele>
        <time>2020-10-11T13:48:52.906Z</time>
      </trkpt>
      <trkpt lat="46.71267" lon="4.70299">
        <ele>231.2357</ele>
        <time>2020-10-11T13:48:54.833Z</time>
      </trkpt>
      <trkpt lat="46.71272" lon="4.70295">
        <ele>231.344018</ele>
        <time>2020-10-11T13:48:56.339Z</time>
      </trkpt>
      <trkpt lat="46.7128" lon="4.70305">
        <ele>231.544659</ele>
        <time>2020-10-11T13:48:59.395Z</time>
      </trkpt>
      <trkpt lat="46.71283" lon="4.70308">
        <ele>231.619358</ele>
        <time>2020-10-11T13:49:01.633Z</time>
      </trkpt>
      <trkpt lat="46.71294" lon="4.7033">
        <ele>231.982121</ele>
        <time>2020-10-11T13:49:07.862Z</time>
      </trkpt>
      <trkpt lat="46.71303" lon="4.70336">
        <ele>232.168311</ele>
        <time>2020-10-11T13:49:10.445Z</time>
      </trkpt>
      <trkpt lat="46.71308" lon="4.70339">
        <ele>232.27622</ele>
        <time>2020-10-11T13:49:12.591Z</time>
      </trkpt>
      <trkpt lat="46.71312" lon="4.70341">
        <ele>232.353762</ele>
        <time>2020-10-11T13:49:14.705Z</time>
      </trkpt>
      <trkpt lat="46.71341" lon="4.70333">
        <ele>232.934273</ele>
        <time>2020-10-11T13:49:23.536Z</time>
      </trkpt>
      <trkpt lat="46.71346" lon="4.7033">
        <ele>233.046822</ele>
        <time>2020-10-11T13:49:26.516Z</time>
      </trkpt>
      <trkpt lat="46.71349" lon="4.70327">
        <ele>233.119449</ele>
        <time>2020-10-11T13:49:27.731Z</time>
      </trkpt>
      <trkpt lat="46.71353" lon="4.70324">
        <ele>233.20086</ele>
        <time>2020-10-11T13:49:29.328Z</time>
      </trkpt>
      <trkpt lat="46.71356" lon="4.70331">
        <ele>233.305784</ele>
        <time>2020-10-11T13:49:30.907Z</time>
      </trkpt>
      <trkpt lat="46.71369" lon="4.70366">
        <ele>233.422592</ele>
        <time>2020-10-11T13:49:39.423Z</time>
      </trkpt>
      <trkpt lat="46.7137" lon="4.70367">
        <ele>233.426419</ele>
        <time>2020-10-11T13:49:39.768Z</time>
      </trkpt>
      <trkpt lat="46.71372" lon="4.70371">
        <ele>233.435526</ele>
        <time>2020-10-11T13:49:40.926Z</time>
      </trkpt>
      <trkpt lat="46.71375" lon="4.70376">
        <ele>233.45082</ele>
        <time>2020-10-11T13:49:42.148Z</time>
      </trkpt>
      <trkpt lat="46.71382" lon="4.70384">
        <ele>233.47463</ele>
        <time>2020-10-11T13:49:44.137Z</time>
      </trkpt>
      <trkpt lat="46.71385" lon="4.70387">
        <ele>233.483636</ele>
        <time>2020-10-11T13:49:44.907Z</time>
      </trkpt>
      <trkpt lat="46.71392" lon="4.70395">
        <ele>233.508929</ele>
        <time>2020-10-11T13:49:48.499Z</time>
      </trkpt>
      <trkpt lat="46.71393" lon="4.70397">
        <ele>233.514658</ele>
        <time>2020-10-11T13:49:49.252Z</time>
      </trkpt>
      <trkpt lat="46.71396" lon="4.70401">
        <ele>233.526414</ele>
        <time>2020-10-11T13:49:50.476Z</time>
      </trkpt>
      <trkpt lat="46.714" lon="4.70406">
        <ele>233.541017</ele>
        <time>2020-10-11T13:49:52.143Z</time>
      </trkpt>
      <trkpt lat="46.71833" lon="4.7085">
        <ele>233.926671</ele>
        <time>2020-10-11T13:51:38.887Z</time>
      </trkpt>
      <trkpt lat="46.71934" lon="4.70956">
        <ele>233.427823</ele>
        <time>2020-10-11T13:52:01.969Z</time>
      </trkpt>
      <trkpt lat="46.72107" lon="4.71136">
        <ele>231.741376</ele>
        <time>2020-10-11T13:52:39.563Z</time>
      </trkpt>
      <trkpt lat="46.72212" lon="4.71246">
        <ele>230.52723</ele>
        <time>2020-10-11T13:53:01.829Z</time>
      </trkpt>
      <trkpt lat="46.72258" lon="4.71292">
        <ele>229.680778</ele>
        <time>2020-10-11T13:53:11.336Z</time>
      </trkpt>
      <trkpt lat="46.72278" lon="4.71312">
        <ele>229.262321</ele>
        <time>2020-10-11T13:53:15.289Z</time>
      </trkpt>
      <trkpt lat="46.7246" lon="4.71505">
        <ele>224.811925</ele>
        <time>2020-10-11T13:53:49.666Z</time>
      </trkpt>
      <trkpt lat="46.72529" lon="4.71575">
        <ele>223.112828</ele>
        <time>2020-10-11T13:54:01.901Z</time>
      </trkpt>
      <trkpt lat="46.72636" lon="4.71654">
        <ele>221.937066</ele>
        <time>2020-10-11T13:54:21.712Z</time>
      </trkpt>
      <trkpt lat="46.72794" lon="4.71752">
        <ele>221.486341</ele>
        <time>2020-10-11T13:55:02.961Z</time>
      </trkpt>
      <trkpt lat="46.73344" lon="4.72085">
        <ele>216.111195</ele>
        <time>2020-10-11T13:56:45.213Z</time>
      </trkpt>
      <trkpt lat="46.73422" lon="4.72108">
        <ele>215.092938</ele>
        <time>2020-10-11T13:56:58.187Z</time>
      </trkpt>
      <trkpt lat="46.73917" lon="4.72194">
        <ele>209.531476</ele>
        <time>2020-10-11T13:58:20.386Z</time>
      </trkpt>
      <trkpt lat="46.73919" lon="4.72195">
        <ele>209.540286</ele>
        <time>2020-10-11T13:58:20.607Z</time>
      </trkpt>
      <trkpt lat="46.7392" lon="4.72195">
        <ele>209.548587</ele>
        <time>2020-10-11T13:58:21.225Z</time>
      </trkpt>
      <trkpt lat="46.74467" lon="4.72292">
        <ele>212.79392</ele>
        <time>2020-10-11T14:00:39.713Z</time>
      </trkpt>
      <trkpt lat="46.74692" lon="4.72332">
        <ele>213.514003</ele>
        <time>2020-10-11T14:01:29.913Z</time>
      </trkpt>
      <trkpt lat="46.74838" lon="4.72357">
        <ele>213.824349</ele>
        <time>2020-10-11T14:02:01.276Z</time>
      </trkpt>
      <trkpt lat="46.74938" lon="4.72393">
        <ele>214.080621</ele>
        <time>2020-10-11T14:02:24.468Z</time>
      </trkpt>
      <trkpt lat="46.7523" lon="4.72575">
        <ele>215.721045</ele>
        <time>2020-10-11T14:03:40.388Z</time>
      </trkpt>
      <trkpt lat="46.75232" lon="4.72577">
        <ele>215.73136</ele>
        <time>2020-10-11T14:03:40.998Z</time>
      </trkpt>
      <trkpt lat="46.75233" lon="4.72578">
        <ele>215.738792</ele>
        <time>2020-10-11T14:03:41.247Z</time>
      </trkpt>
      <trkpt lat="46.75289" lon="4.72629">
        <ele>216.019098</ele>
        <time>2020-10-11T14:03:56.525Z</time>
      </trkpt>
      <trkpt lat="46.75393" lon="4.72758">
        <ele>216.276613</ele>
        <time>2020-10-11T14:04:26.646Z</time>
      </trkpt>
      <trkpt lat="46.75507" lon="4.72903">
        <ele>216.261853</ele>
        <time>2020-10-11T14:04:56.806Z</time>
      </trkpt>
      <trkpt lat="46.75526" lon="4.72927">
        <ele>216.248902</ele>
        <time>2020-10-11T14:05:01.908Z</time>
      </trkpt>
      <trkpt lat="46.75533" lon="4.72935">
        <ele>216.244466</ele>
        <time>2020-10-11T14:05:04.342Z</time>
      </trkpt>
      <trkpt lat="46.75659" lon="4.73094">
        <ele>216.989991</ele>
        <time>2020-10-11T14:05:54.278Z</time>
      </trkpt>
      <trkpt lat="46.75736" lon="4.73192">
        <ele>218.249572</ele>
        <time>2020-10-11T14:06:30.948Z</time>
      </trkpt>
      <trkpt lat="46.75844" lon="4.73328">
        <ele>220.481434</ele>
        <time>2020-10-11T14:07:25.684Z</time>
      </trkpt>
      <trkpt lat="46.75848" lon="4.73337">
        <ele>220.586648</ele>
        <time>2020-10-11T14:07:28.479Z</time>
      </trkpt>
      <trkpt lat="46.75866" lon="4.73404">
        <ele>221.308043</ele>
        <time>2020-10-11T14:07:47.506Z</time>
      </trkpt>
      <trkpt lat="46.75879" lon="4.73429">
        <ele>221.633477</ele>
        <time>2020-10-11T14:07:55.730Z</time>
      </trkpt>
      <trkpt lat="46.75883" lon="4.73431">
        <ele>221.693757</ele>
        <time>2020-10-11T14:07:57.283Z</time>
      </trkpt>
      <trkpt lat="46.75888" lon="4.73434">
        <ele>221.768143</ele>
        <time>2020-10-11T14:07:59.047Z</time>
      </trkpt>
      <trkpt lat="46.75894" lon="4.73437">
        <ele>221.858311</ele>
        <time>2020-10-11T14:08:01.255Z</time>
      </trkpt>
      <trkpt lat="46.75923" lon="4.73444">
        <ele>222.293865</ele>
        <time>2020-10-11T14:08:09.446Z</time>
      </trkpt>
      <trkpt lat="46.75933" lon="4.73448">
        <ele>222.450258</ele>
        <time>2020-10-11T14:08:12.296Z</time>
      </trkpt>
      <trkpt lat="46.75936" lon="4.73449">
        <ele>222.49678</ele>
        <time>2020-10-11T14:08:13.175Z</time>
      </trkpt>
      <trkpt lat="46.75942" lon="4.73453">
        <ele>222.585513</ele>
        <time>2020-10-11T14:08:14.794Z</time>
      </trkpt>
      <trkpt lat="46.75954" lon="4.73468">
        <ele>222.695633</ele>
        <time>2020-10-11T14:08:18.801Z</time>
      </trkpt>
      <trkpt lat="46.75995" lon="4.7352">
        <ele>222.829195</ele>
        <time>2020-10-11T14:08:32.112Z</time>
      </trkpt>
      <trkpt lat="46.76203" lon="4.73784">
        <ele>222.947932</ele>
        <time>2020-10-11T14:09:28.313Z</time>
      </trkpt>
      <trkpt lat="46.76244" lon="4.73832">
        <ele>222.781684</ele>
        <time>2020-10-11T14:09:38.698Z</time>
      </trkpt>
      <trkpt lat="46.76303" lon="4.73896">
        <ele>222.464218</ele>
        <time>2020-10-11T14:09:52.568Z</time>
      </trkpt>
      <trkpt lat="46.76411" lon="4.73987">
        <ele>221.477855</ele>
        <time>2020-10-11T14:10:15.328Z</time>
      </trkpt>
      <trkpt lat="46.76563" lon="4.74075">
        <ele>219.170064</ele>
        <time>2020-10-11T14:10:41.524Z</time>
      </trkpt>
      <trkpt lat="46.76565" lon="4.74077">
        <ele>219.121069</ele>
        <time>2020-10-11T14:10:41.890Z</time>
      </trkpt>
      <trkpt lat="46.76569" lon="4.74079">
        <ele>219.052294</ele>
        <time>2020-10-11T14:10:42.408Z</time>
      </trkpt>
      <trkpt lat="46.76939" lon="4.74287">
        <ele>212.796065</ele>
        <time>2020-10-11T14:11:44.251Z</time>
      </trkpt>
      <trkpt lat="46.77766" lon="4.74753">
        <ele>208.929737</ele>
        <time>2020-10-11T14:14:35.012Z</time>
      </trkpt>
      <trkpt lat="46.77784" lon="4.74763">
        <ele>208.853588</ele>
        <time>2020-10-11T14:14:38.628Z</time>
      </trkpt>
      <trkpt lat="46.77989" lon="4.74879">
        <ele>208.226674</ele>
        <time>2020-10-11T14:15:19.966Z</time>
      </trkpt>
      <trkpt lat="46.78023" lon="4.74898">
        <ele>208.157358</ele>
        <time>2020-10-11T14:15:27.573Z</time>
      </trkpt>
      <trkpt lat="46.78024" lon="4.749">
        <ele>208.153599</ele>
        <time>2020-10-11T14:15:28.065Z</time>
      </trkpt>
      <trkpt lat="46.78082" lon="4.74933">
        <ele>208.747828</ele>
        <time>2020-10-11T14:15:42.279Z</time>
      </trkpt>
      <trkpt lat="46.7809" lon="4.74937">
        <ele>208.859679</ele>
        <time>2020-10-11T14:15:44.211Z</time>
      </trkpt>
      <trkpt lat="46.78093" lon="4.74937">
        <ele>208.90969</ele>
        <time>2020-10-11T14:15:45.367Z</time>
      </trkpt>
      <trkpt lat="46.78108" lon="4.74894">
        <ele>209.369733</ele>
        <time>2020-10-11T14:15:54.004Z</time>
      </trkpt>
      <trkpt lat="46.78113" lon="4.74892">
        <ele>209.444144</ele>
        <time>2020-10-11T14:15:55.687Z</time>
      </trkpt>
      <trkpt lat="46.78137" lon="4.74905">
        <ele>209.790132</ele>
        <time>2020-10-11T14:16:03.042Z</time>
      </trkpt>
      <trkpt lat="46.78141" lon="4.74909">
        <ele>209.857544</ele>
        <time>2020-10-11T14:16:04.429Z</time>
      </trkpt>
      <trkpt lat="46.78145" lon="4.7492">
        <ele>209.975513</ele>
        <time>2020-10-11T14:16:07.297Z</time>
      </trkpt>
      <trkpt lat="46.78143" lon="4.74933">
        <ele>210.104666</ele>
        <time>2020-10-11T14:16:10.280Z</time>
      </trkpt>
      <trkpt lat="46.78146" lon="4.74935">
        <ele>210.156146</ele>
        <time>2020-10-11T14:16:11.490Z</time>
      </trkpt>
      <trkpt lat="46.78152" lon="4.74905">
        <ele>210.444228</ele>
        <time>2020-10-11T14:16:18.687Z</time>
      </trkpt>
      <trkpt lat="46.78156" lon="4.74883">
        <ele>210.732765</ele>
        <time>2020-10-11T14:16:24.197Z</time>
      </trkpt>
      <trkpt lat="46.78157" lon="4.74876">
        <ele>210.879398</ele>
        <time>2020-10-11T14:16:25.878Z</time>
      </trkpt>
      <trkpt lat="46.78168" lon="4.74815">
        <ele>212.247845</ele>
        <time>2020-10-11T14:16:41.782Z</time>
      </trkpt>
      <trkpt lat="46.78173" lon="4.74794">
        <ele>212.749669</ele>
        <time>2020-10-11T14:16:47.721Z</time>
      </trkpt>
      <trkpt lat="46.78176" lon="4.74776">
        <ele>213.134745</ele>
        <time>2020-10-11T14:16:52.610Z</time>
      </trkpt>
      <trkpt lat="46.78181" lon="4.74745">
        <ele>213.827714</ele>
        <time>2020-10-11T14:17:01.147Z</time>
      </trkpt>
      <trkpt lat="46.7819" lon="4.74693">
        <ele>214.996731</ele>
        <time>2020-10-11T14:17:16.345Z</time>
      </trkpt>
      <trkpt lat="46.78192" lon="4.74681">
        <ele>215.271114</ele>
        <time>2020-10-11T14:17:20.011Z</time>
      </trkpt>
      <trkpt lat="46.78194" lon="4.74673">
        <ele>215.449677</ele>
        <time>2020-10-11T14:17:22.458Z</time>
      </trkpt>
      <trkpt lat="46.78196" lon="4.74659">
        <ele>215.781699</ele>
        <time>2020-10-11T14:17:26.779Z</time>
      </trkpt>
      <trkpt lat="46.78197" lon="4.74652">
        <ele>215.928331</ele>
        <time>2020-10-11T14:17:28.594Z</time>
      </trkpt>
      <trkpt lat="46.78199" lon="4.74644">
        <ele>216.111095</ele>
        <time>2020-10-11T14:17:30.994Z</time>
      </trkpt>
      <trkpt lat="46.782" lon="4.7464">
        <ele>216.202801</ele>
        <time>2020-10-11T14:17:32.210Z</time>
      </trkpt>
      <trkpt lat="46.78201" lon="4.74635">
        <ele>216.312056</ele>
        <time>2020-10-11T14:17:33.562Z</time>
      </trkpt>
      <trkpt lat="46.78203" lon="4.74629">
        <ele>216.432601</ele>
        <time>2020-10-11T14:17:35.386Z</time>
      </trkpt>
      <trkpt lat="46.78204" lon="4.74622">
        <ele>216.579268</ele>
        <time>2020-10-11T14:17:37.633Z</time>
      </trkpt>
      <trkpt lat="46.78208" lon="4.74612">
        <ele>216.785696</ele>
        <time>2020-10-11T14:17:40.587Z</time>
      </trkpt>
      <trkpt lat="46.78211" lon="4.74603">
        <ele>216.987173</ele>
        <time>2020-10-11T14:17:43.380Z</time>
      </trkpt>
      <trkpt lat="46.78218" lon="4.74586">
        <ele>217.347858</ele>
        <time>2020-10-11T14:17:48.491Z</time>
      </trkpt>
      <trkpt lat="46.78223" lon="4.74572">
        <ele>217.652284</ele>
        <time>2020-10-11T14:17:52.768Z</time>
      </trkpt>
      <trkpt lat="46.78236" lon="4.74537">
        <ele>218.380537</ele>
        <time>2020-10-11T14:18:02.538Z</time>
      </trkpt>
      <trkpt lat="46.78237" lon="4.74536">
        <ele>218.416256</ele>
        <time>2020-10-11T14:18:03.003Z</time>
      </trkpt>
      <trkpt lat="46.78238" lon="4.74532">
        <ele>218.488984</ele>
        <time>2020-10-11T14:18:04.000Z</time>
      </trkpt>
      <trkpt lat="46.78246" lon="4.74512">
        <ele>218.923442</ele>
        <time>2020-10-11T14:18:09.485Z</time>
      </trkpt>
      <trkpt lat="46.78247" lon="4.74509">
        <ele>218.989949</ele>
        <time>2020-10-11T14:18:10.510Z</time>
      </trkpt>
      <trkpt lat="46.78249" lon="4.74504">
        <ele>219.102445</ele>
        <time>2020-10-11T14:18:11.997Z</time>
      </trkpt>
      <trkpt lat="46.78256" lon="4.74486">
        <ele>219.476273</ele>
        <time>2020-10-11T14:18:16.628Z</time>
      </trkpt>
      <trkpt lat="46.78263" lon="4.74467">
        <ele>219.892442</ele>
        <time>2020-10-11T14:18:21.751Z</time>
      </trkpt>
      <trkpt lat="46.78271" lon="4.74471">
        <ele>220.128332</ele>
        <time>2020-10-11T14:18:25.057Z</time>
      </trkpt>
      <trkpt lat="46.78275" lon="4.74474">
        <ele>220.246048</ele>
        <time>2020-10-11T14:18:26.481Z</time>
      </trkpt>
      <trkpt lat="46.78277" lon="4.74476">
        <ele>220.32552</ele>
        <time>2020-10-11T14:18:27.466Z</time>
      </trkpt>
      <trkpt lat="46.7828" lon="4.74477">
        <ele>220.411462</ele>
        <time>2020-10-11T14:18:28.556Z</time>
      </trkpt>
      <trkpt lat="46.78308" lon="4.74495">
        <ele>221.230636</ele>
        <time>2020-10-11T14:18:38.877Z</time>
      </trkpt>
      <trkpt lat="46.78312" lon="4.74497">
        <ele>221.297304</ele>
        <time>2020-10-11T14:18:40.198Z</time>
      </trkpt>
      <trkpt lat="46.78325" lon="4.74504">
        <ele>221.490223</ele>
        <time>2020-10-11T14:18:44.553Z</time>
      </trkpt>
      <trkpt lat="46.78329" lon="4.74502">
        <ele>221.55433</ele>
        <time>2020-10-11T14:18:45.922Z</time>
      </trkpt>
      <trkpt lat="46.78332" lon="4.74499">
        <ele>221.607815</ele>
        <time>2020-10-11T14:18:47.330Z</time>
      </trkpt>
      <trkpt lat="46.78336" lon="4.74494">
        <ele>221.681282</ele>
        <time>2020-10-11T14:18:48.856Z</time>
      </trkpt>
      <trkpt lat="46.78366" lon="4.74426">
        <ele>222.472841</ele>
        <time>2020-10-11T14:19:04.824Z</time>
      </trkpt>
      <trkpt lat="46.78378" lon="4.744">
        <ele>222.776933</ele>
        <time>2020-10-11T14:19:10.731Z</time>
      </trkpt>
      <trkpt lat="46.78388" lon="4.74377">
        <ele>223.043196</ele>
        <time>2020-10-11T14:19:15.533Z</time>
      </trkpt>
      <trkpt lat="46.7839" lon="4.74374">
        <ele>223.076984</ele>
        <time>2020-10-11T14:19:16.138Z</time>
      </trkpt>
      <trkpt lat="46.78391" lon="4.7437">
        <ele>223.12283</ele>
        <time>2020-10-11T14:19:17.088Z</time>
      </trkpt>
      <trkpt lat="46.78393" lon="4.74366">
        <ele>223.167077</ele>
        <time>2020-10-11T14:19:18.021Z</time>
      </trkpt>
      <trkpt lat="46.78398" lon="4.74369">
        <ele>223.244424</ele>
        <time>2020-10-11T14:19:19.389Z</time>
      </trkpt>
      <trkpt lat="46.78401" lon="4.7437">
        <ele>223.281593</ele>
        <time>2020-10-11T14:19:20.065Z</time>
      </trkpt>
      <trkpt lat="46.78447" lon="4.7439">
        <ele>223.921456</ele>
        <time>2020-10-11T14:19:33.038Z</time>
      </trkpt>
      <trkpt lat="46.78464" lon="4.74398">
        <ele>224.102568</ele>
        <time>2020-10-11T14:19:37.990Z</time>
      </trkpt>
      <trkpt lat="46.78468" lon="4.74399">
        <ele>224.139371</ele>
        <time>2020-10-11T14:19:38.933Z</time>
      </trkpt>
      <trkpt lat="46.78472" lon="4.74401">
        <ele>224.182568</ele>
        <time>2020-10-11T14:19:40.068Z</time>
      </trkpt>
      <trkpt lat="46.78527" lon="4.74425">
        <ele>224.75904</ele>
        <time>2020-10-11T14:19:54.958Z</time>
      </trkpt>
      <trkpt lat="46.78565" lon="4.74444">
        <ele>225.166651</ele>
        <time>2020-10-11T14:20:05.018Z</time>
      </trkpt>
      <trkpt lat="46.78577" lon="4.74451">
        <ele>225.296496</ele>
        <time>2020-10-11T14:20:08.463Z</time>
      </trkpt>
      <trkpt lat="46.78582" lon="4.74454">
        <ele>225.35398</ele>
        <time>2020-10-11T14:20:10.015Z</time>
      </trkpt>
      <trkpt lat="46.78588" lon="4.74458">
        <ele>225.418119</ele>
        <time>2020-10-11T14:20:11.651Z</time>
      </trkpt>
      <trkpt lat="46.78593" lon="4.74461">
        <ele>225.475889</ele>
        <time>2020-10-11T14:20:13.083Z</time>
      </trkpt>
      <trkpt lat="46.78598" lon="4.74464">
        <ele>225.534687</ele>
        <time>2020-10-11T14:20:14.515Z</time>
      </trkpt>
      <trkpt lat="46.78632" lon="4.74493">
        <ele>226.146831</ele>
        <time>2020-10-11T14:20:25.061Z</time>
      </trkpt>
      <trkpt lat="46.78663" lon="4.74517">
        <ele>226.759452</ele>
        <time>2020-10-11T14:20:35.386Z</time>
      </trkpt>
      <trkpt lat="46.78679" lon="4.74529">
        <ele>227.060137</ele>
        <time>2020-10-11T14:20:40.905Z</time>
      </trkpt>
      <trkpt lat="46.78764" lon="4.74579">
        <ele>228.659507</ele>
        <time>2020-10-11T14:21:10.041Z</time>
      </trkpt>
      <trkpt lat="46.78798" lon="4.74598">
        <ele>229.524401</ele>
        <time>2020-10-11T14:21:22.370Z</time>
      </trkpt>
      <trkpt lat="46.78866" lon="4.74642">
        <ele>231.36488</ele>
        <time>2020-10-11T14:21:48.903Z</time>
      </trkpt>
      <trkpt lat="46.78907" lon="4.74669">
        <ele>232.48349</ele>
        <time>2020-10-11T14:22:04.894Z</time>
      </trkpt>
      <trkpt lat="46.78951" lon="4.74698">
        <ele>233.591838</ele>
        <time>2020-10-11T14:22:21.157Z</time>
      </trkpt>
      <trkpt lat="46.78961" lon="4.74704">
        <ele>233.819684</ele>
        <time>2020-10-11T14:22:25.194Z</time>
      </trkpt>
      <trkpt lat="46.78975" lon="4.74712">
        <ele>234.132506</ele>
        <time>2020-10-11T14:22:29.778Z</time>
      </trkpt>
      <trkpt lat="46.78991" lon="4.74721">
        <ele>234.500914</ele>
        <time>2020-10-11T14:22:35.752Z</time>
      </trkpt>
      <trkpt lat="46.79003" lon="4.74727">
        <ele>234.769382</ele>
        <time>2020-10-11T14:22:40.117Z</time>
      </trkpt>
      <trkpt lat="46.79086" lon="4.74763">
        <ele>236.567574</ele>
        <time>2020-10-11T14:23:07.672Z</time>
      </trkpt>
      <trkpt lat="46.7909" lon="4.74765">
        <ele>236.659184</ele>
        <time>2020-10-11T14:23:09.347Z</time>
      </trkpt>
      <trkpt lat="46.79096" lon="4.74771">
        <ele>236.81586</ele>
        <time>2020-10-11T14:23:11.643Z</time>
      </trkpt>
      <trkpt lat="46.79114" lon="4.74782">
        <ele>237.088461</ele>
        <time>2020-10-11T14:23:17.418Z</time>
      </trkpt>
      <trkpt lat="46.79127" lon="4.7479">
        <ele>237.233935</ele>
        <time>2020-10-11T14:23:21.608Z</time>
      </trkpt>
      <trkpt lat="46.79131" lon="4.74793">
        <ele>237.286524</ele>
        <time>2020-10-11T14:23:23.061Z</time>
      </trkpt>
      <trkpt lat="46.7915" lon="4.74805">
        <ele>237.49624</ele>
        <time>2020-10-11T14:23:28.874Z</time>
      </trkpt>
      <trkpt lat="46.79176" lon="4.74822">
        <ele>237.7913</ele>
        <time>2020-10-11T14:23:35.985Z</time>
      </trkpt>
      <trkpt lat="46.79182" lon="4.74823">
        <ele>237.855068</ele>
        <time>2020-10-11T14:23:37.906Z</time>
      </trkpt>
      <trkpt lat="46.79244" lon="4.74871">
        <ele>238.586902</ele>
        <time>2020-10-11T14:23:55.867Z</time>
      </trkpt>
      <trkpt lat="46.79343" lon="4.74942">
        <ele>238.84841</ele>
        <time>2020-10-11T14:24:20.911Z</time>
      </trkpt>
      <trkpt lat="46.79376" lon="4.74956">
        <ele>238.859173</ele>
        <time>2020-10-11T14:24:28.027Z</time>
      </trkpt>
      <trkpt lat="46.79579" lon="4.75025">
        <ele>237.819797</ele>
        <time>2020-10-11T14:25:06.767Z</time>
      </trkpt>
      <trkpt lat="46.79588" lon="4.75033">
        <ele>237.746249</ele>
        <time>2020-10-11T14:25:08.450Z</time>
      </trkpt>
      <trkpt lat="46.7962" lon="4.75064">
        <ele>237.180284</ele>
        <time>2020-10-11T14:25:14.877Z</time>
      </trkpt>
      <trkpt lat="46.79681" lon="4.75103">
        <ele>235.742799</ele>
        <time>2020-10-11T14:25:25.326Z</time>
      </trkpt>
      <trkpt lat="46.7977" lon="4.75154">
        <ele>233.594797</ele>
        <time>2020-10-11T14:25:39.413Z</time>
      </trkpt>
      <trkpt lat="46.79802" lon="4.75168">
        <ele>232.134547</ele>
        <time>2020-10-11T14:25:44.095Z</time>
      </trkpt>
      <trkpt lat="46.79849" lon="4.75186">
        <ele>230.019058</ele>
        <time>2020-10-11T14:25:50.721Z</time>
      </trkpt>
      <trkpt lat="46.79886" lon="4.75192">
        <ele>228.361343</ele>
        <time>2020-10-11T14:25:55.791Z</time>
      </trkpt>
      <trkpt lat="46.79952" lon="4.75199">
        <ele>225.341149</ele>
        <time>2020-10-11T14:26:04.337Z</time>
      </trkpt>
      <trkpt lat="46.80054" lon="4.75212">
        <ele>218.934827</ele>
        <time>2020-10-11T14:26:17.429Z</time>
      </trkpt>
      <trkpt lat="46.80065" lon="4.75213">
        <ele>218.284564</ele>
        <time>2020-10-11T14:26:18.729Z</time>
      </trkpt>
      <trkpt lat="46.80094" lon="4.75216">
        <ele>216.440733</ele>
        <time>2020-10-11T14:26:22.501Z</time>
      </trkpt>
      <trkpt lat="46.80158" lon="4.75224">
        <ele>212.878139</ele>
        <time>2020-10-11T14:26:30.627Z</time>
      </trkpt>
      <trkpt lat="46.80257" lon="4.75237">
        <ele>207.862188</ele>
        <time>2020-10-11T14:26:43.673Z</time>
      </trkpt>
      <trkpt lat="46.80261" lon="4.75237">
        <ele>207.656027</ele>
        <time>2020-10-11T14:26:44.223Z</time>
      </trkpt>
      <trkpt lat="46.80401" lon="4.75255">
        <ele>203.076494</ele>
        <time>2020-10-11T14:27:04.035Z</time>
      </trkpt>
      <trkpt lat="46.80496" lon="4.75266">
        <ele>200.957354</ele>
        <time>2020-10-11T14:27:19.234Z</time>
      </trkpt>
      <trkpt lat="46.80579" lon="4.75276">
        <ele>200.600675</ele>
        <time>2020-10-11T14:27:33.539Z</time>
      </trkpt>
      <trkpt lat="46.80638" lon="4.75283">
        <ele>200.346803</ele>
        <time>2020-10-11T14:27:45.517Z</time>
      </trkpt>
      <trkpt lat="46.80682" lon="4.75288">
        <ele>200.651325</ele>
        <time>2020-10-11T14:27:57.075Z</time>
      </trkpt>
      <trkpt lat="46.80693" lon="4.75289">
        <ele>200.862422</ele>
        <time>2020-10-11T14:27:59.948Z</time>
      </trkpt>
      <trkpt lat="46.80734" lon="4.75293">
        <ele>201.690771</ele>
        <time>2020-10-11T14:28:12.311Z</time>
      </trkpt>
      <trkpt lat="46.80781" lon="4.75301">
        <ele>202.646091</ele>
        <time>2020-10-11T14:28:27.673Z</time>
      </trkpt>
      <trkpt lat="46.80797" lon="4.75305">
        <ele>202.970002</ele>
        <time>2020-10-11T14:28:32.829Z</time>
      </trkpt>
      <trkpt lat="46.80805" lon="4.75307">
        <ele>203.129051</ele>
        <time>2020-10-11T14:28:36.429Z</time>
      </trkpt>
      <trkpt lat="46.80866" lon="4.75337">
        <ele>204.705721</ele>
        <time>2020-10-11T14:29:00.760Z</time>
      </trkpt>
      <trkpt lat="46.80905" lon="4.75345">
        <ele>205.87761</ele>
        <time>2020-10-11T14:29:16.926Z</time>
      </trkpt>
      <trkpt lat="46.80989" lon="4.75327">
        <ele>208.410913</ele>
        <time>2020-10-11T14:29:49.480Z</time>
      </trkpt>
      <trkpt lat="46.80997" lon="4.75325">
        <ele>208.649006</ele>
        <time>2020-10-11T14:29:52.198Z</time>
      </trkpt>
      <trkpt lat="46.81075" lon="4.75309">
        <ele>209.727625</ele>
        <time>2020-10-11T14:30:18.409Z</time>
      </trkpt>
      <trkpt lat="46.81082" lon="4.75308">
        <ele>209.781236</ele>
        <time>2020-10-11T14:30:20.328Z</time>
      </trkpt>
      <trkpt lat="46.81093" lon="4.75305">
        <ele>209.875185</ele>
        <time>2020-10-11T14:30:23.623Z</time>
      </trkpt>
      <trkpt lat="46.81374" lon="4.75245">
        <ele>209.895188</ele>
        <time>2020-10-11T14:31:19.200Z</time>
      </trkpt>
      <trkpt lat="46.81466" lon="4.75222">
        <ele>208.607229</ele>
        <time>2020-10-11T14:31:33.584Z</time>
      </trkpt>
      <trkpt lat="46.81475" lon="4.7522">
        <ele>208.478975</ele>
        <time>2020-10-11T14:31:35.193Z</time>
      </trkpt>
      <trkpt lat="46.81485" lon="4.75219">
        <ele>208.339873</ele>
        <time>2020-10-11T14:31:36.824Z</time>
      </trkpt>
      <trkpt lat="46.81504" lon="4.7522">
        <ele>208.084179</ele>
        <time>2020-10-11T14:31:39.712Z</time>
      </trkpt>
      <trkpt lat="46.8153" lon="4.75214">
        <ele>207.725051</ele>
        <time>2020-10-11T14:31:44.212Z</time>
      </trkpt>
      <trkpt lat="46.81537" lon="4.75211">
        <ele>207.616018</ele>
        <time>2020-10-11T14:31:45.364Z</time>
      </trkpt>
      <trkpt lat="46.81545" lon="4.75208">
        <ele>207.508085</ele>
        <time>2020-10-11T14:31:46.804Z</time>
      </trkpt>
      <trkpt lat="46.81572" lon="4.75191">
        <ele>207.594203</ele>
        <time>2020-10-11T14:31:51.777Z</time>
      </trkpt>
      <trkpt lat="46.81581" lon="4.7519">
        <ele>207.651614</ele>
        <time>2020-10-11T14:31:54.154Z</time>
      </trkpt>
      <trkpt lat="46.81593" lon="4.75199">
        <ele>207.726916</ele>
        <time>2020-10-11T14:31:56.662Z</time>
      </trkpt>
      <trkpt lat="46.81596" lon="4.75202">
        <ele>207.749752</ele>
        <time>2020-10-11T14:31:57.642Z</time>
      </trkpt>
      <trkpt lat="46.81596" lon="4.75212">
        <ele>207.789901</ele>
        <time>2020-10-11T14:31:58.756Z</time>
      </trkpt>
      <trkpt lat="46.81598" lon="4.75222">
        <ele>207.83223</ele>
        <time>2020-10-11T14:32:00.468Z</time>
      </trkpt>
      <trkpt lat="46.81603" lon="4.75232">
        <ele>207.882521</ele>
        <time>2020-10-11T14:32:02.909Z</time>
      </trkpt>
      <trkpt lat="46.81609" lon="4.75238">
        <ele>207.927177</ele>
        <time>2020-10-11T14:32:04.546Z</time>
      </trkpt>
      <trkpt lat="46.81616" lon="4.75239">
        <ele>207.969275</ele>
        <time>2020-10-11T14:32:06.341Z</time>
      </trkpt>
      <trkpt lat="46.81624" lon="4.75237">
        <ele>208.013383</ele>
        <time>2020-10-11T14:32:07.729Z</time>
      </trkpt>
      <trkpt lat="46.8163" lon="4.75232">
        <ele>208.055114</ele>
        <time>2020-10-11T14:32:09.900Z</time>
      </trkpt>
      <trkpt lat="46.81635" lon="4.75234">
        <ele>208.08438</ele>
        <time>2020-10-11T14:32:11.562Z</time>
      </trkpt>
      <trkpt lat="46.81649" lon="4.75234">
        <ele>208.168671</ele>
        <time>2020-10-11T14:32:15.552Z</time>
      </trkpt>
      <trkpt lat="46.81689" lon="4.75206">
        <ele>208.424858</ele>
        <time>2020-10-11T14:32:28.212Z</time>
      </trkpt>
      <trkpt lat="46.81697" lon="4.752">
        <ele>208.482377</ele>
        <time>2020-10-11T14:32:31.364Z</time>
      </trkpt>
      <trkpt lat="46.81715" lon="4.75197">
        <ele>208.761378</ele>
        <time>2020-10-11T14:32:36.953Z</time>
      </trkpt>
      <trkpt lat="46.81731" lon="4.75195">
        <ele>209.04672</ele>
        <time>2020-10-11T14:32:41.919Z</time>
      </trkpt>
      <trkpt lat="46.81755" lon="4.75196">
        <ele>209.484674</ele>
        <time>2020-10-11T14:32:49.685Z</time>
      </trkpt>
      <trkpt lat="46.81943" lon="4.75199">
        <ele>212.512641</ele>
        <time>2020-10-11T14:33:47.796Z</time>
      </trkpt>
      <trkpt lat="46.82191" lon="4.75202">
        <ele>215.099524</ele>
        <time>2020-10-11T14:34:51.399Z</time>
      </trkpt>
      <trkpt lat="46.82405" lon="4.75206">
        <ele>217.065272</ele>
        <time>2020-10-11T14:35:46.763Z</time>
      </trkpt>
      <trkpt lat="46.82447" lon="4.75207">
        <ele>217.46282</ele>
        <time>2020-10-11T14:35:57.865Z</time>
      </trkpt>
      <trkpt lat="46.828" lon="4.75212">
        <ele>220.76787</ele>
        <time>2020-10-11T14:37:30.683Z</time>
      </trkpt>
      <trkpt lat="46.82984" lon="4.75215">
        <ele>221.742042</ele>
        <time>2020-10-11T14:38:14.215Z</time>
      </trkpt>
      <trkpt lat="46.83227" lon="4.75219">
        <ele>221.323859</ele>
        <time>2020-10-11T14:39:04.955Z</time>
      </trkpt>
      <trkpt lat="46.8323" lon="4.75219">
        <ele>221.296715</ele>
        <time>2020-10-11T14:39:05.568Z</time>
      </trkpt>
      <trkpt lat="46.83264" lon="4.7522">
        <ele>221.050374</ele>
        <time>2020-10-11T14:39:11.262Z</time>
      </trkpt>
      <trkpt lat="46.83326" lon="4.75221">
        <ele>220.522375</ele>
        <time>2020-10-11T14:39:21.369Z</time>
      </trkpt>
      <trkpt lat="46.83347" lon="4.75221">
        <ele>220.173261</ele>
        <time>2020-10-11T14:39:24.526Z</time>
      </trkpt>
      <trkpt lat="46.83545" lon="4.75223">
        <ele>217.178803</ele>
        <time>2020-10-11T14:39:55.574Z</time>
      </trkpt>
      <trkpt lat="46.83759" lon="4.75226">
        <ele>215.614947</ele>
        <time>2020-10-11T14:40:35.304Z</time>
      </trkpt>
      <trkpt lat="46.83763" lon="4.75226">
        <ele>215.598063</ele>
        <time>2020-10-11T14:40:35.938Z</time>
      </trkpt>
      <trkpt lat="46.83943" lon="4.75228">
        <ele>214.833665</ele>
        <time>2020-10-11T14:41:09.534Z</time>
      </trkpt>
      <trkpt lat="46.84043" lon="4.7523">
        <ele>214.496996</ele>
        <time>2020-10-11T14:41:29.058Z</time>
      </trkpt>
      <trkpt lat="46.84058" lon="4.7523">
        <ele>214.454351</ele>
        <time>2020-10-11T14:41:32.396Z</time>
      </trkpt>
      <trkpt lat="46.84291" lon="4.75234">
        <ele>213.941426</ele>
        <time>2020-10-11T14:42:17.200Z</time>
      </trkpt>
      <trkpt lat="46.8439" lon="4.75234">
        <ele>213.834729</ele>
        <time>2020-10-11T14:42:37.148Z</time>
      </trkpt>
      <trkpt lat="46.84419" lon="4.75234">
        <ele>213.949518</ele>
        <time>2020-10-11T14:42:43.762Z</time>
      </trkpt>
      <trkpt lat="46.84468" lon="4.75236">
        <ele>214.246941</ele>
        <time>2020-10-11T14:42:55.117Z</time>
      </trkpt>
      <trkpt lat="46.84478" lon="4.75236">
        <ele>214.308004</ele>
        <time>2020-10-11T14:42:57.602Z</time>
      </trkpt>
      <trkpt lat="46.84509" lon="4.75237">
        <ele>214.49177</ele>
        <time>2020-10-11T14:43:04.885Z</time>
      </trkpt>
      <trkpt lat="46.84535" lon="4.75244">
        <ele>214.654762</ele>
        <time>2020-10-11T14:43:11.586Z</time>
      </trkpt>
      <trkpt lat="46.84557" lon="4.75253">
        <ele>214.792247</ele>
        <time>2020-10-11T14:43:17.609Z</time>
      </trkpt>
      <trkpt lat="46.8465" lon="4.75304">
        <ele>215.794071</ele>
        <time>2020-10-11T14:43:44.267Z</time>
      </trkpt>
      <trkpt lat="46.84696" lon="4.75331">
        <ele>216.334676</ele>
        <time>2020-10-11T14:43:57.755Z</time>
      </trkpt>
      <trkpt lat="46.84751" lon="4.75362">
        <ele>216.995899</ele>
        <time>2020-10-11T14:44:13.710Z</time>
      </trkpt>
      <trkpt lat="46.84832" lon="4.75405">
        <ele>218.070935</ele>
        <time>2020-10-11T14:44:37.176Z</time>
      </trkpt>
      <trkpt lat="46.84935" lon="4.7544">
        <ele>219.509486</ele>
        <time>2020-10-11T14:45:06.517Z</time>
      </trkpt>
      <trkpt lat="46.84962" lon="4.75444">
        <ele>220.003678</ele>
        <time>2020-10-11T14:45:14.670Z</time>
      </trkpt>
      <trkpt lat="46.84996" lon="4.75443">
        <ele>220.63684</ele>
        <time>2020-10-11T14:45:25.334Z</time>
      </trkpt>
      <trkpt lat="46.85067" lon="4.75445">
        <ele>221.946003</ele>
        <time>2020-10-11T14:45:48.089Z</time>
      </trkpt>
      <trkpt lat="46.85106" lon="4.75447">
        <ele>222.690603</ele>
        <time>2020-10-11T14:46:00.865Z</time>
      </trkpt>
      <trkpt lat="46.85206" lon="4.75448">
        <ele>224.820726</ele>
        <time>2020-10-11T14:46:34.249Z</time>
      </trkpt>
      <trkpt lat="46.85296" lon="4.7544">
        <ele>226.536221</ele>
        <time>2020-10-11T14:47:03.391Z</time>
      </trkpt>
      <trkpt lat="46.85334" lon="4.75431">
        <ele>226.995947</ele>
        <time>2020-10-11T14:47:15.105Z</time>
      </trkpt>
      <trkpt lat="46.85355" lon="4.75422">
        <ele>227.254939</ele>
        <time>2020-10-11T14:47:21.657Z</time>
      </trkpt>
      <trkpt lat="46.85377" lon="4.75411">
        <ele>227.529624</ele>
        <time>2020-10-11T14:47:29.086Z</time>
      </trkpt>
      <trkpt lat="46.85419" lon="4.75381">
        <ele>228.084183</ele>
        <time>2020-10-11T14:47:40.414Z</time>
      </trkpt>
      <trkpt lat="46.85473" lon="4.7533">
        <ele>227.964044</ele>
        <time>2020-10-11T14:47:53.423Z</time>
      </trkpt>
      <trkpt lat="46.85498" lon="4.75306">
        <ele>227.60088</ele>
        <time>2020-10-11T14:47:58.934Z</time>
      </trkpt>
      <trkpt lat="46.85516" lon="4.75289">
        <ele>227.339168</ele>
        <time>2020-10-11T14:48:02.560Z</time>
      </trkpt>
      <trkpt lat="46.85537" lon="4.75272">
        <ele>227.041136</ele>
        <time>2020-10-11T14:48:06.189Z</time>
      </trkpt>
      <trkpt lat="46.85594" lon="4.7525">
        <ele>226.33061</ele>
        <time>2020-10-11T14:48:15.397Z</time>
      </trkpt>
      <trkpt lat="46.85661" lon="4.75247">
        <ele>225.017404</ele>
        <time>2020-10-11T14:48:25.611Z</time>
      </trkpt>
      <trkpt lat="46.85671" lon="4.75248">
        <ele>224.80509</ele>
        <time>2020-10-11T14:48:27.005Z</time>
      </trkpt>
      <trkpt lat="46.8569" lon="4.75248">
        <ele>224.427936</ele>
        <time>2020-10-11T14:48:29.928Z</time>
      </trkpt>
      <trkpt lat="46.85721" lon="4.75248">
        <ele>223.791081</ele>
        <time>2020-10-11T14:48:34.852Z</time>
      </trkpt>
      <trkpt lat="46.85891" lon="4.75247">
        <ele>219.811387</ele>
        <time>2020-10-11T14:49:00.803Z</time>
      </trkpt>
      <trkpt lat="46.8591" lon="4.75248">
        <ele>219.325361</ele>
        <time>2020-10-11T14:49:03.586Z</time>
      </trkpt>
      <trkpt lat="46.85969" lon="4.75249">
        <ele>217.838774</ele>
        <time>2020-10-11T14:49:11.917Z</time>
      </trkpt>
      <trkpt lat="46.86048" lon="4.75247">
        <ele>215.610325</ele>
        <time>2020-10-11T14:49:23.029Z</time>
      </trkpt>
      <trkpt lat="46.86113" lon="4.75246">
        <ele>213.768569</ele>
        <time>2020-10-11T14:49:32.401Z</time>
      </trkpt>
      <trkpt lat="46.86206" lon="4.75247">
        <ele>212.256415</ele>
        <time>2020-10-11T14:49:47.123Z</time>
      </trkpt>
      <trkpt lat="46.86364" lon="4.75243">
        <ele>211.040436</ele>
        <time>2020-10-11T14:50:15.895Z</time>
      </trkpt>
      <trkpt lat="46.86517" lon="4.75245">
        <ele>211.250827</ele>
        <time>2020-10-11T14:50:49.433Z</time>
      </trkpt>
      <trkpt lat="46.8652" lon="4.75245">
        <ele>211.274781</ele>
        <time>2020-10-11T14:50:50.087Z</time>
      </trkpt>
      <trkpt lat="46.86669" lon="4.75243">
        <ele>212.594932</ele>
        <time>2020-10-11T14:51:28.893Z</time>
      </trkpt>
      <trkpt lat="46.8717" lon="4.75239">
        <ele>218.135004</ele>
        <time>2020-10-11T14:53:47.703Z</time>
      </trkpt>
      <trkpt lat="46.87334" lon="4.75238">
        <ele>217.811684</ele>
        <time>2020-10-11T14:54:20.077Z</time>
      </trkpt>
      <trkpt lat="46.87521" lon="4.75237">
        <ele>215.714884</ele>
        <time>2020-10-11T14:54:50.211Z</time>
      </trkpt>
      <trkpt lat="46.8767" lon="4.75237">
        <ele>214.520205</ele>
        <time>2020-10-11T14:55:14.973Z</time>
      </trkpt>
      <trkpt lat="46.8768" lon="4.75237">
        <ele>214.477871</ele>
        <time>2020-10-11T14:55:17.005Z</time>
      </trkpt>
      <trkpt lat="46.8778" lon="4.75236">
        <ele>214.418389</ele>
        <time>2020-10-11T14:55:39.902Z</time>
      </trkpt>
      <trkpt lat="46.8782" lon="4.75236">
        <ele>214.969289</ele>
        <time>2020-10-11T14:55:51.023Z</time>
      </trkpt>
      <trkpt lat="46.87877" lon="4.75243">
        <ele>215.760276</ele>
        <time>2020-10-11T14:56:07.973Z</time>
      </trkpt>
      <trkpt lat="46.87888" lon="4.75246">
        <ele>215.916115</ele>
        <time>2020-10-11T14:56:11.856Z</time>
      </trkpt>
      <trkpt lat="46.87894" lon="4.7525">
        <ele>216.002214</ele>
        <time>2020-10-11T14:56:13.835Z</time>
      </trkpt>
      <trkpt lat="46.87905" lon="4.75255">
        <ele>216.154872</ele>
        <time>2020-10-11T14:56:16.932Z</time>
      </trkpt>
      <trkpt lat="46.87907" lon="4.75256">
        <ele>216.186412</ele>
        <time>2020-10-11T14:56:17.610Z</time>
      </trkpt>
      <trkpt lat="46.87908" lon="4.75259">
        <ele>216.222257</ele>
        <time>2020-10-11T14:56:18.346Z</time>
      </trkpt>
      <trkpt lat="46.87912" lon="4.75263">
        <ele>216.289121</ele>
        <time>2020-10-11T14:56:19.790Z</time>
      </trkpt>
      <trkpt lat="46.87913" lon="4.75263">
        <ele>216.303712</ele>
        <time>2020-10-11T14:56:20.168Z</time>
      </trkpt>
      <trkpt lat="46.87915" lon="4.75264">
        <ele>216.321221</ele>
        <time>2020-10-11T14:56:20.625Z</time>
      </trkpt>
      <trkpt lat="46.87923" lon="4.75261">
        <ele>216.445767</ele>
        <time>2020-10-11T14:56:23.673Z</time>
      </trkpt>
      <trkpt lat="46.87925" lon="4.75259">
        <ele>216.479393</ele>
        <time>2020-10-11T14:56:24.455Z</time>
      </trkpt>
      <trkpt lat="46.87926" lon="4.75256">
        <ele>216.511337</ele>
        <time>2020-10-11T14:56:25.170Z</time>
      </trkpt>
      <trkpt lat="46.87934" lon="4.7525">
        <ele>216.633148</ele>
        <time>2020-10-11T14:56:27.632Z</time>
      </trkpt>
      <trkpt lat="46.87937" lon="4.75248">
        <ele>216.671325</ele>
        <time>2020-10-11T14:56:28.412Z</time>
      </trkpt>
      <trkpt lat="46.87946" lon="4.75241">
        <ele>216.80966</ele>
        <time>2020-10-11T14:56:31.440Z</time>
      </trkpt>
      <trkpt lat="46.87961" lon="4.75238">
        <ele>217.025251</ele>
        <time>2020-10-11T14:56:36.444Z</time>
      </trkpt>
      <trkpt lat="46.8798" lon="4.75236">
        <ele>217.285828</ele>
        <time>2020-10-11T14:56:41.558Z</time>
      </trkpt>
      <trkpt lat="46.88014" lon="4.75235">
        <ele>217.754577</ele>
        <time>2020-10-11T14:56:51.411Z</time>
      </trkpt>
      <trkpt lat="46.88112" lon="4.75234">
        <ele>219.109363</ele>
        <time>2020-10-11T14:57:18.987Z</time>
      </trkpt>
      <trkpt lat="46.88304" lon="4.75232">
        <ele>221.019438</ele>
        <time>2020-10-11T14:58:09.073Z</time>
      </trkpt>
      <trkpt lat="46.88542" lon="4.75231">
        <ele>223.400871</ele>
        <time>2020-10-11T14:59:12.012Z</time>
      </trkpt>
      <trkpt lat="46.8855" lon="4.7523">
        <ele>223.47831</ele>
        <time>2020-10-11T14:59:14.139Z</time>
      </trkpt>
      <trkpt lat="46.88743" lon="4.75229">
        <ele>225.022282</ele>
        <time>2020-10-11T15:00:04.647Z</time>
      </trkpt>
      <trkpt lat="46.88794" lon="4.75228">
        <ele>225.311828</ele>
        <time>2020-10-11T15:00:16.447Z</time>
      </trkpt>
      <trkpt lat="46.88909" lon="4.75227">
        <ele>225.272188</ele>
        <time>2020-10-11T15:00:39.400Z</time>
      </trkpt>
      <trkpt lat="46.89125" lon="4.75225">
        <ele>224.756931</ele>
        <time>2020-10-11T15:01:19.100Z</time>
      </trkpt>
      <trkpt lat="46.89401" lon="4.75225">
        <ele>225.905963</ele>
        <time>2020-10-11T15:02:24.203Z</time>
      </trkpt>
      <trkpt lat="46.89552" lon="4.75223">
        <ele>227.421286</ele>
        <time>2020-10-11T15:03:05.227Z</time>
      </trkpt>
      <trkpt lat="46.89589" lon="4.75223">
        <ele>227.88055</ele>
        <time>2020-10-11T15:03:15.340Z</time>
      </trkpt>
      <trkpt lat="46.89715" lon="4.75222">
        <ele>229.475357</ele>
        <time>2020-10-11T15:03:51.509Z</time>
      </trkpt>
      <trkpt lat="46.89755" lon="4.7522">
        <ele>229.75287</ele>
        <time>2020-10-11T15:04:02.103Z</time>
      </trkpt>
      <trkpt lat="46.89796" lon="4.75222">
        <ele>229.881603</ele>
        <time>2020-10-11T15:04:12.600Z</time>
      </trkpt>
      <trkpt lat="46.89898" lon="4.7522">
        <ele>230.19521</ele>
        <time>2020-10-11T15:04:34.778Z</time>
      </trkpt>
      <trkpt lat="46.89977" lon="4.75218">
        <ele>229.36601</ele>
        <time>2020-10-11T15:04:48.511Z</time>
      </trkpt>
      <trkpt lat="46.8999" lon="4.75217">
        <ele>229.1952</ele>
        <time>2020-10-11T15:04:50.542Z</time>
      </trkpt>
      <trkpt lat="46.90103" lon="4.75182">
        <ele>227.615744</ele>
        <time>2020-10-11T15:05:08.830Z</time>
      </trkpt>
      <trkpt lat="46.90115" lon="4.75184">
        <ele>227.413222</ele>
        <time>2020-10-11T15:05:10.683Z</time>
      </trkpt>
      <trkpt lat="46.90128" lon="4.7519">
        <ele>227.18969</ele>
        <time>2020-10-11T15:05:12.708Z</time>
      </trkpt>
      <trkpt lat="46.90157" lon="4.75209">
        <ele>226.662804</ele>
        <time>2020-10-11T15:05:17.618Z</time>
      </trkpt>
      <trkpt lat="46.90167" lon="4.75214">
        <ele>226.474949</ele>
        <time>2020-10-11T15:05:19.390Z</time>
      </trkpt>
      <trkpt lat="46.90177" lon="4.75216">
        <ele>226.318419</ele>
        <time>2020-10-11T15:05:20.803Z</time>
      </trkpt>
      <trkpt lat="46.90188" lon="4.75217">
        <ele>226.133038</ele>
        <time>2020-10-11T15:05:22.556Z</time>
      </trkpt>
      <trkpt lat="46.9023" lon="4.75216">
        <ele>225.424493</ele>
        <time>2020-10-11T15:05:29.305Z</time>
      </trkpt>
      <trkpt lat="46.90233" lon="4.75216">
        <ele>225.376152</ele>
        <time>2020-10-11T15:05:29.766Z</time>
      </trkpt>
      <trkpt lat="46.90238" lon="4.75216">
        <ele>225.29113</ele>
        <time>2020-10-11T15:05:30.594Z</time>
      </trkpt>
      <trkpt lat="46.90262" lon="4.75216">
        <ele>224.901004</ele>
        <time>2020-10-11T15:05:34.347Z</time>
      </trkpt>
      <trkpt lat="46.90286" lon="4.75215">
        <ele>224.702449</ele>
        <time>2020-10-11T15:05:38.357Z</time>
      </trkpt>
      <trkpt lat="46.90329" lon="4.75215">
        <ele>224.386964</ele>
        <time>2020-10-11T15:05:45.993Z</time>
      </trkpt>
      <trkpt lat="46.90407" lon="4.75214">
        <ele>223.825268</ele>
        <time>2020-10-11T15:06:00.236Z</time>
      </trkpt>
      <trkpt lat="46.90421" lon="4.75214">
        <ele>223.722752</ele>
        <time>2020-10-11T15:06:02.948Z</time>
      </trkpt>
      <trkpt lat="46.90488" lon="4.75215">
        <ele>223.188633</ele>
        <time>2020-10-11T15:06:15.612Z</time>
      </trkpt>
      <trkpt lat="46.90513" lon="4.75216">
        <ele>222.971497</ele>
        <time>2020-10-11T15:06:20.588Z</time>
      </trkpt>
      <trkpt lat="46.90525" lon="4.75223">
        <ele>222.859347</ele>
        <time>2020-10-11T15:06:22.922Z</time>
      </trkpt>
      <trkpt lat="46.90526" lon="4.75224">
        <ele>222.849594</ele>
        <time>2020-10-11T15:06:23.112Z</time>
      </trkpt>
      <trkpt lat="46.90525" lon="4.75226">
        <ele>222.832526</ele>
        <time>2020-10-11T15:06:23.544Z</time>
      </trkpt>
      <trkpt lat="46.90523" lon="4.75233">
        <ele>222.788172</ele>
        <time>2020-10-11T15:06:24.528Z</time>
      </trkpt>
      <trkpt lat="46.90523" lon="4.75237">
        <ele>222.762352</ele>
        <time>2020-10-11T15:06:25.201Z</time>
      </trkpt>
      <trkpt lat="46.90525" lon="4.75241">
        <ele>222.736586</ele>
        <time>2020-10-11T15:06:25.799Z</time>
      </trkpt>
      <trkpt lat="46.90528" lon="4.75246">
        <ele>222.695015</ele>
        <time>2020-10-11T15:06:26.723Z</time>
      </trkpt>
      <trkpt lat="46.90531" lon="4.75247">
        <ele>222.673227</ele>
        <time>2020-10-11T15:06:27.216Z</time>
      </trkpt>
      <trkpt lat="46.90531" lon="4.75247">
        <ele>222.66897</ele>
        <time>2020-10-11T15:06:27.284Z</time>
      </trkpt>
      <trkpt lat="46.9054" lon="4.75234">
        <ele>222.565986</ele>
        <time>2020-10-11T15:06:29.399Z</time>
      </trkpt>
      <trkpt lat="46.9054" lon="4.75229">
        <ele>222.534737</ele>
        <time>2020-10-11T15:06:30.022Z</time>
      </trkpt>
      <trkpt lat="46.90544" lon="4.75227">
        <ele>222.49396</ele>
        <time>2020-10-11T15:06:30.929Z</time>
      </trkpt>
      <trkpt lat="46.90549" lon="4.75225">
        <ele>222.447268</ele>
        <time>2020-10-11T15:06:32.015Z</time>
      </trkpt>
      <trkpt lat="46.90562" lon="4.75226">
        <ele>222.338213</ele>
        <time>2020-10-11T15:06:34.250Z</time>
      </trkpt>
      <trkpt lat="46.90566" lon="4.75227">
        <ele>222.305526</ele>
        <time>2020-10-11T15:06:34.816Z</time>
      </trkpt>
      <trkpt lat="46.90694" lon="4.75297">
        <ele>219.844787</ele>
        <time>2020-10-11T15:06:56.132Z</time>
      </trkpt>
      <trkpt lat="46.90725" lon="4.75309">
        <ele>219.169953</ele>
        <time>2020-10-11T15:07:00.857Z</time>
      </trkpt>
      <trkpt lat="46.90744" lon="4.75317">
        <ele>218.739886</ele>
        <time>2020-10-11T15:07:03.837Z</time>
      </trkpt>
      <trkpt lat="46.90759" lon="4.75321">
        <ele>218.425886</ele>
        <time>2020-10-11T15:07:06.078Z</time>
      </trkpt>
      <trkpt lat="46.90779" lon="4.75317">
        <ele>217.959419</ele>
        <time>2020-10-11T15:07:08.959Z</time>
      </trkpt>
      <trkpt lat="46.90794" lon="4.75312">
        <ele>217.564863</ele>
        <time>2020-10-11T15:07:11.245Z</time>
      </trkpt>
      <trkpt lat="46.90805" lon="4.75309">
        <ele>217.274808</ele>
        <time>2020-10-11T15:07:12.863Z</time>
      </trkpt>
      <trkpt lat="46.90818" lon="4.75309">
        <ele>216.938175</ele>
        <time>2020-10-11T15:07:14.766Z</time>
      </trkpt>
      <trkpt lat="46.90846" lon="4.75319">
        <ele>216.183379</ele>
        <time>2020-10-11T15:07:19.021Z</time>
      </trkpt>
      <trkpt lat="46.90864" lon="4.75327">
        <ele>215.708758</ele>
        <time>2020-10-11T15:07:21.705Z</time>
      </trkpt>
      <trkpt lat="46.90901" lon="4.75344">
        <ele>214.713631</ele>
        <time>2020-10-11T15:07:27.302Z</time>
      </trkpt>
      <trkpt lat="46.90925" lon="4.75356">
        <ele>214.055181</ele>
        <time>2020-10-11T15:07:31.095Z</time>
      </trkpt>
      <trkpt lat="46.90944" lon="4.75366">
        <ele>213.559911</ele>
        <time>2020-10-11T15:07:34.150Z</time>
      </trkpt>
      <trkpt lat="46.90949" lon="4.75368">
        <ele>213.481255</ele>
        <time>2020-10-11T15:07:34.870Z</time>
      </trkpt>
      <trkpt lat="46.90954" lon="4.75372">
        <ele>213.382264</ele>
        <time>2020-10-11T15:07:35.782Z</time>
      </trkpt>
      <trkpt lat="46.90965" lon="4.7538">
        <ele>213.176684</ele>
        <time>2020-10-11T15:07:37.740Z</time>
      </trkpt>
      <trkpt lat="46.9102" lon="4.7543">
        <ele>212.089176</ele>
        <time>2020-10-11T15:07:48.024Z</time>
      </trkpt>
      <trkpt lat="46.91026" lon="4.75435">
        <ele>211.969417</ele>
        <time>2020-10-11T15:07:49.203Z</time>
      </trkpt>
      <trkpt lat="46.91041" lon="4.75449">
        <ele>211.665405</ele>
        <time>2020-10-11T15:07:52.031Z</time>
      </trkpt>
      <trkpt lat="46.91081" lon="4.75485">
        <ele>210.870471</ele>
        <time>2020-10-11T15:07:59.540Z</time>
      </trkpt>
      <trkpt lat="46.91087" lon="4.75491">
        <ele>210.741694</ele>
        <time>2020-10-11T15:08:00.788Z</time>
      </trkpt>
      <trkpt lat="46.91089" lon="4.75492">
        <ele>210.71644</ele>
        <time>2020-10-11T15:08:01.053Z</time>
      </trkpt>
      <trkpt lat="46.91099" lon="4.75498">
        <ele>210.549059</ele>
        <time>2020-10-11T15:08:02.791Z</time>
      </trkpt>
      <trkpt lat="46.91117" lon="4.75504">
        <ele>210.344845</ele>
        <time>2020-10-11T15:08:05.765Z</time>
      </trkpt>
      <trkpt lat="46.91142" lon="4.75495">
        <ele>210.075704</ele>
        <time>2020-10-11T15:08:10.055Z</time>
      </trkpt>
      <trkpt lat="46.91169" lon="4.75475">
        <ele>209.750676</ele>
        <time>2020-10-11T15:08:15.034Z</time>
      </trkpt>
      <trkpt lat="46.91176" lon="4.75468">
        <ele>209.652339</ele>
        <time>2020-10-11T15:08:16.623Z</time>
      </trkpt>
      <trkpt lat="46.91184" lon="4.75462">
        <ele>209.557891</ele>
        <time>2020-10-11T15:08:18.008Z</time>
      </trkpt>
      <trkpt lat="46.91229" lon="4.75405">
        <ele>208.921549</ele>
        <time>2020-10-11T15:08:28.779Z</time>
      </trkpt>
      <trkpt lat="46.91236" lon="4.75393">
        <ele>208.805564</ele>
        <time>2020-10-11T15:08:30.424Z</time>
      </trkpt>
      <trkpt lat="46.91244" lon="4.75409">
        <ele>208.66449</ele>
        <time>2020-10-11T15:08:33.753Z</time>
      </trkpt>
      <trkpt lat="46.91247" lon="4.75413">
        <ele>208.643574</ele>
        <time>2020-10-11T15:08:35.264Z</time>
      </trkpt>
      <trkpt lat="46.91255" lon="4.75423">
        <ele>208.634178</ele>
        <time>2020-10-11T15:08:37.844Z</time>
      </trkpt>
      <trkpt lat="46.9126" lon="4.75426">
        <ele>208.629236</ele>
        <time>2020-10-11T15:08:38.992Z</time>
      </trkpt>
      <trkpt lat="46.91277" lon="4.75438">
        <ele>208.612034</ele>
        <time>2020-10-11T15:08:43.785Z</time>
      </trkpt>
      <trkpt lat="46.91301" lon="4.75459">
        <ele>208.586012</ele>
        <time>2020-10-11T15:08:50.841Z</time>
      </trkpt>
      <trkpt lat="46.91304" lon="4.75461">
        <ele>208.582718</ele>
        <time>2020-10-11T15:08:51.712Z</time>
      </trkpt>
      <trkpt lat="46.91312" lon="4.75465">
        <ele>208.574643</ele>
        <time>2020-10-11T15:08:54.534Z</time>
      </trkpt>
      <trkpt lat="46.91383" lon="4.75534">
        <ele>208.495499</ele>
        <time>2020-10-11T15:09:19.211Z</time>
      </trkpt>
      <trkpt lat="46.91407" lon="4.75559">
        <ele>208.465683</ele>
        <time>2020-10-11T15:09:28.984Z</time>
      </trkpt>
      <trkpt lat="46.91412" lon="4.75565">
        <ele>208.458808</ele>
        <time>2020-10-11T15:09:30.853Z</time>
      </trkpt>
      <trkpt lat="46.91436" lon="4.75573">
        <ele>208.431373</ele>
        <time>2020-10-11T15:09:38.953Z</time>
      </trkpt>
      <trkpt lat="46.91445" lon="4.75573">
        <ele>208.421728</ele>
        <time>2020-10-11T15:09:41.602Z</time>
      </trkpt>
      <trkpt lat="46.91457" lon="4.7557">
        <ele>208.407754</ele>
        <time>2020-10-11T15:09:45.308Z</time>
      </trkpt>
      <trkpt lat="46.9146" lon="4.7557">
        <ele>208.404873</ele>
        <time>2020-10-11T15:09:45.970Z</time>
      </trkpt>
      <trkpt lat="46.91472" lon="4.75607">
        <ele>208.373547</ele>
        <time>2020-10-11T15:09:51.646Z</time>
      </trkpt>
      <trkpt lat="46.91501" lon="4.7568">
        <ele>208.310418</ele>
        <time>2020-10-11T15:10:02.769Z</time>
      </trkpt>
      <trkpt lat="46.9152" lon="4.75687">
        <ele>208.288497</ele>
        <time>2020-10-11T15:10:06.251Z</time>
      </trkpt>
      <trkpt lat="46.91538" lon="4.75688">
        <ele>208.146461</ele>
        <time>2020-10-11T15:10:09.656Z</time>
      </trkpt>
      <trkpt lat="46.91555" lon="4.75676">
        <ele>207.919028</ele>
        <time>2020-10-11T15:10:12.726Z</time>
      </trkpt>
      <trkpt lat="46.91563" lon="4.75666">
        <ele>207.793009</ele>
        <time>2020-10-11T15:10:14.708Z</time>
      </trkpt>
      <trkpt lat="46.91575" lon="4.75644">
        <ele>207.557195</ele>
        <time>2020-10-11T15:10:18.098Z</time>
      </trkpt>
      <trkpt lat="46.9164" lon="4.75521">
        <ele>206.261173</ele>
        <time>2020-10-11T15:10:35.289Z</time>
      </trkpt>
      <trkpt lat="46.91641" lon="4.75514">
        <ele>206.201879</ele>
        <time>2020-10-11T15:10:35.993Z</time>
      </trkpt>
      <trkpt lat="46.91662" lon="4.7549">
        <ele>205.890449</ele>
        <time>2020-10-11T15:10:40.245Z</time>
      </trkpt>
      <trkpt lat="46.91682" lon="4.75465">
        <ele>205.595821</ele>
        <time>2020-10-11T15:10:44.440Z</time>
      </trkpt>
      <trkpt lat="46.91734" lon="4.754">
        <ele>204.816098</ele>
        <time>2020-10-11T15:10:55.920Z</time>
      </trkpt>
      <trkpt lat="46.91755" lon="4.75373">
        <ele>204.494952</ele>
        <time>2020-10-11T15:11:00.633Z</time>
      </trkpt>
      <trkpt lat="46.91764" lon="4.75361">
        <ele>204.352797</ele>
        <time>2020-10-11T15:11:03.018Z</time>
      </trkpt>
      <trkpt lat="46.91767" lon="4.75364">
        <ele>204.316007</ele>
        <time>2020-10-11T15:11:03.543Z</time>
      </trkpt>
      <trkpt lat="46.91775" lon="4.75373">
        <ele>204.19368</ele>
        <time>2020-10-11T15:11:05.512Z</time>
      </trkpt>
      <trkpt lat="46.91784" lon="4.7538">
        <ele>204.077617</ele>
        <time>2020-10-11T15:11:07.212Z</time>
      </trkpt>
      <trkpt lat="46.91789" lon="4.75385">
        <ele>204.022597</ele>
        <time>2020-10-11T15:11:08.384Z</time>
      </trkpt>
      <trkpt lat="46.91804" lon="4.75417">
        <ele>203.908423</ele>
        <time>2020-10-11T15:11:13.067Z</time>
      </trkpt>
      <trkpt lat="46.91805" lon="4.75418">
        <ele>203.90352</ele>
        <time>2020-10-11T15:11:13.238Z</time>
      </trkpt>
      <trkpt lat="46.91881" lon="4.7557">
        <ele>203.344557</ele>
        <time>2020-10-11T15:11:37.665Z</time>
      </trkpt>
      <trkpt lat="46.91909" lon="4.75598">
        <ele>203.248241</ele>
        <time>2020-10-11T15:11:44.571Z</time>
      </trkpt>
      <trkpt lat="46.91943" lon="4.75623">
        <ele>203.241968</ele>
        <time>2020-10-11T15:11:52.382Z</time>
      </trkpt>
      <trkpt lat="46.92059" lon="4.75664">
        <ele>203.222103</ele>
        <time>2020-10-11T15:12:17.314Z</time>
      </trkpt>
      <trkpt lat="46.92088" lon="4.75689">
        <ele>203.255058</ele>
        <time>2020-10-11T15:12:24.308Z</time>
      </trkpt>
      <trkpt lat="46.92233" lon="4.75849">
        <ele>203.604503</ele>
        <time>2020-10-11T15:13:03.260Z</time>
      </trkpt>
      <trkpt lat="46.92291" lon="4.75904">
        <ele>203.924434</ele>
        <time>2020-10-11T15:13:19.450Z</time>
      </trkpt>
      <trkpt lat="46.92325" lon="4.75932">
        <ele>204.100962</ele>
        <time>2020-10-11T15:13:28.909Z</time>
      </trkpt>
      <trkpt lat="46.9234" lon="4.7594">
        <ele>204.175639</ele>
        <time>2020-10-11T15:13:33.193Z</time>
      </trkpt>
      <trkpt lat="46.92358" lon="4.75941">
        <ele>204.255888</ele>
        <time>2020-10-11T15:13:37.169Z</time>
      </trkpt>
      <trkpt lat="46.92409" lon="4.75923">
        <ele>204.472141</ele>
        <time>2020-10-11T15:13:49.938Z</time>
      </trkpt>
      <trkpt lat="46.92412" lon="4.75921">
        <ele>204.484775</ele>
        <time>2020-10-11T15:13:51.068Z</time>
      </trkpt>
      <trkpt lat="46.92433" lon="4.75907">
        <ele>204.573573</ele>
        <time>2020-10-11T15:13:55.933Z</time>
      </trkpt>
      <trkpt lat="46.92447" lon="4.75906">
        <ele>204.62924</ele>
        <time>2020-10-11T15:13:59.750Z</time>
      </trkpt>
      <trkpt lat="46.92458" lon="4.75916">
        <ele>204.68182</ele>
        <time>2020-10-11T15:14:02.477Z</time>
      </trkpt>
      <trkpt lat="46.92538" lon="4.7603">
        <ele>204.964882</ele>
        <time>2020-10-11T15:14:27.469Z</time>
      </trkpt>
      <trkpt lat="46.92562" lon="4.76137">
        <ele>204.78137</ele>
        <time>2020-10-11T15:14:42.517Z</time>
      </trkpt>
      <trkpt lat="46.92612" lon="4.76281">
        <ele>204.433982</ele>
        <time>2020-10-11T15:15:03.247Z</time>
      </trkpt>
      <trkpt lat="46.92693" lon="4.76443">
        <ele>203.739117</ele>
        <time>2020-10-11T15:15:28.670Z</time>
      </trkpt>
      <trkpt lat="46.92725" lon="4.76535">
        <ele>203.445232</ele>
        <time>2020-10-11T15:15:41.871Z</time>
      </trkpt>
      <trkpt lat="46.92747" lon="4.76575">
        <ele>203.306494</ele>
        <time>2020-10-11T15:15:48.454Z</time>
      </trkpt>
      <trkpt lat="46.92801" lon="4.76639">
        <ele>203.025725</ele>
        <time>2020-10-11T15:16:01.835Z</time>
      </trkpt>
      <trkpt lat="46.92834" lon="4.76683">
        <ele>202.795563</ele>
        <time>2020-10-11T15:16:10.391Z</time>
      </trkpt>
      <trkpt lat="46.92885" lon="4.76758">
        <ele>202.384894</ele>
        <time>2020-10-11T15:16:23.838Z</time>
      </trkpt>
      <trkpt lat="46.92908" lon="4.76795">
        <ele>202.189889</ele>
        <time>2020-10-11T15:16:30.107Z</time>
      </trkpt>
      <trkpt lat="46.92919" lon="4.76822">
        <ele>202.070168</ele>
        <time>2020-10-11T15:16:33.917Z</time>
      </trkpt>
      <trkpt lat="46.9292" lon="4.76833">
        <ele>202.025171</ele>
        <time>2020-10-11T15:16:35.331Z</time>
      </trkpt>
      <trkpt lat="46.92913" lon="4.7686">
        <ele>201.89218</ele>
        <time>2020-10-11T15:16:38.909Z</time>
      </trkpt>
      <trkpt lat="46.92908" lon="4.76871">
        <ele>201.800645</ele>
        <time>2020-10-11T15:16:40.514Z</time>
      </trkpt>
      <trkpt lat="46.92876" lon="4.76941">
        <ele>201.228248</ele>
        <time>2020-10-11T15:16:50.290Z</time>
      </trkpt>
      <trkpt lat="46.92811" lon="4.77036">
        <ele>200.317916</ele>
        <time>2020-10-11T15:17:05.746Z</time>
      </trkpt>
      <trkpt lat="46.92801" lon="4.77061">
        <ele>200.124358</ele>
        <time>2020-10-11T15:17:09.091Z</time>
      </trkpt>
      <trkpt lat="46.92794" lon="4.77097">
        <ele>199.917245</ele>
        <time>2020-10-11T15:17:13.410Z</time>
      </trkpt>
      <trkpt lat="46.92744" lon="4.77372">
        <ele>198.569295</ele>
        <time>2020-10-11T15:17:48.160Z</time>
      </trkpt>
      <trkpt lat="46.92738" lon="4.77643">
        <ele>198.230978</ele>
        <time>2020-10-11T15:18:25.620Z</time>
      </trkpt>
      <trkpt lat="46.92716" lon="4.77838">
        <ele>198.24095</ele>
        <time>2020-10-11T15:18:54.055Z</time>
      </trkpt>
      <trkpt lat="46.92718" lon="4.77896">
        <ele>198.284993</ele>
        <time>2020-10-11T15:19:02.485Z</time>
      </trkpt>
      <trkpt lat="46.92737" lon="4.77977">
        <ele>198.35034</ele>
        <time>2020-10-11T15:19:15.113Z</time>
      </trkpt>
      <trkpt lat="46.92758" lon="4.78033">
        <ele>198.398472</ele>
        <time>2020-10-11T15:19:24.532Z</time>
      </trkpt>
      <trkpt lat="46.92813" lon="4.78127">
        <ele>198.507412</ele>
        <time>2020-10-11T15:19:43.032Z</time>
      </trkpt>
      <trkpt lat="46.92845" lon="4.78168">
        <ele>198.566904</ele>
        <time>2020-10-11T15:19:52.262Z</time>
      </trkpt>
      <trkpt lat="46.92873" lon="4.78205">
        <ele>198.618978</ele>
        <time>2020-10-11T15:20:00.336Z</time>
      </trkpt>
      <trkpt lat="46.92885" lon="4.78235">
        <ele>198.651882</ele>
        <time>2020-10-11T15:20:05.325Z</time>
      </trkpt>
      <trkpt lat="46.92923" lon="4.78339">
        <ele>198.696306</ele>
        <time>2020-10-11T15:20:22.353Z</time>
      </trkpt>
      <trkpt lat="46.92946" lon="4.78393">
        <ele>198.703117</ele>
        <time>2020-10-11T15:20:31.339Z</time>
      </trkpt>
      <trkpt lat="46.92965" lon="4.78434">
        <ele>198.708391</ele>
        <time>2020-10-11T15:20:38.159Z</time>
      </trkpt>
      <trkpt lat="46.93019" lon="4.78528">
        <ele>198.776033</ele>
        <time>2020-10-11T15:20:55.683Z</time>
      </trkpt>
      <trkpt lat="46.93021" lon="4.78531">
        <ele>198.780017</ele>
        <time>2020-10-11T15:20:56.183Z</time>
      </trkpt>
      <trkpt lat="46.93189" lon="4.78844">
        <ele>199.430371</ele>
        <time>2020-10-11T15:21:56.454Z</time>
      </trkpt>
      <trkpt lat="46.93229" lon="4.78897">
        <ele>199.599433</ele>
        <time>2020-10-11T15:22:09.169Z</time>
      </trkpt>
      <trkpt lat="46.93233" lon="4.789">
        <ele>199.611906</ele>
        <time>2020-10-11T15:22:10.663Z</time>
      </trkpt>
      <trkpt lat="46.93278" lon="4.78925">
        <ele>199.728261</ele>
        <time>2020-10-11T15:22:22.050Z</time>
      </trkpt>
      <trkpt lat="46.93442" lon="4.78998">
        <ele>199.94922</ele>
        <time>2020-10-11T15:22:58.576Z</time>
      </trkpt>
      <trkpt lat="46.93609" lon="4.78986">
        <ele>199.971808</ele>
        <time>2020-10-11T15:23:30.563Z</time>
      </trkpt>
      <trkpt lat="46.9363" lon="4.78984">
        <ele>200.094618</ele>
        <time>2020-10-11T15:23:34.946Z</time>
      </trkpt>
      <trkpt lat="46.94105" lon="4.79055">
        <ele>203.150556</ele>
        <time>2020-10-11T15:25:34.277Z</time>
      </trkpt>
      <trkpt lat="46.9419" lon="4.79104">
        <ele>203.543998</ele>
        <time>2020-10-11T15:25:56.098Z</time>
      </trkpt>
      <trkpt lat="46.94213" lon="4.79122">
        <ele>203.653826</ele>
        <time>2020-10-11T15:26:02.186Z</time>
      </trkpt>
      <trkpt lat="46.94272" lon="4.79166">
        <ele>203.929835</ele>
        <time>2020-10-11T15:26:16.918Z</time>
      </trkpt>
      <trkpt lat="46.94298" lon="4.79168">
        <ele>203.914229</ele>
        <time>2020-10-11T15:26:22.392Z</time>
      </trkpt>
      <trkpt lat="46.94307" lon="4.79165">
        <ele>203.907805</ele>
        <time>2020-10-11T15:26:24.338Z</time>
      </trkpt>
      <trkpt lat="46.94324" lon="4.79159">
        <ele>203.895322</ele>
        <time>2020-10-11T15:26:28.188Z</time>
      </trkpt>
      <trkpt lat="46.94361" lon="4.79135">
        <ele>203.867923</ele>
        <time>2020-10-11T15:26:36.282Z</time>
      </trkpt>
      <trkpt lat="46.94395" lon="4.79125">
        <ele>203.84379</ele>
        <time>2020-10-11T15:26:43.290Z</time>
      </trkpt>
      <trkpt lat="46.94557" lon="4.79148">
        <ele>203.770007</ele>
        <time>2020-10-11T15:27:15.437Z</time>
      </trkpt>
      <trkpt lat="46.94589" lon="4.79135">
        <ele>203.758538</ele>
        <time>2020-10-11T15:27:22.553Z</time>
      </trkpt>
      <trkpt lat="46.94594" lon="4.79132">
        <ele>203.756968</ele>
        <time>2020-10-11T15:27:23.447Z</time>
      </trkpt>
      <trkpt lat="46.94649" lon="4.79103">
        <ele>203.897691</ele>
        <time>2020-10-11T15:27:36.483Z</time>
      </trkpt>
      <trkpt lat="46.94663" lon="4.79096">
        <ele>203.975691</ele>
        <time>2020-10-11T15:27:39.778Z</time>
      </trkpt>
      <trkpt lat="46.94693" lon="4.79093">
        <ele>204.144641</ele>
        <time>2020-10-11T15:27:47.314Z</time>
      </trkpt>
      <trkpt lat="46.94765" lon="4.79112">
        <ele>204.544737</ele>
        <time>2020-10-11T15:28:05.345Z</time>
      </trkpt>
      <trkpt lat="46.94807" lon="4.79143">
        <ele>204.775703</ele>
        <time>2020-10-11T15:28:17.063Z</time>
      </trkpt>
      <trkpt lat="46.94812" lon="4.79159">
        <ele>204.81477</ele>
        <time>2020-10-11T15:28:20.122Z</time>
      </trkpt>
      <trkpt lat="46.94821" lon="4.79186">
        <ele>204.880062</ele>
        <time>2020-10-11T15:28:24.716Z</time>
      </trkpt>
      <trkpt lat="46.94851" lon="4.79217">
        <ele>205.00005</ele>
        <time>2020-10-11T15:28:33.304Z</time>
      </trkpt>
      <trkpt lat="46.95007" lon="4.79296">
        <ele>205.387438</ele>
        <time>2020-10-11T15:29:08.781Z</time>
      </trkpt>
      <trkpt lat="46.95025" lon="4.79305">
        <ele>205.407436</ele>
        <time>2020-10-11T15:29:12.649Z</time>
      </trkpt>
      <trkpt lat="46.9507" lon="4.79344">
        <ele>205.46211</ele>
        <time>2020-10-11T15:29:23.637Z</time>
      </trkpt>
      <trkpt lat="46.95074" lon="4.79348">
        <ele>205.467601</ele>
        <time>2020-10-11T15:29:24.722Z</time>
      </trkpt>
      <trkpt lat="46.9508" lon="4.79353">
        <ele>205.474743</ele>
        <time>2020-10-11T15:29:26.144Z</time>
      </trkpt>
      <trkpt lat="46.95086" lon="4.79358">
        <ele>205.481414</ele>
        <time>2020-10-11T15:29:27.474Z</time>
      </trkpt>
      <trkpt lat="46.95172" lon="4.79436">
        <ele>205.784381</ele>
        <time>2020-10-11T15:29:49.997Z</time>
      </trkpt>
      <trkpt lat="46.95188" lon="4.79456">
        <ele>205.861469</ele>
        <time>2020-10-11T15:29:55.044Z</time>
      </trkpt>
      <trkpt lat="46.95191" lon="4.79459">
        <ele>205.873254</ele>
        <time>2020-10-11T15:29:55.934Z</time>
      </trkpt>
      <trkpt lat="46.9519" lon="4.7946">
        <ele>205.879887</ele>
        <time>2020-10-11T15:29:56.342Z</time>
      </trkpt>
      <trkpt lat="46.95189" lon="4.79463">
        <ele>205.886722</ele>
        <time>2020-10-11T15:29:56.752Z</time>
      </trkpt>
      <trkpt lat="46.95188" lon="4.79466">
        <ele>205.893438</ele>
        <time>2020-10-11T15:29:57.162Z</time>
      </trkpt>
      <trkpt lat="46.95188" lon="4.79468">
        <ele>205.900011</ele>
        <time>2020-10-11T15:29:57.582Z</time>
      </trkpt>
      <trkpt lat="46.95189" lon="4.79471">
        <ele>205.906579</ele>
        <time>2020-10-11T15:29:58.067Z</time>
      </trkpt>
      <trkpt lat="46.95194" lon="4.79475">
        <ele>205.925753</ele>
        <time>2020-10-11T15:29:59.275Z</time>
      </trkpt>
      <trkpt lat="46.95195" lon="4.79475">
        <ele>205.932536</ele>
        <time>2020-10-11T15:29:59.690Z</time>
      </trkpt>
      <trkpt lat="46.95197" lon="4.79474">
        <ele>205.93906</ele>
        <time>2020-10-11T15:30:00.099Z</time>
      </trkpt>
      <trkpt lat="46.95199" lon="4.79472">
        <ele>205.945535</ele>
        <time>2020-10-11T15:30:00.539Z</time>
      </trkpt>
      <trkpt lat="46.952" lon="4.7947">
        <ele>205.952164</ele>
        <time>2020-10-11T15:30:00.993Z</time>
      </trkpt>
      <trkpt lat="46.95202" lon="4.7947">
        <ele>205.961577</ele>
        <time>2020-10-11T15:30:01.716Z</time>
      </trkpt>
      <trkpt lat="46.95232" lon="4.79474">
        <ele>206.068075</ele>
        <time>2020-10-11T15:30:08.637Z</time>
      </trkpt>
      <trkpt lat="46.95237" lon="4.79474">
        <ele>206.086618</ele>
        <time>2020-10-11T15:30:09.938Z</time>
      </trkpt>
      <trkpt lat="46.95245" lon="4.79473">
        <ele>206.113379</ele>
        <time>2020-10-11T15:30:11.622Z</time>
      </trkpt>
      <trkpt lat="46.95248" lon="4.79476">
        <ele>206.127465</ele>
        <time>2020-10-11T15:30:12.582Z</time>
      </trkpt>
      <trkpt lat="46.95266" lon="4.79487">
        <ele>206.165691</ele>
        <time>2020-10-11T15:30:16.802Z</time>
      </trkpt>
      <trkpt lat="46.95276" lon="4.79494">
        <ele>206.181894</ele>
        <time>2020-10-11T15:30:19.406Z</time>
      </trkpt>
      <trkpt lat="46.95322" lon="4.7952">
        <ele>206.251712</ele>
        <time>2020-10-11T15:30:30.061Z</time>
      </trkpt>
      <trkpt lat="46.95325" lon="4.79523">
        <ele>206.257169</ele>
        <time>2020-10-11T15:30:30.973Z</time>
      </trkpt>
      <trkpt lat="46.95374" lon="4.79561">
        <ele>206.335372</ele>
        <time>2020-10-11T15:30:42.586Z</time>
      </trkpt>
      <trkpt lat="46.95432" lon="4.79608">
        <ele>206.429357</ele>
        <time>2020-10-11T15:30:56.450Z</time>
      </trkpt>
      <trkpt lat="46.9548" lon="4.79646">
        <ele>206.505422</ele>
        <time>2020-10-11T15:31:07.902Z</time>
      </trkpt>
      <trkpt lat="46.95517" lon="4.7967">
        <ele>206.561117</ele>
        <time>2020-10-11T15:31:16.478Z</time>
      </trkpt>
      <trkpt lat="46.95542" lon="4.79676">
        <ele>206.597085</ele>
        <time>2020-10-11T15:31:22.160Z</time>
      </trkpt>
      <trkpt lat="46.95565" lon="4.79674">
        <ele>206.629374</ele>
        <time>2020-10-11T15:31:27.348Z</time>
      </trkpt>
      <trkpt lat="46.95666" lon="4.79641">
        <ele>206.885464</ele>
        <time>2020-10-11T15:31:50.759Z</time>
      </trkpt>
      <trkpt lat="46.95724" lon="4.79643">
        <ele>207.039931</ele>
        <time>2020-10-11T15:32:03.524Z</time>
      </trkpt>
      <trkpt lat="46.95775" lon="4.79662">
        <ele>207.15906</ele>
        <time>2020-10-11T15:32:14.910Z</time>
      </trkpt>
      <trkpt lat="46.958" lon="4.79681">
        <ele>207.200146</ele>
        <time>2020-10-11T15:32:20.906Z</time>
      </trkpt>
      <trkpt lat="46.9608" lon="4.79971">
        <ele>207.771785</ele>
        <time>2020-10-11T15:33:34.739Z</time>
      </trkpt>
      <trkpt lat="46.96178" lon="4.80062">
        <ele>208.148431</ele>
        <time>2020-10-11T15:34:01.567Z</time>
      </trkpt>
      <trkpt lat="46.96184" lon="4.80071">
        <ele>208.175743</ele>
        <time>2020-10-11T15:34:03.713Z</time>
      </trkpt>
      <trkpt lat="46.9619" lon="4.8008">
        <ele>208.203343</ele>
        <time>2020-10-11T15:34:05.654Z</time>
      </trkpt>
      <trkpt lat="46.96192" lon="4.80084">
        <ele>208.214831</ele>
        <time>2020-10-11T15:34:06.444Z</time>
      </trkpt>
      <trkpt lat="46.96195" lon="4.80089">
        <ele>208.230147</ele>
        <time>2020-10-11T15:34:07.485Z</time>
      </trkpt>
      <trkpt lat="46.96206" lon="4.80111">
        <ele>208.273554</ele>
        <time>2020-10-11T15:34:11.901Z</time>
      </trkpt>
      <trkpt lat="46.96335" lon="4.80387">
        <ele>208.343163</ele>
        <time>2020-10-11T15:35:00.879Z</time>
      </trkpt>
      <trkpt lat="46.96374" lon="4.80469">
        <ele>208.11605</ele>
        <time>2020-10-11T15:35:13.656Z</time>
      </trkpt>
      <trkpt lat="46.9642" lon="4.80549">
        <ele>207.841804</ele>
        <time>2020-10-11T15:35:26.599Z</time>
      </trkpt>
      <trkpt lat="46.96448" lon="4.80583">
        <ele>207.650479</ele>
        <time>2020-10-11T15:35:32.925Z</time>
      </trkpt>
      <trkpt lat="46.96573" lon="4.80674">
        <ele>206.893371</ele>
        <time>2020-10-11T15:35:59.238Z</time>
      </trkpt>
      <trkpt lat="46.96633" lon="4.80718">
        <ele>206.491507</ele>
        <time>2020-10-11T15:36:11.558Z</time>
      </trkpt>
      <trkpt lat="46.96617" lon="4.80838">
        <ele>205.988463</ele>
        <time>2020-10-11T15:36:26.644Z</time>
      </trkpt>
      <trkpt lat="46.96614" lon="4.80861">
        <ele>205.893716</ele>
        <time>2020-10-11T15:36:29.486Z</time>
      </trkpt>
      <trkpt lat="46.96613" lon="4.80865">
        <ele>205.874047</ele>
        <time>2020-10-11T15:36:30.016Z</time>
      </trkpt>
      <trkpt lat="46.96611" lon="4.80874">
        <ele>205.831323</ele>
        <time>2020-10-11T15:36:31.205Z</time>
      </trkpt>
      <trkpt lat="46.96618" lon="4.80875">
        <ele>205.784252</ele>
        <time>2020-10-11T15:36:33.177Z</time>
      </trkpt>
      <trkpt lat="46.9663" lon="4.80881">
        <ele>205.708616</ele>
        <time>2020-10-11T15:36:36.256Z</time>
      </trkpt>
      <trkpt lat="46.96649" lon="4.80898">
        <ele>205.566083</ele>
        <time>2020-10-11T15:36:41.849Z</time>
      </trkpt>
      <trkpt lat="46.96656" lon="4.80905">
        <ele>205.512662</ele>
        <time>2020-10-11T15:36:43.993Z</time>
      </trkpt>
      <trkpt lat="46.96681" lon="4.80928">
        <ele>205.32709</ele>
        <time>2020-10-11T15:36:51.300Z</time>
      </trkpt>
      <trkpt lat="46.96703" lon="4.80949">
        <ele>205.165962</ele>
        <time>2020-10-11T15:36:57.682Z</time>
      </trkpt>
      <trkpt lat="46.96731" lon="4.80976">
        <ele>204.954451</ele>
        <time>2020-10-11T15:37:06.334Z</time>
      </trkpt>
      <trkpt lat="46.96744" lon="4.80988">
        <ele>204.858579</ele>
        <time>2020-10-11T15:37:10.431Z</time>
      </trkpt>
      <trkpt lat="46.96769" lon="4.81016">
        <ele>204.830344</ele>
        <time>2020-10-11T15:37:18.887Z</time>
      </trkpt>
      <trkpt lat="46.96783" lon="4.81046">
        <ele>204.928407</ele>
        <time>2020-10-11T15:37:25.836Z</time>
      </trkpt>
      <trkpt lat="46.96788" lon="4.81074">
        <ele>205.004572</ele>
        <time>2020-10-11T15:37:31.406Z</time>
      </trkpt>
      <trkpt lat="46.96791" lon="4.81231">
        <ele>205.425027</ele>
        <time>2020-10-11T15:38:05.416Z</time>
      </trkpt>
      <trkpt lat="46.96797" lon="4.81248">
        <ele>205.478706</ele>
        <time>2020-10-11T15:38:09.586Z</time>
      </trkpt>
      <trkpt lat="46.96806" lon="4.81263">
        <ele>205.581485</ele>
        <time>2020-10-11T15:38:14.576Z</time>
      </trkpt>
      <trkpt lat="46.9689" lon="4.81349">
        <ele>206.349389</ele>
        <time>2020-10-11T15:38:48.753Z</time>
      </trkpt>
      <trkpt lat="46.96894" lon="4.81354">
        <ele>206.389209</ele>
        <time>2020-10-11T15:38:50.955Z</time>
      </trkpt>
      <trkpt lat="46.96897" lon="4.81356">
        <ele>206.410931</ele>
        <time>2020-10-11T15:38:51.971Z</time>
      </trkpt>
      <trkpt lat="46.96934" lon="4.81383">
        <ele>206.724436</ele>
        <time>2020-10-11T15:39:04.963Z</time>
      </trkpt>
      <trkpt lat="46.96939" lon="4.81387">
        <ele>206.762953</ele>
        <time>2020-10-11T15:39:06.470Z</time>
      </trkpt>
      <trkpt lat="46.96961" lon="4.81397">
        <ele>206.774558</ele>
        <time>2020-10-11T15:39:13.548Z</time>
      </trkpt>
      <trkpt lat="46.96974" lon="4.81408">
        <ele>206.732601</ele>
        <time>2020-10-11T15:39:17.995Z</time>
      </trkpt>
      <trkpt lat="46.97015" lon="4.81444">
        <ele>206.603946</ele>
        <time>2020-10-11T15:39:32.139Z</time>
      </trkpt>
      <trkpt lat="46.97032" lon="4.81458">
        <ele>206.551465</ele>
        <time>2020-10-11T15:39:37.793Z</time>
      </trkpt>
      <trkpt lat="46.97057" lon="4.81479">
        <ele>206.47426</ele>
        <time>2020-10-11T15:39:45.300Z</time>
      </trkpt>
      <trkpt lat="46.97062" lon="4.81485">
        <ele>206.456497</ele>
        <time>2020-10-11T15:39:46.917Z</time>
      </trkpt>
      <trkpt lat="46.97067" lon="4.81508">
        <ele>206.411262</ele>
        <time>2020-10-11T15:39:51.317Z</time>
      </trkpt>
      <trkpt lat="46.97069" lon="4.81531">
        <ele>206.369179</ele>
        <time>2020-10-11T15:39:54.889Z</time>
      </trkpt>
      <trkpt lat="46.97068" lon="4.8154">
        <ele>206.351641</ele>
        <time>2020-10-11T15:39:56.474Z</time>
      </trkpt>
      <trkpt lat="46.97059" lon="4.81602">
        <ele>205.966673</ele>
        <time>2020-10-11T15:40:06.465Z</time>
      </trkpt>
      <trkpt lat="46.97057" lon="4.81613">
        <ele>205.886168</ele>
        <time>2020-10-11T15:40:08.258Z</time>
      </trkpt>
      <trkpt lat="46.97041" lon="4.81724">
        <ele>205.086406</ele>
        <time>2020-10-11T15:40:26.884Z</time>
      </trkpt>
      <trkpt lat="46.9704" lon="4.81731">
        <ele>205.041122</ele>
        <time>2020-10-11T15:40:27.847Z</time>
      </trkpt>
      <trkpt lat="46.97034" lon="4.81763">
        <ele>204.801109</ele>
        <time>2020-10-11T15:40:33.923Z</time>
      </trkpt>
      <trkpt lat="46.9703" lon="4.81764">
        <ele>204.762799</ele>
        <time>2020-10-11T15:40:34.758Z</time>
      </trkpt>
      <trkpt lat="46.97018" lon="4.81789">
        <ele>204.548237</ele>
        <time>2020-10-11T15:40:40.116Z</time>
      </trkpt>
      <trkpt lat="46.97014" lon="4.81806">
        <ele>204.463892</ele>
        <time>2020-10-11T15:40:43.156Z</time>
      </trkpt>
      <trkpt lat="46.97032" lon="4.81807">
        <ele>204.420799</ele>
        <time>2020-10-11T15:40:46.307Z</time>
      </trkpt>
      <trkpt lat="46.97069" lon="4.81808">
        <ele>204.332703</ele>
        <time>2020-10-11T15:40:52.887Z</time>
      </trkpt>
      <trkpt lat="46.97108" lon="4.81814">
        <ele>204.23893</ele>
        <time>2020-10-11T15:41:00.281Z</time>
      </trkpt>
      <trkpt lat="46.97265" lon="4.81894">
        <ele>204.032465</ele>
        <time>2020-10-11T15:41:36.650Z</time>
      </trkpt>
      <trkpt lat="46.97287" lon="4.81902">
        <ele>204.028771</ele>
        <time>2020-10-11T15:41:41.229Z</time>
      </trkpt>
      <trkpt lat="46.97293" lon="4.81904">
        <ele>204.027679</ele>
        <time>2020-10-11T15:41:42.594Z</time>
      </trkpt>
      <trkpt lat="46.97375" lon="4.81931">
        <ele>203.973146</ele>
        <time>2020-10-11T15:41:58.940Z</time>
      </trkpt>
      <trkpt lat="46.97474" lon="4.81946">
        <ele>203.733489</ele>
        <time>2020-10-11T15:42:18.017Z</time>
      </trkpt>
      <trkpt lat="46.97478" lon="4.81947">
        <ele>203.724342</ele>
        <time>2020-10-11T15:42:18.752Z</time>
      </trkpt>
      <trkpt lat="46.97483" lon="4.81948">
        <ele>203.713036</ele>
        <time>2020-10-11T15:42:19.653Z</time>
      </trkpt>
      <trkpt lat="46.97491" lon="4.81949">
        <ele>203.694028</ele>
        <time>2020-10-11T15:42:21.196Z</time>
      </trkpt>
      <trkpt lat="46.97932" lon="4.82073">
        <ele>203.78896</ele>
        <time>2020-10-11T15:43:53.867Z</time>
      </trkpt>
      <trkpt lat="46.97952" lon="4.82079">
        <ele>203.937385</ele>
        <time>2020-10-11T15:43:58.832Z</time>
      </trkpt>
      <trkpt lat="46.9796" lon="4.82082">
        <ele>203.989571</ele>
        <time>2020-10-11T15:44:00.575Z</time>
      </trkpt>
      <trkpt lat="46.97963" lon="4.82083">
        <ele>204.017576</ele>
        <time>2020-10-11T15:44:01.569Z</time>
      </trkpt>
      <trkpt lat="46.98005" lon="4.82096">
        <ele>204.32035</ele>
        <time>2020-10-11T15:44:12.114Z</time>
      </trkpt>
      <trkpt lat="46.98008" lon="4.82097">
        <ele>204.346742</ele>
        <time>2020-10-11T15:44:13.093Z</time>
      </trkpt>
      <trkpt lat="46.98087" lon="4.82117">
        <ele>205.092488</ele>
        <time>2020-10-11T15:44:35.031Z</time>
      </trkpt>
      <trkpt lat="46.9812" lon="4.82126">
        <ele>205.603089</ele>
        <time>2020-10-11T15:44:44.911Z</time>
      </trkpt>
      <trkpt lat="46.98148" lon="4.82131">
        <ele>206.0213</ele>
        <time>2020-10-11T15:44:53.204Z</time>
      </trkpt>
      <trkpt lat="46.98174" lon="4.82136">
        <ele>206.408128</ele>
        <time>2020-10-11T15:45:01.202Z</time>
      </trkpt>
      <trkpt lat="46.982" lon="4.82139">
        <ele>206.799569</ele>
        <time>2020-10-11T15:45:09.254Z</time>
      </trkpt>
      <trkpt lat="46.98241" lon="4.82151">
        <ele>207.422248</ele>
        <time>2020-10-11T15:45:21.614Z</time>
      </trkpt>
      <trkpt lat="46.98301" lon="4.8218">
        <ele>208.411259</ele>
        <time>2020-10-11T15:45:39.499Z</time>
      </trkpt>
      <trkpt lat="46.9833" lon="4.82195">
        <ele>208.893274</ele>
        <time>2020-10-11T15:45:48.390Z</time>
      </trkpt>
      <trkpt lat="46.9836" lon="4.82221">
        <ele>209.441525</ele>
        <time>2020-10-11T15:45:58.705Z</time>
      </trkpt>
      <trkpt lat="46.98423" lon="4.82304">
        <ele>210.994618</ele>
        <time>2020-10-11T15:46:24.661Z</time>
      </trkpt>
      <trkpt lat="46.98438" lon="4.82319">
        <ele>211.408014</ele>
        <time>2020-10-11T15:46:30.653Z</time>
      </trkpt>
      <trkpt lat="46.98479" lon="4.82351">
        <ele>212.440406</ele>
        <time>2020-10-11T15:46:45.123Z</time>
      </trkpt>
      <trkpt lat="46.98517" lon="4.82372">
        <ele>213.347679</ele>
        <time>2020-10-11T15:46:58.537Z</time>
      </trkpt>
      <trkpt lat="46.98551" lon="4.82384">
        <ele>214.137354</ele>
        <time>2020-10-11T15:47:11.428Z</time>
      </trkpt>
      <trkpt lat="46.98568" lon="4.8239">
        <ele>214.556418</ele>
        <time>2020-10-11T15:47:18.396Z</time>
      </trkpt>
      <trkpt lat="46.98578" lon="4.82397">
        <ele>214.824399</ele>
        <time>2020-10-11T15:47:22.236Z</time>
      </trkpt>
      <trkpt lat="46.9858" lon="4.82406">
        <ele>214.994551</ele>
        <time>2020-10-11T15:47:24.895Z</time>
      </trkpt>
      <trkpt lat="46.98581" lon="4.82414">
        <ele>215.130741</ele>
        <time>2020-10-11T15:47:27.084Z</time>
      </trkpt>
      <trkpt lat="46.98574" lon="4.8245">
        <ele>215.756505</ele>
        <time>2020-10-11T15:47:36.241Z</time>
      </trkpt>
      <trkpt lat="46.98574" lon="4.82457">
        <ele>215.868835</ele>
        <time>2020-10-11T15:47:37.886Z</time>
      </trkpt>
      <trkpt lat="46.98577" lon="4.82464">
        <ele>216.003687</ele>
        <time>2020-10-11T15:47:39.894Z</time>
      </trkpt>
      <trkpt lat="46.98603" lon="4.82494">
        <ele>216.84697</ele>
        <time>2020-10-11T15:47:51.864Z</time>
      </trkpt>
      <trkpt lat="46.98609" lon="4.82501">
        <ele>217.029436</ele>
        <time>2020-10-11T15:47:54.850Z</time>
      </trkpt>
      <trkpt lat="46.98666" lon="4.82545">
        <ele>218.61656</ele>
        <time>2020-10-11T15:48:15.945Z</time>
      </trkpt>
      <trkpt lat="46.98688" lon="4.8256">
        <ele>218.727556</ele>
        <time>2020-10-11T15:48:23.726Z</time>
      </trkpt>
      <trkpt lat="46.98706" lon="4.82566">
        <ele>218.690628</ele>
        <time>2020-10-11T15:48:29.347Z</time>
      </trkpt>
      <trkpt lat="46.9872" lon="4.82568">
        <ele>218.662995</ele>
        <time>2020-10-11T15:48:33.230Z</time>
      </trkpt>
      <trkpt lat="46.98741" lon="4.82578">
        <ele>218.619391</ele>
        <time>2020-10-11T15:48:38.984Z</time>
      </trkpt>
      <trkpt lat="46.98757" lon="4.82588">
        <ele>218.58571</ele>
        <time>2020-10-11T15:48:42.799Z</time>
      </trkpt>
      <trkpt lat="46.98823" lon="4.82639">
        <ele>218.438624</ele>
        <time>2020-10-11T15:48:54.886Z</time>
      </trkpt>
      <trkpt lat="46.98898" lon="4.82707">
        <ele>216.90772</ele>
        <time>2020-10-11T15:49:07.961Z</time>
      </trkpt>
      <trkpt lat="46.98907" lon="4.82715">
        <ele>216.690202</ele>
        <time>2020-10-11T15:49:09.626Z</time>
      </trkpt>
      <trkpt lat="46.98914" lon="4.82719">
        <ele>216.529708</ele>
        <time>2020-10-11T15:49:10.689Z</time>
      </trkpt>
      <trkpt lat="46.98914" lon="4.82719">
        <ele>216.519069</ele>
        <time>2020-10-11T15:49:10.774Z</time>
      </trkpt>
      <trkpt lat="46.98918" lon="4.82721">
        <ele>216.432316</ele>
        <time>2020-10-11T15:49:11.424Z</time>
      </trkpt>
      <trkpt lat="46.98921" lon="4.82722">
        <ele>216.378317</ele>
        <time>2020-10-11T15:49:11.827Z</time>
      </trkpt>
      <trkpt lat="46.98939" lon="4.82727">
        <ele>216.008563</ele>
        <time>2020-10-11T15:49:14.586Z</time>
      </trkpt>
      <trkpt lat="46.98956" lon="4.82724">
        <ele>215.649393</ele>
        <time>2020-10-11T15:49:17.140Z</time>
      </trkpt>
      <trkpt lat="46.98978" lon="4.82716">
        <ele>215.189944</ele>
        <time>2020-10-11T15:49:20.589Z</time>
      </trkpt>
      <trkpt lat="46.98995" lon="4.82709">
        <ele>214.82859</ele>
        <time>2020-10-11T15:49:23.216Z</time>
      </trkpt>
      <trkpt lat="46.99095" lon="4.82664">
        <ele>214.533376</ele>
        <time>2020-10-11T15:49:41.745Z</time>
      </trkpt>
      <trkpt lat="46.99147" lon="4.8264">
        <ele>214.431236</ele>
        <time>2020-10-11T15:49:55.587Z</time>
      </trkpt>
      <trkpt lat="46.9922" lon="4.82609">
        <ele>214.833817</ele>
        <time>2020-10-11T15:50:15.910Z</time>
      </trkpt>
      <trkpt lat="46.99302" lon="4.82585">
        <ele>215.574648</ele>
        <time>2020-10-11T15:50:37.720Z</time>
      </trkpt>
      <trkpt lat="46.99323" lon="4.82578">
        <ele>215.762121</ele>
        <time>2020-10-11T15:50:43.061Z</time>
      </trkpt>
      <trkpt lat="46.99527" lon="4.82518">
        <ele>217.330894</ele>
        <time>2020-10-11T15:51:34.527Z</time>
      </trkpt>
      <trkpt lat="46.99654" lon="4.8248">
        <ele>218.451137</ele>
        <time>2020-10-11T15:52:07.198Z</time>
      </trkpt>
      <trkpt lat="46.9981" lon="4.82495">
        <ele>219.746209</ele>
        <time>2020-10-11T15:52:48.315Z</time>
      </trkpt>
      <trkpt lat="46.99823" lon="4.8249">
        <ele>219.858573</ele>
        <time>2020-10-11T15:52:51.814Z</time>
      </trkpt>
      <trkpt lat="46.99829" lon="4.82485">
        <ele>219.916903</ele>
        <time>2020-10-11T15:52:53.575Z</time>
      </trkpt>
      <trkpt lat="46.99838" lon="4.82475">
        <ele>220.007866</ele>
        <time>2020-10-11T15:52:56.337Z</time>
      </trkpt>
      <trkpt lat="46.9986" lon="4.82429">
        <ele>220.317552</ele>
        <time>2020-10-11T15:53:05.504Z</time>
      </trkpt>
      <trkpt lat="46.99868" lon="4.82416">
        <ele>220.320918</ele>
        <time>2020-10-11T15:53:08.526Z</time>
      </trkpt>
      <trkpt lat="46.99878" lon="4.82407">
        <ele>220.322067</ele>
        <time>2020-10-11T15:53:11.233Z</time>
      </trkpt>
      <trkpt lat="46.99894" lon="4.82398">
        <ele>220.323793</ele>
        <time>2020-10-11T15:53:15.243Z</time>
      </trkpt>
      <trkpt lat="46.9991" lon="4.82399">
        <ele>220.325379</ele>
        <time>2020-10-11T15:53:18.896Z</time>
      </trkpt>
      <trkpt lat="46.99977" lon="4.82433">
        <ele>220.332399</ele>
        <time>2020-10-11T15:53:33.802Z</time>
      </trkpt>
      <trkpt lat="46.99992" lon="4.82437">
        <ele>220.333817</ele>
        <time>2020-10-11T15:53:36.544Z</time>
      </trkpt>
      <trkpt lat="47.00011" lon="4.82437">
        <ele>220.335697</ele>
        <time>2020-10-11T15:53:40.157Z</time>
      </trkpt>
      <trkpt lat="47.00029" lon="4.82437">
        <ele>220.335207</ele>
        <time>2020-10-11T15:53:43.591Z</time>
      </trkpt>
      <trkpt lat="47.00167" lon="4.82443">
        <ele>219.469842</ele>
        <time>2020-10-11T15:54:08.093Z</time>
      </trkpt>
      <trkpt lat="47.00256" lon="4.82473">
        <ele>219.226142</ele>
        <time>2020-10-11T15:54:24.896Z</time>
      </trkpt>
      <trkpt lat="47.00278" lon="4.82484">
        <ele>219.233396</ele>
        <time>2020-10-11T15:54:29.414Z</time>
      </trkpt>
      <trkpt lat="47.00387" lon="4.82541">
        <ele>219.304521</ele>
        <time>2020-10-11T15:54:55.265Z</time>
      </trkpt>
      <trkpt lat="47.00475" lon="4.82594">
        <ele>219.747579</ele>
        <time>2020-10-11T15:55:18.730Z</time>
      </trkpt>
      <trkpt lat="47.0049" lon="4.82604">
        <ele>219.824828</ele>
        <time>2020-10-11T15:55:22.979Z</time>
      </trkpt>
      <trkpt lat="47.00503" lon="4.82615">
        <ele>219.894113</ele>
        <time>2020-10-11T15:55:26.333Z</time>
      </trkpt>
      <trkpt lat="47.00516" lon="4.82629">
        <ele>219.969171</ele>
        <time>2020-10-11T15:55:29.992Z</time>
      </trkpt>
      <trkpt lat="47.00521" lon="4.82637">
        <ele>220.003078</ele>
        <time>2020-10-11T15:55:31.877Z</time>
      </trkpt>
      <trkpt lat="47.00522" lon="4.82646">
        <ele>220.031796</ele>
        <time>2020-10-11T15:55:33.173Z</time>
      </trkpt>
      <trkpt lat="47.00524" lon="4.82653">
        <ele>220.054696</ele>
        <time>2020-10-11T15:55:34.188Z</time>
      </trkpt>
      <trkpt lat="47.00527" lon="4.82658">
        <ele>220.077886</ele>
        <time>2020-10-11T15:55:35.130Z</time>
      </trkpt>
      <trkpt lat="47.00531" lon="4.82662">
        <ele>220.100744</ele>
        <time>2020-10-11T15:55:36.221Z</time>
      </trkpt>
      <trkpt lat="47.00536" lon="4.82665">
        <ele>220.083106</ele>
        <time>2020-10-11T15:55:37.324Z</time>
      </trkpt>
      <trkpt lat="47.00541" lon="4.82665">
        <ele>220.064133</ele>
        <time>2020-10-11T15:55:38.482Z</time>
      </trkpt>
      <trkpt lat="47.00548" lon="4.82663">
        <ele>220.037936</ele>
        <time>2020-10-11T15:55:40.105Z</time>
      </trkpt>
      <trkpt lat="47.00554" lon="4.82658">
        <ele>220.011665</ele>
        <time>2020-10-11T15:55:41.496Z</time>
      </trkpt>
      <trkpt lat="47.0056" lon="4.82657">
        <ele>219.989325</ele>
        <time>2020-10-11T15:55:42.566Z</time>
      </trkpt>
      <trkpt lat="47.00578" lon="4.82663">
        <ele>219.920075</ele>
        <time>2020-10-11T15:55:46.490Z</time>
      </trkpt>
      <trkpt lat="47.0059" lon="4.82668">
        <ele>219.871064</ele>
        <time>2020-10-11T15:55:49.028Z</time>
      </trkpt>
      <trkpt lat="47.00607" lon="4.82678">
        <ele>219.803427</ele>
        <time>2020-10-11T15:55:52.433Z</time>
      </trkpt>
      <trkpt lat="47.00619" lon="4.82686">
        <ele>219.754535</ele>
        <time>2020-10-11T15:55:55.062Z</time>
      </trkpt>
      <trkpt lat="47.0069" lon="4.82727">
        <ele>219.463906</ele>
        <time>2020-10-11T15:56:08.860Z</time>
      </trkpt>
      <trkpt lat="47.00808" lon="4.82762">
        <ele>218.601967</ele>
        <time>2020-10-11T15:56:29.951Z</time>
      </trkpt>
      <trkpt lat="47.00937" lon="4.82819">
        <ele>217.492866</ele>
        <time>2020-10-11T15:56:53.946Z</time>
      </trkpt>
      <trkpt lat="47.01076" lon="4.82909">
        <ele>216.127934</ele>
        <time>2020-10-11T15:57:20.224Z</time>
      </trkpt>
      <trkpt lat="47.01091" lon="4.82919">
        <ele>215.985906</ele>
        <time>2020-10-11T15:57:22.977Z</time>
      </trkpt>
      <trkpt lat="47.01163" lon="4.82963">
        <ele>215.312762</ele>
        <time>2020-10-11T15:57:36.137Z</time>
      </trkpt>
      <trkpt lat="47.01321" lon="4.83034">
        <ele>215.046931</ele>
        <time>2020-10-11T15:58:07.674Z</time>
      </trkpt>
      <trkpt lat="47.01463" lon="4.8309">
        <ele>215.71037</ele>
        <time>2020-10-11T15:58:46.189Z</time>
      </trkpt>
      <trkpt lat="47.01485" lon="4.83091">
        <ele>215.860694</ele>
        <time>2020-10-11T15:58:52.012Z</time>
      </trkpt>
      <trkpt lat="47.01534" lon="4.83083">
        <ele>216.209021</ele>
        <time>2020-10-11T15:59:03.966Z</time>
      </trkpt>
      <trkpt lat="47.01553" lon="4.83085">
        <ele>216.342218</ele>
        <time>2020-10-11T15:59:08.635Z</time>
      </trkpt>
      <trkpt lat="47.01633" lon="4.83124">
        <ele>216.215497</ele>
        <time>2020-10-11T15:59:25.555Z</time>
      </trkpt>
      <trkpt lat="47.01647" lon="4.83131">
        <ele>216.18287</ele>
        <time>2020-10-11T15:59:28.415Z</time>
      </trkpt>
      <trkpt lat="47.01688" lon="4.83152">
        <ele>216.087378</ele>
        <time>2020-10-11T15:59:36.442Z</time>
      </trkpt>
      <trkpt lat="47.01714" lon="4.83156">
        <ele>216.031328</ele>
        <time>2020-10-11T15:59:40.898Z</time>
      </trkpt>
      <trkpt lat="47.01729" lon="4.83154">
        <ele>215.999295</ele>
        <time>2020-10-11T15:59:43.500Z</time>
      </trkpt>
      <trkpt lat="47.01836" lon="4.83141">
        <ele>216.083241</ele>
        <time>2020-10-11T16:00:06.238Z</time>
      </trkpt>
      <trkpt lat="47.01836" lon="4.83146">
        <ele>216.0861</ele>
        <time>2020-10-11T16:00:06.944Z</time>
      </trkpt>
      <trkpt lat="47.01837" lon="4.8315">
        <ele>216.088922</ele>
        <time>2020-10-11T16:00:07.649Z</time>
      </trkpt>
      <trkpt lat="47.01841" lon="4.83158">
        <ele>216.094587</ele>
        <time>2020-10-11T16:00:09.184Z</time>
      </trkpt>
      <trkpt lat="47.01844" lon="4.8316">
        <ele>216.097427</ele>
        <time>2020-10-11T16:00:09.968Z</time>
      </trkpt>
      <trkpt lat="47.01848" lon="4.8316">
        <ele>216.100602</ele>
        <time>2020-10-11T16:00:10.944Z</time>
      </trkpt>
      <trkpt lat="47.01855" lon="4.83156">
        <ele>216.106806</ele>
        <time>2020-10-11T16:00:12.556Z</time>
      </trkpt>
      <trkpt lat="47.01858" lon="4.83141">
        <ele>216.11596</ele>
        <time>2020-10-11T16:00:14.839Z</time>
      </trkpt>
      <trkpt lat="47.01857" lon="4.83136">
        <ele>216.119132</ele>
        <time>2020-10-11T16:00:15.640Z</time>
      </trkpt>
      <trkpt lat="47.01874" lon="4.8312">
        <ele>216.136527</ele>
        <time>2020-10-11T16:00:20.442Z</time>
      </trkpt>
      <trkpt lat="47.01892" lon="4.83098">
        <ele>216.187288</ele>
        <time>2020-10-11T16:00:25.645Z</time>
      </trkpt>
      <trkpt lat="47.01896" lon="4.83094">
        <ele>216.204992</ele>
        <time>2020-10-11T16:00:26.903Z</time>
      </trkpt>
      <trkpt lat="47.01918" lon="4.83067">
        <ele>216.310679</ele>
        <time>2020-10-11T16:00:33.462Z</time>
      </trkpt>
      <trkpt lat="47.01936" lon="4.83057">
        <ele>216.381292</ele>
        <time>2020-10-11T16:00:38.078Z</time>
      </trkpt>
      <trkpt lat="47.01951" lon="4.83047">
        <ele>216.443073</ele>
        <time>2020-10-11T16:00:41.841Z</time>
      </trkpt>
      <trkpt lat="47.01974" lon="4.83041">
        <ele>216.528314</ele>
        <time>2020-10-11T16:00:47.336Z</time>
      </trkpt>
      <trkpt lat="47.01976" lon="4.83041">
        <ele>216.537187</ele>
        <time>2020-10-11T16:00:47.840Z</time>
      </trkpt>
      <trkpt lat="47.02" lon="4.83054">
        <ele>216.628577</ele>
        <time>2020-10-11T16:00:53.901Z</time>
      </trkpt>
      <trkpt lat="47.0201" lon="4.8306">
        <ele>216.669471</ele>
        <time>2020-10-11T16:00:56.344Z</time>
      </trkpt>
      <trkpt lat="47.02048" lon="4.83125">
        <ele>216.829256</ele>
        <time>2020-10-11T16:01:09.072Z</time>
      </trkpt>
      <trkpt lat="47.02063" lon="4.83146">
        <ele>216.849529</ele>
        <time>2020-10-11T16:01:13.343Z</time>
      </trkpt>
      <trkpt lat="47.02078" lon="4.83168">
        <ele>216.869642</ele>
        <time>2020-10-11T16:01:17.696Z</time>
      </trkpt>
      <trkpt lat="47.02082" lon="4.83176">
        <ele>216.875849</ele>
        <time>2020-10-11T16:01:18.979Z</time>
      </trkpt>
      <trkpt lat="47.02125" lon="4.83245">
        <ele>216.937109</ele>
        <time>2020-10-11T16:01:32.602Z</time>
      </trkpt>
      <trkpt lat="47.02132" lon="4.83256">
        <ele>216.947096</ele>
        <time>2020-10-11T16:01:34.757Z</time>
      </trkpt>
      <trkpt lat="47.02167" lon="4.83297">
        <ele>217.031077</ele>
        <time>2020-10-11T16:01:44.563Z</time>
      </trkpt>
      <trkpt lat="47.02185" lon="4.83322">
        <ele>217.168267</ele>
        <time>2020-10-11T16:01:49.688Z</time>
      </trkpt>
      <trkpt lat="47.02192" lon="4.83333">
        <ele>217.225057</ele>
        <time>2020-10-11T16:01:51.987Z</time>
      </trkpt>
      <trkpt lat="47.02199" lon="4.83345">
        <ele>217.287777</ele>
        <time>2020-10-11T16:01:54.425Z</time>
      </trkpt>
      <trkpt lat="47.02201" lon="4.83348">
        <ele>217.303861</ele>
        <time>2020-10-11T16:01:55.044Z</time>
      </trkpt>
      <trkpt lat="47.02206" lon="4.83356">
        <ele>217.346791</ele>
        <time>2020-10-11T16:01:56.635Z</time>
      </trkpt>
      <trkpt lat="47.02218" lon="4.83377">
        <ele>217.452161</ele>
        <time>2020-10-11T16:02:01.044Z</time>
      </trkpt>
      <trkpt lat="47.02244" lon="4.83417">
        <ele>217.661925</ele>
        <time>2020-10-11T16:02:09.679Z</time>
      </trkpt>
      <trkpt lat="47.02247" lon="4.8342">
        <ele>217.687489</ele>
        <time>2020-10-11T16:02:10.745Z</time>
      </trkpt>
      <trkpt lat="47.02269" lon="4.83455">
        <ele>217.871945</ele>
        <time>2020-10-11T16:02:18.991Z</time>
      </trkpt>
      <trkpt lat="47.02281" lon="4.83473">
        <ele>217.968297</ele>
        <time>2020-10-11T16:02:23.364Z</time>
      </trkpt>
      <trkpt lat="47.02285" lon="4.83479">
        <ele>217.998111</ele>
        <time>2020-10-11T16:02:24.752Z</time>
      </trkpt>
      <trkpt lat="47.02313" lon="4.83521">
        <ele>218.707191</ele>
        <time>2020-10-11T16:02:36.552Z</time>
      </trkpt>
      <trkpt lat="47.0232" lon="4.83517">
        <ele>218.839814</ele>
        <time>2020-10-11T16:02:41.231Z</time>
      </trkpt>
      <trkpt lat="47.02336" lon="4.83533">
        <ele>219.178732</ele>
        <time>2020-10-11T16:02:53.132Z</time>
      </trkpt>
      <trkpt lat="47.02354" lon="4.83561">
        <ele>219.647355</ele>
        <time>2020-10-11T16:03:10.111Z</time>
      </trkpt>
      <trkpt lat="47.02363" lon="4.83574">
        <ele>219.871378</ele>
        <time>2020-10-11T16:03:18.442Z</time>
      </trkpt>
      <trkpt lat="47.02386" lon="4.83599">
        <ele>220.377875</ele>
        <time>2020-10-11T16:03:36.379Z</time>
      </trkpt>
      <trkpt lat="47.02392" lon="4.83596">
        <ele>220.484954</ele>
        <time>2020-10-11T16:03:40.321Z</time>
      </trkpt>
      <trkpt lat="47.02399" lon="4.83598">
        <ele>220.616484</ele>
        <time>2020-10-11T16:03:44.660Z</time>
      </trkpt>
      <trkpt lat="47.02408" lon="4.83606">
        <ele>220.805056</ele>
        <time>2020-10-11T16:03:51.506Z</time>
      </trkpt>
      <trkpt lat="47.02425" lon="4.83623">
        <ele>221.170429</ele>
        <time>2020-10-11T16:04:04.604Z</time>
      </trkpt>
      <trkpt lat="47.02453" lon="4.83666">
        <ele>221.644491</ele>
        <time>2020-10-11T16:04:28.856Z</time>
      </trkpt>
      <trkpt lat="47.02459" lon="4.83694">
        <ele>221.878962</ele>
        <time>2020-10-11T16:04:40.976Z</time>
      </trkpt>
      <trkpt lat="47.02462" lon="4.8371">
        <ele>222.011262</ele>
        <time>2020-10-11T16:04:47.981Z</time>
      </trkpt>
      <trkpt lat="47.0246" lon="4.83714">
        <ele>222.042926</ele>
        <time>2020-10-11T16:04:49.342Z</time>
      </trkpt>
      <trkpt lat="47.02481" lon="4.83748">
        <ele>222.402949</ele>
        <time>2020-10-11T16:05:08.153Z</time>
      </trkpt>
      <trkpt lat="47.02476" lon="4.83758">
        <ele>222.49904</ele>
        <time>2020-10-11T16:05:12.196Z</time>
      </trkpt>
      <trkpt lat="47.02469" lon="4.83772">
        <ele>222.640274</ele>
        <time>2020-10-11T16:05:19.610Z</time>
      </trkpt>
      <trkpt lat="47.02462" lon="4.83785">
        <ele>222.77046</ele>
        <time>2020-10-11T16:05:26.606Z</time>
      </trkpt>
      <trkpt lat="47.02456" lon="4.83798">
        <ele>222.893887</ele>
        <time>2020-10-11T16:05:32.172Z</time>
      </trkpt>
      <trkpt lat="47.02453" lon="4.83797">
        <ele>222.925196</ele>
        <time>2020-10-11T16:05:33.414Z</time>
      </trkpt>
      <trkpt lat="47.02431" lon="4.83821">
        <ele>223.24859</ele>
        <time>2020-10-11T16:05:49.463Z</time>
      </trkpt>
      <trkpt lat="47.02426" lon="4.83825">
        <ele>223.279921</ele>
        <time>2020-10-11T16:05:52.046Z</time>
      </trkpt>
      <trkpt lat="47.0242" lon="4.83833">
        <ele>223.277056</ele>
        <time>2020-10-11T16:05:56.425Z</time>
      </trkpt>
      <trkpt lat="47.02406" lon="4.8383">
        <ele>223.271817</ele>
        <time>2020-10-11T16:06:05.268Z</time>
      </trkpt>
      <trkpt lat="47.02395" lon="4.8383">
        <ele>223.267939</ele>
        <time>2020-10-11T16:06:10.605Z</time>
      </trkpt>
      <trkpt lat="47.02395" lon="4.838">
        <ele>223.260831</ele>
        <time>2020-10-11T16:06:16.206Z</time>
      </trkpt>
      <trkpt lat="47.02395" lon="4.838">
        <ele>223.260831</ele>
        <time>2020-10-11T16:06:16.224Z</time>
      </trkpt>
      <trkpt lat="47.02395" lon="4.838">
        <ele>223.260831</ele>
        <time>2020-10-11T16:06:16.242Z</time>
      </trkpt>
      <trkpt lat="47.02393" lon="4.83786">
        <ele>223.257338</ele>
        <time>2020-10-11T16:06:18.836Z</time>
      </trkpt>
      <trkpt lat="47.02389" lon="4.83763">
        <ele>223.251496</ele>
        <time>2020-10-11T16:06:22.769Z</time>
      </trkpt>
      <trkpt lat="47.02417" lon="4.83746">
        <ele>223.24078</ele>
        <time>2020-10-11T16:06:37.581Z</time>
      </trkpt>
      <trkpt lat="47.0245" lon="4.83725">
        <ele>223.227909</ele>
        <time>2020-10-11T16:06:55.913Z</time>
      </trkpt>
      <trkpt lat="47.0246" lon="4.83714">
        <ele>223.223431</ele>
        <time>2020-10-11T16:07:02.950Z</time>
      </trkpt>
      <trkpt lat="47.02481" lon="4.83748">
        <ele>223.174602</ele>
        <time>2020-10-11T16:07:19.124Z</time>
      </trkpt>
      <trkpt lat="47.02476" lon="4.83758">
        <ele>223.14662</ele>
        <time>2020-10-11T16:07:23.920Z</time>
      </trkpt>
      <trkpt lat="47.02504" lon="4.83785">
        <ele>223.032066</ele>
        <time>2020-10-11T16:07:41.524Z</time>
      </trkpt>
      <trkpt lat="47.02519" lon="4.838">
        <ele>222.97064</ele>
        <time>2020-10-11T16:07:50.612Z</time>
      </trkpt>
      <trkpt lat="47.02527" lon="4.83788">
        <ele>222.931756</ele>
        <time>2020-10-11T16:07:56.571Z</time>
      </trkpt>
      <trkpt lat="47.02632" lon="4.83873">
        <ele>222.518068</ele>
        <time>2020-10-11T16:08:18.464Z</time>
      </trkpt>
      <trkpt lat="47.02625" lon="4.83901">
        <ele>222.44438</ele>
        <time>2020-10-11T16:08:22.160Z</time>
      </trkpt>
      <trkpt lat="47.02623" lon="4.83907">
        <ele>222.428068</ele>
        <time>2020-10-11T16:08:22.980Z</time>
      </trkpt>
      <trkpt lat="47.02639" lon="4.83916">
        <ele>222.364195</ele>
        <time>2020-10-11T16:08:26.449Z</time>
      </trkpt>
      <trkpt lat="47.02676" lon="4.83932">
        <ele>222.225282</ele>
        <time>2020-10-11T16:08:33.834Z</time>
      </trkpt>
      <trkpt lat="47.02681" lon="4.83935">
        <ele>222.203079</ele>
        <time>2020-10-11T16:08:34.978Z</time>
      </trkpt>
      <trkpt lat="47.02707" lon="4.83944">
        <ele>222.107882</ele>
        <time>2020-10-11T16:08:40.035Z</time>
      </trkpt>
      <trkpt lat="47.02721" lon="4.8395">
        <ele>222.055174</ele>
        <time>2020-10-11T16:08:42.827Z</time>
      </trkpt>
      <trkpt lat="47.02723" lon="4.83951">
        <ele>222.045394</ele>
        <time>2020-10-11T16:08:43.306Z</time>
      </trkpt>
      <trkpt lat="47.02725" lon="4.83951">
        <ele>222.037152</ele>
        <time>2020-10-11T16:08:43.723Z</time>
      </trkpt>
      <trkpt lat="47.02735" lon="4.83953">
        <ele>222.001324</ele>
        <time>2020-10-11T16:08:45.618Z</time>
      </trkpt>
      <trkpt lat="47.02743" lon="4.83956">
        <ele>221.971736</ele>
        <time>2020-10-11T16:08:47.198Z</time>
      </trkpt>
      <trkpt lat="47.02748" lon="4.83959">
        <ele>221.951158</ele>
        <time>2020-10-11T16:08:48.271Z</time>
      </trkpt>
      <trkpt lat="47.02754" lon="4.83961">
        <ele>221.938121</ele>
        <time>2020-10-11T16:08:49.503Z</time>
      </trkpt>
      <trkpt lat="47.02769" lon="4.83964">
        <ele>221.907983</ele>
        <time>2020-10-11T16:08:52.296Z</time>
      </trkpt>
      <trkpt lat="47.02801" lon="4.83972">
        <ele>221.843139</ele>
        <time>2020-10-11T16:08:58.521Z</time>
      </trkpt>
      <trkpt lat="47.02873" lon="4.84007">
        <ele>221.68798</ele>
        <time>2020-10-11T16:09:13.544Z</time>
      </trkpt>
      <trkpt lat="47.02905" lon="4.84028">
        <ele>221.616483</ele>
        <time>2020-10-11T16:09:20.652Z</time>
      </trkpt>
      <trkpt lat="47.03005" lon="4.84123">
        <ele>221.691898</ele>
        <time>2020-10-11T16:09:45.162Z</time>
      </trkpt>
      <trkpt lat="47.03014" lon="4.84132">
        <ele>221.703414</ele>
        <time>2020-10-11T16:09:47.461Z</time>
      </trkpt>
      <trkpt lat="47.03047" lon="4.84157">
        <ele>221.740847</ele>
        <time>2020-10-11T16:09:55.427Z</time>
      </trkpt>
      <trkpt lat="47.03056" lon="4.84164">
        <ele>221.751758</ele>
        <time>2020-10-11T16:09:57.800Z</time>
      </trkpt>
      <trkpt lat="47.03115" lon="4.84208">
        <ele>222.079453</ele>
        <time>2020-10-11T16:10:13.440Z</time>
      </trkpt>
      <trkpt lat="47.03119" lon="4.84211">
        <ele>222.109691</ele>
        <time>2020-10-11T16:10:14.461Z</time>
      </trkpt>
      <trkpt lat="47.03126" lon="4.84216">
        <ele>222.160925</ele>
        <time>2020-10-11T16:10:16.579Z</time>
      </trkpt>
      <trkpt lat="47.03129" lon="4.84218">
        <ele>222.17769</ele>
        <time>2020-10-11T16:10:17.209Z</time>
      </trkpt>
      <trkpt lat="47.03148" lon="4.84233">
        <ele>222.322593</ele>
        <time>2020-10-11T16:10:22.696Z</time>
      </trkpt>
      <trkpt lat="47.03209" lon="4.8428">
        <ele>222.761531</ele>
        <time>2020-10-11T16:10:39.823Z</time>
      </trkpt>
      <trkpt lat="47.03309" lon="4.84362">
        <ele>223.418794</ele>
        <time>2020-10-11T16:11:07.611Z</time>
      </trkpt>
      <trkpt lat="47.03362" lon="4.84406">
        <ele>223.757932</ele>
        <time>2020-10-11T16:11:21.849Z</time>
      </trkpt>
      <trkpt lat="47.03371" lon="4.84414">
        <ele>223.816943</ele>
        <time>2020-10-11T16:11:24.320Z</time>
      </trkpt>
      <trkpt lat="47.03402" lon="4.8444">
        <ele>224.019732</ele>
        <time>2020-10-11T16:11:32.831Z</time>
      </trkpt>
      <trkpt lat="47.03434" lon="4.84466">
        <ele>224.229725</ele>
        <time>2020-10-11T16:11:41.419Z</time>
      </trkpt>
      <trkpt lat="47.03462" lon="4.8449">
        <ele>224.411658</ele>
        <time>2020-10-11T16:11:48.775Z</time>
      </trkpt>
      <trkpt lat="47.03465" lon="4.84492">
        <ele>224.42877</ele>
        <time>2020-10-11T16:11:49.435Z</time>
      </trkpt>
      <trkpt lat="47.03477" lon="4.84503">
        <ele>224.51246</ele>
        <time>2020-10-11T16:11:53.006Z</time>
      </trkpt>
      <trkpt lat="47.03502" lon="4.84522">
        <ele>224.67137</ele>
        <time>2020-10-11T16:11:59.496Z</time>
      </trkpt>
      <trkpt lat="47.03509" lon="4.84528">
        <ele>224.71602</ele>
        <time>2020-10-11T16:12:01.457Z</time>
      </trkpt>
      <trkpt lat="47.03635" lon="4.84634">
        <ele>225.838628</ele>
        <time>2020-10-11T16:12:38.789Z</time>
      </trkpt>
      <trkpt lat="47.03648" lon="4.84645">
        <ele>225.965953</ele>
        <time>2020-10-11T16:12:42.583Z</time>
      </trkpt>
      <trkpt lat="47.03736" lon="4.84718">
        <ele>226.808575</ele>
        <time>2020-10-11T16:13:08.227Z</time>
      </trkpt>
      <trkpt lat="47.03752" lon="4.8473">
        <ele>226.955857</ele>
        <time>2020-10-11T16:13:13.053Z</time>
      </trkpt>
      <trkpt lat="47.03769" lon="4.8474">
        <ele>227.102998</ele>
        <time>2020-10-11T16:13:17.535Z</time>
      </trkpt>
      <trkpt lat="47.03773" lon="4.84742">
        <ele>227.140143</ele>
        <time>2020-10-11T16:13:18.707Z</time>
      </trkpt>
      <trkpt lat="47.03798" lon="4.84756">
        <ele>227.35597</ele>
        <time>2020-10-11T16:13:25.384Z</time>
      </trkpt>
      <trkpt lat="47.03801" lon="4.84757">
        <ele>227.379401</ele>
        <time>2020-10-11T16:13:26.131Z</time>
      </trkpt>
      <trkpt lat="47.03803" lon="4.84758">
        <ele>227.397498</ele>
        <time>2020-10-11T16:13:26.670Z</time>
      </trkpt>
      <trkpt lat="47.03821" lon="4.8477">
        <ele>227.558418</ele>
        <time>2020-10-11T16:13:31.761Z</time>
      </trkpt>
      <trkpt lat="47.03855" lon="4.84784">
        <ele>227.845359</ele>
        <time>2020-10-11T16:13:40.679Z</time>
      </trkpt>
      <trkpt lat="47.03897" lon="4.848">
        <ele>228.155139</ele>
        <time>2020-10-11T16:13:51.348Z</time>
      </trkpt>
      <trkpt lat="47.03902" lon="4.84803">
        <ele>228.192119</ele>
        <time>2020-10-11T16:13:52.764Z</time>
      </trkpt>
      <trkpt lat="47.03903" lon="4.84805">
        <ele>228.202991</ele>
        <time>2020-10-11T16:13:53.152Z</time>
      </trkpt>
      <trkpt lat="47.03907" lon="4.84808">
        <ele>228.23418</ele>
        <time>2020-10-11T16:13:54.209Z</time>
      </trkpt>
      <trkpt lat="47.03909" lon="4.84815">
        <ele>228.269593</ele>
        <time>2020-10-11T16:13:55.348Z</time>
      </trkpt>
      <trkpt lat="47.03912" lon="4.84821">
        <ele>228.303137</ele>
        <time>2020-10-11T16:13:56.583Z</time>
      </trkpt>
      <trkpt lat="47.03917" lon="4.84826">
        <ele>228.344536</ele>
        <time>2020-10-11T16:13:58.017Z</time>
      </trkpt>
      <trkpt lat="47.03921" lon="4.84828">
        <ele>228.376672</ele>
        <time>2020-10-11T16:13:59.153Z</time>
      </trkpt>
      <trkpt lat="47.03926" lon="4.8483">
        <ele>228.411356</ele>
        <time>2020-10-11T16:14:00.462Z</time>
      </trkpt>
      <trkpt lat="47.0393" lon="4.84829">
        <ele>228.441654</ele>
        <time>2020-10-11T16:14:01.637Z</time>
      </trkpt>
      <trkpt lat="47.0394" lon="4.84821">
        <ele>228.517321</ele>
        <time>2020-10-11T16:14:04.217Z</time>
      </trkpt>
      <trkpt lat="47.03942" lon="4.84816">
        <ele>228.547883</ele>
        <time>2020-10-11T16:14:05.361Z</time>
      </trkpt>
      <trkpt lat="47.03949" lon="4.84813">
        <ele>228.596323</ele>
        <time>2020-10-11T16:14:07.086Z</time>
      </trkpt>
      <trkpt lat="47.03954" lon="4.84813">
        <ele>228.630632</ele>
        <time>2020-10-11T16:14:08.371Z</time>
      </trkpt>
      <trkpt lat="47.0396" lon="4.84813">
        <ele>228.671802</ele>
        <time>2020-10-11T16:14:10.044Z</time>
      </trkpt>
      <trkpt lat="47.04007" lon="4.84825">
        <ele>228.996965</ele>
        <time>2020-10-11T16:14:22.044Z</time>
      </trkpt>
      <trkpt lat="47.04092" lon="4.84849">
        <ele>229.337712</ele>
        <time>2020-10-11T16:14:42.451Z</time>
      </trkpt>
      <trkpt lat="47.04138" lon="4.8486">
        <ele>229.464615</ele>
        <time>2020-10-11T16:14:53.030Z</time>
      </trkpt>
      <trkpt lat="47.04163" lon="4.84866">
        <ele>229.534653</ele>
        <time>2020-10-11T16:14:58.417Z</time>
      </trkpt>
      <trkpt lat="47.04205" lon="4.84876">
        <ele>229.650479</ele>
        <time>2020-10-11T16:15:07.198Z</time>
      </trkpt>
      <trkpt lat="47.04285" lon="4.84899">
        <ele>229.486174</ele>
        <time>2020-10-11T16:15:23.526Z</time>
      </trkpt>
      <trkpt lat="47.04302" lon="4.84912">
        <ele>229.442118</ele>
        <time>2020-10-11T16:15:27.059Z</time>
      </trkpt>
      <trkpt lat="47.04307" lon="4.84917">
        <ele>229.428126</ele>
        <time>2020-10-11T16:15:28.190Z</time>
      </trkpt>
      <trkpt lat="47.04308" lon="4.84923">
        <ele>229.417825</ele>
        <time>2020-10-11T16:15:29.012Z</time>
      </trkpt>
      <trkpt lat="47.0431" lon="4.84929">
        <ele>229.407537</ele>
        <time>2020-10-11T16:15:29.901Z</time>
      </trkpt>
      <trkpt lat="47.04315" lon="4.84939">
        <ele>229.38809</ele>
        <time>2020-10-11T16:15:31.547Z</time>
      </trkpt>
      <trkpt lat="47.04323" lon="4.84944">
        <ele>229.368833</ele>
        <time>2020-10-11T16:15:33.145Z</time>
      </trkpt>
      <trkpt lat="47.0433" lon="4.84945">
        <ele>229.351655</ele>
        <time>2020-10-11T16:15:34.704Z</time>
      </trkpt>
      <trkpt lat="47.04337" lon="4.84942">
        <ele>229.334424</ele>
        <time>2020-10-11T16:15:36.077Z</time>
      </trkpt>
      <trkpt lat="47.04343" lon="4.84936">
        <ele>229.317258</ele>
        <time>2020-10-11T16:15:37.520Z</time>
      </trkpt>
      <trkpt lat="47.04352" lon="4.84938">
        <ele>229.297717</ele>
        <time>2020-10-11T16:15:39.138Z</time>
      </trkpt>
      <trkpt lat="47.04383" lon="4.8496">
        <ele>229.246672</ele>
        <time>2020-10-11T16:15:45.712Z</time>
      </trkpt>
      <trkpt lat="47.04454" lon="4.85026">
        <ele>229.238468</ele>
        <time>2020-10-11T16:16:02.110Z</time>
      </trkpt>
      <trkpt lat="47.0446" lon="4.85031">
        <ele>229.237753</ele>
        <time>2020-10-11T16:16:03.703Z</time>
      </trkpt>
      <trkpt lat="47.04469" lon="4.8504">
        <ele>229.236697</ele>
        <time>2020-10-11T16:16:05.950Z</time>
      </trkpt>
      <trkpt lat="47.04534" lon="4.85101">
        <ele>229.328346</ele>
        <time>2020-10-11T16:16:23.036Z</time>
      </trkpt>
      <trkpt lat="47.04591" lon="4.85153">
        <ele>229.86468</ele>
        <time>2020-10-11T16:16:39.364Z</time>
      </trkpt>
      <trkpt lat="47.04627" lon="4.85188">
        <ele>230.213169</ele>
        <time>2020-10-11T16:16:50.749Z</time>
      </trkpt>
      <trkpt lat="47.04731" lon="4.85273">
        <ele>231.168073</ele>
        <time>2020-10-11T16:17:23.309Z</time>
      </trkpt>
      <trkpt lat="47.04881" lon="4.85393">
        <ele>232.038753</ele>
        <time>2020-10-11T16:18:04.533Z</time>
      </trkpt>
      <trkpt lat="47.0492" lon="4.85424">
        <ele>231.965282</ele>
        <time>2020-10-11T16:18:13.537Z</time>
      </trkpt>
      <trkpt lat="47.04963" lon="4.85458">
        <ele>231.883735</ele>
        <time>2020-10-11T16:18:22.648Z</time>
      </trkpt>
      <trkpt lat="47.05045" lon="4.85523">
        <ele>231.326876</ele>
        <time>2020-10-11T16:18:38.837Z</time>
      </trkpt>
      <trkpt lat="47.05088" lon="4.85558">
        <ele>230.913384</ele>
        <time>2020-10-11T16:18:47.375Z</time>
      </trkpt>
      <trkpt lat="47.05125" lon="4.8559">
        <ele>230.551844</ele>
        <time>2020-10-11T16:18:54.833Z</time>
      </trkpt>
      <trkpt lat="47.0514" lon="4.85603">
        <ele>230.403214</ele>
        <time>2020-10-11T16:18:57.959Z</time>
      </trkpt>
      <trkpt lat="47.05192" lon="4.85647">
        <ele>229.997833</ele>
        <time>2020-10-11T16:19:08.481Z</time>
      </trkpt>
      <trkpt lat="47.05252" lon="4.85693">
        <ele>229.563901</ele>
        <time>2020-10-11T16:19:20.904Z</time>
      </trkpt>
      <trkpt lat="47.05316" lon="4.85741">
        <ele>229.08271</ele>
        <time>2020-10-11T16:19:34.535Z</time>
      </trkpt>
      <trkpt lat="47.05432" lon="4.85824">
        <ele>227.974338</ele>
        <time>2020-10-11T16:19:57.047Z</time>
      </trkpt>
      <trkpt lat="47.0558" lon="4.85913">
        <ele>226.4925</ele>
        <time>2020-10-11T16:20:24.120Z</time>
      </trkpt>
      <trkpt lat="47.0559" lon="4.8592">
        <ele>226.391347</ele>
        <time>2020-10-11T16:20:26.010Z</time>
      </trkpt>
      <trkpt lat="47.05592" lon="4.85922">
        <ele>226.372125</ele>
        <time>2020-10-11T16:20:26.288Z</time>
      </trkpt>
      <trkpt lat="47.05661" lon="4.85972">
        <ele>225.786441</ele>
        <time>2020-10-11T16:20:40.379Z</time>
      </trkpt>
      <trkpt lat="47.05678" lon="4.85986">
        <ele>225.702043</ele>
        <time>2020-10-11T16:20:44.024Z</time>
      </trkpt>
      <trkpt lat="47.05735" lon="4.86033">
        <ele>225.422591</ele>
        <time>2020-10-11T16:20:55.788Z</time>
      </trkpt>
      <trkpt lat="47.0577" lon="4.86063">
        <ele>225.245709</ele>
        <time>2020-10-11T16:21:03.641Z</time>
      </trkpt>
      <trkpt lat="47.05841" lon="4.86141">
        <ele>225.285783</ele>
        <time>2020-10-11T16:21:21.979Z</time>
      </trkpt>
      <trkpt lat="47.05868" lon="4.86173">
        <ele>225.370579</ele>
        <time>2020-10-11T16:21:29.597Z</time>
      </trkpt>
      <trkpt lat="47.05905" lon="4.86214">
        <ele>225.485675</ele>
        <time>2020-10-11T16:21:40.095Z</time>
      </trkpt>
      <trkpt lat="47.05976" lon="4.86294">
        <ele>226.017999</ele>
        <time>2020-10-11T16:22:01.952Z</time>
      </trkpt>
      <trkpt lat="47.06086" lon="4.86405">
        <ele>227.114215</ele>
        <time>2020-10-11T16:22:37.344Z</time>
      </trkpt>
      <trkpt lat="47.06188" lon="4.86503">
        <ele>227.867815</ele>
        <time>2020-10-11T16:23:07.150Z</time>
      </trkpt>
      <trkpt lat="47.06217" lon="4.86532">
        <ele>228.081566</ele>
        <time>2020-10-11T16:23:15.069Z</time>
      </trkpt>
      <trkpt lat="47.06291" lon="4.866">
        <ele>228.437789</ele>
        <time>2020-10-11T16:23:34.529Z</time>
      </trkpt>
      <trkpt lat="47.06391" lon="4.86697">
        <ele>228.880396</ele>
        <time>2020-10-11T16:24:01.927Z</time>
      </trkpt>
      <trkpt lat="47.06423" lon="4.8673">
        <ele>229.073958</ele>
        <time>2020-10-11T16:24:11.592Z</time>
      </trkpt>
      <trkpt lat="47.06764" lon="4.87067">
        <ele>228.988512</ele>
        <time>2020-10-11T16:25:48.050Z</time>
      </trkpt>
      <trkpt lat="47.06861" lon="4.87164">
        <ele>225.948168</ele>
        <time>2020-10-11T16:26:04.016Z</time>
      </trkpt>
      <trkpt lat="47.06966" lon="4.87271">
        <ele>220.124967</ele>
        <time>2020-10-11T16:26:20.754Z</time>
      </trkpt>
      <trkpt lat="47.0697" lon="4.87276">
        <ele>219.900315</ele>
        <time>2020-10-11T16:26:21.434Z</time>
      </trkpt>
      <trkpt lat="47.07094" lon="4.87395">
        <ele>216.156513</ele>
        <time>2020-10-11T16:26:43.018Z</time>
      </trkpt>
      <trkpt lat="47.07119" lon="4.8742">
        <ele>215.427154</ele>
        <time>2020-10-11T16:26:48.247Z</time>
      </trkpt>
      <trkpt lat="47.07135" lon="4.87436">
        <ele>215.225701</ele>
        <time>2020-10-11T16:26:51.922Z</time>
      </trkpt>
      <trkpt lat="47.07154" lon="4.87457">
        <ele>215.284302</ele>
        <time>2020-10-11T16:26:56.341Z</time>
      </trkpt>
      <trkpt lat="47.07159" lon="4.87463">
        <ele>215.300324</ele>
        <time>2020-10-11T16:26:57.573Z</time>
      </trkpt>
      <trkpt lat="47.07179" lon="4.87501">
        <ele>215.383281</ele>
        <time>2020-10-11T16:27:04.242Z</time>
      </trkpt>
      <trkpt lat="47.07185" lon="4.87515">
        <ele>215.411234</ele>
        <time>2020-10-11T16:27:06.915Z</time>
      </trkpt>
      <trkpt lat="47.07199" lon="4.8755">
        <ele>215.480176</ele>
        <time>2020-10-11T16:27:13.379Z</time>
      </trkpt>
      <trkpt lat="47.07207" lon="4.87569">
        <ele>215.518039</ele>
        <time>2020-10-11T16:27:17.399Z</time>
      </trkpt>
      <trkpt lat="47.07215" lon="4.87589">
        <ele>215.55865</ele>
        <time>2020-10-11T16:27:21.290Z</time>
      </trkpt>
      <trkpt lat="47.07225" lon="4.87615">
        <ele>215.610858</ele>
        <time>2020-10-11T16:27:26.963Z</time>
      </trkpt>
      <trkpt lat="47.07249" lon="4.87683">
        <ele>216.174466</ele>
        <time>2020-10-11T16:27:40.753Z</time>
      </trkpt>
      <trkpt lat="47.07258" lon="4.87703">
        <ele>216.417499</ele>
        <time>2020-10-11T16:27:45.739Z</time>
      </trkpt>
      <trkpt lat="47.07275" lon="4.87739">
        <ele>216.842805</ele>
        <time>2020-10-11T16:27:54.264Z</time>
      </trkpt>
      <trkpt lat="47.07323" lon="4.87863">
        <ele>218.261681</ele>
        <time>2020-10-11T16:28:23.800Z</time>
      </trkpt>
      <trkpt lat="47.0735" lon="4.87939">
        <ele>218.937035</ele>
        <time>2020-10-11T16:28:45.565Z</time>
      </trkpt>
      <trkpt lat="47.07399" lon="4.88081">
        <ele>220.180637</ele>
        <time>2020-10-11T16:29:22.463Z</time>
      </trkpt>
      <trkpt lat="47.07408" lon="4.88107">
        <ele>220.365609</ele>
        <time>2020-10-11T16:29:28.781Z</time>
      </trkpt>
      <trkpt lat="47.07445" lon="4.88211">
        <ele>220.7219</ele>
        <time>2020-10-11T16:29:53.948Z</time>
      </trkpt>
      <trkpt lat="47.07518" lon="4.88408">
        <ele>221.290695</ele>
        <time>2020-10-11T16:30:39.399Z</time>
      </trkpt>
      <trkpt lat="47.07541" lon="4.88497">
        <ele>221.451227</ele>
        <time>2020-10-11T16:30:58.408Z</time>
      </trkpt>
      <trkpt lat="47.0755" lon="4.88535">
        <ele>221.520836</ele>
        <time>2020-10-11T16:31:06.619Z</time>
      </trkpt>
      <trkpt lat="47.07561" lon="4.88583">
        <ele>221.618548</ele>
        <time>2020-10-11T16:31:16.974Z</time>
      </trkpt>
      <trkpt lat="47.07563" lon="4.88596">
        <ele>221.659493</ele>
        <time>2020-10-11T16:31:19.186Z</time>
      </trkpt>
      <trkpt lat="47.07614" lon="4.88786">
        <ele>222.278768</ele>
        <time>2020-10-11T16:31:51.373Z</time>
      </trkpt>
      <trkpt lat="47.07653" lon="4.88907">
        <ele>222.724513</ele>
        <time>2020-10-11T16:32:13.393Z</time>
      </trkpt>
      <trkpt lat="47.07676" lon="4.8906">
        <ele>223.270787</ele>
        <time>2020-10-11T16:32:38.783Z</time>
      </trkpt>
      <trkpt lat="47.07686" lon="4.89097">
        <ele>223.333085</ele>
        <time>2020-10-11T16:32:44.882Z</time>
      </trkpt>
      <trkpt lat="47.07688" lon="4.891">
        <ele>223.336104</ele>
        <time>2020-10-11T16:32:45.606Z</time>
      </trkpt>
      <trkpt lat="47.07697" lon="4.8912">
        <ele>223.35396</ele>
        <time>2020-10-11T16:32:49.196Z</time>
      </trkpt>
      <trkpt lat="47.07712" lon="4.89167">
        <ele>223.393723</ele>
        <time>2020-10-11T16:32:57.077Z</time>
      </trkpt>
      <trkpt lat="47.07791" lon="4.89328">
        <ele>223.603043</ele>
        <time>2020-10-11T16:33:24.731Z</time>
      </trkpt>
      <trkpt lat="47.07805" lon="4.89369">
        <ele>223.700534</ele>
        <time>2020-10-11T16:33:31.005Z</time>
      </trkpt>
      <trkpt lat="47.07812" lon="4.89409">
        <ele>223.788943</ele>
        <time>2020-10-11T16:33:36.969Z</time>
      </trkpt>
      <trkpt lat="47.07822" lon="4.8946">
        <ele>223.902594</ele>
        <time>2020-10-11T16:33:45.199Z</time>
      </trkpt>
      <trkpt lat="47.07842" lon="4.89547">
        <ele>224.179299</ele>
        <time>2020-10-11T16:34:00.370Z</time>
      </trkpt>
      <trkpt lat="47.07875" lon="4.89659">
        <ele>225.427554</ele>
        <time>2020-10-11T16:34:23.564Z</time>
      </trkpt>
      <trkpt lat="47.07899" lon="4.89712">
        <ele>226.081747</ele>
        <time>2020-10-11T16:34:36.991Z</time>
      </trkpt>
      <trkpt lat="47.07925" lon="4.89743">
        <ele>226.591867</ele>
        <time>2020-10-11T16:34:47.933Z</time>
      </trkpt>
      <trkpt lat="47.07946" lon="4.89781">
        <ele>227.164998</ele>
        <time>2020-10-11T16:34:58.820Z</time>
      </trkpt>
      <trkpt lat="47.07978" lon="4.89851">
        <ele>228.229423</ele>
        <time>2020-10-11T16:35:17.426Z</time>
      </trkpt>
      <trkpt lat="47.08092" lon="4.90155">
        <ele>231.935407</ele>
        <time>2020-10-11T16:36:29.118Z</time>
      </trkpt>
      <trkpt lat="47.08212" lon="4.9041">
        <ele>233.226537</ele>
        <time>2020-10-11T16:37:18.626Z</time>
      </trkpt>
      <trkpt lat="47.08258" lon="4.90501">
        <ele>233.264269</ele>
        <time>2020-10-11T16:37:34.113Z</time>
      </trkpt>
      <trkpt lat="47.08306" lon="4.90578">
        <ele>233.240415</ele>
        <time>2020-10-11T16:37:48.291Z</time>
      </trkpt>
      <trkpt lat="47.08365" lon="4.9064">
        <ele>233.303251</ele>
        <time>2020-10-11T16:38:03.106Z</time>
      </trkpt>
      <trkpt lat="47.08373" lon="4.90643">
        <ele>233.327288</ele>
        <time>2020-10-11T16:38:04.804Z</time>
      </trkpt>
      <trkpt lat="47.08385" lon="4.90649">
        <ele>233.367792</ele>
        <time>2020-10-11T16:38:08.909Z</time>
      </trkpt>
      <trkpt lat="47.08462" lon="4.907">
        <ele>233.617288</ele>
        <time>2020-10-11T16:38:34.303Z</time>
      </trkpt>
      <trkpt lat="47.08488" lon="4.9072">
        <ele>233.704597</ele>
        <time>2020-10-11T16:38:43.486Z</time>
      </trkpt>
      <trkpt lat="47.08544" lon="4.90765">
        <ele>233.796968</ele>
        <time>2020-10-11T16:39:03.362Z</time>
      </trkpt>
      <trkpt lat="47.08579" lon="4.90804">
        <ele>233.833556</ele>
        <time>2020-10-11T16:39:16.431Z</time>
      </trkpt>
      <trkpt lat="47.08586" lon="4.90815">
        <ele>233.841804</ele>
        <time>2020-10-11T16:39:19.318Z</time>
      </trkpt>
      <trkpt lat="47.08628" lon="4.90883">
        <ele>233.892893</ele>
        <time>2020-10-11T16:39:36.782Z</time>
      </trkpt>
      <trkpt lat="47.0867" lon="4.90962">
        <ele>233.585151</ele>
        <time>2020-10-11T16:39:54.742Z</time>
      </trkpt>
      <trkpt lat="47.0871" lon="4.91054">
        <ele>233.11403</ele>
        <time>2020-10-11T16:40:13.539Z</time>
      </trkpt>
      <trkpt lat="47.08769" lon="4.91144">
        <ele>232.5939</ele>
        <time>2020-10-11T16:40:34.429Z</time>
      </trkpt>
      <trkpt lat="47.08834" lon="4.91224">
        <ele>232.109273</ele>
        <time>2020-10-11T16:40:56.202Z</time>
      </trkpt>
      <trkpt lat="47.08845" lon="4.91235">
        <ele>232.033543</ele>
        <time>2020-10-11T16:40:59.425Z</time>
      </trkpt>
      <trkpt lat="47.08869" lon="4.9125">
        <ele>231.879211</ele>
        <time>2020-10-11T16:41:06.577Z</time>
      </trkpt>
      <trkpt lat="47.08919" lon="4.91269">
        <ele>231.733682</ele>
        <time>2020-10-11T16:41:20.118Z</time>
      </trkpt>
      <trkpt lat="47.08964" lon="4.91301">
        <ele>231.732091</ele>
        <time>2020-10-11T16:41:34.109Z</time>
      </trkpt>
      <trkpt lat="47.09019" lon="4.91327">
        <ele>231.730292</ele>
        <time>2020-10-11T16:41:50.238Z</time>
      </trkpt>
      <trkpt lat="47.09016" lon="4.91333">
        <ele>231.73014</ele>
        <time>2020-10-11T16:41:51.380Z</time>
      </trkpt>
      <trkpt lat="47.091" lon="4.91367">
        <ele>231.960026</ele>
        <time>2020-10-11T16:42:17.660Z</time>
      </trkpt>
      <trkpt lat="47.09212" lon="4.91448">
        <ele>232.608663</ele>
        <time>2020-10-11T16:42:57.198Z</time>
      </trkpt>
      <trkpt lat="47.09237" lon="4.91468">
        <ele>232.698012</ele>
        <time>2020-10-11T16:43:06.178Z</time>
      </trkpt>
      <trkpt lat="47.0926" lon="4.91519">
        <ele>232.781339</ele>
        <time>2020-10-11T16:43:19.031Z</time>
      </trkpt>
      <trkpt lat="47.0929" lon="4.91593">
        <ele>232.897952</ele>
        <time>2020-10-11T16:43:36.760Z</time>
      </trkpt>
      <trkpt lat="47.0931" lon="4.91625">
        <ele>232.957754</ele>
        <time>2020-10-11T16:43:45.634Z</time>
      </trkpt>
      <trkpt lat="47.09473" lon="4.91828">
        <ele>232.207604</ele>
        <time>2020-10-11T16:44:41.965Z</time>
      </trkpt>
      <trkpt lat="47.09518" lon="4.91891">
        <ele>231.728127</ele>
        <time>2020-10-11T16:44:57.375Z</time>
      </trkpt>
      <trkpt lat="47.09547" lon="4.91934">
        <ele>231.414781</ele>
        <time>2020-10-11T16:45:07.397Z</time>
      </trkpt>
      <trkpt lat="47.09567" lon="4.91959">
        <ele>231.215165</ele>
        <time>2020-10-11T16:45:13.783Z</time>
      </trkpt>
      <trkpt lat="47.0969" lon="4.92041">
        <ele>230.38013</ele>
        <time>2020-10-11T16:45:47.799Z</time>
      </trkpt>
      <trkpt lat="47.09787" lon="4.92107">
        <ele>229.870242</ele>
        <time>2020-10-11T16:46:16.169Z</time>
      </trkpt>
      <trkpt lat="47.09877" lon="4.92169">
        <ele>229.798637</ele>
        <time>2020-10-11T16:46:43.168Z</time>
      </trkpt>
      <trkpt lat="47.09912" lon="4.92197">
        <ele>229.769901</ele>
        <time>2020-10-11T16:46:54.562Z</time>
      </trkpt>
      <trkpt lat="47.09912" lon="4.92203">
        <ele>229.766898</ele>
        <time>2020-10-11T16:46:55.793Z</time>
      </trkpt>
      <trkpt lat="47.09912" lon="4.92207">
        <ele>229.764953</ele>
        <time>2020-10-11T16:46:56.469Z</time>
      </trkpt>
      <trkpt lat="47.09947" lon="4.92204">
        <ele>229.927806</ele>
        <time>2020-10-11T16:47:04.153Z</time>
      </trkpt>
      <trkpt lat="47.09985" lon="4.92196">
        <ele>230.378975</ele>
        <time>2020-10-11T16:47:13.227Z</time>
      </trkpt>
      <trkpt lat="47.10017" lon="4.92133">
        <ele>231.006064</ele>
        <time>2020-10-11T16:47:27.449Z</time>
      </trkpt>
      <trkpt lat="47.10047" lon="4.92082">
        <ele>231.546674</ele>
        <time>2020-10-11T16:47:41.239Z</time>
      </trkpt>
      <trkpt lat="47.10073" lon="4.9208">
        <ele>231.855055</ele>
        <time>2020-10-11T16:47:49.728Z</time>
      </trkpt>
      <trkpt lat="47.10098" lon="4.92096">
        <ele>232.576625</ele>
        <time>2020-10-11T16:47:59.105Z</time>
      </trkpt>
      <trkpt lat="47.10124" lon="4.92095">
        <ele>233.239189</ele>
        <time>2020-10-11T16:48:07.682Z</time>
      </trkpt>
      <trkpt lat="47.10164" lon="4.92099">
        <ele>234.289349</ele>
        <time>2020-10-11T16:48:21.851Z</time>
      </trkpt>
      <trkpt lat="47.10224" lon="4.92098">
        <ele>235.843613</ele>
        <time>2020-10-11T16:48:43.996Z</time>
      </trkpt>
      <trkpt lat="47.10255" lon="4.92116">
        <ele>236.721053</ele>
        <time>2020-10-11T16:48:56.417Z</time>
      </trkpt>
      <trkpt lat="47.10284" lon="4.9215">
        <ele>237.70899</ele>
        <time>2020-10-11T16:49:10.622Z</time>
      </trkpt>
      <trkpt lat="47.10304" lon="4.92168">
        <ele>238.336384</ele>
        <time>2020-10-11T16:49:19.437Z</time>
      </trkpt>
      <trkpt lat="47.10322" lon="4.92178">
        <ele>238.854734</ele>
        <time>2020-10-11T16:49:26.549Z</time>
      </trkpt>
      <trkpt lat="47.10355" lon="4.92196">
        <ele>239.777775</ele>
        <time>2020-10-11T16:49:38.746Z</time>
      </trkpt>
      <trkpt lat="47.10383" lon="4.92204">
        <ele>240.549944</ele>
        <time>2020-10-11T16:49:48.516Z</time>
      </trkpt>
      <trkpt lat="47.10402" lon="4.92199">
        <ele>241.038175</ele>
        <time>2020-10-11T16:49:54.940Z</time>
      </trkpt>
      <trkpt lat="47.10416" lon="4.922">
        <ele>241.39624</ele>
        <time>2020-10-11T16:49:59.472Z</time>
      </trkpt>
      <trkpt lat="47.10421" lon="4.922">
        <ele>241.490017</ele>
        <time>2020-10-11T16:50:01.173Z</time>
      </trkpt>
      <trkpt lat="47.10426" lon="4.92199">
        <ele>241.595416</ele>
        <time>2020-10-11T16:50:03.598Z</time>
      </trkpt>
      <trkpt lat="47.10429" lon="4.92199">
        <ele>241.636851</ele>
        <time>2020-10-11T16:50:04.520Z</time>
      </trkpt>
      <trkpt lat="47.10479" lon="4.92193">
        <ele>242.584926</ele>
        <time>2020-10-11T16:50:24.533Z</time>
      </trkpt>
      <trkpt lat="47.10636" lon="4.92178">
        <ele>245.504561</ele>
        <time>2020-10-11T16:51:23.903Z</time>
      </trkpt>
      <trkpt lat="47.10657" lon="4.92185">
        <ele>245.894717</ele>
        <time>2020-10-11T16:51:32.498Z</time>
      </trkpt>
      <trkpt lat="47.10744" lon="4.92257">
        <ele>247.715958</ele>
        <time>2020-10-11T16:52:11.478Z</time>
      </trkpt>
      <trkpt lat="47.10763" lon="4.92266">
        <ele>248.064473</ele>
        <time>2020-10-11T16:52:18.691Z</time>
      </trkpt>
      <trkpt lat="47.10774" lon="4.92272">
        <ele>248.253854</ele>
        <time>2020-10-11T16:52:23.674Z</time>
      </trkpt>
      <trkpt lat="47.10791" lon="4.92289">
        <ele>248.568425</ele>
        <time>2020-10-11T16:52:31.013Z</time>
      </trkpt>
      <trkpt lat="47.10822" lon="4.92333">
        <ele>249.238742</ele>
        <time>2020-10-11T16:52:47.097Z</time>
      </trkpt>
      <trkpt lat="47.10873" lon="4.92431">
        <ele>250.548908</ele>
        <time>2020-10-11T16:53:19.251Z</time>
      </trkpt>
      <trkpt lat="47.10907" lon="4.9248">
        <ele>250.552159</ele>
        <time>2020-10-11T16:53:35.719Z</time>
      </trkpt>
      <trkpt lat="47.10929" lon="4.92505">
        <ele>250.343897</ele>
        <time>2020-10-11T16:53:43.618Z</time>
      </trkpt>
      <trkpt lat="47.10935" lon="4.92512">
        <ele>250.281956</ele>
        <time>2020-10-11T16:53:46.473Z</time>
      </trkpt>
      <trkpt lat="47.10976" lon="4.92565">
        <ele>249.880654</ele>
        <time>2020-10-11T16:53:59.944Z</time>
      </trkpt>
      <trkpt lat="47.1099" lon="4.92582">
        <ele>249.742941</ele>
        <time>2020-10-11T16:54:04.550Z</time>
      </trkpt>
      <trkpt lat="47.11008" lon="4.92603">
        <ele>249.576209</ele>
        <time>2020-10-11T16:54:09.388Z</time>
      </trkpt>
      <trkpt lat="47.11083" lon="4.92708">
        <ele>246.050143</ele>
        <time>2020-10-11T16:54:30.226Z</time>
      </trkpt>
      <trkpt lat="47.11125" lon="4.92832">
        <ele>242.407497</ele>
        <time>2020-10-11T16:54:47.728Z</time>
      </trkpt>
      <trkpt lat="47.11179" lon="4.92939">
        <ele>242.337584</ele>
        <time>2020-10-11T16:55:09.705Z</time>
      </trkpt>
      <trkpt lat="47.11181" lon="4.92965">
        <ele>242.324298</ele>
        <time>2020-10-11T16:55:13.363Z</time>
      </trkpt>
      <trkpt lat="47.11193" lon="4.92967">
        <ele>242.314929</ele>
        <time>2020-10-11T16:55:18.838Z</time>
      </trkpt>
      <trkpt lat="47.11229" lon="4.92975">
        <ele>242.286807</ele>
        <time>2020-10-11T16:55:33.039Z</time>
      </trkpt>
      <trkpt lat="47.11234" lon="4.92976">
        <ele>242.283264</ele>
        <time>2020-10-11T16:55:36.611Z</time>
      </trkpt>
      <trkpt lat="47.1127" lon="4.92978">
        <ele>243.274017</ele>
        <time>2020-10-11T16:55:54.087Z</time>
      </trkpt>
      <trkpt lat="47.11284" lon="4.92982">
        <ele>244.041406</ele>
        <time>2020-10-11T16:55:59.644Z</time>
      </trkpt>
      <trkpt lat="47.11307" lon="4.92998">
        <ele>245.340064</ele>
        <time>2020-10-11T16:56:15.824Z</time>
      </trkpt>
      <trkpt lat="47.11344" lon="4.93034">
        <ele>247.669521</ele>
        <time>2020-10-11T16:56:44.148Z</time>
      </trkpt>
      <trkpt lat="47.11422" lon="4.93094">
        <ele>252.005055</ele>
        <time>2020-10-11T16:57:39.938Z</time>
      </trkpt>
      <trkpt lat="47.11477" lon="4.93113">
        <ele>253.78891</ele>
        <time>2020-10-11T16:58:07.580Z</time>
      </trkpt>
      <trkpt lat="47.11511" lon="4.93119">
        <ele>254.883255</ele>
        <time>2020-10-11T16:58:23.401Z</time>
      </trkpt>
      <trkpt lat="47.11541" lon="4.93153">
        <ele>256.102467</ele>
        <time>2020-10-11T16:58:39.236Z</time>
      </trkpt>
      <trkpt lat="47.11581" lon="4.93212">
        <ele>257.549315</ele>
        <time>2020-10-11T16:59:00.541Z</time>
      </trkpt>
      <trkpt lat="47.11671" lon="4.93287">
        <ele>258.670933</ele>
        <time>2020-10-11T16:59:34.585Z</time>
      </trkpt>
      <trkpt lat="47.11687" lon="4.93294">
        <ele>258.852152</ele>
        <time>2020-10-11T16:59:40.515Z</time>
      </trkpt>
      <trkpt lat="47.11709" lon="4.93292">
        <ele>259.098851</ele>
        <time>2020-10-11T16:59:48.172Z</time>
      </trkpt>
      <trkpt lat="47.11755" lon="4.93277">
        <ele>259.347426</ele>
        <time>2020-10-11T17:00:04.176Z</time>
      </trkpt>
      <trkpt lat="47.11781" lon="4.9329">
        <ele>259.380053</ele>
        <time>2020-10-11T17:00:12.915Z</time>
      </trkpt>
      <trkpt lat="47.11798" lon="4.93303">
        <ele>259.403257</ele>
        <time>2020-10-11T17:00:19.435Z</time>
      </trkpt>
      <trkpt lat="47.11812" lon="4.93312">
        <ele>259.42235</ele>
        <time>2020-10-11T17:00:23.999Z</time>
      </trkpt>
      <trkpt lat="47.11859" lon="4.93355">
        <ele>259.487795</ele>
        <time>2020-10-11T17:00:40.239Z</time>
      </trkpt>
      <trkpt lat="47.1195" lon="4.93494">
        <ele>257.849275</ele>
        <time>2020-10-11T17:01:10.902Z</time>
      </trkpt>
      <trkpt lat="47.12032" lon="4.93555">
        <ele>256.242741</ele>
        <time>2020-10-11T17:01:30.588Z</time>
      </trkpt>
      <trkpt lat="47.12111" lon="4.93589">
        <ele>254.936494</ele>
        <time>2020-10-11T17:01:48.740Z</time>
      </trkpt>
      <trkpt lat="47.12153" lon="4.93597">
        <ele>254.262427</ele>
        <time>2020-10-11T17:01:58.498Z</time>
      </trkpt>
      <trkpt lat="47.12201" lon="4.93619">
        <ele>253.486709</ele>
        <time>2020-10-11T17:02:10.830Z</time>
      </trkpt>
      <trkpt lat="47.12228" lon="4.93619">
        <ele>253.407835</ele>
        <time>2020-10-11T17:02:17.412Z</time>
      </trkpt>
      <trkpt lat="47.12356" lon="4.93668">
        <ele>253.010967</ele>
        <time>2020-10-11T17:02:53.574Z</time>
      </trkpt>
      <trkpt lat="47.12374" lon="4.93678">
        <ele>252.947544</ele>
        <time>2020-10-11T17:02:59.292Z</time>
      </trkpt>
      <trkpt lat="47.12393" lon="4.93702">
        <ele>252.78016</ele>
        <time>2020-10-11T17:03:06.910Z</time>
      </trkpt>
      <trkpt lat="47.12418" lon="4.93732">
        <ele>252.566098</ele>
        <time>2020-10-11T17:03:16.108Z</time>
      </trkpt>
      <trkpt lat="47.1244" lon="4.93773">
        <ele>252.329117</ele>
        <time>2020-10-11T17:03:25.428Z</time>
      </trkpt>
      <trkpt lat="47.12455" lon="4.93787">
        <ele>252.210652</ele>
        <time>2020-10-11T17:03:29.970Z</time>
      </trkpt>
      <trkpt lat="47.12491" lon="4.93804">
        <ele>251.958471</ele>
        <time>2020-10-11T17:03:39.230Z</time>
      </trkpt>
      <trkpt lat="47.12522" lon="4.93822">
        <ele>251.680631</ele>
        <time>2020-10-11T17:03:46.958Z</time>
      </trkpt>
      <trkpt lat="47.12484" lon="4.93903">
        <ele>249.908859</ele>
        <time>2020-10-11T17:04:01.336Z</time>
      </trkpt>
      <trkpt lat="47.1246" lon="4.93994">
        <ele>248.138687</ele>
        <time>2020-10-11T17:04:15.234Z</time>
      </trkpt>
      <trkpt lat="47.1245" lon="4.94039">
        <ele>247.300424</ele>
        <time>2020-10-11T17:04:21.625Z</time>
      </trkpt>
      <trkpt lat="47.12483" lon="4.94057">
        <ele>246.395246</ele>
        <time>2020-10-11T17:04:28.679Z</time>
      </trkpt>
      <trkpt lat="47.12549" lon="4.94088">
        <ele>244.602723</ele>
        <time>2020-10-11T17:04:43.124Z</time>
      </trkpt>
      <trkpt lat="47.12568" lon="4.94102">
        <ele>244.071137</ele>
        <time>2020-10-11T17:04:47.433Z</time>
      </trkpt>
      <trkpt lat="47.12607" lon="4.94157">
        <ele>242.661103</ele>
        <time>2020-10-11T17:04:59.261Z</time>
      </trkpt>
      <trkpt lat="47.12623" lon="4.94166">
        <ele>242.312313</ele>
        <time>2020-10-11T17:05:03.086Z</time>
      </trkpt>
      <trkpt lat="47.12689" lon="4.94207">
        <ele>241.619929</ele>
        <time>2020-10-11T17:05:20.132Z</time>
      </trkpt>
      <trkpt lat="47.1271" lon="4.9421">
        <ele>241.426347</ele>
        <time>2020-10-11T17:05:24.997Z</time>
      </trkpt>
      <trkpt lat="47.12761" lon="4.94237">
        <ele>240.906633</ele>
        <time>2020-10-11T17:05:38.867Z</time>
      </trkpt>
      <trkpt lat="47.12819" lon="4.94251">
        <ele>240.663329</ele>
        <time>2020-10-11T17:05:54.644Z</time>
      </trkpt>
      <trkpt lat="47.12848" lon="4.94269">
        <ele>240.692508</ele>
        <time>2020-10-11T17:06:03.843Z</time>
      </trkpt>
      <trkpt lat="47.12877" lon="4.9428">
        <ele>240.719359</ele>
        <time>2020-10-11T17:06:12.742Z</time>
      </trkpt>
      <trkpt lat="47.12898" lon="4.94293">
        <ele>240.740241</ele>
        <time>2020-10-11T17:06:19.611Z</time>
      </trkpt>
      <trkpt lat="47.12961" lon="4.9435">
        <ele>240.823011</ele>
        <time>2020-10-11T17:06:41.558Z</time>
      </trkpt>
      <trkpt lat="47.12964" lon="4.94351">
        <ele>240.831426</ele>
        <time>2020-10-11T17:06:42.523Z</time>
      </trkpt>
      <trkpt lat="47.13004" lon="4.94365">
        <ele>240.945399</ele>
        <time>2020-10-11T17:06:55.052Z</time>
      </trkpt>
      <trkpt lat="47.13014" lon="4.94367">
        <ele>240.970656</ele>
        <time>2020-10-11T17:06:57.818Z</time>
      </trkpt>
      <trkpt lat="47.13057" lon="4.94375">
        <ele>241.08978</ele>
        <time>2020-10-11T17:07:10.691Z</time>
      </trkpt>
      <trkpt lat="47.13121" lon="4.94368">
        <ele>241.26387</ele>
        <time>2020-10-11T17:07:29.820Z</time>
      </trkpt>
      <trkpt lat="47.13145" lon="4.94372">
        <ele>241.365626</ele>
        <time>2020-10-11T17:07:37.233Z</time>
      </trkpt>
      <trkpt lat="47.13191" lon="4.94383">
        <ele>241.594076</ele>
        <time>2020-10-11T17:07:51.489Z</time>
      </trkpt>
      <trkpt lat="47.13275" lon="4.9442">
        <ele>242.028157</ele>
        <time>2020-10-11T17:08:19.000Z</time>
      </trkpt>
      <trkpt lat="47.13339" lon="4.94405">
        <ele>242.300149</ele>
        <time>2020-10-11T17:08:39.635Z</time>
      </trkpt>
      <trkpt lat="47.13383" lon="4.94407">
        <ele>242.452854</ele>
        <time>2020-10-11T17:08:53.166Z</time>
      </trkpt>
      <trkpt lat="47.13453" lon="4.944">
        <ele>242.70129</ele>
        <time>2020-10-11T17:09:14.390Z</time>
      </trkpt>
      <trkpt lat="47.1348" lon="4.94411">
        <ele>242.802057</ele>
        <time>2020-10-11T17:09:22.659Z</time>
      </trkpt>
      <trkpt lat="47.13512" lon="4.94435">
        <ele>242.681929</ele>
        <time>2020-10-11T17:09:32.632Z</time>
      </trkpt>
      <trkpt lat="47.1353" lon="4.94437">
        <ele>242.60761</ele>
        <time>2020-10-11T17:09:37.659Z</time>
      </trkpt>
      <trkpt lat="47.13571" lon="4.94434">
        <ele>242.445234</ele>
        <time>2020-10-11T17:09:48.230Z</time>
      </trkpt>
      <trkpt lat="47.13574" lon="4.94473">
        <ele>242.337251</ele>
        <time>2020-10-11T17:09:53.122Z</time>
      </trkpt>
      <trkpt lat="47.13586" lon="4.94528">
        <ele>242.182657</ele>
        <time>2020-10-11T17:10:00.166Z</time>
      </trkpt>
      <trkpt lat="47.13589" lon="4.94545">
        <ele>242.133964</ele>
        <time>2020-10-11T17:10:02.401Z</time>
      </trkpt>
      <trkpt lat="47.13611" lon="4.94654">
        <ele>241.944015</ele>
        <time>2020-10-11T17:10:16.688Z</time>
      </trkpt>
      <trkpt lat="47.13616" lon="4.9468">
        <ele>241.903127</ele>
        <time>2020-10-11T17:10:20.185Z</time>
      </trkpt>
      <trkpt lat="47.13654" lon="4.9466">
        <ele>241.811339</ele>
        <time>2020-10-11T17:10:31.349Z</time>
      </trkpt>
      <trkpt lat="47.13665" lon="4.94655">
        <ele>241.786832</ele>
        <time>2020-10-11T17:10:34.339Z</time>
      </trkpt>
      <trkpt lat="47.13686" lon="4.94645">
        <ele>241.736231</ele>
        <time>2020-10-11T17:10:40.728Z</time>
      </trkpt>
      <trkpt lat="47.13763" lon="4.94698">
        <ele>241.876433</ele>
        <time>2020-10-11T17:11:06.294Z</time>
      </trkpt>
      <trkpt lat="47.13781" lon="4.94712">
        <ele>241.934311</ele>
        <time>2020-10-11T17:11:12.562Z</time>
      </trkpt>
      <trkpt lat="47.13788" lon="4.94726">
        <ele>241.966366</ele>
        <time>2020-10-11T17:11:16.224Z</time>
      </trkpt>
      <trkpt lat="47.13804" lon="4.94757">
        <ele>242.041914</ele>
        <time>2020-10-11T17:11:24.260Z</time>
      </trkpt>
      <trkpt lat="47.13806" lon="4.9477">
        <ele>242.067238</ele>
        <time>2020-10-11T17:11:27.142Z</time>
      </trkpt>
      <trkpt lat="47.13808" lon="4.94801">
        <ele>242.127435</ele>
        <time>2020-10-11T17:11:33.206Z</time>
      </trkpt>
      <trkpt lat="47.13815" lon="4.94875">
        <ele>242.207821</ele>
        <time>2020-10-11T17:11:48.372Z</time>
      </trkpt>
      <trkpt lat="47.13818" lon="4.94885">
        <ele>242.210311</ele>
        <time>2020-10-11T17:11:50.384Z</time>
      </trkpt>
      <trkpt lat="47.13824" lon="4.94886">
        <ele>242.212449</ele>
        <time>2020-10-11T17:11:52.252Z</time>
      </trkpt>
      <trkpt lat="47.13879" lon="4.94925">
        <ele>242.232949</ele>
        <time>2020-10-11T17:12:10.128Z</time>
      </trkpt>
      <trkpt lat="47.13884" lon="4.9493">
        <ele>242.235156</ele>
        <time>2020-10-11T17:12:11.871Z</time>
      </trkpt>
      <trkpt lat="47.13898" lon="4.94941">
        <ele>242.24055</ele>
        <time>2020-10-11T17:12:16.374Z</time>
      </trkpt>
      <trkpt lat="47.13948" lon="4.94983">
        <ele>242.259956</ele>
        <time>2020-10-11T17:12:31.960Z</time>
      </trkpt>
      <trkpt lat="47.1398" lon="4.9501">
        <ele>242.211561</ele>
        <time>2020-10-11T17:12:41.961Z</time>
      </trkpt>
      <trkpt lat="47.13983" lon="4.95013">
        <ele>242.206754</ele>
        <time>2020-10-11T17:12:43.119Z</time>
      </trkpt>
      <trkpt lat="47.14042" lon="4.94896">
        <ele>242.073692</ele>
        <time>2020-10-11T17:13:02.939Z</time>
      </trkpt>
      <trkpt lat="47.14044" lon="4.94893">
        <ele>242.069371</ele>
        <time>2020-10-11T17:13:03.575Z</time>
      </trkpt>
      <trkpt lat="47.14058" lon="4.94864">
        <ele>242.03654</ele>
        <time>2020-10-11T17:13:08.425Z</time>
      </trkpt>
      <trkpt lat="47.1407" lon="4.94841">
        <ele>242.025917</ele>
        <time>2020-10-11T17:13:12.466Z</time>
      </trkpt>
      <trkpt lat="47.14079" lon="4.94823">
        <ele>242.04829</ele>
        <time>2020-10-11T17:13:15.329Z</time>
      </trkpt>
      <trkpt lat="47.1411" lon="4.94763">
        <ele>242.123698</ele>
        <time>2020-10-11T17:13:25.691Z</time>
      </trkpt>
      <trkpt lat="47.14113" lon="4.94756">
        <ele>242.132812</ele>
        <time>2020-10-11T17:13:26.988Z</time>
      </trkpt>
      <trkpt lat="47.1412" lon="4.94742">
        <ele>242.14879</ele>
        <time>2020-10-11T17:13:29.318Z</time>
      </trkpt>
      <trkpt lat="47.14125" lon="4.94732">
        <ele>242.161869</ele>
        <time>2020-10-11T17:13:31.236Z</time>
      </trkpt>
      <trkpt lat="47.1418" lon="4.94621">
        <ele>242.357537</ele>
        <time>2020-10-11T17:13:52.833Z</time>
      </trkpt>
      <trkpt lat="47.14187" lon="4.94605">
        <ele>242.444487</ele>
        <time>2020-10-11T17:13:55.821Z</time>
      </trkpt>
      <trkpt lat="47.14227" lon="4.94512">
        <ele>242.940121</ele>
        <time>2020-10-11T17:14:13.726Z</time>
      </trkpt>
      <trkpt lat="47.14233" lon="4.94501">
        <ele>243.00542</ele>
        <time>2020-10-11T17:14:16.281Z</time>
      </trkpt>
      <trkpt lat="47.14263" lon="4.94444">
        <ele>243.327387</ele>
        <time>2020-10-11T17:14:29.000Z</time>
      </trkpt>
      <trkpt lat="47.14282" lon="4.94411">
        <ele>243.51165</ele>
        <time>2020-10-11T17:14:36.580Z</time>
      </trkpt>
      <trkpt lat="47.14297" lon="4.94405">
        <ele>243.594116</ele>
        <time>2020-10-11T17:14:40.592Z</time>
      </trkpt>
      <trkpt lat="47.14361" lon="4.94386">
        <ele>243.925918</ele>
        <time>2020-10-11T17:14:55.893Z</time>
      </trkpt>
      <trkpt lat="47.144" lon="4.94373">
        <ele>244.133337</ele>
        <time>2020-10-11T17:15:04.762Z</time>
      </trkpt>
      <trkpt lat="47.14481" lon="4.9435">
        <ele>244.680526</ele>
        <time>2020-10-11T17:15:23.831Z</time>
      </trkpt>
      <trkpt lat="47.14507" lon="4.94343">
        <ele>244.916559</ele>
        <time>2020-10-11T17:15:30.350Z</time>
      </trkpt>
      <trkpt lat="47.14513" lon="4.94346">
        <ele>244.981546</ele>
        <time>2020-10-11T17:15:32.051Z</time>
      </trkpt>
      <trkpt lat="47.14519" lon="4.94336">
        <ele>245.068124</ele>
        <time>2020-10-11T17:15:34.543Z</time>
      </trkpt>
      <trkpt lat="47.14521" lon="4.94331">
        <ele>245.099989</ele>
        <time>2020-10-11T17:15:35.437Z</time>
      </trkpt>
      <trkpt lat="47.14562" lon="4.94374">
        <ele>245.553852</ele>
        <time>2020-10-11T17:15:52.262Z</time>
      </trkpt>
      <trkpt lat="47.14609" lon="4.94423">
        <ele>246.109475</ele>
        <time>2020-10-11T17:16:12.510Z</time>
      </trkpt>
      <trkpt lat="47.14648" lon="4.94472">
        <ele>246.88617</ele>
        <time>2020-10-11T17:16:31.214Z</time>
      </trkpt>
      <trkpt lat="47.14656" lon="4.9448">
        <ele>247.027269</ele>
        <time>2020-10-11T17:16:34.970Z</time>
      </trkpt>
      <trkpt lat="47.1473" lon="4.94534">
        <ele>248.277974</ele>
        <time>2020-10-11T17:17:06.693Z</time>
      </trkpt>
      <trkpt lat="47.14778" lon="4.94584">
        <ele>248.990794</ele>
        <time>2020-10-11T17:17:27.598Z</time>
      </trkpt>
      <trkpt lat="47.14827" lon="4.94616">
        <ele>249.477013</ele>
        <time>2020-10-11T17:17:45.773Z</time>
      </trkpt>
      <trkpt lat="47.14997" lon="4.94794">
        <ele>250.494099</ele>
        <time>2020-10-11T17:18:52.330Z</time>
      </trkpt>
      <trkpt lat="47.15021" lon="4.94812">
        <ele>250.525386</ele>
        <time>2020-10-11T17:18:59.277Z</time>
      </trkpt>
      <trkpt lat="47.15095" lon="4.94847">
        <ele>250.092168</ele>
        <time>2020-10-11T17:19:18.862Z</time>
      </trkpt>
      <trkpt lat="47.1513" lon="4.94865">
        <ele>249.561</ele>
        <time>2020-10-11T17:19:27.727Z</time>
      </trkpt>
      <trkpt lat="47.15154" lon="4.9488">
        <ele>249.198368</ele>
        <time>2020-10-11T17:19:33.536Z</time>
      </trkpt>
      <trkpt lat="47.15184" lon="4.94893">
        <ele>248.751799</ele>
        <time>2020-10-11T17:19:40.627Z</time>
      </trkpt>
      <trkpt lat="47.15246" lon="4.94895">
        <ele>247.880099</ele>
        <time>2020-10-11T17:19:54.515Z</time>
      </trkpt>
      <trkpt lat="47.15324" lon="4.94939">
        <ele>246.811061</ele>
        <time>2020-10-11T17:20:13.407Z</time>
      </trkpt>
      <trkpt lat="47.15399" lon="4.94969">
        <ele>245.828692</ele>
        <time>2020-10-11T17:20:32.074Z</time>
      </trkpt>
      <trkpt lat="47.15421" lon="4.94974">
        <ele>245.784501</ele>
        <time>2020-10-11T17:20:37.868Z</time>
      </trkpt>
      <trkpt lat="47.15481" lon="4.9497">
        <ele>246.037058</ele>
        <time>2020-10-11T17:20:55.043Z</time>
      </trkpt>
      <trkpt lat="47.155" lon="4.94975">
        <ele>246.120419</ele>
        <time>2020-10-11T17:21:01.238Z</time>
      </trkpt>
      <trkpt lat="47.15586" lon="4.95007">
        <ele>246.503449</ele>
        <time>2020-10-11T17:21:31.416Z</time>
      </trkpt>
      <trkpt lat="47.15682" lon="4.95063">
        <ele>247.225784</ele>
        <time>2020-10-11T17:22:06.916Z</time>
      </trkpt>
      <trkpt lat="47.1578" lon="4.951">
        <ele>247.608838</ele>
        <time>2020-10-11T17:22:37.788Z</time>
      </trkpt>
      <trkpt lat="47.15836" lon="4.95112">
        <ele>247.320888</ele>
        <time>2020-10-11T17:22:51.831Z</time>
      </trkpt>
      <trkpt lat="47.15861" lon="4.95132">
        <ele>247.179336</ele>
        <time>2020-10-11T17:22:58.646Z</time>
      </trkpt>
      <trkpt lat="47.15892" lon="4.95197">
        <ele>246.904575</ele>
        <time>2020-10-11T17:23:11.600Z</time>
      </trkpt>
      <trkpt lat="47.15909" lon="4.95218">
        <ele>246.938882</ele>
        <time>2020-10-11T17:23:17.979Z</time>
      </trkpt>
      <trkpt lat="47.15918" lon="4.95223">
        <ele>247.052142</ele>
        <time>2020-10-11T17:23:20.256Z</time>
      </trkpt>
      <trkpt lat="47.15966" lon="4.95231">
        <ele>247.6162</ele>
        <time>2020-10-11T17:23:35.029Z</time>
      </trkpt>
      <trkpt lat="47.16013" lon="4.95244">
        <ele>248.167875</ele>
        <time>2020-10-11T17:23:51.089Z</time>
      </trkpt>
      <trkpt lat="47.16036" lon="4.95257">
        <ele>248.449633</ele>
        <time>2020-10-11T17:24:00.689Z</time>
      </trkpt>
      <trkpt lat="47.16046" lon="4.95204">
        <ele>248.879794</ele>
        <time>2020-10-11T17:24:16.389Z</time>
      </trkpt>
      <trkpt lat="47.16054" lon="4.9518">
        <ele>249.409671</ele>
        <time>2020-10-11T17:24:24.630Z</time>
      </trkpt>
      <trkpt lat="47.16073" lon="4.95152">
        <ele>250.310509</ele>
        <time>2020-10-11T17:24:36.945Z</time>
      </trkpt>
      <trkpt lat="47.16087" lon="4.95107">
        <ele>251.435123</ele>
        <time>2020-10-11T17:24:53.394Z</time>
      </trkpt>
      <trkpt lat="47.16095" lon="4.95071">
        <ele>252.304216</ele>
        <time>2020-10-11T17:25:06.550Z</time>
      </trkpt>
      <trkpt lat="47.16139" lon="4.95081">
        <ele>253.813985</ele>
        <time>2020-10-11T17:25:28.857Z</time>
      </trkpt>
      <trkpt lat="47.16166" lon="4.95087">
        <ele>254.726534</ele>
        <time>2020-10-11T17:25:41.769Z</time>
      </trkpt>
      <trkpt lat="47.16191" lon="4.95084">
        <ele>255.329154</ele>
        <time>2020-10-11T17:25:53.061Z</time>
      </trkpt>
      <trkpt lat="47.16206" lon="4.95079">
        <ele>255.620934</ele>
        <time>2020-10-11T17:25:59.864Z</time>
      </trkpt>
      <trkpt lat="47.16218" lon="4.95072">
        <ele>255.880628</ele>
        <time>2020-10-11T17:26:05.633Z</time>
      </trkpt>
      <trkpt lat="47.1624" lon="4.95068">
        <ele>256.321435</ele>
        <time>2020-10-11T17:26:15.372Z</time>
      </trkpt>
      <trkpt lat="47.16256" lon="4.95069">
        <ele>256.660882</ele>
        <time>2020-10-11T17:26:22.063Z</time>
      </trkpt>
      <trkpt lat="47.16285" lon="4.95076">
        <ele>257.239538</ele>
        <time>2020-10-11T17:26:33.223Z</time>
      </trkpt>
      <trkpt lat="47.16306" lon="4.95079">
        <ele>257.668054</ele>
        <time>2020-10-11T17:26:40.932Z</time>
      </trkpt>
      <trkpt lat="47.1635" lon="4.9507">
        <ele>258.545002</ele>
        <time>2020-10-11T17:26:56.118Z</time>
      </trkpt>
      <trkpt lat="47.16371" lon="4.95058">
        <ele>258.558814</ele>
        <time>2020-10-11T17:27:03.158Z</time>
      </trkpt>
      <trkpt lat="47.16393" lon="4.95023">
        <ele>258.543242</ele>
        <time>2020-10-11T17:27:12.530Z</time>
      </trkpt>
      <trkpt lat="47.16421" lon="4.95024">
        <ele>258.529787</ele>
        <time>2020-10-11T17:27:20.246Z</time>
      </trkpt>
      <trkpt lat="47.16442" lon="4.95027">
        <ele>258.520015</ele>
        <time>2020-10-11T17:27:25.965Z</time>
      </trkpt>
      <trkpt lat="47.16435" lon="4.95046">
        <ele>258.513048</ele>
        <time>2020-10-11T17:27:28.534Z</time>
      </trkpt>
      <trkpt lat="47.16427" lon="4.95092">
        <ele>258.497731</ele>
        <time>2020-10-11T17:27:34.706Z</time>
      </trkpt>
      <trkpt lat="47.1642" lon="4.95153">
        <ele>258.451014</ele>
        <time>2020-10-11T17:27:42.645Z</time>
      </trkpt>
      <trkpt lat="47.16453" lon="4.95158">
        <ele>258.358697</ele>
        <time>2020-10-11T17:27:51.284Z</time>
      </trkpt>
      <trkpt lat="47.16549" lon="4.95175">
        <ele>258.088935</ele>
        <time>2020-10-11T17:28:17.095Z</time>
      </trkpt>
      <trkpt lat="47.16625" lon="4.95164">
        <ele>257.821714</ele>
        <time>2020-10-11T17:28:38.442Z</time>
      </trkpt>
      <trkpt lat="47.16719" lon="4.95171">
        <ele>257.416263</ele>
        <time>2020-10-11T17:29:03.066Z</time>
      </trkpt>
      <trkpt lat="47.16774" lon="4.95174">
        <ele>257.201685</ele>
        <time>2020-10-11T17:29:17.025Z</time>
      </trkpt>
      <trkpt lat="47.16801" lon="4.95178">
        <ele>257.176759</ele>
        <time>2020-10-11T17:29:23.861Z</time>
      </trkpt>
      <trkpt lat="47.16901" lon="4.95211">
        <ele>257.083286</ele>
        <time>2020-10-11T17:29:51.405Z</time>
      </trkpt>
      <trkpt lat="47.16934" lon="4.95226">
        <ele>257.051258</ele>
        <time>2020-10-11T17:30:01.822Z</time>
      </trkpt>
      <trkpt lat="47.16961" lon="4.95234">
        <ele>257.262607</ele>
        <time>2020-10-11T17:30:11.106Z</time>
      </trkpt>
      <trkpt lat="47.1704" lon="4.95265">
        <ele>258.223941</ele>
        <time>2020-10-11T17:30:40.256Z</time>
      </trkpt>
      <trkpt lat="47.17068" lon="4.95271">
        <ele>258.555158</ele>
        <time>2020-10-11T17:30:50.694Z</time>
      </trkpt>
      <trkpt lat="47.1709" lon="4.9527">
        <ele>258.817808</ele>
        <time>2020-10-11T17:30:59.215Z</time>
      </trkpt>
      <trkpt lat="47.17107" lon="4.95268">
        <ele>259.02061</ele>
        <time>2020-10-11T17:31:05.749Z</time>
      </trkpt>
      <trkpt lat="47.17306" lon="4.95301">
        <ele>259.97903</ele>
        <time>2020-10-11T17:32:08.654Z</time>
      </trkpt>
      <trkpt lat="47.1732" lon="4.95307">
        <ele>259.811715</ele>
        <time>2020-10-11T17:32:12.752Z</time>
      </trkpt>
      <trkpt lat="47.1733" lon="4.95313">
        <ele>259.684814</ele>
        <time>2020-10-11T17:32:15.697Z</time>
      </trkpt>
      <trkpt lat="47.17338" lon="4.95319">
        <ele>259.595917</ele>
        <time>2020-10-11T17:32:17.298Z</time>
      </trkpt>
      <trkpt lat="47.17367" lon="4.95332">
        <ele>259.248385</ele>
        <time>2020-10-11T17:32:24.867Z</time>
      </trkpt>
      <trkpt lat="47.1739" lon="4.95352">
        <ele>258.954687</ele>
        <time>2020-10-11T17:32:30.990Z</time>
      </trkpt>
      <trkpt lat="47.17468" lon="4.95361">
        <ele>258.076421</ele>
        <time>2020-10-11T17:32:49.028Z</time>
      </trkpt>
      <trkpt lat="47.17481" lon="4.95362">
        <ele>258.005552</ele>
        <time>2020-10-11T17:32:51.545Z</time>
      </trkpt>
      <trkpt lat="47.17488" lon="4.95367">
        <ele>257.96738</ele>
        <time>2020-10-11T17:32:53.400Z</time>
      </trkpt>
      <trkpt lat="47.17513" lon="4.9539">
        <ele>257.82164</ele>
        <time>2020-10-11T17:33:00.413Z</time>
      </trkpt>
      <trkpt lat="47.17561" lon="4.95448">
        <ele>257.516458</ele>
        <time>2020-10-11T17:33:16.724Z</time>
      </trkpt>
      <trkpt lat="47.17588" lon="4.95471">
        <ele>257.363706</ele>
        <time>2020-10-11T17:33:25.525Z</time>
      </trkpt>
      <trkpt lat="47.17629" lon="4.955">
        <ele>257.251261</ele>
        <time>2020-10-11T17:33:38.946Z</time>
      </trkpt>
      <trkpt lat="47.17642" lon="4.95493">
        <ele>257.392728</ele>
        <time>2020-10-11T17:33:42.533Z</time>
      </trkpt>
      <trkpt lat="47.17677" lon="4.95487">
        <ele>257.745428</ele>
        <time>2020-10-11T17:33:50.860Z</time>
      </trkpt>
      <trkpt lat="47.17697" lon="4.955">
        <ele>257.97</ele>
        <time>2020-10-11T17:33:55.842Z</time>
      </trkpt>
      <trkpt lat="47.17699" lon="4.95502">
        <ele>257.993319</ele>
        <time>2020-10-11T17:33:57.301Z</time>
      </trkpt>
      <trkpt lat="47.17708" lon="4.95511">
        <ele>258.11026</ele>
        <time>2020-10-11T17:33:59.989Z</time>
      </trkpt>
      <trkpt lat="47.17818" lon="4.95567">
        <ele>259.611266</ele>
        <time>2020-10-11T17:34:33.008Z</time>
      </trkpt>
      <trkpt lat="47.17875" lon="4.95602">
        <ele>260.933492</ele>
        <time>2020-10-11T17:34:53.671Z</time>
      </trkpt>
      <trkpt lat="47.179" lon="4.95614">
        <ele>261.493383</ele>
        <time>2020-10-11T17:35:02.697Z</time>
      </trkpt>
      <trkpt lat="47.17966" lon="4.9563">
        <ele>262.876525</ele>
        <time>2020-10-11T17:35:25.989Z</time>
      </trkpt>
      <trkpt lat="47.17998" lon="4.9565">
        <ele>263.137114</ele>
        <time>2020-10-11T17:35:37.578Z</time>
      </trkpt>
      <trkpt lat="47.18013" lon="4.95667">
        <ele>263.283369</ele>
        <time>2020-10-11T17:35:44.682Z</time>
      </trkpt>
      <trkpt lat="47.18031" lon="4.9568">
        <ele>263.432486</ele>
        <time>2020-10-11T17:35:50.082Z</time>
      </trkpt>
      <trkpt lat="47.1815" lon="4.95755">
        <ele>263.712781</ele>
        <time>2020-10-11T17:36:16.274Z</time>
      </trkpt>
      <trkpt lat="47.18169" lon="4.95772">
        <ele>263.307146</ele>
        <time>2020-10-11T17:36:19.644Z</time>
      </trkpt>
      <trkpt lat="47.18178" lon="4.95775">
        <ele>263.136866</ele>
        <time>2020-10-11T17:36:20.942Z</time>
      </trkpt>
      <trkpt lat="47.18208" lon="4.95797">
        <ele>262.511455</ele>
        <time>2020-10-11T17:36:25.994Z</time>
      </trkpt>
      <trkpt lat="47.18223" lon="4.9581">
        <ele>262.207106</ele>
        <time>2020-10-11T17:36:28.504Z</time>
      </trkpt>
      <trkpt lat="47.18226" lon="4.95814">
        <ele>262.118492</ele>
        <time>2020-10-11T17:36:29.173Z</time>
      </trkpt>
      <trkpt lat="47.1829" lon="4.95846">
        <ele>260.885027</ele>
        <time>2020-10-11T17:36:39.326Z</time>
      </trkpt>
      <trkpt lat="47.18353" lon="4.95878">
        <ele>260.082009</ele>
        <time>2020-10-11T17:36:49.599Z</time>
      </trkpt>
      <trkpt lat="47.18366" lon="4.95884">
        <ele>259.911909</ele>
        <time>2020-10-11T17:36:51.802Z</time>
      </trkpt>
      <trkpt lat="47.1845" lon="4.95909">
        <ele>258.877072</ele>
        <time>2020-10-11T17:37:07.132Z</time>
      </trkpt>
      <trkpt lat="47.18534" lon="4.95956">
        <ele>258.829068</ele>
        <time>2020-10-11T17:37:24.482Z</time>
      </trkpt>
      <trkpt lat="47.18578" lon="4.95974">
        <ele>258.894231</ele>
        <time>2020-10-11T17:37:35.181Z</time>
      </trkpt>
      <trkpt lat="47.18619" lon="4.96003">
        <ele>258.958569</ele>
        <time>2020-10-11T17:37:45.711Z</time>
      </trkpt>
      <trkpt lat="47.18623" lon="4.96009">
        <ele>258.966734</ele>
        <time>2020-10-11T17:37:46.884Z</time>
      </trkpt>
      <trkpt lat="47.1863" lon="4.96026">
        <ele>259.053455</ele>
        <time>2020-10-11T17:37:50.034Z</time>
      </trkpt>
      <trkpt lat="47.18633" lon="4.96021">
        <ele>259.100884</ele>
        <time>2020-10-11T17:37:51.833Z</time>
      </trkpt>
      <trkpt lat="47.18719" lon="4.96024">
        <ele>259.975524</ele>
        <time>2020-10-11T17:38:14.120Z</time>
      </trkpt>
      <trkpt lat="47.1883" lon="4.96049">
        <ele>261.151957</ele>
        <time>2020-10-11T17:38:45.410Z</time>
      </trkpt>
      <trkpt lat="47.18989" lon="4.96059">
        <ele>262.877672</ele>
        <time>2020-10-11T17:39:28.483Z</time>
      </trkpt>
      <trkpt lat="47.19003" lon="4.9606">
        <ele>262.952381</ele>
        <time>2020-10-11T17:39:32.071Z</time>
      </trkpt>
      <trkpt lat="47.19024" lon="4.9606">
        <ele>263.061559</ele>
        <time>2020-10-11T17:39:37.369Z</time>
      </trkpt>
      <trkpt lat="47.1905" lon="4.96051">
        <ele>263.201788</ele>
        <time>2020-10-11T17:39:44.021Z</time>
      </trkpt>
      <trkpt lat="47.19131" lon="4.95987">
        <ele>263.679058</ele>
        <time>2020-10-11T17:40:05.548Z</time>
      </trkpt>
      <trkpt lat="47.19154" lon="4.9598">
        <ele>263.72498</ele>
        <time>2020-10-11T17:40:10.682Z</time>
      </trkpt>
      <trkpt lat="47.1923" lon="4.96">
        <ele>263.33359</ele>
        <time>2020-10-11T17:40:24.614Z</time>
      </trkpt>
      <trkpt lat="47.19298" lon="4.96003">
        <ele>262.98893</ele>
        <time>2020-10-11T17:40:36.668Z</time>
      </trkpt>
      <trkpt lat="47.19349" lon="4.96041">
        <ele>262.91074</ele>
        <time>2020-10-11T17:40:47.084Z</time>
      </trkpt>
      <trkpt lat="47.19367" lon="4.96053">
        <ele>262.95136</ele>
        <time>2020-10-11T17:40:50.803Z</time>
      </trkpt>
      <trkpt lat="47.19435" lon="4.96092">
        <ele>263.10121</ele>
        <time>2020-10-11T17:41:05.390Z</time>
      </trkpt>
      <trkpt lat="47.19543" lon="4.96172">
        <ele>264.675533</ele>
        <time>2020-10-11T17:41:39.575Z</time>
      </trkpt>
      <trkpt lat="47.19556" lon="4.96177">
        <ele>264.97138</ele>
        <time>2020-10-11T17:41:43.984Z</time>
      </trkpt>
      <trkpt lat="47.19582" lon="4.96186">
        <ele>265.593294</ele>
        <time>2020-10-11T17:41:53.534Z</time>
      </trkpt>
      <trkpt lat="47.19653" lon="4.96208">
        <ele>267.233891</ele>
        <time>2020-10-11T17:42:19.709Z</time>
      </trkpt>
      <trkpt lat="47.1967" lon="4.96209">
        <ele>267.715562</ele>
        <time>2020-10-11T17:42:25.711Z</time>
      </trkpt>
      <trkpt lat="47.19674" lon="4.96209">
        <ele>267.840425</ele>
        <time>2020-10-11T17:42:27.030Z</time>
      </trkpt>
      <trkpt lat="47.1968" lon="4.96209">
        <ele>268.023156</ele>
        <time>2020-10-11T17:42:30.167Z</time>
      </trkpt>
      <trkpt lat="47.19739" lon="4.96212">
        <ele>269.841138</ele>
        <time>2020-10-11T17:42:55.964Z</time>
      </trkpt>
      <trkpt lat="47.19814" lon="4.96244">
        <ele>272.208608</ele>
        <time>2020-10-11T17:43:25.058Z</time>
      </trkpt>
      <trkpt lat="47.19828" lon="4.96245">
        <ele>272.644357</ele>
        <time>2020-10-11T17:43:29.767Z</time>
      </trkpt>
      <trkpt lat="47.19837" lon="4.96243">
        <ele>272.79995</ele>
        <time>2020-10-11T17:43:33.435Z</time>
      </trkpt>
      <trkpt lat="47.19843" lon="4.96239">
        <ele>272.817119</ele>
        <time>2020-10-11T17:43:36.316Z</time>
      </trkpt>
      <trkpt lat="47.19867" lon="4.96218">
        <ele>272.89075</ele>
        <time>2020-10-11T17:43:43.386Z</time>
      </trkpt>
      <trkpt lat="47.19874" lon="4.9622">
        <ele>272.908495</ele>
        <time>2020-10-11T17:43:46.187Z</time>
      </trkpt>
      <trkpt lat="47.19888" lon="4.96225">
        <ele>272.946796</ele>
        <time>2020-10-11T17:43:48.511Z</time>
      </trkpt>
      <trkpt lat="47.19904" lon="4.96238">
        <ele>272.996419</ele>
        <time>2020-10-11T17:43:54.227Z</time>
      </trkpt>
      <trkpt lat="47.19928" lon="4.96303">
        <ele>273.128452</ele>
        <time>2020-10-11T17:44:03.865Z</time>
      </trkpt>
      <trkpt lat="47.19966" lon="4.96366">
        <ele>273.144092</ele>
        <time>2020-10-11T17:44:14.260Z</time>
      </trkpt>
      <trkpt lat="47.19973" lon="4.96375">
        <ele>272.960283</ele>
        <time>2020-10-11T17:44:15.555Z</time>
      </trkpt>
      <trkpt lat="47.19983" lon="4.96384">
        <ele>272.720898</ele>
        <time>2020-10-11T17:44:17.235Z</time>
      </trkpt>
      <trkpt lat="47.20031" lon="4.96411">
        <ele>271.663064</ele>
        <time>2020-10-11T17:44:25.254Z</time>
      </trkpt>
      <trkpt lat="47.201" lon="4.96438">
        <ele>270.21999</ele>
        <time>2020-10-11T17:44:35.798Z</time>
      </trkpt>
      <trkpt lat="47.20119" lon="4.96447">
        <ele>269.798016</ele>
        <time>2020-10-11T17:44:38.764Z</time>
      </trkpt>
      <trkpt lat="47.20141" lon="4.96456">
        <ele>269.390241</ele>
        <time>2020-10-11T17:44:42.251Z</time>
      </trkpt>
      <trkpt lat="47.20188" lon="4.96475">
        <ele>268.575403</ele>
        <time>2020-10-11T17:44:49.927Z</time>
      </trkpt>
      <trkpt lat="47.20194" lon="4.96477">
        <ele>268.467292</ele>
        <time>2020-10-11T17:44:50.919Z</time>
      </trkpt>
      <trkpt lat="47.20234" lon="4.96495">
        <ele>267.781559</ele>
        <time>2020-10-11T17:44:57.377Z</time>
      </trkpt>
      <trkpt lat="47.20277" lon="4.96511">
        <ele>267.034381</ele>
        <time>2020-10-11T17:45:04.473Z</time>
      </trkpt>
      <trkpt lat="47.20412" lon="4.96542">
        <ele>266.19637</ele>
        <time>2020-10-11T17:45:28.314Z</time>
      </trkpt>
      <trkpt lat="47.20442" lon="4.96555">
        <ele>266.081103</ele>
        <time>2020-10-11T17:45:34.857Z</time>
      </trkpt>
      <trkpt lat="47.20459" lon="4.96561">
        <ele>266.01617</ele>
        <time>2020-10-11T17:45:38.453Z</time>
      </trkpt>
      <trkpt lat="47.20473" lon="4.96564">
        <ele>265.966417</ele>
        <time>2020-10-11T17:45:41.694Z</time>
      </trkpt>
      <trkpt lat="47.20613" lon="4.96575">
        <ele>267.97844</ele>
        <time>2020-10-11T17:46:20.557Z</time>
      </trkpt>
      <trkpt lat="47.20676" lon="4.96546">
        <ele>269.179212</ele>
        <time>2020-10-11T17:46:43.993Z</time>
      </trkpt>
      <trkpt lat="47.20692" lon="4.96543">
        <ele>269.583684</ele>
        <time>2020-10-11T17:46:49.629Z</time>
      </trkpt>
      <trkpt lat="47.20696" lon="4.96542">
        <ele>269.690327</ele>
        <time>2020-10-11T17:46:51.463Z</time>
      </trkpt>
      <trkpt lat="47.20724" lon="4.96537">
        <ele>270.400923</ele>
        <time>2020-10-11T17:47:01.382Z</time>
      </trkpt>
      <trkpt lat="47.20746" lon="4.96535">
        <ele>270.955349</ele>
        <time>2020-10-11T17:47:09.910Z</time>
      </trkpt>
      <trkpt lat="47.20916" lon="4.96524">
        <ele>273.935526</ele>
        <time>2020-10-11T17:48:07.179Z</time>
      </trkpt>
      <trkpt lat="47.20928" lon="4.96527">
        <ele>274.045701</ele>
        <time>2020-10-11T17:48:10.601Z</time>
      </trkpt>
      <trkpt lat="47.20943" lon="4.96536">
        <ele>274.195851</ele>
        <time>2020-10-11T17:48:13.886Z</time>
      </trkpt>
      <trkpt lat="47.21009" lon="4.96578">
        <ele>274.826184</ele>
        <time>2020-10-11T17:48:28.194Z</time>
      </trkpt>
      <trkpt lat="47.21141" lon="4.96631">
        <ele>273.23108</ele>
        <time>2020-10-11T17:48:50.640Z</time>
      </trkpt>
      <trkpt lat="47.21228" lon="4.96653">
        <ele>272.224328</ele>
        <time>2020-10-11T17:49:05.031Z</time>
      </trkpt>
      <trkpt lat="47.21371" lon="4.96723">
        <ele>270.609</ele>
        <time>2020-10-11T17:49:30.656Z</time>
      </trkpt>
      <trkpt lat="47.21372" lon="4.96724">
        <ele>270.59644</ele>
        <time>2020-10-11T17:49:31.125Z</time>
      </trkpt>
      <trkpt lat="47.21382" lon="4.96726">
        <ele>270.535074</ele>
        <time>2020-10-11T17:49:32.736Z</time>
      </trkpt>
      <trkpt lat="47.21393" lon="4.96728">
        <ele>270.459216</ele>
        <time>2020-10-11T17:49:34.752Z</time>
      </trkpt>
      <trkpt lat="47.21407" lon="4.96726">
        <ele>270.368452</ele>
        <time>2020-10-11T17:49:37.344Z</time>
      </trkpt>
      <trkpt lat="47.21464" lon="4.96712">
        <ele>269.994477</ele>
        <time>2020-10-11T17:49:47.642Z</time>
      </trkpt>
      <trkpt lat="47.21513" lon="4.96729">
        <ele>269.666113</ele>
        <time>2020-10-11T17:49:57.044Z</time>
      </trkpt>
      <trkpt lat="47.2154" lon="4.96743">
        <ele>269.535161</ele>
        <time>2020-10-11T17:50:02.210Z</time>
      </trkpt>
      <trkpt lat="47.21546" lon="4.96746">
        <ele>269.528109</ele>
        <time>2020-10-11T17:50:03.537Z</time>
      </trkpt>
      <trkpt lat="47.2171" lon="4.96812">
        <ele>269.360438</ele>
        <time>2020-10-11T17:50:38.006Z</time>
      </trkpt>
      <trkpt lat="47.21785" lon="4.96835">
        <ele>269.589047</ele>
        <time>2020-10-11T17:50:54.778Z</time>
      </trkpt>
      <trkpt lat="47.21801" lon="4.96838">
        <ele>269.637719</ele>
        <time>2020-10-11T17:50:58.275Z</time>
      </trkpt>
      <trkpt lat="47.21848" lon="4.96844">
        <ele>269.780328</ele>
        <time>2020-10-11T17:51:09.317Z</time>
      </trkpt>
      <trkpt lat="47.21896" lon="4.96857">
        <ele>269.991312</ele>
        <time>2020-10-11T17:51:20.609Z</time>
      </trkpt>
      <trkpt lat="47.21992" lon="4.96901">
        <ele>270.727865</ele>
        <time>2020-10-11T17:51:45.334Z</time>
      </trkpt>
      <trkpt lat="47.22161" lon="4.96954">
        <ele>272.506622</ele>
        <time>2020-10-11T17:52:30.607Z</time>
      </trkpt>
      <trkpt lat="47.22171" lon="4.96961">
        <ele>272.638428</ele>
        <time>2020-10-11T17:52:33.567Z</time>
      </trkpt>
      <trkpt lat="47.22201" lon="4.96977">
        <ele>273.021267</ele>
        <time>2020-10-11T17:52:42.897Z</time>
      </trkpt>
      <trkpt lat="47.22248" lon="4.96995">
        <ele>273.631431</ele>
        <time>2020-10-11T17:52:57.621Z</time>
      </trkpt>
      <trkpt lat="47.22324" lon="4.96983">
        <ele>274.672942</ele>
        <time>2020-10-11T17:53:21.144Z</time>
      </trkpt>
      <trkpt lat="47.22342" lon="4.9698">
        <ele>274.919898</ele>
        <time>2020-10-11T17:53:26.137Z</time>
      </trkpt>
      <trkpt lat="47.22361" lon="4.96968">
        <ele>275.196896</ele>
        <time>2020-10-11T17:53:31.704Z</time>
      </trkpt>
      <trkpt lat="47.22382" lon="4.96964">
        <ele>275.477016</ele>
        <time>2020-10-11T17:53:36.845Z</time>
      </trkpt>
      <trkpt lat="47.22391" lon="4.96965">
        <ele>275.596348</ele>
        <time>2020-10-11T17:53:39.257Z</time>
      </trkpt>
      <trkpt lat="47.22394" lon="4.96966">
        <ele>275.647601</ele>
        <time>2020-10-11T17:53:40.082Z</time>
      </trkpt>
      <trkpt lat="47.22407" lon="4.96974">
        <ele>275.798213</ele>
        <time>2020-10-11T17:53:43.676Z</time>
      </trkpt>
      <trkpt lat="47.22438" lon="4.97005">
        <ele>275.900715</ele>
        <time>2020-10-11T17:53:52.916Z</time>
      </trkpt>
      <trkpt lat="47.22448" lon="4.9702">
        <ele>275.938064</ele>
        <time>2020-10-11T17:53:56.313Z</time>
      </trkpt>
      <trkpt lat="47.22454" lon="4.97055">
        <ele>276.005427</ele>
        <time>2020-10-11T17:54:02.261Z</time>
      </trkpt>
      <trkpt lat="47.22464" lon="4.97067">
        <ele>276.040008</ele>
        <time>2020-10-11T17:54:05.436Z</time>
      </trkpt>
      <trkpt lat="47.22496" lon="4.97074">
        <ele>276.130209</ele>
        <time>2020-10-11T17:54:12.868Z</time>
      </trkpt>
      <trkpt lat="47.22497" lon="4.9708">
        <ele>276.142304</ele>
        <time>2020-10-11T17:54:13.917Z</time>
      </trkpt>
      <trkpt lat="47.225" lon="4.97086">
        <ele>276.155749</ele>
        <time>2020-10-11T17:54:14.900Z</time>
      </trkpt>
      <trkpt lat="47.22511" lon="4.97089">
        <ele>276.187394</ele>
        <time>2020-10-11T17:54:17.608Z</time>
      </trkpt>
      <trkpt lat="47.2257" lon="4.97104">
        <ele>276.014184</ele>
        <time>2020-10-11T17:54:28.189Z</time>
      </trkpt>
      <trkpt lat="47.2259" lon="4.97108">
        <ele>275.817777</ele>
        <time>2020-10-11T17:54:31.787Z</time>
      </trkpt>
      <trkpt lat="47.22592" lon="4.97122">
        <ele>275.724215</ele>
        <time>2020-10-11T17:54:33.259Z</time>
      </trkpt>
      <trkpt lat="47.22594" lon="4.97129">
        <ele>275.669116</ele>
        <time>2020-10-11T17:54:34.215Z</time>
      </trkpt>
      <trkpt lat="47.22598" lon="4.97134">
        <ele>275.614914</ele>
        <time>2020-10-11T17:54:35.286Z</time>
      </trkpt>
      <trkpt lat="47.22636" lon="4.9718">
        <ele>275.123714</ele>
        <time>2020-10-11T17:54:43.999Z</time>
      </trkpt>
      <trkpt lat="47.22642" lon="4.97177">
        <ele>275.051945</ele>
        <time>2020-10-11T17:54:45.007Z</time>
      </trkpt>
      <trkpt lat="47.22694" lon="4.97182">
        <ele>274.528435</ele>
        <time>2020-10-11T17:54:53.702Z</time>
      </trkpt>
      <trkpt lat="47.22734" lon="4.97207">
        <ele>273.725754</ele>
        <time>2020-10-11T17:55:00.571Z</time>
      </trkpt>
      <trkpt lat="47.22848" lon="4.97256">
        <ele>271.328485</ele>
        <time>2020-10-11T17:55:18.489Z</time>
      </trkpt>
      <trkpt lat="47.22925" lon="4.97269">
        <ele>269.838825</ele>
        <time>2020-10-11T17:55:30.359Z</time>
      </trkpt>
      <trkpt lat="47.22927" lon="4.97256">
        <ele>269.668197</ele>
        <time>2020-10-11T17:55:31.803Z</time>
      </trkpt>
      <trkpt lat="47.22963" lon="4.97269">
        <ele>268.96178</ele>
        <time>2020-10-11T17:55:37.590Z</time>
      </trkpt>
      <trkpt lat="47.23029" lon="4.97306">
        <ele>267.621893</ele>
        <time>2020-10-11T17:55:48.652Z</time>
      </trkpt>
      <trkpt lat="47.23122" lon="4.97383">
        <ele>265.871136</ele>
        <time>2020-10-11T17:56:05.450Z</time>
      </trkpt>
      <trkpt lat="47.23159" lon="4.97406">
        <ele>265.229755</ele>
        <time>2020-10-11T17:56:11.716Z</time>
      </trkpt>
      <trkpt lat="47.23297" lon="4.97478">
        <ele>263.54894</ele>
        <time>2020-10-11T17:56:36.194Z</time>
      </trkpt>
      <trkpt lat="47.23374" lon="4.97514">
        <ele>262.812701</ele>
        <time>2020-10-11T17:56:50.610Z</time>
      </trkpt>
      <trkpt lat="47.2339" lon="4.97523">
        <ele>262.808753</ele>
        <time>2020-10-11T17:56:53.742Z</time>
      </trkpt>
      <trkpt lat="47.23431" lon="4.97566">
        <ele>262.796785</ele>
        <time>2020-10-11T17:57:03.336Z</time>
      </trkpt>
      <trkpt lat="47.23503" lon="4.97638">
        <ele>262.776263</ele>
        <time>2020-10-11T17:57:22.003Z</time>
      </trkpt>
      <trkpt lat="47.23521" lon="4.97664">
        <ele>262.808834</ele>
        <time>2020-10-11T17:57:27.662Z</time>
      </trkpt>
      <trkpt lat="47.23531" lon="4.97679">
        <ele>262.940757</ele>
        <time>2020-10-11T17:57:31.410Z</time>
      </trkpt>
      <trkpt lat="47.23542" lon="4.97696">
        <ele>263.086061</ele>
        <time>2020-10-11T17:57:35.648Z</time>
      </trkpt>
      <trkpt lat="47.23556" lon="4.97719">
        <ele>263.277778</ele>
        <time>2020-10-11T17:57:41.317Z</time>
      </trkpt>
      <trkpt lat="47.23564" lon="4.97731">
        <ele>263.387263</ele>
        <time>2020-10-11T17:57:44.674Z</time>
      </trkpt>
      <trkpt lat="47.23569" lon="4.9774">
        <ele>263.455258</ele>
        <time>2020-10-11T17:57:46.586Z</time>
      </trkpt>
      <trkpt lat="47.23573" lon="4.97749">
        <ele>263.525504</ele>
        <time>2020-10-11T17:57:48.442Z</time>
      </trkpt>
      <trkpt lat="47.23569" lon="4.97753">
        <ele>263.563252</ele>
        <time>2020-10-11T17:57:49.447Z</time>
      </trkpt>
      <trkpt lat="47.23568" lon="4.97769">
        <ele>263.669325</ele>
        <time>2020-10-11T17:57:53.172Z</time>
      </trkpt>
      <trkpt lat="47.23571" lon="4.97774">
        <ele>263.706934</ele>
        <time>2020-10-11T17:57:54.025Z</time>
      </trkpt>
      <trkpt lat="47.23574" lon="4.97776">
        <ele>263.740468</ele>
        <time>2020-10-11T17:57:55.103Z</time>
      </trkpt>
      <trkpt lat="47.23586" lon="4.97766">
        <ele>263.862819</ele>
        <time>2020-10-11T17:57:58.187Z</time>
      </trkpt>
      <trkpt lat="47.23586" lon="4.97761">
        <ele>263.896696</ele>
        <time>2020-10-11T17:57:59.131Z</time>
      </trkpt>
      <trkpt lat="47.23592" lon="4.97762">
        <ele>263.9518</ele>
        <time>2020-10-11T17:58:01.285Z</time>
      </trkpt>
      <trkpt lat="47.23624" lon="4.97762">
        <ele>264.243913</ele>
        <time>2020-10-11T17:58:09.212Z</time>
      </trkpt>
      <trkpt lat="47.23633" lon="4.97759">
        <ele>264.325453</ele>
        <time>2020-10-11T17:58:12.126Z</time>
      </trkpt>
      <trkpt lat="47.23644" lon="4.97772">
        <ele>264.435324</ele>
        <time>2020-10-11T17:58:15.537Z</time>
      </trkpt>
      <trkpt lat="47.23677" lon="4.9779">
        <ele>264.546323</ele>
        <time>2020-10-11T17:58:24.382Z</time>
      </trkpt>
      <trkpt lat="47.23712" lon="4.97808">
        <ele>264.663284</ele>
        <time>2020-10-11T17:58:32.902Z</time>
      </trkpt>
      <trkpt lat="47.23778" lon="4.97852">
        <ele>264.893435</ele>
        <time>2020-10-11T17:58:48.901Z</time>
      </trkpt>
      <trkpt lat="47.23839" lon="4.97884">
        <ele>265.002877</ele>
        <time>2020-10-11T17:59:01.380Z</time>
      </trkpt>
      <trkpt lat="47.2385" lon="4.9789">
        <ele>265.006638</ele>
        <time>2020-10-11T17:59:03.608Z</time>
      </trkpt>
      <trkpt lat="47.23861" lon="4.97898">
        <ele>265.010487</ele>
        <time>2020-10-11T17:59:06.472Z</time>
      </trkpt>
      <trkpt lat="47.23922" lon="4.97941">
        <ele>265.032134</ele>
        <time>2020-10-11T17:59:20.765Z</time>
      </trkpt>
      <trkpt lat="47.23972" lon="4.97965">
        <ele>265.049051</ele>
        <time>2020-10-11T17:59:32.055Z</time>
      </trkpt>
      <trkpt lat="47.23991" lon="4.97971">
        <ele>265.073734</ele>
        <time>2020-10-11T17:59:36.202Z</time>
      </trkpt>
      <trkpt lat="47.23992" lon="4.97971">
        <ele>265.075205</ele>
        <time>2020-10-11T17:59:36.448Z</time>
      </trkpt>
      <trkpt lat="47.24153" lon="4.98028">
        <ele>265.34035</ele>
        <time>2020-10-11T18:00:11.593Z</time>
      </trkpt>
      <trkpt lat="47.24248" lon="4.98075">
        <ele>266.225857</ele>
        <time>2020-10-11T18:00:35.784Z</time>
      </trkpt>
      <trkpt lat="47.24256" lon="4.98082">
        <ele>266.30668</ele>
        <time>2020-10-11T18:00:38.508Z</time>
      </trkpt>
      <trkpt lat="47.24304" lon="4.98101">
        <ele>266.746008</ele>
        <time>2020-10-11T18:00:51.720Z</time>
      </trkpt>
      <trkpt lat="47.24326" lon="4.98109">
        <ele>266.975874</ele>
        <time>2020-10-11T18:00:58.654Z</time>
      </trkpt>
      <trkpt lat="47.24427" lon="4.98148">
        <ele>268.442373</ele>
        <time>2020-10-11T18:01:30.589Z</time>
      </trkpt>
      <trkpt lat="47.24466" lon="4.98164">
        <ele>269.008688</ele>
        <time>2020-10-11T18:01:42.511Z</time>
      </trkpt>
      <trkpt lat="47.24466" lon="4.98157">
        <ele>269.075223</ele>
        <time>2020-10-11T18:01:43.865Z</time>
      </trkpt>
      <trkpt lat="47.24469" lon="4.98158">
        <ele>269.117931</ele>
        <time>2020-10-11T18:01:44.858Z</time>
      </trkpt>
      <trkpt lat="47.24494" lon="4.98168">
        <ele>269.423164</ele>
        <time>2020-10-11T18:01:51.015Z</time>
      </trkpt>
      <trkpt lat="47.24501" lon="4.98171">
        <ele>269.417791</ele>
        <time>2020-10-11T18:01:53.123Z</time>
      </trkpt>
      <trkpt lat="47.2452" lon="4.98178">
        <ele>269.40436</ele>
        <time>2020-10-11T18:01:57.612Z</time>
      </trkpt>
      <trkpt lat="47.24595" lon="4.9821">
        <ele>269.349768</ele>
        <time>2020-10-11T18:02:14.505Z</time>
      </trkpt>
      <trkpt lat="47.24685" lon="4.98248">
        <ele>269.108856</ele>
        <time>2020-10-11T18:02:31.044Z</time>
      </trkpt>
      <trkpt lat="47.24725" lon="4.98256">
        <ele>268.77417</ele>
        <time>2020-10-11T18:02:37.766Z</time>
      </trkpt>
      <trkpt lat="47.24764" lon="4.98265">
        <ele>268.450979</ele>
        <time>2020-10-11T18:02:44.279Z</time>
      </trkpt>
      <trkpt lat="47.24875" lon="4.98316">
        <ele>267.865573</ele>
        <time>2020-10-11T18:03:05.400Z</time>
      </trkpt>
      <trkpt lat="47.25028" lon="4.98387">
        <ele>268.144067</ele>
        <time>2020-10-11T18:03:42.368Z</time>
      </trkpt>
      <trkpt lat="47.25094" lon="4.98408">
        <ele>268.370596</ele>
        <time>2020-10-11T18:03:58.729Z</time>
      </trkpt>
      <trkpt lat="47.25141" lon="4.98413">
        <ele>268.531891</ele>
        <time>2020-10-11T18:04:09.740Z</time>
      </trkpt>
      <trkpt lat="47.25161" lon="4.98422">
        <ele>268.601941</ele>
        <time>2020-10-11T18:04:14.187Z</time>
      </trkpt>
      <trkpt lat="47.25277" lon="4.98466">
        <ele>268.167631</ele>
        <time>2020-10-11T18:04:37.614Z</time>
      </trkpt>
      <trkpt lat="47.25278" lon="4.98467">
        <ele>268.159488</ele>
        <time>2020-10-11T18:04:37.832Z</time>
      </trkpt>
      <trkpt lat="47.25353" lon="4.98485">
        <ele>267.743801</ele>
        <time>2020-10-11T18:04:50.954Z</time>
      </trkpt>
      <trkpt lat="47.25516" lon="4.98539">
        <ele>266.25209</ele>
        <time>2020-10-11T18:05:19.360Z</time>
      </trkpt>
      <trkpt lat="47.25611" lon="4.98557">
        <ele>265.89536</ele>
        <time>2020-10-11T18:05:37.381Z</time>
      </trkpt>
      <trkpt lat="47.25628" lon="4.98552">
        <ele>265.85648</ele>
        <time>2020-10-11T18:05:40.749Z</time>
      </trkpt>
      <trkpt lat="47.25634" lon="4.98539">
        <ele>265.833003</ele>
        <time>2020-10-11T18:05:43.168Z</time>
      </trkpt>
      <trkpt lat="47.25653" lon="4.98465">
        <ele>265.716095</ele>
        <time>2020-10-11T18:05:53.556Z</time>
      </trkpt>
      <trkpt lat="47.25665" lon="4.98455">
        <ele>265.686455</ele>
        <time>2020-10-11T18:05:56.453Z</time>
      </trkpt>
      <trkpt lat="47.25676" lon="4.98457">
        <ele>265.686743</ele>
        <time>2020-10-11T18:05:59.522Z</time>
      </trkpt>
      <trkpt lat="47.25712" lon="4.98478">
        <ele>266.030031</ele>
        <time>2020-10-11T18:06:08.354Z</time>
      </trkpt>
      <trkpt lat="47.25754" lon="4.98518">
        <ele>266.469055</ele>
        <time>2020-10-11T18:06:20.871Z</time>
      </trkpt>
      <trkpt lat="47.25763" lon="4.98526">
        <ele>266.559494</ele>
        <time>2020-10-11T18:06:23.737Z</time>
      </trkpt>
      <trkpt lat="47.25766" lon="4.98575">
        <ele>266.855802</ele>
        <time>2020-10-11T18:06:32.914Z</time>
      </trkpt>
      <trkpt lat="47.25776" lon="4.9858">
        <ele>266.955377</ele>
        <time>2020-10-11T18:06:36.437Z</time>
      </trkpt>
      <trkpt lat="47.25825" lon="4.98607">
        <ele>267.48711</ele>
        <time>2020-10-11T18:06:50.459Z</time>
      </trkpt>
      <trkpt lat="47.25869" lon="4.98632">
        <ele>268.102875</ele>
        <time>2020-10-11T18:07:04.092Z</time>
      </trkpt>
      <trkpt lat="47.25905" lon="4.9865">
        <ele>268.600683</ele>
        <time>2020-10-11T18:07:15.846Z</time>
      </trkpt>
      <trkpt lat="47.25944" lon="4.98658">
        <ele>269.107522</ele>
        <time>2020-10-11T18:07:27.319Z</time>
      </trkpt>
      <trkpt lat="47.26038" lon="4.98641">
        <ele>269.759524</ele>
        <time>2020-10-11T18:07:50.957Z</time>
      </trkpt>
      <trkpt lat="47.26052" lon="4.98638">
        <ele>269.79706</ele>
        <time>2020-10-11T18:07:54.388Z</time>
      </trkpt>
      <trkpt lat="47.26062" lon="4.98641">
        <ele>269.824979</ele>
        <time>2020-10-11T18:07:56.228Z</time>
      </trkpt>
      <trkpt lat="47.26166" lon="4.98703">
        <ele>270.021879</ele>
        <time>2020-10-11T18:08:19.685Z</time>
      </trkpt>
      <trkpt lat="47.26185" lon="4.98707">
        <ele>269.916573</ele>
        <time>2020-10-11T18:08:24.004Z</time>
      </trkpt>
      <trkpt lat="47.26217" lon="4.98715">
        <ele>269.744281</ele>
        <time>2020-10-11T18:08:29.696Z</time>
      </trkpt>
      <trkpt lat="47.26293" lon="4.98726">
        <ele>269.339813</ele>
        <time>2020-10-11T18:08:43.208Z</time>
      </trkpt>
      <trkpt lat="47.26301" lon="4.98728">
        <ele>269.295682</ele>
        <time>2020-10-11T18:08:44.510Z</time>
      </trkpt>
      <trkpt lat="47.26373" lon="4.98756">
        <ele>269.092721</ele>
        <time>2020-10-11T18:08:58.043Z</time>
      </trkpt>
      <trkpt lat="47.26448" lon="4.9879">
        <ele>269.016939</ele>
        <time>2020-10-11T18:09:13.426Z</time>
      </trkpt>
      <trkpt lat="47.26528" lon="4.98824">
        <ele>269.200137</ele>
        <time>2020-10-11T18:09:32.996Z</time>
      </trkpt>
      <trkpt lat="47.26534" lon="4.98827">
        <ele>269.254202</ele>
        <time>2020-10-11T18:09:34.386Z</time>
      </trkpt>
      <trkpt lat="47.26539" lon="4.98831">
        <ele>269.309937</ele>
        <time>2020-10-11T18:09:36.230Z</time>
      </trkpt>
      <trkpt lat="47.26542" lon="4.98834">
        <ele>269.343326</ele>
        <time>2020-10-11T18:09:37.166Z</time>
      </trkpt>
      <trkpt lat="47.26551" lon="4.9884">
        <ele>269.42711</ele>
        <time>2020-10-11T18:09:39.497Z</time>
      </trkpt>
      <trkpt lat="47.26567" lon="4.98857">
        <ele>269.604248</ele>
        <time>2020-10-11T18:09:45.028Z</time>
      </trkpt>
      <trkpt lat="47.2659" lon="4.98871">
        <ele>269.830899</ele>
        <time>2020-10-11T18:09:54.324Z</time>
      </trkpt>
      <trkpt lat="47.26634" lon="4.98895">
        <ele>270.248646</ele>
        <time>2020-10-11T18:10:10.857Z</time>
      </trkpt>
      <trkpt lat="47.26653" lon="4.98905">
        <ele>270.436098</ele>
        <time>2020-10-11T18:10:17.883Z</time>
      </trkpt>
      <trkpt lat="47.26687" lon="4.98925">
        <ele>270.527684</ele>
        <time>2020-10-11T18:10:29.265Z</time>
      </trkpt>
      <trkpt lat="47.26689" lon="4.98926">
        <ele>270.521557</ele>
        <time>2020-10-11T18:10:30.145Z</time>
      </trkpt>
      <trkpt lat="47.2672" lon="4.98944">
        <ele>270.434646</ele>
        <time>2020-10-11T18:10:39.289Z</time>
      </trkpt>
      <trkpt lat="47.26738" lon="4.98955">
        <ele>270.38615</ele>
        <time>2020-10-11T18:10:44.111Z</time>
      </trkpt>
      <trkpt lat="47.26753" lon="4.98964">
        <ele>270.342758</ele>
        <time>2020-10-11T18:10:48.428Z</time>
      </trkpt>
      <trkpt lat="47.26778" lon="4.9898">
        <ele>270.272107</ele>
        <time>2020-10-11T18:10:55.521Z</time>
      </trkpt>
      <trkpt lat="47.26885" lon="4.99047">
        <ele>269.908625</ele>
        <time>2020-10-11T18:11:24.950Z</time>
      </trkpt>
      <trkpt lat="47.26893" lon="4.99052">
        <ele>269.874365</ele>
        <time>2020-10-11T18:11:27.263Z</time>
      </trkpt>
      <trkpt lat="47.26926" lon="4.99067">
        <ele>269.744319</ele>
        <time>2020-10-11T18:11:35.966Z</time>
      </trkpt>
      <trkpt lat="47.26947" lon="4.99076">
        <ele>269.663256</ele>
        <time>2020-10-11T18:11:41.699Z</time>
      </trkpt>
      <trkpt lat="47.26953" lon="4.99079">
        <ele>269.640959</ele>
        <time>2020-10-11T18:11:43.219Z</time>
      </trkpt>
      <trkpt lat="47.26973" lon="4.99083">
        <ele>269.566028</ele>
        <time>2020-10-11T18:11:48.870Z</time>
      </trkpt>
      <trkpt lat="47.26997" lon="4.99088">
        <ele>269.475557</ele>
        <time>2020-10-11T18:11:55.693Z</time>
      </trkpt>
      <trkpt lat="47.27039" lon="4.99092">
        <ele>269.590719</ele>
        <time>2020-10-11T18:12:08.451Z</time>
      </trkpt>
      <trkpt lat="47.27054" lon="4.99094">
        <ele>269.659317</ele>
        <time>2020-10-11T18:12:13.352Z</time>
      </trkpt>
      <trkpt lat="47.27117" lon="4.99105">
        <ele>269.946016</ele>
        <time>2020-10-11T18:12:33.083Z</time>
      </trkpt>
      <trkpt lat="47.27129" lon="4.99102">
        <ele>269.99938</ele>
        <time>2020-10-11T18:12:36.770Z</time>
      </trkpt>
      <trkpt lat="47.27143" lon="4.99105">
        <ele>270.064092</ele>
        <time>2020-10-11T18:12:41.308Z</time>
      </trkpt>
      <trkpt lat="47.2717" lon="4.99123">
        <ele>270.197117</ele>
        <time>2020-10-11T18:12:50.732Z</time>
      </trkpt>
      <trkpt lat="47.27191" lon="4.99085">
        <ele>270.36186</ele>
        <time>2020-10-11T18:12:58.755Z</time>
      </trkpt>
      <trkpt lat="47.27243" lon="4.99015">
        <ele>270.728161</ele>
        <time>2020-10-11T18:13:15.245Z</time>
      </trkpt>
      <trkpt lat="47.27264" lon="4.98984">
        <ele>270.879943</ele>
        <time>2020-10-11T18:13:22.227Z</time>
      </trkpt>
      <trkpt lat="47.27269" lon="4.98991">
        <ele>270.918306</ele>
        <time>2020-10-11T18:13:23.869Z</time>
      </trkpt>
      <trkpt lat="47.27308" lon="4.99028">
        <ele>271.155255</ele>
        <time>2020-10-11T18:13:34.764Z</time>
      </trkpt>
      <trkpt lat="47.27335" lon="4.99054">
        <ele>271.363452</ele>
        <time>2020-10-11T18:13:42.457Z</time>
      </trkpt>
      <trkpt lat="47.27411" lon="4.9912">
        <ele>271.946854</ele>
        <time>2020-10-11T18:14:03.547Z</time>
      </trkpt>
      <trkpt lat="47.27492" lon="4.99183">
        <ele>272.560611</ele>
        <time>2020-10-11T18:14:26.817Z</time>
      </trkpt>
      <trkpt lat="47.2756" lon="4.99242">
        <ele>273.123976</ele>
        <time>2020-10-11T18:14:47.417Z</time>
      </trkpt>
      <trkpt lat="47.27582" lon="4.99268">
        <ele>273.318962</ele>
        <time>2020-10-11T18:14:54.155Z</time>
      </trkpt>
      <trkpt lat="47.27617" lon="4.99318">
        <ele>273.648739</ele>
        <time>2020-10-11T18:15:05.847Z</time>
      </trkpt>
      <trkpt lat="47.27635" lon="4.99345">
        <ele>273.664259</ele>
        <time>2020-10-11T18:15:11.456Z</time>
      </trkpt>
      <trkpt lat="47.27719" lon="4.99487">
        <ele>273.742604</ele>
        <time>2020-10-11T18:15:37.763Z</time>
      </trkpt>
      <trkpt lat="47.27779" lon="4.99548">
        <ele>273.712896</ele>
        <time>2020-10-11T18:15:52.482Z</time>
      </trkpt>
      <trkpt lat="47.27806" lon="4.99562">
        <ele>273.686417</ele>
        <time>2020-10-11T18:15:58.702Z</time>
      </trkpt>
      <trkpt lat="47.27806" lon="4.99567">
        <ele>273.68332</ele>
        <time>2020-10-11T18:15:59.485Z</time>
      </trkpt>
      <trkpt lat="47.27811" lon="4.99579">
        <ele>273.674218</ele>
        <time>2020-10-11T18:16:01.604Z</time>
      </trkpt>
      <trkpt lat="47.27814" lon="4.99581">
        <ele>273.671041</ele>
        <time>2020-10-11T18:16:02.338Z</time>
      </trkpt>
      <trkpt lat="47.27817" lon="4.99581">
        <ele>273.668239</ele>
        <time>2020-10-11T18:16:03.009Z</time>
      </trkpt>
      <trkpt lat="47.27823" lon="4.99578">
        <ele>273.662507</ele>
        <time>2020-10-11T18:16:04.277Z</time>
      </trkpt>
      <trkpt lat="47.27825" lon="4.99574">
        <ele>273.659657</ele>
        <time>2020-10-11T18:16:04.953Z</time>
      </trkpt>
      <trkpt lat="47.27875" lon="4.99617">
        <ele>273.607522</ele>
        <time>2020-10-11T18:16:16.761Z</time>
      </trkpt>
      <trkpt lat="47.2793" lon="4.99664">
        <ele>273.266465</ele>
        <time>2020-10-11T18:16:29.214Z</time>
      </trkpt>
      <trkpt lat="47.28008" lon="4.99731">
        <ele>272.674117</ele>
        <time>2020-10-11T18:16:45.494Z</time>
      </trkpt>
      <trkpt lat="47.28064" lon="4.99794">
        <ele>271.999745</ele>
        <time>2020-10-11T18:16:57.195Z</time>
      </trkpt>
      <trkpt lat="47.28095" lon="4.99825">
        <ele>271.500898</ele>
        <time>2020-10-11T18:17:03.217Z</time>
      </trkpt>
      <trkpt lat="47.28152" lon="4.99881">
        <ele>270.573743</ele>
        <time>2020-10-11T18:17:14.460Z</time>
      </trkpt>
      <trkpt lat="47.28177" lon="4.99905">
        <ele>270.174392</ele>
        <time>2020-10-11T18:17:19.354Z</time>
      </trkpt>
      <trkpt lat="47.28248" lon="4.99974">
        <ele>268.952381</ele>
        <time>2020-10-11T18:17:33.183Z</time>
      </trkpt>
      <trkpt lat="47.28321" lon="5.00045">
        <ele>267.667441</ele>
        <time>2020-10-11T18:17:47.321Z</time>
      </trkpt>
      <trkpt lat="47.28368" lon="5.00092">
        <ele>266.803851</ele>
        <time>2020-10-11T18:17:56.522Z</time>
      </trkpt>
      <trkpt lat="47.28399" lon="5.00128">
        <ele>266.199379</ele>
        <time>2020-10-11T18:18:02.768Z</time>
      </trkpt>
      <trkpt lat="47.28417" lon="5.00151">
        <ele>265.829494</ele>
        <time>2020-10-11T18:18:06.632Z</time>
      </trkpt>
      <trkpt lat="47.28422" lon="5.00156">
        <ele>265.735766</ele>
        <time>2020-10-11T18:18:07.610Z</time>
      </trkpt>
      <trkpt lat="47.28457" lon="5.00199">
        <ele>265.029493</ele>
        <time>2020-10-11T18:18:15.069Z</time>
      </trkpt>
      <trkpt lat="47.28463" lon="5.00209">
        <ele>264.894187</ele>
        <time>2020-10-11T18:18:16.502Z</time>
      </trkpt>
      <trkpt lat="47.28471" lon="5.00225">
        <ele>264.682559</ele>
        <time>2020-10-11T18:18:18.705Z</time>
      </trkpt>
      <trkpt lat="47.2848" lon="5.00241">
        <ele>264.449736</ele>
        <time>2020-10-11T18:18:20.894Z</time>
      </trkpt>
      <trkpt lat="47.28495" lon="5.00268">
        <ele>264.022476</ele>
        <time>2020-10-11T18:18:24.578Z</time>
      </trkpt>
      <trkpt lat="47.28525" lon="5.00303">
        <ele>263.313856</ele>
        <time>2020-10-11T18:18:30.655Z</time>
      </trkpt>
      <trkpt lat="47.28524" lon="5.0031">
        <ele>263.222613</ele>
        <time>2020-10-11T18:18:31.435Z</time>
      </trkpt>
      <trkpt lat="47.2853" lon="5.00325">
        <ele>263.010582</ele>
        <time>2020-10-11T18:18:33.222Z</time>
      </trkpt>
      <trkpt lat="47.28534" lon="5.00328">
        <ele>262.925956</ele>
        <time>2020-10-11T18:18:33.940Z</time>
      </trkpt>
      <trkpt lat="47.28541" lon="5.00329">
        <ele>262.806163</ele>
        <time>2020-10-11T18:18:34.958Z</time>
      </trkpt>
      <trkpt lat="47.28546" lon="5.00327">
        <ele>262.713074</ele>
        <time>2020-10-11T18:18:35.735Z</time>
      </trkpt>
      <trkpt lat="47.28577" lon="5.00336">
        <ele>262.115857</ele>
        <time>2020-10-11T18:18:40.682Z</time>
      </trkpt>
      <trkpt lat="47.28622" lon="5.00373">
        <ele>261.193</ele>
        <time>2020-10-11T18:18:48.552Z</time>
      </trkpt>
      <trkpt lat="47.28624" lon="5.00376">
        <ele>261.141175</ele>
        <time>2020-10-11T18:18:49.057Z</time>
      </trkpt>
      <trkpt lat="47.28629" lon="5.0038">
        <ele>261.049627</ele>
        <time>2020-10-11T18:18:49.956Z</time>
      </trkpt>
      <trkpt lat="47.28685" lon="5.00426">
        <ele>260.029883</ele>
        <time>2020-10-11T18:18:59.925Z</time>
      </trkpt>
      <trkpt lat="47.28703" lon="5.00443">
        <ele>259.681978</ele>
        <time>2020-10-11T18:19:03.295Z</time>
      </trkpt>
      <trkpt lat="47.28775" lon="5.00507">
        <ele>258.379831</ele>
        <time>2020-10-11T18:19:16.751Z</time>
      </trkpt>
      <trkpt lat="47.2883" lon="5.00566">
        <ele>257.966317</ele>
        <time>2020-10-11T18:19:28.981Z</time>
      </trkpt>
      <trkpt lat="47.2888" lon="5.00615">
        <ele>257.601215</ele>
        <time>2020-10-11T18:19:40.825Z</time>
      </trkpt>
      <trkpt lat="47.29034" lon="5.00757">
        <ele>256.553521</ele>
        <time>2020-10-11T18:20:15.193Z</time>
      </trkpt>
      <trkpt lat="47.29074" lon="5.00798">
        <ele>256.260176</ele>
        <time>2020-10-11T18:20:23.720Z</time>
      </trkpt>
      <trkpt lat="47.29107" lon="5.00832">
        <ele>255.770389</ele>
        <time>2020-10-11T18:20:30.442Z</time>
      </trkpt>
      <trkpt lat="47.29148" lon="5.00864">
        <ele>255.203845</ele>
        <time>2020-10-11T18:20:37.927Z</time>
      </trkpt>
      <trkpt lat="47.29203" lon="5.00905">
        <ele>254.44652</ele>
        <time>2020-10-11T18:20:47.931Z</time>
      </trkpt>
      <trkpt lat="47.29266" lon="5.00944">
        <ele>253.843102</ele>
        <time>2020-10-11T18:20:59.604Z</time>
      </trkpt>
      <trkpt lat="47.29315" lon="5.00971">
        <ele>253.510565</ele>
        <time>2020-10-11T18:21:09.349Z</time>
      </trkpt>
      <trkpt lat="47.29349" lon="5.00988">
        <ele>253.282307</ele>
        <time>2020-10-11T18:21:16.145Z</time>
      </trkpt>
      <trkpt lat="47.29428" lon="5.01061">
        <ele>252.600254</ele>
        <time>2020-10-11T18:21:33.001Z</time>
      </trkpt>
      <trkpt lat="47.2944" lon="5.01072">
        <ele>252.47314</ele>
        <time>2020-10-11T18:21:35.794Z</time>
      </trkpt>
      <trkpt lat="47.29471" lon="5.01098">
        <ele>252.16545</ele>
        <time>2020-10-11T18:21:42.273Z</time>
      </trkpt>
      <trkpt lat="47.29511" lon="5.01132">
        <ele>251.768823</ele>
        <time>2020-10-11T18:21:50.141Z</time>
      </trkpt>
      <trkpt lat="47.29547" lon="5.01157">
        <ele>251.429731</ele>
        <time>2020-10-11T18:21:56.738Z</time>
      </trkpt>
      <trkpt lat="47.2956" lon="5.01166">
        <ele>251.322517</ele>
        <time>2020-10-11T18:21:59.169Z</time>
      </trkpt>
      <trkpt lat="47.29622" lon="5.01216">
        <ele>250.826962</ele>
        <time>2020-10-11T18:22:10.922Z</time>
      </trkpt>
      <trkpt lat="47.29715" lon="5.01288">
        <ele>250.101217</ele>
        <time>2020-10-11T18:22:31.114Z</time>
      </trkpt>
      <trkpt lat="47.29735" lon="5.01305">
        <ele>249.984731</ele>
        <time>2020-10-11T18:22:35.715Z</time>
      </trkpt>
      <trkpt lat="47.29778" lon="5.01345">
        <ele>249.726591</ele>
        <time>2020-10-11T18:22:45.736Z</time>
      </trkpt>
      <trkpt lat="47.29843" lon="5.01421">
        <ele>249.307184</ele>
        <time>2020-10-11T18:23:01.449Z</time>
      </trkpt>
      <trkpt lat="47.29931" lon="5.01533">
        <ele>247.645941</ele>
        <time>2020-10-11T18:23:20.597Z</time>
      </trkpt>
      <trkpt lat="47.29954" lon="5.01563">
        <ele>247.168174</ele>
        <time>2020-10-11T18:23:25.333Z</time>
      </trkpt>
      <trkpt lat="47.30008" lon="5.01636">
        <ele>245.845143</ele>
        <time>2020-10-11T18:23:36.473Z</time>
      </trkpt>
      <trkpt lat="47.30029" lon="5.01658">
        <ele>245.253301</ele>
        <time>2020-10-11T18:23:40.461Z</time>
      </trkpt>
      <trkpt lat="47.30045" lon="5.01677">
        <ele>244.793156</ele>
        <time>2020-10-11T18:23:43.419Z</time>
      </trkpt>
      <trkpt lat="47.30056" lon="5.0169">
        <ele>244.468034</ele>
        <time>2020-10-11T18:23:45.568Z</time>
      </trkpt>
      <trkpt lat="47.30075" lon="5.01712">
        <ele>243.923242</ele>
        <time>2020-10-11T18:23:49.061Z</time>
      </trkpt>
      <trkpt lat="47.30102" lon="5.01745">
        <ele>243.126997</ele>
        <time>2020-10-11T18:23:54.225Z</time>
      </trkpt>
      <trkpt lat="47.30114" lon="5.01759">
        <ele>242.771508</ele>
        <time>2020-10-11T18:23:56.635Z</time>
      </trkpt>
      <trkpt lat="47.30115" lon="5.0176">
        <ele>242.739368</ele>
        <time>2020-10-11T18:23:56.820Z</time>
      </trkpt>
      <trkpt lat="47.30116" lon="5.01762">
        <ele>242.698019</ele>
        <time>2020-10-11T18:23:57.063Z</time>
      </trkpt>
      <trkpt lat="47.30129" lon="5.01777">
        <ele>242.323316</ele>
        <time>2020-10-11T18:23:59.696Z</time>
      </trkpt>
      <trkpt lat="47.30148" lon="5.01799">
        <ele>241.920263</ele>
        <time>2020-10-11T18:24:03.343Z</time>
      </trkpt>
      <trkpt lat="47.30178" lon="5.01833">
        <ele>241.288297</ele>
        <time>2020-10-11T18:24:09.367Z</time>
      </trkpt>
      <trkpt lat="47.30204" lon="5.01864">
        <ele>240.7276</ele>
        <time>2020-10-11T18:24:14.675Z</time>
      </trkpt>
      <trkpt lat="47.30245" lon="5.01909">
        <ele>239.886664</ele>
        <time>2020-10-11T18:24:22.712Z</time>
      </trkpt>
      <trkpt lat="47.30272" lon="5.01937">
        <ele>239.332671</ele>
        <time>2020-10-11T18:24:28.108Z</time>
      </trkpt>
      <trkpt lat="47.30321" lon="5.01985">
        <ele>238.887265</ele>
        <time>2020-10-11T18:24:38.088Z</time>
      </trkpt>
      <trkpt lat="47.30353" lon="5.02012">
        <ele>238.617817</ele>
        <time>2020-10-11T18:24:44.856Z</time>
      </trkpt>
      <trkpt lat="47.30388" lon="5.02044">
        <ele>238.31012</ele>
        <time>2020-10-11T18:24:52.530Z</time>
      </trkpt>
      <trkpt lat="47.30541" lon="5.02192">
        <ele>237.266875</ele>
        <time>2020-10-11T18:25:26.542Z</time>
      </trkpt>
      <trkpt lat="47.30549" lon="5.02201">
        <ele>237.214938</ele>
        <time>2020-10-11T18:25:28.436Z</time>
      </trkpt>
      <trkpt lat="47.30553" lon="5.02204">
        <ele>237.190156</ele>
        <time>2020-10-11T18:25:29.397Z</time>
      </trkpt>
      <trkpt lat="47.30562" lon="5.02211">
        <ele>237.139845</ele>
        <time>2020-10-11T18:25:31.264Z</time>
      </trkpt>
      <trkpt lat="47.30568" lon="5.02215">
        <ele>237.104371</ele>
        <time>2020-10-11T18:25:32.570Z</time>
      </trkpt>
      <trkpt lat="47.30574" lon="5.0222">
        <ele>237.06843</ele>
        <time>2020-10-11T18:25:33.811Z</time>
      </trkpt>
      <trkpt lat="47.30579" lon="5.02222">
        <ele>237.041873</ele>
        <time>2020-10-11T18:25:34.702Z</time>
      </trkpt>
      <trkpt lat="47.30647" lon="5.02256">
        <ele>236.587921</ele>
        <time>2020-10-11T18:25:47.733Z</time>
      </trkpt>
      <trkpt lat="47.30699" lon="5.02282">
        <ele>236.236359</ele>
        <time>2020-10-11T18:25:57.457Z</time>
      </trkpt>
      <trkpt lat="47.30776" lon="5.0232">
        <ele>235.838863</ele>
        <time>2020-10-11T18:26:12.125Z</time>
      </trkpt>
      <trkpt lat="47.30797" lon="5.02337">
        <ele>235.780528</ele>
        <time>2020-10-11T18:26:16.611Z</time>
      </trkpt>
      <trkpt lat="47.3085" lon="5.0238">
        <ele>235.634279</ele>
        <time>2020-10-11T18:26:28.230Z</time>
      </trkpt>
      <trkpt lat="47.30949" lon="5.0248">
        <ele>235.635693</ele>
        <time>2020-10-11T18:26:53.803Z</time>
      </trkpt>
      <trkpt lat="47.31024" lon="5.02561">
        <ele>235.914848</ele>
        <time>2020-10-11T18:27:15.667Z</time>
      </trkpt>
      <trkpt lat="47.31032" lon="5.02571">
        <ele>235.946804</ele>
        <time>2020-10-11T18:27:17.956Z</time>
      </trkpt>
      <trkpt lat="47.31091" lon="5.02634">
        <ele>236.124611</ele>
        <time>2020-10-11T18:27:34.340Z</time>
      </trkpt>
      <trkpt lat="47.31095" lon="5.02628">
        <ele>236.138105</ele>
        <time>2020-10-11T18:27:36.174Z</time>
      </trkpt>
      <trkpt lat="47.31107" lon="5.02632">
        <ele>236.166458</ele>
        <time>2020-10-11T18:27:39.970Z</time>
      </trkpt>
      <trkpt lat="47.31113" lon="5.02636">
        <ele>236.17881</ele>
        <time>2020-10-11T18:27:41.690Z</time>
      </trkpt>
      <trkpt lat="47.31116" lon="5.02643">
        <ele>236.191625</ele>
        <time>2020-10-11T18:27:43.278Z</time>
      </trkpt>
      <trkpt lat="47.31117" lon="5.02653">
        <ele>236.206703</ele>
        <time>2020-10-11T18:27:45.363Z</time>
      </trkpt>
      <trkpt lat="47.31195" lon="5.02695">
        <ele>236.388835</ele>
        <time>2020-10-11T18:28:09.652Z</time>
      </trkpt>
      <trkpt lat="47.31196" lon="5.02695">
        <ele>236.390082</ele>
        <time>2020-10-11T18:28:09.766Z</time>
      </trkpt>
      <trkpt lat="47.31206" lon="5.02704">
        <ele>236.412969</ele>
        <time>2020-10-11T18:28:13.294Z</time>
      </trkpt>
      <trkpt lat="47.31207" lon="5.02705">
        <ele>236.415077</ele>
        <time>2020-10-11T18:28:13.683Z</time>
      </trkpt>
      <trkpt lat="47.31209" lon="5.02722">
        <ele>236.432352</ele>
        <time>2020-10-11T18:28:17.003Z</time>
      </trkpt>
      <trkpt lat="47.31204" lon="5.02734">
        <ele>236.447247</ele>
        <time>2020-10-11T18:28:19.943Z</time>
      </trkpt>
      <trkpt lat="47.31223" lon="5.02745">
        <ele>236.477502</ele>
        <time>2020-10-11T18:28:24.231Z</time>
      </trkpt>
      <trkpt lat="47.31229" lon="5.02748">
        <ele>236.487551</ele>
        <time>2020-10-11T18:28:25.665Z</time>
      </trkpt>
      <trkpt lat="47.31333" lon="5.02807">
        <ele>236.653732</ele>
        <time>2020-10-11T18:28:49.052Z</time>
      </trkpt>
      <trkpt lat="47.31351" lon="5.02819">
        <ele>236.711998</ele>
        <time>2020-10-11T18:28:53.536Z</time>
      </trkpt>
      <trkpt lat="47.31366" lon="5.02826">
        <ele>236.838946</ele>
        <time>2020-10-11T18:28:57.193Z</time>
      </trkpt>
      <trkpt lat="47.31373" lon="5.0283">
        <ele>236.898411</ele>
        <time>2020-10-11T18:28:59.062Z</time>
      </trkpt>
      <trkpt lat="47.31402" lon="5.02846">
        <ele>237.134858</ele>
        <time>2020-10-11T18:29:06.503Z</time>
      </trkpt>
      <trkpt lat="47.31475" lon="5.02887">
        <ele>237.757466</ele>
        <time>2020-10-11T18:29:28.327Z</time>
      </trkpt>
      <trkpt lat="47.31482" lon="5.02893">
        <ele>237.816854</ele>
        <time>2020-10-11T18:29:30.231Z</time>
      </trkpt>
      <trkpt lat="47.31487" lon="5.029">
        <ele>237.872612</ele>
        <time>2020-10-11T18:29:32.241Z</time>
      </trkpt>
      <trkpt lat="47.31494" lon="5.02912">
        <ele>237.95534</ele>
        <time>2020-10-11T18:29:34.509Z</time>
      </trkpt>
      <trkpt lat="47.31501" lon="5.02937">
        <ele>238.104807</ele>
        <time>2020-10-11T18:29:38.861Z</time>
      </trkpt>
      <trkpt lat="47.31502" lon="5.02942">
        <ele>238.143295</ele>
        <time>2020-10-11T18:29:39.839Z</time>
      </trkpt>
      <trkpt lat="47.31507" lon="5.0296">
        <ele>238.276992</ele>
        <time>2020-10-11T18:29:42.606Z</time>
      </trkpt>
      <trkpt lat="47.3151" lon="5.02969">
        <ele>238.348963</ele>
        <time>2020-10-11T18:29:43.995Z</time>
      </trkpt>
      <trkpt lat="47.31511" lon="5.02972">
        <ele>238.372635</ele>
        <time>2020-10-11T18:29:44.749Z</time>
      </trkpt>
      <trkpt lat="47.31513" lon="5.02974">
        <ele>238.39864</ele>
        <time>2020-10-11T18:29:45.344Z</time>
      </trkpt>
      <trkpt lat="47.31517" lon="5.02979">
        <ele>238.453686</ele>
        <time>2020-10-11T18:29:46.557Z</time>
      </trkpt>
      <trkpt lat="47.31521" lon="5.02983">
        <ele>238.507667</ele>
        <time>2020-10-11T18:29:47.845Z</time>
      </trkpt>
      <trkpt lat="47.31533" lon="5.02991">
        <ele>238.641043</ele>
        <time>2020-10-11T18:29:51.028Z</time>
      </trkpt>
      <trkpt lat="47.31551" lon="5.03005">
        <ele>238.856531</ele>
        <time>2020-10-11T18:29:56.202Z</time>
      </trkpt>
      <trkpt lat="47.31629" lon="5.03065">
        <ele>239.784195</ele>
        <time>2020-10-11T18:30:21.282Z</time>
      </trkpt>
      <trkpt lat="47.31649" lon="5.03081">
        <ele>240.02001</ele>
        <time>2020-10-11T18:30:27.965Z</time>
      </trkpt>
      <trkpt lat="47.31735" lon="5.0315">
        <ele>241.00071</ele>
        <time>2020-10-11T18:30:53.746Z</time>
      </trkpt>
      <trkpt lat="47.31743" lon="5.03155">
        <ele>241.091165</ele>
        <time>2020-10-11T18:30:56.167Z</time>
      </trkpt>
      <trkpt lat="47.3175" lon="5.0316">
        <ele>241.166067</ele>
        <time>2020-10-11T18:30:58.064Z</time>
      </trkpt>
      <trkpt lat="47.31759" lon="5.03166">
        <ele>241.262005</ele>
        <time>2020-10-11T18:31:00.805Z</time>
      </trkpt>
      <trkpt lat="47.31763" lon="5.03168">
        <ele>241.308678</ele>
        <time>2020-10-11T18:31:01.927Z</time>
      </trkpt>
      <trkpt lat="47.31774" lon="5.03167">
        <ele>241.42096</ele>
        <time>2020-10-11T18:31:04.668Z</time>
      </trkpt>
      <trkpt lat="47.31776" lon="5.03177">
        <ele>241.491883</ele>
        <time>2020-10-11T18:31:06.506Z</time>
      </trkpt>
      <trkpt lat="47.31777" lon="5.03193">
        <ele>241.598603</ele>
        <time>2020-10-11T18:31:09.481Z</time>
      </trkpt>
      <trkpt lat="47.31785" lon="5.0321">
        <ele>241.740719</ele>
        <time>2020-10-11T18:31:12.879Z</time>
      </trkpt>
      <trkpt lat="47.31798" lon="5.03232">
        <ele>241.875513</ele>
        <time>2020-10-11T18:31:18.016Z</time>
      </trkpt>
      <trkpt lat="47.31811" lon="5.03256">
        <ele>242.001469</ele>
        <time>2020-10-11T18:31:23.021Z</time>
      </trkpt>
      <trkpt lat="47.31821" lon="5.03274">
        <ele>242.092511</ele>
        <time>2020-10-11T18:31:26.844Z</time>
      </trkpt>
      <trkpt lat="47.3183" lon="5.03289">
        <ele>242.176054</ele>
        <time>2020-10-11T18:31:29.875Z</time>
      </trkpt>
      <trkpt lat="47.31848" lon="5.03318">
        <ele>242.335558</ele>
        <time>2020-10-11T18:31:36.503Z</time>
      </trkpt>
      <trkpt lat="47.31854" lon="5.0333">
        <ele>242.394753</ele>
        <time>2020-10-11T18:31:38.524Z</time>
      </trkpt>
      <trkpt lat="47.31857" lon="5.03337">
        <ele>242.42806</ele>
        <time>2020-10-11T18:31:39.817Z</time>
      </trkpt>
      <trkpt lat="47.31865" lon="5.03355">
        <ele>242.51553</ele>
        <time>2020-10-11T18:31:43.399Z</time>
      </trkpt>
      <trkpt lat="47.31873" lon="5.03369">
        <ele>242.590626</ele>
        <time>2020-10-11T18:31:46.094Z</time>
      </trkpt>
      <trkpt lat="47.31882" lon="5.03386">
        <ele>242.678442</ele>
        <time>2020-10-11T18:31:49.498Z</time>
      </trkpt>
      <trkpt lat="47.31889" lon="5.03405">
        <ele>242.767309</ele>
        <time>2020-10-11T18:31:52.958Z</time>
      </trkpt>
      <trkpt lat="47.31891" lon="5.03412">
        <ele>242.798099</ele>
        <time>2020-10-11T18:31:53.990Z</time>
      </trkpt>
      <trkpt lat="47.31897" lon="5.03434">
        <ele>242.944007</ele>
        <time>2020-10-11T18:31:57.967Z</time>
      </trkpt>
      <trkpt lat="47.31907" lon="5.03465">
        <ele>243.285584</ele>
        <time>2020-10-11T18:32:03.699Z</time>
      </trkpt>
      <trkpt lat="47.31915" lon="5.03486">
        <ele>243.528659</ele>
        <time>2020-10-11T18:32:08.224Z</time>
      </trkpt>
      <trkpt lat="47.31932" lon="5.03516">
        <ele>243.924815</ele>
        <time>2020-10-11T18:32:15.684Z</time>
      </trkpt>
      <trkpt lat="47.31941" lon="5.03531">
        <ele>244.118313</ele>
        <time>2020-10-11T18:32:19.584Z</time>
      </trkpt>
      <trkpt lat="47.31998" lon="5.0362">
        <ele>245.341623</ele>
        <time>2020-10-11T18:32:45.814Z</time>
      </trkpt>
      <trkpt lat="47.32007" lon="5.03646">
        <ele>245.620668</ele>
        <time>2020-10-11T18:32:52.086Z</time>
      </trkpt>
      <trkpt lat="47.32012" lon="5.03656">
        <ele>245.729242</ele>
        <time>2020-10-11T18:32:54.837Z</time>
      </trkpt>
      <trkpt lat="47.32034" lon="5.03674">
        <ele>246.061878</ele>
        <time>2020-10-11T18:33:02.752Z</time>
      </trkpt>
      <trkpt lat="47.32039" lon="5.03678">
        <ele>246.14054</ele>
        <time>2020-10-11T18:33:04.630Z</time>
      </trkpt>
      <trkpt lat="47.32061" lon="5.03689">
        <ele>246.439084</ele>
        <time>2020-10-11T18:33:11.419Z</time>
      </trkpt>
      <trkpt lat="47.32075" lon="5.03696">
        <ele>246.638626</ele>
        <time>2020-10-11T18:33:15.791Z</time>
      </trkpt>
      <trkpt lat="47.32088" lon="5.03703">
        <ele>246.823696</ele>
        <time>2020-10-11T18:33:19.778Z</time>
      </trkpt>
      <trkpt lat="47.32095" lon="5.03705">
        <ele>246.911942</ele>
        <time>2020-10-11T18:33:21.651Z</time>
      </trkpt>
      <trkpt lat="47.32104" lon="5.03708">
        <ele>247.041541</ele>
        <time>2020-10-11T18:33:24.350Z</time>
      </trkpt>
      <trkpt lat="47.3211" lon="5.03712">
        <ele>247.118256</ele>
        <time>2020-10-11T18:33:25.945Z</time>
      </trkpt>
      <trkpt lat="47.32117" lon="5.03719">
        <ele>247.239571</ele>
        <time>2020-10-11T18:33:28.293Z</time>
      </trkpt>
      <trkpt lat="47.32119" lon="5.03723">
        <ele>247.279535</ele>
        <time>2020-10-11T18:33:29.204Z</time>
      </trkpt>
      <trkpt lat="47.32157" lon="5.0375">
        <ele>247.832493</ele>
        <time>2020-10-11T18:33:39.906Z</time>
      </trkpt>
      <trkpt lat="47.32161" lon="5.03753">
        <ele>247.881515</ele>
        <time>2020-10-11T18:33:40.956Z</time>
      </trkpt>
      <trkpt lat="47.32164" lon="5.03755">
        <ele>247.883268</ele>
        <time>2020-10-11T18:33:42.079Z</time>
      </trkpt>
      <trkpt lat="47.32168" lon="5.03759">
        <ele>247.885779</ele>
        <time>2020-10-11T18:33:43.719Z</time>
      </trkpt>
      <trkpt lat="47.3218" lon="5.03768">
        <ele>247.892698</ele>
        <time>2020-10-11T18:33:47.717Z</time>
      </trkpt>
      <trkpt lat="47.32205" lon="5.03786">
        <ele>247.906738</ele>
        <time>2020-10-11T18:33:56.380Z</time>
      </trkpt>
      <trkpt lat="47.32213" lon="5.03794">
        <ele>247.911656</ele>
        <time>2020-10-11T18:33:58.854Z</time>
      </trkpt>
      <trkpt lat="47.32206" lon="5.03817">
        <ele>247.920145</ele>
        <time>2020-10-11T18:34:03.545Z</time>
      </trkpt>
      <trkpt lat="47.32198" lon="5.03867">
        <ele>247.93777</ele>
        <time>2020-10-11T18:34:12.800Z</time>
      </trkpt>
      <trkpt lat="47.32196" lon="5.03879">
        <ele>247.94228</ele>
        <time>2020-10-11T18:34:15.384Z</time>
      </trkpt>
      <trkpt lat="47.32193" lon="5.03895">
        <ele>247.948088</ele>
        <time>2020-10-11T18:34:18.208Z</time>
      </trkpt>
      <trkpt lat="47.32176" lon="5.03985">
        <ele>247.97322</ele>
        <time>2020-10-11T18:34:35.788Z</time>
      </trkpt>
      <trkpt lat="47.32168" lon="5.04022">
        <ele>247.97322</ele>
        <time>2020-10-11T18:34:42.915Z</time>
      </trkpt>
      <trkpt lat="47.32162" lon="5.04051">
        <ele>247.97322</ele>
        <time>2020-10-11T18:34:48.614Z</time>
      </trkpt>
      <trkpt lat="47.3216" lon="5.04058">
        <ele>247.97322</ele>
        <time>2020-10-11T18:34:49.906Z</time>
      </trkpt>
      <trkpt lat="47.32154" lon="5.04087">
        <ele>247.97322</ele>
        <time>2020-10-11T18:34:55.819Z</time>
      </trkpt>
      <trkpt lat="47.32153" lon="5.04094">
        <ele>247.97322</ele>
        <time>2020-10-11T18:34:57.079Z</time>
      </trkpt>
      <trkpt lat="47.32144" lon="5.04144">
        <ele>247.97322</ele>
        <time>2020-10-11T18:35:06.456Z</time>
      </trkpt>
      <trkpt lat="47.32151" lon="5.04146">
        <ele>247.97322</ele>
        <time>2020-10-11T18:35:08.328Z</time>
      </trkpt>
    </trkseg>
  </trk>
  <trk>
    <name><![CDATA[dijon landresse]]></name>
    <extensions>
      <line xmlns="http://www.topografix.com/GPX/gpx_style/0/2">
        <color>0000FF</color>
        <width>4</width>
      </line>
    </extensions>
    <trkseg>
      <trkpt lat="47.32151" lon="5.04146">
        <ele>247.556832</ele>
        <time>2020-10-11T06:29:07.860Z</time>
      </trkpt>
      <trkpt lat="47.32144" lon="5.04144">
        <ele>247.556832</ele>
        <time>2020-10-11T06:29:09.669Z</time>
      </trkpt>
      <trkpt lat="47.32139" lon="5.04175">
        <ele>247.556832</ele>
        <time>2020-10-11T06:29:16.326Z</time>
      </trkpt>
      <trkpt lat="47.32135" lon="5.04195">
        <ele>247.556832</ele>
        <time>2020-10-11T06:29:19.777Z</time>
      </trkpt>
      <trkpt lat="47.32134" lon="5.04202">
        <ele>247.556832</ele>
        <time>2020-10-11T06:29:21.226Z</time>
      </trkpt>
      <trkpt lat="47.32126" lon="5.042">
        <ele>247.556832</ele>
        <time>2020-10-11T06:29:23.527Z</time>
      </trkpt>
      <trkpt lat="47.32116" lon="5.04194">
        <ele>247.556832</ele>
        <time>2020-10-11T06:29:26.470Z</time>
      </trkpt>
      <trkpt lat="47.32115" lon="5.04194">
        <ele>247.556832</ele>
        <time>2020-10-11T06:29:26.803Z</time>
      </trkpt>
      <trkpt lat="47.32114" lon="5.04193">
        <ele>247.556832</ele>
        <time>2020-10-11T06:29:27.054Z</time>
      </trkpt>
      <trkpt lat="47.32101" lon="5.04174">
        <ele>247.556832</ele>
        <time>2020-10-11T06:29:32.134Z</time>
      </trkpt>
      <trkpt lat="47.32094" lon="5.04145">
        <ele>247.503982</ele>
        <time>2020-10-11T06:29:37.274Z</time>
      </trkpt>
      <trkpt lat="47.32094" lon="5.04142">
        <ele>247.499496</ele>
        <time>2020-10-11T06:29:37.559Z</time>
      </trkpt>
      <trkpt lat="47.3208" lon="5.04154">
        <ele>247.45163</ele>
        <time>2020-10-11T06:29:42.188Z</time>
      </trkpt>
      <trkpt lat="47.32064" lon="5.04168">
        <ele>247.394828</ele>
        <time>2020-10-11T06:29:46.803Z</time>
      </trkpt>
      <trkpt lat="47.3205" lon="5.04176">
        <ele>247.351504</ele>
        <time>2020-10-11T06:29:50.893Z</time>
      </trkpt>
      <trkpt lat="47.32045" lon="5.04188">
        <ele>247.322999</ele>
        <time>2020-10-11T06:29:52.552Z</time>
      </trkpt>
      <trkpt lat="47.32033" lon="5.04209">
        <ele>247.267677</ele>
        <time>2020-10-11T06:29:56.119Z</time>
      </trkpt>
      <trkpt lat="47.32051" lon="5.0423">
        <ele>247.198573</ele>
        <time>2020-10-11T06:30:00.727Z</time>
      </trkpt>
      <trkpt lat="47.32064" lon="5.04251">
        <ele>247.140703</ele>
        <time>2020-10-11T06:30:04.505Z</time>
      </trkpt>
      <trkpt lat="47.32076" lon="5.04265">
        <ele>247.09459</ele>
        <time>2020-10-11T06:30:07.581Z</time>
      </trkpt>
      <trkpt lat="47.32076" lon="5.0427">
        <ele>247.086055</ele>
        <time>2020-10-11T06:30:08.108Z</time>
      </trkpt>
      <trkpt lat="47.32069" lon="5.04304">
        <ele>247.026337</ele>
        <time>2020-10-11T06:30:13.604Z</time>
      </trkpt>
      <trkpt lat="47.32068" lon="5.04306">
        <ele>247.030091</ele>
        <time>2020-10-11T06:30:13.787Z</time>
      </trkpt>
      <trkpt lat="47.32074" lon="5.04308">
        <ele>247.045573</ele>
        <time>2020-10-11T06:30:14.989Z</time>
      </trkpt>
      <trkpt lat="47.32077" lon="5.0431">
        <ele>247.054506</ele>
        <time>2020-10-11T06:30:15.801Z</time>
      </trkpt>
      <trkpt lat="47.32111" lon="5.0434">
        <ele>247.159143</ele>
        <time>2020-10-11T06:30:24.220Z</time>
      </trkpt>
      <trkpt lat="47.32121" lon="5.04346">
        <ele>247.188502</ele>
        <time>2020-10-11T06:30:26.811Z</time>
      </trkpt>
      <trkpt lat="47.3213" lon="5.04348">
        <ele>247.210882</ele>
        <time>2020-10-11T06:30:28.790Z</time>
      </trkpt>
      <trkpt lat="47.32189" lon="5.04355">
        <ele>247.368427</ele>
        <time>2020-10-11T06:30:41.217Z</time>
      </trkpt>
      <trkpt lat="47.32192" lon="5.04356">
        <ele>247.376386</ele>
        <time>2020-10-11T06:30:41.917Z</time>
      </trkpt>
      <trkpt lat="47.32237" lon="5.04362">
        <ele>247.49502</ele>
        <time>2020-10-11T06:30:53.271Z</time>
      </trkpt>
      <trkpt lat="47.32231" lon="5.04406">
        <ele>247.617273</ele>
        <time>2020-10-11T06:31:03.120Z</time>
      </trkpt>
      <trkpt lat="47.32238" lon="5.04409">
        <ele>247.644157</ele>
        <time>2020-10-11T06:31:05.010Z</time>
      </trkpt>
      <trkpt lat="47.32287" lon="5.04427">
        <ele>247.847038</ele>
        <time>2020-10-11T06:31:16.502Z</time>
      </trkpt>
      <trkpt lat="47.32291" lon="5.04429">
        <ele>247.864786</ele>
        <time>2020-10-11T06:31:17.517Z</time>
      </trkpt>
      <trkpt lat="47.32298" lon="5.04431">
        <ele>247.890025</ele>
        <time>2020-10-11T06:31:18.788Z</time>
      </trkpt>
      <trkpt lat="47.32307" lon="5.04433">
        <ele>247.929137</ele>
        <time>2020-10-11T06:31:20.812Z</time>
      </trkpt>
      <trkpt lat="47.32366" lon="5.04456">
        <ele>248.171594</ele>
        <time>2020-10-11T06:31:34.263Z</time>
      </trkpt>
      <trkpt lat="47.32382" lon="5.04454">
        <ele>248.224279</ele>
        <time>2020-10-11T06:31:37.921Z</time>
      </trkpt>
      <trkpt lat="47.32389" lon="5.04456">
        <ele>248.23675</ele>
        <time>2020-10-11T06:31:39.726Z</time>
      </trkpt>
      <trkpt lat="47.32412" lon="5.04461">
        <ele>248.278756</ele>
        <time>2020-10-11T06:31:45.164Z</time>
      </trkpt>
      <trkpt lat="47.32417" lon="5.04464">
        <ele>248.287577</ele>
        <time>2020-10-11T06:31:46.220Z</time>
      </trkpt>
      <trkpt lat="47.3244" lon="5.04476">
        <ele>248.331101</ele>
        <time>2020-10-11T06:31:51.803Z</time>
      </trkpt>
      <trkpt lat="47.32457" lon="5.04483">
        <ele>248.363047</ele>
        <time>2020-10-11T06:31:55.690Z</time>
      </trkpt>
      <trkpt lat="47.32459" lon="5.04484">
        <ele>248.3673</ele>
        <time>2020-10-11T06:31:56.181Z</time>
      </trkpt>
      <trkpt lat="47.3249" lon="5.04497">
        <ele>248.424117</ele>
        <time>2020-10-11T06:32:02.725Z</time>
      </trkpt>
      <trkpt lat="47.32524" lon="5.04511">
        <ele>248.486139</ele>
        <time>2020-10-11T06:32:10.154Z</time>
      </trkpt>
      <trkpt lat="47.32564" lon="5.04528">
        <ele>248.548237</ele>
        <time>2020-10-11T06:32:19.036Z</time>
      </trkpt>
      <trkpt lat="47.32604" lon="5.04545">
        <ele>248.586937</ele>
        <time>2020-10-11T06:32:28.010Z</time>
      </trkpt>
      <trkpt lat="47.32614" lon="5.0455">
        <ele>248.597066</ele>
        <time>2020-10-11T06:32:30.492Z</time>
      </trkpt>
      <trkpt lat="47.32616" lon="5.04552">
        <ele>248.599824</ele>
        <time>2020-10-11T06:32:30.952Z</time>
      </trkpt>
      <trkpt lat="47.32616" lon="5.04555">
        <ele>248.601968</ele>
        <time>2020-10-11T06:32:31.554Z</time>
      </trkpt>
      <trkpt lat="47.32614" lon="5.04561">
        <ele>248.605892</ele>
        <time>2020-10-11T06:32:32.586Z</time>
      </trkpt>
      <trkpt lat="47.32609" lon="5.0458">
        <ele>248.618707</ele>
        <time>2020-10-11T06:32:35.655Z</time>
      </trkpt>
      <trkpt lat="47.32609" lon="5.04594">
        <ele>248.627586</ele>
        <time>2020-10-11T06:32:37.709Z</time>
      </trkpt>
      <trkpt lat="47.3261" lon="5.04603">
        <ele>248.633652</ele>
        <time>2020-10-11T06:32:38.822Z</time>
      </trkpt>
      <trkpt lat="47.32612" lon="5.04614">
        <ele>248.640838</ele>
        <time>2020-10-11T06:32:40.641Z</time>
      </trkpt>
      <trkpt lat="47.32619" lon="5.04625">
        <ele>248.650347</ele>
        <time>2020-10-11T06:32:42.804Z</time>
      </trkpt>
      <trkpt lat="47.32625" lon="5.04632">
        <ele>248.657727</ele>
        <time>2020-10-11T06:32:44.359Z</time>
      </trkpt>
      <trkpt lat="47.32631" lon="5.04635">
        <ele>248.663412</ele>
        <time>2020-10-11T06:32:45.652Z</time>
      </trkpt>
      <trkpt lat="47.32635" lon="5.04637">
        <ele>248.667583</ele>
        <time>2020-10-11T06:32:46.364Z</time>
      </trkpt>
      <trkpt lat="47.32647" lon="5.04638">
        <ele>248.678781</ele>
        <time>2020-10-11T06:32:49.025Z</time>
      </trkpt>
      <trkpt lat="47.32655" lon="5.04634">
        <ele>248.687008</ele>
        <time>2020-10-11T06:32:50.880Z</time>
      </trkpt>
      <trkpt lat="47.32661" lon="5.04632">
        <ele>248.692807</ele>
        <time>2020-10-11T06:32:52.203Z</time>
      </trkpt>
      <trkpt lat="47.32675" lon="5.04631">
        <ele>248.706286</ele>
        <time>2020-10-11T06:32:54.922Z</time>
      </trkpt>
      <trkpt lat="47.32683" lon="5.0464">
        <ele>248.7192</ele>
        <time>2020-10-11T06:32:57.319Z</time>
      </trkpt>
      <trkpt lat="47.32779" lon="5.04903">
        <ele>248.901423</ele>
        <time>2020-10-11T06:33:40.984Z</time>
      </trkpt>
      <trkpt lat="47.32785" lon="5.04918">
        <ele>248.892939</ele>
        <time>2020-10-11T06:33:43.347Z</time>
      </trkpt>
      <trkpt lat="47.3279" lon="5.04931">
        <ele>248.885191</ele>
        <time>2020-10-11T06:33:45.364Z</time>
      </trkpt>
      <trkpt lat="47.328" lon="5.04954">
        <ele>248.870948</ele>
        <time>2020-10-11T06:33:49.856Z</time>
      </trkpt>
      <trkpt lat="47.32807" lon="5.04973">
        <ele>248.860447</ele>
        <time>2020-10-11T06:33:52.895Z</time>
      </trkpt>
      <trkpt lat="47.32832" lon="5.0504">
        <ele>248.821673</ele>
        <time>2020-10-11T06:34:04.797Z</time>
      </trkpt>
      <trkpt lat="47.32835" lon="5.05053">
        <ele>248.814602</ele>
        <time>2020-10-11T06:34:06.760Z</time>
      </trkpt>
      <trkpt lat="47.32839" lon="5.05066">
        <ele>248.807193</ele>
        <time>2020-10-11T06:34:08.319Z</time>
      </trkpt>
      <trkpt lat="47.32843" lon="5.0508">
        <ele>248.799447</ele>
        <time>2020-10-11T06:34:10.550Z</time>
      </trkpt>
      <trkpt lat="47.32839" lon="5.05085">
        <ele>248.795814</ele>
        <time>2020-10-11T06:34:11.806Z</time>
      </trkpt>
      <trkpt lat="47.32831" lon="5.05111">
        <ele>248.607287</ele>
        <time>2020-10-11T06:34:14.771Z</time>
      </trkpt>
      <trkpt lat="47.32836" lon="5.05138">
        <ele>248.374911</ele>
        <time>2020-10-11T06:34:18.451Z</time>
      </trkpt>
      <trkpt lat="47.32839" lon="5.05144">
        <ele>248.315633</ele>
        <time>2020-10-11T06:34:19.467Z</time>
      </trkpt>
      <trkpt lat="47.32842" lon="5.05148">
        <ele>248.265807</ele>
        <time>2020-10-11T06:34:20.066Z</time>
      </trkpt>
      <trkpt lat="47.32849" lon="5.05155">
        <ele>248.160297</ele>
        <time>2020-10-11T06:34:21.266Z</time>
      </trkpt>
      <trkpt lat="47.32846" lon="5.05174">
        <ele>248.003735</ele>
        <time>2020-10-11T06:34:23.901Z</time>
      </trkpt>
      <trkpt lat="47.32848" lon="5.05244">
        <ele>247.430069</ele>
        <time>2020-10-11T06:34:32.039Z</time>
      </trkpt>
      <trkpt lat="47.32849" lon="5.05257">
        <ele>247.324234</ele>
        <time>2020-10-11T06:34:33.207Z</time>
      </trkpt>
      <trkpt lat="47.32852" lon="5.05298">
        <ele>246.97924</ele>
        <time>2020-10-11T06:34:38.765Z</time>
      </trkpt>
      <trkpt lat="47.32853" lon="5.0531">
        <ele>246.886035</ele>
        <time>2020-10-11T06:34:39.788Z</time>
      </trkpt>
      <trkpt lat="47.32855" lon="5.05333">
        <ele>246.691174</ele>
        <time>2020-10-11T06:34:42.941Z</time>
      </trkpt>
      <trkpt lat="47.32857" lon="5.0536">
        <ele>246.543805</ele>
        <time>2020-10-11T06:34:45.680Z</time>
      </trkpt>
      <trkpt lat="47.32861" lon="5.05428">
        <ele>246.269885</ele>
        <time>2020-10-11T06:34:52.994Z</time>
      </trkpt>
      <trkpt lat="47.32871" lon="5.05562">
        <ele>245.728213</ele>
        <time>2020-10-11T06:35:09.794Z</time>
      </trkpt>
      <trkpt lat="47.32872" lon="5.05577">
        <ele>245.667785</ele>
        <time>2020-10-11T06:35:12.187Z</time>
      </trkpt>
      <trkpt lat="47.32873" lon="5.05585">
        <ele>245.635975</ele>
        <time>2020-10-11T06:35:13.581Z</time>
      </trkpt>
      <trkpt lat="47.32874" lon="5.05599">
        <ele>245.579536</ele>
        <time>2020-10-11T06:35:16.002Z</time>
      </trkpt>
      <trkpt lat="47.32877" lon="5.05638">
        <ele>245.936106</ele>
        <time>2020-10-11T06:35:23.258Z</time>
      </trkpt>
      <trkpt lat="47.3288" lon="5.05662">
        <ele>246.226251</ele>
        <time>2020-10-11T06:35:27.475Z</time>
      </trkpt>
      <trkpt lat="47.3288" lon="5.05708">
        <ele>246.782108</ele>
        <time>2020-10-11T06:35:36.213Z</time>
      </trkpt>
      <trkpt lat="47.3288" lon="5.05722">
        <ele>246.950108</ele>
        <time>2020-10-11T06:35:38.829Z</time>
      </trkpt>
      <trkpt lat="47.32878" lon="5.05822">
        <ele>248.155181</ele>
        <time>2020-10-11T06:36:00.788Z</time>
      </trkpt>
      <trkpt lat="47.32878" lon="5.05834">
        <ele>248.300195</ele>
        <time>2020-10-11T06:36:03.869Z</time>
      </trkpt>
      <trkpt lat="47.32877" lon="5.05845">
        <ele>248.432099</ele>
        <time>2020-10-11T06:36:06.686Z</time>
      </trkpt>
      <trkpt lat="47.32878" lon="5.05935">
        <ele>249.972786</ele>
        <time>2020-10-11T06:36:29.736Z</time>
      </trkpt>
      <trkpt lat="47.32878" lon="5.05955">
        <ele>250.354877</ele>
        <time>2020-10-11T06:36:34.627Z</time>
      </trkpt>
      <trkpt lat="47.32878" lon="5.06007">
        <ele>251.342478</ele>
        <time>2020-10-11T06:36:47.816Z</time>
      </trkpt>
      <trkpt lat="47.3288" lon="5.0628">
        <ele>255.76508</ele>
        <time>2020-10-11T06:37:54.724Z</time>
      </trkpt>
      <trkpt lat="47.3288" lon="5.06341">
        <ele>256.585246</ele>
        <time>2020-10-11T06:38:06.778Z</time>
      </trkpt>
      <trkpt lat="47.3288" lon="5.06468">
        <ele>257.626776</ele>
        <time>2020-10-11T06:38:29.325Z</time>
      </trkpt>
      <trkpt lat="47.3288" lon="5.06493">
        <ele>257.704583</ele>
        <time>2020-10-11T06:38:33.246Z</time>
      </trkpt>
      <trkpt lat="47.32882" lon="5.06498">
        <ele>257.722828</ele>
        <time>2020-10-11T06:38:34.069Z</time>
      </trkpt>
      <trkpt lat="47.32887" lon="5.06505">
        <ele>257.752105</ele>
        <time>2020-10-11T06:38:35.464Z</time>
      </trkpt>
      <trkpt lat="47.3288" lon="5.06521">
        <ele>257.812579</ele>
        <time>2020-10-11T06:38:38.271Z</time>
      </trkpt>
      <trkpt lat="47.32881" lon="5.06529">
        <ele>257.835126</ele>
        <time>2020-10-11T06:38:39.322Z</time>
      </trkpt>
      <trkpt lat="47.32881" lon="5.06567">
        <ele>257.958242</ele>
        <time>2020-10-11T06:38:45.161Z</time>
      </trkpt>
      <trkpt lat="47.32882" lon="5.06685">
        <ele>258.321974</ele>
        <time>2020-10-11T06:39:02.708Z</time>
      </trkpt>
      <trkpt lat="47.32882" lon="5.06863">
        <ele>258.824117</ele>
        <time>2020-10-11T06:39:29.760Z</time>
      </trkpt>
      <trkpt lat="47.32881" lon="5.06919">
        <ele>258.980723</ele>
        <time>2020-10-11T06:39:39.353Z</time>
      </trkpt>
      <trkpt lat="47.32881" lon="5.06932">
        <ele>259.041233</ele>
        <time>2020-10-11T06:39:41.602Z</time>
      </trkpt>
      <trkpt lat="47.32879" lon="5.06946">
        <ele>259.158557</ele>
        <time>2020-10-11T06:39:44.076Z</time>
      </trkpt>
      <trkpt lat="47.32875" lon="5.06971">
        <ele>259.365911</ele>
        <time>2020-10-11T06:39:48.645Z</time>
      </trkpt>
      <trkpt lat="47.32873" lon="5.06979">
        <ele>259.439908</ele>
        <time>2020-10-11T06:39:50.268Z</time>
      </trkpt>
      <trkpt lat="47.32865" lon="5.07018">
        <ele>259.767777</ele>
        <time>2020-10-11T06:39:57.471Z</time>
      </trkpt>
      <trkpt lat="47.32864" lon="5.07023">
        <ele>259.811222</ele>
        <time>2020-10-11T06:39:58.399Z</time>
      </trkpt>
      <trkpt lat="47.32863" lon="5.0703">
        <ele>259.862548</ele>
        <time>2020-10-11T06:39:59.638Z</time>
      </trkpt>
      <trkpt lat="47.32864" lon="5.07051">
        <ele>260.036921</ele>
        <time>2020-10-11T06:40:03.457Z</time>
      </trkpt>
      <trkpt lat="47.32866" lon="5.07061">
        <ele>260.123809</ele>
        <time>2020-10-11T06:40:05.615Z</time>
      </trkpt>
      <trkpt lat="47.32869" lon="5.07072">
        <ele>260.221675</ele>
        <time>2020-10-11T06:40:07.889Z</time>
      </trkpt>
      <trkpt lat="47.32875" lon="5.07087">
        <ele>260.359716</ele>
        <time>2020-10-11T06:40:11.048Z</time>
      </trkpt>
      <trkpt lat="47.32875" lon="5.07087">
        <ele>260.361159</ele>
        <time>2020-10-11T06:40:11.223Z</time>
      </trkpt>
      <trkpt lat="47.32886" lon="5.07101">
        <ele>260.534675</ele>
        <time>2020-10-11T06:40:15.362Z</time>
      </trkpt>
      <trkpt lat="47.32906" lon="5.07126">
        <ele>260.848651</ele>
        <time>2020-10-11T06:40:22.993Z</time>
      </trkpt>
      <trkpt lat="47.32911" lon="5.07133">
        <ele>260.929549</ele>
        <time>2020-10-11T06:40:25.071Z</time>
      </trkpt>
      <trkpt lat="47.32916" lon="5.07145">
        <ele>261.04565</ele>
        <time>2020-10-11T06:40:28.059Z</time>
      </trkpt>
      <trkpt lat="47.32919" lon="5.07161">
        <ele>261.177787</ele>
        <time>2020-10-11T06:40:31.471Z</time>
      </trkpt>
      <trkpt lat="47.32923" lon="5.07182">
        <ele>261.346231</ele>
        <time>2020-10-11T06:40:35.973Z</time>
      </trkpt>
      <trkpt lat="47.32959" lon="5.07368">
        <ele>262.826802</ele>
        <time>2020-10-11T06:41:12.152Z</time>
      </trkpt>
      <trkpt lat="47.32985" lon="5.07505">
        <ele>263.132013</ele>
        <time>2020-10-11T06:41:35.356Z</time>
      </trkpt>
      <trkpt lat="47.32995" lon="5.07557">
        <ele>263.099062</ele>
        <time>2020-10-11T06:41:42.778Z</time>
      </trkpt>
      <trkpt lat="47.33007" lon="5.07629">
        <ele>263.052603</ele>
        <time>2020-10-11T06:41:52.441Z</time>
      </trkpt>
      <trkpt lat="47.33024" lon="5.0772">
        <ele>262.47719</ele>
        <time>2020-10-11T06:42:03.262Z</time>
      </trkpt>
      <trkpt lat="47.33027" lon="5.07738">
        <ele>262.268976</ele>
        <time>2020-10-11T06:42:05.423Z</time>
      </trkpt>
      <trkpt lat="47.33029" lon="5.07757">
        <ele>262.068807</ele>
        <time>2020-10-11T06:42:07.478Z</time>
      </trkpt>
      <trkpt lat="47.3303" lon="5.07765">
        <ele>261.984327</ele>
        <time>2020-10-11T06:42:08.398Z</time>
      </trkpt>
      <trkpt lat="47.33027" lon="5.07777">
        <ele>261.845307</ele>
        <time>2020-10-11T06:42:09.904Z</time>
      </trkpt>
      <trkpt lat="47.33025" lon="5.07783">
        <ele>261.778039</ele>
        <time>2020-10-11T06:42:10.602Z</time>
      </trkpt>
      <trkpt lat="47.33024" lon="5.07789">
        <ele>261.712741</ele>
        <time>2020-10-11T06:42:11.290Z</time>
      </trkpt>
      <trkpt lat="47.33025" lon="5.07795">
        <ele>261.643279</ele>
        <time>2020-10-11T06:42:12.003Z</time>
      </trkpt>
      <trkpt lat="47.33028" lon="5.07801">
        <ele>261.574601</ele>
        <time>2020-10-11T06:42:12.714Z</time>
      </trkpt>
      <trkpt lat="47.33029" lon="5.07803">
        <ele>261.534684</ele>
        <time>2020-10-11T06:42:13.125Z</time>
      </trkpt>
      <trkpt lat="47.33033" lon="5.07806">
        <ele>261.466207</ele>
        <time>2020-10-11T06:42:13.863Z</time>
      </trkpt>
      <trkpt lat="47.3304" lon="5.07806">
        <ele>261.362674</ele>
        <time>2020-10-11T06:42:14.981Z</time>
      </trkpt>
      <trkpt lat="47.33043" lon="5.07822">
        <ele>261.192601</ele>
        <time>2020-10-11T06:42:16.702Z</time>
      </trkpt>
      <trkpt lat="47.3305" lon="5.07871">
        <ele>260.653873</ele>
        <time>2020-10-11T06:42:22.015Z</time>
      </trkpt>
      <trkpt lat="47.3306" lon="5.07938">
        <ele>259.758007</ele>
        <time>2020-10-11T06:42:29.027Z</time>
      </trkpt>
      <trkpt lat="47.33074" lon="5.08034">
        <ele>258.091195</ele>
        <time>2020-10-11T06:42:38.863Z</time>
      </trkpt>
      <trkpt lat="47.33094" lon="5.08173">
        <ele>255.669007</ele>
        <time>2020-10-11T06:42:53.041Z</time>
      </trkpt>
      <trkpt lat="47.33146" lon="5.08523">
        <ele>250.286195</ele>
        <time>2020-10-11T06:43:29.339Z</time>
      </trkpt>
      <trkpt lat="47.33158" lon="5.08596">
        <ele>249.441387</ele>
        <time>2020-10-11T06:43:37.551Z</time>
      </trkpt>
      <trkpt lat="47.33183" lon="5.08756">
        <ele>247.787058</ele>
        <time>2020-10-11T06:43:56.631Z</time>
      </trkpt>
      <trkpt lat="47.33184" lon="5.08761">
        <ele>247.747263</ele>
        <time>2020-10-11T06:43:57.203Z</time>
      </trkpt>
      <trkpt lat="47.33208" lon="5.08901">
        <ele>246.512909</ele>
        <time>2020-10-11T06:44:13.668Z</time>
      </trkpt>
      <trkpt lat="47.33219" lon="5.08982">
        <ele>245.399319</ele>
        <time>2020-10-11T06:44:22.592Z</time>
      </trkpt>
      <trkpt lat="47.33222" lon="5.09002">
        <ele>244.99229</ele>
        <time>2020-10-11T06:44:24.698Z</time>
      </trkpt>
      <trkpt lat="47.33228" lon="5.09049">
        <ele>244.041866</ele>
        <time>2020-10-11T06:44:29.564Z</time>
      </trkpt>
      <trkpt lat="47.33229" lon="5.09059">
        <ele>243.830513</ele>
        <time>2020-10-11T06:44:30.604Z</time>
      </trkpt>
      <trkpt lat="47.33247" lon="5.09148">
        <ele>241.96359</ele>
        <time>2020-10-11T06:44:39.435Z</time>
      </trkpt>
      <trkpt lat="47.33266" lon="5.0924">
        <ele>239.781411</ele>
        <time>2020-10-11T06:44:48.463Z</time>
      </trkpt>
      <trkpt lat="47.33274" lon="5.09269">
        <ele>238.965518</ele>
        <time>2020-10-11T06:44:51.356Z</time>
      </trkpt>
      <trkpt lat="47.33276" lon="5.09277">
        <ele>238.736872</ele>
        <time>2020-10-11T06:44:52.169Z</time>
      </trkpt>
      <trkpt lat="47.33279" lon="5.09287">
        <ele>238.448928</ele>
        <time>2020-10-11T06:44:53.101Z</time>
      </trkpt>
      <trkpt lat="47.33325" lon="5.09422">
        <ele>234.414162</ele>
        <time>2020-10-11T06:45:07.185Z</time>
      </trkpt>
      <trkpt lat="47.33357" lon="5.09493">
        <ele>232.55956</ele>
        <time>2020-10-11T06:45:15.147Z</time>
      </trkpt>
      <trkpt lat="47.33368" lon="5.09546">
        <ele>231.469725</ele>
        <time>2020-10-11T06:45:20.604Z</time>
      </trkpt>
      <trkpt lat="47.33377" lon="5.0955">
        <ele>231.211881</ele>
        <time>2020-10-11T06:45:21.906Z</time>
      </trkpt>
      <trkpt lat="47.33384" lon="5.09556">
        <ele>230.985823</ele>
        <time>2020-10-11T06:45:23.036Z</time>
      </trkpt>
      <trkpt lat="47.3339" lon="5.09568">
        <ele>230.679582</ele>
        <time>2020-10-11T06:45:24.555Z</time>
      </trkpt>
      <trkpt lat="47.33434" lon="5.09665">
        <ele>228.456901</ele>
        <time>2020-10-11T06:45:36.262Z</time>
      </trkpt>
      <trkpt lat="47.33475" lon="5.09756">
        <ele>227.350286</ele>
        <time>2020-10-11T06:45:48.059Z</time>
      </trkpt>
      <trkpt lat="47.33512" lon="5.09854">
        <ele>226.208009</ele>
        <time>2020-10-11T06:46:00.443Z</time>
      </trkpt>
      <trkpt lat="47.33528" lon="5.09904">
        <ele>225.724284</ele>
        <time>2020-10-11T06:46:06.877Z</time>
      </trkpt>
      <trkpt lat="47.33544" lon="5.09952">
        <ele>225.449789</ele>
        <time>2020-10-11T06:46:13.300Z</time>
      </trkpt>
      <trkpt lat="47.33571" lon="5.10029">
        <ele>225.007282</ele>
        <time>2020-10-11T06:46:23.856Z</time>
      </trkpt>
      <trkpt lat="47.33588" lon="5.10073">
        <ele>224.748016</ele>
        <time>2020-10-11T06:46:30.012Z</time>
      </trkpt>
      <trkpt lat="47.33586" lon="5.10081">
        <ele>224.700163</ele>
        <time>2020-10-11T06:46:31.539Z</time>
      </trkpt>
      <trkpt lat="47.33596" lon="5.10104">
        <ele>224.561276</ele>
        <time>2020-10-11T06:46:36.295Z</time>
      </trkpt>
      <trkpt lat="47.33622" lon="5.10156">
        <ele>224.302524</ele>
        <time>2020-10-11T06:46:47.686Z</time>
      </trkpt>
      <trkpt lat="47.33634" lon="5.10176">
        <ele>224.213732</ele>
        <time>2020-10-11T06:46:52.186Z</time>
      </trkpt>
      <trkpt lat="47.33853" lon="5.10599">
        <ele>222.204639</ele>
        <time>2020-10-11T06:48:26.213Z</time>
      </trkpt>
      <trkpt lat="47.33861" lon="5.1061">
        <ele>222.111013</ele>
        <time>2020-10-11T06:48:28.872Z</time>
      </trkpt>
      <trkpt lat="47.33858" lon="5.1062">
        <ele>222.051016</ele>
        <time>2020-10-11T06:48:30.072Z</time>
      </trkpt>
      <trkpt lat="47.33859" lon="5.10641">
        <ele>221.932503</ele>
        <time>2020-10-11T06:48:32.659Z</time>
      </trkpt>
      <trkpt lat="47.33862" lon="5.10651">
        <ele>221.872655</ele>
        <time>2020-10-11T06:48:33.894Z</time>
      </trkpt>
      <trkpt lat="47.33869" lon="5.10661">
        <ele>221.793136</ele>
        <time>2020-10-11T06:48:35.495Z</time>
      </trkpt>
      <trkpt lat="47.33873" lon="5.10664">
        <ele>221.749742</ele>
        <time>2020-10-11T06:48:36.365Z</time>
      </trkpt>
      <trkpt lat="47.33877" lon="5.10666">
        <ele>221.714345</ele>
        <time>2020-10-11T06:48:37.123Z</time>
      </trkpt>
      <trkpt lat="47.33896" lon="5.10662">
        <ele>221.55817</ele>
        <time>2020-10-11T06:48:40.478Z</time>
      </trkpt>
      <trkpt lat="47.33903" lon="5.10652">
        <ele>221.479001</ele>
        <time>2020-10-11T06:48:42.072Z</time>
      </trkpt>
      <trkpt lat="47.33939" lon="5.10692">
        <ele>221.102144</ele>
        <time>2020-10-11T06:48:49.866Z</time>
      </trkpt>
      <trkpt lat="47.33944" lon="5.10697">
        <ele>221.06257</ele>
        <time>2020-10-11T06:48:50.834Z</time>
      </trkpt>
      <trkpt lat="47.33955" lon="5.10709">
        <ele>220.958726</ele>
        <time>2020-10-11T06:48:53.245Z</time>
      </trkpt>
      <trkpt lat="47.34006" lon="5.10784">
        <ele>220.424306</ele>
        <time>2020-10-11T06:49:05.881Z</time>
      </trkpt>
      <trkpt lat="47.34037" lon="5.1083">
        <ele>220.098138</ele>
        <time>2020-10-11T06:49:13.777Z</time>
      </trkpt>
      <trkpt lat="47.3413" lon="5.11039">
        <ele>219.317449</ele>
        <time>2020-10-11T06:49:45.209Z</time>
      </trkpt>
      <trkpt lat="47.34135" lon="5.1105">
        <ele>219.284282</ele>
        <time>2020-10-11T06:49:46.801Z</time>
      </trkpt>
      <trkpt lat="47.3423" lon="5.11259">
        <ele>219.024337</ele>
        <time>2020-10-11T06:50:22.464Z</time>
      </trkpt>
      <trkpt lat="47.34317" lon="5.11437">
        <ele>218.526724</ele>
        <time>2020-10-11T06:50:51.731Z</time>
      </trkpt>
      <trkpt lat="47.34335" lon="5.11487">
        <ele>218.341564</ele>
        <time>2020-10-11T06:50:58.488Z</time>
      </trkpt>
      <trkpt lat="47.34377" lon="5.11615">
        <ele>217.823573</ele>
        <time>2020-10-11T06:51:15.703Z</time>
      </trkpt>
      <trkpt lat="47.34382" lon="5.11635">
        <ele>217.738562</ele>
        <time>2020-10-11T06:51:18.213Z</time>
      </trkpt>
      <trkpt lat="47.34385" lon="5.1165">
        <ele>217.677085</ele>
        <time>2020-10-11T06:51:20.091Z</time>
      </trkpt>
      <trkpt lat="47.34388" lon="5.11659">
        <ele>217.6358</ele>
        <time>2020-10-11T06:51:21.394Z</time>
      </trkpt>
      <trkpt lat="47.3446" lon="5.11935">
        <ele>216.727494</ele>
        <time>2020-10-11T06:51:59.120Z</time>
      </trkpt>
      <trkpt lat="47.34474" lon="5.11991">
        <ele>216.597317</ele>
        <time>2020-10-11T06:52:07.059Z</time>
      </trkpt>
      <trkpt lat="47.34512" lon="5.12137">
        <ele>216.43649</ele>
        <time>2020-10-11T06:52:28.243Z</time>
      </trkpt>
      <trkpt lat="47.34535" lon="5.12188">
        <ele>216.413212</ele>
        <time>2020-10-11T06:52:36.585Z</time>
      </trkpt>
      <trkpt lat="47.34593" lon="5.12274">
        <ele>216.462703</ele>
        <time>2020-10-11T06:52:53.722Z</time>
      </trkpt>
      <trkpt lat="47.34609" lon="5.12293">
        <ele>216.620614</ele>
        <time>2020-10-11T06:52:58.592Z</time>
      </trkpt>
      <trkpt lat="47.34607" lon="5.12296">
        <ele>216.64193</ele>
        <time>2020-10-11T06:52:59.100Z</time>
      </trkpt>
      <trkpt lat="47.34606" lon="5.12307">
        <ele>216.701706</ele>
        <time>2020-10-11T06:53:00.797Z</time>
      </trkpt>
      <trkpt lat="47.34607" lon="5.12309">
        <ele>216.712404</ele>
        <time>2020-10-11T06:53:01.038Z</time>
      </trkpt>
      <trkpt lat="47.34609" lon="5.12312">
        <ele>216.733361</ele>
        <time>2020-10-11T06:53:01.625Z</time>
      </trkpt>
      <trkpt lat="47.34611" lon="5.12314">
        <ele>216.754541</ele>
        <time>2020-10-11T06:53:02.261Z</time>
      </trkpt>
      <trkpt lat="47.34614" lon="5.12315">
        <ele>216.77728</ele>
        <time>2020-10-11T06:53:03.035Z</time>
      </trkpt>
      <trkpt lat="47.34619" lon="5.12311">
        <ele>216.817848</ele>
        <time>2020-10-11T06:53:04.296Z</time>
      </trkpt>
      <trkpt lat="47.34621" lon="5.12308">
        <ele>216.839004</ele>
        <time>2020-10-11T06:53:05.027Z</time>
      </trkpt>
      <trkpt lat="47.34671" lon="5.12389">
        <ele>217.402381</ele>
        <time>2020-10-11T06:53:23.286Z</time>
      </trkpt>
      <trkpt lat="47.34713" lon="5.12455">
        <ele>218.152207</ele>
        <time>2020-10-11T06:53:41.057Z</time>
      </trkpt>
      <trkpt lat="47.34735" lon="5.12477">
        <ele>218.769506</ele>
        <time>2020-10-11T06:53:49.221Z</time>
      </trkpt>
      <trkpt lat="47.34787" lon="5.12521">
        <ele>220.172286</ele>
        <time>2020-10-11T06:54:08.466Z</time>
      </trkpt>
      <trkpt lat="47.3483" lon="5.12565">
        <ele>221.40199</ele>
        <time>2020-10-11T06:54:28.518Z</time>
      </trkpt>
      <trkpt lat="47.34907" lon="5.12639">
        <ele>223.756885</ele>
        <time>2020-10-11T06:55:03.821Z</time>
      </trkpt>
      <trkpt lat="47.3492" lon="5.12667">
        <ele>224.365816</ele>
        <time>2020-10-11T06:55:12.485Z</time>
      </trkpt>
      <trkpt lat="47.34925" lon="5.12677">
        <ele>224.573686</ele>
        <time>2020-10-11T06:55:15.108Z</time>
      </trkpt>
      <trkpt lat="47.3493" lon="5.12712">
        <ele>225.209036</ele>
        <time>2020-10-11T06:55:23.259Z</time>
      </trkpt>
      <trkpt lat="47.34918" lon="5.12762">
        <ele>226.165376</ele>
        <time>2020-10-11T06:55:34.153Z</time>
      </trkpt>
      <trkpt lat="47.34876" lon="5.12916">
        <ele>228.599475</ele>
        <time>2020-10-11T06:56:13.064Z</time>
      </trkpt>
      <trkpt lat="47.34873" lon="5.12928">
        <ele>228.771909</ele>
        <time>2020-10-11T06:56:15.830Z</time>
      </trkpt>
      <trkpt lat="47.34871" lon="5.12939">
        <ele>228.935362</ele>
        <time>2020-10-11T06:56:17.993Z</time>
      </trkpt>
      <trkpt lat="47.3487" lon="5.12951">
        <ele>229.098439</ele>
        <time>2020-10-11T06:56:20.264Z</time>
      </trkpt>
      <trkpt lat="47.3487" lon="5.12962">
        <ele>229.255285</ele>
        <time>2020-10-11T06:56:22.422Z</time>
      </trkpt>
      <trkpt lat="47.34871" lon="5.12969">
        <ele>229.363285</ele>
        <time>2020-10-11T06:56:25.122Z</time>
      </trkpt>
      <trkpt lat="47.34874" lon="5.12997">
        <ele>229.751764</ele>
        <time>2020-10-11T06:56:30.220Z</time>
      </trkpt>
      <trkpt lat="47.34899" lon="5.1315">
        <ele>231.151596</ele>
        <time>2020-10-11T06:57:03.553Z</time>
      </trkpt>
      <trkpt lat="47.34924" lon="5.13302">
        <ele>232.151392</ele>
        <time>2020-10-11T06:57:30.141Z</time>
      </trkpt>
      <trkpt lat="47.34926" lon="5.13357">
        <ele>231.474537</ele>
        <time>2020-10-11T06:57:36.696Z</time>
      </trkpt>
      <trkpt lat="47.34922" lon="5.13409">
        <ele>230.834134</ele>
        <time>2020-10-11T06:57:42.320Z</time>
      </trkpt>
      <trkpt lat="47.34918" lon="5.13427">
        <ele>230.604781</ele>
        <time>2020-10-11T06:57:44.324Z</time>
      </trkpt>
      <trkpt lat="47.34916" lon="5.13436">
        <ele>230.494726</ele>
        <time>2020-10-11T06:57:45.152Z</time>
      </trkpt>
      <trkpt lat="47.349" lon="5.13483">
        <ele>229.852213</ele>
        <time>2020-10-11T06:57:50.513Z</time>
      </trkpt>
      <trkpt lat="47.34877" lon="5.13525">
        <ele>229.190355</ele>
        <time>2020-10-11T06:57:55.870Z</time>
      </trkpt>
      <trkpt lat="47.34839" lon="5.13567">
        <ele>227.985385</ele>
        <time>2020-10-11T06:58:02.775Z</time>
      </trkpt>
      <trkpt lat="47.34738" lon="5.13632">
        <ele>224.908196</ele>
        <time>2020-10-11T06:58:18.613Z</time>
      </trkpt>
      <trkpt lat="47.34714" lon="5.13665">
        <ele>224.002435</ele>
        <time>2020-10-11T06:58:23.377Z</time>
      </trkpt>
      <trkpt lat="47.34698" lon="5.13721">
        <ele>223.310181</ele>
        <time>2020-10-11T06:58:29.482Z</time>
      </trkpt>
      <trkpt lat="47.34676" lon="5.13868">
        <ele>221.658307</ele>
        <time>2020-10-11T06:58:45.941Z</time>
      </trkpt>
      <trkpt lat="47.34674" lon="5.13868">
        <ele>221.617823</ele>
        <time>2020-10-11T06:58:46.356Z</time>
      </trkpt>
      <trkpt lat="47.34661" lon="5.13877">
        <ele>221.381323</ele>
        <time>2020-10-11T06:58:48.878Z</time>
      </trkpt>
      <trkpt lat="47.34659" lon="5.13881">
        <ele>221.333247</ele>
        <time>2020-10-11T06:58:49.368Z</time>
      </trkpt>
      <trkpt lat="47.34657" lon="5.13887">
        <ele>221.264636</ele>
        <time>2020-10-11T06:58:50.116Z</time>
      </trkpt>
      <trkpt lat="47.34657" lon="5.13893">
        <ele>221.196853</ele>
        <time>2020-10-11T06:58:50.867Z</time>
      </trkpt>
      <trkpt lat="47.34657" lon="5.13899">
        <ele>221.128752</ele>
        <time>2020-10-11T06:58:51.589Z</time>
      </trkpt>
      <trkpt lat="47.34658" lon="5.13904">
        <ele>221.071635</ele>
        <time>2020-10-11T06:58:52.210Z</time>
      </trkpt>
      <trkpt lat="47.3466" lon="5.13909">
        <ele>221.013263</ele>
        <time>2020-10-11T06:58:52.829Z</time>
      </trkpt>
      <trkpt lat="47.34662" lon="5.13913">
        <ele>220.987797</ele>
        <time>2020-10-11T06:58:53.483Z</time>
      </trkpt>
      <trkpt lat="47.34664" lon="5.13916">
        <ele>220.964131</ele>
        <time>2020-10-11T06:58:54.100Z</time>
      </trkpt>
      <trkpt lat="47.34674" lon="5.1392">
        <ele>220.892524</ele>
        <time>2020-10-11T06:58:55.866Z</time>
      </trkpt>
      <trkpt lat="47.34678" lon="5.1392">
        <ele>220.868681</ele>
        <time>2020-10-11T06:58:56.507Z</time>
      </trkpt>
      <trkpt lat="47.3468" lon="5.13919">
        <ele>220.848299</ele>
        <time>2020-10-11T06:58:57.051Z</time>
      </trkpt>
      <trkpt lat="47.34689" lon="5.13908">
        <ele>220.767808</ele>
        <time>2020-10-11T06:58:59.087Z</time>
      </trkpt>
      <trkpt lat="47.34691" lon="5.13904">
        <ele>220.74732</ele>
        <time>2020-10-11T06:58:59.661Z</time>
      </trkpt>
      <trkpt lat="47.34699" lon="5.13909">
        <ele>220.688322</ele>
        <time>2020-10-11T06:59:01.193Z</time>
      </trkpt>
      <trkpt lat="47.34709" lon="5.13932">
        <ele>220.558883</ele>
        <time>2020-10-11T06:59:04.429Z</time>
      </trkpt>
      <trkpt lat="47.34706" lon="5.13963">
        <ele>220.414779</ele>
        <time>2020-10-11T06:59:08.160Z</time>
      </trkpt>
      <trkpt lat="47.34648" lon="5.14093">
        <ele>219.696569</ele>
        <time>2020-10-11T06:59:27.597Z</time>
      </trkpt>
      <trkpt lat="47.34641" lon="5.14113">
        <ele>219.61105</ele>
        <time>2020-10-11T06:59:30.462Z</time>
      </trkpt>
      <trkpt lat="47.34635" lon="5.14135">
        <ele>219.529491</ele>
        <time>2020-10-11T06:59:33.264Z</time>
      </trkpt>
      <trkpt lat="47.34622" lon="5.1421">
        <ele>219.248106</ele>
        <time>2020-10-11T06:59:42.854Z</time>
      </trkpt>
      <trkpt lat="47.34589" lon="5.14515">
        <ele>218.279272</ele>
        <time>2020-10-11T07:00:22.078Z</time>
      </trkpt>
      <trkpt lat="47.34477" lon="5.15176">
        <ele>216.948192</ele>
        <time>2020-10-11T07:01:51.914Z</time>
      </trkpt>
      <trkpt lat="47.34467" lon="5.15233">
        <ele>216.875232</ele>
        <time>2020-10-11T07:01:59.752Z</time>
      </trkpt>
      <trkpt lat="47.34462" lon="5.15262">
        <ele>216.839406</ele>
        <time>2020-10-11T07:02:03.642Z</time>
      </trkpt>
      <trkpt lat="47.34461" lon="5.15293">
        <ele>216.801097</ele>
        <time>2020-10-11T07:02:07.773Z</time>
      </trkpt>
      <trkpt lat="47.34462" lon="5.15326">
        <ele>216.759445</ele>
        <time>2020-10-11T07:02:12.455Z</time>
      </trkpt>
      <trkpt lat="47.34465" lon="5.15347">
        <ele>216.73351</ele>
        <time>2020-10-11T07:02:15.243Z</time>
      </trkpt>
      <trkpt lat="47.34475" lon="5.15384">
        <ele>216.693238</ele>
        <time>2020-10-11T07:02:20.897Z</time>
      </trkpt>
      <trkpt lat="47.3449" lon="5.15418">
        <ele>216.66346</ele>
        <time>2020-10-11T07:02:26.476Z</time>
      </trkpt>
      <trkpt lat="47.34546" lon="5.15494">
        <ele>216.581052</ele>
        <time>2020-10-11T07:02:41.776Z</time>
      </trkpt>
      <trkpt lat="47.34551" lon="5.15523">
        <ele>216.559024</ele>
        <time>2020-10-11T07:02:45.855Z</time>
      </trkpt>
      <trkpt lat="47.34548" lon="5.15543">
        <ele>216.544521</ele>
        <time>2020-10-11T07:02:48.464Z</time>
      </trkpt>
      <trkpt lat="47.34545" lon="5.15552">
        <ele>216.537077</ele>
        <time>2020-10-11T07:02:49.969Z</time>
      </trkpt>
      <trkpt lat="47.34536" lon="5.15559">
        <ele>216.525925</ele>
        <time>2020-10-11T07:02:52.040Z</time>
      </trkpt>
      <trkpt lat="47.34515" lon="5.15569">
        <ele>216.494157</ele>
        <time>2020-10-11T07:02:56.514Z</time>
      </trkpt>
      <trkpt lat="47.34511" lon="5.1557">
        <ele>216.485298</ele>
        <time>2020-10-11T07:02:57.406Z</time>
      </trkpt>
      <trkpt lat="47.34507" lon="5.15565">
        <ele>216.474544</ele>
        <time>2020-10-11T07:02:58.464Z</time>
      </trkpt>
      <trkpt lat="47.34493" lon="5.15556">
        <ele>216.442788</ele>
        <time>2020-10-11T07:03:01.546Z</time>
      </trkpt>
      <trkpt lat="47.34488" lon="5.15555">
        <ele>216.432004</ele>
        <time>2020-10-11T07:03:02.556Z</time>
      </trkpt>
      <trkpt lat="47.34484" lon="5.15555">
        <ele>216.423395</ele>
        <time>2020-10-11T07:03:03.397Z</time>
      </trkpt>
      <trkpt lat="47.34468" lon="5.15562">
        <ele>216.389078</ele>
        <time>2020-10-11T07:03:06.889Z</time>
      </trkpt>
      <trkpt lat="47.34465" lon="5.15566">
        <ele>216.380374</ele>
        <time>2020-10-11T07:03:07.670Z</time>
      </trkpt>
      <trkpt lat="47.34462" lon="5.1557">
        <ele>216.371913</ele>
        <time>2020-10-11T07:03:08.439Z</time>
      </trkpt>
      <trkpt lat="47.34457" lon="5.15579">
        <ele>216.355003</ele>
        <time>2020-10-11T07:03:10.022Z</time>
      </trkpt>
      <trkpt lat="47.34455" lon="5.15584">
        <ele>216.346598</ele>
        <time>2020-10-11T07:03:10.839Z</time>
      </trkpt>
      <trkpt lat="47.34453" lon="5.1559">
        <ele>216.337739</ele>
        <time>2020-10-11T07:03:11.755Z</time>
      </trkpt>
      <trkpt lat="47.34451" lon="5.15608">
        <ele>216.311368</ele>
        <time>2020-10-11T07:03:14.292Z</time>
      </trkpt>
      <trkpt lat="47.34452" lon="5.15614">
        <ele>216.302508</ele>
        <time>2020-10-11T07:03:15.077Z</time>
      </trkpt>
      <trkpt lat="47.34452" lon="5.15621">
        <ele>216.29293</ele>
        <time>2020-10-11T07:03:15.943Z</time>
      </trkpt>
      <trkpt lat="47.34459" lon="5.15639">
        <ele>216.264298</ele>
        <time>2020-10-11T07:03:18.657Z</time>
      </trkpt>
      <trkpt lat="47.34462" lon="5.15644">
        <ele>216.25469</ele>
        <time>2020-10-11T07:03:19.524Z</time>
      </trkpt>
      <trkpt lat="47.34466" lon="5.1565">
        <ele>216.242171</ele>
        <time>2020-10-11T07:03:20.766Z</time>
      </trkpt>
      <trkpt lat="47.34477" lon="5.15657">
        <ele>216.21705</ele>
        <time>2020-10-11T07:03:22.972Z</time>
      </trkpt>
      <trkpt lat="47.34483" lon="5.15659">
        <ele>216.204661</ele>
        <time>2020-10-11T07:03:24.095Z</time>
      </trkpt>
      <trkpt lat="47.34488" lon="5.15659">
        <ele>216.19332</ele>
        <time>2020-10-11T07:03:25.141Z</time>
      </trkpt>
      <trkpt lat="47.34494" lon="5.15658">
        <ele>216.181894</ele>
        <time>2020-10-11T07:03:26.115Z</time>
      </trkpt>
      <trkpt lat="47.34499" lon="5.15656">
        <ele>216.170334</ele>
        <time>2020-10-11T07:03:27.230Z</time>
      </trkpt>
      <trkpt lat="47.34506" lon="5.15658">
        <ele>216.155158</ele>
        <time>2020-10-11T07:03:28.608Z</time>
      </trkpt>
      <trkpt lat="47.34519" lon="5.15667">
        <ele>216.116633</ele>
        <time>2020-10-11T07:03:31.302Z</time>
      </trkpt>
      <trkpt lat="47.34528" lon="5.15685">
        <ele>216.056368</ele>
        <time>2020-10-11T07:03:34.363Z</time>
      </trkpt>
      <trkpt lat="47.34604" lon="5.15877">
        <ele>215.467609</ele>
        <time>2020-10-11T07:04:02.604Z</time>
      </trkpt>
      <trkpt lat="47.34624" lon="5.15943">
        <ele>215.485898</ele>
        <time>2020-10-11T07:04:12.347Z</time>
      </trkpt>
      <trkpt lat="47.34631" lon="5.15956">
        <ele>215.501704</ele>
        <time>2020-10-11T07:04:14.262Z</time>
      </trkpt>
      <trkpt lat="47.34676" lon="5.16107">
        <ele>215.667911</ele>
        <time>2020-10-11T07:04:38.949Z</time>
      </trkpt>
      <trkpt lat="47.34681" lon="5.16123">
        <ele>215.685875</ele>
        <time>2020-10-11T07:04:42.003Z</time>
      </trkpt>
      <trkpt lat="47.34722" lon="5.16259">
        <ele>216.19882</ele>
        <time>2020-10-11T07:05:06.858Z</time>
      </trkpt>
      <trkpt lat="47.34739" lon="5.16314">
        <ele>216.414839</ele>
        <time>2020-10-11T07:05:16.653Z</time>
      </trkpt>
      <trkpt lat="47.34743" lon="5.16325">
        <ele>216.459214</ele>
        <time>2020-10-11T07:05:18.676Z</time>
      </trkpt>
      <trkpt lat="47.34748" lon="5.16339">
        <ele>216.515905</ele>
        <time>2020-10-11T07:05:21.200Z</time>
      </trkpt>
      <trkpt lat="47.3476" lon="5.16375">
        <ele>216.650009</ele>
        <time>2020-10-11T07:05:27.575Z</time>
      </trkpt>
      <trkpt lat="47.34765" lon="5.16389">
        <ele>216.663545</ele>
        <time>2020-10-11T07:05:30.069Z</time>
      </trkpt>
      <trkpt lat="47.34769" lon="5.164">
        <ele>216.673368</ele>
        <time>2020-10-11T07:05:31.838Z</time>
      </trkpt>
      <trkpt lat="47.34848" lon="5.16627">
        <ele>216.841482</ele>
        <time>2020-10-11T07:06:08.336Z</time>
      </trkpt>
      <trkpt lat="47.34862" lon="5.16674">
        <ele>216.772781</ele>
        <time>2020-10-11T07:06:15.544Z</time>
      </trkpt>
      <trkpt lat="47.34887" lon="5.16767">
        <ele>216.642783</ele>
        <time>2020-10-11T07:06:28.985Z</time>
      </trkpt>
      <trkpt lat="47.34886" lon="5.16787">
        <ele>216.61642</ele>
        <time>2020-10-11T07:06:31.627Z</time>
      </trkpt>
      <trkpt lat="47.34884" lon="5.16799">
        <ele>216.60007</ele>
        <time>2020-10-11T07:06:33.263Z</time>
      </trkpt>
      <trkpt lat="47.34888" lon="5.16815">
        <ele>216.577407</ele>
        <time>2020-10-11T07:06:35.458Z</time>
      </trkpt>
      <trkpt lat="47.34896" lon="5.16825">
        <ele>216.557606</ele>
        <time>2020-10-11T07:06:37.400Z</time>
      </trkpt>
      <trkpt lat="47.34904" lon="5.16841">
        <ele>216.531225</ele>
        <time>2020-10-11T07:06:40.059Z</time>
      </trkpt>
      <trkpt lat="47.3491" lon="5.16878">
        <ele>216.471215</ele>
        <time>2020-10-11T07:06:45.001Z</time>
      </trkpt>
      <trkpt lat="47.34917" lon="5.16936">
        <ele>216.375787</ele>
        <time>2020-10-11T07:06:52.698Z</time>
      </trkpt>
      <trkpt lat="47.34918" lon="5.17027">
        <ele>216.227713</ele>
        <time>2020-10-11T07:07:04.642Z</time>
      </trkpt>
      <trkpt lat="47.3492" lon="5.17175">
        <ele>216.044546</ele>
        <time>2020-10-11T07:07:24.694Z</time>
      </trkpt>
      <trkpt lat="47.34919" lon="5.17293">
        <ele>215.962803</ele>
        <time>2020-10-11T07:07:40.911Z</time>
      </trkpt>
      <trkpt lat="47.34918" lon="5.17324">
        <ele>215.940862</ele>
        <time>2020-10-11T07:07:45.318Z</time>
      </trkpt>
      <trkpt lat="47.34914" lon="5.17365">
        <ele>215.912106</ele>
        <time>2020-10-11T07:07:51.024Z</time>
      </trkpt>
      <trkpt lat="47.34882" lon="5.17588">
        <ele>216.138107</ele>
        <time>2020-10-11T07:08:23.506Z</time>
      </trkpt>
      <trkpt lat="47.34864" lon="5.17717">
        <ele>216.567388</ele>
        <time>2020-10-11T07:08:45.301Z</time>
      </trkpt>
      <trkpt lat="47.34842" lon="5.17869">
        <ele>217.281684</ele>
        <time>2020-10-11T07:09:12.274Z</time>
      </trkpt>
      <trkpt lat="47.34837" lon="5.17908">
        <ele>217.426602</ele>
        <time>2020-10-11T07:09:18.635Z</time>
      </trkpt>
      <trkpt lat="47.34833" lon="5.17939">
        <ele>217.46891</ele>
        <time>2020-10-11T07:09:23.563Z</time>
      </trkpt>
      <trkpt lat="47.34813" lon="5.18061">
        <ele>217.636503</ele>
        <time>2020-10-11T07:09:42.047Z</time>
      </trkpt>
      <trkpt lat="47.3481" lon="5.18088">
        <ele>217.673044</ele>
        <time>2020-10-11T07:09:46.030Z</time>
      </trkpt>
      <trkpt lat="47.34809" lon="5.181">
        <ele>217.688813</ele>
        <time>2020-10-11T07:09:47.761Z</time>
      </trkpt>
      <trkpt lat="47.34806" lon="5.18119">
        <ele>217.71541</ele>
        <time>2020-10-11T07:09:50.574Z</time>
      </trkpt>
      <trkpt lat="47.34806" lon="5.18123">
        <ele>217.72075</ele>
        <time>2020-10-11T07:09:51.159Z</time>
      </trkpt>
      <trkpt lat="47.34802" lon="5.18148">
        <ele>217.755023</ele>
        <time>2020-10-11T07:09:54.763Z</time>
      </trkpt>
      <trkpt lat="47.34789" lon="5.18246">
        <ele>217.904308</ele>
        <time>2020-10-11T07:10:08.285Z</time>
      </trkpt>
      <trkpt lat="47.34788" lon="5.18254">
        <ele>217.916686</ele>
        <time>2020-10-11T07:10:09.460Z</time>
      </trkpt>
      <trkpt lat="47.34774" lon="5.18365">
        <ele>218.088708</ele>
        <time>2020-10-11T07:10:26.355Z</time>
      </trkpt>
      <trkpt lat="47.3477" lon="5.18394">
        <ele>218.133351</ele>
        <time>2020-10-11T07:10:31.087Z</time>
      </trkpt>
      <trkpt lat="47.34763" lon="5.18449">
        <ele>218.274861</ele>
        <time>2020-10-11T07:10:40.557Z</time>
      </trkpt>
      <trkpt lat="47.34753" lon="5.18514">
        <ele>218.487236</ele>
        <time>2020-10-11T07:10:51.708Z</time>
      </trkpt>
      <trkpt lat="47.34752" lon="5.18518">
        <ele>218.502019</ele>
        <time>2020-10-11T07:10:52.468Z</time>
      </trkpt>
      <trkpt lat="47.34749" lon="5.18544">
        <ele>218.58523</ele>
        <time>2020-10-11T07:10:56.588Z</time>
      </trkpt>
      <trkpt lat="47.34745" lon="5.18569">
        <ele>218.666871</ele>
        <time>2020-10-11T07:11:00.841Z</time>
      </trkpt>
      <trkpt lat="47.34699" lon="5.1891">
        <ele>219.412525</ele>
        <time>2020-10-11T07:11:53.706Z</time>
      </trkpt>
      <trkpt lat="47.34695" lon="5.18961">
        <ele>219.446293</ele>
        <time>2020-10-11T07:12:01.274Z</time>
      </trkpt>
      <trkpt lat="47.34695" lon="5.19046">
        <ele>219.407131</ele>
        <time>2020-10-11T07:12:12.910Z</time>
      </trkpt>
      <trkpt lat="47.34695" lon="5.19061">
        <ele>219.400299</ele>
        <time>2020-10-11T07:12:15.121Z</time>
      </trkpt>
      <trkpt lat="47.34691" lon="5.19157">
        <ele>219.355996</ele>
        <time>2020-10-11T07:12:27.344Z</time>
      </trkpt>
      <trkpt lat="47.3469" lon="5.19194">
        <ele>219.338738</ele>
        <time>2020-10-11T07:12:32.296Z</time>
      </trkpt>
      <trkpt lat="47.34692" lon="5.1928">
        <ele>219.898005</ele>
        <time>2020-10-11T07:12:45.827Z</time>
      </trkpt>
      <trkpt lat="47.34693" lon="5.19293">
        <ele>219.992723</ele>
        <time>2020-10-11T07:12:48.159Z</time>
      </trkpt>
      <trkpt lat="47.34696" lon="5.19369">
        <ele>220.537799</ele>
        <time>2020-10-11T07:13:01.774Z</time>
      </trkpt>
      <trkpt lat="47.34698" lon="5.19402">
        <ele>220.782351</ele>
        <time>2020-10-11T07:13:08.188Z</time>
      </trkpt>
      <trkpt lat="47.34701" lon="5.19435">
        <ele>221.019437</ele>
        <time>2020-10-11T07:13:14.588Z</time>
      </trkpt>
      <trkpt lat="47.34702" lon="5.19443">
        <ele>221.07573</ele>
        <time>2020-10-11T07:13:16.462Z</time>
      </trkpt>
      <trkpt lat="47.3471" lon="5.19487">
        <ele>221.60478</ele>
        <time>2020-10-11T07:13:26.158Z</time>
      </trkpt>
      <trkpt lat="47.34722" lon="5.19534">
        <ele>222.456769</ele>
        <time>2020-10-11T07:13:38.213Z</time>
      </trkpt>
      <trkpt lat="47.34732" lon="5.19578">
        <ele>223.234201</ele>
        <time>2020-10-11T07:13:49.971Z</time>
      </trkpt>
      <trkpt lat="47.34737" lon="5.19626">
        <ele>224.048554</ele>
        <time>2020-10-11T07:14:02.850Z</time>
      </trkpt>
      <trkpt lat="47.34738" lon="5.19771">
        <ele>226.01638</ele>
        <time>2020-10-11T07:14:36.740Z</time>
      </trkpt>
      <trkpt lat="47.34732" lon="5.19867">
        <ele>226.655491</ele>
        <time>2020-10-11T07:14:54.567Z</time>
      </trkpt>
      <trkpt lat="47.34728" lon="5.19943">
        <ele>227.156657</ele>
        <time>2020-10-11T07:15:06.648Z</time>
      </trkpt>
      <trkpt lat="47.34721" lon="5.20078">
        <ele>227.211536</ele>
        <time>2020-10-11T07:15:24.512Z</time>
      </trkpt>
      <trkpt lat="47.34693" lon="5.20409">
        <ele>225.777438</ele>
        <time>2020-10-11T07:16:06.123Z</time>
      </trkpt>
      <trkpt lat="47.34684" lon="5.20478">
        <ele>225.353385</ele>
        <time>2020-10-11T07:16:14.266Z</time>
      </trkpt>
      <trkpt lat="47.34674" lon="5.20537">
        <ele>224.861873</ele>
        <time>2020-10-11T07:16:20.986Z</time>
      </trkpt>
      <trkpt lat="47.3456" lon="5.21104">
        <ele>218.906581</ele>
        <time>2020-10-11T07:17:23.987Z</time>
      </trkpt>
      <trkpt lat="47.34525" lon="5.21282">
        <ele>218.796572</ele>
        <time>2020-10-11T07:17:53.933Z</time>
      </trkpt>
      <trkpt lat="47.34518" lon="5.21321">
        <ele>219.134595</ele>
        <time>2020-10-11T07:18:01.665Z</time>
      </trkpt>
      <trkpt lat="47.34441" lon="5.21703">
        <ele>222.649681</ele>
        <time>2020-10-11T07:19:18.341Z</time>
      </trkpt>
      <trkpt lat="47.34437" lon="5.21725">
        <ele>222.861541</ele>
        <time>2020-10-11T07:19:22.807Z</time>
      </trkpt>
      <trkpt lat="47.34306" lon="5.22381">
        <ele>229.688118</ele>
        <time>2020-10-11T07:21:37.798Z</time>
      </trkpt>
      <trkpt lat="47.34295" lon="5.22437">
        <ele>230.268874</ele>
        <time>2020-10-11T07:21:49.749Z</time>
      </trkpt>
      <trkpt lat="47.34276" lon="5.22533">
        <ele>231.251656</ele>
        <time>2020-10-11T07:22:09.409Z</time>
      </trkpt>
      <trkpt lat="47.34244" lon="5.22692">
        <ele>232.049065</ele>
        <time>2020-10-11T07:22:39.222Z</time>
      </trkpt>
      <trkpt lat="47.34173" lon="5.22871">
        <ele>232.261336</ele>
        <time>2020-10-11T07:23:09.079Z</time>
      </trkpt>
      <trkpt lat="47.3412" lon="5.23006">
        <ele>231.761203</ele>
        <time>2020-10-11T07:23:28.424Z</time>
      </trkpt>
      <trkpt lat="47.33919" lon="5.23515">
        <ele>226.836061</ele>
        <time>2020-10-11T07:24:34.334Z</time>
      </trkpt>
      <trkpt lat="47.3357" lon="5.24382">
        <ele>218.721909</ele>
        <time>2020-10-11T07:26:28.556Z</time>
      </trkpt>
      <trkpt lat="47.33561" lon="5.24403">
        <ele>218.573664</ele>
        <time>2020-10-11T07:26:31.261Z</time>
      </trkpt>
      <trkpt lat="47.33315" lon="5.25195">
        <ele>217.929938</ele>
        <time>2020-10-11T07:28:25.687Z</time>
      </trkpt>
      <trkpt lat="47.33313" lon="5.25202">
        <ele>218.020308</ele>
        <time>2020-10-11T07:28:27.191Z</time>
      </trkpt>
      <trkpt lat="47.33184" lon="5.2563">
        <ele>224.911921</ele>
        <time>2020-10-11T07:30:27.209Z</time>
      </trkpt>
      <trkpt lat="47.33082" lon="5.25959">
        <ele>221.621785</ele>
        <time>2020-10-11T07:31:06.070Z</time>
      </trkpt>
      <trkpt lat="47.33044" lon="5.26083">
        <ele>219.443887</ele>
        <time>2020-10-11T07:31:19.328Z</time>
      </trkpt>
      <trkpt lat="47.32955" lon="5.26369">
        <ele>214.850647</ele>
        <time>2020-10-11T07:31:51.084Z</time>
      </trkpt>
      <trkpt lat="47.32921" lon="5.26481">
        <ele>214.353198</ele>
        <time>2020-10-11T07:32:06.359Z</time>
      </trkpt>
      <trkpt lat="47.32903" lon="5.26535">
        <ele>214.109868</ele>
        <time>2020-10-11T07:32:15.128Z</time>
      </trkpt>
      <trkpt lat="47.32885" lon="5.26594">
        <ele>214.050082</ele>
        <time>2020-10-11T07:32:25.326Z</time>
      </trkpt>
      <trkpt lat="47.32882" lon="5.26633">
        <ele>214.188551</ele>
        <time>2020-10-11T07:32:32.261Z</time>
      </trkpt>
      <trkpt lat="47.32883" lon="5.26652">
        <ele>214.254752</ele>
        <time>2020-10-11T07:32:35.538Z</time>
      </trkpt>
      <trkpt lat="47.32934" lon="5.26786">
        <ele>214.797635</ele>
        <time>2020-10-11T07:33:02.136Z</time>
      </trkpt>
      <trkpt lat="47.32938" lon="5.268">
        <ele>214.852195</ele>
        <time>2020-10-11T07:33:04.051Z</time>
      </trkpt>
      <trkpt lat="47.32938" lon="5.26835">
        <ele>214.731579</ele>
        <time>2020-10-11T07:33:09.075Z</time>
      </trkpt>
      <trkpt lat="47.32935" lon="5.26874">
        <ele>214.4593</ele>
        <time>2020-10-11T07:33:13.795Z</time>
      </trkpt>
      <trkpt lat="47.32919" lon="5.26997">
        <ele>213.596534</ele>
        <time>2020-10-11T07:33:28.345Z</time>
      </trkpt>
      <trkpt lat="47.32916" lon="5.27013">
        <ele>213.483616</ele>
        <time>2020-10-11T07:33:29.997Z</time>
      </trkpt>
      <trkpt lat="47.32896" lon="5.27176">
        <ele>212.061401</ele>
        <time>2020-10-11T07:33:47.710Z</time>
      </trkpt>
      <trkpt lat="47.3286" lon="5.2739">
        <ele>210.186184</ele>
        <time>2020-10-11T07:34:12.756Z</time>
      </trkpt>
      <trkpt lat="47.32859" lon="5.27399">
        <ele>210.130633</ele>
        <time>2020-10-11T07:34:13.906Z</time>
      </trkpt>
      <trkpt lat="47.32821" lon="5.27602">
        <ele>208.869404</ele>
        <time>2020-10-11T07:34:39.587Z</time>
      </trkpt>
      <trkpt lat="47.3281" lon="5.27681">
        <ele>208.178624</ele>
        <time>2020-10-11T07:34:48.902Z</time>
      </trkpt>
      <trkpt lat="47.32775" lon="5.27933">
        <ele>206.630122</ele>
        <time>2020-10-11T07:35:17.038Z</time>
      </trkpt>
      <trkpt lat="47.32635" lon="5.28916">
        <ele>205.860579</ele>
        <time>2020-10-11T07:37:39.982Z</time>
      </trkpt>
      <trkpt lat="47.32574" lon="5.29345">
        <ele>204.707065</ele>
        <time>2020-10-11T07:38:35.978Z</time>
      </trkpt>
      <trkpt lat="47.32441" lon="5.30276">
        <ele>201.490843</ele>
        <time>2020-10-11T07:40:37.761Z</time>
      </trkpt>
      <trkpt lat="47.32413" lon="5.30474">
        <ele>199.660936</ele>
        <time>2020-10-11T07:40:59.947Z</time>
      </trkpt>
      <trkpt lat="47.32366" lon="5.30801">
        <ele>194.923593</ele>
        <time>2020-10-11T07:41:33.982Z</time>
      </trkpt>
      <trkpt lat="47.32322" lon="5.31111">
        <ele>192.194328</ele>
        <time>2020-10-11T07:42:08.316Z</time>
      </trkpt>
      <trkpt lat="47.32293" lon="5.31306">
        <ele>192.685608</ele>
        <time>2020-10-11T07:42:40.948Z</time>
      </trkpt>
      <trkpt lat="47.32261" lon="5.31545">
        <ele>195.710984</ele>
        <time>2020-10-11T07:43:36.003Z</time>
      </trkpt>
      <trkpt lat="47.32243" lon="5.31666">
        <ele>197.598917</ele>
        <time>2020-10-11T07:44:05.120Z</time>
      </trkpt>
      <trkpt lat="47.32241" lon="5.3168">
        <ele>197.812924</ele>
        <time>2020-10-11T07:44:08.371Z</time>
      </trkpt>
      <trkpt lat="47.3223" lon="5.3175">
        <ele>198.875094</ele>
        <time>2020-10-11T07:44:24.711Z</time>
      </trkpt>
      <trkpt lat="47.32228" lon="5.3176">
        <ele>198.985367</ele>
        <time>2020-10-11T07:44:27.011Z</time>
      </trkpt>
      <trkpt lat="47.32212" lon="5.3188">
        <ele>200.225257</ele>
        <time>2020-10-11T07:44:50.985Z</time>
      </trkpt>
      <trkpt lat="47.32202" lon="5.31936">
        <ele>200.815876</ele>
        <time>2020-10-11T07:45:01.697Z</time>
      </trkpt>
      <trkpt lat="47.32194" lon="5.31983">
        <ele>201.299468</ele>
        <time>2020-10-11T07:45:10.467Z</time>
      </trkpt>
      <trkpt lat="47.32193" lon="5.31986">
        <ele>201.337499</ele>
        <time>2020-10-11T07:45:11.018Z</time>
      </trkpt>
      <trkpt lat="47.32189" lon="5.32011">
        <ele>201.620058</ele>
        <time>2020-10-11T07:45:15.489Z</time>
      </trkpt>
      <trkpt lat="47.32125" lon="5.32362">
        <ele>206.816798</ele>
        <time>2020-10-11T07:46:33.052Z</time>
      </trkpt>
      <trkpt lat="47.3209" lon="5.32558">
        <ele>210.519083</ele>
        <time>2020-10-11T07:47:29.659Z</time>
      </trkpt>
      <trkpt lat="47.32085" lon="5.32581">
        <ele>210.860824</ele>
        <time>2020-10-11T07:47:36.328Z</time>
      </trkpt>
      <trkpt lat="47.32055" lon="5.32733">
        <ele>213.077919</ele>
        <time>2020-10-11T07:48:11.548Z</time>
      </trkpt>
      <trkpt lat="47.32019" lon="5.32885">
        <ele>212.953656</ele>
        <time>2020-10-11T07:48:32.584Z</time>
      </trkpt>
      <trkpt lat="47.31913" lon="5.33271">
        <ele>209.513669</ele>
        <time>2020-10-11T07:49:18.453Z</time>
      </trkpt>
      <trkpt lat="47.31686" lon="5.34094">
        <ele>201.504888</ele>
        <time>2020-10-11T07:50:57.014Z</time>
      </trkpt>
      <trkpt lat="47.31486" lon="5.34815">
        <ele>197.683916</ele>
        <time>2020-10-11T07:52:32.013Z</time>
      </trkpt>
      <trkpt lat="47.31273" lon="5.35585">
        <ele>195.590219</ele>
        <time>2020-10-11T07:54:20.666Z</time>
      </trkpt>
      <trkpt lat="47.31088" lon="5.36252">
        <ele>193.446758</ele>
        <time>2020-10-11T07:55:51.744Z</time>
      </trkpt>
      <trkpt lat="47.31176" lon="5.36315">
        <ele>193.313959</ele>
        <time>2020-10-11T07:56:11.484Z</time>
      </trkpt>
      <trkpt lat="47.31285" lon="5.36397">
        <ele>192.765601</ele>
        <time>2020-10-11T07:56:37.125Z</time>
      </trkpt>
      <trkpt lat="47.3132" lon="5.3642">
        <ele>192.504735</ele>
        <time>2020-10-11T07:56:44.329Z</time>
      </trkpt>
      <trkpt lat="47.31353" lon="5.36485">
        <ele>192.130102</ele>
        <time>2020-10-11T07:56:53.562Z</time>
      </trkpt>
      <trkpt lat="47.31418" lon="5.36523">
        <ele>190.776536</ele>
        <time>2020-10-11T07:57:04.551Z</time>
      </trkpt>
      <trkpt lat="47.31475" lon="5.36526">
        <ele>189.490652</ele>
        <time>2020-10-11T07:57:12.808Z</time>
      </trkpt>
      <trkpt lat="47.31502" lon="5.36528">
        <ele>188.870564</ele>
        <time>2020-10-11T07:57:16.769Z</time>
      </trkpt>
      <trkpt lat="47.31512" lon="5.3653">
        <ele>188.622061</ele>
        <time>2020-10-11T07:57:18.345Z</time>
      </trkpt>
      <trkpt lat="47.31521" lon="5.36536">
        <ele>188.414768</ele>
        <time>2020-10-11T07:57:19.698Z</time>
      </trkpt>
      <trkpt lat="47.31539" lon="5.36616">
        <ele>187.326238</ele>
        <time>2020-10-11T07:57:28.004Z</time>
      </trkpt>
      <trkpt lat="47.31566" lon="5.36756">
        <ele>185.661903</ele>
        <time>2020-10-11T07:57:43.539Z</time>
      </trkpt>
      <trkpt lat="47.31724" lon="5.37042">
        <ele>183.700828</ele>
        <time>2020-10-11T07:58:29.391Z</time>
      </trkpt>
      <trkpt lat="47.31764" lon="5.37113">
        <ele>183.500346</ele>
        <time>2020-10-11T07:58:41.438Z</time>
      </trkpt>
      <trkpt lat="47.31771" lon="5.37127">
        <ele>183.461446</ele>
        <time>2020-10-11T07:58:43.778Z</time>
      </trkpt>
      <trkpt lat="47.3179" lon="5.37164">
        <ele>183.359654</ele>
        <time>2020-10-11T07:58:49.847Z</time>
      </trkpt>
      <trkpt lat="47.31807" lon="5.37201">
        <ele>183.261081</ele>
        <time>2020-10-11T07:58:55.819Z</time>
      </trkpt>
      <trkpt lat="47.31865" lon="5.37398">
        <ele>183.140564</ele>
        <time>2020-10-11T07:59:24.726Z</time>
      </trkpt>
      <trkpt lat="47.31878" lon="5.37418">
        <ele>183.132155</ele>
        <time>2020-10-11T07:59:28.556Z</time>
      </trkpt>
      <trkpt lat="47.31954" lon="5.37482">
        <ele>183.543097</ele>
        <time>2020-10-11T07:59:48.348Z</time>
      </trkpt>
      <trkpt lat="47.31971" lon="5.37506">
        <ele>183.731172</ele>
        <time>2020-10-11T07:59:53.734Z</time>
      </trkpt>
      <trkpt lat="47.31961" lon="5.37527">
        <ele>183.873103</ele>
        <time>2020-10-11T07:59:58.065Z</time>
      </trkpt>
      <trkpt lat="47.31895" lon="5.37858">
        <ele>186.748813</ele>
        <time>2020-10-11T08:01:02.912Z</time>
      </trkpt>
      <trkpt lat="47.31888" lon="5.37893">
        <ele>187.116313</ele>
        <time>2020-10-11T08:01:11.169Z</time>
      </trkpt>
      <trkpt lat="47.31845" lon="5.38105">
        <ele>190.31815</ele>
        <time>2020-10-11T08:02:02.237Z</time>
      </trkpt>
      <trkpt lat="47.31795" lon="5.38312">
        <ele>192.814317</ele>
        <time>2020-10-11T08:02:48.608Z</time>
      </trkpt>
      <trkpt lat="47.31758" lon="5.38463">
        <ele>194.10027</ele>
        <time>2020-10-11T08:03:17.396Z</time>
      </trkpt>
      <trkpt lat="47.31692" lon="5.38748">
        <ele>195.16003</ele>
        <time>2020-10-11T08:04:05.245Z</time>
      </trkpt>
      <trkpt lat="47.31691" lon="5.38791">
        <ele>195.243638</ele>
        <time>2020-10-11T08:04:11.799Z</time>
      </trkpt>
      <trkpt lat="47.31757" lon="5.39385">
        <ele>196.068243</ele>
        <time>2020-10-11T08:05:41.722Z</time>
      </trkpt>
      <trkpt lat="47.31758" lon="5.39424">
        <ele>196.102557</ele>
        <time>2020-10-11T08:05:47.326Z</time>
      </trkpt>
      <trkpt lat="47.31752" lon="5.3946">
        <ele>196.062374</ele>
        <time>2020-10-11T08:05:52.443Z</time>
      </trkpt>
      <trkpt lat="47.31689" lon="5.39654">
        <ele>195.471825</ele>
        <time>2020-10-11T08:06:19.976Z</time>
      </trkpt>
      <trkpt lat="47.31686" lon="5.39675">
        <ele>195.413543</ele>
        <time>2020-10-11T08:06:22.539Z</time>
      </trkpt>
      <trkpt lat="47.31691" lon="5.39705">
        <ele>195.274239</ele>
        <time>2020-10-11T08:06:26.148Z</time>
      </trkpt>
      <trkpt lat="47.31721" lon="5.39798">
        <ele>194.718588</ele>
        <time>2020-10-11T08:06:38.503Z</time>
      </trkpt>
      <trkpt lat="47.31611" lon="5.39873">
        <ele>193.800182</ele>
        <time>2020-10-11T08:06:59.572Z</time>
      </trkpt>
      <trkpt lat="47.31602" lon="5.39879">
        <ele>193.741091</ele>
        <time>2020-10-11T08:07:01.196Z</time>
      </trkpt>
      <trkpt lat="47.31415" lon="5.40007">
        <ele>192.964123</ele>
        <time>2020-10-11T08:07:39.186Z</time>
      </trkpt>
      <trkpt lat="47.31411" lon="5.4001">
        <ele>192.972906</ele>
        <time>2020-10-11T08:07:39.987Z</time>
      </trkpt>
      <trkpt lat="47.31398" lon="5.40022">
        <ele>193.00358</ele>
        <time>2020-10-11T08:07:43.483Z</time>
      </trkpt>
      <trkpt lat="47.31385" lon="5.40038">
        <ele>193.037849</ele>
        <time>2020-10-11T08:07:47.264Z</time>
      </trkpt>
      <trkpt lat="47.31372" lon="5.40055">
        <ele>193.072247</ele>
        <time>2020-10-11T08:07:51.291Z</time>
      </trkpt>
      <trkpt lat="47.31353" lon="5.40084">
        <ele>193.127166</ele>
        <time>2020-10-11T08:07:57.842Z</time>
      </trkpt>
      <trkpt lat="47.31339" lon="5.40112">
        <ele>193.173568</ele>
        <time>2020-10-11T08:08:03.716Z</time>
      </trkpt>
      <trkpt lat="47.31336" lon="5.40118">
        <ele>193.182738</ele>
        <time>2020-10-11T08:08:05.004Z</time>
      </trkpt>
      <trkpt lat="47.31316" lon="5.40186">
        <ele>193.717615</ele>
        <time>2020-10-11T08:08:18.843Z</time>
      </trkpt>
      <trkpt lat="47.31238" lon="5.40515">
        <ele>195.269666</ele>
        <time>2020-10-11T08:09:25.372Z</time>
      </trkpt>
      <trkpt lat="47.3121" lon="5.40635">
        <ele>194.991981</ele>
        <time>2020-10-11T08:09:39.594Z</time>
      </trkpt>
      <trkpt lat="47.3114" lon="5.40927">
        <ele>188.484044</ele>
        <time>2020-10-11T08:10:08.690Z</time>
      </trkpt>
      <trkpt lat="47.31109" lon="5.40945">
        <ele>187.880077</ele>
        <time>2020-10-11T08:10:13.565Z</time>
      </trkpt>
      <trkpt lat="47.31089" lon="5.40961">
        <ele>187.474852</ele>
        <time>2020-10-11T08:10:16.978Z</time>
      </trkpt>
      <trkpt lat="47.31086" lon="5.40963">
        <ele>187.40094</ele>
        <time>2020-10-11T08:10:17.603Z</time>
      </trkpt>
      <trkpt lat="47.31066" lon="5.40982">
        <ele>186.98468</ele>
        <time>2020-10-11T08:10:21.391Z</time>
      </trkpt>
      <trkpt lat="47.31061" lon="5.40984">
        <ele>186.886105</ele>
        <time>2020-10-11T08:10:22.262Z</time>
      </trkpt>
      <trkpt lat="47.31017" lon="5.41001">
        <ele>186.074439</ele>
        <time>2020-10-11T08:10:30.393Z</time>
      </trkpt>
      <trkpt lat="47.31013" lon="5.41">
        <ele>185.996184</ele>
        <time>2020-10-11T08:10:31.342Z</time>
      </trkpt>
      <trkpt lat="47.30938" lon="5.41027">
        <ele>186.244123</ele>
        <time>2020-10-11T08:10:51.051Z</time>
      </trkpt>
      <trkpt lat="47.30852" lon="5.41064">
        <ele>186.711989</ele>
        <time>2020-10-11T08:11:13.468Z</time>
      </trkpt>
      <trkpt lat="47.3082" lon="5.41091">
        <ele>186.78856</ele>
        <time>2020-10-11T08:11:21.427Z</time>
      </trkpt>
      <trkpt lat="47.30806" lon="5.41104">
        <ele>186.762924</ele>
        <time>2020-10-11T08:11:25.567Z</time>
      </trkpt>
      <trkpt lat="47.3075" lon="5.4116">
        <ele>186.658122</ele>
        <time>2020-10-11T08:11:38.667Z</time>
      </trkpt>
      <trkpt lat="47.3074" lon="5.41169">
        <ele>186.638859</ele>
        <time>2020-10-11T08:11:41.287Z</time>
      </trkpt>
      <trkpt lat="47.30729" lon="5.41178">
        <ele>186.619289</ele>
        <time>2020-10-11T08:11:43.338Z</time>
      </trkpt>
      <trkpt lat="47.3072" lon="5.41184">
        <ele>186.603786</ele>
        <time>2020-10-11T08:11:45.508Z</time>
      </trkpt>
      <trkpt lat="47.30712" lon="5.41188">
        <ele>186.591533</ele>
        <time>2020-10-11T08:11:47.285Z</time>
      </trkpt>
      <trkpt lat="47.30668" lon="5.41191">
        <ele>186.528626</ele>
        <time>2020-10-11T08:11:55.442Z</time>
      </trkpt>
      <trkpt lat="47.30554" lon="5.41159">
        <ele>186.437743</ele>
        <time>2020-10-11T08:12:16.671Z</time>
      </trkpt>
      <trkpt lat="47.30523" lon="5.41155">
        <ele>186.413112</ele>
        <time>2020-10-11T08:12:24.352Z</time>
      </trkpt>
      <trkpt lat="47.3051" lon="5.41154">
        <ele>186.40269</ele>
        <time>2020-10-11T08:12:27.612Z</time>
      </trkpt>
      <trkpt lat="47.30497" lon="5.41158">
        <ele>186.406792</ele>
        <time>2020-10-11T08:12:31.252Z</time>
      </trkpt>
      <trkpt lat="47.30491" lon="5.41163">
        <ele>186.461826</ele>
        <time>2020-10-11T08:12:33.023Z</time>
      </trkpt>
      <trkpt lat="47.30489" lon="5.41161">
        <ele>186.479198</ele>
        <time>2020-10-11T08:12:33.633Z</time>
      </trkpt>
      <trkpt lat="47.30487" lon="5.4116">
        <ele>186.496193</ele>
        <time>2020-10-11T08:12:34.254Z</time>
      </trkpt>
      <trkpt lat="47.30485" lon="5.4116">
        <ele>186.513261</ele>
        <time>2020-10-11T08:12:34.850Z</time>
      </trkpt>
      <trkpt lat="47.30482" lon="5.41163">
        <ele>186.547316</ele>
        <time>2020-10-11T08:12:35.963Z</time>
      </trkpt>
      <trkpt lat="47.3048" lon="5.41165">
        <ele>186.564679</ele>
        <time>2020-10-11T08:12:36.523Z</time>
      </trkpt>
      <trkpt lat="47.3048" lon="5.41168">
        <ele>186.581917</ele>
        <time>2020-10-11T08:12:36.897Z</time>
      </trkpt>
      <trkpt lat="47.30482" lon="5.41177">
        <ele>186.632815</ele>
        <time>2020-10-11T08:12:38.666Z</time>
      </trkpt>
      <trkpt lat="47.30488" lon="5.4118">
        <ele>186.6838</ele>
        <time>2020-10-11T08:12:40.531Z</time>
      </trkpt>
      <trkpt lat="47.3049" lon="5.41179">
        <ele>186.701736</ele>
        <time>2020-10-11T08:12:40.975Z</time>
      </trkpt>
      <trkpt lat="47.30494" lon="5.41192">
        <ele>186.783416</ele>
        <time>2020-10-11T08:12:43.712Z</time>
      </trkpt>
      <trkpt lat="47.30496" lon="5.41211">
        <ele>186.889693</ele>
        <time>2020-10-11T08:12:46.966Z</time>
      </trkpt>
      <trkpt lat="47.30496" lon="5.4131">
        <ele>187.432005</ele>
        <time>2020-10-11T08:13:04.609Z</time>
      </trkpt>
      <trkpt lat="47.30497" lon="5.4135">
        <ele>187.657421</ele>
        <time>2020-10-11T08:13:11.119Z</time>
      </trkpt>
      <trkpt lat="47.30497" lon="5.41356">
        <ele>187.689937</ele>
        <time>2020-10-11T08:13:12.115Z</time>
      </trkpt>
      <trkpt lat="47.30484" lon="5.4145">
        <ele>187.832278</ele>
        <time>2020-10-11T08:13:27.619Z</time>
      </trkpt>
      <trkpt lat="47.30481" lon="5.41477">
        <ele>187.822182</ele>
        <time>2020-10-11T08:13:32.679Z</time>
      </trkpt>
      <trkpt lat="47.30481" lon="5.41483">
        <ele>187.820033</ele>
        <time>2020-10-11T08:13:33.559Z</time>
      </trkpt>
      <trkpt lat="47.30477" lon="5.41517">
        <ele>187.807707</ele>
        <time>2020-10-11T08:13:39.196Z</time>
      </trkpt>
      <trkpt lat="47.30466" lon="5.41566">
        <ele>187.789027</ele>
        <time>2020-10-11T08:13:46.307Z</time>
      </trkpt>
      <trkpt lat="47.30457" lon="5.41608">
        <ele>187.773264</ele>
        <time>2020-10-11T08:13:51.341Z</time>
      </trkpt>
      <trkpt lat="47.30446" lon="5.41663">
        <ele>187.59509</ele>
        <time>2020-10-11T08:13:57.840Z</time>
      </trkpt>
      <trkpt lat="47.30444" lon="5.41673">
        <ele>187.513613</ele>
        <time>2020-10-11T08:13:59.007Z</time>
      </trkpt>
      <trkpt lat="47.30442" lon="5.41684">
        <ele>187.431248</ele>
        <time>2020-10-11T08:14:00.154Z</time>
      </trkpt>
      <trkpt lat="47.30439" lon="5.41699">
        <ele>187.308824</ele>
        <time>2020-10-11T08:14:02.054Z</time>
      </trkpt>
      <trkpt lat="47.30436" lon="5.41715">
        <ele>187.180117</ele>
        <time>2020-10-11T08:14:04.042Z</time>
      </trkpt>
      <trkpt lat="47.30428" lon="5.41761">
        <ele>186.808347</ele>
        <time>2020-10-11T08:14:09.712Z</time>
      </trkpt>
      <trkpt lat="47.30427" lon="5.41769">
        <ele>186.751685</ele>
        <time>2020-10-11T08:14:10.566Z</time>
      </trkpt>
      <trkpt lat="47.30418" lon="5.41825">
        <ele>186.304744</ele>
        <time>2020-10-11T08:14:17.236Z</time>
      </trkpt>
      <trkpt lat="47.30417" lon="5.41835">
        <ele>186.220174</ele>
        <time>2020-10-11T08:14:18.387Z</time>
      </trkpt>
      <trkpt lat="47.30407" lon="5.4196">
        <ele>185.250844</ele>
        <time>2020-10-11T08:14:32.344Z</time>
      </trkpt>
      <trkpt lat="47.30406" lon="5.4197">
        <ele>185.172048</ele>
        <time>2020-10-11T08:14:33.459Z</time>
      </trkpt>
      <trkpt lat="47.30404" lon="5.41988">
        <ele>185.030453</ele>
        <time>2020-10-11T08:14:35.389Z</time>
      </trkpt>
      <trkpt lat="47.30397" lon="5.42106">
        <ele>184.111405</ele>
        <time>2020-10-11T08:14:49.049Z</time>
      </trkpt>
      <trkpt lat="47.30395" lon="5.42136">
        <ele>183.881172</ele>
        <time>2020-10-11T08:14:52.563Z</time>
      </trkpt>
      <trkpt lat="47.30393" lon="5.42158">
        <ele>183.705742</ele>
        <time>2020-10-11T08:14:55.287Z</time>
      </trkpt>
      <trkpt lat="47.30388" lon="5.42205">
        <ele>183.51054</ele>
        <time>2020-10-11T08:15:00.915Z</time>
      </trkpt>
      <trkpt lat="47.30388" lon="5.42211">
        <ele>183.491133</ele>
        <time>2020-10-11T08:15:01.588Z</time>
      </trkpt>
      <trkpt lat="47.30381" lon="5.42276">
        <ele>183.266516</ele>
        <time>2020-10-11T08:15:09.578Z</time>
      </trkpt>
      <trkpt lat="47.30361" lon="5.42453">
        <ele>182.814205</ele>
        <time>2020-10-11T08:15:32.865Z</time>
      </trkpt>
      <trkpt lat="47.30357" lon="5.42495">
        <ele>182.931774</ele>
        <time>2020-10-11T08:15:39.064Z</time>
      </trkpt>
      <trkpt lat="47.30342" lon="5.42633">
        <ele>183.326128</ele>
        <time>2020-10-11T08:16:02.202Z</time>
      </trkpt>
      <trkpt lat="47.30337" lon="5.42671">
        <ele>183.436072</ele>
        <time>2020-10-11T08:16:08.728Z</time>
      </trkpt>
      <trkpt lat="47.30321" lon="5.42793">
        <ele>183.901151</ele>
        <time>2020-10-11T08:16:29.260Z</time>
      </trkpt>
      <trkpt lat="47.30281" lon="5.43122">
        <ele>184.855371</ele>
        <time>2020-10-11T08:17:22.992Z</time>
      </trkpt>
      <trkpt lat="47.3023" lon="5.43408">
        <ele>184.973187</ele>
        <time>2020-10-11T08:18:03.481Z</time>
      </trkpt>
      <trkpt lat="47.30223" lon="5.43449">
        <ele>184.962303</ele>
        <time>2020-10-11T08:18:09.350Z</time>
      </trkpt>
      <trkpt lat="47.30152" lon="5.43847">
        <ele>185.428831</ele>
        <time>2020-10-11T08:19:10.600Z</time>
      </trkpt>
      <trkpt lat="47.30145" lon="5.43883">
        <ele>185.481614</ele>
        <time>2020-10-11T08:19:16.250Z</time>
      </trkpt>
      <trkpt lat="47.30088" lon="5.44101">
        <ele>185.674659</ele>
        <time>2020-10-11T08:19:51.040Z</time>
      </trkpt>
      <trkpt lat="47.30072" lon="5.44204">
        <ele>185.714328</ele>
        <time>2020-10-11T08:20:05.725Z</time>
      </trkpt>
      <trkpt lat="47.30074" lon="5.44275">
        <ele>185.633907</ele>
        <time>2020-10-11T08:20:15.334Z</time>
      </trkpt>
      <trkpt lat="47.30081" lon="5.44323">
        <ele>185.53929</ele>
        <time>2020-10-11T08:20:21.771Z</time>
      </trkpt>
      <trkpt lat="47.30118" lon="5.44459">
        <ele>185.256131</ele>
        <time>2020-10-11T08:20:40.452Z</time>
      </trkpt>
      <trkpt lat="47.3013" lon="5.445">
        <ele>185.212343</ele>
        <time>2020-10-11T08:20:46.506Z</time>
      </trkpt>
      <trkpt lat="47.30141" lon="5.44539">
        <ele>185.214669</ele>
        <time>2020-10-11T08:20:52.366Z</time>
      </trkpt>
      <trkpt lat="47.30164" lon="5.44641">
        <ele>185.220509</ele>
        <time>2020-10-11T08:21:07.632Z</time>
      </trkpt>
      <trkpt lat="47.30167" lon="5.44664">
        <ele>185.221772</ele>
        <time>2020-10-11T08:21:10.704Z</time>
      </trkpt>
      <trkpt lat="47.30168" lon="5.44696">
        <ele>185.223523</ele>
        <time>2020-10-11T08:21:15.822Z</time>
      </trkpt>
      <trkpt lat="47.30165" lon="5.44761">
        <ele>185.277259</ele>
        <time>2020-10-11T08:21:25.319Z</time>
      </trkpt>
      <trkpt lat="47.30151" lon="5.44834">
        <ele>185.425304</ele>
        <time>2020-10-11T08:21:37.099Z</time>
      </trkpt>
      <trkpt lat="47.2998" lon="5.45291">
        <ele>186.58275</ele>
        <time>2020-10-11T08:22:56.729Z</time>
      </trkpt>
      <trkpt lat="47.29867" lon="5.45486">
        <ele>187.205005</ele>
        <time>2020-10-11T08:23:38.008Z</time>
      </trkpt>
      <trkpt lat="47.29863" lon="5.45493">
        <ele>187.217628</ele>
        <time>2020-10-11T08:23:39.559Z</time>
      </trkpt>
      <trkpt lat="47.29755" lon="5.45683">
        <ele>187.339518</ele>
        <time>2020-10-11T08:24:14.877Z</time>
      </trkpt>
      <trkpt lat="47.29738" lon="5.4572">
        <ele>187.274214</ele>
        <time>2020-10-11T08:24:20.667Z</time>
      </trkpt>
      <trkpt lat="47.29727" lon="5.45767">
        <ele>187.201304</ele>
        <time>2020-10-11T08:24:27.129Z</time>
      </trkpt>
      <trkpt lat="47.2965" lon="5.46149">
        <ele>186.232361</ele>
        <time>2020-10-11T08:25:18.650Z</time>
      </trkpt>
      <trkpt lat="47.29614" lon="5.46359">
        <ele>185.464776</ele>
        <time>2020-10-11T08:25:45.461Z</time>
      </trkpt>
      <trkpt lat="47.29591" lon="5.46484">
        <ele>185.486987</ele>
        <time>2020-10-11T08:26:02.369Z</time>
      </trkpt>
      <trkpt lat="47.29584" lon="5.46507">
        <ele>185.498908</ele>
        <time>2020-10-11T08:26:06.177Z</time>
      </trkpt>
      <trkpt lat="47.29261" lon="5.47235">
        <ele>188.654807</ele>
        <time>2020-10-11T08:28:27.208Z</time>
      </trkpt>
      <trkpt lat="47.29247" lon="5.47272">
        <ele>188.864397</ele>
        <time>2020-10-11T08:28:34.789Z</time>
      </trkpt>
      <trkpt lat="47.29238" lon="5.47308">
        <ele>189.288272</ele>
        <time>2020-10-11T08:28:41.870Z</time>
      </trkpt>
      <trkpt lat="47.29131" lon="5.47852">
        <ele>197.025932</ele>
        <time>2020-10-11T08:30:42.514Z</time>
      </trkpt>
      <trkpt lat="47.29121" lon="5.479">
        <ele>198.159128</ele>
        <time>2020-10-11T08:30:56.400Z</time>
      </trkpt>
      <trkpt lat="47.29061" lon="5.48192">
        <ele>204.726394</ele>
        <time>2020-10-11T08:32:26.487Z</time>
      </trkpt>
      <trkpt lat="47.28959" lon="5.48671">
        <ele>209.384447</ele>
        <time>2020-10-11T08:34:03.276Z</time>
      </trkpt>
      <trkpt lat="47.28922" lon="5.48835">
        <ele>209.030369</ele>
        <time>2020-10-11T08:34:23.161Z</time>
      </trkpt>
      <trkpt lat="47.28857" lon="5.49112">
        <ele>205.480218</ele>
        <time>2020-10-11T08:34:54.373Z</time>
      </trkpt>
      <trkpt lat="47.28857" lon="5.49114">
        <ele>205.4546</ele>
        <time>2020-10-11T08:34:54.534Z</time>
      </trkpt>
      <trkpt lat="47.28825" lon="5.49244">
        <ele>203.473391</ele>
        <time>2020-10-11T08:35:08.964Z</time>
      </trkpt>
      <trkpt lat="47.28763" lon="5.49468">
        <ele>200.02988</ele>
        <time>2020-10-11T08:35:33.436Z</time>
      </trkpt>
      <trkpt lat="47.28741" lon="5.49544">
        <ele>198.881723</ele>
        <time>2020-10-11T08:35:42.222Z</time>
      </trkpt>
      <trkpt lat="47.28737" lon="5.4956">
        <ele>198.779834</ele>
        <time>2020-10-11T08:35:44.122Z</time>
      </trkpt>
      <trkpt lat="47.287" lon="5.49688">
        <ele>197.974035</ele>
        <time>2020-10-11T08:36:00.481Z</time>
      </trkpt>
      <trkpt lat="47.28675" lon="5.49767">
        <ele>197.478492</ele>
        <time>2020-10-11T08:36:11.432Z</time>
      </trkpt>
      <trkpt lat="47.28639" lon="5.49852">
        <ele>197.060769</ele>
        <time>2020-10-11T08:36:25.274Z</time>
      </trkpt>
      <trkpt lat="47.28562" lon="5.50021">
        <ele>196.249236</ele>
        <time>2020-10-11T08:36:50.189Z</time>
      </trkpt>
      <trkpt lat="47.28533" lon="5.5012">
        <ele>195.578397</ele>
        <time>2020-10-11T08:37:02.258Z</time>
      </trkpt>
      <trkpt lat="47.28416" lon="5.50511">
        <ele>194.308037</ele>
        <time>2020-10-11T08:37:54.228Z</time>
      </trkpt>
      <trkpt lat="47.28277" lon="5.50969">
        <ele>202.520362</ele>
        <time>2020-10-11T08:39:58.440Z</time>
      </trkpt>
      <trkpt lat="47.28227" lon="5.51138">
        <ele>204.084283</ele>
        <time>2020-10-11T08:40:35.209Z</time>
      </trkpt>
      <trkpt lat="47.28156" lon="5.51384">
        <ele>204.776618</ele>
        <time>2020-10-11T08:41:13.764Z</time>
      </trkpt>
      <trkpt lat="47.28141" lon="5.51429">
        <ele>204.773915</ele>
        <time>2020-10-11T08:41:20.378Z</time>
      </trkpt>
      <trkpt lat="47.27579" lon="5.52313">
        <ele>204.28561</ele>
        <time>2020-10-11T08:44:04.289Z</time>
      </trkpt>
      <trkpt lat="47.27121" lon="5.53034">
        <ele>210.276821</ele>
        <time>2020-10-11T08:47:00.641Z</time>
      </trkpt>
      <trkpt lat="47.26845" lon="5.53469">
        <ele>215.924831</ele>
        <time>2020-10-11T08:48:58.964Z</time>
      </trkpt>
      <trkpt lat="47.26224" lon="5.54456">
        <ele>224.683156</ele>
        <time>2020-10-11T08:53:05.433Z</time>
      </trkpt>
      <trkpt lat="47.26039" lon="5.54915">
        <ele>221.281513</ele>
        <time>2020-10-11T08:54:05.351Z</time>
      </trkpt>
      <trkpt lat="47.25925" lon="5.552">
        <ele>217.490279</ele>
        <time>2020-10-11T08:54:39.922Z</time>
      </trkpt>
      <trkpt lat="47.25835" lon="5.55423">
        <ele>215.589451</ele>
        <time>2020-10-11T08:55:10.294Z</time>
      </trkpt>
      <trkpt lat="47.25798" lon="5.5552">
        <ele>214.986782</ele>
        <time>2020-10-11T08:55:24.371Z</time>
      </trkpt>
      <trkpt lat="47.25763" lon="5.55609">
        <ele>214.502442</ele>
        <time>2020-10-11T08:55:37.353Z</time>
      </trkpt>
      <trkpt lat="47.25686" lon="5.55783">
        <ele>213.268647</ele>
        <time>2020-10-11T08:56:01.914Z</time>
      </trkpt>
      <trkpt lat="47.25636" lon="5.55881">
        <ele>212.331704</ele>
        <time>2020-10-11T08:56:15.499Z</time>
      </trkpt>
      <trkpt lat="47.25631" lon="5.5589">
        <ele>212.245205</ele>
        <time>2020-10-11T08:56:16.614Z</time>
      </trkpt>
      <trkpt lat="47.25618" lon="5.55908">
        <ele>212.041852</ele>
        <time>2020-10-11T08:56:19.867Z</time>
      </trkpt>
      <trkpt lat="47.25609" lon="5.55919">
        <ele>211.919538</ele>
        <time>2020-10-11T08:56:21.965Z</time>
      </trkpt>
      <trkpt lat="47.25604" lon="5.55922">
        <ele>211.931648</ele>
        <time>2020-10-11T08:56:22.678Z</time>
      </trkpt>
      <trkpt lat="47.25599" lon="5.55922">
        <ele>211.94601</ele>
        <time>2020-10-11T08:56:23.679Z</time>
      </trkpt>
      <trkpt lat="47.25593" lon="5.55924">
        <ele>211.960352</ele>
        <time>2020-10-11T08:56:24.788Z</time>
      </trkpt>
      <trkpt lat="47.25588" lon="5.55929">
        <ele>211.974731</ele>
        <time>2020-10-11T08:56:25.926Z</time>
      </trkpt>
      <trkpt lat="47.25583" lon="5.55939">
        <ele>211.99503</ele>
        <time>2020-10-11T08:56:27.497Z</time>
      </trkpt>
      <trkpt lat="47.25582" lon="5.55951">
        <ele>212.015291</ele>
        <time>2020-10-11T08:56:28.834Z</time>
      </trkpt>
      <trkpt lat="47.25584" lon="5.55963">
        <ele>212.037531</ele>
        <time>2020-10-11T08:56:30.365Z</time>
      </trkpt>
      <trkpt lat="47.2559" lon="5.55973">
        <ele>212.059824</ele>
        <time>2020-10-11T08:56:32.230Z</time>
      </trkpt>
      <trkpt lat="47.25594" lon="5.5599">
        <ele>212.0896</ele>
        <time>2020-10-11T08:56:34.738Z</time>
      </trkpt>
      <trkpt lat="47.25594" lon="5.56003">
        <ele>212.112611</ele>
        <time>2020-10-11T08:56:36.217Z</time>
      </trkpt>
      <trkpt lat="47.25594" lon="5.5602">
        <ele>212.140689</ele>
        <time>2020-10-11T08:56:38.645Z</time>
      </trkpt>
      <trkpt lat="47.25583" lon="5.56059">
        <ele>212.211411</ele>
        <time>2020-10-11T08:56:44.253Z</time>
      </trkpt>
      <trkpt lat="47.25496" lon="5.56301">
        <ele>214.365181</ele>
        <time>2020-10-11T08:57:42.256Z</time>
      </trkpt>
      <trkpt lat="47.25491" lon="5.56313">
        <ele>214.520746</ele>
        <time>2020-10-11T08:57:45.818Z</time>
      </trkpt>
      <trkpt lat="47.25481" lon="5.56333">
        <ele>214.793174</ele>
        <time>2020-10-11T08:57:49.875Z</time>
      </trkpt>
      <trkpt lat="47.25478" lon="5.56339">
        <ele>214.880892</ele>
        <time>2020-10-11T08:57:52.022Z</time>
      </trkpt>
      <trkpt lat="47.2547" lon="5.56344">
        <ele>215.01128</ele>
        <time>2020-10-11T08:57:54.538Z</time>
      </trkpt>
      <trkpt lat="47.25464" lon="5.56352">
        <ele>215.141466</ele>
        <time>2020-10-11T08:57:57.036Z</time>
      </trkpt>
      <trkpt lat="47.25461" lon="5.56364">
        <ele>215.246064</ele>
        <time>2020-10-11T08:57:58.900Z</time>
      </trkpt>
      <trkpt lat="47.25461" lon="5.56377">
        <ele>215.17348</ele>
        <time>2020-10-11T08:58:01.206Z</time>
      </trkpt>
      <trkpt lat="47.25463" lon="5.56385">
        <ele>215.122717</ele>
        <time>2020-10-11T08:58:03.008Z</time>
      </trkpt>
      <trkpt lat="47.25462" lon="5.56403">
        <ele>215.022133</ele>
        <time>2020-10-11T08:58:06.582Z</time>
      </trkpt>
      <trkpt lat="47.25452" lon="5.56437">
        <ele>214.815771</ele>
        <time>2020-10-11T08:58:12.259Z</time>
      </trkpt>
      <trkpt lat="47.25406" lon="5.56545">
        <ele>214.096583</ele>
        <time>2020-10-11T08:58:26.705Z</time>
      </trkpt>
      <trkpt lat="47.25378" lon="5.56616">
        <ele>213.522794</ele>
        <time>2020-10-11T08:58:34.943Z</time>
      </trkpt>
      <trkpt lat="47.25352" lon="5.56691">
        <ele>212.663843</ele>
        <time>2020-10-11T08:58:43.444Z</time>
      </trkpt>
      <trkpt lat="47.25348" lon="5.56703">
        <ele>212.530542</ele>
        <time>2020-10-11T08:58:44.747Z</time>
      </trkpt>
      <trkpt lat="47.25268" lon="5.56921">
        <ele>211.228739</ele>
        <time>2020-10-11T08:59:14.793Z</time>
      </trkpt>
      <trkpt lat="47.25172" lon="5.57215">
        <ele>211.938077</ele>
        <time>2020-10-11T09:00:11.853Z</time>
      </trkpt>
      <trkpt lat="47.25166" lon="5.57263">
        <ele>212.070594</ele>
        <time>2020-10-11T09:00:18.910Z</time>
      </trkpt>
      <trkpt lat="47.25144" lon="5.57672">
        <ele>210.584918</ele>
        <time>2020-10-11T09:01:09.192Z</time>
      </trkpt>
      <trkpt lat="47.25136" lon="5.57717">
        <ele>210.328581</ele>
        <time>2020-10-11T09:01:14.794Z</time>
      </trkpt>
      <trkpt lat="47.25124" lon="5.5775">
        <ele>210.123434</ele>
        <time>2020-10-11T09:01:19.326Z</time>
      </trkpt>
      <trkpt lat="47.25059" lon="5.57879">
        <ele>208.606246</ele>
        <time>2020-10-11T09:01:38.209Z</time>
      </trkpt>
      <trkpt lat="47.24999" lon="5.57993">
        <ele>206.601145</ele>
        <time>2020-10-11T09:01:53.096Z</time>
      </trkpt>
      <trkpt lat="47.2498" lon="5.58057">
        <ele>205.455014</ele>
        <time>2020-10-11T09:01:59.863Z</time>
      </trkpt>
      <trkpt lat="47.24957" lon="5.58108">
        <ele>204.186488</ele>
        <time>2020-10-11T09:02:05.702Z</time>
      </trkpt>
      <trkpt lat="47.24923" lon="5.58152">
        <ele>202.79569</ele>
        <time>2020-10-11T09:02:12.062Z</time>
      </trkpt>
      <trkpt lat="47.24889" lon="5.58204">
        <ele>201.269102</ele>
        <time>2020-10-11T09:02:18.987Z</time>
      </trkpt>
      <trkpt lat="47.24828" lon="5.58282">
        <ele>199.841402</ele>
        <time>2020-10-11T09:02:31.006Z</time>
      </trkpt>
      <trkpt lat="47.24689" lon="5.58479">
        <ele>199.306922</ele>
        <time>2020-10-11T09:03:07.785Z</time>
      </trkpt>
      <trkpt lat="47.24678" lon="5.58503">
        <ele>199.562955</ele>
        <time>2020-10-11T09:03:13.554Z</time>
      </trkpt>
      <trkpt lat="47.24662" lon="5.58525">
        <ele>199.838389</ele>
        <time>2020-10-11T09:03:20.623Z</time>
      </trkpt>
      <trkpt lat="47.24655" lon="5.58546">
        <ele>200.045173</ele>
        <time>2020-10-11T09:03:25.887Z</time>
      </trkpt>
      <trkpt lat="47.24644" lon="5.586">
        <ele>200.537228</ele>
        <time>2020-10-11T09:03:39.695Z</time>
      </trkpt>
      <trkpt lat="47.24644" lon="5.58659">
        <ele>201.083739</ele>
        <time>2020-10-11T09:03:53.466Z</time>
      </trkpt>
      <trkpt lat="47.24665" lon="5.58803">
        <ele>202.517103</ele>
        <time>2020-10-11T09:04:25.772Z</time>
      </trkpt>
      <trkpt lat="47.2468" lon="5.58929">
        <ele>203.276431</ele>
        <time>2020-10-11T09:04:44.589Z</time>
      </trkpt>
      <trkpt lat="47.24684" lon="5.5898">
        <ele>203.171316</ele>
        <time>2020-10-11T09:04:51.126Z</time>
      </trkpt>
      <trkpt lat="47.24677" lon="5.59104">
        <ele>202.917816</ele>
        <time>2020-10-11T09:05:05.856Z</time>
      </trkpt>
      <trkpt lat="47.24645" lon="5.59607">
        <ele>203.707699</ele>
        <time>2020-10-11T09:06:23.340Z</time>
      </trkpt>
      <trkpt lat="47.24618" lon="5.60125">
        <ele>205.036545</ele>
        <time>2020-10-11T09:07:43.404Z</time>
      </trkpt>
      <trkpt lat="47.24612" lon="5.60255">
        <ele>205.465672</ele>
        <time>2020-10-11T09:08:04.974Z</time>
      </trkpt>
      <trkpt lat="47.24602" lon="5.60434">
        <ele>206.130119</ele>
        <time>2020-10-11T09:08:35.016Z</time>
      </trkpt>
      <trkpt lat="47.24598" lon="5.6052">
        <ele>206.042441</ele>
        <time>2020-10-11T09:08:48.359Z</time>
      </trkpt>
      <trkpt lat="47.24593" lon="5.60651">
        <ele>205.433573</ele>
        <time>2020-10-11T09:09:04.682Z</time>
      </trkpt>
      <trkpt lat="47.2459" lon="5.60729">
        <ele>205.070828</ele>
        <time>2020-10-11T09:09:13.306Z</time>
      </trkpt>
      <trkpt lat="47.24588" lon="5.60777">
        <ele>204.581354</ele>
        <time>2020-10-11T09:09:18.414Z</time>
      </trkpt>
      <trkpt lat="47.24585" lon="5.60831">
        <ele>203.966345</ele>
        <time>2020-10-11T09:09:24.236Z</time>
      </trkpt>
      <trkpt lat="47.24584" lon="5.6089">
        <ele>203.299512</ele>
        <time>2020-10-11T09:09:30.564Z</time>
      </trkpt>
      <trkpt lat="47.24591" lon="5.60952">
        <ele>202.596702</ele>
        <time>2020-10-11T09:09:37.265Z</time>
      </trkpt>
      <trkpt lat="47.24606" lon="5.61034">
        <ele>201.722913</ele>
        <time>2020-10-11T09:09:46.407Z</time>
      </trkpt>
      <trkpt lat="47.24639" lon="5.61231">
        <ele>199.860884</ele>
        <time>2020-10-11T09:10:09.467Z</time>
      </trkpt>
      <trkpt lat="47.2468" lon="5.61527">
        <ele>197.310474</ele>
        <time>2020-10-11T09:10:43.028Z</time>
      </trkpt>
      <trkpt lat="47.24682" lon="5.61576">
        <ele>197.537464</ele>
        <time>2020-10-11T09:10:48.683Z</time>
      </trkpt>
      <trkpt lat="47.24679" lon="5.61613">
        <ele>197.712414</ele>
        <time>2020-10-11T09:10:53.279Z</time>
      </trkpt>
      <trkpt lat="47.24674" lon="5.61634">
        <ele>197.815035</ele>
        <time>2020-10-11T09:10:56.544Z</time>
      </trkpt>
      <trkpt lat="47.24656" lon="5.61688">
        <ele>198.099072</ele>
        <time>2020-10-11T09:11:07.156Z</time>
      </trkpt>
      <trkpt lat="47.24629" lon="5.61749">
        <ele>198.439296</ele>
        <time>2020-10-11T09:11:23.051Z</time>
      </trkpt>
      <trkpt lat="47.24607" lon="5.61803">
        <ele>199.830254</ele>
        <time>2020-10-11T09:11:39.110Z</time>
      </trkpt>
      <trkpt lat="47.246" lon="5.61819">
        <ele>200.325848</ele>
        <time>2020-10-11T09:11:44.655Z</time>
      </trkpt>
      <trkpt lat="47.24562" lon="5.61908">
        <ele>203.058483</ele>
        <time>2020-10-11T09:12:17.059Z</time>
      </trkpt>
      <trkpt lat="47.24497" lon="5.62079">
        <ele>207.221598</ele>
        <time>2020-10-11T09:13:15.904Z</time>
      </trkpt>
      <trkpt lat="47.24492" lon="5.6211">
        <ele>207.767473</ele>
        <time>2020-10-11T09:13:23.564Z</time>
      </trkpt>
      <trkpt lat="47.24493" lon="5.62186">
        <ele>209.069221</ele>
        <time>2020-10-11T09:13:40.194Z</time>
      </trkpt>
      <trkpt lat="47.24536" lon="5.6276">
        <ele>209.871956</ele>
        <time>2020-10-11T09:15:03.545Z</time>
      </trkpt>
      <trkpt lat="47.24542" lon="5.62794">
        <ele>209.446135</ele>
        <time>2020-10-11T09:15:07.480Z</time>
      </trkpt>
      <trkpt lat="47.24545" lon="5.62806">
        <ele>209.283211</ele>
        <time>2020-10-11T09:15:08.661Z</time>
      </trkpt>
      <trkpt lat="47.2468" lon="5.63298">
        <ele>202.583845</ele>
        <time>2020-10-11T09:16:03.041Z</time>
      </trkpt>
      <trkpt lat="47.24689" lon="5.63363">
        <ele>202.668214</ele>
        <time>2020-10-11T09:16:12.290Z</time>
      </trkpt>
      <trkpt lat="47.2469" lon="5.63434">
        <ele>202.759051</ele>
        <time>2020-10-11T09:16:24.374Z</time>
      </trkpt>
      <trkpt lat="47.24689" lon="5.63467">
        <ele>202.800237</ele>
        <time>2020-10-11T09:16:30.395Z</time>
      </trkpt>
      <trkpt lat="47.24685" lon="5.63492">
        <ele>202.833408</ele>
        <time>2020-10-11T09:16:35.874Z</time>
      </trkpt>
      <trkpt lat="47.24678" lon="5.6353">
        <ele>203.03075</ele>
        <time>2020-10-11T09:16:43.945Z</time>
      </trkpt>
      <trkpt lat="47.24637" lon="5.63751">
        <ele>205.452568</ele>
        <time>2020-10-11T09:17:32.094Z</time>
      </trkpt>
      <trkpt lat="47.2457" lon="5.64084">
        <ele>207.744116</ele>
        <time>2020-10-11T09:18:27.675Z</time>
      </trkpt>
      <trkpt lat="47.24485" lon="5.64536">
        <ele>215.384452</ele>
        <time>2020-10-11T09:20:18.929Z</time>
      </trkpt>
      <trkpt lat="47.24478" lon="5.64564">
        <ele>216.224426</ele>
        <time>2020-10-11T09:20:27.432Z</time>
      </trkpt>
      <trkpt lat="47.24469" lon="5.64595">
        <ele>217.195571</ele>
        <time>2020-10-11T09:20:38.046Z</time>
      </trkpt>
      <trkpt lat="47.24443" lon="5.64656">
        <ele>219.226612</ele>
        <time>2020-10-11T09:20:59.793Z</time>
      </trkpt>
      <trkpt lat="47.24426" lon="5.64684">
        <ele>220.289059</ele>
        <time>2020-10-11T09:21:12.060Z</time>
      </trkpt>
      <trkpt lat="47.24393" lon="5.64737">
        <ele>222.327141</ele>
        <time>2020-10-11T09:21:34.763Z</time>
      </trkpt>
      <trkpt lat="47.24357" lon="5.64789">
        <ele>224.387568</ele>
        <time>2020-10-11T09:21:57.723Z</time>
      </trkpt>
      <trkpt lat="47.24331" lon="5.64848">
        <ele>226.330896</ele>
        <time>2020-10-11T09:22:19.013Z</time>
      </trkpt>
      <trkpt lat="47.24309" lon="5.64954">
        <ele>229.392989</ele>
        <time>2020-10-11T09:22:51.557Z</time>
      </trkpt>
      <trkpt lat="47.24308" lon="5.65006">
        <ele>230.621224</ele>
        <time>2020-10-11T09:23:06.147Z</time>
      </trkpt>
      <trkpt lat="47.24327" lon="5.6516">
        <ele>233.594884</ele>
        <time>2020-10-11T09:23:46.752Z</time>
      </trkpt>
      <trkpt lat="47.24329" lon="5.65219">
        <ele>234.711418</ele>
        <time>2020-10-11T09:24:00.813Z</time>
      </trkpt>
      <trkpt lat="47.24322" lon="5.65277">
        <ele>235.106094</ele>
        <time>2020-10-11T09:24:14.123Z</time>
      </trkpt>
      <trkpt lat="47.24284" lon="5.6551">
        <ele>234.46629</ele>
        <time>2020-10-11T09:24:44.053Z</time>
      </trkpt>
      <trkpt lat="47.24283" lon="5.6552">
        <ele>234.242351</ele>
        <time>2020-10-11T09:24:44.950Z</time>
      </trkpt>
      <trkpt lat="47.2428" lon="5.65568">
        <ele>233.208523</ele>
        <time>2020-10-11T09:24:49.856Z</time>
      </trkpt>
      <trkpt lat="47.24289" lon="5.65713">
        <ele>230.108575</ele>
        <time>2020-10-11T09:25:03.546Z</time>
      </trkpt>
      <trkpt lat="47.24287" lon="5.65769">
        <ele>228.914117</ele>
        <time>2020-10-11T09:25:08.741Z</time>
      </trkpt>
      <trkpt lat="47.24281" lon="5.65812">
        <ele>228.072495</ele>
        <time>2020-10-11T09:25:12.940Z</time>
      </trkpt>
      <trkpt lat="47.24262" lon="5.6596">
        <ele>225.171185</ele>
        <time>2020-10-11T09:25:27.777Z</time>
      </trkpt>
      <trkpt lat="47.24215" lon="5.66324">
        <ele>219.60522</ele>
        <time>2020-10-11T09:26:06.225Z</time>
      </trkpt>
      <trkpt lat="47.24197" lon="5.66396">
        <ele>218.550084</ele>
        <time>2020-10-11T09:26:14.838Z</time>
      </trkpt>
      <trkpt lat="47.24155" lon="5.66527">
        <ele>216.551572</ele>
        <time>2020-10-11T09:26:29.835Z</time>
      </trkpt>
      <trkpt lat="47.24144" lon="5.66559">
        <ele>215.942227</ele>
        <time>2020-10-11T09:26:33.431Z</time>
      </trkpt>
      <trkpt lat="47.241" lon="5.66683">
        <ele>213.497708</ele>
        <time>2020-10-11T09:26:47.121Z</time>
      </trkpt>
      <trkpt lat="47.24099" lon="5.66686">
        <ele>213.430663</ele>
        <time>2020-10-11T09:26:47.494Z</time>
      </trkpt>
      <trkpt lat="47.24084" lon="5.66731">
        <ele>212.548841</ele>
        <time>2020-10-11T09:26:52.483Z</time>
      </trkpt>
      <trkpt lat="47.24064" lon="5.66807">
        <ele>211.928363</ele>
        <time>2020-10-11T09:27:00.778Z</time>
      </trkpt>
      <trkpt lat="47.24062" lon="5.66827">
        <ele>211.96604</ele>
        <time>2020-10-11T09:27:03.066Z</time>
      </trkpt>
      <trkpt lat="47.24067" lon="5.66887">
        <ele>212.076281</ele>
        <time>2020-10-11T09:27:10.791Z</time>
      </trkpt>
      <trkpt lat="47.24074" lon="5.66979">
        <ele>212.245824</ele>
        <time>2020-10-11T09:27:27.771Z</time>
      </trkpt>
      <trkpt lat="47.24076" lon="5.67012">
        <ele>212.307127</ele>
        <time>2020-10-11T09:27:35.162Z</time>
      </trkpt>
      <trkpt lat="47.24079" lon="5.6703">
        <ele>212.36063</ele>
        <time>2020-10-11T09:27:39.076Z</time>
      </trkpt>
      <trkpt lat="47.24087" lon="5.67059">
        <ele>212.966489</ele>
        <time>2020-10-11T09:27:46.651Z</time>
      </trkpt>
      <trkpt lat="47.24171" lon="5.6721">
        <ele>216.757095</ele>
        <time>2020-10-11T09:28:37.540Z</time>
      </trkpt>
      <trkpt lat="47.24286" lon="5.67578">
        <ele>223.522863</ele>
        <time>2020-10-11T09:30:18.509Z</time>
      </trkpt>
      <trkpt lat="47.24304" lon="5.67663">
        <ele>224.325887</ele>
        <time>2020-10-11T09:30:34.881Z</time>
      </trkpt>
      <trkpt lat="47.24327" lon="5.67867">
        <ele>224.131181</ele>
        <time>2020-10-11T09:31:01.156Z</time>
      </trkpt>
      <trkpt lat="47.24387" lon="5.68082">
        <ele>222.152776</ele>
        <time>2020-10-11T09:31:26.700Z</time>
      </trkpt>
      <trkpt lat="47.24422" lon="5.68163">
        <ele>221.069116</ele>
        <time>2020-10-11T09:31:37.129Z</time>
      </trkpt>
      <trkpt lat="47.24534" lon="5.68344">
        <ele>217.755941</ele>
        <time>2020-10-11T09:32:02.904Z</time>
      </trkpt>
      <trkpt lat="47.24571" lon="5.6845">
        <ele>216.058894</ele>
        <time>2020-10-11T09:32:14.906Z</time>
      </trkpt>
      <trkpt lat="47.24602" lon="5.68542">
        <ele>214.617338</ele>
        <time>2020-10-11T09:32:25.122Z</time>
      </trkpt>
      <trkpt lat="47.24605" lon="5.68584">
        <ele>214.014079</ele>
        <time>2020-10-11T09:32:29.502Z</time>
      </trkpt>
      <trkpt lat="47.24598" lon="5.68622">
        <ele>213.457408</ele>
        <time>2020-10-11T09:32:33.655Z</time>
      </trkpt>
      <trkpt lat="47.24583" lon="5.6865">
        <ele>212.969505</ele>
        <time>2020-10-11T09:32:37.605Z</time>
      </trkpt>
      <trkpt lat="47.24577" lon="5.68661">
        <ele>212.78025</ele>
        <time>2020-10-11T09:32:39.169Z</time>
      </trkpt>
      <trkpt lat="47.24578" lon="5.68677">
        <ele>212.788649</ele>
        <time>2020-10-11T09:32:41.090Z</time>
      </trkpt>
      <trkpt lat="47.24601" lon="5.68736">
        <ele>212.825497</ele>
        <time>2020-10-11T09:32:49.713Z</time>
      </trkpt>
      <trkpt lat="47.24603" lon="5.68742">
        <ele>212.829214</ele>
        <time>2020-10-11T09:32:50.597Z</time>
      </trkpt>
      <trkpt lat="47.24612" lon="5.68767">
        <ele>212.844592</ele>
        <time>2020-10-11T09:32:54.343Z</time>
      </trkpt>
      <trkpt lat="47.24618" lon="5.68781">
        <ele>212.853286</ele>
        <time>2020-10-11T09:32:57.275Z</time>
      </trkpt>
      <trkpt lat="47.2463" lon="5.68825">
        <ele>212.878915</ele>
        <time>2020-10-11T09:33:04.553Z</time>
      </trkpt>
      <trkpt lat="47.24629" lon="5.68856">
        <ele>212.895553</ele>
        <time>2020-10-11T09:33:09.476Z</time>
      </trkpt>
      <trkpt lat="47.24615" lon="5.68899">
        <ele>212.92098</ele>
        <time>2020-10-11T09:33:18.419Z</time>
      </trkpt>
      <trkpt lat="47.24601" lon="5.68937">
        <ele>213.047436</ele>
        <time>2020-10-11T09:33:26.729Z</time>
      </trkpt>
      <trkpt lat="47.24598" lon="5.68954">
        <ele>213.098481</ele>
        <time>2020-10-11T09:33:29.574Z</time>
      </trkpt>
      <trkpt lat="47.24602" lon="5.68978">
        <ele>213.170957</ele>
        <time>2020-10-11T09:33:34.343Z</time>
      </trkpt>
      <trkpt lat="47.24626" lon="5.69036">
        <ele>213.374509</ele>
        <time>2020-10-11T09:33:44.869Z</time>
      </trkpt>
      <trkpt lat="47.24653" lon="5.69098">
        <ele>213.595456</ele>
        <time>2020-10-11T09:33:55.888Z</time>
      </trkpt>
      <trkpt lat="47.24692" lon="5.69183">
        <ele>213.814532</ele>
        <time>2020-10-11T09:34:10.086Z</time>
      </trkpt>
      <trkpt lat="47.2474" lon="5.69281">
        <ele>214.002986</ele>
        <time>2020-10-11T09:34:25.932Z</time>
      </trkpt>
      <trkpt lat="47.24787" lon="5.69391">
        <ele>214.816155</ele>
        <time>2020-10-11T09:34:48.161Z</time>
      </trkpt>
      <trkpt lat="47.24796" lon="5.69421">
        <ele>215.284076</ele>
        <time>2020-10-11T09:34:55.590Z</time>
      </trkpt>
      <trkpt lat="47.24818" lon="5.69529">
        <ele>216.883781</ele>
        <time>2020-10-11T09:35:24.251Z</time>
      </trkpt>
      <trkpt lat="47.24826" lon="5.69572">
        <ele>217.523467</ele>
        <time>2020-10-11T09:35:34.784Z</time>
      </trkpt>
      <trkpt lat="47.24831" lon="5.69598">
        <ele>217.889687</ele>
        <time>2020-10-11T09:35:40.987Z</time>
      </trkpt>
      <trkpt lat="47.24847" lon="5.69687">
        <ele>217.912568</ele>
        <time>2020-10-11T09:35:59.912Z</time>
      </trkpt>
      <trkpt lat="47.24884" lon="5.6989">
        <ele>217.395968</ele>
        <time>2020-10-11T09:36:25.067Z</time>
      </trkpt>
      <trkpt lat="47.2489" lon="5.69926">
        <ele>216.860377</ele>
        <time>2020-10-11T09:36:28.552Z</time>
      </trkpt>
      <trkpt lat="47.24893" lon="5.6996">
        <ele>216.359161</ele>
        <time>2020-10-11T09:36:31.966Z</time>
      </trkpt>
      <trkpt lat="47.24891" lon="5.69978">
        <ele>216.093466</ele>
        <time>2020-10-11T09:36:33.683Z</time>
      </trkpt>
      <trkpt lat="47.24884" lon="5.70056">
        <ele>214.941446</ele>
        <time>2020-10-11T09:36:41.706Z</time>
      </trkpt>
      <trkpt lat="47.24885" lon="5.70122">
        <ele>214.011348</ele>
        <time>2020-10-11T09:36:48.653Z</time>
      </trkpt>
      <trkpt lat="47.24886" lon="5.70141">
        <ele>213.825505</ele>
        <time>2020-10-11T09:36:50.569Z</time>
      </trkpt>
      <trkpt lat="47.24899" lon="5.70175">
        <ele>213.453207</ele>
        <time>2020-10-11T09:36:54.798Z</time>
      </trkpt>
      <trkpt lat="47.24903" lon="5.70188">
        <ele>213.317037</ele>
        <time>2020-10-11T09:36:56.266Z</time>
      </trkpt>
      <trkpt lat="47.24958" lon="5.70296">
        <ele>212.012203</ele>
        <time>2020-10-11T09:37:11.745Z</time>
      </trkpt>
      <trkpt lat="47.24991" lon="5.70317">
        <ele>211.526758</ele>
        <time>2020-10-11T09:37:17.685Z</time>
      </trkpt>
      <trkpt lat="47.25043" lon="5.70334">
        <ele>211.382758</ele>
        <time>2020-10-11T09:37:26.824Z</time>
      </trkpt>
      <trkpt lat="47.25074" lon="5.70334">
        <ele>211.298777</ele>
        <time>2020-10-11T09:37:32.074Z</time>
      </trkpt>
      <trkpt lat="47.25083" lon="5.70339">
        <ele>211.273508</ele>
        <time>2020-10-11T09:37:33.684Z</time>
      </trkpt>
      <trkpt lat="47.25095" lon="5.70351">
        <ele>211.234705</ele>
        <time>2020-10-11T09:37:36.258Z</time>
      </trkpt>
      <trkpt lat="47.25102" lon="5.70374">
        <ele>211.188707</ele>
        <time>2020-10-11T09:37:40.199Z</time>
      </trkpt>
      <trkpt lat="47.25106" lon="5.70422">
        <ele>211.099468</ele>
        <time>2020-10-11T09:37:47.440Z</time>
      </trkpt>
      <trkpt lat="47.25111" lon="5.70483">
        <ele>211.325171</ele>
        <time>2020-10-11T09:37:59.211Z</time>
      </trkpt>
      <trkpt lat="47.2512" lon="5.70519">
        <ele>211.650119</ele>
        <time>2020-10-11T09:38:08.017Z</time>
      </trkpt>
      <trkpt lat="47.25117" lon="5.70522">
        <ele>211.693162</ele>
        <time>2020-10-11T09:38:08.927Z</time>
      </trkpt>
      <trkpt lat="47.25114" lon="5.70536">
        <ele>211.82007</ele>
        <time>2020-10-11T09:38:11.452Z</time>
      </trkpt>
      <trkpt lat="47.25115" lon="5.70541">
        <ele>211.864536</ele>
        <time>2020-10-11T09:38:12.568Z</time>
      </trkpt>
      <trkpt lat="47.25117" lon="5.70544">
        <ele>211.904139</ele>
        <time>2020-10-11T09:38:13.562Z</time>
      </trkpt>
      <trkpt lat="47.25119" lon="5.70547">
        <ele>211.943121</ele>
        <time>2020-10-11T09:38:14.518Z</time>
      </trkpt>
      <trkpt lat="47.25121" lon="5.70548">
        <ele>211.963182</ele>
        <time>2020-10-11T09:38:15.020Z</time>
      </trkpt>
      <trkpt lat="47.25123" lon="5.70559">
        <ele>212.065031</ele>
        <time>2020-10-11T09:38:18.769Z</time>
      </trkpt>
      <trkpt lat="47.25119" lon="5.70634">
        <ele>212.709659</ele>
        <time>2020-10-11T09:38:33.111Z</time>
      </trkpt>
      <trkpt lat="47.25122" lon="5.70671">
        <ele>213.022149</ele>
        <time>2020-10-11T09:38:40.966Z</time>
      </trkpt>
      <trkpt lat="47.25128" lon="5.70709">
        <ele>213.283692</ele>
        <time>2020-10-11T09:38:47.605Z</time>
      </trkpt>
      <trkpt lat="47.2516" lon="5.70904">
        <ele>212.288647</ele>
        <time>2020-10-11T09:39:13.026Z</time>
      </trkpt>
      <trkpt lat="47.25173" lon="5.70979">
        <ele>211.928659</ele>
        <time>2020-10-11T09:39:20.699Z</time>
      </trkpt>
      <trkpt lat="47.25202" lon="5.71169">
        <ele>211.233764</ele>
        <time>2020-10-11T09:39:42.465Z</time>
      </trkpt>
      <trkpt lat="47.25212" lon="5.71198">
        <ele>211.1172</ele>
        <time>2020-10-11T09:39:48.381Z</time>
      </trkpt>
      <trkpt lat="47.25282" lon="5.71356">
        <ele>215.72326</ele>
        <time>2020-10-11T09:40:39.268Z</time>
      </trkpt>
      <trkpt lat="47.2529" lon="5.71381">
        <ele>216.479862</ele>
        <time>2020-10-11T09:40:49.037Z</time>
      </trkpt>
      <trkpt lat="47.25295" lon="5.71404">
        <ele>217.169076</ele>
        <time>2020-10-11T09:40:58.907Z</time>
      </trkpt>
      <trkpt lat="47.2531" lon="5.71522">
        <ele>220.701066</ele>
        <time>2020-10-11T09:41:43.258Z</time>
      </trkpt>
      <trkpt lat="47.25321" lon="5.71608">
        <ele>223.402411</ele>
        <time>2020-10-11T09:42:13.934Z</time>
      </trkpt>
      <trkpt lat="47.25322" lon="5.71615">
        <ele>223.621604</ele>
        <time>2020-10-11T09:42:15.990Z</time>
      </trkpt>
      <trkpt lat="47.25326" lon="5.71646">
        <ele>224.567455</ele>
        <time>2020-10-11T09:42:24.520Z</time>
      </trkpt>
      <trkpt lat="47.25336" lon="5.71688">
        <ele>225.935584</ele>
        <time>2020-10-11T09:42:35.391Z</time>
      </trkpt>
      <trkpt lat="47.25339" lon="5.717">
        <ele>226.322964</ele>
        <time>2020-10-11T09:42:38.722Z</time>
      </trkpt>
      <trkpt lat="47.25344" lon="5.71715">
        <ele>226.524619</ele>
        <time>2020-10-11T09:42:42.259Z</time>
      </trkpt>
      <trkpt lat="47.25366" lon="5.71755">
        <ele>226.686862</ele>
        <time>2020-10-11T09:42:53.585Z</time>
      </trkpt>
      <trkpt lat="47.254" lon="5.71816">
        <ele>226.939693</ele>
        <time>2020-10-11T09:43:07.282Z</time>
      </trkpt>
      <trkpt lat="47.2542" lon="5.71856">
        <ele>227.096563</ele>
        <time>2020-10-11T09:43:13.394Z</time>
      </trkpt>
      <trkpt lat="47.25441" lon="5.71919">
        <ele>227.320126</ele>
        <time>2020-10-11T09:43:21.315Z</time>
      </trkpt>
      <trkpt lat="47.25452" lon="5.71994">
        <ele>226.95902</ele>
        <time>2020-10-11T09:43:30.316Z</time>
      </trkpt>
      <trkpt lat="47.25452" lon="5.72047">
        <ele>226.694669</ele>
        <time>2020-10-11T09:43:36.652Z</time>
      </trkpt>
      <trkpt lat="47.25453" lon="5.72124">
        <ele>226.30421</ele>
        <time>2020-10-11T09:43:46.315Z</time>
      </trkpt>
      <trkpt lat="47.25454" lon="5.72188">
        <ele>225.986532</ele>
        <time>2020-10-11T09:43:54.201Z</time>
      </trkpt>
      <trkpt lat="47.25458" lon="5.72264">
        <ele>225.768108</ele>
        <time>2020-10-11T09:44:03.373Z</time>
      </trkpt>
      <trkpt lat="47.25462" lon="5.72344">
        <ele>225.536416</ele>
        <time>2020-10-11T09:44:13.473Z</time>
      </trkpt>
      <trkpt lat="47.25466" lon="5.72424">
        <ele>225.305874</ele>
        <time>2020-10-11T09:44:23.956Z</time>
      </trkpt>
      <trkpt lat="47.25455" lon="5.72862">
        <ele>226.090822</ele>
        <time>2020-10-11T09:45:29.891Z</time>
      </trkpt>
      <trkpt lat="47.25451" lon="5.7296">
        <ele>226.438823</ele>
        <time>2020-10-11T09:45:46.629Z</time>
      </trkpt>
      <trkpt lat="47.25455" lon="5.73021">
        <ele>226.700189</ele>
        <time>2020-10-11T09:45:57.494Z</time>
      </trkpt>
      <trkpt lat="47.25498" lon="5.73302">
        <ele>227.453692</ele>
        <time>2020-10-11T09:46:45.578Z</time>
      </trkpt>
      <trkpt lat="47.2551" lon="5.73381">
        <ele>227.098913</ele>
        <time>2020-10-11T09:46:55.957Z</time>
      </trkpt>
      <trkpt lat="47.25516" lon="5.73415">
        <ele>226.94655</ele>
        <time>2020-10-11T09:47:00.143Z</time>
      </trkpt>
      <trkpt lat="47.25522" lon="5.73443">
        <ele>226.814165</ele>
        <time>2020-10-11T09:47:03.574Z</time>
      </trkpt>
      <trkpt lat="47.25529" lon="5.73469">
        <ele>226.691345</ele>
        <time>2020-10-11T09:47:06.655Z</time>
      </trkpt>
      <trkpt lat="47.25576" lon="5.73581">
        <ele>224.598717</ele>
        <time>2020-10-11T09:47:20.234Z</time>
      </trkpt>
      <trkpt lat="47.25733" lon="5.7382">
        <ele>217.994651</ele>
        <time>2020-10-11T09:47:52.024Z</time>
      </trkpt>
      <trkpt lat="47.25752" lon="5.73848">
        <ele>217.173119</ele>
        <time>2020-10-11T09:47:55.811Z</time>
      </trkpt>
      <trkpt lat="47.25771" lon="5.7388">
        <ele>216.288229</ele>
        <time>2020-10-11T09:48:00.048Z</time>
      </trkpt>
      <trkpt lat="47.25785" lon="5.73906">
        <ele>215.870976</ele>
        <time>2020-10-11T09:48:03.559Z</time>
      </trkpt>
      <trkpt lat="47.25795" lon="5.73928">
        <ele>215.669298</ele>
        <time>2020-10-11T09:48:06.218Z</time>
      </trkpt>
      <trkpt lat="47.2583" lon="5.74036">
        <ele>214.724753</ele>
        <time>2020-10-11T09:48:19.378Z</time>
      </trkpt>
      <trkpt lat="47.25836" lon="5.74068">
        <ele>214.4658</ele>
        <time>2020-10-11T09:48:23.751Z</time>
      </trkpt>
      <trkpt lat="47.2584" lon="5.7411">
        <ele>214.132023</ele>
        <time>2020-10-11T09:48:29.693Z</time>
      </trkpt>
      <trkpt lat="47.25847" lon="5.74165">
        <ele>213.883808</ele>
        <time>2020-10-11T09:48:38.323Z</time>
      </trkpt>
      <trkpt lat="47.25869" lon="5.74278">
        <ele>213.594987</ele>
        <time>2020-10-11T09:48:56.168Z</time>
      </trkpt>
      <trkpt lat="47.25888" lon="5.74375">
        <ele>213.348626</ele>
        <time>2020-10-11T09:49:08.340Z</time>
      </trkpt>
      <trkpt lat="47.25905" lon="5.74445">
        <ele>212.198917</ele>
        <time>2020-10-11T09:49:16.268Z</time>
      </trkpt>
      <trkpt lat="47.25914" lon="5.74476">
        <ele>211.589638</ele>
        <time>2020-10-11T09:49:19.777Z</time>
      </trkpt>
      <trkpt lat="47.25971" lon="5.74696">
        <ele>207.708388</ele>
        <time>2020-10-11T09:49:42.443Z</time>
      </trkpt>
      <trkpt lat="47.25972" lon="5.74703">
        <ele>207.614007</ele>
        <time>2020-10-11T09:49:43.031Z</time>
      </trkpt>
      <trkpt lat="47.26021" lon="5.74892">
        <ele>205.124615</ele>
        <time>2020-10-11T09:50:05.075Z</time>
      </trkpt>
      <trkpt lat="47.26028" lon="5.7492">
        <ele>205.277888</ele>
        <time>2020-10-11T09:50:10.284Z</time>
      </trkpt>
      <trkpt lat="47.2612" lon="5.75274">
        <ele>207.863186</ele>
        <time>2020-10-11T09:51:22.491Z</time>
      </trkpt>
      <trkpt lat="47.26179" lon="5.75435">
        <ele>209.74049</ele>
        <time>2020-10-11T09:51:58.902Z</time>
      </trkpt>
      <trkpt lat="47.26197" lon="5.75502">
        <ele>210.555234</ele>
        <time>2020-10-11T09:52:13.784Z</time>
      </trkpt>
      <trkpt lat="47.26202" lon="5.75562">
        <ele>211.247002</ele>
        <time>2020-10-11T09:52:26.143Z</time>
      </trkpt>
      <trkpt lat="47.26205" lon="5.75623">
        <ele>211.954582</ele>
        <time>2020-10-11T09:52:38.457Z</time>
      </trkpt>
      <trkpt lat="47.26213" lon="5.75677">
        <ele>212.709109</ele>
        <time>2020-10-11T09:52:50.344Z</time>
      </trkpt>
      <trkpt lat="47.26217" lon="5.75696">
        <ele>212.975866</ele>
        <time>2020-10-11T09:52:55.448Z</time>
      </trkpt>
      <trkpt lat="47.26226" lon="5.7572">
        <ele>213.346727</ele>
        <time>2020-10-11T09:53:01.064Z</time>
      </trkpt>
      <trkpt lat="47.26243" lon="5.75748">
        <ele>213.854551</ele>
        <time>2020-10-11T09:53:09.935Z</time>
      </trkpt>
      <trkpt lat="47.2626" lon="5.75764">
        <ele>214.252473</ele>
        <time>2020-10-11T09:53:16.913Z</time>
      </trkpt>
      <trkpt lat="47.26267" lon="5.7577">
        <ele>214.427152</ele>
        <time>2020-10-11T09:53:20.046Z</time>
      </trkpt>
      <trkpt lat="47.26262" lon="5.75804">
        <ele>214.900937</ele>
        <time>2020-10-11T09:53:27.139Z</time>
      </trkpt>
      <trkpt lat="47.26259" lon="5.75815">
        <ele>215.065055</ele>
        <time>2020-10-11T09:53:30.429Z</time>
      </trkpt>
      <trkpt lat="47.2625" lon="5.75858">
        <ele>215.59175</ele>
        <time>2020-10-11T09:53:39.128Z</time>
      </trkpt>
      <trkpt lat="47.26249" lon="5.75893">
        <ele>215.823522</ele>
        <time>2020-10-11T09:53:45.631Z</time>
      </trkpt>
      <trkpt lat="47.2625" lon="5.75903">
        <ele>215.893714</ele>
        <time>2020-10-11T09:53:48.120Z</time>
      </trkpt>
      <trkpt lat="47.26251" lon="5.75915">
        <ele>215.97456</ele>
        <time>2020-10-11T09:53:50.701Z</time>
      </trkpt>
      <trkpt lat="47.26258" lon="5.75954">
        <ele>216.240506</ele>
        <time>2020-10-11T09:53:57.837Z</time>
      </trkpt>
      <trkpt lat="47.26297" lon="5.76109">
        <ele>217.254145</ele>
        <time>2020-10-11T09:54:26.821Z</time>
      </trkpt>
      <trkpt lat="47.26342" lon="5.76288">
        <ele>216.741739</ele>
        <time>2020-10-11T09:54:50.872Z</time>
      </trkpt>
      <trkpt lat="47.26398" lon="5.76513">
        <ele>215.866743</ele>
        <time>2020-10-11T09:55:19.216Z</time>
      </trkpt>
      <trkpt lat="47.26452" lon="5.76647">
        <ele>215.739767</ele>
        <time>2020-10-11T09:55:40.439Z</time>
      </trkpt>
      <trkpt lat="47.26493" lon="5.76739">
        <ele>216.137352</ele>
        <time>2020-10-11T09:55:58.803Z</time>
      </trkpt>
      <trkpt lat="47.26527" lon="5.76809">
        <ele>216.442375</ele>
        <time>2020-10-11T09:56:13.952Z</time>
      </trkpt>
      <trkpt lat="47.26534" lon="5.76829">
        <ele>216.542931</ele>
        <time>2020-10-11T09:56:18.154Z</time>
      </trkpt>
      <trkpt lat="47.26565" lon="5.76978">
        <ele>217.261633</ele>
        <time>2020-10-11T09:56:45.084Z</time>
      </trkpt>
      <trkpt lat="47.2658" lon="5.77073">
        <ele>217.700179</ele>
        <time>2020-10-11T09:56:59.268Z</time>
      </trkpt>
      <trkpt lat="47.26588" lon="5.77251">
        <ele>218.23712</ele>
        <time>2020-10-11T09:57:28.998Z</time>
      </trkpt>
      <trkpt lat="47.26589" lon="5.77275">
        <ele>218.307417</ele>
        <time>2020-10-11T09:57:32.990Z</time>
      </trkpt>
      <trkpt lat="47.2659" lon="5.77311">
        <ele>218.415283</ele>
        <time>2020-10-11T09:57:38.558Z</time>
      </trkpt>
      <trkpt lat="47.26591" lon="5.7733">
        <ele>218.472387</ele>
        <time>2020-10-11T09:57:41.181Z</time>
      </trkpt>
      <trkpt lat="47.26592" lon="5.77363">
        <ele>218.577217</ele>
        <time>2020-10-11T09:57:45.640Z</time>
      </trkpt>
      <trkpt lat="47.266" lon="5.77389">
        <ele>218.664355</ele>
        <time>2020-10-11T09:57:49.478Z</time>
      </trkpt>
      <trkpt lat="47.26624" lon="5.7743">
        <ele>218.835571</ele>
        <time>2020-10-11T09:57:57.506Z</time>
      </trkpt>
      <trkpt lat="47.26638" lon="5.77446">
        <ele>218.913106</ele>
        <time>2020-10-11T09:58:01.667Z</time>
      </trkpt>
      <trkpt lat="47.26701" lon="5.77485">
        <ele>219.228468</ele>
        <time>2020-10-11T09:58:18.823Z</time>
      </trkpt>
      <trkpt lat="47.26737" lon="5.7751">
        <ele>219.701153</ele>
        <time>2020-10-11T09:58:28.269Z</time>
      </trkpt>
      <trkpt lat="47.26749" lon="5.77518">
        <ele>219.908393</ele>
        <time>2020-10-11T09:58:31.004Z</time>
      </trkpt>
      <trkpt lat="47.26747" lon="5.77531">
        <ele>220.060996</ele>
        <time>2020-10-11T09:58:34.008Z</time>
      </trkpt>
      <trkpt lat="47.26753" lon="5.7771">
        <ele>222.03852</ele>
        <time>2020-10-11T09:59:10.456Z</time>
      </trkpt>
      <trkpt lat="47.26753" lon="5.77732">
        <ele>222.365033</ele>
        <time>2020-10-11T09:59:16.457Z</time>
      </trkpt>
      <trkpt lat="47.26738" lon="5.77755">
        <ele>223.176044</ele>
        <time>2020-10-11T09:59:24.669Z</time>
      </trkpt>
      <trkpt lat="47.26732" lon="5.77773">
        <ele>223.675915</ele>
        <time>2020-10-11T09:59:29.884Z</time>
      </trkpt>
      <trkpt lat="47.26733" lon="5.7778">
        <ele>223.855083</ele>
        <time>2020-10-11T09:59:31.743Z</time>
      </trkpt>
      <trkpt lat="47.26738" lon="5.77826">
        <ele>225.052246</ele>
        <time>2020-10-11T09:59:44.579Z</time>
      </trkpt>
      <trkpt lat="47.26758" lon="5.77978">
        <ele>228.973056</ele>
        <time>2020-10-11T10:00:31.201Z</time>
      </trkpt>
      <trkpt lat="47.26757" lon="5.78028">
        <ele>230.515474</ele>
        <time>2020-10-11T10:00:47.325Z</time>
      </trkpt>
      <trkpt lat="47.26747" lon="5.78075">
        <ele>232.040595</ele>
        <time>2020-10-11T10:01:03.461Z</time>
      </trkpt>
      <trkpt lat="47.26728" lon="5.78141">
        <ele>234.265525</ele>
        <time>2020-10-11T10:01:27.023Z</time>
      </trkpt>
      <trkpt lat="47.26714" lon="5.78236">
        <ele>237.249626</ele>
        <time>2020-10-11T10:01:58.353Z</time>
      </trkpt>
      <trkpt lat="47.26713" lon="5.78244">
        <ele>237.372548</ele>
        <time>2020-10-11T10:02:01.265Z</time>
      </trkpt>
      <trkpt lat="47.26686" lon="5.78443">
        <ele>240.675735</ele>
        <time>2020-10-11T10:02:51.614Z</time>
      </trkpt>
      <trkpt lat="47.26681" lon="5.78482">
        <ele>241.308894</ele>
        <time>2020-10-11T10:02:58.933Z</time>
      </trkpt>
      <trkpt lat="47.26608" lon="5.78825">
        <ele>239.503591</ele>
        <time>2020-10-11T10:03:40.812Z</time>
      </trkpt>
      <trkpt lat="47.26596" lon="5.78901">
        <ele>238.824557</ele>
        <time>2020-10-11T10:03:49.205Z</time>
      </trkpt>
      <trkpt lat="47.26595" lon="5.78922">
        <ele>238.638854</ele>
        <time>2020-10-11T10:03:51.427Z</time>
      </trkpt>
      <trkpt lat="47.26595" lon="5.78944">
        <ele>238.44198</ele>
        <time>2020-10-11T10:03:53.921Z</time>
      </trkpt>
      <trkpt lat="47.26599" lon="5.79">
        <ele>237.954369</ele>
        <time>2020-10-11T10:04:00.150Z</time>
      </trkpt>
      <trkpt lat="47.26618" lon="5.79388">
        <ele>234.998136</ele>
        <time>2020-10-11T10:04:47.229Z</time>
      </trkpt>
      <trkpt lat="47.26611" lon="5.79516">
        <ele>233.496921</ele>
        <time>2020-10-11T10:05:00.294Z</time>
      </trkpt>
      <trkpt lat="47.2659" lon="5.79729">
        <ele>229.631202</ele>
        <time>2020-10-11T10:05:21.201Z</time>
      </trkpt>
      <trkpt lat="47.26585" lon="5.79783">
        <ele>228.638806</ele>
        <time>2020-10-11T10:05:26.609Z</time>
      </trkpt>
      <trkpt lat="47.26582" lon="5.79808">
        <ele>228.382115</ele>
        <time>2020-10-11T10:05:29.334Z</time>
      </trkpt>
      <trkpt lat="47.26578" lon="5.7983">
        <ele>228.324197</ele>
        <time>2020-10-11T10:05:31.777Z</time>
      </trkpt>
      <trkpt lat="47.26574" lon="5.79849">
        <ele>228.274197</ele>
        <time>2020-10-11T10:05:34.075Z</time>
      </trkpt>
      <trkpt lat="47.26556" lon="5.79944">
        <ele>228.028534</ele>
        <time>2020-10-11T10:05:46.405Z</time>
      </trkpt>
      <trkpt lat="47.26548" lon="5.79985">
        <ele>227.922631</ele>
        <time>2020-10-11T10:05:53.073Z</time>
      </trkpt>
      <trkpt lat="47.26523" lon="5.80068">
        <ele>227.949719</ele>
        <time>2020-10-11T10:06:08.859Z</time>
      </trkpt>
      <trkpt lat="47.26512" lon="5.80128">
        <ele>228.480308</ele>
        <time>2020-10-11T10:06:20.932Z</time>
      </trkpt>
      <trkpt lat="47.26492" lon="5.80327">
        <ele>230.098091</ele>
        <time>2020-10-11T10:06:59.998Z</time>
      </trkpt>
      <trkpt lat="47.26494" lon="5.80366">
        <ele>230.250797</ele>
        <time>2020-10-11T10:07:07.010Z</time>
      </trkpt>
      <trkpt lat="47.26501" lon="5.80421">
        <ele>230.46765</ele>
        <time>2020-10-11T10:07:16.699Z</time>
      </trkpt>
      <trkpt lat="47.2659" lon="5.81216">
        <ele>232.239749</ele>
        <time>2020-10-11T10:09:23.416Z</time>
      </trkpt>
      <trkpt lat="47.26594" lon="5.81247">
        <ele>232.093321</ele>
        <time>2020-10-11T10:09:27.262Z</time>
      </trkpt>
      <trkpt lat="47.26642" lon="5.81528">
        <ele>228.346746</ele>
        <time>2020-10-11T10:09:57.659Z</time>
      </trkpt>
      <trkpt lat="47.26649" lon="5.81558">
        <ele>227.779142</ele>
        <time>2020-10-11T10:10:00.664Z</time>
      </trkpt>
      <trkpt lat="47.26665" lon="5.81592">
        <ele>227.046928</ele>
        <time>2020-10-11T10:10:04.595Z</time>
      </trkpt>
      <trkpt lat="47.26921" lon="5.81892">
        <ele>213.213644</ele>
        <time>2020-10-11T10:10:48.556Z</time>
      </trkpt>
      <trkpt lat="47.26929" lon="5.81908">
        <ele>212.659004</ele>
        <time>2020-10-11T10:10:50.469Z</time>
      </trkpt>
      <trkpt lat="47.2693" lon="5.8192">
        <ele>212.312562</ele>
        <time>2020-10-11T10:10:51.568Z</time>
      </trkpt>
      <trkpt lat="47.26916" lon="5.82017">
        <ele>210.683028</ele>
        <time>2020-10-11T10:11:01.313Z</time>
      </trkpt>
      <trkpt lat="47.27073" lon="5.82081">
        <ele>208.375262</ele>
        <time>2020-10-11T10:11:27.995Z</time>
      </trkpt>
      <trkpt lat="47.27089" lon="5.82091">
        <ele>208.426378</ele>
        <time>2020-10-11T10:11:31.647Z</time>
      </trkpt>
      <trkpt lat="47.27155" lon="5.82167">
        <ele>208.659673</ele>
        <time>2020-10-11T10:11:50.584Z</time>
      </trkpt>
      <trkpt lat="47.27168" lon="5.82177">
        <ele>208.700739</ele>
        <time>2020-10-11T10:11:54.376Z</time>
      </trkpt>
      <trkpt lat="47.27171" lon="5.822">
        <ele>208.745495</ele>
        <time>2020-10-11T10:11:58.933Z</time>
      </trkpt>
      <trkpt lat="47.27174" lon="5.8222">
        <ele>208.783832</ele>
        <time>2020-10-11T10:12:02.922Z</time>
      </trkpt>
      <trkpt lat="47.27177" lon="5.82232">
        <ele>209.032732</ele>
        <time>2020-10-11T10:12:05.512Z</time>
      </trkpt>
      <trkpt lat="47.27182" lon="5.82255">
        <ele>209.541484</ele>
        <time>2020-10-11T10:12:10.636Z</time>
      </trkpt>
      <trkpt lat="47.27188" lon="5.82291">
        <ele>210.346902</ele>
        <time>2020-10-11T10:12:18.716Z</time>
      </trkpt>
      <trkpt lat="47.272" lon="5.82352">
        <ele>211.698166</ele>
        <time>2020-10-11T10:12:33.958Z</time>
      </trkpt>
      <trkpt lat="47.27265" lon="5.82682">
        <ele>220.41527</ele>
        <time>2020-10-11T10:14:20.037Z</time>
      </trkpt>
      <trkpt lat="47.27267" lon="5.82692">
        <ele>220.711909</ele>
        <time>2020-10-11T10:14:23.918Z</time>
      </trkpt>
      <trkpt lat="47.27278" lon="5.82744">
        <ele>221.982236</ele>
        <time>2020-10-11T10:14:37.575Z</time>
      </trkpt>
      <trkpt lat="47.2728" lon="5.82755">
        <ele>222.126911</ele>
        <time>2020-10-11T10:14:40.363Z</time>
      </trkpt>
      <trkpt lat="47.27282" lon="5.82767">
        <ele>222.268984</ele>
        <time>2020-10-11T10:14:42.984Z</time>
      </trkpt>
      <trkpt lat="47.27297" lon="5.82847">
        <ele>223.262845</ele>
        <time>2020-10-11T10:15:02.292Z</time>
      </trkpt>
      <trkpt lat="47.27301" lon="5.82877">
        <ele>223.632118</ele>
        <time>2020-10-11T10:15:08.167Z</time>
      </trkpt>
      <trkpt lat="47.27305" lon="5.82927">
        <ele>224.229577</ele>
        <time>2020-10-11T10:15:18.258Z</time>
      </trkpt>
      <trkpt lat="47.27304" lon="5.82939">
        <ele>224.366492</ele>
        <time>2020-10-11T10:15:20.063Z</time>
      </trkpt>
      <trkpt lat="47.27302" lon="5.82945">
        <ele>224.448905</ele>
        <time>2020-10-11T10:15:21.244Z</time>
      </trkpt>
      <trkpt lat="47.27248" lon="5.83101">
        <ele>225.390622</ele>
        <time>2020-10-11T10:15:47.720Z</time>
      </trkpt>
      <trkpt lat="47.27215" lon="5.83192">
        <ele>225.712117</ele>
        <time>2020-10-11T10:16:04.852Z</time>
      </trkpt>
      <trkpt lat="47.27183" lon="5.83265">
        <ele>225.885396</ele>
        <time>2020-10-11T10:16:18.785Z</time>
      </trkpt>
      <trkpt lat="47.27174" lon="5.83288">
        <ele>225.922035</ele>
        <time>2020-10-11T10:16:22.815Z</time>
      </trkpt>
      <trkpt lat="47.2717" lon="5.83295">
        <ele>225.935479</ele>
        <time>2020-10-11T10:16:24.294Z</time>
      </trkpt>
      <trkpt lat="47.27112" lon="5.83401">
        <ele>226.124836</ele>
        <time>2020-10-11T10:16:43.878Z</time>
      </trkpt>
      <trkpt lat="47.271" lon="5.83426">
        <ele>226.167718</ele>
        <time>2020-10-11T10:16:47.928Z</time>
      </trkpt>
      <trkpt lat="47.27085" lon="5.83455">
        <ele>226.218417</ele>
        <time>2020-10-11T10:16:52.752Z</time>
      </trkpt>
      <trkpt lat="47.27017" lon="5.83654">
        <ele>226.529525</ele>
        <time>2020-10-11T10:17:26.427Z</time>
      </trkpt>
      <trkpt lat="47.27006" lon="5.83686">
        <ele>226.588705</ele>
        <time>2020-10-11T10:17:32.189Z</time>
      </trkpt>
      <trkpt lat="47.26965" lon="5.83815">
        <ele>226.845747</ele>
        <time>2020-10-11T10:17:53.944Z</time>
      </trkpt>
      <trkpt lat="47.26955" lon="5.83845">
        <ele>226.906558</ele>
        <time>2020-10-11T10:17:58.879Z</time>
      </trkpt>
      <trkpt lat="47.26945" lon="5.83875">
        <ele>226.965549</ele>
        <time>2020-10-11T10:18:03.258Z</time>
      </trkpt>
      <trkpt lat="47.2689" lon="5.84057">
        <ele>227.586935</ele>
        <time>2020-10-11T10:18:34.491Z</time>
      </trkpt>
      <trkpt lat="47.26881" lon="5.84079">
        <ele>227.671748</ele>
        <time>2020-10-11T10:18:38.709Z</time>
      </trkpt>
      <trkpt lat="47.26873" lon="5.84087">
        <ele>227.721374</ele>
        <time>2020-10-11T10:18:41.464Z</time>
      </trkpt>
      <trkpt lat="47.26863" lon="5.84092">
        <ele>227.772503</ele>
        <time>2020-10-11T10:18:43.797Z</time>
      </trkpt>
      <trkpt lat="47.26851" lon="5.84093">
        <ele>227.835727</ele>
        <time>2020-10-11T10:18:46.965Z</time>
      </trkpt>
      <trkpt lat="47.26848" lon="5.84177">
        <ele>227.776863</ele>
        <time>2020-10-11T10:19:01.050Z</time>
      </trkpt>
      <trkpt lat="47.26845" lon="5.84215">
        <ele>227.683901</ele>
        <time>2020-10-11T10:19:07.640Z</time>
      </trkpt>
      <trkpt lat="47.2684" lon="5.84247">
        <ele>227.60511</ele>
        <time>2020-10-11T10:19:12.814Z</time>
      </trkpt>
      <trkpt lat="47.26761" lon="5.8465">
        <ele>224.504412</ele>
        <time>2020-10-11T10:19:59.805Z</time>
      </trkpt>
      <trkpt lat="47.26717" lon="5.8491">
        <ele>221.966162</ele>
        <time>2020-10-11T10:20:27.319Z</time>
      </trkpt>
      <trkpt lat="47.2669" lon="5.85072">
        <ele>224.526282</ele>
        <time>2020-10-11T10:21:00.683Z</time>
      </trkpt>
      <trkpt lat="47.2667" lon="5.85175">
        <ele>227.238663</ele>
        <time>2020-10-11T10:21:38.592Z</time>
      </trkpt>
      <trkpt lat="47.26649" lon="5.85287">
        <ele>232.888468</ele>
        <time>2020-10-11T10:22:27.768Z</time>
      </trkpt>
      <trkpt lat="47.26602" lon="5.85449">
        <ele>241.249269</ele>
        <time>2020-10-11T10:23:46.570Z</time>
      </trkpt>
      <trkpt lat="47.26491" lon="5.85745">
        <ele>255.589189</ele>
        <time>2020-10-11T10:25:52.418Z</time>
      </trkpt>
      <trkpt lat="47.26465" lon="5.858">
        <ele>258.179528</ele>
        <time>2020-10-11T10:26:15.728Z</time>
      </trkpt>
      <trkpt lat="47.26415" lon="5.85896">
        <ele>262.201654</ele>
        <time>2020-10-11T10:26:57.964Z</time>
      </trkpt>
      <trkpt lat="47.26387" lon="5.85944">
        <ele>263.892938</ele>
        <time>2020-10-11T10:27:18.966Z</time>
      </trkpt>
      <trkpt lat="47.26336" lon="5.86012">
        <ele>266.582938</ele>
        <time>2020-10-11T10:27:47.180Z</time>
      </trkpt>
      <trkpt lat="47.26322" lon="5.86028">
        <ele>267.29135</ele>
        <time>2020-10-11T10:27:54.113Z</time>
      </trkpt>
      <trkpt lat="47.26309" lon="5.86047">
        <ele>267.795193</ele>
        <time>2020-10-11T10:27:59.077Z</time>
      </trkpt>
      <trkpt lat="47.26289" lon="5.8611">
        <ele>267.664581</ele>
        <time>2020-10-11T10:28:12.089Z</time>
      </trkpt>
      <trkpt lat="47.26287" lon="5.86131">
        <ele>267.623335</ele>
        <time>2020-10-11T10:28:15.348Z</time>
      </trkpt>
      <trkpt lat="47.26279" lon="5.86219">
        <ele>267.45684</ele>
        <time>2020-10-11T10:28:26.596Z</time>
      </trkpt>
      <trkpt lat="47.26268" lon="5.86307">
        <ele>267.151336</ele>
        <time>2020-10-11T10:28:35.779Z</time>
      </trkpt>
      <trkpt lat="47.26245" lon="5.86437">
        <ele>265.263903</ele>
        <time>2020-10-11T10:28:49.519Z</time>
      </trkpt>
      <trkpt lat="47.26234" lon="5.86492">
        <ele>264.455597</ele>
        <time>2020-10-11T10:28:55.579Z</time>
      </trkpt>
      <trkpt lat="47.26205" lon="5.86638">
        <ele>262.500553</ele>
        <time>2020-10-11T10:29:11.785Z</time>
      </trkpt>
      <trkpt lat="47.26155" lon="5.86855">
        <ele>259.25179</ele>
        <time>2020-10-11T10:29:36.441Z</time>
      </trkpt>
      <trkpt lat="47.26151" lon="5.86916">
        <ele>257.932065</ele>
        <time>2020-10-11T10:29:42.412Z</time>
      </trkpt>
      <trkpt lat="47.26158" lon="5.86962">
        <ele>256.922903</ele>
        <time>2020-10-11T10:29:46.944Z</time>
      </trkpt>
      <trkpt lat="47.26164" lon="5.87006">
        <ele>255.969245</ele>
        <time>2020-10-11T10:29:51.233Z</time>
      </trkpt>
      <trkpt lat="47.26166" lon="5.8702">
        <ele>255.662266</ele>
        <time>2020-10-11T10:29:52.569Z</time>
      </trkpt>
      <trkpt lat="47.26173" lon="5.87094">
        <ele>253.609682</ele>
        <time>2020-10-11T10:29:59.536Z</time>
      </trkpt>
      <trkpt lat="47.26179" lon="5.87114">
        <ele>252.840203</ele>
        <time>2020-10-11T10:30:01.414Z</time>
      </trkpt>
      <trkpt lat="47.26241" lon="5.87244">
        <ele>247.069183</ele>
        <time>2020-10-11T10:30:15.475Z</time>
      </trkpt>
      <trkpt lat="47.26257" lon="5.87272">
        <ele>245.725944</ele>
        <time>2020-10-11T10:30:18.734Z</time>
      </trkpt>
      <trkpt lat="47.26282" lon="5.8732">
        <ele>243.258462</ele>
        <time>2020-10-11T10:30:23.999Z</time>
      </trkpt>
      <trkpt lat="47.26297" lon="5.87402">
        <ele>239.671854</ele>
        <time>2020-10-11T10:30:31.316Z</time>
      </trkpt>
      <trkpt lat="47.26301" lon="5.87448">
        <ele>237.714696</ele>
        <time>2020-10-11T10:30:35.283Z</time>
      </trkpt>
      <trkpt lat="47.26302" lon="5.8751">
        <ele>235.065117</ele>
        <time>2020-10-11T10:30:40.700Z</time>
      </trkpt>
      <trkpt lat="47.26299" lon="5.8757">
        <ele>232.777772</ele>
        <time>2020-10-11T10:30:45.973Z</time>
      </trkpt>
      <trkpt lat="47.26284" lon="5.87689">
        <ele>228.618874</ele>
        <time>2020-10-11T10:30:56.630Z</time>
      </trkpt>
      <trkpt lat="47.26241" lon="5.87899">
        <ele>223.408419</ele>
        <time>2020-10-11T10:31:17.043Z</time>
      </trkpt>
      <trkpt lat="47.26238" lon="5.87947">
        <ele>222.803992</ele>
        <time>2020-10-11T10:31:22.112Z</time>
      </trkpt>
      <trkpt lat="47.26235" lon="5.88003">
        <ele>222.091991</ele>
        <time>2020-10-11T10:31:29.093Z</time>
      </trkpt>
      <trkpt lat="47.26233" lon="5.88041">
        <ele>221.612201</ele>
        <time>2020-10-11T10:31:34.687Z</time>
      </trkpt>
      <trkpt lat="47.26228" lon="5.88109">
        <ele>222.22418</ele>
        <time>2020-10-11T10:31:47.094Z</time>
      </trkpt>
      <trkpt lat="47.26218" lon="5.88162">
        <ele>223.045208</ele>
        <time>2020-10-11T10:31:59.351Z</time>
      </trkpt>
      <trkpt lat="47.26203" lon="5.88209">
        <ele>223.835827</ele>
        <time>2020-10-11T10:32:12.680Z</time>
      </trkpt>
      <trkpt lat="47.26183" lon="5.88259">
        <ele>224.699554</ele>
        <time>2020-10-11T10:32:28.479Z</time>
      </trkpt>
      <trkpt lat="47.26116" lon="5.8842">
        <ele>226.706844</ele>
        <time>2020-10-11T10:33:12.900Z</time>
      </trkpt>
      <trkpt lat="47.26099" lon="5.88481">
        <ele>227.318685</ele>
        <time>2020-10-11T10:33:23.985Z</time>
      </trkpt>
      <trkpt lat="47.26093" lon="5.88538">
        <ele>227.838669</ele>
        <time>2020-10-11T10:33:32.198Z</time>
      </trkpt>
      <trkpt lat="47.26095" lon="5.88936">
        <ele>225.493926</ele>
        <time>2020-10-11T10:34:16.648Z</time>
      </trkpt>
      <trkpt lat="47.26091" lon="5.89089">
        <ele>225.677872</ele>
        <time>2020-10-11T10:34:41.246Z</time>
      </trkpt>
      <trkpt lat="47.2609" lon="5.89102">
        <ele>225.948036</ele>
        <time>2020-10-11T10:34:43.970Z</time>
      </trkpt>
      <trkpt lat="47.26087" lon="5.89155">
        <ele>226.990778</ele>
        <time>2020-10-11T10:34:55.450Z</time>
      </trkpt>
      <trkpt lat="47.26043" lon="5.89666">
        <ele>238.565377</ele>
        <time>2020-10-11T10:37:23.036Z</time>
      </trkpt>
      <trkpt lat="47.26008" lon="5.8997">
        <ele>243.185104</ele>
        <time>2020-10-11T10:38:29.560Z</time>
      </trkpt>
      <trkpt lat="47.26003" lon="5.89985">
        <ele>243.380434</ele>
        <time>2020-10-11T10:38:32.962Z</time>
      </trkpt>
      <trkpt lat="47.25996" lon="5.89983">
        <ele>243.487576</ele>
        <time>2020-10-11T10:38:34.600Z</time>
      </trkpt>
      <trkpt lat="47.25991" lon="5.89988">
        <ele>243.595255</ele>
        <time>2020-10-11T10:38:36.223Z</time>
      </trkpt>
      <trkpt lat="47.25989" lon="5.89993">
        <ele>243.665961</ele>
        <time>2020-10-11T10:38:37.405Z</time>
      </trkpt>
      <trkpt lat="47.25989" lon="5.9">
        <ele>243.738159</ele>
        <time>2020-10-11T10:38:38.623Z</time>
      </trkpt>
      <trkpt lat="47.25992" lon="5.90007">
        <ele>243.840563</ele>
        <time>2020-10-11T10:38:40.576Z</time>
      </trkpt>
      <trkpt lat="47.25997" lon="5.90022">
        <ele>244.028946</ele>
        <time>2020-10-11T10:38:43.707Z</time>
      </trkpt>
      <trkpt lat="47.26003" lon="5.90046">
        <ele>244.327443</ele>
        <time>2020-10-11T10:38:48.393Z</time>
      </trkpt>
      <trkpt lat="47.26003" lon="5.90063">
        <ele>244.524507</ele>
        <time>2020-10-11T10:38:51.996Z</time>
      </trkpt>
      <trkpt lat="47.26009" lon="5.90274">
        <ele>247.716633</ele>
        <time>2020-10-11T10:39:36.470Z</time>
      </trkpt>
      <trkpt lat="47.26003" lon="5.90332">
        <ele>248.644587</ele>
        <time>2020-10-11T10:39:51.693Z</time>
      </trkpt>
      <trkpt lat="47.25989" lon="5.90401">
        <ele>249.907811</ele>
        <time>2020-10-11T10:40:12.197Z</time>
      </trkpt>
      <trkpt lat="47.25985" lon="5.90423">
        <ele>250.331551</ele>
        <time>2020-10-11T10:40:19.023Z</time>
      </trkpt>
      <trkpt lat="47.25926" lon="5.907">
        <ele>253.006104</ele>
        <time>2020-10-11T10:41:26.908Z</time>
      </trkpt>
      <trkpt lat="47.25922" lon="5.90717">
        <ele>252.818898</ele>
        <time>2020-10-11T10:41:28.856Z</time>
      </trkpt>
      <trkpt lat="47.25917" lon="5.90739">
        <ele>252.567889</ele>
        <time>2020-10-11T10:41:31.482Z</time>
      </trkpt>
      <trkpt lat="47.25902" lon="5.90817">
        <ele>251.721852</ele>
        <time>2020-10-11T10:41:39.277Z</time>
      </trkpt>
      <trkpt lat="47.2588" lon="5.90941">
        <ele>248.23165</ele>
        <time>2020-10-11T10:41:50.534Z</time>
      </trkpt>
      <trkpt lat="47.25862" lon="5.91065">
        <ele>243.460808</ele>
        <time>2020-10-11T10:42:01.598Z</time>
      </trkpt>
      <trkpt lat="47.25842" lon="5.91203">
        <ele>239.486798</ele>
        <time>2020-10-11T10:42:14.267Z</time>
      </trkpt>
      <trkpt lat="47.25816" lon="5.9139">
        <ele>235.642655</ele>
        <time>2020-10-11T10:42:33.198Z</time>
      </trkpt>
      <trkpt lat="47.25808" lon="5.91444">
        <ele>236.151427</ele>
        <time>2020-10-11T10:42:41.276Z</time>
      </trkpt>
      <trkpt lat="47.25798" lon="5.91518">
        <ele>236.836498</ele>
        <time>2020-10-11T10:42:56.403Z</time>
      </trkpt>
      <trkpt lat="47.25782" lon="5.91617">
        <ele>237.766639</ele>
        <time>2020-10-11T10:43:21.237Z</time>
      </trkpt>
      <trkpt lat="47.25763" lon="5.91747">
        <ele>238.905813</ele>
        <time>2020-10-11T10:43:54.786Z</time>
      </trkpt>
      <trkpt lat="47.25749" lon="5.91842">
        <ele>239.717595</ele>
        <time>2020-10-11T10:44:12.886Z</time>
      </trkpt>
      <trkpt lat="47.25744" lon="5.91872">
        <ele>239.973344</ele>
        <time>2020-10-11T10:44:16.472Z</time>
      </trkpt>
      <trkpt lat="47.25717" lon="5.91952">
        <ele>239.885597</ele>
        <time>2020-10-11T10:44:26.612Z</time>
      </trkpt>
      <trkpt lat="47.25683" lon="5.92012">
        <ele>239.460477</ele>
        <time>2020-10-11T10:44:34.969Z</time>
      </trkpt>
      <trkpt lat="47.25656" lon="5.92059">
        <ele>239.122247</ele>
        <time>2020-10-11T10:44:41.905Z</time>
      </trkpt>
      <trkpt lat="47.25632" lon="5.92117">
        <ele>238.79201</ele>
        <time>2020-10-11T10:44:50.868Z</time>
      </trkpt>
      <trkpt lat="47.25568" lon="5.92381">
        <ele>240.956258</ele>
        <time>2020-10-11T10:45:43.702Z</time>
      </trkpt>
      <trkpt lat="47.25545" lon="5.92572">
        <ele>243.746495</ele>
        <time>2020-10-11T10:46:26.209Z</time>
      </trkpt>
      <trkpt lat="47.25542" lon="5.92606">
        <ele>244.239475</ele>
        <time>2020-10-11T10:46:34.064Z</time>
      </trkpt>
      <trkpt lat="47.25534" lon="5.92607">
        <ele>244.408065</ele>
        <time>2020-10-11T10:46:36.913Z</time>
      </trkpt>
      <trkpt lat="47.25524" lon="5.92624">
        <ele>244.833848</ele>
        <time>2020-10-11T10:46:42.850Z</time>
      </trkpt>
      <trkpt lat="47.25528" lon="5.92645">
        <ele>245.304116</ele>
        <time>2020-10-11T10:46:47.610Z</time>
      </trkpt>
      <trkpt lat="47.25535" lon="5.92651">
        <ele>245.549221</ele>
        <time>2020-10-11T10:46:50.767Z</time>
      </trkpt>
      <trkpt lat="47.25534" lon="5.92669">
        <ele>245.91653</ele>
        <time>2020-10-11T10:46:56.451Z</time>
      </trkpt>
      <trkpt lat="47.25531" lon="5.92771">
        <ele>248.055795</ele>
        <time>2020-10-11T10:47:24.443Z</time>
      </trkpt>
      <trkpt lat="47.2554" lon="5.92856">
        <ele>249.86295</ele>
        <time>2020-10-11T10:47:46.897Z</time>
      </trkpt>
      <trkpt lat="47.25545" lon="5.92897">
        <ele>250.253706</ele>
        <time>2020-10-11T10:47:58.335Z</time>
      </trkpt>
      <trkpt lat="47.25564" lon="5.93038">
        <ele>251.099015</ele>
        <time>2020-10-11T10:48:25.927Z</time>
      </trkpt>
      <trkpt lat="47.25571" lon="5.93078">
        <ele>251.343424</ele>
        <time>2020-10-11T10:48:31.975Z</time>
      </trkpt>
      <trkpt lat="47.25602" lon="5.93245">
        <ele>250.325443</ele>
        <time>2020-10-11T10:48:50.527Z</time>
      </trkpt>
      <trkpt lat="47.25605" lon="5.93257">
        <ele>250.195908</ele>
        <time>2020-10-11T10:48:51.887Z</time>
      </trkpt>
      <trkpt lat="47.25607" lon="5.93269">
        <ele>250.067771</ele>
        <time>2020-10-11T10:48:53.206Z</time>
      </trkpt>
      <trkpt lat="47.25617" lon="5.93316">
        <ele>249.565452</ele>
        <time>2020-10-11T10:48:58.311Z</time>
      </trkpt>
      <trkpt lat="47.25623" lon="5.9334">
        <ele>249.299224</ele>
        <time>2020-10-11T10:49:01.006Z</time>
      </trkpt>
      <trkpt lat="47.25632" lon="5.93373">
        <ele>248.934402</ele>
        <time>2020-10-11T10:49:04.865Z</time>
      </trkpt>
      <trkpt lat="47.25634" lon="5.93386">
        <ele>248.926002</ele>
        <time>2020-10-11T10:49:06.370Z</time>
      </trkpt>
      <trkpt lat="47.25634" lon="5.93394">
        <ele>248.953644</ele>
        <time>2020-10-11T10:49:07.196Z</time>
      </trkpt>
      <trkpt lat="47.25633" lon="5.93404">
        <ele>248.990704</ele>
        <time>2020-10-11T10:49:08.546Z</time>
      </trkpt>
      <trkpt lat="47.25542" lon="5.93534">
        <ele>249.624132</ele>
        <time>2020-10-11T10:49:36.176Z</time>
      </trkpt>
      <trkpt lat="47.25514" lon="5.9357">
        <ele>249.928994</ele>
        <time>2020-10-11T10:49:48.981Z</time>
      </trkpt>
      <trkpt lat="47.25519" lon="5.93584">
        <ele>250.35382</ele>
        <time>2020-10-11T10:49:53.911Z</time>
      </trkpt>
      <trkpt lat="47.25512" lon="5.93651">
        <ele>252.184216</ele>
        <time>2020-10-11T10:50:15.522Z</time>
      </trkpt>
      <trkpt lat="47.2551" lon="5.9367">
        <ele>252.694262</ele>
        <time>2020-10-11T10:50:22.126Z</time>
      </trkpt>
      <trkpt lat="47.25505" lon="5.93726">
        <ele>254.21315</ele>
        <time>2020-10-11T10:50:42.036Z</time>
      </trkpt>
      <trkpt lat="47.25504" lon="5.93751">
        <ele>254.913497</ele>
        <time>2020-10-11T10:50:51.566Z</time>
      </trkpt>
      <trkpt lat="47.25499" lon="5.9389">
        <ele>259.563899</ele>
        <time>2020-10-11T10:51:44.757Z</time>
      </trkpt>
      <trkpt lat="47.25495" lon="5.94028">
        <ele>265.270829</ele>
        <time>2020-10-11T10:52:43.913Z</time>
      </trkpt>
      <trkpt lat="47.255" lon="5.94083">
        <ele>267.56275</ele>
        <time>2020-10-11T10:53:09.569Z</time>
      </trkpt>
      <trkpt lat="47.25511" lon="5.94149">
        <ele>270.638041</ele>
        <time>2020-10-11T10:53:38.980Z</time>
      </trkpt>
      <trkpt lat="47.25514" lon="5.94149">
        <ele>270.789505</ele>
        <time>2020-10-11T10:53:42.342Z</time>
      </trkpt>
      <trkpt lat="47.25513" lon="5.94153">
        <ele>270.962851</ele>
        <time>2020-10-11T10:53:46.338Z</time>
      </trkpt>
      <trkpt lat="47.25525" lon="5.942">
        <ele>273.232549</ele>
        <time>2020-10-11T10:54:05.739Z</time>
      </trkpt>
      <trkpt lat="47.25543" lon="5.94243">
        <ele>275.599377</ele>
        <time>2020-10-11T10:54:28.522Z</time>
      </trkpt>
      <trkpt lat="47.25542" lon="5.94247">
        <ele>275.794018</ele>
        <time>2020-10-11T10:54:33.104Z</time>
      </trkpt>
      <trkpt lat="47.25569" lon="5.94277">
        <ele>278.097064</ele>
        <time>2020-10-11T10:54:50.636Z</time>
      </trkpt>
      <trkpt lat="47.25586" lon="5.94308">
        <ele>279.903368</ele>
        <time>2020-10-11T10:55:05.043Z</time>
      </trkpt>
      <trkpt lat="47.25599" lon="5.9437">
        <ele>282.487659</ele>
        <time>2020-10-11T10:55:29.516Z</time>
      </trkpt>
      <trkpt lat="47.25601" lon="5.94385">
        <ele>283.078028</ele>
        <time>2020-10-11T10:55:37.711Z</time>
      </trkpt>
      <trkpt lat="47.256" lon="5.94399">
        <ele>283.623036</ele>
        <time>2020-10-11T10:55:41.737Z</time>
      </trkpt>
      <trkpt lat="47.25588" lon="5.94451">
        <ele>285.761175</ele>
        <time>2020-10-11T10:56:02.163Z</time>
      </trkpt>
      <trkpt lat="47.25552" lon="5.94537">
        <ele>289.750083</ele>
        <time>2020-10-11T10:56:36.893Z</time>
      </trkpt>
      <trkpt lat="47.25545" lon="5.94554">
        <ele>290.50063</ele>
        <time>2020-10-11T10:56:42.590Z</time>
      </trkpt>
      <trkpt lat="47.25539" lon="5.94572">
        <ele>291.027479</ele>
        <time>2020-10-11T10:56:51.043Z</time>
      </trkpt>
      <trkpt lat="47.25525" lon="5.94647">
        <ele>293.113537</ele>
        <time>2020-10-11T10:57:14.565Z</time>
      </trkpt>
      <trkpt lat="47.25521" lon="5.94751">
        <ele>295.938898</ele>
        <time>2020-10-11T10:57:46.475Z</time>
      </trkpt>
      <trkpt lat="47.25508" lon="5.94799">
        <ele>297.322105</ele>
        <time>2020-10-11T10:58:01.031Z</time>
      </trkpt>
      <trkpt lat="47.25485" lon="5.94835">
        <ele>297.649923</ele>
        <time>2020-10-11T10:58:11.008Z</time>
      </trkpt>
      <trkpt lat="47.25402" lon="5.94911">
        <ele>297.933632</ele>
        <time>2020-10-11T10:58:33.407Z</time>
      </trkpt>
      <trkpt lat="47.25378" lon="5.94936">
        <ele>298.016656</ele>
        <time>2020-10-11T10:58:38.242Z</time>
      </trkpt>
      <trkpt lat="47.25367" lon="5.94958">
        <ele>298.072166</ele>
        <time>2020-10-11T10:58:41.367Z</time>
      </trkpt>
      <trkpt lat="47.25355" lon="5.94981">
        <ele>297.875165</ele>
        <time>2020-10-11T10:58:44.543Z</time>
      </trkpt>
      <trkpt lat="47.25348" lon="5.95">
        <ele>297.626033</ele>
        <time>2020-10-11T10:58:46.817Z</time>
      </trkpt>
      <trkpt lat="47.25342" lon="5.95019">
        <ele>297.388122</ele>
        <time>2020-10-11T10:58:48.974Z</time>
      </trkpt>
      <trkpt lat="47.25339" lon="5.95032">
        <ele>297.232186</ele>
        <time>2020-10-11T10:58:50.376Z</time>
      </trkpt>
      <trkpt lat="47.25335" lon="5.95087">
        <ele>296.590043</ele>
        <time>2020-10-11T10:58:56.161Z</time>
      </trkpt>
      <trkpt lat="47.25337" lon="5.9511">
        <ele>296.321701</ele>
        <time>2020-10-11T10:58:58.519Z</time>
      </trkpt>
      <trkpt lat="47.25343" lon="5.95166">
        <ele>295.660187</ele>
        <time>2020-10-11T10:59:04.694Z</time>
      </trkpt>
      <trkpt lat="47.25347" lon="5.952">
        <ele>295.265728</ele>
        <time>2020-10-11T10:59:08.460Z</time>
      </trkpt>
      <trkpt lat="47.2535" lon="5.95223">
        <ele>294.9979</ele>
        <time>2020-10-11T10:59:11.080Z</time>
      </trkpt>
      <trkpt lat="47.25351" lon="5.95231">
        <ele>294.907488</ele>
        <time>2020-10-11T10:59:12.018Z</time>
      </trkpt>
      <trkpt lat="47.25354" lon="5.95285">
        <ele>294.294513</ele>
        <time>2020-10-11T10:59:18.011Z</time>
      </trkpt>
      <trkpt lat="47.25354" lon="5.95306">
        <ele>294.060282</ele>
        <time>2020-10-11T10:59:20.195Z</time>
      </trkpt>
      <trkpt lat="47.25354" lon="5.95332">
        <ele>293.769276</ele>
        <time>2020-10-11T10:59:22.932Z</time>
      </trkpt>
      <trkpt lat="47.25353" lon="5.95359">
        <ele>293.476934</ele>
        <time>2020-10-11T10:59:25.750Z</time>
      </trkpt>
      <trkpt lat="47.25351" lon="5.95388">
        <ele>293.142386</ele>
        <time>2020-10-11T10:59:28.995Z</time>
      </trkpt>
      <trkpt lat="47.25345" lon="5.95417">
        <ele>292.814423</ele>
        <time>2020-10-11T10:59:32.166Z</time>
      </trkpt>
      <trkpt lat="47.25332" lon="5.95498">
        <ele>291.923707</ele>
        <time>2020-10-11T10:59:41.369Z</time>
      </trkpt>
      <trkpt lat="47.25324" lon="5.95543">
        <ele>291.527267</ele>
        <time>2020-10-11T10:59:46.356Z</time>
      </trkpt>
      <trkpt lat="47.25317" lon="5.95593">
        <ele>291.082436</ele>
        <time>2020-10-11T10:59:51.842Z</time>
      </trkpt>
      <trkpt lat="47.2529" lon="5.95804">
        <ele>289.341444</ele>
        <time>2020-10-11T11:00:16.774Z</time>
      </trkpt>
      <trkpt lat="47.25285" lon="5.95826">
        <ele>289.179003</ele>
        <time>2020-10-11T11:00:20.230Z</time>
      </trkpt>
      <trkpt lat="47.25263" lon="5.95917">
        <ele>288.505084</ele>
        <time>2020-10-11T11:00:31.433Z</time>
      </trkpt>
      <trkpt lat="47.25257" lon="5.95924">
        <ele>288.429502</ele>
        <time>2020-10-11T11:00:33.153Z</time>
      </trkpt>
      <trkpt lat="47.25253" lon="5.95926">
        <ele>288.381878</ele>
        <time>2020-10-11T11:00:33.959Z</time>
      </trkpt>
      <trkpt lat="47.25249" lon="5.95928">
        <ele>288.334739</ele>
        <time>2020-10-11T11:00:34.738Z</time>
      </trkpt>
      <trkpt lat="47.25245" lon="5.95932">
        <ele>288.287173</ele>
        <time>2020-10-11T11:00:35.424Z</time>
      </trkpt>
      <trkpt lat="47.2524" lon="5.95937">
        <ele>288.227307</ele>
        <time>2020-10-11T11:00:36.255Z</time>
      </trkpt>
      <trkpt lat="47.25229" lon="5.95957">
        <ele>288.050105</ele>
        <time>2020-10-11T11:00:39.636Z</time>
      </trkpt>
      <trkpt lat="47.25227" lon="5.95964">
        <ele>287.991068</ele>
        <time>2020-10-11T11:00:40.626Z</time>
      </trkpt>
      <trkpt lat="47.25226" lon="5.95972">
        <ele>287.934931</ele>
        <time>2020-10-11T11:00:41.469Z</time>
      </trkpt>
      <trkpt lat="47.25225" lon="5.9598">
        <ele>287.817239</ele>
        <time>2020-10-11T11:00:42.170Z</time>
      </trkpt>
      <trkpt lat="47.25225" lon="5.95987">
        <ele>287.701615</ele>
        <time>2020-10-11T11:00:43.010Z</time>
      </trkpt>
      <trkpt lat="47.25226" lon="5.95995">
        <ele>287.584926</ele>
        <time>2020-10-11T11:00:43.953Z</time>
      </trkpt>
      <trkpt lat="47.25227" lon="5.96002">
        <ele>287.469484</ele>
        <time>2020-10-11T11:00:44.968Z</time>
      </trkpt>
      <trkpt lat="47.25229" lon="5.96009">
        <ele>287.35384</ele>
        <time>2020-10-11T11:00:45.957Z</time>
      </trkpt>
      <trkpt lat="47.25232" lon="5.96015">
        <ele>287.23638</ele>
        <time>2020-10-11T11:00:46.808Z</time>
      </trkpt>
      <trkpt lat="47.25235" lon="5.96021">
        <ele>287.120156</ele>
        <time>2020-10-11T11:00:47.622Z</time>
      </trkpt>
      <trkpt lat="47.25235" lon="5.96029">
        <ele>286.999909</ele>
        <time>2020-10-11T11:00:48.339Z</time>
      </trkpt>
      <trkpt lat="47.25228" lon="5.96111">
        <ele>285.729383</ele>
        <time>2020-10-11T11:00:56.891Z</time>
      </trkpt>
      <trkpt lat="47.2523" lon="5.96227">
        <ele>283.942537</ele>
        <time>2020-10-11T11:01:08.287Z</time>
      </trkpt>
      <trkpt lat="47.25226" lon="5.96304">
        <ele>282.776189</ele>
        <time>2020-10-11T11:01:16.021Z</time>
      </trkpt>
      <trkpt lat="47.25221" lon="5.96337">
        <ele>282.287189</ele>
        <time>2020-10-11T11:01:19.317Z</time>
      </trkpt>
      <trkpt lat="47.25221" lon="5.96354">
        <ele>282.023369</ele>
        <time>2020-10-11T11:01:21.153Z</time>
      </trkpt>
      <trkpt lat="47.25224" lon="5.96362">
        <ele>281.901128</ele>
        <time>2020-10-11T11:01:21.996Z</time>
      </trkpt>
      <trkpt lat="47.25233" lon="5.96367">
        <ele>281.68457</ele>
        <time>2020-10-11T11:01:23.551Z</time>
      </trkpt>
      <trkpt lat="47.25271" lon="5.96364">
        <ele>280.840084</ele>
        <time>2020-10-11T11:01:29.355Z</time>
      </trkpt>
      <trkpt lat="47.25274" lon="5.96381">
        <ele>280.58307</ele>
        <time>2020-10-11T11:01:31.004Z</time>
      </trkpt>
      <trkpt lat="47.25292" lon="5.96537">
        <ele>280.166722</ele>
        <time>2020-10-11T11:01:49.247Z</time>
      </trkpt>
      <trkpt lat="47.253" lon="5.96631">
        <ele>280.384616</ele>
        <time>2020-10-11T11:02:05.594Z</time>
      </trkpt>
      <trkpt lat="47.25305" lon="5.96735">
        <ele>282.095826</ele>
        <time>2020-10-11T11:02:34.245Z</time>
      </trkpt>
      <trkpt lat="47.25304" lon="5.96758">
        <ele>282.86885</ele>
        <time>2020-10-11T11:02:41.298Z</time>
      </trkpt>
      <trkpt lat="47.25299" lon="5.96781">
        <ele>283.669148</ele>
        <time>2020-10-11T11:02:50.206Z</time>
      </trkpt>
      <trkpt lat="47.25276" lon="5.96869">
        <ele>286.838135</ele>
        <time>2020-10-11T11:03:27.947Z</time>
      </trkpt>
      <trkpt lat="47.25247" lon="5.96971">
        <ele>290.909788</ele>
        <time>2020-10-11T11:04:19.198Z</time>
      </trkpt>
      <trkpt lat="47.25215" lon="5.97081">
        <ele>296.250511</ele>
        <time>2020-10-11T11:05:13.166Z</time>
      </trkpt>
      <trkpt lat="47.25211" lon="5.97093">
        <ele>296.871734</ele>
        <time>2020-10-11T11:05:20.697Z</time>
      </trkpt>
      <trkpt lat="47.25194" lon="5.97152">
        <ele>299.751007</ele>
        <time>2020-10-11T11:05:49.299Z</time>
      </trkpt>
      <trkpt lat="47.25124" lon="5.97378">
        <ele>308.026071</ele>
        <time>2020-10-11T11:07:25.171Z</time>
      </trkpt>
      <trkpt lat="47.25108" lon="5.97429">
        <ele>309.657963</ele>
        <time>2020-10-11T11:07:42.653Z</time>
      </trkpt>
      <trkpt lat="47.25085" lon="5.97489">
        <ele>310.339444</ele>
        <time>2020-10-11T11:08:02.530Z</time>
      </trkpt>
      <trkpt lat="47.2508" lon="5.97501">
        <ele>310.472935</ele>
        <time>2020-10-11T11:08:06.084Z</time>
      </trkpt>
      <trkpt lat="47.25075" lon="5.97511">
        <ele>310.599139</ele>
        <time>2020-10-11T11:08:09.326Z</time>
      </trkpt>
      <trkpt lat="47.25045" lon="5.97563">
        <ele>311.256721</ele>
        <time>2020-10-11T11:08:25.614Z</time>
      </trkpt>
      <trkpt lat="47.25039" lon="5.9758">
        <ele>311.443638</ele>
        <time>2020-10-11T11:08:29.867Z</time>
      </trkpt>
      <trkpt lat="47.25026" lon="5.97616">
        <ele>311.849434</ele>
        <time>2020-10-11T11:08:38.775Z</time>
      </trkpt>
      <trkpt lat="47.25016" lon="5.97646">
        <ele>312.1733</ele>
        <time>2020-10-11T11:08:45.248Z</time>
      </trkpt>
      <trkpt lat="47.25" lon="5.97695">
        <ele>311.467768</ele>
        <time>2020-10-11T11:08:55.204Z</time>
      </trkpt>
      <trkpt lat="47.24985" lon="5.97744">
        <ele>310.733113</ele>
        <time>2020-10-11T11:09:04.393Z</time>
      </trkpt>
      <trkpt lat="47.24975" lon="5.97792">
        <ele>310.041367</ele>
        <time>2020-10-11T11:09:12.843Z</time>
      </trkpt>
      <trkpt lat="47.24954" lon="5.97995">
        <ele>304.521685</ele>
        <time>2020-10-11T11:09:40.064Z</time>
      </trkpt>
      <trkpt lat="47.24954" lon="5.98027">
        <ele>303.214884</ele>
        <time>2020-10-11T11:09:44.099Z</time>
      </trkpt>
      <trkpt lat="47.24955" lon="5.98056">
        <ele>302.002669</ele>
        <time>2020-10-11T11:09:47.592Z</time>
      </trkpt>
      <trkpt lat="47.24966" lon="5.98131">
        <ele>298.797419</ele>
        <time>2020-10-11T11:09:56.918Z</time>
      </trkpt>
      <trkpt lat="47.24965" lon="5.98196">
        <ele>296.401275</ele>
        <time>2020-10-11T11:10:04.630Z</time>
      </trkpt>
      <trkpt lat="47.24943" lon="5.98295">
        <ele>293.007838</ele>
        <time>2020-10-11T11:10:17.405Z</time>
      </trkpt>
      <trkpt lat="47.24942" lon="5.98306">
        <ele>292.637844</ele>
        <time>2020-10-11T11:10:18.741Z</time>
      </trkpt>
      <trkpt lat="47.24936" lon="5.98305">
        <ele>292.3827</ele>
        <time>2020-10-11T11:10:19.923Z</time>
      </trkpt>
      <trkpt lat="47.24931" lon="5.98306">
        <ele>292.122732</ele>
        <time>2020-10-11T11:10:21.133Z</time>
      </trkpt>
      <trkpt lat="47.24926" lon="5.98309">
        <ele>291.869003</ele>
        <time>2020-10-11T11:10:22.279Z</time>
      </trkpt>
      <trkpt lat="47.24923" lon="5.98314">
        <ele>291.636418</ele>
        <time>2020-10-11T11:10:23.371Z</time>
      </trkpt>
      <trkpt lat="47.2492" lon="5.9832">
        <ele>291.404346</ele>
        <time>2020-10-11T11:10:24.484Z</time>
      </trkpt>
      <trkpt lat="47.24919" lon="5.98327">
        <ele>291.170718</ele>
        <time>2020-10-11T11:10:25.407Z</time>
      </trkpt>
      <trkpt lat="47.24919" lon="5.98335">
        <ele>290.916373</ele>
        <time>2020-10-11T11:10:26.353Z</time>
      </trkpt>
      <trkpt lat="47.24925" lon="5.98348">
        <ele>290.413159</ele>
        <time>2020-10-11T11:10:29.166Z</time>
      </trkpt>
      <trkpt lat="47.2493" lon="5.98351">
        <ele>290.160537</ele>
        <time>2020-10-11T11:10:30.469Z</time>
      </trkpt>
      <trkpt lat="47.24924" lon="5.9837">
        <ele>289.513607</ele>
        <time>2020-10-11T11:10:33.865Z</time>
      </trkpt>
      <trkpt lat="47.24914" lon="5.98407">
        <ele>289.443519</ele>
        <time>2020-10-11T11:10:40.901Z</time>
      </trkpt>
      <trkpt lat="47.24909" lon="5.98412">
        <ele>289.663805</ele>
        <time>2020-10-11T11:10:43.088Z</time>
      </trkpt>
      <trkpt lat="47.24899" lon="5.98424">
        <ele>290.139039</ele>
        <time>2020-10-11T11:10:45.932Z</time>
      </trkpt>
      <trkpt lat="47.24894" lon="5.98427">
        <ele>290.332578</ele>
        <time>2020-10-11T11:10:47.990Z</time>
      </trkpt>
      <trkpt lat="47.2489" lon="5.98432">
        <ele>290.530595</ele>
        <time>2020-10-11T11:10:49.708Z</time>
      </trkpt>
      <trkpt lat="47.24888" lon="5.98439">
        <ele>290.727665</ele>
        <time>2020-10-11T11:10:51.680Z</time>
      </trkpt>
      <trkpt lat="47.24887" lon="5.98445">
        <ele>290.88003</ele>
        <time>2020-10-11T11:10:53.308Z</time>
      </trkpt>
      <trkpt lat="47.24887" lon="5.98451">
        <ele>291.031391</ele>
        <time>2020-10-11T11:10:54.738Z</time>
      </trkpt>
      <trkpt lat="47.24888" lon="5.98456">
        <ele>291.181759</ele>
        <time>2020-10-11T11:10:55.372Z</time>
      </trkpt>
      <trkpt lat="47.24886" lon="5.98474">
        <ele>291.633276</ele>
        <time>2020-10-11T11:10:59.121Z</time>
      </trkpt>
      <trkpt lat="47.24887" lon="5.98492">
        <ele>292.072462</ele>
        <time>2020-10-11T11:11:04.498Z</time>
      </trkpt>
      <trkpt lat="47.24889" lon="5.98502">
        <ele>292.350219</ele>
        <time>2020-10-11T11:11:08.243Z</time>
      </trkpt>
      <trkpt lat="47.24885" lon="5.98517">
        <ele>292.741348</ele>
        <time>2020-10-11T11:11:13.539Z</time>
      </trkpt>
      <trkpt lat="47.24879" lon="5.98538">
        <ele>293.335466</ele>
        <time>2020-10-11T11:11:21.812Z</time>
      </trkpt>
      <trkpt lat="47.24856" lon="5.98618">
        <ele>295.5136</ele>
        <time>2020-10-11T11:11:56.984Z</time>
      </trkpt>
      <trkpt lat="47.24844" lon="5.98669">
        <ele>296.930504</ele>
        <time>2020-10-11T11:12:19.546Z</time>
      </trkpt>
      <trkpt lat="47.24842" lon="5.98679">
        <ele>297.197764</ele>
        <time>2020-10-11T11:12:23.705Z</time>
      </trkpt>
      <trkpt lat="47.24837" lon="5.98701">
        <ele>297.813521</ele>
        <time>2020-10-11T11:12:32.678Z</time>
      </trkpt>
      <trkpt lat="47.24831" lon="5.98725">
        <ele>298.482926</ele>
        <time>2020-10-11T11:12:41.829Z</time>
      </trkpt>
      <trkpt lat="47.2483" lon="5.98732">
        <ele>298.689162</ele>
        <time>2020-10-11T11:12:44.931Z</time>
      </trkpt>
      <trkpt lat="47.24826" lon="5.98747">
        <ele>299.112615</ele>
        <time>2020-10-11T11:12:49.965Z</time>
      </trkpt>
      <trkpt lat="47.24825" lon="5.98754">
        <ele>299.300047</ele>
        <time>2020-10-11T11:12:52.256Z</time>
      </trkpt>
      <trkpt lat="47.24818" lon="5.98789">
        <ele>300.248437</ele>
        <time>2020-10-11T11:13:02.322Z</time>
      </trkpt>
      <trkpt lat="47.24809" lon="5.98823">
        <ele>301.220575</ele>
        <time>2020-10-11T11:13:10.673Z</time>
      </trkpt>
      <trkpt lat="47.24807" lon="5.98832">
        <ele>301.471603</ele>
        <time>2020-10-11T11:13:12.846Z</time>
      </trkpt>
      <trkpt lat="47.24796" lon="5.98881">
        <ele>302.307266</ele>
        <time>2020-10-11T11:13:20.425Z</time>
      </trkpt>
      <trkpt lat="47.24782" lon="5.9894">
        <ele>300.613903</ele>
        <time>2020-10-11T11:13:26.979Z</time>
      </trkpt>
      <trkpt lat="47.24777" lon="5.98964">
        <ele>299.946966</ele>
        <time>2020-10-11T11:13:29.363Z</time>
      </trkpt>
      <trkpt lat="47.24775" lon="5.98978">
        <ele>299.557801</ele>
        <time>2020-10-11T11:13:30.684Z</time>
      </trkpt>
      <trkpt lat="47.24768" lon="5.99025">
        <ele>298.267702</ele>
        <time>2020-10-11T11:13:35.003Z</time>
      </trkpt>
      <trkpt lat="47.24763" lon="5.99068">
        <ele>297.080844</ele>
        <time>2020-10-11T11:13:38.893Z</time>
      </trkpt>
      <trkpt lat="47.24752" lon="5.99141">
        <ele>295.016223</ele>
        <time>2020-10-11T11:13:45.260Z</time>
      </trkpt>
      <trkpt lat="47.24739" lon="5.99232">
        <ele>291.987142</ele>
        <time>2020-10-11T11:13:53.428Z</time>
      </trkpt>
      <trkpt lat="47.24737" lon="5.9925">
        <ele>291.411645</ele>
        <time>2020-10-11T11:13:55.014Z</time>
      </trkpt>
      <trkpt lat="47.24735" lon="5.99259">
        <ele>291.085851</ele>
        <time>2020-10-11T11:13:55.920Z</time>
      </trkpt>
      <trkpt lat="47.24729" lon="5.99287">
        <ele>290.162034</ele>
        <time>2020-10-11T11:13:58.480Z</time>
      </trkpt>
      <trkpt lat="47.24723" lon="5.9931">
        <ele>289.380475</ele>
        <time>2020-10-11T11:14:00.731Z</time>
      </trkpt>
      <trkpt lat="47.24716" lon="5.99342">
        <ele>288.290028</ele>
        <time>2020-10-11T11:14:05.278Z</time>
      </trkpt>
      <trkpt lat="47.24708" lon="5.9938">
        <ele>286.97162</ele>
        <time>2020-10-11T11:14:09.345Z</time>
      </trkpt>
      <trkpt lat="47.24706" lon="5.99388">
        <ele>286.83637</ele>
        <time>2020-10-11T11:14:10.191Z</time>
      </trkpt>
      <trkpt lat="47.24704" lon="5.99397">
        <ele>286.771853</ele>
        <time>2020-10-11T11:14:11.185Z</time>
      </trkpt>
      <trkpt lat="47.247" lon="5.99418">
        <ele>286.627466</ele>
        <time>2020-10-11T11:14:13.400Z</time>
      </trkpt>
      <trkpt lat="47.24694" lon="5.99465">
        <ele>286.313045</ele>
        <time>2020-10-11T11:14:18.565Z</time>
      </trkpt>
      <trkpt lat="47.24693" lon="5.99476">
        <ele>286.235336</ele>
        <time>2020-10-11T11:14:19.829Z</time>
      </trkpt>
      <trkpt lat="47.24689" lon="5.99517">
        <ele>285.956044</ele>
        <time>2020-10-11T11:14:24.886Z</time>
      </trkpt>
      <trkpt lat="47.24687" lon="5.99547">
        <ele>285.755618</ele>
        <time>2020-10-11T11:14:28.676Z</time>
      </trkpt>
      <trkpt lat="47.24683" lon="5.99591">
        <ele>285.460513</ele>
        <time>2020-10-11T11:14:35.042Z</time>
      </trkpt>
      <trkpt lat="47.24682" lon="5.99609">
        <ele>285.338065</ele>
        <time>2020-10-11T11:14:37.500Z</time>
      </trkpt>
      <trkpt lat="47.24679" lon="5.99635">
        <ele>285.163071</ele>
        <time>2020-10-11T11:14:40.958Z</time>
      </trkpt>
      <trkpt lat="47.24676" lon="5.99659">
        <ele>285.097021</ele>
        <time>2020-10-11T11:14:44.869Z</time>
      </trkpt>
      <trkpt lat="47.24674" lon="5.99672">
        <ele>285.093834</ele>
        <time>2020-10-11T11:14:46.709Z</time>
      </trkpt>
      <trkpt lat="47.24673" lon="5.99689">
        <ele>285.089899</ele>
        <time>2020-10-11T11:14:49.241Z</time>
      </trkpt>
      <trkpt lat="47.24671" lon="5.99698">
        <ele>285.0877</ele>
        <time>2020-10-11T11:14:50.746Z</time>
      </trkpt>
      <trkpt lat="47.24664" lon="5.99727">
        <ele>285.080279</ele>
        <time>2020-10-11T11:14:54.801Z</time>
      </trkpt>
      <trkpt lat="47.24656" lon="5.99752">
        <ele>285.07369</ele>
        <time>2020-10-11T11:14:59.185Z</time>
      </trkpt>
      <trkpt lat="47.24645" lon="5.99776">
        <ele>285.066962</ele>
        <time>2020-10-11T11:15:03.272Z</time>
      </trkpt>
      <trkpt lat="47.24643" lon="5.99781">
        <ele>285.065515</ele>
        <time>2020-10-11T11:15:04.324Z</time>
      </trkpt>
      <trkpt lat="47.24638" lon="5.99792">
        <ele>285.062501</ele>
        <time>2020-10-11T11:15:06.522Z</time>
      </trkpt>
      <trkpt lat="47.24632" lon="5.99805">
        <ele>285.058861</ele>
        <time>2020-10-11T11:15:08.718Z</time>
      </trkpt>
      <trkpt lat="47.24629" lon="5.99814">
        <ele>285.056339</ele>
        <time>2020-10-11T11:15:10.233Z</time>
      </trkpt>
      <trkpt lat="47.24623" lon="5.99835">
        <ele>285.050949</ele>
        <time>2020-10-11T11:15:14.302Z</time>
      </trkpt>
      <trkpt lat="47.24619" lon="5.99889">
        <ele>285.038162</ele>
        <time>2020-10-11T11:15:21.656Z</time>
      </trkpt>
      <trkpt lat="47.24619" lon="5.99892">
        <ele>285.023349</ele>
        <time>2020-10-11T11:15:21.962Z</time>
      </trkpt>
      <trkpt lat="47.24618" lon="5.99904">
        <ele>284.925621</ele>
        <time>2020-10-11T11:15:23.449Z</time>
      </trkpt>
      <trkpt lat="47.24617" lon="5.99918">
        <ele>284.821198</ele>
        <time>2020-10-11T11:15:24.931Z</time>
      </trkpt>
      <trkpt lat="47.24616" lon="5.99921">
        <ele>284.796461</ele>
        <time>2020-10-11T11:15:25.265Z</time>
      </trkpt>
      <trkpt lat="47.24614" lon="5.99956">
        <ele>284.517323</ele>
        <time>2020-10-11T11:15:29.286Z</time>
      </trkpt>
      <trkpt lat="47.24612" lon="5.99995">
        <ele>284.206068</ele>
        <time>2020-10-11T11:15:33.588Z</time>
      </trkpt>
      <trkpt lat="47.24607" lon="6.00024">
        <ele>283.970756</ele>
        <time>2020-10-11T11:15:36.609Z</time>
      </trkpt>
      <trkpt lat="47.24602" lon="6.00039">
        <ele>283.837123</ele>
        <time>2020-10-11T11:15:38.556Z</time>
      </trkpt>
      <trkpt lat="47.246" lon="6.00046">
        <ele>283.782398</ele>
        <time>2020-10-11T11:15:39.238Z</time>
      </trkpt>
      <trkpt lat="47.24596" lon="6.0006">
        <ele>283.658124</ele>
        <time>2020-10-11T11:15:40.891Z</time>
      </trkpt>
      <trkpt lat="47.24595" lon="6.00062">
        <ele>283.63893</ele>
        <time>2020-10-11T11:15:41.222Z</time>
      </trkpt>
      <trkpt lat="47.24588" lon="6.00086">
        <ele>283.434537</ele>
        <time>2020-10-11T11:15:44.591Z</time>
      </trkpt>
      <trkpt lat="47.24565" lon="6.00154">
        <ele>282.878156</ele>
        <time>2020-10-11T11:15:53.396Z</time>
      </trkpt>
      <trkpt lat="47.24551" lon="6.00182">
        <ele>282.723617</ele>
        <time>2020-10-11T11:15:59.504Z</time>
      </trkpt>
      <trkpt lat="47.24541" lon="6.00192">
        <ele>282.642903</ele>
        <time>2020-10-11T11:16:02.279Z</time>
      </trkpt>
      <trkpt lat="47.24539" lon="6.00202">
        <ele>282.59317</ele>
        <time>2020-10-11T11:16:03.756Z</time>
      </trkpt>
      <trkpt lat="47.24525" lon="6.00247">
        <ele>282.369159</ele>
        <time>2020-10-11T11:16:09.632Z</time>
      </trkpt>
      <trkpt lat="47.24518" lon="6.00264">
        <ele>282.277176</ele>
        <time>2020-10-11T11:16:12.219Z</time>
      </trkpt>
      <trkpt lat="47.24514" lon="6.00271">
        <ele>282.236008</ele>
        <time>2020-10-11T11:16:13.296Z</time>
      </trkpt>
      <trkpt lat="47.24505" lon="6.00291">
        <ele>282.127613</ele>
        <time>2020-10-11T11:16:16.225Z</time>
      </trkpt>
      <trkpt lat="47.24467" lon="6.00367">
        <ele>281.700642</ele>
        <time>2020-10-11T11:16:28.096Z</time>
      </trkpt>
      <trkpt lat="47.24441" lon="6.00414">
        <ele>281.451689</ele>
        <time>2020-10-11T11:16:35.984Z</time>
      </trkpt>
      <trkpt lat="47.24419" lon="6.00447">
        <ele>281.260439</ele>
        <time>2020-10-11T11:16:41.880Z</time>
      </trkpt>
      <trkpt lat="47.24415" lon="6.00454">
        <ele>281.225905</ele>
        <time>2020-10-11T11:16:42.906Z</time>
      </trkpt>
      <trkpt lat="47.24407" lon="6.00472">
        <ele>281.13548</ele>
        <time>2020-10-11T11:16:45.466Z</time>
      </trkpt>
      <trkpt lat="47.244" lon="6.00491">
        <ele>281.048466</ele>
        <time>2020-10-11T11:16:47.922Z</time>
      </trkpt>
      <trkpt lat="47.24398" lon="6.00495">
        <ele>281.026677</ele>
        <time>2020-10-11T11:16:48.502Z</time>
      </trkpt>
      <trkpt lat="47.24395" lon="6.00508">
        <ele>280.973597</ele>
        <time>2020-10-11T11:16:50.075Z</time>
      </trkpt>
      <trkpt lat="47.24392" lon="6.00531">
        <ele>280.875531</ele>
        <time>2020-10-11T11:16:52.950Z</time>
      </trkpt>
      <trkpt lat="47.24387" lon="6.00567">
        <ele>280.724412</ele>
        <time>2020-10-11T11:16:57.473Z</time>
      </trkpt>
      <trkpt lat="47.24381" lon="6.006">
        <ele>280.695743</ele>
        <time>2020-10-11T11:17:01.595Z</time>
      </trkpt>
      <trkpt lat="47.24378" lon="6.00616">
        <ele>280.744634</ele>
        <time>2020-10-11T11:17:03.783Z</time>
      </trkpt>
      <trkpt lat="47.24377" lon="6.00618">
        <ele>280.752886</ele>
        <time>2020-10-11T11:17:04.231Z</time>
      </trkpt>
      <trkpt lat="47.24374" lon="6.00626">
        <ele>280.779726</ele>
        <time>2020-10-11T11:17:05.485Z</time>
      </trkpt>
      <trkpt lat="47.24348" lon="6.00673">
        <ele>280.957772</ele>
        <time>2020-10-11T11:17:14.002Z</time>
      </trkpt>
      <trkpt lat="47.24321" lon="6.00713">
        <ele>281.121058</ele>
        <time>2020-10-11T11:17:23.041Z</time>
      </trkpt>
      <trkpt lat="47.24308" lon="6.00733">
        <ele>281.20321</ele>
        <time>2020-10-11T11:17:27.949Z</time>
      </trkpt>
      <trkpt lat="47.24297" lon="6.00748">
        <ele>281.265235</ele>
        <time>2020-10-11T11:17:32.116Z</time>
      </trkpt>
      <trkpt lat="47.24293" lon="6.00754">
        <ele>281.292532</ele>
        <time>2020-10-11T11:17:34.032Z</time>
      </trkpt>
      <trkpt lat="47.24289" lon="6.00758">
        <ele>281.312079</ele>
        <time>2020-10-11T11:17:35.191Z</time>
      </trkpt>
      <trkpt lat="47.24286" lon="6.00759">
        <ele>281.32668</ele>
        <time>2020-10-11T11:17:36.052Z</time>
      </trkpt>
      <trkpt lat="47.24283" lon="6.00762">
        <ele>281.342072</ele>
        <time>2020-10-11T11:17:37.009Z</time>
      </trkpt>
      <trkpt lat="47.24278" lon="6.00771">
        <ele>281.374814</ele>
        <time>2020-10-11T11:17:39.120Z</time>
      </trkpt>
      <trkpt lat="47.24274" lon="6.00779">
        <ele>281.402091</ele>
        <time>2020-10-11T11:17:40.953Z</time>
      </trkpt>
      <trkpt lat="47.24274" lon="6.00791">
        <ele>281.460668</ele>
        <time>2020-10-11T11:17:43.332Z</time>
      </trkpt>
      <trkpt lat="47.24276" lon="6.00793">
        <ele>281.48444</ele>
        <time>2020-10-11T11:17:43.895Z</time>
      </trkpt>
      <trkpt lat="47.24276" lon="6.00795">
        <ele>281.499954</ele>
        <time>2020-10-11T11:17:44.224Z</time>
      </trkpt>
      <trkpt lat="47.24283" lon="6.00799">
        <ele>281.583033</ele>
        <time>2020-10-11T11:17:46.009Z</time>
      </trkpt>
      <trkpt lat="47.24284" lon="6.00799">
        <ele>281.600944</ele>
        <time>2020-10-11T11:17:46.393Z</time>
      </trkpt>
      <trkpt lat="47.24279" lon="6.00811">
        <ele>281.713254</ele>
        <time>2020-10-11T11:17:49.620Z</time>
      </trkpt>
      <trkpt lat="47.24272" lon="6.00822">
        <ele>281.83629</ele>
        <time>2020-10-11T11:17:52.499Z</time>
      </trkpt>
      <trkpt lat="47.24268" lon="6.00827">
        <ele>281.900041</ele>
        <time>2020-10-11T11:17:54.145Z</time>
      </trkpt>
      <trkpt lat="47.2426" lon="6.0084">
        <ele>282.036647</ele>
        <time>2020-10-11T11:17:57.133Z</time>
      </trkpt>
      <trkpt lat="47.24249" lon="6.0086">
        <ele>282.246663</ele>
        <time>2020-10-11T11:18:01.919Z</time>
      </trkpt>
      <trkpt lat="47.24245" lon="6.00872">
        <ele>282.346716</ele>
        <time>2020-10-11T11:18:04.352Z</time>
      </trkpt>
      <trkpt lat="47.24246" lon="6.00887">
        <ele>282.468901</ele>
        <time>2020-10-11T11:18:07.032Z</time>
      </trkpt>
      <trkpt lat="47.24245" lon="6.00899">
        <ele>282.562825</ele>
        <time>2020-10-11T11:18:09.061Z</time>
      </trkpt>
      <trkpt lat="47.24242" lon="6.0092">
        <ele>282.73971</ele>
        <time>2020-10-11T11:18:13.335Z</time>
      </trkpt>
      <trkpt lat="47.24243" lon="6.00924">
        <ele>282.766961</ele>
        <time>2020-10-11T11:18:13.938Z</time>
      </trkpt>
      <trkpt lat="47.24285" lon="6.01074">
        <ele>283.320271</ele>
        <time>2020-10-11T11:18:45.206Z</time>
      </trkpt>
      <trkpt lat="47.24293" lon="6.0112">
        <ele>283.168356</ele>
        <time>2020-10-11T11:18:52.614Z</time>
      </trkpt>
      <trkpt lat="47.24297" lon="6.01131">
        <ele>283.126038</ele>
        <time>2020-10-11T11:18:54.691Z</time>
      </trkpt>
      <trkpt lat="47.24295" lon="6.01135">
        <ele>283.109612</ele>
        <time>2020-10-11T11:18:55.557Z</time>
      </trkpt>
      <trkpt lat="47.24293" lon="6.01141">
        <ele>283.089657</ele>
        <time>2020-10-11T11:18:56.628Z</time>
      </trkpt>
      <trkpt lat="47.2429" lon="6.01149">
        <ele>283.059219</ele>
        <time>2020-10-11T11:18:57.897Z</time>
      </trkpt>
      <trkpt lat="47.24288" lon="6.01154">
        <ele>283.040628</ele>
        <time>2020-10-11T11:18:58.576Z</time>
      </trkpt>
      <trkpt lat="47.2428" lon="6.01213">
        <ele>282.843172</ele>
        <time>2020-10-11T11:19:05.381Z</time>
      </trkpt>
      <trkpt lat="47.24258" lon="6.01296">
        <ele>281.647261</ele>
        <time>2020-10-11T11:19:14.375Z</time>
      </trkpt>
      <trkpt lat="47.24256" lon="6.01303">
        <ele>281.420205</ele>
        <time>2020-10-11T11:19:15.154Z</time>
      </trkpt>
      <trkpt lat="47.24252" lon="6.01317">
        <ele>281.022471</ele>
        <time>2020-10-11T11:19:16.417Z</time>
      </trkpt>
      <trkpt lat="47.24245" lon="6.01344">
        <ele>280.209542</ele>
        <time>2020-10-11T11:19:19.235Z</time>
      </trkpt>
      <trkpt lat="47.24243" lon="6.01355">
        <ele>279.893646</ele>
        <time>2020-10-11T11:19:20.314Z</time>
      </trkpt>
      <trkpt lat="47.2424" lon="6.01367">
        <ele>279.542448</ele>
        <time>2020-10-11T11:19:21.412Z</time>
      </trkpt>
      <trkpt lat="47.24238" lon="6.01377">
        <ele>279.252348</ele>
        <time>2020-10-11T11:19:22.390Z</time>
      </trkpt>
      <trkpt lat="47.24233" lon="6.01392">
        <ele>278.792552</ele>
        <time>2020-10-11T11:19:23.920Z</time>
      </trkpt>
      <trkpt lat="47.24223" lon="6.0143">
        <ele>277.649054</ele>
        <time>2020-10-11T11:19:27.625Z</time>
      </trkpt>
      <trkpt lat="47.24227" lon="6.01461">
        <ele>276.778199</ele>
        <time>2020-10-11T11:19:30.559Z</time>
      </trkpt>
      <trkpt lat="47.24229" lon="6.01465">
        <ele>276.638539</ele>
        <time>2020-10-11T11:19:30.961Z</time>
      </trkpt>
      <trkpt lat="47.24226" lon="6.01469">
        <ele>276.467807</ele>
        <time>2020-10-11T11:19:36.851Z</time>
      </trkpt>
      <trkpt lat="47.24221" lon="6.01468">
        <ele>276.28188</ele>
        <time>2020-10-11T11:19:37.430Z</time>
      </trkpt>
      <trkpt lat="47.2421" lon="6.01475">
        <ele>275.759139</ele>
        <time>2020-10-11T11:19:39.208Z</time>
      </trkpt>
      <trkpt lat="47.24207" lon="6.01483">
        <ele>275.515475</ele>
        <time>2020-10-11T11:19:39.989Z</time>
      </trkpt>
      <trkpt lat="47.24214" lon="6.0151">
        <ele>274.95812</ele>
        <time>2020-10-11T11:19:42.507Z</time>
      </trkpt>
      <trkpt lat="47.24215" lon="6.01516">
        <ele>274.840932</ele>
        <time>2020-10-11T11:19:43.159Z</time>
      </trkpt>
      <trkpt lat="47.24223" lon="6.01535">
        <ele>274.466672</ele>
        <time>2020-10-11T11:19:45.323Z</time>
      </trkpt>
      <trkpt lat="47.24228" lon="6.01544">
        <ele>274.264577</ele>
        <time>2020-10-11T11:19:46.340Z</time>
      </trkpt>
      <trkpt lat="47.24233" lon="6.01553">
        <ele>274.074066</ele>
        <time>2020-10-11T11:19:47.354Z</time>
      </trkpt>
      <trkpt lat="47.24239" lon="6.01565">
        <ele>273.81272</ele>
        <time>2020-10-11T11:19:48.893Z</time>
      </trkpt>
      <trkpt lat="47.24245" lon="6.0158">
        <ele>273.513899</ele>
        <time>2020-10-11T11:19:50.688Z</time>
      </trkpt>
      <trkpt lat="47.24256" lon="6.01612">
        <ele>272.913962</ele>
        <time>2020-10-11T11:19:54.268Z</time>
      </trkpt>
      <trkpt lat="47.24261" lon="6.01646">
        <ele>272.319649</ele>
        <time>2020-10-11T11:19:57.595Z</time>
      </trkpt>
      <trkpt lat="47.24266" lon="6.01673">
        <ele>271.835688</ele>
        <time>2020-10-11T11:20:01.547Z</time>
      </trkpt>
      <trkpt lat="47.24272" lon="6.01689">
        <ele>271.535166</ele>
        <time>2020-10-11T11:20:03.440Z</time>
      </trkpt>
      <trkpt lat="47.2428" lon="6.01698">
        <ele>271.287407</ele>
        <time>2020-10-11T11:20:05.235Z</time>
      </trkpt>
      <trkpt lat="47.2429" lon="6.01704">
        <ele>270.992672</ele>
        <time>2020-10-11T11:20:08.354Z</time>
      </trkpt>
      <trkpt lat="47.24337" lon="6.01727">
        <ele>270.362272</ele>
        <time>2020-10-11T11:20:18.234Z</time>
      </trkpt>
      <trkpt lat="47.24361" lon="6.01743">
        <ele>270.066742</ele>
        <time>2020-10-11T11:20:23.867Z</time>
      </trkpt>
      <trkpt lat="47.24421" lon="6.01782">
        <ele>269.340908</ele>
        <time>2020-10-11T11:20:34.860Z</time>
      </trkpt>
      <trkpt lat="47.24432" lon="6.01811">
        <ele>269.090955</ele>
        <time>2020-10-11T11:20:38.355Z</time>
      </trkpt>
      <trkpt lat="47.24432" lon="6.01839">
        <ele>268.881983</ele>
        <time>2020-10-11T11:20:41.313Z</time>
      </trkpt>
      <trkpt lat="47.24431" lon="6.01938">
        <ele>267.087613</ele>
        <time>2020-10-11T11:20:51.259Z</time>
      </trkpt>
      <trkpt lat="47.24431" lon="6.01969">
        <ele>266.506714</ele>
        <time>2020-10-11T11:20:54.354Z</time>
      </trkpt>
      <trkpt lat="47.24431" lon="6.01989">
        <ele>266.131865</ele>
        <time>2020-10-11T11:20:56.420Z</time>
      </trkpt>
      <trkpt lat="47.24431" lon="6.0204">
        <ele>265.183727</ele>
        <time>2020-10-11T11:21:01.454Z</time>
      </trkpt>
      <trkpt lat="47.24432" lon="6.02057">
        <ele>264.853202</ele>
        <time>2020-10-11T11:21:03.130Z</time>
      </trkpt>
      <trkpt lat="47.24434" lon="6.0208">
        <ele>264.424633</ele>
        <time>2020-10-11T11:21:05.353Z</time>
      </trkpt>
      <trkpt lat="47.24446" lon="6.02146">
        <ele>262.734935</ele>
        <time>2020-10-11T11:21:11.978Z</time>
      </trkpt>
      <trkpt lat="47.24448" lon="6.02152">
        <ele>262.545912</ele>
        <time>2020-10-11T11:21:12.540Z</time>
      </trkpt>
      <trkpt lat="47.24451" lon="6.02164">
        <ele>262.181595</ele>
        <time>2020-10-11T11:21:13.603Z</time>
      </trkpt>
      <trkpt lat="47.24454" lon="6.02174">
        <ele>261.857706</ele>
        <time>2020-10-11T11:21:14.702Z</time>
      </trkpt>
      <trkpt lat="47.24459" lon="6.02186">
        <ele>261.423794</ele>
        <time>2020-10-11T11:21:16.277Z</time>
      </trkpt>
      <trkpt lat="47.24471" lon="6.02215">
        <ele>260.451478</ele>
        <time>2020-10-11T11:21:19.293Z</time>
      </trkpt>
      <trkpt lat="47.24481" lon="6.02248">
        <ele>259.411962</ele>
        <time>2020-10-11T11:21:22.829Z</time>
      </trkpt>
      <trkpt lat="47.24496" lon="6.02313">
        <ele>257.391453</ele>
        <time>2020-10-11T11:21:29.061Z</time>
      </trkpt>
      <trkpt lat="47.24499" lon="6.02342">
        <ele>256.557149</ele>
        <time>2020-10-11T11:21:31.747Z</time>
      </trkpt>
      <trkpt lat="47.24496" lon="6.02349">
        <ele>256.300647</ele>
        <time>2020-10-11T11:21:32.509Z</time>
      </trkpt>
      <trkpt lat="47.24493" lon="6.02354">
        <ele>256.080918</ele>
        <time>2020-10-11T11:21:33.096Z</time>
      </trkpt>
      <trkpt lat="47.24422" lon="6.02371">
        <ele>252.435793</ele>
        <time>2020-10-11T11:21:42.378Z</time>
      </trkpt>
      <trkpt lat="47.24407" lon="6.02372">
        <ele>251.671617</ele>
        <time>2020-10-11T11:21:44.342Z</time>
      </trkpt>
      <trkpt lat="47.24363" lon="6.0238">
        <ele>249.423965</ele>
        <time>2020-10-11T11:21:50.173Z</time>
      </trkpt>
      <trkpt lat="47.24324" lon="6.02399">
        <ele>247.335639</ele>
        <time>2020-10-11T11:21:55.628Z</time>
      </trkpt>
      <trkpt lat="47.243" lon="6.02432">
        <ele>246.457657</ele>
        <time>2020-10-11T11:22:00.110Z</time>
      </trkpt>
      <trkpt lat="47.24284" lon="6.02476">
        <ele>245.736836</ele>
        <time>2020-10-11T11:22:04.775Z</time>
      </trkpt>
      <trkpt lat="47.24277" lon="6.02535">
        <ele>244.873159</ele>
        <time>2020-10-11T11:22:10.953Z</time>
      </trkpt>
      <trkpt lat="47.24274" lon="6.02551">
        <ele>244.636817</ele>
        <time>2020-10-11T11:22:12.754Z</time>
      </trkpt>
      <trkpt lat="47.24272" lon="6.0257">
        <ele>244.3598</ele>
        <time>2020-10-11T11:22:15.664Z</time>
      </trkpt>
      <trkpt lat="47.24272" lon="6.0258">
        <ele>244.212728</ele>
        <time>2020-10-11T11:22:17.174Z</time>
      </trkpt>
      <trkpt lat="47.24257" lon="6.02575">
        <ele>243.888389</ele>
        <time>2020-10-11T11:22:19.692Z</time>
      </trkpt>
      <trkpt lat="47.24196" lon="6.0256">
        <ele>243.328026</ele>
        <time>2020-10-11T11:22:32.748Z</time>
      </trkpt>
      <trkpt lat="47.24167" lon="6.02553">
        <ele>243.434202</ele>
        <time>2020-10-11T11:22:39.447Z</time>
      </trkpt>
      <trkpt lat="47.24141" lon="6.02551">
        <ele>243.531139</ele>
        <time>2020-10-11T11:22:44.738Z</time>
      </trkpt>
      <trkpt lat="47.24137" lon="6.0255">
        <ele>243.547792</ele>
        <time>2020-10-11T11:22:46.249Z</time>
      </trkpt>
      <trkpt lat="47.24133" lon="6.0255">
        <ele>243.562973</ele>
        <time>2020-10-11T11:22:47.284Z</time>
      </trkpt>
      <trkpt lat="47.24125" lon="6.02549">
        <ele>243.591866</ele>
        <time>2020-10-11T11:22:48.859Z</time>
      </trkpt>
      <trkpt lat="47.24123" lon="6.02566">
        <ele>243.635469</ele>
        <time>2020-10-11T11:22:51.321Z</time>
      </trkpt>
      <trkpt lat="47.24122" lon="6.02569">
        <ele>243.644675</ele>
        <time>2020-10-11T11:22:51.903Z</time>
      </trkpt>
      <trkpt lat="47.24118" lon="6.02601">
        <ele>243.726083</ele>
        <time>2020-10-11T11:22:57.640Z</time>
      </trkpt>
      <trkpt lat="47.24108" lon="6.02658">
        <ele>243.872849</ele>
        <time>2020-10-11T11:23:07.932Z</time>
      </trkpt>
      <trkpt lat="47.24105" lon="6.02675">
        <ele>243.895453</ele>
        <time>2020-10-11T11:23:11.005Z</time>
      </trkpt>
      <trkpt lat="47.24104" lon="6.0268">
        <ele>243.900615</ele>
        <time>2020-10-11T11:23:11.858Z</time>
      </trkpt>
      <trkpt lat="47.24091" lon="6.0276">
        <ele>243.989652</ele>
        <time>2020-10-11T11:23:24.882Z</time>
      </trkpt>
      <trkpt lat="47.24088" lon="6.02778">
        <ele>244.009783</ele>
        <time>2020-10-11T11:23:27.278Z</time>
      </trkpt>
      <trkpt lat="47.24079" lon="6.02796">
        <ele>244.03358</ele>
        <time>2020-10-11T11:23:30.034Z</time>
      </trkpt>
      <trkpt lat="47.24068" lon="6.028">
        <ele>244.051742</ele>
        <time>2020-10-11T11:23:32.518Z</time>
      </trkpt>
      <trkpt lat="47.24064" lon="6.02811">
        <ele>244.064677</ele>
        <time>2020-10-11T11:23:34.290Z</time>
      </trkpt>
      <trkpt lat="47.24051" lon="6.02841">
        <ele>244.10295</ele>
        <time>2020-10-11T11:23:39.036Z</time>
      </trkpt>
      <trkpt lat="47.24041" lon="6.02863">
        <ele>244.131008</ele>
        <time>2020-10-11T11:23:42.764Z</time>
      </trkpt>
      <trkpt lat="47.24037" lon="6.02872">
        <ele>244.142287</ele>
        <time>2020-10-11T11:23:44.034Z</time>
      </trkpt>
      <trkpt lat="47.2402" lon="6.02911">
        <ele>244.255496</ele>
        <time>2020-10-11T11:23:50.707Z</time>
      </trkpt>
      <trkpt lat="47.24012" lon="6.02929">
        <ele>244.330049</ele>
        <time>2020-10-11T11:23:54.184Z</time>
      </trkpt>
      <trkpt lat="47.24006" lon="6.02942">
        <ele>244.383827</ele>
        <time>2020-10-11T11:23:56.529Z</time>
      </trkpt>
      <trkpt lat="47.24" lon="6.02955">
        <ele>244.437919</ele>
        <time>2020-10-11T11:23:58.645Z</time>
      </trkpt>
      <trkpt lat="47.23998" lon="6.02959">
        <ele>244.456712</ele>
        <time>2020-10-11T11:23:59.374Z</time>
      </trkpt>
      <trkpt lat="47.23982" lon="6.02986">
        <ele>244.579704</ele>
        <time>2020-10-11T11:24:05.330Z</time>
      </trkpt>
      <trkpt lat="47.23941" lon="6.03041">
        <ele>244.860192</ele>
        <time>2020-10-11T11:24:18.425Z</time>
      </trkpt>
      <trkpt lat="47.23937" lon="6.03046">
        <ele>244.886911</ele>
        <time>2020-10-11T11:24:20.346Z</time>
      </trkpt>
      <trkpt lat="47.23928" lon="6.03055">
        <ele>244.940351</ele>
        <time>2020-10-11T11:24:22.825Z</time>
      </trkpt>
      <trkpt lat="47.23793" lon="6.03196">
        <ele>246.356075</ele>
        <time>2020-10-11T11:25:05.843Z</time>
      </trkpt>
      <trkpt lat="47.23782" lon="6.03207">
        <ele>246.485073</ele>
        <time>2020-10-11T11:25:09.787Z</time>
      </trkpt>
      <trkpt lat="47.23774" lon="6.03209">
        <ele>246.559503</ele>
        <time>2020-10-11T11:25:11.932Z</time>
      </trkpt>
      <trkpt lat="47.23762" lon="6.03209">
        <ele>246.668417</ele>
        <time>2020-10-11T11:25:14.947Z</time>
      </trkpt>
      <trkpt lat="47.23757" lon="6.03212">
        <ele>246.722138</ele>
        <time>2020-10-11T11:25:16.429Z</time>
      </trkpt>
      <trkpt lat="47.2374" lon="6.03227">
        <ele>246.785952</ele>
        <time>2020-10-11T11:25:21.688Z</time>
      </trkpt>
      <trkpt lat="47.23722" lon="6.03242">
        <ele>246.84109</ele>
        <time>2020-10-11T11:25:26.516Z</time>
      </trkpt>
      <trkpt lat="47.23701" lon="6.03256">
        <ele>246.906139</ele>
        <time>2020-10-11T11:25:32.180Z</time>
      </trkpt>
      <trkpt lat="47.23644" lon="6.03293">
        <ele>247.078756</ele>
        <time>2020-10-11T11:25:46.237Z</time>
      </trkpt>
      <trkpt lat="47.2364" lon="6.03296">
        <ele>247.091827</ele>
        <time>2020-10-11T11:25:47.180Z</time>
      </trkpt>
      <trkpt lat="47.23638" lon="6.03298">
        <ele>247.098653</ele>
        <time>2020-10-11T11:25:47.622Z</time>
      </trkpt>
      <trkpt lat="47.23636" lon="6.03299">
        <ele>247.103649</ele>
        <time>2020-10-11T11:25:47.911Z</time>
      </trkpt>
      <trkpt lat="47.23629" lon="6.03305">
        <ele>247.128207</ele>
        <time>2020-10-11T11:25:49.511Z</time>
      </trkpt>
      <trkpt lat="47.23623" lon="6.03309">
        <ele>247.146273</ele>
        <time>2020-10-11T11:25:50.867Z</time>
      </trkpt>
      <trkpt lat="47.23506" lon="6.03381">
        <ele>247.000931</ele>
        <time>2020-10-11T11:26:15.499Z</time>
      </trkpt>
      <trkpt lat="47.23502" lon="6.03383">
        <ele>246.990213</ele>
        <time>2020-10-11T11:26:16.153Z</time>
      </trkpt>
      <trkpt lat="47.23494" lon="6.03388">
        <ele>246.968714</ele>
        <time>2020-10-11T11:26:17.785Z</time>
      </trkpt>
      <trkpt lat="47.23488" lon="6.03392">
        <ele>246.950417</ele>
        <time>2020-10-11T11:26:19.186Z</time>
      </trkpt>
      <trkpt lat="47.23453" lon="6.03411">
        <ele>246.85983</ele>
        <time>2020-10-11T11:26:25.913Z</time>
      </trkpt>
      <trkpt lat="47.23432" lon="6.03425">
        <ele>246.802879</ele>
        <time>2020-10-11T11:26:30.729Z</time>
      </trkpt>
      <trkpt lat="47.23398" lon="6.03446">
        <ele>247.002531</ele>
        <time>2020-10-11T11:26:38.660Z</time>
      </trkpt>
      <trkpt lat="47.23351" lon="6.03477">
        <ele>247.347864</ele>
        <time>2020-10-11T11:26:50.652Z</time>
      </trkpt>
      <trkpt lat="47.2332" lon="6.03492">
        <ele>247.561554</ele>
        <time>2020-10-11T11:26:58.703Z</time>
      </trkpt>
      <trkpt lat="47.23311" lon="6.03494">
        <ele>247.628797</ele>
        <time>2020-10-11T11:27:02.024Z</time>
      </trkpt>
      <trkpt lat="47.23307" lon="6.03492">
        <ele>247.656984</ele>
        <time>2020-10-11T11:27:03.864Z</time>
      </trkpt>
      <trkpt lat="47.23294" lon="6.03496">
        <ele>247.742351</ele>
        <time>2020-10-11T11:27:07.843Z</time>
      </trkpt>
      <trkpt lat="47.23291" lon="6.03501">
        <ele>247.772072</ele>
        <time>2020-10-11T11:27:09.166Z</time>
      </trkpt>
      <trkpt lat="47.2329" lon="6.03505">
        <ele>247.793692</ele>
        <time>2020-10-11T11:27:10.156Z</time>
      </trkpt>
      <trkpt lat="47.23289" lon="6.0351">
        <ele>247.815325</ele>
        <time>2020-10-11T11:27:11.282Z</time>
      </trkpt>
      <trkpt lat="47.23283" lon="6.03517">
        <ele>247.866418</ele>
        <time>2020-10-11T11:27:14.098Z</time>
      </trkpt>
      <trkpt lat="47.23279" lon="6.03523">
        <ele>247.903935</ele>
        <time>2020-10-11T11:27:16.248Z</time>
      </trkpt>
      <trkpt lat="47.23275" lon="6.03528">
        <ele>247.940946</ele>
        <time>2020-10-11T11:27:17.851Z</time>
      </trkpt>
      <trkpt lat="47.23224" lon="6.03562">
        <ele>248.312765</ele>
        <time>2020-10-11T11:27:28.500Z</time>
      </trkpt>
      <trkpt lat="47.23185" lon="6.03558">
        <ele>248.570295</ele>
        <time>2020-10-11T11:27:35.746Z</time>
      </trkpt>
      <trkpt lat="47.2318" lon="6.03556">
        <ele>248.608043</ele>
        <time>2020-10-11T11:27:37.524Z</time>
      </trkpt>
      <trkpt lat="47.23169" lon="6.03557">
        <ele>248.676406</ele>
        <time>2020-10-11T11:27:40.901Z</time>
      </trkpt>
      <trkpt lat="47.23161" lon="6.03559">
        <ele>248.732838</ele>
        <time>2020-10-11T11:27:42.903Z</time>
      </trkpt>
      <trkpt lat="47.23152" lon="6.03565">
        <ele>248.800917</ele>
        <time>2020-10-11T11:27:44.368Z</time>
      </trkpt>
      <trkpt lat="47.23136" lon="6.03583">
        <ele>248.932073</ele>
        <time>2020-10-11T11:27:50.805Z</time>
      </trkpt>
      <trkpt lat="47.23132" lon="6.03587">
        <ele>248.967968</ele>
        <time>2020-10-11T11:27:52.340Z</time>
      </trkpt>
      <trkpt lat="47.23131" lon="6.03602">
        <ele>249.033271</ele>
        <time>2020-10-11T11:27:54.519Z</time>
      </trkpt>
      <trkpt lat="47.2313" lon="6.0361">
        <ele>249.072508</ele>
        <time>2020-10-11T11:27:56.060Z</time>
      </trkpt>
      <trkpt lat="47.23119" lon="6.03636">
        <ele>249.267268</ele>
        <time>2020-10-11T11:28:03.961Z</time>
      </trkpt>
      <trkpt lat="47.23117" lon="6.03646">
        <ele>249.448661</ele>
        <time>2020-10-11T11:28:05.047Z</time>
      </trkpt>
      <trkpt lat="47.23102" lon="6.03662">
        <ele>249.917328</ele>
        <time>2020-10-11T11:28:12.407Z</time>
      </trkpt>
      <trkpt lat="47.23083" lon="6.03678">
        <ele>250.468437</ele>
        <time>2020-10-11T11:28:17.763Z</time>
      </trkpt>
      <trkpt lat="47.23064" lon="6.03693">
        <ele>251.016923</ele>
        <time>2020-10-11T11:28:27.031Z</time>
      </trkpt>
      <trkpt lat="47.23017" lon="6.03731">
        <ele>252.373263</ele>
        <time>2020-10-11T11:28:40.577Z</time>
      </trkpt>
      <trkpt lat="47.22973" lon="6.03767">
        <ele>253.649312</ele>
        <time>2020-10-11T11:29:02.256Z</time>
      </trkpt>
      <trkpt lat="47.22872" lon="6.03853">
        <ele>260.168652</ele>
        <time>2020-10-11T11:30:02.953Z</time>
      </trkpt>
      <trkpt lat="47.228" lon="6.03889">
        <ele>264.587258</ele>
        <time>2020-10-11T11:30:46.057Z</time>
      </trkpt>
      <trkpt lat="47.22779" lon="6.03906">
        <ele>266.147327</ele>
        <time>2020-10-11T11:31:00.210Z</time>
      </trkpt>
      <trkpt lat="47.2275" lon="6.0394">
        <ele>268.638543</ele>
        <time>2020-10-11T11:31:22.311Z</time>
      </trkpt>
      <trkpt lat="47.22673" lon="6.0409">
        <ele>276.798874</ele>
        <time>2020-10-11T11:32:38.565Z</time>
      </trkpt>
      <trkpt lat="47.22609" lon="6.043">
        <ele>284.461536</ele>
        <time>2020-10-11T11:33:50.929Z</time>
      </trkpt>
      <trkpt lat="47.22587" lon="6.04448">
        <ele>288.358048</ele>
        <time>2020-10-11T11:34:35.380Z</time>
      </trkpt>
      <trkpt lat="47.22582" lon="6.04498">
        <ele>289.641135</ele>
        <time>2020-10-11T11:34:49.846Z</time>
      </trkpt>
      <trkpt lat="47.22583" lon="6.04546">
        <ele>290.838197</ele>
        <time>2020-10-11T11:35:03.126Z</time>
      </trkpt>
      <trkpt lat="47.2261" lon="6.04841">
        <ele>295.576381</ele>
        <time>2020-10-11T11:36:13.907Z</time>
      </trkpt>
      <trkpt lat="47.22673" lon="6.05088">
        <ele>295.290124</ele>
        <time>2020-10-11T11:36:48.295Z</time>
      </trkpt>
      <trkpt lat="47.22738" lon="6.05309">
        <ele>292.338268</ele>
        <time>2020-10-11T11:37:13.559Z</time>
      </trkpt>
      <trkpt lat="47.22775" lon="6.05404">
        <ele>290.208368</ele>
        <time>2020-10-11T11:37:24.567Z</time>
      </trkpt>
      <trkpt lat="47.22821" lon="6.05498">
        <ele>287.798832</ele>
        <time>2020-10-11T11:37:35.813Z</time>
      </trkpt>
      <trkpt lat="47.22872" lon="6.05583">
        <ele>285.003383</ele>
        <time>2020-10-11T11:37:46.382Z</time>
      </trkpt>
      <trkpt lat="47.22899" lon="6.05626">
        <ele>283.312332</ele>
        <time>2020-10-11T11:37:51.843Z</time>
      </trkpt>
      <trkpt lat="47.22909" lon="6.05641">
        <ele>282.729201</ele>
        <time>2020-10-11T11:37:53.684Z</time>
      </trkpt>
      <trkpt lat="47.22975" lon="6.05729">
        <ele>278.969622</ele>
        <time>2020-10-11T11:38:05.756Z</time>
      </trkpt>
      <trkpt lat="47.23038" lon="6.05793">
        <ele>275.374552</ele>
        <time>2020-10-11T11:38:16.088Z</time>
      </trkpt>
      <trkpt lat="47.23062" lon="6.05814">
        <ele>274.054727</ele>
        <time>2020-10-11T11:38:19.674Z</time>
      </trkpt>
      <trkpt lat="47.23053" lon="6.0583">
        <ele>273.378215</ele>
        <time>2020-10-11T11:38:42.342Z</time>
      </trkpt>
      <trkpt lat="47.23072" lon="6.05853">
        <ele>272.207471</ele>
        <time>2020-10-11T11:38:45.467Z</time>
      </trkpt>
      <trkpt lat="47.23089" lon="6.05869">
        <ele>271.275305</ele>
        <time>2020-10-11T11:38:48.045Z</time>
      </trkpt>
      <trkpt lat="47.23116" lon="6.05893">
        <ele>270.061723</ele>
        <time>2020-10-11T11:38:52.204Z</time>
      </trkpt>
      <trkpt lat="47.23119" lon="6.05895">
        <ele>269.941943</ele>
        <time>2020-10-11T11:38:52.657Z</time>
      </trkpt>
      <trkpt lat="47.2318" lon="6.05974">
        <ele>267.362292</ele>
        <time>2020-10-11T11:39:03.694Z</time>
      </trkpt>
      <trkpt lat="47.23192" lon="6.0599">
        <ele>266.83546</ele>
        <time>2020-10-11T11:39:06.840Z</time>
      </trkpt>
      <trkpt lat="47.23195" lon="6.05993">
        <ele>266.708817</ele>
        <time>2020-10-11T11:39:07.573Z</time>
      </trkpt>
      <trkpt lat="47.23209" lon="6.06015">
        <ele>266.051378</ele>
        <time>2020-10-11T11:39:11.551Z</time>
      </trkpt>
      <trkpt lat="47.23219" lon="6.06044">
        <ele>265.355188</ele>
        <time>2020-10-11T11:39:16.952Z</time>
      </trkpt>
      <trkpt lat="47.23223" lon="6.06055">
        <ele>265.094696</ele>
        <time>2020-10-11T11:39:18.850Z</time>
      </trkpt>
      <trkpt lat="47.23234" lon="6.06068">
        <ele>265.260925</ele>
        <time>2020-10-11T11:39:22.284Z</time>
      </trkpt>
      <trkpt lat="47.23242" lon="6.06072">
        <ele>265.675463</ele>
        <time>2020-10-11T11:39:25.233Z</time>
      </trkpt>
      <trkpt lat="47.23337" lon="6.06125">
        <ele>270.63477</ele>
        <time>2020-10-11T11:40:09.371Z</time>
      </trkpt>
      <trkpt lat="47.23344" lon="6.06124">
        <ele>270.951346</ele>
        <time>2020-10-11T11:40:14.521Z</time>
      </trkpt>
      <trkpt lat="47.23344" lon="6.06131">
        <ele>271.179542</ele>
        <time>2020-10-11T11:40:19.768Z</time>
      </trkpt>
      <trkpt lat="47.23356" lon="6.06143">
        <ele>271.907049</ele>
        <time>2020-10-11T11:40:28.526Z</time>
      </trkpt>
      <trkpt lat="47.23383" lon="6.0616">
        <ele>273.344899</ele>
        <time>2020-10-11T11:40:52.010Z</time>
      </trkpt>
      <trkpt lat="47.23412" lon="6.06174">
        <ele>275.940826</ele>
        <time>2020-10-11T11:41:15.956Z</time>
      </trkpt>
      <trkpt lat="47.23442" lon="6.06195">
        <ele>279.135832</ele>
        <time>2020-10-11T11:41:43.563Z</time>
      </trkpt>
      <trkpt lat="47.23533" lon="6.06284">
        <ele>289.603327</ele>
        <time>2020-10-11T11:43:13.738Z</time>
      </trkpt>
      <trkpt lat="47.23543" lon="6.06307">
        <ele>291.480725</ele>
        <time>2020-10-11T11:43:29.369Z</time>
      </trkpt>
      <trkpt lat="47.23591" lon="6.065">
        <ele>308.361737</ele>
        <time>2020-10-11T11:45:31.778Z</time>
      </trkpt>
      <trkpt lat="47.23596" lon="6.06508">
        <ele>309.296199</ele>
        <time>2020-10-11T11:45:43.138Z</time>
      </trkpt>
      <trkpt lat="47.23607" lon="6.0652">
        <ele>310.911664</ele>
        <time>2020-10-11T11:45:57.487Z</time>
      </trkpt>
      <trkpt lat="47.23615" lon="6.06531">
        <ele>312.216989</ele>
        <time>2020-10-11T11:46:07.757Z</time>
      </trkpt>
      <trkpt lat="47.2362" lon="6.06546">
        <ele>314.141388</ele>
        <time>2020-10-11T11:46:25.136Z</time>
      </trkpt>
      <trkpt lat="47.23637" lon="6.06591">
        <ele>320.530462</ele>
        <time>2020-10-11T11:47:09.091Z</time>
      </trkpt>
      <trkpt lat="47.23639" lon="6.06598">
        <ele>321.471423</ele>
        <time>2020-10-11T11:47:17.113Z</time>
      </trkpt>
      <trkpt lat="47.23648" lon="6.06621">
        <ele>324.81628</ele>
        <time>2020-10-11T11:47:38.361Z</time>
      </trkpt>
      <trkpt lat="47.23652" lon="6.06634">
        <ele>326.655895</ele>
        <time>2020-10-11T11:47:51.213Z</time>
      </trkpt>
      <trkpt lat="47.23655" lon="6.06649">
        <ele>328.501156</ele>
        <time>2020-10-11T11:48:06.946Z</time>
      </trkpt>
      <trkpt lat="47.2366" lon="6.06677">
        <ele>332.195874</ele>
        <time>2020-10-11T11:48:30.844Z</time>
      </trkpt>
      <trkpt lat="47.23664" lon="6.06719">
        <ele>337.496368</ele>
        <time>2020-10-11T11:49:12.422Z</time>
      </trkpt>
      <trkpt lat="47.23663" lon="6.06773">
        <ele>344.254055</ele>
        <time>2020-10-11T11:50:04.879Z</time>
      </trkpt>
      <trkpt lat="47.23687" lon="6.06853">
        <ele>353.192716</ele>
        <time>2020-10-11T11:51:25.854Z</time>
      </trkpt>
      <trkpt lat="47.2368" lon="6.0686">
        <ele>354.526386</ele>
        <time>2020-10-11T11:51:38.049Z</time>
      </trkpt>
      <trkpt lat="47.23654" lon="6.06848">
        <ele>358.445978</ele>
        <time>2020-10-11T11:52:10.779Z</time>
      </trkpt>
      <trkpt lat="47.23603" lon="6.06793">
        <ele>367.79302</ele>
        <time>2020-10-11T11:53:18.691Z</time>
      </trkpt>
      <trkpt lat="47.23483" lon="6.06714">
        <ele>378.824248</ele>
        <time>2020-10-11T11:54:44.768Z</time>
      </trkpt>
      <trkpt lat="47.23368" lon="6.06603">
        <ele>389.633973</ele>
        <time>2020-10-11T11:56:05.105Z</time>
      </trkpt>
      <trkpt lat="47.23363" lon="6.066">
        <ele>390.196639</ele>
        <time>2020-10-11T11:56:14.062Z</time>
      </trkpt>
      <trkpt lat="47.23358" lon="6.06597">
        <ele>390.656372</ele>
        <time>2020-10-11T11:56:16.138Z</time>
      </trkpt>
      <trkpt lat="47.23353" lon="6.06594">
        <ele>391.215727</ele>
        <time>2020-10-11T11:56:19.972Z</time>
      </trkpt>
      <trkpt lat="47.23347" lon="6.06594">
        <ele>391.730887</ele>
        <time>2020-10-11T11:56:21.863Z</time>
      </trkpt>
      <trkpt lat="47.23344" lon="6.06598">
        <ele>392.165337</ele>
        <time>2020-10-11T11:56:25.302Z</time>
      </trkpt>
      <trkpt lat="47.23342" lon="6.06603">
        <ele>392.53755</ele>
        <time>2020-10-11T11:56:28.041Z</time>
      </trkpt>
      <trkpt lat="47.23342" lon="6.06608">
        <ele>392.88776</ele>
        <time>2020-10-11T11:56:31.006Z</time>
      </trkpt>
      <trkpt lat="47.23343" lon="6.06613">
        <ele>393.209386</ele>
        <time>2020-10-11T11:56:33.342Z</time>
      </trkpt>
      <trkpt lat="47.23346" lon="6.06618">
        <ele>393.649226</ele>
        <time>2020-10-11T11:56:40.768Z</time>
      </trkpt>
      <trkpt lat="47.2336" lon="6.06639">
        <ele>395.532074</ele>
        <time>2020-10-11T11:56:53.196Z</time>
      </trkpt>
      <trkpt lat="47.23376" lon="6.06707">
        <ele>400.195458</ele>
        <time>2020-10-11T11:57:41.634Z</time>
      </trkpt>
      <trkpt lat="47.23457" lon="6.06852">
        <ele>416.678774</ele>
        <time>2020-10-11T12:00:07.738Z</time>
      </trkpt>
      <trkpt lat="47.23547" lon="6.07057">
        <ele>433.139125</ele>
        <time>2020-10-11T12:02:30.188Z</time>
      </trkpt>
      <trkpt lat="47.23545" lon="6.07063">
        <ele>433.491372</ele>
        <time>2020-10-11T12:02:35.272Z</time>
      </trkpt>
      <trkpt lat="47.23541" lon="6.07069">
        <ele>433.92692</ele>
        <time>2020-10-11T12:02:38.384Z</time>
      </trkpt>
      <trkpt lat="47.23532" lon="6.0707">
        <ele>434.661125</ele>
        <time>2020-10-11T12:02:40.489Z</time>
      </trkpt>
      <trkpt lat="47.23507" lon="6.07054">
        <ele>436.832746</ele>
        <time>2020-10-11T12:02:57.681Z</time>
      </trkpt>
      <trkpt lat="47.23473" lon="6.07051">
        <ele>439.479786</ele>
        <time>2020-10-11T12:03:16.395Z</time>
      </trkpt>
      <trkpt lat="47.2346" lon="6.0705">
        <ele>440.221419</ele>
        <time>2020-10-11T12:03:19.241Z</time>
      </trkpt>
      <trkpt lat="47.23403" lon="6.07035">
        <ele>443.533222</ele>
        <time>2020-10-11T12:03:56.671Z</time>
      </trkpt>
      <trkpt lat="47.23391" lon="6.0704">
        <ele>444.24565</ele>
        <time>2020-10-11T12:04:00.317Z</time>
      </trkpt>
      <trkpt lat="47.23388" lon="6.07046">
        <ele>444.553853</ele>
        <time>2020-10-11T12:04:01.249Z</time>
      </trkpt>
      <trkpt lat="47.23387" lon="6.07049">
        <ele>444.686579</ele>
        <time>2020-10-11T12:04:05.016Z</time>
      </trkpt>
      <trkpt lat="47.23398" lon="6.07107">
        <ele>447.020101</ele>
        <time>2020-10-11T12:04:27.437Z</time>
      </trkpt>
      <trkpt lat="47.23431" lon="6.07188">
        <ele>451.843592</ele>
        <time>2020-10-11T12:05:09.440Z</time>
      </trkpt>
      <trkpt lat="47.23437" lon="6.07241">
        <ele>456.104981</ele>
        <time>2020-10-11T12:05:47.501Z</time>
      </trkpt>
      <trkpt lat="47.23447" lon="6.07279">
        <ele>459.320001</ele>
        <time>2020-10-11T12:06:20.250Z</time>
      </trkpt>
      <trkpt lat="47.23443" lon="6.073">
        <ele>461.002264</ele>
        <time>2020-10-11T12:06:34.235Z</time>
      </trkpt>
      <trkpt lat="47.23409" lon="6.0732">
        <ele>465.169999</ele>
        <time>2020-10-11T12:07:10.462Z</time>
      </trkpt>
      <trkpt lat="47.23402" lon="6.07333">
        <ele>466.479789</ele>
        <time>2020-10-11T12:07:19.634Z</time>
      </trkpt>
      <trkpt lat="47.23401" lon="6.07338">
        <ele>466.893104</ele>
        <time>2020-10-11T12:07:25.282Z</time>
      </trkpt>
      <trkpt lat="47.23399" lon="6.07351">
        <ele>467.946821</ele>
        <time>2020-10-11T12:07:34.646Z</time>
      </trkpt>
      <trkpt lat="47.23398" lon="6.07369">
        <ele>469.305585</ele>
        <time>2020-10-11T12:07:43.783Z</time>
      </trkpt>
      <trkpt lat="47.23397" lon="6.07398">
        <ele>471.149715</ele>
        <time>2020-10-11T12:08:03.026Z</time>
      </trkpt>
      <trkpt lat="47.23396" lon="6.07409">
        <ele>471.718232</ele>
        <time>2020-10-11T12:08:09.656Z</time>
      </trkpt>
      <trkpt lat="47.23392" lon="6.07464">
        <ele>474.542424</ele>
        <time>2020-10-11T12:08:39.947Z</time>
      </trkpt>
      <trkpt lat="47.2339" lon="6.07467">
        <ele>474.803784</ele>
        <time>2020-10-11T12:08:42.802Z</time>
      </trkpt>
      <trkpt lat="47.23394" lon="6.07495">
        <ele>476.304728</ele>
        <time>2020-10-11T12:08:56.224Z</time>
      </trkpt>
      <trkpt lat="47.23394" lon="6.07534">
        <ele>478.285302</ele>
        <time>2020-10-11T12:09:11.017Z</time>
      </trkpt>
      <trkpt lat="47.23383" lon="6.07592">
        <ele>481.372128</ele>
        <time>2020-10-11T12:09:34.903Z</time>
      </trkpt>
      <trkpt lat="47.23381" lon="6.07604">
        <ele>482.016063</ele>
        <time>2020-10-11T12:09:38.979Z</time>
      </trkpt>
      <trkpt lat="47.23379" lon="6.07618">
        <ele>482.729846</ele>
        <time>2020-10-11T12:09:43.407Z</time>
      </trkpt>
      <trkpt lat="47.23378" lon="6.07631">
        <ele>483.396201</ele>
        <time>2020-10-11T12:09:46.987Z</time>
      </trkpt>
      <trkpt lat="47.23377" lon="6.0764">
        <ele>483.837358</ele>
        <time>2020-10-11T12:09:48.584Z</time>
      </trkpt>
      <trkpt lat="47.23376" lon="6.07671">
        <ele>484.987223</ele>
        <time>2020-10-11T12:09:57.429Z</time>
      </trkpt>
      <trkpt lat="47.23375" lon="6.07674">
        <ele>485.086915</ele>
        <time>2020-10-11T12:09:58.725Z</time>
      </trkpt>
      <trkpt lat="47.23375" lon="6.07676">
        <ele>485.181301</ele>
        <time>2020-10-11T12:09:59.434Z</time>
      </trkpt>
      <trkpt lat="47.23375" lon="6.07679">
        <ele>485.283552</ele>
        <time>2020-10-11T12:10:00.088Z</time>
      </trkpt>
      <trkpt lat="47.23377" lon="6.07684">
        <ele>485.480514</ele>
        <time>2020-10-11T12:10:01.373Z</time>
      </trkpt>
      <trkpt lat="47.23379" lon="6.07685">
        <ele>485.583986</ele>
        <time>2020-10-11T12:10:01.962Z</time>
      </trkpt>
      <trkpt lat="47.23381" lon="6.07686">
        <ele>485.68652</ele>
        <time>2020-10-11T12:10:02.603Z</time>
      </trkpt>
      <trkpt lat="47.23383" lon="6.07685">
        <ele>485.787713</ele>
        <time>2020-10-11T12:10:03.225Z</time>
      </trkpt>
      <trkpt lat="47.23384" lon="6.07684">
        <ele>485.892678</ele>
        <time>2020-10-11T12:10:04.023Z</time>
      </trkpt>
      <trkpt lat="47.23397" lon="6.07688">
        <ele>486.562631</ele>
        <time>2020-10-11T12:10:10.713Z</time>
      </trkpt>
      <trkpt lat="47.23412" lon="6.07695">
        <ele>487.403468</ele>
        <time>2020-10-11T12:10:18.294Z</time>
      </trkpt>
      <trkpt lat="47.23426" lon="6.07703">
        <ele>488.193214</ele>
        <time>2020-10-11T12:10:24.478Z</time>
      </trkpt>
      <trkpt lat="47.2343" lon="6.07706">
        <ele>488.476523</ele>
        <time>2020-10-11T12:10:27.615Z</time>
      </trkpt>
      <trkpt lat="47.23439" lon="6.07711">
        <ele>488.948</ele>
        <time>2020-10-11T12:10:33.002Z</time>
      </trkpt>
      <trkpt lat="47.23481" lon="6.07747">
        <ele>491.537969</ele>
        <time>2020-10-11T12:10:57.930Z</time>
      </trkpt>
      <trkpt lat="47.23493" lon="6.07757">
        <ele>492.291423</ele>
        <time>2020-10-11T12:11:07.881Z</time>
      </trkpt>
      <trkpt lat="47.23515" lon="6.0777">
        <ele>493.503742</ele>
        <time>2020-10-11T12:11:19.078Z</time>
      </trkpt>
      <trkpt lat="47.23525" lon="6.07776">
        <ele>493.954467</ele>
        <time>2020-10-11T12:11:26.677Z</time>
      </trkpt>
      <trkpt lat="47.23525" lon="6.07785">
        <ele>494.21528</ele>
        <time>2020-10-11T12:11:32.728Z</time>
      </trkpt>
      <trkpt lat="47.23535" lon="6.07863">
        <ele>496.425107</ele>
        <time>2020-10-11T12:12:01.211Z</time>
      </trkpt>
      <trkpt lat="47.23536" lon="6.07869">
        <ele>496.59355</ele>
        <time>2020-10-11T12:12:05.682Z</time>
      </trkpt>
      <trkpt lat="47.23526" lon="6.07881">
        <ele>497.130689</ele>
        <time>2020-10-11T12:12:13.870Z</time>
      </trkpt>
      <trkpt lat="47.23506" lon="6.07913">
        <ele>498.341696</ele>
        <time>2020-10-11T12:12:28.245Z</time>
      </trkpt>
      <trkpt lat="47.23505" lon="6.07973">
        <ele>500.014735</ele>
        <time>2020-10-11T12:12:47.438Z</time>
      </trkpt>
      <trkpt lat="47.23507" lon="6.07986">
        <ele>500.397292</ele>
        <time>2020-10-11T12:12:51.374Z</time>
      </trkpt>
      <trkpt lat="47.23498" lon="6.07994">
        <ele>500.757154</ele>
        <time>2020-10-11T12:12:53.692Z</time>
      </trkpt>
      <trkpt lat="47.23494" lon="6.08011">
        <ele>500.475525</ele>
        <time>2020-10-11T12:12:58.352Z</time>
      </trkpt>
      <trkpt lat="47.23487" lon="6.08061">
        <ele>499.64782</ele>
        <time>2020-10-11T12:13:07.529Z</time>
      </trkpt>
      <trkpt lat="47.2349" lon="6.08079">
        <ele>499.344744</ele>
        <time>2020-10-11T12:13:10.619Z</time>
      </trkpt>
      <trkpt lat="47.23506" lon="6.08111">
        <ele>498.699332</ele>
        <time>2020-10-11T12:13:16.155Z</time>
      </trkpt>
      <trkpt lat="47.23512" lon="6.08113">
        <ele>498.550619</ele>
        <time>2020-10-11T12:13:17.528Z</time>
      </trkpt>
      <trkpt lat="47.23512" lon="6.08122">
        <ele>498.412552</ele>
        <time>2020-10-11T12:13:18.437Z</time>
      </trkpt>
      <trkpt lat="47.23519" lon="6.08157">
        <ele>497.826378</ele>
        <time>2020-10-11T12:13:21.734Z</time>
      </trkpt>
      <trkpt lat="47.23537" lon="6.08236">
        <ele>496.430061</ele>
        <time>2020-10-11T12:13:29.620Z</time>
      </trkpt>
      <trkpt lat="47.23558" lon="6.08303">
        <ele>493.518171</ele>
        <time>2020-10-11T12:13:36.140Z</time>
      </trkpt>
      <trkpt lat="47.23564" lon="6.08329">
        <ele>492.453669</ele>
        <time>2020-10-11T12:13:38.564Z</time>
      </trkpt>
      <trkpt lat="47.23565" lon="6.08345">
        <ele>491.818325</ele>
        <time>2020-10-11T12:13:39.894Z</time>
      </trkpt>
      <trkpt lat="47.23562" lon="6.08398">
        <ele>489.76169</ele>
        <time>2020-10-11T12:13:44.502Z</time>
      </trkpt>
      <trkpt lat="47.23552" lon="6.08434">
        <ele>488.201036</ele>
        <time>2020-10-11T12:13:48.169Z</time>
      </trkpt>
      <trkpt lat="47.23551" lon="6.08439">
        <ele>488.012124</ele>
        <time>2020-10-11T12:13:48.565Z</time>
      </trkpt>
      <trkpt lat="47.23544" lon="6.0845">
        <ele>487.447624</ele>
        <time>2020-10-11T12:13:49.763Z</time>
      </trkpt>
      <trkpt lat="47.23523" lon="6.08469">
        <ele>485.96035</ele>
        <time>2020-10-11T12:13:53.138Z</time>
      </trkpt>
      <trkpt lat="47.23514" lon="6.0847">
        <ele>485.233799</ele>
        <time>2020-10-11T12:13:54.185Z</time>
      </trkpt>
      <trkpt lat="47.23514" lon="6.0849">
        <ele>484.139751</ele>
        <time>2020-10-11T12:13:56.068Z</time>
      </trkpt>
      <trkpt lat="47.23507" lon="6.08491">
        <ele>483.617148</ele>
        <time>2020-10-11T12:13:56.873Z</time>
      </trkpt>
      <trkpt lat="47.23501" lon="6.08501">
        <ele>482.841415</ele>
        <time>2020-10-11T12:13:58.064Z</time>
      </trkpt>
      <trkpt lat="47.235" lon="6.08514">
        <ele>482.093563</ele>
        <time>2020-10-11T12:13:59.167Z</time>
      </trkpt>
      <trkpt lat="47.23506" lon="6.0859">
        <ele>477.843327</ele>
        <time>2020-10-11T12:14:05.692Z</time>
      </trkpt>
      <trkpt lat="47.23505" lon="6.08654">
        <ele>474.26672</ele>
        <time>2020-10-11T12:14:11.055Z</time>
      </trkpt>
      <trkpt lat="47.23502" lon="6.08664">
        <ele>473.615578</ele>
        <time>2020-10-11T12:14:12.022Z</time>
      </trkpt>
      <trkpt lat="47.23498" lon="6.08673">
        <ele>473.070094</ele>
        <time>2020-10-11T12:14:12.857Z</time>
      </trkpt>
      <trkpt lat="47.23495" lon="6.08677">
        <ele>472.685778</ele>
        <time>2020-10-11T12:14:13.403Z</time>
      </trkpt>
      <trkpt lat="47.23484" lon="6.08692">
        <ele>471.477679</ele>
        <time>2020-10-11T12:14:15.147Z</time>
      </trkpt>
      <trkpt lat="47.23482" lon="6.08692">
        <ele>471.343312</ele>
        <time>2020-10-11T12:14:15.355Z</time>
      </trkpt>
      <trkpt lat="47.23465" lon="6.08697">
        <ele>468.979804</ele>
        <time>2020-10-11T12:14:17.519Z</time>
      </trkpt>
      <trkpt lat="47.23454" lon="6.087">
        <ele>467.505079</ele>
        <time>2020-10-11T12:14:18.782Z</time>
      </trkpt>
      <trkpt lat="47.23395" lon="6.08713">
        <ele>459.555161</ele>
        <time>2020-10-11T12:14:25.879Z</time>
      </trkpt>
      <trkpt lat="47.23386" lon="6.08717">
        <ele>458.357501</ele>
        <time>2020-10-11T12:14:26.905Z</time>
      </trkpt>
      <trkpt lat="47.23366" lon="6.08728">
        <ele>455.505624</ele>
        <time>2020-10-11T12:14:29.461Z</time>
      </trkpt>
      <trkpt lat="47.23353" lon="6.08736">
        <ele>453.623126</ele>
        <time>2020-10-11T12:14:31.084Z</time>
      </trkpt>
      <trkpt lat="47.23343" lon="6.08748">
        <ele>451.838482</ele>
        <time>2020-10-11T12:14:32.668Z</time>
      </trkpt>
      <trkpt lat="47.23331" lon="6.08771">
        <ele>449.29053</ele>
        <time>2020-10-11T12:14:34.903Z</time>
      </trkpt>
      <trkpt lat="47.2333" lon="6.08774">
        <ele>448.959334</ele>
        <time>2020-10-11T12:14:35.196Z</time>
      </trkpt>
      <trkpt lat="47.2333" lon="6.08779">
        <ele>448.478012</ele>
        <time>2020-10-11T12:14:35.611Z</time>
      </trkpt>
      <trkpt lat="47.23326" lon="6.08815">
        <ele>445.22079</ele>
        <time>2020-10-11T12:14:38.578Z</time>
      </trkpt>
      <trkpt lat="47.23332" lon="6.08907">
        <ele>437.058285</ele>
        <time>2020-10-11T12:14:45.861Z</time>
      </trkpt>
      <trkpt lat="47.23343" lon="6.08972">
        <ele>431.126265</ele>
        <time>2020-10-11T12:14:51.208Z</time>
      </trkpt>
      <trkpt lat="47.23373" lon="6.09071">
        <ele>422.349213</ele>
        <time>2020-10-11T12:15:00.047Z</time>
      </trkpt>
      <trkpt lat="47.23378" lon="6.09088">
        <ele>421.231499</ele>
        <time>2020-10-11T12:15:01.629Z</time>
      </trkpt>
      <trkpt lat="47.2342" lon="6.0924">
        <ele>411.647869</ele>
        <time>2020-10-11T12:15:15.335Z</time>
      </trkpt>
      <trkpt lat="47.23474" lon="6.09343">
        <ele>405.574903</ele>
        <time>2020-10-11T12:15:26.345Z</time>
      </trkpt>
      <trkpt lat="47.23483" lon="6.0939">
        <ele>403.720591</ele>
        <time>2020-10-11T12:15:30.710Z</time>
      </trkpt>
      <trkpt lat="47.23483" lon="6.09391">
        <ele>403.682813</ele>
        <time>2020-10-11T12:15:30.790Z</time>
      </trkpt>
      <trkpt lat="47.23482" lon="6.09408">
        <ele>403.050355</ele>
        <time>2020-10-11T12:15:32.311Z</time>
      </trkpt>
      <trkpt lat="47.23478" lon="6.09419">
        <ele>402.566339</ele>
        <time>2020-10-11T12:15:33.465Z</time>
      </trkpt>
      <trkpt lat="47.23477" lon="6.09422">
        <ele>402.45944</ele>
        <time>2020-10-11T12:15:33.703Z</time>
      </trkpt>
      <trkpt lat="47.23472" lon="6.0943">
        <ele>402.042877</ele>
        <time>2020-10-11T12:15:34.730Z</time>
      </trkpt>
      <trkpt lat="47.23465" lon="6.0943">
        <ele>401.631157</ele>
        <time>2020-10-11T12:15:35.689Z</time>
      </trkpt>
      <trkpt lat="47.23459" lon="6.09434">
        <ele>401.279859</ele>
        <time>2020-10-11T12:15:36.534Z</time>
      </trkpt>
      <trkpt lat="47.23455" lon="6.09441">
        <ele>400.936305</ele>
        <time>2020-10-11T12:15:37.392Z</time>
      </trkpt>
      <trkpt lat="47.23453" lon="6.09448">
        <ele>400.637428</ele>
        <time>2020-10-11T12:15:38.126Z</time>
      </trkpt>
      <trkpt lat="47.23453" lon="6.09456">
        <ele>400.338981</ele>
        <time>2020-10-11T12:15:38.836Z</time>
      </trkpt>
      <trkpt lat="47.23454" lon="6.09462">
        <ele>400.122376</ele>
        <time>2020-10-11T12:15:39.374Z</time>
      </trkpt>
      <trkpt lat="47.23458" lon="6.0947">
        <ele>399.747248</ele>
        <time>2020-10-11T12:15:40.340Z</time>
      </trkpt>
      <trkpt lat="47.23464" lon="6.09475">
        <ele>399.370388</ele>
        <time>2020-10-11T12:15:41.212Z</time>
      </trkpt>
      <trkpt lat="47.23469" lon="6.09476">
        <ele>399.078615</ele>
        <time>2020-10-11T12:15:41.968Z</time>
      </trkpt>
      <trkpt lat="47.23479" lon="6.09488">
        <ele>398.373324</ele>
        <time>2020-10-11T12:15:43.745Z</time>
      </trkpt>
      <trkpt lat="47.23489" lon="6.09509">
        <ele>398.040614</ele>
        <time>2020-10-11T12:15:46.138Z</time>
      </trkpt>
      <trkpt lat="47.23515" lon="6.09605">
        <ele>396.702024</ele>
        <time>2020-10-11T12:15:56.213Z</time>
      </trkpt>
      <trkpt lat="47.23522" lon="6.09627">
        <ele>396.382923</ele>
        <time>2020-10-11T12:15:59.059Z</time>
      </trkpt>
      <trkpt lat="47.23541" lon="6.09719">
        <ele>395.135945</ele>
        <time>2020-10-11T12:16:12.049Z</time>
      </trkpt>
      <trkpt lat="47.23543" lon="6.09729">
        <ele>394.997134</ele>
        <time>2020-10-11T12:16:13.395Z</time>
      </trkpt>
      <trkpt lat="47.23607" lon="6.10032">
        <ele>393.720353</ele>
        <time>2020-10-11T12:16:52.999Z</time>
      </trkpt>
      <trkpt lat="47.237" lon="6.10477">
        <ele>391.007772</ele>
        <time>2020-10-11T12:17:48.910Z</time>
      </trkpt>
      <trkpt lat="47.23702" lon="6.10489">
        <ele>390.924296</ele>
        <time>2020-10-11T12:17:50.151Z</time>
      </trkpt>
      <trkpt lat="47.23834" lon="6.11198">
        <ele>382.901911</ele>
        <time>2020-10-11T12:19:08.576Z</time>
      </trkpt>
      <trkpt lat="47.23845" lon="6.11259">
        <ele>382.379624</ele>
        <time>2020-10-11T12:19:17.340Z</time>
      </trkpt>
      <trkpt lat="47.23892" lon="6.11525">
        <ele>383.422155</ele>
        <time>2020-10-11T12:20:03.885Z</time>
      </trkpt>
      <trkpt lat="47.23959" lon="6.11881">
        <ele>384.98383</ele>
        <time>2020-10-11T12:21:02.437Z</time>
      </trkpt>
      <trkpt lat="47.24017" lon="6.12209">
        <ele>387.683471</ele>
        <time>2020-10-11T12:22:06.989Z</time>
      </trkpt>
      <trkpt lat="47.2402" lon="6.12242">
        <ele>387.997837</ele>
        <time>2020-10-11T12:22:14.004Z</time>
      </trkpt>
      <trkpt lat="47.24033" lon="6.12313">
        <ele>388.691473</ele>
        <time>2020-10-11T12:22:28.353Z</time>
      </trkpt>
      <trkpt lat="47.24034" lon="6.12324">
        <ele>388.800256</ele>
        <time>2020-10-11T12:22:30.730Z</time>
      </trkpt>
      <trkpt lat="47.24036" lon="6.12336">
        <ele>388.921449</ele>
        <time>2020-10-11T12:22:33.057Z</time>
      </trkpt>
      <trkpt lat="47.24031" lon="6.12343">
        <ele>389.020244</ele>
        <time>2020-10-11T12:22:35.118Z</time>
      </trkpt>
      <trkpt lat="47.24029" lon="6.12353">
        <ele>389.119116</ele>
        <time>2020-10-11T12:22:36.910Z</time>
      </trkpt>
      <trkpt lat="47.2403" lon="6.12363">
        <ele>389.218521</ele>
        <time>2020-10-11T12:22:39.044Z</time>
      </trkpt>
      <trkpt lat="47.24033" lon="6.1237">
        <ele>389.306554</ele>
        <time>2020-10-11T12:22:40.967Z</time>
      </trkpt>
      <trkpt lat="47.24038" lon="6.12375">
        <ele>389.395811</ele>
        <time>2020-10-11T12:22:42.667Z</time>
      </trkpt>
      <trkpt lat="47.24045" lon="6.12389">
        <ele>389.567977</ele>
        <time>2020-10-11T12:22:46.094Z</time>
      </trkpt>
      <trkpt lat="47.24049" lon="6.12403">
        <ele>389.70699</ele>
        <time>2020-10-11T12:22:48.856Z</time>
      </trkpt>
      <trkpt lat="47.24066" lon="6.12488">
        <ele>390.571713</ele>
        <time>2020-10-11T12:23:06.308Z</time>
      </trkpt>
      <trkpt lat="47.24074" lon="6.12522">
        <ele>390.928407</ele>
        <time>2020-10-11T12:23:13.570Z</time>
      </trkpt>
      <trkpt lat="47.24092" lon="6.12617">
        <ele>392.013041</ele>
        <time>2020-10-11T12:23:32.268Z</time>
      </trkpt>
      <trkpt lat="47.24134" lon="6.12849">
        <ele>395.117902</ele>
        <time>2020-10-11T12:24:22.260Z</time>
      </trkpt>
      <trkpt lat="47.24148" lon="6.12932">
        <ele>396.640965</ele>
        <time>2020-10-11T12:24:42.126Z</time>
      </trkpt>
      <trkpt lat="47.24197" lon="6.13206">
        <ele>402.570889</ele>
        <time>2020-10-11T12:25:57.960Z</time>
      </trkpt>
      <trkpt lat="47.24202" lon="6.13236">
        <ele>403.278958</ele>
        <time>2020-10-11T12:26:07.017Z</time>
      </trkpt>
      <trkpt lat="47.24239" lon="6.13429">
        <ele>407.395361</ele>
        <time>2020-10-11T12:27:00.954Z</time>
      </trkpt>
      <trkpt lat="47.24259" lon="6.13533">
        <ele>409.492909</ele>
        <time>2020-10-11T12:27:26.540Z</time>
      </trkpt>
      <trkpt lat="47.24279" lon="6.13642">
        <ele>411.034134</ele>
        <time>2020-10-11T12:27:50.752Z</time>
      </trkpt>
      <trkpt lat="47.24283" lon="6.137">
        <ele>411.757728</ele>
        <time>2020-10-11T12:28:02.437Z</time>
      </trkpt>
      <trkpt lat="47.24283" lon="6.13892">
        <ele>414.159019</ele>
        <time>2020-10-11T12:28:42.568Z</time>
      </trkpt>
      <trkpt lat="47.24282" lon="6.13998">
        <ele>415.484218</ele>
        <time>2020-10-11T12:29:05.913Z</time>
      </trkpt>
      <trkpt lat="47.24281" lon="6.14246">
        <ele>417.507499</ele>
        <time>2020-10-11T12:29:56.487Z</time>
      </trkpt>
      <trkpt lat="47.24274" lon="6.14666">
        <ele>416.981212</ele>
        <time>2020-10-11T12:30:50.341Z</time>
      </trkpt>
      <trkpt lat="47.2427" lon="6.14849">
        <ele>415.895878</ele>
        <time>2020-10-11T12:31:11.712Z</time>
      </trkpt>
      <trkpt lat="47.2427" lon="6.14867">
        <ele>415.787233</ele>
        <time>2020-10-11T12:31:13.748Z</time>
      </trkpt>
      <trkpt lat="47.24322" lon="6.15423">
        <ele>411.434248</ele>
        <time>2020-10-11T12:32:17.861Z</time>
      </trkpt>
      <trkpt lat="47.24325" lon="6.15461">
        <ele>411.188852</ele>
        <time>2020-10-11T12:32:22.243Z</time>
      </trkpt>
      <trkpt lat="47.24325" lon="6.15465">
        <ele>411.16698</ele>
        <time>2020-10-11T12:32:22.575Z</time>
      </trkpt>
      <trkpt lat="47.2436" lon="6.16374">
        <ele>405.813466</ele>
        <time>2020-10-11T12:34:10.097Z</time>
      </trkpt>
      <trkpt lat="47.24367" lon="6.16534">
        <ele>405.720438</ele>
        <time>2020-10-11T12:34:33.260Z</time>
      </trkpt>
      <trkpt lat="47.24392" lon="6.17204">
        <ele>408.448244</ele>
        <time>2020-10-11T12:36:20.627Z</time>
      </trkpt>
      <trkpt lat="47.24397" lon="6.17361">
        <ele>410.8463</ele>
        <time>2020-10-11T12:36:59.193Z</time>
      </trkpt>
      <trkpt lat="47.24398" lon="6.17371">
        <ele>411.03238</ele>
        <time>2020-10-11T12:37:01.901Z</time>
      </trkpt>
      <trkpt lat="47.24407" lon="6.17608">
        <ele>414.328845</ele>
        <time>2020-10-11T12:38:01.971Z</time>
      </trkpt>
      <trkpt lat="47.24411" lon="6.17694">
        <ele>414.926854</ele>
        <time>2020-10-11T12:38:16.291Z</time>
      </trkpt>
      <trkpt lat="47.24412" lon="6.17713">
        <ele>415.054684</ele>
        <time>2020-10-11T12:38:18.935Z</time>
      </trkpt>
      <trkpt lat="47.24413" lon="6.17743">
        <ele>415.268081</ele>
        <time>2020-10-11T12:38:23.104Z</time>
      </trkpt>
      <trkpt lat="47.24415" lon="6.17788">
        <ele>415.35838</ele>
        <time>2020-10-11T12:38:28.712Z</time>
      </trkpt>
      <trkpt lat="47.24416" lon="6.17808">
        <ele>415.107448</ele>
        <time>2020-10-11T12:38:30.949Z</time>
      </trkpt>
      <trkpt lat="47.24424" lon="6.1786">
        <ele>414.438758</ele>
        <time>2020-10-11T12:38:36.513Z</time>
      </trkpt>
      <trkpt lat="47.24469" lon="6.18">
        <ele>412.487172</ele>
        <time>2020-10-11T12:38:52.133Z</time>
      </trkpt>
      <trkpt lat="47.24472" lon="6.18022">
        <ele>412.207873</ele>
        <time>2020-10-11T12:38:54.313Z</time>
      </trkpt>
      <trkpt lat="47.24474" lon="6.18039">
        <ele>412.181157</ele>
        <time>2020-10-11T12:38:56.172Z</time>
      </trkpt>
      <trkpt lat="47.24475" lon="6.1806">
        <ele>412.206606</ele>
        <time>2020-10-11T12:38:58.416Z</time>
      </trkpt>
      <trkpt lat="47.24476" lon="6.18093">
        <ele>412.2471</ele>
        <time>2020-10-11T12:39:02.343Z</time>
      </trkpt>
      <trkpt lat="47.24477" lon="6.18215">
        <ele>412.396366</ele>
        <time>2020-10-11T12:39:21.420Z</time>
      </trkpt>
      <trkpt lat="47.24477" lon="6.18278">
        <ele>412.473133</ele>
        <time>2020-10-11T12:39:33.842Z</time>
      </trkpt>
      <trkpt lat="47.24481" lon="6.18305">
        <ele>412.729713</ele>
        <time>2020-10-11T12:39:40.036Z</time>
      </trkpt>
      <trkpt lat="47.24493" lon="6.18323">
        <ele>413.10724</ele>
        <time>2020-10-11T12:39:45.581Z</time>
      </trkpt>
      <trkpt lat="47.24499" lon="6.18327">
        <ele>413.261052</ele>
        <time>2020-10-11T12:39:48.050Z</time>
      </trkpt>
      <trkpt lat="47.24509" lon="6.18333">
        <ele>413.500786</ele>
        <time>2020-10-11T12:39:51.560Z</time>
      </trkpt>
      <trkpt lat="47.24531" lon="6.1835">
        <ele>414.073732</ele>
        <time>2020-10-11T12:40:00.182Z</time>
      </trkpt>
      <trkpt lat="47.24554" lon="6.18374">
        <ele>414.700202</ele>
        <time>2020-10-11T12:40:09.506Z</time>
      </trkpt>
      <trkpt lat="47.24556" lon="6.18378">
        <ele>414.775815</ele>
        <time>2020-10-11T12:40:11.228Z</time>
      </trkpt>
      <trkpt lat="47.24562" lon="6.18394">
        <ele>415.065277</ele>
        <time>2020-10-11T12:40:15.530Z</time>
      </trkpt>
      <trkpt lat="47.2457" lon="6.18428">
        <ele>415.602878</ele>
        <time>2020-10-11T12:40:24.154Z</time>
      </trkpt>
      <trkpt lat="47.24572" lon="6.1844">
        <ele>415.783988</ele>
        <time>2020-10-11T12:40:27.051Z</time>
      </trkpt>
      <trkpt lat="47.24577" lon="6.18471">
        <ele>416.276361</ele>
        <time>2020-10-11T12:40:34.228Z</time>
      </trkpt>
      <trkpt lat="47.24577" lon="6.18481">
        <ele>416.434669</ele>
        <time>2020-10-11T12:40:36.990Z</time>
      </trkpt>
      <trkpt lat="47.24576" lon="6.18501">
        <ele>416.766768</ele>
        <time>2020-10-11T12:40:41.248Z</time>
      </trkpt>
      <trkpt lat="47.24574" lon="6.18521">
        <ele>417.148749</ele>
        <time>2020-10-11T12:40:45.430Z</time>
      </trkpt>
      <trkpt lat="47.24571" lon="6.18538">
        <ele>417.453448</ele>
        <time>2020-10-11T12:40:49.737Z</time>
      </trkpt>
      <trkpt lat="47.24567" lon="6.18562">
        <ele>417.906296</ele>
        <time>2020-10-11T12:40:54.485Z</time>
      </trkpt>
      <trkpt lat="47.24555" lon="6.18635">
        <ele>419.269207</ele>
        <time>2020-10-11T12:41:10.970Z</time>
      </trkpt>
      <trkpt lat="47.24554" lon="6.1864">
        <ele>419.371866</ele>
        <time>2020-10-11T12:41:12.530Z</time>
      </trkpt>
      <trkpt lat="47.24545" lon="6.18695">
        <ele>420.392041</ele>
        <time>2020-10-11T12:41:26.416Z</time>
      </trkpt>
      <trkpt lat="47.24541" lon="6.18719">
        <ele>420.834547</ele>
        <time>2020-10-11T12:41:32.767Z</time>
      </trkpt>
      <trkpt lat="47.24535" lon="6.18759">
        <ele>421.777536</ele>
        <time>2020-10-11T12:41:44.383Z</time>
      </trkpt>
      <trkpt lat="47.2453" lon="6.18788">
        <ele>422.744548</ele>
        <time>2020-10-11T12:41:53.413Z</time>
      </trkpt>
      <trkpt lat="47.24522" lon="6.18842">
        <ele>424.488064</ele>
        <time>2020-10-11T12:42:11.088Z</time>
      </trkpt>
      <trkpt lat="47.24516" lon="6.18879">
        <ele>425.696673</ele>
        <time>2020-10-11T12:42:23.925Z</time>
      </trkpt>
      <trkpt lat="47.2451" lon="6.18934">
        <ele>427.479688</ele>
        <time>2020-10-11T12:42:42.635Z</time>
      </trkpt>
      <trkpt lat="47.24515" lon="6.18977">
        <ele>428.852509</ele>
        <time>2020-10-11T12:42:57.471Z</time>
      </trkpt>
      <trkpt lat="47.2452" lon="6.19005">
        <ele>429.780555</ele>
        <time>2020-10-11T12:43:07.111Z</time>
      </trkpt>
      <trkpt lat="47.24521" lon="6.19014">
        <ele>430.024713</ele>
        <time>2020-10-11T12:43:10.704Z</time>
      </trkpt>
      <trkpt lat="47.24535" lon="6.19067">
        <ele>431.534683</ele>
        <time>2020-10-11T12:43:29.585Z</time>
      </trkpt>
      <trkpt lat="47.24537" lon="6.19074">
        <ele>431.73897</ele>
        <time>2020-10-11T12:43:32.104Z</time>
      </trkpt>
      <trkpt lat="47.24639" lon="6.1947">
        <ele>441.303272</ele>
        <time>2020-10-11T12:45:26.562Z</time>
      </trkpt>
      <trkpt lat="47.2465" lon="6.1952">
        <ele>441.926046</ele>
        <time>2020-10-11T12:45:35.122Z</time>
      </trkpt>
      <trkpt lat="47.24654" lon="6.19566">
        <ele>441.90843</ele>
        <time>2020-10-11T12:45:42.645Z</time>
      </trkpt>
      <trkpt lat="47.24652" lon="6.19613">
        <ele>441.890227</ele>
        <time>2020-10-11T12:45:49.465Z</time>
      </trkpt>
      <trkpt lat="47.24642" lon="6.19675">
        <ele>441.866183</ele>
        <time>2020-10-11T12:45:57.539Z</time>
      </trkpt>
      <trkpt lat="47.24638" lon="6.19732">
        <ele>441.844016</ele>
        <time>2020-10-11T12:46:04.247Z</time>
      </trkpt>
      <trkpt lat="47.24638" lon="6.19775">
        <ele>441.74831</ele>
        <time>2020-10-11T12:46:09.329Z</time>
      </trkpt>
      <trkpt lat="47.24704" lon="6.20234">
        <ele>438.338799</ele>
        <time>2020-10-11T12:47:04.284Z</time>
      </trkpt>
      <trkpt lat="47.248" lon="6.21155">
        <ele>427.873512</ele>
        <time>2020-10-11T12:48:43.687Z</time>
      </trkpt>
      <trkpt lat="47.24854" lon="6.21704">
        <ele>424.928015</ele>
        <time>2020-10-11T12:49:52.287Z</time>
      </trkpt>
      <trkpt lat="47.24853" lon="6.21802">
        <ele>424.440727</ele>
        <time>2020-10-11T12:50:04.042Z</time>
      </trkpt>
      <trkpt lat="47.24846" lon="6.2243">
        <ele>420.038987</ele>
        <time>2020-10-11T12:51:18.594Z</time>
      </trkpt>
      <trkpt lat="47.24836" lon="6.22509">
        <ele>418.597141</ele>
        <time>2020-10-11T12:51:26.412Z</time>
      </trkpt>
      <trkpt lat="47.24751" lon="6.22844">
        <ele>413.076757</ele>
        <time>2020-10-11T12:52:01.057Z</time>
      </trkpt>
      <trkpt lat="47.24716" lon="6.22984">
        <ele>414.752592</ele>
        <time>2020-10-11T12:52:31.677Z</time>
      </trkpt>
      <trkpt lat="47.24711" lon="6.23004">
        <ele>415.227165</ele>
        <time>2020-10-11T12:52:38.186Z</time>
      </trkpt>
      <trkpt lat="47.2467" lon="6.23172">
        <ele>419.779368</ele>
        <time>2020-10-11T12:53:36.258Z</time>
      </trkpt>
      <trkpt lat="47.2466" lon="6.23214">
        <ele>421.356669</ele>
        <time>2020-10-11T12:53:51.824Z</time>
      </trkpt>
      <trkpt lat="47.24656" lon="6.2323">
        <ele>421.95626</ele>
        <time>2020-10-11T12:53:57.293Z</time>
      </trkpt>
      <trkpt lat="47.24653" lon="6.23242">
        <ele>422.401812</ele>
        <time>2020-10-11T12:54:01.305Z</time>
      </trkpt>
      <trkpt lat="47.24619" lon="6.23376">
        <ele>427.46174</ele>
        <time>2020-10-11T12:54:50.551Z</time>
      </trkpt>
      <trkpt lat="47.24615" lon="6.23398">
        <ele>428.231516</ele>
        <time>2020-10-11T12:54:58.068Z</time>
      </trkpt>
      <trkpt lat="47.24612" lon="6.2341">
        <ele>428.649334</ele>
        <time>2020-10-11T12:55:03.308Z</time>
      </trkpt>
      <trkpt lat="47.24608" lon="6.23462">
        <ele>430.351538</ele>
        <time>2020-10-11T12:55:21.874Z</time>
      </trkpt>
      <trkpt lat="47.24605" lon="6.23595">
        <ele>434.662263</ele>
        <time>2020-10-11T12:56:05.435Z</time>
      </trkpt>
      <trkpt lat="47.24603" lon="6.23665">
        <ele>436.631649</ele>
        <time>2020-10-11T12:56:26.320Z</time>
      </trkpt>
      <trkpt lat="47.24602" lon="6.23698">
        <ele>437.078301</ele>
        <time>2020-10-11T12:56:34.945Z</time>
      </trkpt>
      <trkpt lat="47.24602" lon="6.23725">
        <ele>437.454809</ele>
        <time>2020-10-11T12:56:41.397Z</time>
      </trkpt>
      <trkpt lat="47.24601" lon="6.23744">
        <ele>437.71455</ele>
        <time>2020-10-11T12:56:45.981Z</time>
      </trkpt>
      <trkpt lat="47.246" lon="6.23778">
        <ele>438.176531</ele>
        <time>2020-10-11T12:56:53.342Z</time>
      </trkpt>
      <trkpt lat="47.246" lon="6.23801">
        <ele>438.491117</ele>
        <time>2020-10-11T12:56:58.363Z</time>
      </trkpt>
      <trkpt lat="47.246" lon="6.23827">
        <ele>438.856523</ele>
        <time>2020-10-11T12:57:03.527Z</time>
      </trkpt>
      <trkpt lat="47.24598" lon="6.23917">
        <ele>440.052186</ele>
        <time>2020-10-11T12:57:19.478Z</time>
      </trkpt>
      <trkpt lat="47.24598" lon="6.23956">
        <ele>440.08949</ele>
        <time>2020-10-11T12:57:25.169Z</time>
      </trkpt>
      <trkpt lat="47.24594" lon="6.24132">
        <ele>440.259186</ele>
        <time>2020-10-11T12:57:49.869Z</time>
      </trkpt>
      <trkpt lat="47.24592" lon="6.24285">
        <ele>440.75658</ele>
        <time>2020-10-11T12:58:11.807Z</time>
      </trkpt>
      <trkpt lat="47.24589" lon="6.24351">
        <ele>441.036048</ele>
        <time>2020-10-11T12:58:22.220Z</time>
      </trkpt>
      <trkpt lat="47.24589" lon="6.24365">
        <ele>441.097293</ele>
        <time>2020-10-11T12:58:24.537Z</time>
      </trkpt>
      <trkpt lat="47.24579" lon="6.24864">
        <ele>446.164161</ele>
        <time>2020-10-11T13:00:03.773Z</time>
      </trkpt>
      <trkpt lat="47.24571" lon="6.25266">
        <ele>452.42469</ele>
        <time>2020-10-11T13:01:39.584Z</time>
      </trkpt>
      <trkpt lat="47.24566" lon="6.25508">
        <ele>455.152749</ele>
        <time>2020-10-11T13:02:30.061Z</time>
      </trkpt>
      <trkpt lat="47.24573" lon="6.25603">
        <ele>454.976721</ele>
        <time>2020-10-11T13:02:43.922Z</time>
      </trkpt>
      <trkpt lat="47.24594" lon="6.25698">
        <ele>454.79031</ele>
        <time>2020-10-11T13:02:56.248Z</time>
      </trkpt>
      <trkpt lat="47.24708" lon="6.26202">
        <ele>451.377398</ele>
        <time>2020-10-11T13:03:57.089Z</time>
      </trkpt>
      <trkpt lat="47.24797" lon="6.26594">
        <ele>450.467298</ele>
        <time>2020-10-11T13:04:50.452Z</time>
      </trkpt>
      <trkpt lat="47.24899" lon="6.27047">
        <ele>452.849027</ele>
        <time>2020-10-11T13:06:11.264Z</time>
      </trkpt>
      <trkpt lat="47.25212" lon="6.28444">
        <ele>472.44685</ele>
        <time>2020-10-11T13:11:34.734Z</time>
      </trkpt>
      <trkpt lat="47.2524" lon="6.28556">
        <ele>473.23263</ele>
        <time>2020-10-11T13:11:56.202Z</time>
      </trkpt>
      <trkpt lat="47.25421" lon="6.29497">
        <ele>468.774209</ele>
        <time>2020-10-11T13:13:53.966Z</time>
      </trkpt>
      <trkpt lat="47.25623" lon="6.30574">
        <ele>464.31771</ele>
        <time>2020-10-11T13:16:13.490Z</time>
      </trkpt>
      <trkpt lat="47.25626" lon="6.30588">
        <ele>464.219404</ele>
        <time>2020-10-11T13:16:15.327Z</time>
      </trkpt>
      <trkpt lat="47.25706" lon="6.31013">
        <ele>460.187495</ele>
        <time>2020-10-11T13:17:06.167Z</time>
      </trkpt>
      <trkpt lat="47.25734" lon="6.31096">
        <ele>458.420198</ele>
        <time>2020-10-11T13:17:15.361Z</time>
      </trkpt>
      <trkpt lat="47.25831" lon="6.31317">
        <ele>448.431453</ele>
        <time>2020-10-11T13:17:38.590Z</time>
      </trkpt>
      <trkpt lat="47.25842" lon="6.31376">
        <ele>444.864292</ele>
        <time>2020-10-11T13:17:43.674Z</time>
      </trkpt>
      <trkpt lat="47.25835" lon="6.31461">
        <ele>439.83713</ele>
        <time>2020-10-11T13:17:50.787Z</time>
      </trkpt>
      <trkpt lat="47.25839" lon="6.31503">
        <ele>437.375084</ele>
        <time>2020-10-11T13:17:54.239Z</time>
      </trkpt>
      <trkpt lat="47.25857" lon="6.31552">
        <ele>434.09387</ele>
        <time>2020-10-11T13:17:58.859Z</time>
      </trkpt>
      <trkpt lat="47.25966" lon="6.31738">
        <ele>420.643098</ele>
        <time>2020-10-11T13:18:19.335Z</time>
      </trkpt>
      <trkpt lat="47.26091" lon="6.31953">
        <ele>412.744862</ele>
        <time>2020-10-11T13:18:45.766Z</time>
      </trkpt>
      <trkpt lat="47.26069" lon="6.32055">
        <ele>412.434239</ele>
        <time>2020-10-11T13:18:58.588Z</time>
      </trkpt>
      <trkpt lat="47.26038" lon="6.32146">
        <ele>412.138538</ele>
        <time>2020-10-11T13:19:13.825Z</time>
      </trkpt>
      <trkpt lat="47.25767" lon="6.32589">
        <ele>416.600346</ele>
        <time>2020-10-11T13:21:04.066Z</time>
      </trkpt>
      <trkpt lat="47.25744" lon="6.32626">
        <ele>417.720467</ele>
        <time>2020-10-11T13:21:15.242Z</time>
      </trkpt>
      <trkpt lat="47.25737" lon="6.32637">
        <ele>418.0391</ele>
        <time>2020-10-11T13:21:18.486Z</time>
      </trkpt>
      <trkpt lat="47.25689" lon="6.32715">
        <ele>420.392127</ele>
        <time>2020-10-11T13:21:45.428Z</time>
      </trkpt>
      <trkpt lat="47.25492" lon="6.33024">
        <ele>434.164692</ele>
        <time>2020-10-11T13:24:08.325Z</time>
      </trkpt>
      <trkpt lat="47.25444" lon="6.33074">
        <ele>437.226753</ele>
        <time>2020-10-11T13:24:39.475Z</time>
      </trkpt>
      <trkpt lat="47.25342" lon="6.33159">
        <ele>442.004759</ele>
        <time>2020-10-11T13:25:36.991Z</time>
      </trkpt>
      <trkpt lat="47.25275" lon="6.33196">
        <ele>443.765544</ele>
        <time>2020-10-11T13:26:01.407Z</time>
      </trkpt>
      <trkpt lat="47.25209" lon="6.33211">
        <ele>445.127046</ele>
        <time>2020-10-11T13:26:18.290Z</time>
      </trkpt>
      <trkpt lat="47.25158" lon="6.33207">
        <ele>444.542599</ele>
        <time>2020-10-11T13:26:27.047Z</time>
      </trkpt>
      <trkpt lat="47.25103" lon="6.33186">
        <ele>443.87985</ele>
        <time>2020-10-11T13:26:36.271Z</time>
      </trkpt>
      <trkpt lat="47.25074" lon="6.33187">
        <ele>443.552108</ele>
        <time>2020-10-11T13:26:40.594Z</time>
      </trkpt>
      <trkpt lat="47.25046" lon="6.33215">
        <ele>443.152703</ele>
        <time>2020-10-11T13:26:45.869Z</time>
      </trkpt>
      <trkpt lat="47.2503" lon="6.33255">
        <ele>443.00672</ele>
        <time>2020-10-11T13:26:50.864Z</time>
      </trkpt>
      <trkpt lat="47.2504" lon="6.3331">
        <ele>442.828885</ele>
        <time>2020-10-11T13:26:57.638Z</time>
      </trkpt>
      <trkpt lat="47.25122" lon="6.33415">
        <ele>442.335631</ele>
        <time>2020-10-11T13:27:18.886Z</time>
      </trkpt>
      <trkpt lat="47.25131" lon="6.33449">
        <ele>442.86437</ele>
        <time>2020-10-11T13:27:25.903Z</time>
      </trkpt>
      <trkpt lat="47.25133" lon="6.33501">
        <ele>443.675434</ele>
        <time>2020-10-11T13:27:36.949Z</time>
      </trkpt>
      <trkpt lat="47.25123" lon="6.3353">
        <ele>444.188646</ele>
        <time>2020-10-11T13:27:44.467Z</time>
      </trkpt>
      <trkpt lat="47.25107" lon="6.33553">
        <ele>444.709741</ele>
        <time>2020-10-11T13:27:52.406Z</time>
      </trkpt>
      <trkpt lat="47.24966" lon="6.33677">
        <ele>449.076781</ele>
        <time>2020-10-11T13:28:56.515Z</time>
      </trkpt>
      <trkpt lat="47.24942" lon="6.33701">
        <ele>449.941418</ele>
        <time>2020-10-11T13:29:07.984Z</time>
      </trkpt>
      <trkpt lat="47.2493" lon="6.33727">
        <ele>450.572793</ele>
        <time>2020-10-11T13:29:16.056Z</time>
      </trkpt>
      <trkpt lat="47.24924" lon="6.33761">
        <ele>451.272494</ele>
        <time>2020-10-11T13:29:24.589Z</time>
      </trkpt>
      <trkpt lat="47.24918" lon="6.339">
        <ele>452.745685</ele>
        <time>2020-10-11T13:29:54.795Z</time>
      </trkpt>
      <trkpt lat="47.24909" lon="6.33938">
        <ele>453.073438</ele>
        <time>2020-10-11T13:30:02.183Z</time>
      </trkpt>
      <trkpt lat="47.24849" lon="6.34087">
        <ele>453.656062</ele>
        <time>2020-10-11T13:30:28.939Z</time>
      </trkpt>
      <trkpt lat="47.24838" lon="6.34153">
        <ele>453.279974</ele>
        <time>2020-10-11T13:30:37.441Z</time>
      </trkpt>
      <trkpt lat="47.24829" lon="6.34258">
        <ele>452.694728</ele>
        <time>2020-10-11T13:30:49.471Z</time>
      </trkpt>
      <trkpt lat="47.24822" lon="6.34288">
        <ele>452.498087</ele>
        <time>2020-10-11T13:30:52.962Z</time>
      </trkpt>
      <trkpt lat="47.24774" lon="6.34397">
        <ele>449.746059</ele>
        <time>2020-10-11T13:31:06.193Z</time>
      </trkpt>
      <trkpt lat="47.2476" lon="6.3445">
        <ele>448.534546</ele>
        <time>2020-10-11T13:31:11.739Z</time>
      </trkpt>
      <trkpt lat="47.24761" lon="6.34472">
        <ele>448.072502</ele>
        <time>2020-10-11T13:31:13.673Z</time>
      </trkpt>
      <trkpt lat="47.24776" lon="6.34517">
        <ele>447.007115</ele>
        <time>2020-10-11T13:31:18.302Z</time>
      </trkpt>
      <trkpt lat="47.24791" lon="6.34539">
        <ele>446.085159</ele>
        <time>2020-10-11T13:31:21.259Z</time>
      </trkpt>
      <trkpt lat="47.24831" lon="6.3457">
        <ele>443.956376</ele>
        <time>2020-10-11T13:31:27.123Z</time>
      </trkpt>
      <trkpt lat="47.24839" lon="6.34577">
        <ele>443.565248</ele>
        <time>2020-10-11T13:31:28.190Z</time>
      </trkpt>
      <trkpt lat="47.24847" lon="6.34585">
        <ele>443.072912</ele>
        <time>2020-10-11T13:31:29.661Z</time>
      </trkpt>
      <trkpt lat="47.24854" lon="6.34592">
        <ele>442.721602</ele>
        <time>2020-10-11T13:31:30.679Z</time>
      </trkpt>
      <trkpt lat="47.24858" lon="6.34597">
        <ele>442.450193</ele>
        <time>2020-10-11T13:31:31.440Z</time>
      </trkpt>
      <trkpt lat="47.24863" lon="6.34603">
        <ele>442.16634</ele>
        <time>2020-10-11T13:31:32.177Z</time>
      </trkpt>
      <trkpt lat="47.24903" lon="6.34675">
        <ele>439.230806</ele>
        <time>2020-10-11T13:31:40.786Z</time>
      </trkpt>
      <trkpt lat="47.24907" lon="6.3468">
        <ele>438.991333</ele>
        <time>2020-10-11T13:31:41.423Z</time>
      </trkpt>
      <trkpt lat="47.24913" lon="6.34686">
        <ele>438.662449</ele>
        <time>2020-10-11T13:31:42.346Z</time>
      </trkpt>
      <trkpt lat="47.24922" lon="6.34694">
        <ele>438.527073</ele>
        <time>2020-10-11T13:31:44.005Z</time>
      </trkpt>
      <trkpt lat="47.24927" lon="6.34697">
        <ele>438.512998</ele>
        <time>2020-10-11T13:31:45.018Z</time>
      </trkpt>
      <trkpt lat="47.24932" lon="6.34699">
        <ele>438.496695</ele>
        <time>2020-10-11T13:31:45.959Z</time>
      </trkpt>
      <trkpt lat="47.24947" lon="6.34704">
        <ele>438.456275</ele>
        <time>2020-10-11T13:31:47.945Z</time>
      </trkpt>
      <trkpt lat="47.24953" lon="6.34707">
        <ele>438.437945</ele>
        <time>2020-10-11T13:31:48.933Z</time>
      </trkpt>
      <trkpt lat="47.24961" lon="6.34711">
        <ele>438.415823</ele>
        <time>2020-10-11T13:31:51.074Z</time>
      </trkpt>
      <trkpt lat="47.25014" lon="6.34774">
        <ele>438.230135</ele>
        <time>2020-10-11T13:32:03.230Z</time>
      </trkpt>
      <trkpt lat="47.25039" lon="6.34805">
        <ele>438.141887</ele>
        <time>2020-10-11T13:32:10.766Z</time>
      </trkpt>
      <trkpt lat="47.25055" lon="6.34828">
        <ele>438.082104</ele>
        <time>2020-10-11T13:32:18.817Z</time>
      </trkpt>
      <trkpt lat="47.25095" lon="6.34934">
        <ele>442.15287</ele>
        <time>2020-10-11T13:32:57.411Z</time>
      </trkpt>
      <trkpt lat="47.2511" lon="6.35028">
        <ele>445.744642</ele>
        <time>2020-10-11T13:33:34.299Z</time>
      </trkpt>
      <trkpt lat="47.25113" lon="6.35058">
        <ele>446.878454</ele>
        <time>2020-10-11T13:33:46.239Z</time>
      </trkpt>
      <trkpt lat="47.25117" lon="6.35104">
        <ele>449.00293</ele>
        <time>2020-10-11T13:34:04.696Z</time>
      </trkpt>
      <trkpt lat="47.2513" lon="6.35189">
        <ele>453.980037</ele>
        <time>2020-10-11T13:34:42.243Z</time>
      </trkpt>
      <trkpt lat="47.25165" lon="6.353">
        <ele>461.113537</ele>
        <time>2020-10-11T13:35:43.750Z</time>
      </trkpt>
      <trkpt lat="47.2518" lon="6.3549">
        <ele>472.553458</ele>
        <time>2020-10-11T13:37:18.673Z</time>
      </trkpt>
      <trkpt lat="47.25169" lon="6.35633">
        <ele>480.856585</ele>
        <time>2020-10-11T13:38:26.199Z</time>
      </trkpt>
      <trkpt lat="47.25182" lon="6.36">
        <ele>495.091238</ele>
        <time>2020-10-11T13:40:51.160Z</time>
      </trkpt>
      <trkpt lat="47.25161" lon="6.36161">
        <ele>497.266677</ele>
        <time>2020-10-11T13:41:18.500Z</time>
      </trkpt>
      <trkpt lat="47.25162" lon="6.36164">
        <ele>497.173547</ele>
        <time>2020-10-11T13:41:22.305Z</time>
      </trkpt>
      <trkpt lat="47.25163" lon="6.36166">
        <ele>497.096137</ele>
        <time>2020-10-11T13:41:22.564Z</time>
      </trkpt>
      <trkpt lat="47.2517" lon="6.36168">
        <ele>496.838295</ele>
        <time>2020-10-11T13:41:23.637Z</time>
      </trkpt>
      <trkpt lat="47.25174" lon="6.36161">
        <ele>496.630293</ele>
        <time>2020-10-11T13:41:24.503Z</time>
      </trkpt>
      <trkpt lat="47.25177" lon="6.36109">
        <ele>495.353976</ele>
        <time>2020-10-11T13:41:29.507Z</time>
      </trkpt>
      <trkpt lat="47.25201" lon="6.36003">
        <ele>492.630843</ele>
        <time>2020-10-11T13:41:39.366Z</time>
      </trkpt>
      <trkpt lat="47.25212" lon="6.35792">
        <ele>489.190911</ele>
        <time>2020-10-11T13:41:58.637Z</time>
      </trkpt>
      <trkpt lat="47.25218" lon="6.3579">
        <ele>489.062006</ele>
        <time>2020-10-11T13:41:59.911Z</time>
      </trkpt>
      <trkpt lat="47.25223" lon="6.35797">
        <ele>488.920236</ele>
        <time>2020-10-11T13:42:01.290Z</time>
      </trkpt>
      <trkpt lat="47.25218" lon="6.35867">
        <ele>487.921598</ele>
        <time>2020-10-11T13:42:13.666Z</time>
      </trkpt>
      <trkpt lat="47.25224" lon="6.3604">
        <ele>494.467315</ele>
        <time>2020-10-11T13:43:12.150Z</time>
      </trkpt>
      <trkpt lat="47.25198" lon="6.36153">
        <ele>499.441265</ele>
        <time>2020-10-11T13:44:06.175Z</time>
      </trkpt>
      <trkpt lat="47.25207" lon="6.36215">
        <ele>502.792878</ele>
        <time>2020-10-11T13:44:35.834Z</time>
      </trkpt>
      <trkpt lat="47.25203" lon="6.36255">
        <ele>504.948648</ele>
        <time>2020-10-11T13:44:54.876Z</time>
      </trkpt>
      <trkpt lat="47.25182" lon="6.36325">
        <ele>509.030758</ele>
        <time>2020-10-11T13:45:29.546Z</time>
      </trkpt>
      <trkpt lat="47.25148" lon="6.36358">
        <ele>512.196291</ele>
        <time>2020-10-11T13:45:53.962Z</time>
      </trkpt>
      <trkpt lat="47.25126" lon="6.36394">
        <ele>513.819562</ele>
        <time>2020-10-11T13:46:12.295Z</time>
      </trkpt>
      <trkpt lat="47.25119" lon="6.36429">
        <ele>514.989181</ele>
        <time>2020-10-11T13:46:25.296Z</time>
      </trkpt>
      <trkpt lat="47.25123" lon="6.36501">
        <ele>517.298094</ele>
        <time>2020-10-11T13:46:49.130Z</time>
      </trkpt>
      <trkpt lat="47.25091" lon="6.36566">
        <ele>519.855659</ele>
        <time>2020-10-11T13:47:13.736Z</time>
      </trkpt>
      <trkpt lat="47.25094" lon="6.366">
        <ele>520.849075</ele>
        <time>2020-10-11T13:47:22.026Z</time>
      </trkpt>
      <trkpt lat="47.2513" lon="6.3669">
        <ele>521.049915</ele>
        <time>2020-10-11T13:47:42.036Z</time>
      </trkpt>
      <trkpt lat="47.25137" lon="6.36695">
        <ele>521.070222</ele>
        <time>2020-10-11T13:47:45.034Z</time>
      </trkpt>
      <trkpt lat="47.25155" lon="6.36705">
        <ele>521.124377</ele>
        <time>2020-10-11T13:47:48.348Z</time>
      </trkpt>
      <trkpt lat="47.25173" lon="6.36729">
        <ele>521.195457</ele>
        <time>2020-10-11T13:47:54.001Z</time>
      </trkpt>
      <trkpt lat="47.25176" lon="6.36776">
        <ele>521.28579</ele>
        <time>2020-10-11T13:47:59.820Z</time>
      </trkpt>
      <trkpt lat="47.25176" lon="6.36786">
        <ele>521.304686</ele>
        <time>2020-10-11T13:48:00.840Z</time>
      </trkpt>
      <trkpt lat="47.25176" lon="6.36807">
        <ele>521.344773</ele>
        <time>2020-10-11T13:48:02.969Z</time>
      </trkpt>
      <trkpt lat="47.2518" lon="6.36826">
        <ele>520.874374</ele>
        <time>2020-10-11T13:48:05.609Z</time>
      </trkpt>
      <trkpt lat="47.25244" lon="6.36944">
        <ele>516.799083</ele>
        <time>2020-10-11T13:48:19.481Z</time>
      </trkpt>
      <trkpt lat="47.2526" lon="6.36987">
        <ele>515.466655</ele>
        <time>2020-10-11T13:48:23.882Z</time>
      </trkpt>
      <trkpt lat="47.25267" lon="6.37047">
        <ele>513.918804</ele>
        <time>2020-10-11T13:48:29.370Z</time>
      </trkpt>
      <trkpt lat="47.25259" lon="6.37107">
        <ele>512.703268</ele>
        <time>2020-10-11T13:48:34.844Z</time>
      </trkpt>
      <trkpt lat="47.25188" lon="6.37279">
        <ele>508.958457</ele>
        <time>2020-10-11T13:48:54.558Z</time>
      </trkpt>
      <trkpt lat="47.25059" lon="6.3757">
        <ele>513.842306</ele>
        <time>2020-10-11T13:50:11.181Z</time>
      </trkpt>
      <trkpt lat="47.2493" lon="6.37774">
        <ele>521.229904</ele>
        <time>2020-10-11T13:51:43.942Z</time>
      </trkpt>
      <trkpt lat="47.24888" lon="6.37885">
        <ele>524.54692</ele>
        <time>2020-10-11T13:52:20.152Z</time>
      </trkpt>
      <trkpt lat="47.24846" lon="6.37933">
        <ele>525.195471</ele>
        <time>2020-10-11T13:52:36.562Z</time>
      </trkpt>
      <trkpt lat="47.24838" lon="6.37987">
        <ele>525.022918</ele>
        <time>2020-10-11T13:52:45.048Z</time>
      </trkpt>
      <trkpt lat="47.24861" lon="6.38084">
        <ele>524.700129</ele>
        <time>2020-10-11T13:52:56.922Z</time>
      </trkpt>
      <trkpt lat="47.24854" lon="6.38111">
        <ele>524.609245</ele>
        <time>2020-10-11T13:52:59.902Z</time>
      </trkpt>
      <trkpt lat="47.24828" lon="6.38153">
        <ele>524.053639</ele>
        <time>2020-10-11T13:53:05.588Z</time>
      </trkpt>
      <trkpt lat="47.24827" lon="6.38167">
        <ele>523.804656</ele>
        <time>2020-10-11T13:53:07.007Z</time>
      </trkpt>
      <trkpt lat="47.24837" lon="6.38204">
        <ele>523.119658</ele>
        <time>2020-10-11T13:53:10.841Z</time>
      </trkpt>
      <trkpt lat="47.24877" lon="6.3827">
        <ele>521.595727</ele>
        <time>2020-10-11T13:53:19.401Z</time>
      </trkpt>
      <trkpt lat="47.24903" lon="6.38376">
        <ele>519.882969</ele>
        <time>2020-10-11T13:53:30.869Z</time>
      </trkpt>
      <trkpt lat="47.24931" lon="6.38455">
        <ele>519.658806</ele>
        <time>2020-10-11T13:53:41.005Z</time>
      </trkpt>
      <trkpt lat="47.24931" lon="6.38509">
        <ele>519.525544</ele>
        <time>2020-10-11T13:53:48.090Z</time>
      </trkpt>
      <trkpt lat="47.24917" lon="6.38552">
        <ele>519.404256</ele>
        <time>2020-10-11T13:53:55.479Z</time>
      </trkpt>
      <trkpt lat="47.24862" lon="6.38627">
        <ele>520.088099</ele>
        <time>2020-10-11T13:54:15.750Z</time>
      </trkpt>
      <trkpt lat="47.24847" lon="6.38643">
        <ele>520.495029</ele>
        <time>2020-10-11T13:54:21.540Z</time>
      </trkpt>
      <trkpt lat="47.24811" lon="6.38656">
        <ele>521.359869</ele>
        <time>2020-10-11T13:54:34.069Z</time>
      </trkpt>
      <trkpt lat="47.2478" lon="6.38673">
        <ele>522.099009</ele>
        <time>2020-10-11T13:54:45.930Z</time>
      </trkpt>
      <trkpt lat="47.24759" lon="6.38688">
        <ele>522.637949</ele>
        <time>2020-10-11T13:54:54.595Z</time>
      </trkpt>
      <trkpt lat="47.24758" lon="6.38692">
        <ele>522.71112</ele>
        <time>2020-10-11T13:54:55.703Z</time>
      </trkpt>
      <trkpt lat="47.24756" lon="6.387">
        <ele>522.839182</ele>
        <time>2020-10-11T13:54:58.135Z</time>
      </trkpt>
      <trkpt lat="47.24753" lon="6.38746">
        <ele>523.645522</ele>
        <time>2020-10-11T13:55:09.650Z</time>
      </trkpt>
      <trkpt lat="47.24757" lon="6.38765">
        <ele>524.082402</ele>
        <time>2020-10-11T13:55:14.863Z</time>
      </trkpt>
      <trkpt lat="47.24758" lon="6.38773">
        <ele>524.280044</ele>
        <time>2020-10-11T13:55:17.040Z</time>
      </trkpt>
      <trkpt lat="47.24761" lon="6.3879">
        <ele>524.680596</ele>
        <time>2020-10-11T13:55:21.381Z</time>
      </trkpt>
      <trkpt lat="47.24767" lon="6.38815">
        <ele>525.276979</ele>
        <time>2020-10-11T13:55:29.094Z</time>
      </trkpt>
      <trkpt lat="47.24789" lon="6.38863">
        <ele>526.58158</ele>
        <time>2020-10-11T13:55:45.338Z</time>
      </trkpt>
      <trkpt lat="47.24815" lon="6.38987">
        <ele>529.463227</ele>
        <time>2020-10-11T13:56:20.576Z</time>
      </trkpt>
      <trkpt lat="47.24817" lon="6.39021">
        <ele>529.962853</ele>
        <time>2020-10-11T13:56:29.697Z</time>
      </trkpt>
      <trkpt lat="47.24818" lon="6.39046">
        <ele>530.331639</ele>
        <time>2020-10-11T13:56:35.824Z</time>
      </trkpt>
      <trkpt lat="47.24823" lon="6.39094">
        <ele>531.037099</ele>
        <time>2020-10-11T13:56:47.109Z</time>
      </trkpt>
      <trkpt lat="47.24837" lon="6.39174">
        <ele>532.241453</ele>
        <time>2020-10-11T13:57:05.520Z</time>
      </trkpt>
      <trkpt lat="47.24878" lon="6.39386">
        <ele>533.855235</ele>
        <time>2020-10-11T13:57:44.411Z</time>
      </trkpt>
      <trkpt lat="47.24892" lon="6.39767">
        <ele>534.608899</ele>
        <time>2020-10-11T13:58:40.170Z</time>
      </trkpt>
      <trkpt lat="47.24896" lon="6.3979">
        <ele>534.655605</ele>
        <time>2020-10-11T13:58:43.464Z</time>
      </trkpt>
      <trkpt lat="47.24905" lon="6.39823">
        <ele>534.725502</ele>
        <time>2020-10-11T13:58:48.982Z</time>
      </trkpt>
      <trkpt lat="47.24918" lon="6.39858">
        <ele>534.804007</ele>
        <time>2020-10-11T13:58:54.949Z</time>
      </trkpt>
      <trkpt lat="47.25017" lon="6.4004">
        <ele>535.316041</ele>
        <time>2020-10-11T13:59:31.350Z</time>
      </trkpt>
      <trkpt lat="47.25045" lon="6.40074">
        <ele>535.460203</ele>
        <time>2020-10-11T13:59:39.772Z</time>
      </trkpt>
      <trkpt lat="47.25076" lon="6.401">
        <ele>535.599475</ele>
        <time>2020-10-11T13:59:47.922Z</time>
      </trkpt>
      <trkpt lat="47.25113" lon="6.4015">
        <ele>535.798288</ele>
        <time>2020-10-11T13:59:59.549Z</time>
      </trkpt>
      <trkpt lat="47.25189" lon="6.40308">
        <ele>536.240456</ele>
        <time>2020-10-11T14:00:29.642Z</time>
      </trkpt>
      <trkpt lat="47.25452" lon="6.41023">
        <ele>537.709798</ele>
        <time>2020-10-11T14:02:31.742Z</time>
      </trkpt>
      <trkpt lat="47.2553" lon="6.41279">
        <ele>538.721531</ele>
        <time>2020-10-11T14:03:16.728Z</time>
      </trkpt>
      <trkpt lat="47.25567" lon="6.41403">
        <ele>539.480441</ele>
        <time>2020-10-11T14:03:40.379Z</time>
      </trkpt>
      <trkpt lat="47.25572" lon="6.41423">
        <ele>539.61353</ele>
        <time>2020-10-11T14:03:43.821Z</time>
      </trkpt>
      <trkpt lat="47.25609" lon="6.41547">
        <ele>540.496137</ele>
        <time>2020-10-11T14:04:08.639Z</time>
      </trkpt>
      <trkpt lat="47.25645" lon="6.41633">
        <ele>541.185001</ele>
        <time>2020-10-11T14:04:26.907Z</time>
      </trkpt>
      <trkpt lat="47.25661" lon="6.41673">
        <ele>541.506644</ele>
        <time>2020-10-11T14:04:35.375Z</time>
      </trkpt>
      <trkpt lat="47.25691" lon="6.41778">
        <ele>542.284905</ele>
        <time>2020-10-11T14:04:55.414Z</time>
      </trkpt>
      <trkpt lat="47.25697" lon="6.4183">
        <ele>542.631339</ele>
        <time>2020-10-11T14:05:05.042Z</time>
      </trkpt>
      <trkpt lat="47.25702" lon="6.41866">
        <ele>542.858171</ele>
        <time>2020-10-11T14:05:11.925Z</time>
      </trkpt>
      <trkpt lat="47.25706" lon="6.41903">
        <ele>543.090007</ele>
        <time>2020-10-11T14:05:18.779Z</time>
      </trkpt>
      <trkpt lat="47.25709" lon="6.41986">
        <ele>543.597525</ele>
        <time>2020-10-11T14:05:33.380Z</time>
      </trkpt>
      <trkpt lat="47.25696" lon="6.42124">
        <ele>544.376424</ele>
        <time>2020-10-11T14:05:56.824Z</time>
      </trkpt>
      <trkpt lat="47.25704" lon="6.42363">
        <ele>545.587314</ele>
        <time>2020-10-11T14:06:36.653Z</time>
      </trkpt>
      <trkpt lat="47.25718" lon="6.4244">
        <ele>546.155688</ele>
        <time>2020-10-11T14:06:50.277Z</time>
      </trkpt>
      <trkpt lat="47.25814" lon="6.42766">
        <ele>549.10333</ele>
        <time>2020-10-11T14:07:57.584Z</time>
      </trkpt>
      <trkpt lat="47.25828" lon="6.42848">
        <ele>549.886496</ele>
        <time>2020-10-11T14:08:15.121Z</time>
      </trkpt>
      <trkpt lat="47.25827" lon="6.4297">
        <ele>550.991863</ele>
        <time>2020-10-11T14:08:39.603Z</time>
      </trkpt>
      <trkpt lat="47.25827" lon="6.43027">
        <ele>551.509591</ele>
        <time>2020-10-11T14:08:50.621Z</time>
      </trkpt>
      <trkpt lat="47.25844" lon="6.43192">
        <ele>552.399698</ele>
        <time>2020-10-11T14:09:19.645Z</time>
      </trkpt>
      <trkpt lat="47.25851" lon="6.43383">
        <ele>552.94652</ele>
        <time>2020-10-11T14:09:47.327Z</time>
      </trkpt>
      <trkpt lat="47.25872" lon="6.43561">
        <ele>553.350084</ele>
        <time>2020-10-11T14:10:14.982Z</time>
      </trkpt>
      <trkpt lat="47.25872" lon="6.436">
        <ele>553.438578</ele>
        <time>2020-10-11T14:10:21.421Z</time>
      </trkpt>
      <trkpt lat="47.25867" lon="6.43623">
        <ele>553.504573</ele>
        <time>2020-10-11T14:10:25.262Z</time>
      </trkpt>
      <trkpt lat="47.25847" lon="6.43673">
        <ele>553.728519</ele>
        <time>2020-10-11T14:10:34.961Z</time>
      </trkpt>
      <trkpt lat="47.25827" lon="6.43726">
        <ele>553.960341</ele>
        <time>2020-10-11T14:10:45.049Z</time>
      </trkpt>
      <trkpt lat="47.2581" lon="6.4381">
        <ele>554.302418</ele>
        <time>2020-10-11T14:10:59.861Z</time>
      </trkpt>
      <trkpt lat="47.25792" lon="6.43868">
        <ele>554.496154</ele>
        <time>2020-10-11T14:11:10.173Z</time>
      </trkpt>
      <trkpt lat="47.25789" lon="6.43907">
        <ele>554.487665</ele>
        <time>2020-10-11T14:11:15.689Z</time>
      </trkpt>
      <trkpt lat="47.25793" lon="6.43985">
        <ele>554.470694</ele>
        <time>2020-10-11T14:11:26.349Z</time>
      </trkpt>
      <trkpt lat="47.25792" lon="6.44019">
        <ele>554.463276</ele>
        <time>2020-10-11T14:11:30.955Z</time>
      </trkpt>
      <trkpt lat="47.25789" lon="6.44067">
        <ele>554.452676</ele>
        <time>2020-10-11T14:11:37.486Z</time>
      </trkpt>
      <trkpt lat="47.25789" lon="6.4414">
        <ele>554.451592</ele>
        <time>2020-10-11T14:11:47.220Z</time>
      </trkpt>
      <trkpt lat="47.25793" lon="6.44234">
        <ele>554.500888</ele>
        <time>2020-10-11T14:12:00.045Z</time>
      </trkpt>
      <trkpt lat="47.25823" lon="6.44609">
        <ele>554.89539</ele>
        <time>2020-10-11T14:12:57.196Z</time>
      </trkpt>
      <trkpt lat="47.2583" lon="6.44665">
        <ele>554.944133</ele>
        <time>2020-10-11T14:13:05.223Z</time>
      </trkpt>
      <trkpt lat="47.25833" lon="6.44689">
        <ele>554.937619</ele>
        <time>2020-10-11T14:13:08.582Z</time>
      </trkpt>
      <trkpt lat="47.25848" lon="6.44758">
        <ele>554.918123</ele>
        <time>2020-10-11T14:13:18.734Z</time>
      </trkpt>
      <trkpt lat="47.25869" lon="6.44834">
        <ele>554.896268</ele>
        <time>2020-10-11T14:13:29.895Z</time>
      </trkpt>
      <trkpt lat="47.25898" lon="6.44926">
        <ele>554.953092</ele>
        <time>2020-10-11T14:13:43.938Z</time>
      </trkpt>
      <trkpt lat="47.25928" lon="6.45079">
        <ele>555.30573</ele>
        <time>2020-10-11T14:14:08.187Z</time>
      </trkpt>
      <trkpt lat="47.25934" lon="6.45149">
        <ele>555.463415</ele>
        <time>2020-10-11T14:14:19.906Z</time>
      </trkpt>
      <trkpt lat="47.25934" lon="6.45311">
        <ele>556.406045</ele>
        <time>2020-10-11T14:14:47.410Z</time>
      </trkpt>
      <trkpt lat="47.25965" lon="6.45613">
        <ele>558.559233</ele>
        <time>2020-10-11T14:15:42.319Z</time>
      </trkpt>
      <trkpt lat="47.25967" lon="6.4574">
        <ele>559.724738</ele>
        <time>2020-10-11T14:16:06.900Z</time>
      </trkpt>
      <trkpt lat="47.25944" lon="6.46088">
        <ele>563.421577</ele>
        <time>2020-10-11T14:17:19.129Z</time>
      </trkpt>
      <trkpt lat="47.25919" lon="6.46302">
        <ele>565.33121</ele>
        <time>2020-10-11T14:18:00.398Z</time>
      </trkpt>
      <trkpt lat="47.25919" lon="6.46446">
        <ele>566.361652</ele>
        <time>2020-10-11T14:18:25.634Z</time>
      </trkpt>
      <trkpt lat="47.25911" lon="6.46564">
        <ele>566.893892</ele>
        <time>2020-10-11T14:18:46.468Z</time>
      </trkpt>
      <trkpt lat="47.25878" lon="6.46634">
        <ele>567.22776</ele>
        <time>2020-10-11T14:19:00.304Z</time>
      </trkpt>
      <trkpt lat="47.25872" lon="6.46674">
        <ele>567.390633</ele>
        <time>2020-10-11T14:19:06.678Z</time>
      </trkpt>
      <trkpt lat="47.25867" lon="6.46725">
        <ele>567.550231</ele>
        <time>2020-10-11T14:19:14.402Z</time>
      </trkpt>
      <trkpt lat="47.25855" lon="6.4676">
        <ele>567.550231</ele>
        <time>2020-10-11T14:19:20.255Z</time>
      </trkpt>
      <trkpt lat="47.25831" lon="6.46785">
        <ele>567.550231</ele>
        <time>2020-10-11T14:19:26.406Z</time>
      </trkpt>
      <trkpt lat="47.25815" lon="6.46808">
        <ele>567.550231</ele>
        <time>2020-10-11T14:19:31.075Z</time>
      </trkpt>
      <trkpt lat="47.25786" lon="6.46828">
        <ele>567.550231</ele>
        <time>2020-10-11T14:19:37.717Z</time>
      </trkpt>
    </trkseg>
  </trk>
  <trk>
    <name><![CDATA[landresse songeson]]></name>
    <extensions>
      <line xmlns="http://www.topografix.com/GPX/gpx_style/0/2">
        <color>ff00e4</color>
        <width>4</width>
      </line>
    </extensions>
    <trkseg>
      <trkpt lat="47.25786" lon="6.46828">
        <ele>566.886474</ele>
        <time>2020-10-11T06:31:20.097Z</time>
      </trkpt>
      <trkpt lat="47.25746" lon="6.46888">
        <ele>566.886474</ele>
        <time>2020-10-11T06:31:30.909Z</time>
      </trkpt>
      <trkpt lat="47.25688" lon="6.46912">
        <ele>566.603943</ele>
        <time>2020-10-11T06:31:41.588Z</time>
      </trkpt>
      <trkpt lat="47.25685" lon="6.469">
        <ele>566.512634</ele>
        <time>2020-10-11T06:31:43.200Z</time>
      </trkpt>
      <trkpt lat="47.25664" lon="6.46842">
        <ele>566.059955</ele>
        <time>2020-10-11T06:31:50.771Z</time>
      </trkpt>
      <trkpt lat="47.25643" lon="6.46738">
        <ele>565.311431</ele>
        <time>2020-10-11T06:32:03.142Z</time>
      </trkpt>
      <trkpt lat="47.25642" lon="6.46733">
        <ele>565.269844</ele>
        <time>2020-10-11T06:32:03.723Z</time>
      </trkpt>
      <trkpt lat="47.25641" lon="6.46725">
        <ele>565.214778</ele>
        <time>2020-10-11T06:32:04.674Z</time>
      </trkpt>
      <trkpt lat="47.25628" lon="6.46633">
        <ele>564.698401</ele>
        <time>2020-10-11T06:32:15.592Z</time>
      </trkpt>
      <trkpt lat="47.25611" lon="6.46559">
        <ele>564.298529</ele>
        <time>2020-10-11T06:32:24.975Z</time>
      </trkpt>
      <trkpt lat="47.25606" lon="6.46538">
        <ele>564.18847</ele>
        <time>2020-10-11T06:32:27.768Z</time>
      </trkpt>
      <trkpt lat="47.25593" lon="6.46469">
        <ele>563.822987</ele>
        <time>2020-10-11T06:32:36.595Z</time>
      </trkpt>
      <trkpt lat="47.25585" lon="6.46426">
        <ele>563.674603</ele>
        <time>2020-10-11T06:32:42.252Z</time>
      </trkpt>
      <trkpt lat="47.25542" lon="6.4632">
        <ele>563.474068</ele>
        <time>2020-10-11T06:32:58.824Z</time>
      </trkpt>
      <trkpt lat="47.25534" lon="6.46293">
        <ele>563.427983</ele>
        <time>2020-10-11T06:33:02.542Z</time>
      </trkpt>
      <trkpt lat="47.25543" lon="6.46144">
        <ele>563.493725</ele>
        <time>2020-10-11T06:33:23.220Z</time>
      </trkpt>
      <trkpt lat="47.25534" lon="6.46073">
        <ele>563.749433</ele>
        <time>2020-10-11T06:33:34.299Z</time>
      </trkpt>
      <trkpt lat="47.25517" lon="6.45996">
        <ele>564.033864</ele>
        <time>2020-10-11T06:33:47.559Z</time>
      </trkpt>
      <trkpt lat="47.25487" lon="6.4593">
        <ele>564.449165</ele>
        <time>2020-10-11T06:34:02.690Z</time>
      </trkpt>
      <trkpt lat="47.25414" lon="6.45844">
        <ele>565.596242</ele>
        <time>2020-10-11T06:34:28.683Z</time>
      </trkpt>
      <trkpt lat="47.25406" lon="6.45835">
        <ele>565.718444</ele>
        <time>2020-10-11T06:34:31.799Z</time>
      </trkpt>
      <trkpt lat="47.25372" lon="6.45799">
        <ele>566.23795</ele>
        <time>2020-10-11T06:34:43.527Z</time>
      </trkpt>
      <trkpt lat="47.25344" lon="6.45743">
        <ele>566.818257</ele>
        <time>2020-10-11T06:34:56.269Z</time>
      </trkpt>
      <trkpt lat="47.25298" lon="6.45504">
        <ele>569.048366</ele>
        <time>2020-10-11T06:35:42.521Z</time>
      </trkpt>
      <trkpt lat="47.25284" lon="6.45365">
        <ele>570.946411</ele>
        <time>2020-10-11T06:36:12.153Z</time>
      </trkpt>
      <trkpt lat="47.25289" lon="6.45321">
        <ele>571.563449</ele>
        <time>2020-10-11T06:36:22.622Z</time>
      </trkpt>
      <trkpt lat="47.25305" lon="6.45278">
        <ele>572.222297</ele>
        <time>2020-10-11T06:36:34.244Z</time>
      </trkpt>
      <trkpt lat="47.25298" lon="6.45256">
        <ele>572.712167</ele>
        <time>2020-10-11T06:36:40.100Z</time>
      </trkpt>
      <trkpt lat="47.25281" lon="6.45248">
        <ele>573.271123</ele>
        <time>2020-10-11T06:36:46.709Z</time>
      </trkpt>
      <trkpt lat="47.2515" lon="6.45285">
        <ele>577.352053</ele>
        <time>2020-10-11T06:37:36.983Z</time>
      </trkpt>
      <trkpt lat="47.25118" lon="6.45268">
        <ele>578.737428</ele>
        <time>2020-10-11T06:37:50.811Z</time>
      </trkpt>
      <trkpt lat="47.2506" lon="6.45217">
        <ele>581.978553</ele>
        <time>2020-10-11T06:38:20.820Z</time>
      </trkpt>
      <trkpt lat="47.25038" lon="6.45161">
        <ele>584.054077</ele>
        <time>2020-10-11T06:38:42.083Z</time>
      </trkpt>
      <trkpt lat="47.25021" lon="6.45064">
        <ele>587.777428</ele>
        <time>2020-10-11T06:39:19.045Z</time>
      </trkpt>
      <trkpt lat="47.24982" lon="6.45051">
        <ele>590.556493</ele>
        <time>2020-10-11T06:39:42.179Z</time>
      </trkpt>
      <trkpt lat="47.24891" lon="6.45061">
        <ele>596.929544</ele>
        <time>2020-10-11T06:40:38.246Z</time>
      </trkpt>
      <trkpt lat="47.24782" lon="6.45025">
        <ele>605.364194</ele>
        <time>2020-10-11T06:41:49.221Z</time>
      </trkpt>
      <trkpt lat="47.24703" lon="6.4503">
        <ele>611.493387</ele>
        <time>2020-10-11T06:42:42.064Z</time>
      </trkpt>
      <trkpt lat="47.24678" lon="6.45025">
        <ele>613.375246</ele>
        <time>2020-10-11T06:42:58.432Z</time>
      </trkpt>
      <trkpt lat="47.24599" lon="6.45001">
        <ele>618.404254</ele>
        <time>2020-10-11T06:43:47.498Z</time>
      </trkpt>
      <trkpt lat="47.24558" lon="6.44985">
        <ele>621.029714</ele>
        <time>2020-10-11T06:44:10.961Z</time>
      </trkpt>
      <trkpt lat="47.24506" lon="6.44939">
        <ele>624.297009</ele>
        <time>2020-10-11T06:44:40.458Z</time>
      </trkpt>
      <trkpt lat="47.24452" lon="6.44904">
        <ele>625.397971</ele>
        <time>2020-10-11T06:45:02.301Z</time>
      </trkpt>
      <trkpt lat="47.24369" lon="6.4486">
        <ele>627.035462</ele>
        <time>2020-10-11T06:45:23.952Z</time>
      </trkpt>
      <trkpt lat="47.24365" lon="6.44858">
        <ele>627.120794</ele>
        <time>2020-10-11T06:45:25.130Z</time>
      </trkpt>
      <trkpt lat="47.24354" lon="6.44844">
        <ele>627.390308</ele>
        <time>2020-10-11T06:45:28.496Z</time>
      </trkpt>
      <trkpt lat="47.2434" lon="6.44824">
        <ele>627.565334</ele>
        <time>2020-10-11T06:45:32.754Z</time>
      </trkpt>
      <trkpt lat="47.24321" lon="6.44802">
        <ele>627.759178</ele>
        <time>2020-10-11T06:45:38.052Z</time>
      </trkpt>
      <trkpt lat="47.24295" lon="6.44777">
        <ele>628.008162</ele>
        <time>2020-10-11T06:45:44.889Z</time>
      </trkpt>
      <trkpt lat="47.24286" lon="6.4477">
        <ele>628.089401</ele>
        <time>2020-10-11T06:45:47.162Z</time>
      </trkpt>
      <trkpt lat="47.24257" lon="6.44748">
        <ele>628.350883</ele>
        <time>2020-10-11T06:45:55.009Z</time>
      </trkpt>
      <trkpt lat="47.24208" lon="6.44721">
        <ele>628.769988</ele>
        <time>2020-10-11T06:46:09.211Z</time>
      </trkpt>
      <trkpt lat="47.24124" lon="6.44704">
        <ele>630.114624</ele>
        <time>2020-10-11T06:46:35.682Z</time>
      </trkpt>
      <trkpt lat="47.24096" lon="6.44686">
        <ele>630.644051</ele>
        <time>2020-10-11T06:46:45.966Z</time>
      </trkpt>
      <trkpt lat="47.24047" lon="6.44639">
        <ele>631.635335</ele>
        <time>2020-10-11T06:47:03.295Z</time>
      </trkpt>
      <trkpt lat="47.24037" lon="6.44634">
        <ele>631.821029</ele>
        <time>2020-10-11T06:47:07.161Z</time>
      </trkpt>
      <trkpt lat="47.23992" lon="6.44608">
        <ele>632.385648</ele>
        <time>2020-10-11T06:47:20.664Z</time>
      </trkpt>
      <trkpt lat="47.23927" lon="6.44546">
        <ele>633.201416</ele>
        <time>2020-10-11T06:47:40.768Z</time>
      </trkpt>
      <trkpt lat="47.23904" lon="6.44532">
        <ele>633.459454</ele>
        <time>2020-10-11T06:47:47.208Z</time>
      </trkpt>
      <trkpt lat="47.23778" lon="6.44475">
        <ele>634.522793</ele>
        <time>2020-10-11T06:48:20.114Z</time>
      </trkpt>
      <trkpt lat="47.23712" lon="6.44436">
        <ele>635.02253</ele>
        <time>2020-10-11T06:48:38.089Z</time>
      </trkpt>
      <trkpt lat="47.23551" lon="6.44326">
        <ele>635.780256</ele>
        <time>2020-10-11T06:49:19.106Z</time>
      </trkpt>
      <trkpt lat="47.2336" lon="6.44139">
        <ele>636.16178</ele>
        <time>2020-10-11T06:50:07.444Z</time>
      </trkpt>
      <trkpt lat="47.23341" lon="6.44126">
        <ele>636.256707</ele>
        <time>2020-10-11T06:50:12.101Z</time>
      </trkpt>
      <trkpt lat="47.23295" lon="6.44094">
        <ele>636.485653</ele>
        <time>2020-10-11T06:50:23.798Z</time>
      </trkpt>
      <trkpt lat="47.23273" lon="6.44081">
        <ele>636.591222</ele>
        <time>2020-10-11T06:50:29.406Z</time>
      </trkpt>
      <trkpt lat="47.23249" lon="6.44078">
        <ele>636.697148</ele>
        <time>2020-10-11T06:50:35.206Z</time>
      </trkpt>
      <trkpt lat="47.23156" lon="6.44086">
        <ele>637.845923</ele>
        <time>2020-10-11T06:50:59.406Z</time>
      </trkpt>
      <trkpt lat="47.23072" lon="6.44074">
        <ele>639.16679</ele>
        <time>2020-10-11T06:51:24.359Z</time>
      </trkpt>
      <trkpt lat="47.22981" lon="6.44017">
        <ele>641.385948</ele>
        <time>2020-10-11T06:52:00.030Z</time>
      </trkpt>
      <trkpt lat="47.22952" lon="6.4401">
        <ele>642.139116</ele>
        <time>2020-10-11T06:52:10.787Z</time>
      </trkpt>
      <trkpt lat="47.22929" lon="6.44003">
        <ele>642.737842</ele>
        <time>2020-10-11T06:52:19.246Z</time>
      </trkpt>
      <trkpt lat="47.22911" lon="6.43994">
        <ele>643.210602</ele>
        <time>2020-10-11T06:52:25.756Z</time>
      </trkpt>
      <trkpt lat="47.22873" lon="6.43978">
        <ele>644.201389</ele>
        <time>2020-10-11T06:52:39.221Z</time>
      </trkpt>
      <trkpt lat="47.22846" lon="6.43973">
        <ele>644.478859</ele>
        <time>2020-10-11T06:52:48.088Z</time>
      </trkpt>
      <trkpt lat="47.22837" lon="6.43972">
        <ele>644.572359</ele>
        <time>2020-10-11T06:52:51.099Z</time>
      </trkpt>
      <trkpt lat="47.22826" lon="6.43969">
        <ele>644.683135</ele>
        <time>2020-10-11T06:52:54.510Z</time>
      </trkpt>
      <trkpt lat="47.22784" lon="6.43938">
        <ele>645.162913</ele>
        <time>2020-10-11T06:53:08.633Z</time>
      </trkpt>
      <trkpt lat="47.22778" lon="6.43937">
        <ele>645.229977</ele>
        <time>2020-10-11T06:53:10.515Z</time>
      </trkpt>
      <trkpt lat="47.22749" lon="6.43972">
        <ele>645.60847</ele>
        <time>2020-10-11T06:53:19.662Z</time>
      </trkpt>
      <trkpt lat="47.22729" lon="6.43997">
        <ele>645.876448</ele>
        <time>2020-10-11T06:53:24.968Z</time>
      </trkpt>
      <trkpt lat="47.22705" lon="6.44025">
        <ele>645.635668</ele>
        <time>2020-10-11T06:53:31.125Z</time>
      </trkpt>
      <trkpt lat="47.22647" lon="6.44089">
        <ele>643.877556</ele>
        <time>2020-10-11T06:53:42.516Z</time>
      </trkpt>
      <trkpt lat="47.22626" lon="6.44115">
        <ele>643.224196</ele>
        <time>2020-10-11T06:53:46.318Z</time>
      </trkpt>
      <trkpt lat="47.22619" lon="6.44129">
        <ele>642.92748</ele>
        <time>2020-10-11T06:53:48.048Z</time>
      </trkpt>
      <trkpt lat="47.22615" lon="6.44141">
        <ele>642.7059</ele>
        <time>2020-10-11T06:53:49.302Z</time>
      </trkpt>
      <trkpt lat="47.22608" lon="6.44178">
        <ele>642.083102</ele>
        <time>2020-10-11T06:53:52.831Z</time>
      </trkpt>
      <trkpt lat="47.22602" lon="6.44185">
        <ele>641.893791</ele>
        <time>2020-10-11T06:53:53.879Z</time>
      </trkpt>
      <trkpt lat="47.22543" lon="6.44206">
        <ele>640.492472</ele>
        <time>2020-10-11T06:54:02.296Z</time>
      </trkpt>
      <trkpt lat="47.22523" lon="6.44213">
        <ele>640.031131</ele>
        <time>2020-10-11T06:54:05.035Z</time>
      </trkpt>
      <trkpt lat="47.22505" lon="6.44225">
        <ele>639.577525</ele>
        <time>2020-10-11T06:54:07.970Z</time>
      </trkpt>
      <trkpt lat="47.22463" lon="6.44259">
        <ele>638.490153</ele>
        <time>2020-10-11T06:54:15.190Z</time>
      </trkpt>
      <trkpt lat="47.22451" lon="6.44266">
        <ele>638.183992</ele>
        <time>2020-10-11T06:54:17.316Z</time>
      </trkpt>
      <trkpt lat="47.22436" lon="6.44273">
        <ele>637.82798</ele>
        <time>2020-10-11T06:54:20.369Z</time>
      </trkpt>
      <trkpt lat="47.22384" lon="6.44273">
        <ele>638.513707</ele>
        <time>2020-10-11T06:54:31.489Z</time>
      </trkpt>
      <trkpt lat="47.22357" lon="6.44262">
        <ele>639.192386</ele>
        <time>2020-10-11T06:54:41.372Z</time>
      </trkpt>
      <trkpt lat="47.22333" lon="6.44254">
        <ele>639.784946</ele>
        <time>2020-10-11T06:54:51.252Z</time>
      </trkpt>
      <trkpt lat="47.22026" lon="6.44223">
        <ele>648.677667</ele>
        <time>2020-10-11T06:56:57.781Z</time>
      </trkpt>
      <trkpt lat="47.21804" lon="6.44166">
        <ele>649.550729</ele>
        <time>2020-10-11T06:57:48.540Z</time>
      </trkpt>
      <trkpt lat="47.21685" lon="6.44065">
        <ele>648.248347</ele>
        <time>2020-10-11T06:58:09.696Z</time>
      </trkpt>
      <trkpt lat="47.2163" lon="6.43991">
        <ele>647.491615</ele>
        <time>2020-10-11T06:58:21.194Z</time>
      </trkpt>
      <trkpt lat="47.21534" lon="6.43905">
        <ele>647.78929</ele>
        <time>2020-10-11T06:58:48.911Z</time>
      </trkpt>
      <trkpt lat="47.21459" lon="6.43838">
        <ele>649.369694</ele>
        <time>2020-10-11T06:59:18.745Z</time>
      </trkpt>
      <trkpt lat="47.21416" lon="6.43819">
        <ele>650.169408</ele>
        <time>2020-10-11T06:59:35.402Z</time>
      </trkpt>
      <trkpt lat="47.21208" lon="6.43799">
        <ele>652.178362</ele>
        <time>2020-10-11T07:00:34.961Z</time>
      </trkpt>
      <trkpt lat="47.21089" lon="6.43801">
        <ele>650.421906</ele>
        <time>2020-10-11T07:00:53.437Z</time>
      </trkpt>
      <trkpt lat="47.20975" lon="6.43774">
        <ele>647.086363</ele>
        <time>2020-10-11T07:01:09.432Z</time>
      </trkpt>
      <trkpt lat="47.20881" lon="6.43732">
        <ele>643.833624</ele>
        <time>2020-10-11T07:01:23.107Z</time>
      </trkpt>
      <trkpt lat="47.20776" lon="6.43643">
        <ele>641.531854</ele>
        <time>2020-10-11T07:01:41.604Z</time>
      </trkpt>
      <trkpt lat="47.20755" lon="6.43625">
        <ele>641.084918</ele>
        <time>2020-10-11T07:01:45.644Z</time>
      </trkpt>
      <trkpt lat="47.20669" lon="6.43549">
        <ele>640.042271</ele>
        <time>2020-10-11T07:02:03.945Z</time>
      </trkpt>
      <trkpt lat="47.20496" lon="6.43485">
        <ele>638.586834</ele>
        <time>2020-10-11T07:02:36.177Z</time>
      </trkpt>
      <trkpt lat="47.20452" lon="6.43464">
        <ele>638.097209</ele>
        <time>2020-10-11T07:02:43.530Z</time>
      </trkpt>
      <trkpt lat="47.20447" lon="6.43459">
        <ele>638.034318</ele>
        <time>2020-10-11T07:02:44.544Z</time>
      </trkpt>
      <trkpt lat="47.20372" lon="6.43386">
        <ele>637.581867</ele>
        <time>2020-10-11T07:02:59.789Z</time>
      </trkpt>
      <trkpt lat="47.20341" lon="6.4333">
        <ele>637.815794</ele>
        <time>2020-10-11T07:03:09.052Z</time>
      </trkpt>
      <trkpt lat="47.20262" lon="6.43216">
        <ele>638.630988</ele>
        <time>2020-10-11T07:03:39.976Z</time>
      </trkpt>
      <trkpt lat="47.20229" lon="6.43187">
        <ele>639.756988</ele>
        <time>2020-10-11T07:03:52.741Z</time>
      </trkpt>
      <trkpt lat="47.20224" lon="6.43186">
        <ele>639.889487</ele>
        <time>2020-10-11T07:03:55.483Z</time>
      </trkpt>
      <trkpt lat="47.20199" lon="6.4318">
        <ele>640.629206</ele>
        <time>2020-10-11T07:04:04.414Z</time>
      </trkpt>
      <trkpt lat="47.20183" lon="6.43183">
        <ele>641.092077</ele>
        <time>2020-10-11T07:04:10.933Z</time>
      </trkpt>
      <trkpt lat="47.20176" lon="6.43184">
        <ele>641.311942</ele>
        <time>2020-10-11T07:04:13.481Z</time>
      </trkpt>
      <trkpt lat="47.20141" lon="6.4319">
        <ele>642.316906</ele>
        <time>2020-10-11T07:04:27.066Z</time>
      </trkpt>
      <trkpt lat="47.20138" lon="6.4319">
        <ele>642.4077</ele>
        <time>2020-10-11T07:04:28.192Z</time>
      </trkpt>
      <trkpt lat="47.20118" lon="6.43191">
        <ele>642.984379</ele>
        <time>2020-10-11T07:04:36.476Z</time>
      </trkpt>
      <trkpt lat="47.20086" lon="6.43176">
        <ele>644.205883</ele>
        <time>2020-10-11T07:04:50.220Z</time>
      </trkpt>
      <trkpt lat="47.2008" lon="6.43172">
        <ele>644.470948</ele>
        <time>2020-10-11T07:04:53.596Z</time>
      </trkpt>
      <trkpt lat="47.20063" lon="6.43156">
        <ele>645.37369</ele>
        <time>2020-10-11T07:05:02.224Z</time>
      </trkpt>
      <trkpt lat="47.20044" lon="6.43122">
        <ele>646.641451</ele>
        <time>2020-10-11T07:05:14.563Z</time>
      </trkpt>
      <trkpt lat="47.20037" lon="6.43101">
        <ele>647.332669</ele>
        <time>2020-10-11T07:05:21.458Z</time>
      </trkpt>
      <trkpt lat="47.20028" lon="6.4306">
        <ele>648.599009</ele>
        <time>2020-10-11T07:05:35.102Z</time>
      </trkpt>
      <trkpt lat="47.20021" lon="6.4303">
        <ele>649.551212</ele>
        <time>2020-10-11T07:05:45.514Z</time>
      </trkpt>
      <trkpt lat="47.20007" lon="6.43007">
        <ele>650.433087</ele>
        <time>2020-10-11T07:05:55.521Z</time>
      </trkpt>
      <trkpt lat="47.19982" lon="6.42977">
        <ele>651.84446</ele>
        <time>2020-10-11T07:06:11.325Z</time>
      </trkpt>
      <trkpt lat="47.19937" lon="6.42926">
        <ele>654.467415</ele>
        <time>2020-10-11T07:06:39.050Z</time>
      </trkpt>
      <trkpt lat="47.19917" lon="6.42909">
        <ele>655.518854</ele>
        <time>2020-10-11T07:06:50.350Z</time>
      </trkpt>
      <trkpt lat="47.19884" lon="6.4289">
        <ele>657.176383</ele>
        <time>2020-10-11T07:07:07.270Z</time>
      </trkpt>
      <trkpt lat="47.19857" lon="6.42887">
        <ele>658.386909</ele>
        <time>2020-10-11T07:07:19.216Z</time>
      </trkpt>
      <trkpt lat="47.19822" lon="6.42893">
        <ele>659.847613</ele>
        <time>2020-10-11T07:07:34.780Z</time>
      </trkpt>
      <trkpt lat="47.19739" lon="6.42932">
        <ele>662.247557</ele>
        <time>2020-10-11T07:08:08.076Z</time>
      </trkpt>
      <trkpt lat="47.19706" lon="6.42928">
        <ele>663.188752</ele>
        <time>2020-10-11T07:08:19.883Z</time>
      </trkpt>
      <trkpt lat="47.19565" lon="6.42818">
        <ele>666.205001</ele>
        <time>2020-10-11T07:09:07.874Z</time>
      </trkpt>
      <trkpt lat="47.19507" lon="6.42778">
        <ele>667.160933</ele>
        <time>2020-10-11T07:09:24.895Z</time>
      </trkpt>
      <trkpt lat="47.19364" lon="6.42703">
        <ele>669.7035</ele>
        <time>2020-10-11T07:10:08.683Z</time>
      </trkpt>
      <trkpt lat="47.19291" lon="6.42634">
        <ele>671.767062</ele>
        <time>2020-10-11T07:10:39.034Z</time>
      </trkpt>
      <trkpt lat="47.19153" lon="6.42549">
        <ele>675.941514</ele>
        <time>2020-10-11T07:11:35.787Z</time>
      </trkpt>
      <trkpt lat="47.19117" lon="6.42502">
        <ele>677.178712</ele>
        <time>2020-10-11T07:11:53.316Z</time>
      </trkpt>
      <trkpt lat="47.19083" lon="6.42386">
        <ele>679.390931</ele>
        <time>2020-10-11T07:12:22.821Z</time>
      </trkpt>
      <trkpt lat="47.19048" lon="6.4235">
        <ele>680.45782</ele>
        <time>2020-10-11T07:12:36.540Z</time>
      </trkpt>
      <trkpt lat="47.18873" lon="6.42253">
        <ele>685.13229</ele>
        <time>2020-10-11T07:13:40.551Z</time>
      </trkpt>
      <trkpt lat="47.18855" lon="6.42248">
        <ele>685.666922</ele>
        <time>2020-10-11T07:13:47.812Z</time>
      </trkpt>
      <trkpt lat="47.18828" lon="6.42249">
        <ele>686.433143</ele>
        <time>2020-10-11T07:13:58.409Z</time>
      </trkpt>
      <trkpt lat="47.18772" lon="6.42273">
        <ele>688.130506</ele>
        <time>2020-10-11T07:14:23.824Z</time>
      </trkpt>
      <trkpt lat="47.18701" lon="6.4226">
        <ele>689.418144</ele>
        <time>2020-10-11T07:14:47.730Z</time>
      </trkpt>
      <trkpt lat="47.18674" lon="6.42264">
        <ele>689.255776</ele>
        <time>2020-10-11T07:14:53.555Z</time>
      </trkpt>
      <trkpt lat="47.18662" lon="6.42278">
        <ele>689.159791</ele>
        <time>2020-10-11T07:14:59.561Z</time>
      </trkpt>
      <trkpt lat="47.18649" lon="6.4227">
        <ele>689.07646</ele>
        <time>2020-10-11T07:15:01.541Z</time>
      </trkpt>
      <trkpt lat="47.18605" lon="6.42247">
        <ele>688.793502</ele>
        <time>2020-10-11T07:15:09.726Z</time>
      </trkpt>
      <trkpt lat="47.18598" lon="6.42228">
        <ele>688.702526</ele>
        <time>2020-10-11T07:15:12.412Z</time>
      </trkpt>
      <trkpt lat="47.18596" lon="6.42194">
        <ele>688.563031</ele>
        <time>2020-10-11T07:15:15.758Z</time>
      </trkpt>
      <trkpt lat="47.18602" lon="6.42131">
        <ele>687.453575</ele>
        <time>2020-10-11T07:15:22.065Z</time>
      </trkpt>
      <trkpt lat="47.18594" lon="6.42068">
        <ele>685.808497</ele>
        <time>2020-10-11T07:15:27.801Z</time>
      </trkpt>
      <trkpt lat="47.1848" lon="6.417">
        <ele>676.030621</ele>
        <time>2020-10-11T07:16:05.876Z</time>
      </trkpt>
      <trkpt lat="47.18469" lon="6.41634">
        <ele>675.030956</ele>
        <time>2020-10-11T07:16:12.950Z</time>
      </trkpt>
      <trkpt lat="47.18437" lon="6.41255">
        <ele>671.385693</ele>
        <time>2020-10-11T07:16:56.302Z</time>
      </trkpt>
      <trkpt lat="47.18423" lon="6.41157">
        <ele>670.568669</ele>
        <time>2020-10-11T07:17:07.791Z</time>
      </trkpt>
      <trkpt lat="47.18404" lon="6.41095">
        <ele>669.927633</ele>
        <time>2020-10-11T07:17:15.493Z</time>
      </trkpt>
      <trkpt lat="47.18407" lon="6.41092">
        <ele>669.880842</ele>
        <time>2020-10-11T07:17:16.000Z</time>
      </trkpt>
      <trkpt lat="47.18411" lon="6.41079">
        <ele>669.745202</ele>
        <time>2020-10-11T07:17:17.613Z</time>
      </trkpt>
      <trkpt lat="47.1841" lon="6.41074">
        <ele>669.698802</ele>
        <time>2020-10-11T07:17:18.145Z</time>
      </trkpt>
      <trkpt lat="47.18409" lon="6.4107">
        <ele>669.653874</ele>
        <time>2020-10-11T07:17:18.694Z</time>
      </trkpt>
      <trkpt lat="47.18407" lon="6.41066">
        <ele>669.608538</ele>
        <time>2020-10-11T07:17:19.241Z</time>
      </trkpt>
      <trkpt lat="47.18404" lon="6.41064">
        <ele>669.563557</ele>
        <time>2020-10-11T07:17:19.790Z</time>
      </trkpt>
      <trkpt lat="47.18401" lon="6.41062">
        <ele>669.518877</ele>
        <time>2020-10-11T07:17:20.344Z</time>
      </trkpt>
      <trkpt lat="47.18398" lon="6.41062">
        <ele>669.473398</ele>
        <time>2020-10-11T07:17:20.900Z</time>
      </trkpt>
      <trkpt lat="47.18397" lon="6.41056">
        <ele>669.413825</ele>
        <time>2020-10-11T07:17:21.542Z</time>
      </trkpt>
      <trkpt lat="47.18402" lon="6.41007">
        <ele>668.950542</ele>
        <time>2020-10-11T07:17:27.035Z</time>
      </trkpt>
      <trkpt lat="47.18411" lon="6.40957">
        <ele>668.46631</ele>
        <time>2020-10-11T07:17:32.718Z</time>
      </trkpt>
      <trkpt lat="47.18424" lon="6.40887">
        <ele>667.850454</ele>
        <time>2020-10-11T07:17:40.592Z</time>
      </trkpt>
      <trkpt lat="47.18448" lon="6.40755">
        <ele>666.813404</ele>
        <time>2020-10-11T07:17:56.232Z</time>
      </trkpt>
      <trkpt lat="47.18462" lon="6.40686">
        <ele>666.271098</ele>
        <time>2020-10-11T07:18:04.551Z</time>
      </trkpt>
      <trkpt lat="47.18492" lon="6.40526">
        <ele>665.371749</ele>
        <time>2020-10-11T07:18:25.287Z</time>
      </trkpt>
      <trkpt lat="47.18431" lon="6.40505">
        <ele>664.903273</ele>
        <time>2020-10-11T07:18:40.785Z</time>
      </trkpt>
      <trkpt lat="47.18422" lon="6.40501">
        <ele>664.833114</ele>
        <time>2020-10-11T07:18:43.144Z</time>
      </trkpt>
      <trkpt lat="47.18418" lon="6.40499">
        <ele>664.803658</ele>
        <time>2020-10-11T07:18:44.168Z</time>
      </trkpt>
      <trkpt lat="47.18414" lon="6.40496">
        <ele>664.770558</ele>
        <time>2020-10-11T07:18:45.198Z</time>
      </trkpt>
      <trkpt lat="47.18408" lon="6.40492">
        <ele>664.710728</ele>
        <time>2020-10-11T07:18:46.804Z</time>
      </trkpt>
      <trkpt lat="47.18405" lon="6.40488">
        <ele>664.666519</ele>
        <time>2020-10-11T07:18:47.813Z</time>
      </trkpt>
      <trkpt lat="47.18402" lon="6.40483">
        <ele>664.611591</ele>
        <time>2020-10-11T07:18:48.973Z</time>
      </trkpt>
      <trkpt lat="47.1838" lon="6.40429">
        <ele>664.134616</ele>
        <time>2020-10-11T07:18:59.619Z</time>
      </trkpt>
      <trkpt lat="47.18377" lon="6.40419">
        <ele>664.048314</ele>
        <time>2020-10-11T07:19:01.541Z</time>
      </trkpt>
      <trkpt lat="47.18371" lon="6.40403">
        <ele>663.910538</ele>
        <time>2020-10-11T07:19:04.477Z</time>
      </trkpt>
      <trkpt lat="47.18305" lon="6.40283">
        <ele>662.735363</ele>
        <time>2020-10-11T07:19:29.294Z</time>
      </trkpt>
      <trkpt lat="47.18283" lon="6.40257">
        <ele>662.285817</ele>
        <time>2020-10-11T07:19:35.859Z</time>
      </trkpt>
      <trkpt lat="47.18241" lon="6.40225">
        <ele>661.541406</ele>
        <time>2020-10-11T07:19:46.772Z</time>
      </trkpt>
      <trkpt lat="47.18234" lon="6.40214">
        <ele>661.382044</ele>
        <time>2020-10-11T07:19:49.263Z</time>
      </trkpt>
      <trkpt lat="47.1823" lon="6.40201">
        <ele>661.227837</ele>
        <time>2020-10-11T07:19:51.550Z</time>
      </trkpt>
      <trkpt lat="47.18224" lon="6.40132">
        <ele>660.481199</ele>
        <time>2020-10-11T07:20:02.318Z</time>
      </trkpt>
      <trkpt lat="47.18223" lon="6.4012">
        <ele>660.350204</ele>
        <time>2020-10-11T07:20:04.104Z</time>
      </trkpt>
      <trkpt lat="47.1822" lon="6.40117">
        <ele>660.300485</ele>
        <time>2020-10-11T07:20:04.886Z</time>
      </trkpt>
      <trkpt lat="47.18212" lon="6.40131">
        <ele>660.094406</ele>
        <time>2020-10-11T07:20:06.905Z</time>
      </trkpt>
      <trkpt lat="47.18209" lon="6.40128">
        <ele>660.039083</ele>
        <time>2020-10-11T07:20:07.726Z</time>
      </trkpt>
      <trkpt lat="47.1818" lon="6.40118">
        <ele>659.510032</ele>
        <time>2020-10-11T07:20:14.290Z</time>
      </trkpt>
      <trkpt lat="47.18174" lon="6.40117">
        <ele>659.392433</ele>
        <time>2020-10-11T07:20:15.722Z</time>
      </trkpt>
      <trkpt lat="47.18168" lon="6.40113">
        <ele>659.259587</ele>
        <time>2020-10-11T07:20:17.321Z</time>
      </trkpt>
      <trkpt lat="47.18143" lon="6.40083">
        <ele>658.663048</ele>
        <time>2020-10-11T07:20:24.327Z</time>
      </trkpt>
      <trkpt lat="47.1813" lon="6.40067">
        <ele>658.334631</ele>
        <time>2020-10-11T07:20:28.155Z</time>
      </trkpt>
      <trkpt lat="47.18123" lon="6.40059">
        <ele>658.175265</ele>
        <time>2020-10-11T07:20:30.082Z</time>
      </trkpt>
      <trkpt lat="47.18068" lon="6.40026">
        <ele>657.061136</ele>
        <time>2020-10-11T07:20:43.243Z</time>
      </trkpt>
      <trkpt lat="47.18055" lon="6.40012">
        <ele>656.74663</ele>
        <time>2020-10-11T07:20:46.798Z</time>
      </trkpt>
      <trkpt lat="47.18001" lon="6.39905">
        <ele>655.741025</ele>
        <time>2020-10-11T07:21:07.659Z</time>
      </trkpt>
      <trkpt lat="47.17998" lon="6.39897">
        <ele>655.678544</ele>
        <time>2020-10-11T07:21:09.001Z</time>
      </trkpt>
      <trkpt lat="47.17997" lon="6.39887">
        <ele>655.612718</ele>
        <time>2020-10-11T07:21:10.639Z</time>
      </trkpt>
      <trkpt lat="47.17997" lon="6.39876">
        <ele>655.540686</ele>
        <time>2020-10-11T07:21:12.562Z</time>
      </trkpt>
      <trkpt lat="47.17997" lon="6.39872">
        <ele>655.514677</ele>
        <time>2020-10-11T07:21:13.145Z</time>
      </trkpt>
      <trkpt lat="47.17983" lon="6.3987">
        <ele>655.374943</ele>
        <time>2020-10-11T07:21:15.912Z</time>
      </trkpt>
      <trkpt lat="47.17945" lon="6.39863">
        <ele>654.999459</ele>
        <time>2020-10-11T07:21:22.947Z</time>
      </trkpt>
      <trkpt lat="47.17905" lon="6.39854">
        <ele>654.877084</ele>
        <time>2020-10-11T07:21:30.729Z</time>
      </trkpt>
      <trkpt lat="47.17884" lon="6.3985">
        <ele>655.072866</ele>
        <time>2020-10-11T07:21:35.938Z</time>
      </trkpt>
      <trkpt lat="47.17854" lon="6.39847">
        <ele>655.355172</ele>
        <time>2020-10-11T07:21:42.841Z</time>
      </trkpt>
      <trkpt lat="47.17846" lon="6.39848">
        <ele>655.427565</ele>
        <time>2020-10-11T07:21:45.102Z</time>
      </trkpt>
      <trkpt lat="47.17827" lon="6.39851">
        <ele>655.613462</ele>
        <time>2020-10-11T07:21:50.637Z</time>
      </trkpt>
      <trkpt lat="47.17807" lon="6.39854">
        <ele>655.802565</ele>
        <time>2020-10-11T07:21:56.581Z</time>
      </trkpt>
      <trkpt lat="47.1776" lon="6.39855">
        <ele>656.240318</ele>
        <time>2020-10-11T07:22:09.941Z</time>
      </trkpt>
      <trkpt lat="47.17754" lon="6.39852">
        <ele>656.302247</ele>
        <time>2020-10-11T07:22:12.056Z</time>
      </trkpt>
      <trkpt lat="47.17742" lon="6.39846">
        <ele>656.417953</ele>
        <time>2020-10-11T07:22:15.590Z</time>
      </trkpt>
      <trkpt lat="47.1767" lon="6.39808">
        <ele>657.530488</ele>
        <time>2020-10-11T07:22:37.412Z</time>
      </trkpt>
      <trkpt lat="47.17628" lon="6.39788">
        <ele>658.181386</ele>
        <time>2020-10-11T07:22:50.144Z</time>
      </trkpt>
      <trkpt lat="47.17602" lon="6.39775">
        <ele>658.589847</ele>
        <time>2020-10-11T07:22:58.643Z</time>
      </trkpt>
      <trkpt lat="47.17556" lon="6.39745">
        <ele>659.348346</ele>
        <time>2020-10-11T07:23:13.063Z</time>
      </trkpt>
      <trkpt lat="47.17534" lon="6.39736">
        <ele>659.692852</ele>
        <time>2020-10-11T07:23:19.690Z</time>
      </trkpt>
      <trkpt lat="47.17372" lon="6.39694">
        <ele>662.142112</ele>
        <time>2020-10-11T07:24:08.298Z</time>
      </trkpt>
      <trkpt lat="47.17316" lon="6.39701">
        <ele>662.768125</ele>
        <time>2020-10-11T07:24:24.267Z</time>
      </trkpt>
      <trkpt lat="47.17285" lon="6.39696">
        <ele>663.112413</ele>
        <time>2020-10-11T07:24:32.694Z</time>
      </trkpt>
      <trkpt lat="47.17261" lon="6.39682">
        <ele>663.389686</ele>
        <time>2020-10-11T07:24:39.240Z</time>
      </trkpt>
      <trkpt lat="47.17239" lon="6.3966">
        <ele>663.687267</ele>
        <time>2020-10-11T07:24:46.081Z</time>
      </trkpt>
      <trkpt lat="47.17179" lon="6.39577">
        <ele>664.125548</ele>
        <time>2020-10-11T07:25:05.710Z</time>
      </trkpt>
      <trkpt lat="47.1717" lon="6.39568">
        <ele>664.168343</ele>
        <time>2020-10-11T07:25:08.131Z</time>
      </trkpt>
      <trkpt lat="47.17152" lon="6.39552">
        <ele>664.251954</ele>
        <time>2020-10-11T07:25:12.819Z</time>
      </trkpt>
      <trkpt lat="47.17074" lon="6.39486">
        <ele>664.588382</ele>
        <time>2020-10-11T07:25:33.227Z</time>
      </trkpt>
      <trkpt lat="47.17024" lon="6.39444">
        <ele>664.638946</ele>
        <time>2020-10-11T07:25:44.879Z</time>
      </trkpt>
      <trkpt lat="47.17013" lon="6.39435">
        <ele>664.649557</ele>
        <time>2020-10-11T07:25:47.257Z</time>
      </trkpt>
      <trkpt lat="47.17002" lon="6.39425">
        <ele>664.660656</ele>
        <time>2020-10-11T07:25:49.833Z</time>
      </trkpt>
      <trkpt lat="47.16997" lon="6.3942">
        <ele>664.666496</ele>
        <time>2020-10-11T07:25:51.090Z</time>
      </trkpt>
      <trkpt lat="47.16978" lon="6.39397">
        <ele>664.688188</ele>
        <time>2020-10-11T07:25:55.852Z</time>
      </trkpt>
      <trkpt lat="47.16967" lon="6.39384">
        <ele>664.700711</ele>
        <time>2020-10-11T07:25:59.040Z</time>
      </trkpt>
      <trkpt lat="47.1693" lon="6.39336">
        <ele>664.796684</ele>
        <time>2020-10-11T07:26:09.588Z</time>
      </trkpt>
      <trkpt lat="47.16878" lon="6.39281">
        <ele>665.420025</ele>
        <time>2020-10-11T07:26:26.286Z</time>
      </trkpt>
      <trkpt lat="47.16873" lon="6.39276">
        <ele>665.482197</ele>
        <time>2020-10-11T07:26:27.541Z</time>
      </trkpt>
      <trkpt lat="47.16868" lon="6.39271">
        <ele>665.542434</ele>
        <time>2020-10-11T07:26:29.199Z</time>
      </trkpt>
      <trkpt lat="47.16853" lon="6.39257">
        <ele>665.709989</ele>
        <time>2020-10-11T07:26:34.152Z</time>
      </trkpt>
      <trkpt lat="47.16835" lon="6.39232">
        <ele>665.951912</ele>
        <time>2020-10-11T07:26:40.148Z</time>
      </trkpt>
      <trkpt lat="47.16831" lon="6.39224">
        <ele>666.014301</ele>
        <time>2020-10-11T07:26:42.339Z</time>
      </trkpt>
      <trkpt lat="47.16818" lon="6.39197">
        <ele>666.236061</ele>
        <time>2020-10-11T07:26:48.333Z</time>
      </trkpt>
      <trkpt lat="47.16804" lon="6.39171">
        <ele>666.451439</ele>
        <time>2020-10-11T07:26:55.049Z</time>
      </trkpt>
      <trkpt lat="47.16784" lon="6.39132">
        <ele>666.853594</ele>
        <time>2020-10-11T07:27:05.014Z</time>
      </trkpt>
      <trkpt lat="47.16778" lon="6.3912">
        <ele>666.976624</ele>
        <time>2020-10-11T07:27:07.633Z</time>
      </trkpt>
      <trkpt lat="47.16761" lon="6.39092">
        <ele>667.285693</ele>
        <time>2020-10-11T07:27:15.712Z</time>
      </trkpt>
      <trkpt lat="47.16724" lon="6.39053">
        <ele>667.841696</ele>
        <time>2020-10-11T07:27:29.171Z</time>
      </trkpt>
      <trkpt lat="47.16714" lon="6.39042">
        <ele>667.988863</ele>
        <time>2020-10-11T07:27:32.598Z</time>
      </trkpt>
      <trkpt lat="47.16699" lon="6.39025">
        <ele>668.223236</ele>
        <time>2020-10-11T07:27:37.413Z</time>
      </trkpt>
      <trkpt lat="47.16694" lon="6.39019">
        <ele>668.299543</ele>
        <time>2020-10-11T07:27:39.196Z</time>
      </trkpt>
      <trkpt lat="47.16552" lon="6.38867">
        <ele>669.229549</ele>
        <time>2020-10-11T07:28:20.423Z</time>
      </trkpt>
      <trkpt lat="47.16529" lon="6.38839">
        <ele>669.343093</ele>
        <time>2020-10-11T07:28:26.775Z</time>
      </trkpt>
      <trkpt lat="47.16508" lon="6.38801">
        <ele>669.265811</ele>
        <time>2020-10-11T07:28:33.603Z</time>
      </trkpt>
      <trkpt lat="47.16499" lon="6.38783">
        <ele>669.215587</ele>
        <time>2020-10-11T07:28:36.594Z</time>
      </trkpt>
      <trkpt lat="47.16473" lon="6.38746">
        <ele>669.093953</ele>
        <time>2020-10-11T07:28:43.537Z</time>
      </trkpt>
      <trkpt lat="47.16405" lon="6.38671">
        <ele>668.806515</ele>
        <time>2020-10-11T07:28:59.201Z</time>
      </trkpt>
      <trkpt lat="47.16346" lon="6.38638">
        <ele>668.788241</ele>
        <time>2020-10-11T07:29:10.700Z</time>
      </trkpt>
      <trkpt lat="47.16266" lon="6.38623">
        <ele>668.846258</ele>
        <time>2020-10-11T07:29:26.350Z</time>
      </trkpt>
      <trkpt lat="47.16096" lon="6.38563">
        <ele>671.055384</ele>
        <time>2020-10-11T07:30:13.066Z</time>
      </trkpt>
      <trkpt lat="47.16005" lon="6.38507">
        <ele>674.131197</ele>
        <time>2020-10-11T07:30:50.967Z</time>
      </trkpt>
      <trkpt lat="47.15941" lon="6.38481">
        <ele>677.463301</ele>
        <time>2020-10-11T07:31:21.976Z</time>
      </trkpt>
      <trkpt lat="47.1583" lon="6.38464">
        <ele>683.54255</ele>
        <time>2020-10-11T07:32:26.252Z</time>
      </trkpt>
      <trkpt lat="47.15796" lon="6.3847">
        <ele>685.659611</ele>
        <time>2020-10-11T07:32:46.972Z</time>
      </trkpt>
      <trkpt lat="47.15757" lon="6.38486">
        <ele>688.229905</ele>
        <time>2020-10-11T07:33:10.811Z</time>
      </trkpt>
      <trkpt lat="47.1573" lon="6.38488">
        <ele>689.855446</ele>
        <time>2020-10-11T07:33:25.764Z</time>
      </trkpt>
      <trkpt lat="47.15727" lon="6.38488">
        <ele>690.054707</ele>
        <time>2020-10-11T07:33:28.214Z</time>
      </trkpt>
      <trkpt lat="47.1544" lon="6.38431">
        <ele>704.401798</ele>
        <time>2020-10-11T07:35:43.218Z</time>
      </trkpt>
      <trkpt lat="47.15395" lon="6.38405">
        <ele>706.785636</ele>
        <time>2020-10-11T07:36:07.938Z</time>
      </trkpt>
      <trkpt lat="47.15321" lon="6.3835">
        <ele>710.350559</ele>
        <time>2020-10-11T07:36:48.784Z</time>
      </trkpt>
      <trkpt lat="47.15282" lon="6.38312">
        <ele>711.757719</ele>
        <time>2020-10-11T07:37:09.780Z</time>
      </trkpt>
      <trkpt lat="47.15263" lon="6.38293">
        <ele>712.432251</ele>
        <time>2020-10-11T07:37:18.619Z</time>
      </trkpt>
      <trkpt lat="47.15236" lon="6.38257">
        <ele>713.512189</ele>
        <time>2020-10-11T07:37:31.596Z</time>
      </trkpt>
      <trkpt lat="47.15164" lon="6.38165">
        <ele>714.571674</ele>
        <time>2020-10-11T07:37:56.547Z</time>
      </trkpt>
      <trkpt lat="47.15134" lon="6.38124">
        <ele>714.247662</ele>
        <time>2020-10-11T07:38:03.336Z</time>
      </trkpt>
      <trkpt lat="47.15112" lon="6.38096">
        <ele>714.015765</ele>
        <time>2020-10-11T07:38:07.924Z</time>
      </trkpt>
      <trkpt lat="47.14911" lon="6.37948">
        <ele>710.484754</ele>
        <time>2020-10-11T07:38:43.271Z</time>
      </trkpt>
      <trkpt lat="47.14799" lon="6.37883">
        <ele>706.603062</ele>
        <time>2020-10-11T07:39:01.059Z</time>
      </trkpt>
      <trkpt lat="47.14773" lon="6.37869">
        <ele>705.649086</ele>
        <time>2020-10-11T07:39:04.769Z</time>
      </trkpt>
      <trkpt lat="47.1474" lon="6.37846">
        <ele>704.380656</ele>
        <time>2020-10-11T07:39:09.633Z</time>
      </trkpt>
      <trkpt lat="47.147" lon="6.3781">
        <ele>702.609178</ele>
        <time>2020-10-11T07:39:15.836Z</time>
      </trkpt>
      <trkpt lat="47.14681" lon="6.37789">
        <ele>701.688583</ele>
        <time>2020-10-11T07:39:19.050Z</time>
      </trkpt>
      <trkpt lat="47.14657" lon="6.37762">
        <ele>700.506905</ele>
        <time>2020-10-11T07:39:23.097Z</time>
      </trkpt>
      <trkpt lat="47.14631" lon="6.37729">
        <ele>699.190701</ele>
        <time>2020-10-11T07:39:27.723Z</time>
      </trkpt>
      <trkpt lat="47.14585" lon="6.37679">
        <ele>696.967697</ele>
        <time>2020-10-11T07:39:35.872Z</time>
      </trkpt>
      <trkpt lat="47.14552" lon="6.37657">
        <ele>697.053284</ele>
        <time>2020-10-11T07:39:41.446Z</time>
      </trkpt>
      <trkpt lat="47.1452" lon="6.37653">
        <ele>697.132709</ele>
        <time>2020-10-11T07:39:47.509Z</time>
      </trkpt>
      <trkpt lat="47.14459" lon="6.37663">
        <ele>697.281699</ele>
        <time>2020-10-11T07:40:04.374Z</time>
      </trkpt>
      <trkpt lat="47.14422" lon="6.37653">
        <ele>697.372813</ele>
        <time>2020-10-11T07:40:15.504Z</time>
      </trkpt>
      <trkpt lat="47.14324" lon="6.37563">
        <ele>700.053368</ele>
        <time>2020-10-11T07:40:54.154Z</time>
      </trkpt>
      <trkpt lat="47.14279" lon="6.37504">
        <ele>701.582731</ele>
        <time>2020-10-11T07:41:17.148Z</time>
      </trkpt>
      <trkpt lat="47.14271" lon="6.37489">
        <ele>701.907458</ele>
        <time>2020-10-11T07:41:21.713Z</time>
      </trkpt>
      <trkpt lat="47.14259" lon="6.37465">
        <ele>702.658236</ele>
        <time>2020-10-11T07:41:29.502Z</time>
      </trkpt>
      <trkpt lat="47.1425" lon="6.37445">
        <ele>703.270271</ele>
        <time>2020-10-11T07:41:35.918Z</time>
      </trkpt>
      <trkpt lat="47.14244" lon="6.37434">
        <ele>703.649725</ele>
        <time>2020-10-11T07:41:39.638Z</time>
      </trkpt>
      <trkpt lat="47.14224" lon="6.37388">
        <ele>705.030694</ele>
        <time>2020-10-11T07:41:54.752Z</time>
      </trkpt>
      <trkpt lat="47.14221" lon="6.37379">
        <ele>705.293896</ele>
        <time>2020-10-11T07:41:57.376Z</time>
      </trkpt>
      <trkpt lat="47.1422" lon="6.37372">
        <ele>705.501016</ele>
        <time>2020-10-11T07:42:00.064Z</time>
      </trkpt>
      <trkpt lat="47.14221" lon="6.37307">
        <ele>707.181428</ele>
        <time>2020-10-11T07:42:18.963Z</time>
      </trkpt>
      <trkpt lat="47.14209" lon="6.37264">
        <ele>708.371376</ele>
        <time>2020-10-11T07:42:33.786Z</time>
      </trkpt>
      <trkpt lat="47.14202" lon="6.37251">
        <ele>708.811649</ele>
        <time>2020-10-11T07:42:38.611Z</time>
      </trkpt>
      <trkpt lat="47.14197" lon="6.37241">
        <ele>709.135155</ele>
        <time>2020-10-11T07:42:43.078Z</time>
      </trkpt>
      <trkpt lat="47.14192" lon="6.37231">
        <ele>709.457584</ele>
        <time>2020-10-11T07:42:46.771Z</time>
      </trkpt>
      <trkpt lat="47.14189" lon="6.3723">
        <ele>709.595855</ele>
        <time>2020-10-11T07:42:48.689Z</time>
      </trkpt>
      <trkpt lat="47.14175" lon="6.37231">
        <ele>710.125641</ele>
        <time>2020-10-11T07:42:53.684Z</time>
      </trkpt>
      <trkpt lat="47.14171" lon="6.37233">
        <ele>710.305666</ele>
        <time>2020-10-11T07:42:55.815Z</time>
      </trkpt>
      <trkpt lat="47.14167" lon="6.37236">
        <ele>710.490166</ele>
        <time>2020-10-11T07:42:58.293Z</time>
      </trkpt>
      <trkpt lat="47.1416" lon="6.37244">
        <ele>710.803777</ele>
        <time>2020-10-11T07:43:01.867Z</time>
      </trkpt>
      <trkpt lat="47.14136" lon="6.37279">
        <ele>712.142443</ele>
        <time>2020-10-11T07:43:16.813Z</time>
      </trkpt>
      <trkpt lat="47.1412" lon="6.37302">
        <ele>712.985486</ele>
        <time>2020-10-11T07:43:25.315Z</time>
      </trkpt>
      <trkpt lat="47.14111" lon="6.37314">
        <ele>713.480236</ele>
        <time>2020-10-11T07:43:31.383Z</time>
      </trkpt>
      <trkpt lat="47.14093" lon="6.37331">
        <ele>714.311828</ele>
        <time>2020-10-11T07:43:39.637Z</time>
      </trkpt>
      <trkpt lat="47.14076" lon="6.37334">
        <ele>714.999929</ele>
        <time>2020-10-11T07:43:47.752Z</time>
      </trkpt>
      <trkpt lat="47.14011" lon="6.37306">
        <ele>717.191512</ele>
        <time>2020-10-11T07:44:14.286Z</time>
      </trkpt>
      <trkpt lat="47.13969" lon="6.373">
        <ele>718.458139</ele>
        <time>2020-10-11T07:44:30.095Z</time>
      </trkpt>
      <trkpt lat="47.13783" lon="6.37339">
        <ele>723.964205</ele>
        <time>2020-10-11T07:45:37.340Z</time>
      </trkpt>
      <trkpt lat="47.13755" lon="6.37342">
        <ele>724.768742</ele>
        <time>2020-10-11T07:45:47.910Z</time>
      </trkpt>
      <trkpt lat="47.13723" lon="6.37339">
        <ele>725.671577</ele>
        <time>2020-10-11T07:45:59.804Z</time>
      </trkpt>
      <trkpt lat="47.13624" lon="6.37311">
        <ele>728.580499</ele>
        <time>2020-10-11T07:46:38.778Z</time>
      </trkpt>
      <trkpt lat="47.13489" lon="6.37287">
        <ele>732.188655</ele>
        <time>2020-10-11T07:47:27.928Z</time>
      </trkpt>
      <trkpt lat="47.13467" lon="6.37282">
        <ele>732.636594</ele>
        <time>2020-10-11T07:47:35.196Z</time>
      </trkpt>
      <trkpt lat="47.13449" lon="6.37277">
        <ele>732.991595</ele>
        <time>2020-10-11T07:47:40.336Z</time>
      </trkpt>
      <trkpt lat="47.13443" lon="6.37274">
        <ele>733.113818</ele>
        <time>2020-10-11T07:47:42.261Z</time>
      </trkpt>
      <trkpt lat="47.13437" lon="6.37271">
        <ele>733.246419</ele>
        <time>2020-10-11T07:47:44.341Z</time>
      </trkpt>
      <trkpt lat="47.13429" lon="6.37267">
        <ele>733.409057</ele>
        <time>2020-10-11T07:47:46.789Z</time>
      </trkpt>
      <trkpt lat="47.13419" lon="6.37263">
        <ele>733.619697</ele>
        <time>2020-10-11T07:47:49.673Z</time>
      </trkpt>
      <trkpt lat="47.13409" lon="6.37258">
        <ele>733.841124</ele>
        <time>2020-10-11T07:47:53.046Z</time>
      </trkpt>
      <trkpt lat="47.13383" lon="6.37239">
        <ele>734.409938</ele>
        <time>2020-10-11T07:48:01.563Z</time>
      </trkpt>
      <trkpt lat="47.1336" lon="6.37227">
        <ele>734.91223</ele>
        <time>2020-10-11T07:48:09.647Z</time>
      </trkpt>
      <trkpt lat="47.13314" lon="6.37207">
        <ele>735.880343</ele>
        <time>2020-10-11T07:48:24.729Z</time>
      </trkpt>
      <trkpt lat="47.13273" lon="6.37191">
        <ele>736.75821</ele>
        <time>2020-10-11T07:48:38.230Z</time>
      </trkpt>
      <trkpt lat="47.13251" lon="6.37183">
        <ele>737.234318</ele>
        <time>2020-10-11T07:48:45.562Z</time>
      </trkpt>
      <trkpt lat="47.13241" lon="6.37179">
        <ele>737.448692</ele>
        <time>2020-10-11T07:48:48.823Z</time>
      </trkpt>
      <trkpt lat="47.1323" lon="6.37174">
        <ele>737.675158</ele>
        <time>2020-10-11T07:48:52.342Z</time>
      </trkpt>
      <trkpt lat="47.13203" lon="6.37162">
        <ele>738.252559</ele>
        <time>2020-10-11T07:49:01.411Z</time>
      </trkpt>
      <trkpt lat="47.13148" lon="6.37126">
        <ele>739.513848</ele>
        <time>2020-10-11T07:49:22.095Z</time>
      </trkpt>
      <trkpt lat="47.13144" lon="6.37123">
        <ele>739.612445</ele>
        <time>2020-10-11T07:49:23.781Z</time>
      </trkpt>
      <trkpt lat="47.13139" lon="6.37119">
        <ele>739.728546</ele>
        <time>2020-10-11T07:49:25.668Z</time>
      </trkpt>
      <trkpt lat="47.13076" lon="6.37076">
        <ele>741.186557</ele>
        <time>2020-10-11T07:49:50.296Z</time>
      </trkpt>
      <trkpt lat="47.13037" lon="6.37036">
        <ele>742.173316</ele>
        <time>2020-10-11T07:50:04.671Z</time>
      </trkpt>
      <trkpt lat="47.13022" lon="6.37016">
        <ele>742.6019</ele>
        <time>2020-10-11T07:50:10.489Z</time>
      </trkpt>
      <trkpt lat="47.13014" lon="6.37003">
        <ele>742.7631</ele>
        <time>2020-10-11T07:50:13.459Z</time>
      </trkpt>
      <trkpt lat="47.13005" lon="6.36988">
        <ele>742.959569</ele>
        <time>2020-10-11T07:50:17.208Z</time>
      </trkpt>
      <trkpt lat="47.12986" lon="6.36957">
        <ele>743.359349</ele>
        <time>2020-10-11T07:50:24.741Z</time>
      </trkpt>
      <trkpt lat="47.12978" lon="6.36946">
        <ele>743.517078</ele>
        <time>2020-10-11T07:50:27.748Z</time>
      </trkpt>
      <trkpt lat="47.12973" lon="6.36939">
        <ele>743.613267</ele>
        <time>2020-10-11T07:50:29.562Z</time>
      </trkpt>
      <trkpt lat="47.12964" lon="6.36931">
        <ele>743.757598</ele>
        <time>2020-10-11T07:50:32.241Z</time>
      </trkpt>
      <trkpt lat="47.12958" lon="6.36925">
        <ele>743.857942</ele>
        <time>2020-10-11T07:50:34.183Z</time>
      </trkpt>
      <trkpt lat="47.12945" lon="6.36915">
        <ele>744.068201</ele>
        <time>2020-10-11T07:50:38.430Z</time>
      </trkpt>
      <trkpt lat="47.12889" lon="6.36876">
        <ele>744.949062</ele>
        <time>2020-10-11T07:50:57.405Z</time>
      </trkpt>
      <trkpt lat="47.12825" lon="6.36829">
        <ele>745.947993</ele>
        <time>2020-10-11T07:51:18.776Z</time>
      </trkpt>
      <trkpt lat="47.12808" lon="6.36817">
        <ele>746.216045</ele>
        <time>2020-10-11T07:51:24.331Z</time>
      </trkpt>
      <trkpt lat="47.1279" lon="6.36804">
        <ele>746.50057</ele>
        <time>2020-10-11T07:51:30.064Z</time>
      </trkpt>
      <trkpt lat="47.12776" lon="6.36795">
        <ele>746.705983</ele>
        <time>2020-10-11T07:51:34.376Z</time>
      </trkpt>
      <trkpt lat="47.12744" lon="6.36771">
        <ele>747.212709</ele>
        <time>2020-10-11T07:51:44.759Z</time>
      </trkpt>
      <trkpt lat="47.12732" lon="6.36756">
        <ele>747.44172</ele>
        <time>2020-10-11T07:51:49.279Z</time>
      </trkpt>
      <trkpt lat="47.12706" lon="6.36722">
        <ele>747.622053</ele>
        <time>2020-10-11T07:51:58.664Z</time>
      </trkpt>
      <trkpt lat="47.12698" lon="6.3671">
        <ele>747.598012</ele>
        <time>2020-10-11T07:52:01.955Z</time>
      </trkpt>
      <trkpt lat="47.12689" lon="6.36695">
        <ele>747.571422</ele>
        <time>2020-10-11T07:52:05.047Z</time>
      </trkpt>
      <trkpt lat="47.12687" lon="6.36691">
        <ele>747.564235</ele>
        <time>2020-10-11T07:52:05.804Z</time>
      </trkpt>
      <trkpt lat="47.12611" lon="6.36525">
        <ele>747.255552</ele>
        <time>2020-10-11T07:52:30.624Z</time>
      </trkpt>
      <trkpt lat="47.1259" lon="6.36497">
        <ele>746.973679</ele>
        <time>2020-10-11T07:52:35.286Z</time>
      </trkpt>
      <trkpt lat="47.12507" lon="6.36407">
        <ele>745.953524</ele>
        <time>2020-10-11T07:52:52.375Z</time>
      </trkpt>
      <trkpt lat="47.12395" lon="6.36322">
        <ele>745.29404</ele>
        <time>2020-10-11T07:53:15.188Z</time>
      </trkpt>
      <trkpt lat="47.12266" lon="6.36205">
        <ele>745.171058</ele>
        <time>2020-10-11T07:53:47.626Z</time>
      </trkpt>
      <trkpt lat="47.12092" lon="6.36106">
        <ele>745.40056</ele>
        <time>2020-10-11T07:54:29.436Z</time>
      </trkpt>
      <trkpt lat="47.11896" lon="6.36043">
        <ele>744.24035</ele>
        <time>2020-10-11T07:55:07.695Z</time>
      </trkpt>
      <trkpt lat="47.1189" lon="6.36042">
        <ele>744.16707</ele>
        <time>2020-10-11T07:55:08.832Z</time>
      </trkpt>
      <trkpt lat="47.11793" lon="6.36011">
        <ele>742.85388</ele>
        <time>2020-10-11T07:55:24.456Z</time>
      </trkpt>
      <trkpt lat="47.11601" lon="6.35948">
        <ele>737.010421</ele>
        <time>2020-10-11T07:55:52.456Z</time>
      </trkpt>
      <trkpt lat="47.11527" lon="6.35924">
        <ele>734.519332</ele>
        <time>2020-10-11T07:56:03.106Z</time>
      </trkpt>
      <trkpt lat="47.11481" lon="6.35909">
        <ele>732.999362</ele>
        <time>2020-10-11T07:56:09.696Z</time>
      </trkpt>
      <trkpt lat="47.11436" lon="6.35904">
        <ele>731.54449</ele>
        <time>2020-10-11T07:56:16.308Z</time>
      </trkpt>
      <trkpt lat="47.11426" lon="6.35905">
        <ele>731.263008</ele>
        <time>2020-10-11T07:56:17.684Z</time>
      </trkpt>
      <trkpt lat="47.11418" lon="6.35906">
        <ele>731.035409</ele>
        <time>2020-10-11T07:56:18.771Z</time>
      </trkpt>
      <trkpt lat="47.11366" lon="6.35931">
        <ele>729.441084</ele>
        <time>2020-10-11T07:56:26.799Z</time>
      </trkpt>
      <trkpt lat="47.11259" lon="6.36022">
        <ele>726.006034</ele>
        <time>2020-10-11T07:56:44.656Z</time>
      </trkpt>
      <trkpt lat="47.11254" lon="6.36025">
        <ele>725.86241</ele>
        <time>2020-10-11T07:56:45.465Z</time>
      </trkpt>
      <trkpt lat="47.11246" lon="6.36028">
        <ele>725.663897</ele>
        <time>2020-10-11T07:56:46.610Z</time>
      </trkpt>
      <trkpt lat="47.11219" lon="6.36032">
        <ele>725.015521</ele>
        <time>2020-10-11T07:56:50.644Z</time>
      </trkpt>
      <trkpt lat="47.11187" lon="6.36027">
        <ele>724.237347</ele>
        <time>2020-10-11T07:56:55.417Z</time>
      </trkpt>
      <trkpt lat="47.11082" lon="6.35969">
        <ele>722.205826</ele>
        <time>2020-10-11T07:57:12.424Z</time>
      </trkpt>
      <trkpt lat="47.11046" lon="6.35956">
        <ele>722.06341</ele>
        <time>2020-10-11T07:57:18.944Z</time>
      </trkpt>
      <trkpt lat="47.1099" lon="6.35966">
        <ele>721.845971</ele>
        <time>2020-10-11T07:57:30.062Z</time>
      </trkpt>
      <trkpt lat="47.10842" lon="6.3602">
        <ele>722.557774</ele>
        <time>2020-10-11T07:58:09.944Z</time>
      </trkpt>
      <trkpt lat="47.10812" lon="6.36017">
        <ele>722.838032</ele>
        <time>2020-10-11T07:58:18.268Z</time>
      </trkpt>
      <trkpt lat="47.1075" lon="6.3599">
        <ele>723.300056</ele>
        <time>2020-10-11T07:58:35.029Z</time>
      </trkpt>
      <trkpt lat="47.10711" lon="6.35973">
        <ele>723.262162</ele>
        <time>2020-10-11T07:58:44.990Z</time>
      </trkpt>
      <trkpt lat="47.1069" lon="6.35964">
        <ele>723.242003</ele>
        <time>2020-10-11T07:58:49.991Z</time>
      </trkpt>
      <trkpt lat="47.10586" lon="6.35918">
        <ele>723.037214</ele>
        <time>2020-10-11T07:59:10.296Z</time>
      </trkpt>
      <trkpt lat="47.1056" lon="6.35892">
        <ele>722.269844</ele>
        <time>2020-10-11T07:59:15.436Z</time>
      </trkpt>
      <trkpt lat="47.10532" lon="6.3585">
        <ele>721.330373</ele>
        <time>2020-10-11T07:59:21.467Z</time>
      </trkpt>
      <trkpt lat="47.1052" lon="6.3583">
        <ele>720.891815</ele>
        <time>2020-10-11T07:59:24.319Z</time>
      </trkpt>
      <trkpt lat="47.10509" lon="6.3581">
        <ele>720.475045</ele>
        <time>2020-10-11T07:59:26.833Z</time>
      </trkpt>
      <trkpt lat="47.10387" lon="6.35604">
        <ele>714.799827</ele>
        <time>2020-10-11T07:59:53.020Z</time>
      </trkpt>
      <trkpt lat="47.10211" lon="6.35361">
        <ele>706.613232</ele>
        <time>2020-10-11T08:00:26.970Z</time>
      </trkpt>
      <trkpt lat="47.10181" lon="6.35299">
        <ele>705.268688</ele>
        <time>2020-10-11T08:00:34.336Z</time>
      </trkpt>
      <trkpt lat="47.10163" lon="6.35252">
        <ele>704.295022</ele>
        <time>2020-10-11T08:00:39.724Z</time>
      </trkpt>
      <trkpt lat="47.10013" lon="6.34845">
        <ele>697.712346</ele>
        <time>2020-10-11T08:01:27.400Z</time>
      </trkpt>
      <trkpt lat="47.09967" lon="6.34735">
        <ele>697.071095</ele>
        <time>2020-10-11T08:01:42.716Z</time>
      </trkpt>
      <trkpt lat="47.09954" lon="6.34701">
        <ele>696.875901</ele>
        <time>2020-10-11T08:01:48.443Z</time>
      </trkpt>
      <trkpt lat="47.0993" lon="6.34629">
        <ele>697.173398</ele>
        <time>2020-10-11T08:02:03.090Z</time>
      </trkpt>
      <trkpt lat="47.09923" lon="6.34612">
        <ele>697.364461</ele>
        <time>2020-10-11T08:02:07.177Z</time>
      </trkpt>
      <trkpt lat="47.09918" lon="6.34596">
        <ele>697.531807</ele>
        <time>2020-10-11T08:02:11.002Z</time>
      </trkpt>
      <trkpt lat="47.09908" lon="6.34569">
        <ele>697.823296</ele>
        <time>2020-10-11T08:02:17.047Z</time>
      </trkpt>
      <trkpt lat="47.09896" lon="6.34524">
        <ele>698.287481</ele>
        <time>2020-10-11T08:02:26.830Z</time>
      </trkpt>
      <trkpt lat="47.09889" lon="6.34501">
        <ele>698.529478</ele>
        <time>2020-10-11T08:02:31.939Z</time>
      </trkpt>
      <trkpt lat="47.0988" lon="6.34473">
        <ele>698.830148</ele>
        <time>2020-10-11T08:02:37.251Z</time>
      </trkpt>
      <trkpt lat="47.09873" lon="6.34457">
        <ele>699.006674</ele>
        <time>2020-10-11T08:02:41.073Z</time>
      </trkpt>
      <trkpt lat="47.09865" lon="6.34438">
        <ele>699.227584</ele>
        <time>2020-10-11T08:02:46.087Z</time>
      </trkpt>
      <trkpt lat="47.09853" lon="6.3441">
        <ele>699.843152</ele>
        <time>2020-10-11T08:02:52.838Z</time>
      </trkpt>
      <trkpt lat="47.0984" lon="6.34383">
        <ele>700.483776</ele>
        <time>2020-10-11T08:03:01.957Z</time>
      </trkpt>
      <trkpt lat="47.09832" lon="6.3437">
        <ele>700.812932</ele>
        <time>2020-10-11T08:03:05.904Z</time>
      </trkpt>
      <trkpt lat="47.09824" lon="6.34356">
        <ele>701.171956</ele>
        <time>2020-10-11T08:03:10.674Z</time>
      </trkpt>
      <trkpt lat="47.09813" lon="6.34339">
        <ele>701.627287</ele>
        <time>2020-10-11T08:03:16.053Z</time>
      </trkpt>
      <trkpt lat="47.09791" lon="6.34308">
        <ele>702.495683</ele>
        <time>2020-10-11T08:03:27.397Z</time>
      </trkpt>
      <trkpt lat="47.09783" lon="6.34314">
        <ele>702.743006</ele>
        <time>2020-10-11T08:03:30.628Z</time>
      </trkpt>
      <trkpt lat="47.09775" lon="6.3432">
        <ele>702.985136</ele>
        <time>2020-10-11T08:03:33.611Z</time>
      </trkpt>
      <trkpt lat="47.09773" lon="6.34326">
        <ele>703.123223</ele>
        <time>2020-10-11T08:03:36.140Z</time>
      </trkpt>
      <trkpt lat="47.09726" lon="6.3443">
        <ele>706.84973</ele>
        <time>2020-10-11T08:04:10.631Z</time>
      </trkpt>
      <trkpt lat="47.09695" lon="6.34483">
        <ele>709.767042</ele>
        <time>2020-10-11T08:04:38.254Z</time>
      </trkpt>
      <trkpt lat="47.09652" lon="6.34541">
        <ele>713.266684</ele>
        <time>2020-10-11T08:05:15.467Z</time>
      </trkpt>
      <trkpt lat="47.09612" lon="6.34584">
        <ele>715.902172</ele>
        <time>2020-10-11T08:05:44.689Z</time>
      </trkpt>
      <trkpt lat="47.09576" lon="6.34621">
        <ele>717.716294</ele>
        <time>2020-10-11T08:06:10.235Z</time>
      </trkpt>
      <trkpt lat="47.09327" lon="6.3483">
        <ele>726.423877</ele>
        <time>2020-10-11T08:07:50.256Z</time>
      </trkpt>
      <trkpt lat="47.08977" lon="6.35112">
        <ele>732.259446</ele>
        <time>2020-10-11T08:09:38.944Z</time>
      </trkpt>
      <trkpt lat="47.08876" lon="6.35167">
        <ele>735.934479</ele>
        <time>2020-10-11T08:10:20.911Z</time>
      </trkpt>
      <trkpt lat="47.08789" lon="6.35195">
        <ele>740.455984</ele>
        <time>2020-10-11T08:11:06.329Z</time>
      </trkpt>
      <trkpt lat="47.08743" lon="6.35204">
        <ele>743.540693</ele>
        <time>2020-10-11T08:11:32.425Z</time>
      </trkpt>
      <trkpt lat="47.08713" lon="6.35209">
        <ele>745.524326</ele>
        <time>2020-10-11T08:11:50.220Z</time>
      </trkpt>
      <trkpt lat="47.08607" lon="6.3522">
        <ele>753.340543</ele>
        <time>2020-10-11T08:12:59.739Z</time>
      </trkpt>
      <trkpt lat="47.08556" lon="6.35218">
        <ele>757.572012</ele>
        <time>2020-10-11T08:13:36.781Z</time>
      </trkpt>
      <trkpt lat="47.085" lon="6.35203">
        <ele>762.256418</ele>
        <time>2020-10-11T08:14:15.377Z</time>
      </trkpt>
      <trkpt lat="47.08436" lon="6.3517">
        <ele>767.035771</ele>
        <time>2020-10-11T08:14:57.719Z</time>
      </trkpt>
      <trkpt lat="47.08423" lon="6.35163">
        <ele>767.905819</ele>
        <time>2020-10-11T08:15:06.382Z</time>
      </trkpt>
      <trkpt lat="47.0841" lon="6.35156">
        <ele>768.792658</ele>
        <time>2020-10-11T08:15:13.893Z</time>
      </trkpt>
      <trkpt lat="47.08363" lon="6.3514">
        <ele>771.841094</ele>
        <time>2020-10-11T08:15:41.029Z</time>
      </trkpt>
      <trkpt lat="47.08322" lon="6.35134">
        <ele>774.467941</ele>
        <time>2020-10-11T08:16:02.991Z</time>
      </trkpt>
      <trkpt lat="47.08239" lon="6.35142">
        <ele>778.74786</ele>
        <time>2020-10-11T08:16:41.806Z</time>
      </trkpt>
      <trkpt lat="47.08221" lon="6.35145">
        <ele>779.59095</ele>
        <time>2020-10-11T08:16:50.664Z</time>
      </trkpt>
      <trkpt lat="47.08167" lon="6.35154">
        <ele>782.170789</ele>
        <time>2020-10-11T08:17:14.120Z</time>
      </trkpt>
      <trkpt lat="47.08049" lon="6.35165">
        <ele>786.827603</ele>
        <time>2020-10-11T08:18:13.511Z</time>
      </trkpt>
      <trkpt lat="47.07961" lon="6.35152">
        <ele>789.892673</ele>
        <time>2020-10-11T08:18:47.159Z</time>
      </trkpt>
      <trkpt lat="47.07943" lon="6.35147">
        <ele>790.464124</ele>
        <time>2020-10-11T08:18:54.697Z</time>
      </trkpt>
      <trkpt lat="47.07641" lon="6.35045">
        <ele>787.549502</ele>
        <time>2020-10-11T08:19:45.869Z</time>
      </trkpt>
      <trkpt lat="47.07587" lon="6.35028">
        <ele>786.950403</ele>
        <time>2020-10-11T08:19:54.706Z</time>
      </trkpt>
      <trkpt lat="47.07561" lon="6.3502">
        <ele>786.945363</ele>
        <time>2020-10-11T08:19:59.400Z</time>
      </trkpt>
      <trkpt lat="47.07534" lon="6.35013">
        <ele>786.940352</ele>
        <time>2020-10-11T08:20:04.321Z</time>
      </trkpt>
      <trkpt lat="47.0747" lon="6.34998">
        <ele>786.928309</ele>
        <time>2020-10-11T08:20:18.246Z</time>
      </trkpt>
      <trkpt lat="47.07442" lon="6.34992">
        <ele>786.923176</ele>
        <time>2020-10-11T08:20:24.870Z</time>
      </trkpt>
      <trkpt lat="47.07074" lon="6.34936">
        <ele>790.529676</ele>
        <time>2020-10-11T08:22:06.996Z</time>
      </trkpt>
      <trkpt lat="47.07017" lon="6.3492">
        <ele>789.931543</ele>
        <time>2020-10-11T08:22:17.917Z</time>
      </trkpt>
      <trkpt lat="47.06999" lon="6.34913">
        <ele>789.601804</ele>
        <time>2020-10-11T08:22:21.354Z</time>
      </trkpt>
      <trkpt lat="47.06961" lon="6.34894">
        <ele>788.911626</ele>
        <time>2020-10-11T08:22:27.705Z</time>
      </trkpt>
      <trkpt lat="47.06682" lon="6.34691">
        <ele>780.603555</ele>
        <time>2020-10-11T08:23:11.872Z</time>
      </trkpt>
      <trkpt lat="47.06591" lon="6.34635">
        <ele>778.431715</ele>
        <time>2020-10-11T08:23:27.187Z</time>
      </trkpt>
      <trkpt lat="47.06503" lon="6.34598">
        <ele>776.502288</ele>
        <time>2020-10-11T08:23:42.334Z</time>
      </trkpt>
      <trkpt lat="47.06404" lon="6.34584">
        <ele>774.410724</ele>
        <time>2020-10-11T08:23:57.411Z</time>
      </trkpt>
      <trkpt lat="47.06351" lon="6.34578">
        <ele>772.82201</ele>
        <time>2020-10-11T08:24:04.959Z</time>
      </trkpt>
      <trkpt lat="47.0634" lon="6.34578">
        <ele>772.444364</ele>
        <time>2020-10-11T08:24:06.506Z</time>
      </trkpt>
      <trkpt lat="47.06325" lon="6.34575">
        <ele>771.912267</ele>
        <time>2020-10-11T08:24:08.768Z</time>
      </trkpt>
      <trkpt lat="47.06309" lon="6.34575">
        <ele>771.380175</ele>
        <time>2020-10-11T08:24:10.882Z</time>
      </trkpt>
      <trkpt lat="47.06219" lon="6.34589">
        <ele>768.273335</ele>
        <time>2020-10-11T08:24:23.251Z</time>
      </trkpt>
      <trkpt lat="47.06135" lon="6.34633">
        <ele>766.348724</ele>
        <time>2020-10-11T08:24:35.969Z</time>
      </trkpt>
      <trkpt lat="47.06126" lon="6.34639">
        <ele>766.156109</ele>
        <time>2020-10-11T08:24:37.310Z</time>
      </trkpt>
      <trkpt lat="47.06125" lon="6.3464">
        <ele>766.12586</ele>
        <time>2020-10-11T08:24:37.523Z</time>
      </trkpt>
      <trkpt lat="47.06008" lon="6.34721">
        <ele>764.456364</ele>
        <time>2020-10-11T08:25:00.792Z</time>
      </trkpt>
      <trkpt lat="47.05998" lon="6.34727">
        <ele>764.492933</ele>
        <time>2020-10-11T08:25:02.748Z</time>
      </trkpt>
      <trkpt lat="47.05944" lon="6.34752">
        <ele>764.673906</ele>
        <time>2020-10-11T08:25:17.507Z</time>
      </trkpt>
      <trkpt lat="47.05913" lon="6.34767">
        <ele>764.775835</ele>
        <time>2020-10-11T08:25:26.132Z</time>
      </trkpt>
      <trkpt lat="47.05718" lon="6.34859">
        <ele>765.428437</ele>
        <time>2020-10-11T08:26:13.374Z</time>
      </trkpt>
      <trkpt lat="47.05702" lon="6.34867">
        <ele>765.47957</ele>
        <time>2020-10-11T08:26:16.600Z</time>
      </trkpt>
      <trkpt lat="47.05688" lon="6.34873">
        <ele>765.425057</ele>
        <time>2020-10-11T08:26:19.761Z</time>
      </trkpt>
      <trkpt lat="47.0568" lon="6.34875">
        <ele>765.397628</ele>
        <time>2020-10-11T08:26:21.192Z</time>
      </trkpt>
      <trkpt lat="47.05622" lon="6.34887">
        <ele>765.19055</ele>
        <time>2020-10-11T08:26:32.569Z</time>
      </trkpt>
      <trkpt lat="47.05604" lon="6.34889">
        <ele>765.125838</ele>
        <time>2020-10-11T08:26:35.928Z</time>
      </trkpt>
      <trkpt lat="47.05584" lon="6.34891">
        <ele>765.055533</ele>
        <time>2020-10-11T08:26:39.777Z</time>
      </trkpt>
      <trkpt lat="47.05534" lon="6.34894">
        <ele>764.879261</ele>
        <time>2020-10-11T08:26:48.930Z</time>
      </trkpt>
      <trkpt lat="47.05431" lon="6.34897">
        <ele>763.914078</ele>
        <time>2020-10-11T08:27:07.657Z</time>
      </trkpt>
      <trkpt lat="47.05362" lon="6.3488">
        <ele>763.22242</ele>
        <time>2020-10-11T08:27:19.223Z</time>
      </trkpt>
      <trkpt lat="47.04969" lon="6.34677">
        <ele>754.736036</ele>
        <time>2020-10-11T08:28:23.635Z</time>
      </trkpt>
      <trkpt lat="47.04843" lon="6.34626">
        <ele>750.354937</ele>
        <time>2020-10-11T08:28:41.993Z</time>
      </trkpt>
      <trkpt lat="47.04794" lon="6.34608">
        <ele>747.752646</ele>
        <time>2020-10-11T08:28:48.697Z</time>
      </trkpt>
      <trkpt lat="47.04764" lon="6.34596">
        <ele>746.051514</ele>
        <time>2020-10-11T08:28:52.691Z</time>
      </trkpt>
      <trkpt lat="47.04652" lon="6.34557">
        <ele>739.705151</ele>
        <time>2020-10-11T08:29:07.458Z</time>
      </trkpt>
      <trkpt lat="47.04487" lon="6.34531">
        <ele>730.93024</ele>
        <time>2020-10-11T08:29:29.058Z</time>
      </trkpt>
      <trkpt lat="47.04426" lon="6.34514">
        <ele>729.023083</ele>
        <time>2020-10-11T08:29:37.676Z</time>
      </trkpt>
      <trkpt lat="47.04408" lon="6.34507">
        <ele>728.520303</ele>
        <time>2020-10-11T08:29:40.207Z</time>
      </trkpt>
      <trkpt lat="47.04393" lon="6.34499">
        <ele>728.058586</ele>
        <time>2020-10-11T08:29:42.561Z</time>
      </trkpt>
      <trkpt lat="47.04317" lon="6.34446">
        <ele>725.705209</ele>
        <time>2020-10-11T08:29:55.242Z</time>
      </trkpt>
      <trkpt lat="47.04102" lon="6.3426">
        <ele>723.694586</ele>
        <time>2020-10-11T08:30:40.430Z</time>
      </trkpt>
      <trkpt lat="47.04096" lon="6.34255">
        <ele>723.657361</ele>
        <time>2020-10-11T08:30:41.785Z</time>
      </trkpt>
      <trkpt lat="47.04038" lon="6.34206">
        <ele>723.293507</ele>
        <time>2020-10-11T08:30:54.283Z</time>
      </trkpt>
      <trkpt lat="47.03851" lon="6.34039">
        <ele>722.280609</ele>
        <time>2020-10-11T08:31:34.730Z</time>
      </trkpt>
      <trkpt lat="47.03461" lon="6.33623">
        <ele>723.712084</ele>
        <time>2020-10-11T08:33:20.834Z</time>
      </trkpt>
      <trkpt lat="47.03451" lon="6.33613">
        <ele>723.792577</ele>
        <time>2020-10-11T08:33:24.524Z</time>
      </trkpt>
      <trkpt lat="47.03441" lon="6.33605">
        <ele>723.866405</ele>
        <time>2020-10-11T08:33:28.108Z</time>
      </trkpt>
      <trkpt lat="47.03372" lon="6.3355">
        <ele>724.518334</ele>
        <time>2020-10-11T08:33:50.266Z</time>
      </trkpt>
      <trkpt lat="47.03333" lon="6.3352">
        <ele>724.955376</ele>
        <time>2020-10-11T08:34:02.467Z</time>
      </trkpt>
      <trkpt lat="47.03296" lon="6.33494">
        <ele>725.355526</ele>
        <time>2020-10-11T08:34:13.102Z</time>
      </trkpt>
      <trkpt lat="47.03278" lon="6.33478">
        <ele>725.567418</ele>
        <time>2020-10-11T08:34:17.455Z</time>
      </trkpt>
      <trkpt lat="47.03219" lon="6.33446">
        <ele>726.399325</ele>
        <time>2020-10-11T08:34:32.570Z</time>
      </trkpt>
      <trkpt lat="47.03168" lon="6.33437">
        <ele>727.233179</ele>
        <time>2020-10-11T08:34:46.866Z</time>
      </trkpt>
      <trkpt lat="47.03134" lon="6.33435">
        <ele>727.807178</ele>
        <time>2020-10-11T08:34:56.965Z</time>
      </trkpt>
      <trkpt lat="47.03108" lon="6.33435">
        <ele>728.22273</ele>
        <time>2020-10-11T08:35:05.541Z</time>
      </trkpt>
      <trkpt lat="47.03066" lon="6.33428">
        <ele>728.997091</ele>
        <time>2020-10-11T08:35:19.740Z</time>
      </trkpt>
      <trkpt lat="47.0306" lon="6.33425">
        <ele>729.191567</ele>
        <time>2020-10-11T08:35:22.338Z</time>
      </trkpt>
      <trkpt lat="47.03053" lon="6.33425">
        <ele>729.375097</ele>
        <time>2020-10-11T08:35:25.772Z</time>
      </trkpt>
      <trkpt lat="47.03014" lon="6.334">
        <ele>730.633035</ele>
        <time>2020-10-11T08:35:41.949Z</time>
      </trkpt>
      <trkpt lat="47.02981" lon="6.33371">
        <ele>731.772102</ele>
        <time>2020-10-11T08:35:58.117Z</time>
      </trkpt>
      <trkpt lat="47.0287" lon="6.33232">
        <ele>734.001237</ele>
        <time>2020-10-11T08:36:49.905Z</time>
      </trkpt>
      <trkpt lat="47.0282" lon="6.33181">
        <ele>733.867205</ele>
        <time>2020-10-11T08:37:01.960Z</time>
      </trkpt>
      <trkpt lat="47.02775" lon="6.33151">
        <ele>733.756606</ele>
        <time>2020-10-11T08:37:09.422Z</time>
      </trkpt>
      <trkpt lat="47.02698" lon="6.33111">
        <ele>729.270749</ele>
        <time>2020-10-11T08:37:20.171Z</time>
      </trkpt>
      <trkpt lat="47.02637" lon="6.33081">
        <ele>725.594245</ele>
        <time>2020-10-11T08:37:28.178Z</time>
      </trkpt>
      <trkpt lat="47.02585" lon="6.33056">
        <ele>722.592959</ele>
        <time>2020-10-11T08:37:35.076Z</time>
      </trkpt>
      <trkpt lat="47.02557" lon="6.33042">
        <ele>721.13438</ele>
        <time>2020-10-11T08:37:38.926Z</time>
      </trkpt>
      <trkpt lat="47.02543" lon="6.33034">
        <ele>720.400595</ele>
        <time>2020-10-11T08:37:40.770Z</time>
      </trkpt>
      <trkpt lat="47.02529" lon="6.33027">
        <ele>719.667953</ele>
        <time>2020-10-11T08:37:42.816Z</time>
      </trkpt>
      <trkpt lat="47.02451" lon="6.32973">
        <ele>715.405382</ele>
        <time>2020-10-11T08:37:54.381Z</time>
      </trkpt>
      <trkpt lat="47.02397" lon="6.32923">
        <ele>713.224954</ele>
        <time>2020-10-11T08:38:03.750Z</time>
      </trkpt>
      <trkpt lat="47.02367" lon="6.32893">
        <ele>712.191185</ele>
        <time>2020-10-11T08:38:09.325Z</time>
      </trkpt>
      <trkpt lat="47.02115" lon="6.32639">
        <ele>703.673432</ele>
        <time>2020-10-11T08:38:53.607Z</time>
      </trkpt>
      <trkpt lat="47.02102" lon="6.32627">
        <ele>703.319577</ele>
        <time>2020-10-11T08:38:55.808Z</time>
      </trkpt>
      <trkpt lat="47.0206" lon="6.3259">
        <ele>702.198178</ele>
        <time>2020-10-11T08:39:03.150Z</time>
      </trkpt>
      <trkpt lat="47.02002" lon="6.32553">
        <ele>700.737032</ele>
        <time>2020-10-11T08:39:12.777Z</time>
      </trkpt>
      <trkpt lat="47.01988" lon="6.32546">
        <ele>700.397812</ele>
        <time>2020-10-11T08:39:15.167Z</time>
      </trkpt>
      <trkpt lat="47.01987" lon="6.32532">
        <ele>700.185153</ele>
        <time>2020-10-11T08:39:16.485Z</time>
      </trkpt>
      <trkpt lat="47.01982" lon="6.3251">
        <ele>699.868479</ele>
        <time>2020-10-11T08:39:19.149Z</time>
      </trkpt>
      <trkpt lat="47.01973" lon="6.32497">
        <ele>699.617011</ele>
        <time>2020-10-11T08:39:21.188Z</time>
      </trkpt>
      <trkpt lat="47.01782" lon="6.32304">
        <ele>694.26573</ele>
        <time>2020-10-11T08:39:56.844Z</time>
      </trkpt>
      <trkpt lat="47.01727" lon="6.32254">
        <ele>692.351868</ele>
        <time>2020-10-11T08:40:06.224Z</time>
      </trkpt>
      <trkpt lat="47.0174" lon="6.32234">
        <ele>691.800654</ele>
        <time>2020-10-11T08:40:08.826Z</time>
      </trkpt>
      <trkpt lat="47.01752" lon="6.32215">
        <ele>691.186834</ele>
        <time>2020-10-11T08:40:11.286Z</time>
      </trkpt>
      <trkpt lat="47.01703" lon="6.32104">
        <ele>686.35509</ele>
        <time>2020-10-11T08:40:23.110Z</time>
      </trkpt>
      <trkpt lat="47.01633" lon="6.31947">
        <ele>679.391447</ele>
        <time>2020-10-11T08:40:39.625Z</time>
      </trkpt>
      <trkpt lat="47.01624" lon="6.31931">
        <ele>678.593791</ele>
        <time>2020-10-11T08:40:41.448Z</time>
      </trkpt>
      <trkpt lat="47.01595" lon="6.31885">
        <ele>676.201013</ele>
        <time>2020-10-11T08:40:46.973Z</time>
      </trkpt>
      <trkpt lat="47.01532" lon="6.31818">
        <ele>671.811425</ele>
        <time>2020-10-11T08:40:57.206Z</time>
      </trkpt>
      <trkpt lat="47.01522" lon="6.31811">
        <ele>671.2699</ele>
        <time>2020-10-11T08:40:58.613Z</time>
      </trkpt>
      <trkpt lat="47.01417" lon="6.31734">
        <ele>665.760456</ele>
        <time>2020-10-11T08:41:14.332Z</time>
      </trkpt>
      <trkpt lat="47.01344" lon="6.3167">
        <ele>662.045037</ele>
        <time>2020-10-11T08:41:25.607Z</time>
      </trkpt>
      <trkpt lat="47.01288" lon="6.31603">
        <ele>659.263132</ele>
        <time>2020-10-11T08:41:35.533Z</time>
      </trkpt>
      <trkpt lat="47.01259" lon="6.31568">
        <ele>657.831129</ele>
        <time>2020-10-11T08:41:40.734Z</time>
      </trkpt>
      <trkpt lat="47.01225" lon="6.31539">
        <ele>656.310968</ele>
        <time>2020-10-11T08:41:46.270Z</time>
      </trkpt>
      <trkpt lat="47.01077" lon="6.31443">
        <ele>651.427532</ele>
        <time>2020-10-11T08:42:09.607Z</time>
      </trkpt>
      <trkpt lat="47.00903" lon="6.3128">
        <ele>645.362532</ele>
        <time>2020-10-11T08:42:39.500Z</time>
      </trkpt>
      <trkpt lat="47.00822" lon="6.31233">
        <ele>643.083861</ele>
        <time>2020-10-11T08:42:51.768Z</time>
      </trkpt>
      <trkpt lat="47.00771" lon="6.31209">
        <ele>641.674459</ele>
        <time>2020-10-11T08:42:59.668Z</time>
      </trkpt>
      <trkpt lat="47.00741" lon="6.31199">
        <ele>640.866824</ele>
        <time>2020-10-11T08:43:04.321Z</time>
      </trkpt>
      <trkpt lat="47.00707" lon="6.31187">
        <ele>640.691606</ele>
        <time>2020-10-11T08:43:09.872Z</time>
      </trkpt>
      <trkpt lat="47.00475" lon="6.31163">
        <ele>641.102488</ele>
        <time>2020-10-11T08:43:58.347Z</time>
      </trkpt>
      <trkpt lat="47.00429" lon="6.31165">
        <ele>641.683661</ele>
        <time>2020-10-11T08:44:13.564Z</time>
      </trkpt>
      <trkpt lat="47.00383" lon="6.31177">
        <ele>642.270625</ele>
        <time>2020-10-11T08:44:30.457Z</time>
      </trkpt>
      <trkpt lat="47.0032" lon="6.31195">
        <ele>643.276222</ele>
        <time>2020-10-11T08:44:52.899Z</time>
      </trkpt>
      <trkpt lat="47.00292" lon="6.312">
        <ele>643.721134</ele>
        <time>2020-10-11T08:45:02.890Z</time>
      </trkpt>
      <trkpt lat="47.00238" lon="6.31196">
        <ele>644.568166</ele>
        <time>2020-10-11T08:45:18.695Z</time>
      </trkpt>
      <trkpt lat="47.00207" lon="6.31182">
        <ele>645.081867</ele>
        <time>2020-10-11T08:45:26.211Z</time>
      </trkpt>
      <trkpt lat="47.00171" lon="6.31149">
        <ele>643.47956</ele>
        <time>2020-10-11T08:45:33.872Z</time>
      </trkpt>
      <trkpt lat="47.00134" lon="6.31093">
        <ele>641.440785</ele>
        <time>2020-10-11T08:45:41.318Z</time>
      </trkpt>
      <trkpt lat="47.0012" lon="6.31065">
        <ele>640.524109</ele>
        <time>2020-10-11T08:45:44.442Z</time>
      </trkpt>
      <trkpt lat="47.00104" lon="6.31003">
        <ele>638.803798</ele>
        <time>2020-10-11T08:45:50.177Z</time>
      </trkpt>
      <trkpt lat="47.00085" lon="6.30901">
        <ele>634.593675</ele>
        <time>2020-10-11T08:45:59.327Z</time>
      </trkpt>
      <trkpt lat="47.00083" lon="6.30843">
        <ele>632.069806</ele>
        <time>2020-10-11T08:46:04.295Z</time>
      </trkpt>
      <trkpt lat="47.00089" lon="6.30649">
        <ele>624.718772</ele>
        <time>2020-10-11T08:46:21.380Z</time>
      </trkpt>
      <trkpt lat="47.00083" lon="6.3053">
        <ele>621.345715</ele>
        <time>2020-10-11T08:46:32.714Z</time>
      </trkpt>
      <trkpt lat="47.00084" lon="6.30454">
        <ele>619.241413</ele>
        <time>2020-10-11T08:46:40.115Z</time>
      </trkpt>
      <trkpt lat="47.00099" lon="6.30271">
        <ele>616.016459</ele>
        <time>2020-10-11T08:46:58.656Z</time>
      </trkpt>
      <trkpt lat="47.00093" lon="6.30223">
        <ele>615.15092</ele>
        <time>2020-10-11T08:47:03.692Z</time>
      </trkpt>
      <trkpt lat="47.00085" lon="6.30204">
        <ele>614.766167</ele>
        <time>2020-10-11T08:47:05.928Z</time>
      </trkpt>
      <trkpt lat="47.00059" lon="6.30177">
        <ele>614.291635</ele>
        <time>2020-10-11T08:47:10.671Z</time>
      </trkpt>
      <trkpt lat="46.99903" lon="6.30122">
        <ele>612.481741</ele>
        <time>2020-10-11T08:47:36.333Z</time>
      </trkpt>
      <trkpt lat="46.99876" lon="6.30104">
        <ele>613.387497</ele>
        <time>2020-10-11T08:47:45.422Z</time>
      </trkpt>
      <trkpt lat="46.99865" lon="6.30089">
        <ele>613.849053</ele>
        <time>2020-10-11T08:47:50.376Z</time>
      </trkpt>
      <trkpt lat="46.9986" lon="6.30076">
        <ele>614.155551</ele>
        <time>2020-10-11T08:47:53.637Z</time>
      </trkpt>
      <trkpt lat="46.99853" lon="6.30057">
        <ele>614.590375</ele>
        <time>2020-10-11T08:47:58.924Z</time>
      </trkpt>
      <trkpt lat="46.99848" lon="6.30007">
        <ele>615.622351</ele>
        <time>2020-10-11T08:48:12.431Z</time>
      </trkpt>
      <trkpt lat="46.99853" lon="6.29947">
        <ele>616.869809</ele>
        <time>2020-10-11T08:48:31.080Z</time>
      </trkpt>
      <trkpt lat="46.99848" lon="6.29917">
        <ele>617.501322</ele>
        <time>2020-10-11T08:48:43.768Z</time>
      </trkpt>
      <trkpt lat="46.99853" lon="6.29842">
        <ele>620.904656</ele>
        <time>2020-10-11T08:49:16.108Z</time>
      </trkpt>
      <trkpt lat="46.99861" lon="6.29807">
        <ele>622.661917</ele>
        <time>2020-10-11T08:49:33.180Z</time>
      </trkpt>
      <trkpt lat="46.99895" lon="6.29703">
        <ele>628.144672</ele>
        <time>2020-10-11T08:50:33.277Z</time>
      </trkpt>
      <trkpt lat="46.99905" lon="6.2962">
        <ele>631.395125</ele>
        <time>2020-10-11T08:51:11.701Z</time>
      </trkpt>
      <trkpt lat="46.999" lon="6.29591">
        <ele>632.253101</ele>
        <time>2020-10-11T08:51:20.872Z</time>
      </trkpt>
      <trkpt lat="46.99894" lon="6.29572">
        <ele>632.83631</ele>
        <time>2020-10-11T08:51:30.126Z</time>
      </trkpt>
      <trkpt lat="46.99886" lon="6.29563">
        <ele>633.262405</ele>
        <time>2020-10-11T08:51:35.418Z</time>
      </trkpt>
      <trkpt lat="46.99879" lon="6.29552">
        <ele>633.663837</ele>
        <time>2020-10-11T08:51:38.460Z</time>
      </trkpt>
      <trkpt lat="46.99871" lon="6.29533">
        <ele>634.299904</ele>
        <time>2020-10-11T08:51:47.523Z</time>
      </trkpt>
      <trkpt lat="46.99869" lon="6.29481">
        <ele>635.778053</ele>
        <time>2020-10-11T08:52:04.283Z</time>
      </trkpt>
      <trkpt lat="46.99861" lon="6.29413">
        <ele>637.717062</ele>
        <time>2020-10-11T08:52:25.316Z</time>
      </trkpt>
      <trkpt lat="46.99859" lon="6.2939">
        <ele>637.901996</ele>
        <time>2020-10-11T08:52:30.285Z</time>
      </trkpt>
      <trkpt lat="46.99858" lon="6.2938">
        <ele>637.991535</ele>
        <time>2020-10-11T08:52:34.806Z</time>
      </trkpt>
      <trkpt lat="46.99842" lon="6.29379">
        <ele>638.183928</ele>
        <time>2020-10-11T08:52:40.156Z</time>
      </trkpt>
      <trkpt lat="46.99819" lon="6.29375">
        <ele>638.460103</ele>
        <time>2020-10-11T08:52:45.966Z</time>
      </trkpt>
      <trkpt lat="46.99796" lon="6.29367">
        <ele>638.74235</ele>
        <time>2020-10-11T08:52:50.139Z</time>
      </trkpt>
      <trkpt lat="46.99789" lon="6.29364">
        <ele>638.836367</ele>
        <time>2020-10-11T08:52:51.907Z</time>
      </trkpt>
      <trkpt lat="46.99768" lon="6.29352">
        <ele>639.101148</ele>
        <time>2020-10-11T08:52:56.562Z</time>
      </trkpt>
      <trkpt lat="46.99762" lon="6.29349">
        <ele>639.180055</ele>
        <time>2020-10-11T08:52:57.795Z</time>
      </trkpt>
      <trkpt lat="46.9975" lon="6.29339">
        <ele>639.343509</ele>
        <time>2020-10-11T08:53:01.557Z</time>
      </trkpt>
      <trkpt lat="46.99738" lon="6.29321">
        <ele>639.552721</ele>
        <time>2020-10-11T08:53:05.459Z</time>
      </trkpt>
      <trkpt lat="46.99734" lon="6.29309">
        <ele>639.665329</ele>
        <time>2020-10-11T08:53:07.771Z</time>
      </trkpt>
      <trkpt lat="46.99732" lon="6.29297">
        <ele>639.760483</ele>
        <time>2020-10-11T08:53:10.462Z</time>
      </trkpt>
      <trkpt lat="46.99731" lon="6.29274">
        <ele>639.978972</ele>
        <time>2020-10-11T08:53:15.292Z</time>
      </trkpt>
      <trkpt lat="46.99731" lon="6.29175">
        <ele>641.139934</ele>
        <time>2020-10-11T08:53:38.154Z</time>
      </trkpt>
      <trkpt lat="46.99731" lon="6.29133">
        <ele>641.631158</ele>
        <time>2020-10-11T08:53:47.474Z</time>
      </trkpt>
      <trkpt lat="46.9973" lon="6.29088">
        <ele>642.15862</ele>
        <time>2020-10-11T08:53:56.890Z</time>
      </trkpt>
      <trkpt lat="46.99728" lon="6.2907">
        <ele>642.36313</ele>
        <time>2020-10-11T08:54:00.401Z</time>
      </trkpt>
      <trkpt lat="46.99714" lon="6.29034">
        <ele>642.851243</ele>
        <time>2020-10-11T08:54:08.741Z</time>
      </trkpt>
      <trkpt lat="46.99704" lon="6.29017">
        <ele>643.005666</ele>
        <time>2020-10-11T08:54:13.102Z</time>
      </trkpt>
      <trkpt lat="46.99678" lon="6.28991">
        <ele>643.186062</ele>
        <time>2020-10-11T08:54:21.298Z</time>
      </trkpt>
      <trkpt lat="46.99651" lon="6.28981">
        <ele>643.343474</ele>
        <time>2020-10-11T08:54:27.994Z</time>
      </trkpt>
      <trkpt lat="46.99566" lon="6.28972">
        <ele>643.83216</ele>
        <time>2020-10-11T08:54:47.567Z</time>
      </trkpt>
      <trkpt lat="46.99552" lon="6.28973">
        <ele>643.910824</ele>
        <time>2020-10-11T08:54:50.252Z</time>
      </trkpt>
      <trkpt lat="46.99524" lon="6.28986">
        <ele>644.06146</ele>
        <time>2020-10-11T08:54:56.716Z</time>
      </trkpt>
      <trkpt lat="46.99501" lon="6.2902">
        <ele>644.210111</ele>
        <time>2020-10-11T08:55:03.630Z</time>
      </trkpt>
      <trkpt lat="46.99492" lon="6.29052">
        <ele>644.315468</ele>
        <time>2020-10-11T08:55:08.370Z</time>
      </trkpt>
      <trkpt lat="46.99479" lon="6.2929">
        <ele>645.461957</ele>
        <time>2020-10-11T08:55:49.048Z</time>
      </trkpt>
      <trkpt lat="46.99471" lon="6.29333">
        <ele>645.810531</ele>
        <time>2020-10-11T08:55:57.486Z</time>
      </trkpt>
      <trkpt lat="46.99465" lon="6.29354">
        <ele>645.9893</ele>
        <time>2020-10-11T08:56:02.018Z</time>
      </trkpt>
      <trkpt lat="46.99464" lon="6.29361">
        <ele>646.04709</ele>
        <time>2020-10-11T08:56:03.956Z</time>
      </trkpt>
      <trkpt lat="46.99438" lon="6.29411">
        <ele>646.540877</ele>
        <time>2020-10-11T08:56:15.620Z</time>
      </trkpt>
      <trkpt lat="46.99387" lon="6.29466">
        <ele>647.233994</ele>
        <time>2020-10-11T08:56:33.503Z</time>
      </trkpt>
      <trkpt lat="46.99273" lon="6.29573">
        <ele>648.634003</ele>
        <time>2020-10-11T08:57:07.767Z</time>
      </trkpt>
      <trkpt lat="46.99169" lon="6.29671">
        <ele>650.554994</ele>
        <time>2020-10-11T08:57:43.361Z</time>
      </trkpt>
      <trkpt lat="46.99144" lon="6.29691">
        <ele>651.011255</ele>
        <time>2020-10-11T08:57:52.313Z</time>
      </trkpt>
      <trkpt lat="46.99138" lon="6.29695">
        <ele>651.114877</ele>
        <time>2020-10-11T08:57:54.207Z</time>
      </trkpt>
      <trkpt lat="46.99127" lon="6.29701">
        <ele>651.294325</ele>
        <time>2020-10-11T08:57:58.523Z</time>
      </trkpt>
      <trkpt lat="46.99082" lon="6.29714">
        <ele>652.195986</ele>
        <time>2020-10-11T08:58:13.134Z</time>
      </trkpt>
      <trkpt lat="46.98992" lon="6.29698">
        <ele>654.236169</ele>
        <time>2020-10-11T08:58:43.519Z</time>
      </trkpt>
      <trkpt lat="46.9891" lon="6.29704">
        <ele>656.287445</ele>
        <time>2020-10-11T08:59:10.735Z</time>
      </trkpt>
      <trkpt lat="46.98866" lon="6.29697">
        <ele>657.769674</ele>
        <time>2020-10-11T08:59:26.476Z</time>
      </trkpt>
      <trkpt lat="46.98823" lon="6.29677">
        <ele>659.249049</ele>
        <time>2020-10-11T08:59:43.493Z</time>
      </trkpt>
      <trkpt lat="46.98792" lon="6.29654">
        <ele>660.437402</ele>
        <time>2020-10-11T08:59:58.120Z</time>
      </trkpt>
      <trkpt lat="46.98664" lon="6.29521">
        <ele>667.588441</ele>
        <time>2020-10-11T09:01:12.233Z</time>
      </trkpt>
      <trkpt lat="46.98632" lon="6.29481">
        <ele>669.707043</ele>
        <time>2020-10-11T09:01:34.718Z</time>
      </trkpt>
      <trkpt lat="46.9852" lon="6.2927">
        <ele>678.835415</ele>
        <time>2020-10-11T09:03:05.610Z</time>
      </trkpt>
      <trkpt lat="46.98469" lon="6.29184">
        <ele>681.713476</ele>
        <time>2020-10-11T09:03:39.231Z</time>
      </trkpt>
      <trkpt lat="46.98413" lon="6.29107">
        <ele>684.322576</ele>
        <time>2020-10-11T09:04:09.268Z</time>
      </trkpt>
      <trkpt lat="46.98331" lon="6.28964">
        <ele>687.69571</ele>
        <time>2020-10-11T09:04:52.684Z</time>
      </trkpt>
      <trkpt lat="46.98206" lon="6.28725">
        <ele>692.77761</ele>
        <time>2020-10-11T09:06:00.281Z</time>
      </trkpt>
      <trkpt lat="46.98141" lon="6.28582">
        <ele>696.611202</ele>
        <time>2020-10-11T09:06:46.491Z</time>
      </trkpt>
      <trkpt lat="46.98107" lon="6.28543">
        <ele>698.379686</ele>
        <time>2020-10-11T09:07:05.424Z</time>
      </trkpt>
      <trkpt lat="46.97985" lon="6.28455">
        <ele>704.292647</ele>
        <time>2020-10-11T09:08:09.581Z</time>
      </trkpt>
      <trkpt lat="46.97884" lon="6.28337">
        <ele>710.325201</ele>
        <time>2020-10-11T09:09:10.957Z</time>
      </trkpt>
      <trkpt lat="46.97869" lon="6.28289">
        <ele>711.714506</ele>
        <time>2020-10-11T09:09:26.681Z</time>
      </trkpt>
      <trkpt lat="46.97865" lon="6.2822">
        <ele>713.529811</ele>
        <time>2020-10-11T09:09:46.596Z</time>
      </trkpt>
      <trkpt lat="46.97853" lon="6.28032">
        <ele>718.694724</ele>
        <time>2020-10-11T09:10:38.956Z</time>
      </trkpt>
      <trkpt lat="46.97846" lon="6.27978">
        <ele>720.396653</ele>
        <time>2020-10-11T09:10:55.160Z</time>
      </trkpt>
      <trkpt lat="46.97835" lon="6.27947">
        <ele>721.496337</ele>
        <time>2020-10-11T09:11:06.355Z</time>
      </trkpt>
      <trkpt lat="46.9783" lon="6.27936">
        <ele>721.901579</ele>
        <time>2020-10-11T09:11:10.472Z</time>
      </trkpt>
      <trkpt lat="46.9782" lon="6.27922">
        <ele>722.518299</ele>
        <time>2020-10-11T09:11:16.888Z</time>
      </trkpt>
      <trkpt lat="46.97803" lon="6.27904">
        <ele>723.502556</ele>
        <time>2020-10-11T09:11:27.573Z</time>
      </trkpt>
      <trkpt lat="46.97787" lon="6.27889">
        <ele>724.349028</ele>
        <time>2020-10-11T09:11:36.835Z</time>
      </trkpt>
      <trkpt lat="46.97764" lon="6.27873">
        <ele>725.503569</ele>
        <time>2020-10-11T09:11:49.682Z</time>
      </trkpt>
      <trkpt lat="46.9774" lon="6.27868">
        <ele>726.688042</ele>
        <time>2020-10-11T09:12:03.074Z</time>
      </trkpt>
      <trkpt lat="46.97695" lon="6.2786">
        <ele>728.876627</ele>
        <time>2020-10-11T09:12:26.212Z</time>
      </trkpt>
      <trkpt lat="46.97674" lon="6.27855">
        <ele>729.902464</ele>
        <time>2020-10-11T09:12:37.129Z</time>
      </trkpt>
      <trkpt lat="46.97661" lon="6.27849">
        <ele>730.548103</ele>
        <time>2020-10-11T09:12:43.265Z</time>
      </trkpt>
      <trkpt lat="46.97635" lon="6.27837">
        <ele>731.843204</ele>
        <time>2020-10-11T09:12:56.900Z</time>
      </trkpt>
      <trkpt lat="46.97599" lon="6.27819">
        <ele>733.679531</ele>
        <time>2020-10-11T09:13:14.503Z</time>
      </trkpt>
      <trkpt lat="46.97584" lon="6.27811">
        <ele>734.223955</ele>
        <time>2020-10-11T09:13:20.807Z</time>
      </trkpt>
      <trkpt lat="46.97575" lon="6.27803">
        <ele>734.381813</ele>
        <time>2020-10-11T09:13:25.359Z</time>
      </trkpt>
      <trkpt lat="46.97508" lon="6.27728">
        <ele>735.653766</ele>
        <time>2020-10-11T09:13:51.653Z</time>
      </trkpt>
      <trkpt lat="46.9746" lon="6.27681">
        <ele>736.518405</ele>
        <time>2020-10-11T09:14:04.334Z</time>
      </trkpt>
      <trkpt lat="46.97443" lon="6.27666">
        <ele>736.815552</ele>
        <time>2020-10-11T09:14:08.276Z</time>
      </trkpt>
      <trkpt lat="46.97435" lon="6.2766">
        <ele>736.868466</ele>
        <time>2020-10-11T09:14:10.078Z</time>
      </trkpt>
      <trkpt lat="46.97417" lon="6.27652">
        <ele>736.942532</ele>
        <time>2020-10-11T09:14:13.904Z</time>
      </trkpt>
      <trkpt lat="46.97396" lon="6.27643">
        <ele>737.031711</ele>
        <time>2020-10-11T09:14:18.608Z</time>
      </trkpt>
      <trkpt lat="46.97362" lon="6.2763">
        <ele>737.173394</ele>
        <time>2020-10-11T09:14:26.370Z</time>
      </trkpt>
      <trkpt lat="46.97333" lon="6.27618">
        <ele>737.294231</ele>
        <time>2020-10-11T09:14:33.237Z</time>
      </trkpt>
      <trkpt lat="46.97297" lon="6.27604">
        <ele>737.442485</ele>
        <time>2020-10-11T09:14:41.754Z</time>
      </trkpt>
      <trkpt lat="46.97286" lon="6.276">
        <ele>737.487887</ele>
        <time>2020-10-11T09:14:44.351Z</time>
      </trkpt>
      <trkpt lat="46.9727" lon="6.27593">
        <ele>737.557214</ele>
        <time>2020-10-11T09:14:48.850Z</time>
      </trkpt>
      <trkpt lat="46.97241" lon="6.27582">
        <ele>738.014549</ele>
        <time>2020-10-11T09:14:56.618Z</time>
      </trkpt>
      <trkpt lat="46.97201" lon="6.27565">
        <ele>738.686491</ele>
        <time>2020-10-11T09:15:09.185Z</time>
      </trkpt>
      <trkpt lat="46.97166" lon="6.27545">
        <ele>739.284171</ele>
        <time>2020-10-11T09:15:21.148Z</time>
      </trkpt>
      <trkpt lat="46.97152" lon="6.27544">
        <ele>739.494484</ele>
        <time>2020-10-11T09:15:25.256Z</time>
      </trkpt>
      <trkpt lat="46.97149" lon="6.27543">
        <ele>739.556697</ele>
        <time>2020-10-11T09:15:26.592Z</time>
      </trkpt>
      <trkpt lat="46.97092" lon="6.27569">
        <ele>740.483143</ele>
        <time>2020-10-11T09:15:45.116Z</time>
      </trkpt>
      <trkpt lat="46.97073" lon="6.27578">
        <ele>740.741449</ele>
        <time>2020-10-11T09:15:51.171Z</time>
      </trkpt>
      <trkpt lat="46.97054" lon="6.27587">
        <ele>741.004967</ele>
        <time>2020-10-11T09:15:56.901Z</time>
      </trkpt>
      <trkpt lat="46.97043" lon="6.27586">
        <ele>741.138674</ele>
        <time>2020-10-11T09:16:00.011Z</time>
      </trkpt>
      <trkpt lat="46.96862" lon="6.27552">
        <ele>743.178063</ele>
        <time>2020-10-11T09:16:49.157Z</time>
      </trkpt>
      <trkpt lat="46.96858" lon="6.27552">
        <ele>743.210432</ele>
        <time>2020-10-11T09:16:50.542Z</time>
      </trkpt>
      <trkpt lat="46.96849" lon="6.2755">
        <ele>743.276676</ele>
        <time>2020-10-11T09:16:52.846Z</time>
      </trkpt>
      <trkpt lat="46.96811" lon="6.27549">
        <ele>743.55215</ele>
        <time>2020-10-11T09:17:02.061Z</time>
      </trkpt>
      <trkpt lat="46.96753" lon="6.27561">
        <ele>743.977833</ele>
        <time>2020-10-11T09:17:15.327Z</time>
      </trkpt>
      <trkpt lat="46.96725" lon="6.27555">
        <ele>744.15495</ele>
        <time>2020-10-11T09:17:21.891Z</time>
      </trkpt>
      <trkpt lat="46.96699" lon="6.27544">
        <ele>744.302238</ele>
        <time>2020-10-11T09:17:28.448Z</time>
      </trkpt>
      <trkpt lat="46.96687" lon="6.27535">
        <ele>744.37257</ele>
        <time>2020-10-11T09:17:31.179Z</time>
      </trkpt>
      <trkpt lat="46.96651" lon="6.27503">
        <ele>744.602457</ele>
        <time>2020-10-11T09:17:41.254Z</time>
      </trkpt>
      <trkpt lat="46.96623" lon="6.27469">
        <ele>744.797485</ele>
        <time>2020-10-11T09:17:50.055Z</time>
      </trkpt>
      <trkpt lat="46.9657" lon="6.27403">
        <ele>745.200973</ele>
        <time>2020-10-11T09:18:06.896Z</time>
      </trkpt>
      <trkpt lat="46.96563" lon="6.27394">
        <ele>745.266428</ele>
        <time>2020-10-11T09:18:09.501Z</time>
      </trkpt>
      <trkpt lat="46.96561" lon="6.27391">
        <ele>745.283168</ele>
        <time>2020-10-11T09:18:10.133Z</time>
      </trkpt>
      <trkpt lat="46.96519" lon="6.2734">
        <ele>745.647312</ele>
        <time>2020-10-11T09:18:23.587Z</time>
      </trkpt>
      <trkpt lat="46.96477" lon="6.27296">
        <ele>745.994273</ele>
        <time>2020-10-11T09:18:36.826Z</time>
      </trkpt>
      <trkpt lat="46.96447" lon="6.27269">
        <ele>746.231259</ele>
        <time>2020-10-11T09:18:45.437Z</time>
      </trkpt>
      <trkpt lat="46.96399" lon="6.27228">
        <ele>746.44709</ele>
        <time>2020-10-11T09:18:57.885Z</time>
      </trkpt>
      <trkpt lat="46.96314" lon="6.2716">
        <ele>746.819552</ele>
        <time>2020-10-11T09:19:19.236Z</time>
      </trkpt>
      <trkpt lat="46.96272" lon="6.27124">
        <ele>747.088681</ele>
        <time>2020-10-11T09:19:30.949Z</time>
      </trkpt>
      <trkpt lat="46.96234" lon="6.27084">
        <ele>747.448643</ele>
        <time>2020-10-11T09:19:42.614Z</time>
      </trkpt>
      <trkpt lat="46.96224" lon="6.27071">
        <ele>747.553979</ele>
        <time>2020-10-11T09:19:46.085Z</time>
      </trkpt>
      <trkpt lat="46.96215" lon="6.27059">
        <ele>747.644786</ele>
        <time>2020-10-11T09:19:48.991Z</time>
      </trkpt>
      <trkpt lat="46.96213" lon="6.27057">
        <ele>747.666764</ele>
        <time>2020-10-11T09:19:49.782Z</time>
      </trkpt>
      <trkpt lat="46.96177" lon="6.27011">
        <ele>748.035792</ele>
        <time>2020-10-11T09:20:02.344Z</time>
      </trkpt>
      <trkpt lat="46.96145" lon="6.2697">
        <ele>748.302026</ele>
        <time>2020-10-11T09:20:13.688Z</time>
      </trkpt>
      <trkpt lat="46.96104" lon="6.26918">
        <ele>748.096828</ele>
        <time>2020-10-11T09:20:26.543Z</time>
      </trkpt>
      <trkpt lat="46.96095" lon="6.26904">
        <ele>748.043923</ele>
        <time>2020-10-11T09:20:29.314Z</time>
      </trkpt>
      <trkpt lat="46.96088" lon="6.26898">
        <ele>748.012954</ele>
        <time>2020-10-11T09:20:30.985Z</time>
      </trkpt>
      <trkpt lat="46.96071" lon="6.26876">
        <ele>747.927767</ele>
        <time>2020-10-11T09:20:35.144Z</time>
      </trkpt>
      <trkpt lat="46.96041" lon="6.26835">
        <ele>747.769767</ele>
        <time>2020-10-11T09:20:42.234Z</time>
      </trkpt>
      <trkpt lat="46.96029" lon="6.26813">
        <ele>747.694781</ele>
        <time>2020-10-11T09:20:45.481Z</time>
      </trkpt>
      <trkpt lat="46.96004" lon="6.26762">
        <ele>747.209038</ele>
        <time>2020-10-11T09:20:52.066Z</time>
      </trkpt>
      <trkpt lat="46.959" lon="6.26598">
        <ele>744.718373</ele>
        <time>2020-10-11T09:21:15.908Z</time>
      </trkpt>
      <trkpt lat="46.95842" lon="6.26525">
        <ele>745.259485</ele>
        <time>2020-10-11T09:21:31.281Z</time>
      </trkpt>
      <trkpt lat="46.95777" lon="6.26446">
        <ele>745.855398</ele>
        <time>2020-10-11T09:21:55.836Z</time>
      </trkpt>
      <trkpt lat="46.95733" lon="6.26393">
        <ele>746.573253</ele>
        <time>2020-10-11T09:22:14.683Z</time>
      </trkpt>
      <trkpt lat="46.95708" lon="6.26372">
        <ele>747.015363</ele>
        <time>2020-10-11T09:22:24.096Z</time>
      </trkpt>
      <trkpt lat="46.95694" lon="6.2636">
        <ele>747.267274</ele>
        <time>2020-10-11T09:22:29.081Z</time>
      </trkpt>
      <trkpt lat="46.95688" lon="6.26355">
        <ele>747.372349</ele>
        <time>2020-10-11T09:22:31.048Z</time>
      </trkpt>
      <trkpt lat="46.95683" lon="6.2635">
        <ele>747.468955</ele>
        <time>2020-10-11T09:22:32.874Z</time>
      </trkpt>
      <trkpt lat="46.95681" lon="6.26349">
        <ele>747.498518</ele>
        <time>2020-10-11T09:22:33.648Z</time>
      </trkpt>
      <trkpt lat="46.9567" lon="6.26337">
        <ele>747.713672</ele>
        <time>2020-10-11T09:22:37.682Z</time>
      </trkpt>
      <trkpt lat="46.9564" lon="6.26291">
        <ele>748.376491</ele>
        <time>2020-10-11T09:22:49.822Z</time>
      </trkpt>
      <trkpt lat="46.956" lon="6.26219">
        <ele>748.864675</ele>
        <time>2020-10-11T09:23:05.969Z</time>
      </trkpt>
      <trkpt lat="46.95584" lon="6.26198">
        <ele>748.920287</ele>
        <time>2020-10-11T09:23:10.690Z</time>
      </trkpt>
      <trkpt lat="46.95559" lon="6.26174">
        <ele>748.995142</ele>
        <time>2020-10-11T09:23:16.439Z</time>
      </trkpt>
      <trkpt lat="46.95509" lon="6.26113">
        <ele>749.163302</ele>
        <time>2020-10-11T09:23:29.415Z</time>
      </trkpt>
      <trkpt lat="46.95497" lon="6.26094">
        <ele>749.207924</ele>
        <time>2020-10-11T09:23:33.278Z</time>
      </trkpt>
      <trkpt lat="46.95484" lon="6.26075">
        <ele>749.277359</ele>
        <time>2020-10-11T09:23:37.590Z</time>
      </trkpt>
      <trkpt lat="46.95467" lon="6.2603">
        <ele>749.433801</ele>
        <time>2020-10-11T09:23:45.802Z</time>
      </trkpt>
      <trkpt lat="46.95459" lon="6.26008">
        <ele>749.51102</ele>
        <time>2020-10-11T09:23:50.043Z</time>
      </trkpt>
      <trkpt lat="46.95438" lon="6.25955">
        <ele>749.70069</ele>
        <time>2020-10-11T09:24:00.074Z</time>
      </trkpt>
      <trkpt lat="46.95409" lon="6.25909">
        <ele>749.894727</ele>
        <time>2020-10-11T09:24:10.007Z</time>
      </trkpt>
      <trkpt lat="46.95403" lon="6.259">
        <ele>749.932882</ele>
        <time>2020-10-11T09:24:12.170Z</time>
      </trkpt>
      <trkpt lat="46.9534" lon="6.25788">
        <ele>750.079628</ele>
        <time>2020-10-11T09:24:35.335Z</time>
      </trkpt>
      <trkpt lat="46.95333" lon="6.25774">
        <ele>750.085747</ele>
        <time>2020-10-11T09:24:38.131Z</time>
      </trkpt>
      <trkpt lat="46.95287" lon="6.25683">
        <ele>750.126715</ele>
        <time>2020-10-11T09:24:53.539Z</time>
      </trkpt>
      <trkpt lat="46.95271" lon="6.25652">
        <ele>750.045792</ele>
        <time>2020-10-11T09:24:58.439Z</time>
      </trkpt>
      <trkpt lat="46.95265" lon="6.25639">
        <ele>749.951026</ele>
        <time>2020-10-11T09:25:00.399Z</time>
      </trkpt>
      <trkpt lat="46.95209" lon="6.25533">
        <ele>749.189124</ele>
        <time>2020-10-11T09:25:16.415Z</time>
      </trkpt>
      <trkpt lat="46.9518" lon="6.25487">
        <ele>748.831306</ele>
        <time>2020-10-11T09:25:23.731Z</time>
      </trkpt>
      <trkpt lat="46.95157" lon="6.2545">
        <ele>748.557195</ele>
        <time>2020-10-11T09:25:29.489Z</time>
      </trkpt>
      <trkpt lat="46.95112" lon="6.25385">
        <ele>748.092504</ele>
        <time>2020-10-11T09:25:40.249Z</time>
      </trkpt>
      <trkpt lat="46.94985" lon="6.25256">
        <ele>747.245868</ele>
        <time>2020-10-11T09:26:08.492Z</time>
      </trkpt>
      <trkpt lat="46.94962" lon="6.25242">
        <ele>747.212961</ele>
        <time>2020-10-11T09:26:13.772Z</time>
      </trkpt>
      <trkpt lat="46.94921" lon="6.25229">
        <ele>747.159749</ele>
        <time>2020-10-11T09:26:22.470Z</time>
      </trkpt>
      <trkpt lat="46.94895" lon="6.2521">
        <ele>747.121907</ele>
        <time>2020-10-11T09:26:28.397Z</time>
      </trkpt>
      <trkpt lat="46.94876" lon="6.25187">
        <ele>747.09025</ele>
        <time>2020-10-11T09:26:33.659Z</time>
      </trkpt>
      <trkpt lat="46.94824" lon="6.25099">
        <ele>747.62613</ele>
        <time>2020-10-11T09:26:51.260Z</time>
      </trkpt>
      <trkpt lat="46.94803" lon="6.25036">
        <ele>748.006625</ele>
        <time>2020-10-11T09:27:03.278Z</time>
      </trkpt>
      <trkpt lat="46.94784" lon="6.24967">
        <ele>748.414583</ele>
        <time>2020-10-11T09:27:17.108Z</time>
      </trkpt>
      <trkpt lat="46.94763" lon="6.24924">
        <ele>749.117839</ele>
        <time>2020-10-11T09:27:27.413Z</time>
      </trkpt>
      <trkpt lat="46.94552" lon="6.24635">
        <ele>757.1939</ele>
        <time>2020-10-11T09:29:15.116Z</time>
      </trkpt>
      <trkpt lat="46.94338" lon="6.24451">
        <ele>764.865887</ele>
        <time>2020-10-11T09:30:50.510Z</time>
      </trkpt>
      <trkpt lat="46.9427" lon="6.24365">
        <ele>767.414712</ele>
        <time>2020-10-11T09:31:22.966Z</time>
      </trkpt>
      <trkpt lat="46.9419" lon="6.24227">
        <ele>771.249762</ele>
        <time>2020-10-11T09:32:08.238Z</time>
      </trkpt>
      <trkpt lat="46.94112" lon="6.24066">
        <ele>775.989257</ele>
        <time>2020-10-11T09:33:02.962Z</time>
      </trkpt>
      <trkpt lat="46.93914" lon="6.23771">
        <ele>789.533193</ele>
        <time>2020-10-11T09:35:15.836Z</time>
      </trkpt>
      <trkpt lat="46.93877" lon="6.23685">
        <ele>793.177176</ele>
        <time>2020-10-11T09:35:53.191Z</time>
      </trkpt>
      <trkpt lat="46.9385" lon="6.23544">
        <ele>799.679153</ele>
        <time>2020-10-11T09:36:51.059Z</time>
      </trkpt>
      <trkpt lat="46.93829" lon="6.23339">
        <ele>808.238353</ele>
        <time>2020-10-11T09:38:12.846Z</time>
      </trkpt>
      <trkpt lat="46.93827" lon="6.2324">
        <ele>811.946047</ele>
        <time>2020-10-11T09:38:47.899Z</time>
      </trkpt>
      <trkpt lat="46.93835" lon="6.23175">
        <ele>814.415428</ele>
        <time>2020-10-11T09:39:08.791Z</time>
      </trkpt>
      <trkpt lat="46.93856" lon="6.23097">
        <ele>816.392649</ele>
        <time>2020-10-11T09:39:32.088Z</time>
      </trkpt>
      <trkpt lat="46.93885" lon="6.23026">
        <ele>818.253203</ele>
        <time>2020-10-11T09:39:52.820Z</time>
      </trkpt>
      <trkpt lat="46.93921" lon="6.22985">
        <ele>819.758663</ele>
        <time>2020-10-11T09:40:10.303Z</time>
      </trkpt>
      <trkpt lat="46.93998" lon="6.22933">
        <ele>822.607211</ele>
        <time>2020-10-11T09:40:42.405Z</time>
      </trkpt>
      <trkpt lat="46.94047" lon="6.229">
        <ele>824.427339</ele>
        <time>2020-10-11T09:41:03.820Z</time>
      </trkpt>
      <trkpt lat="46.94087" lon="6.22862">
        <ele>826.072657</ele>
        <time>2020-10-11T09:41:24.085Z</time>
      </trkpt>
      <trkpt lat="46.94116" lon="6.2279">
        <ele>827.599666</ele>
        <time>2020-10-11T09:41:47.996Z</time>
      </trkpt>
      <trkpt lat="46.94116" lon="6.22725">
        <ele>828.654344</ele>
        <time>2020-10-11T09:42:04.631Z</time>
      </trkpt>
      <trkpt lat="46.94119" lon="6.22689">
        <ele>829.233287</ele>
        <time>2020-10-11T09:42:13.033Z</time>
      </trkpt>
      <trkpt lat="46.94137" lon="6.22404">
        <ele>832.598165</ele>
        <time>2020-10-11T09:43:06.375Z</time>
      </trkpt>
      <trkpt lat="46.94127" lon="6.22236">
        <ele>834.442936</ele>
        <time>2020-10-11T09:43:41.414Z</time>
      </trkpt>
      <trkpt lat="46.94116" lon="6.22197">
        <ele>834.973116</ele>
        <time>2020-10-11T09:43:50.664Z</time>
      </trkpt>
      <trkpt lat="46.941" lon="6.22169">
        <ele>835.417995</ele>
        <time>2020-10-11T09:43:58.824Z</time>
      </trkpt>
      <trkpt lat="46.94072" lon="6.22135">
        <ele>836.106567</ele>
        <time>2020-10-11T09:44:10.832Z</time>
      </trkpt>
      <trkpt lat="46.94009" lon="6.22085">
        <ele>836.759361</ele>
        <time>2020-10-11T09:44:32.694Z</time>
      </trkpt>
      <trkpt lat="46.9393" lon="6.21988">
        <ele>836.983605</ele>
        <time>2020-10-11T09:44:55.653Z</time>
      </trkpt>
      <trkpt lat="46.93922" lon="6.21976">
        <ele>837.009593</ele>
        <time>2020-10-11T09:44:57.579Z</time>
      </trkpt>
      <trkpt lat="46.93856" lon="6.21883">
        <ele>835.594208</ele>
        <time>2020-10-11T09:45:12.165Z</time>
      </trkpt>
      <trkpt lat="46.93845" lon="6.21861">
        <ele>835.188733</ele>
        <time>2020-10-11T09:45:14.858Z</time>
      </trkpt>
      <trkpt lat="46.93823" lon="6.21817">
        <ele>834.370261</ele>
        <time>2020-10-11T09:45:20.354Z</time>
      </trkpt>
      <trkpt lat="46.93803" lon="6.21743">
        <ele>833.191333</ele>
        <time>2020-10-11T09:45:28.298Z</time>
      </trkpt>
      <trkpt lat="46.93787" lon="6.21716">
        <ele>832.541328</ele>
        <time>2020-10-11T09:45:31.900Z</time>
      </trkpt>
      <trkpt lat="46.93812" lon="6.2159">
        <ele>830.187876</ele>
        <time>2020-10-11T09:45:44.938Z</time>
      </trkpt>
      <trkpt lat="46.93834" lon="6.21488">
        <ele>828.280593</ele>
        <time>2020-10-11T09:45:55.850Z</time>
      </trkpt>
      <trkpt lat="46.93921" lon="6.21106">
        <ele>822.532487</ele>
        <time>2020-10-11T09:46:37.731Z</time>
      </trkpt>
      <trkpt lat="46.93977" lon="6.20867">
        <ele>819.720847</ele>
        <time>2020-10-11T09:47:05.242Z</time>
      </trkpt>
      <trkpt lat="46.94008" lon="6.20733">
        <ele>818.304421</ele>
        <time>2020-10-11T09:47:21.797Z</time>
      </trkpt>
      <trkpt lat="46.94033" lon="6.20622">
        <ele>816.559928</ele>
        <time>2020-10-11T09:47:34.620Z</time>
      </trkpt>
      <trkpt lat="46.94102" lon="6.20308">
        <ele>810.56643</ele>
        <time>2020-10-11T09:48:07.058Z</time>
      </trkpt>
      <trkpt lat="46.94134" lon="6.2019">
        <ele>808.373649</ele>
        <time>2020-10-11T09:48:19.522Z</time>
      </trkpt>
      <trkpt lat="46.9415" lon="6.20122">
        <ele>807.360603</ele>
        <time>2020-10-11T09:48:26.898Z</time>
      </trkpt>
      <trkpt lat="46.94158" lon="6.20079">
        <ele>806.729278</ele>
        <time>2020-10-11T09:48:31.526Z</time>
      </trkpt>
      <trkpt lat="46.9421" lon="6.19726">
        <ele>803.296512</ele>
        <time>2020-10-11T09:49:12.797Z</time>
      </trkpt>
      <trkpt lat="46.94242" lon="6.19532">
        <ele>802.239736</ele>
        <time>2020-10-11T09:49:36.570Z</time>
      </trkpt>
      <trkpt lat="46.94223" lon="6.19504">
        <ele>802.032546</ele>
        <time>2020-10-11T09:49:41.550Z</time>
      </trkpt>
      <trkpt lat="46.94183" lon="6.19444">
        <ele>801.966658</ele>
        <time>2020-10-11T09:49:53.394Z</time>
      </trkpt>
      <trkpt lat="46.94167" lon="6.19436">
        <ele>801.968527</ele>
        <time>2020-10-11T09:49:57.152Z</time>
      </trkpt>
      <trkpt lat="46.94121" lon="6.19423">
        <ele>801.973811</ele>
        <time>2020-10-11T09:50:06.739Z</time>
      </trkpt>
      <trkpt lat="46.9411" lon="6.19417">
        <ele>801.975162</ele>
        <time>2020-10-11T09:50:08.959Z</time>
      </trkpt>
      <trkpt lat="46.94095" lon="6.19397">
        <ele>801.977413</ele>
        <time>2020-10-11T09:50:13.172Z</time>
      </trkpt>
      <trkpt lat="46.94074" lon="6.19347">
        <ele>801.954706</ele>
        <time>2020-10-11T09:50:22.270Z</time>
      </trkpt>
      <trkpt lat="46.94061" lon="6.19316">
        <ele>801.801633</ele>
        <time>2020-10-11T09:50:28.408Z</time>
      </trkpt>
      <trkpt lat="46.94034" lon="6.19268">
        <ele>801.542587</ele>
        <time>2020-10-11T09:50:38.147Z</time>
      </trkpt>
      <trkpt lat="46.94008" lon="6.19176">
        <ele>801.122935</ele>
        <time>2020-10-11T09:50:50.914Z</time>
      </trkpt>
      <trkpt lat="46.93982" lon="6.19114">
        <ele>800.557246</ele>
        <time>2020-10-11T09:50:58.651Z</time>
      </trkpt>
      <trkpt lat="46.93976" lon="6.19089">
        <ele>799.990374</ele>
        <time>2020-10-11T09:51:01.252Z</time>
      </trkpt>
      <trkpt lat="46.93974" lon="6.19049">
        <ele>799.097642</ele>
        <time>2020-10-11T09:51:05.258Z</time>
      </trkpt>
      <trkpt lat="46.93974" lon="6.19019">
        <ele>798.440088</ele>
        <time>2020-10-11T09:51:08.146Z</time>
      </trkpt>
      <trkpt lat="46.9397" lon="6.18865">
        <ele>795.048282</ele>
        <time>2020-10-11T09:51:22.695Z</time>
      </trkpt>
      <trkpt lat="46.93976" lon="6.1874">
        <ele>792.481843</ele>
        <time>2020-10-11T09:51:34.502Z</time>
      </trkpt>
      <trkpt lat="46.93965" lon="6.18586">
        <ele>789.826819</ele>
        <time>2020-10-11T09:51:50.224Z</time>
      </trkpt>
      <trkpt lat="46.93956" lon="6.18529">
        <ele>790.222438</ele>
        <time>2020-10-11T09:51:57.828Z</time>
      </trkpt>
      <trkpt lat="46.93938" lon="6.18475">
        <ele>790.624134</ele>
        <time>2020-10-11T09:52:07.771Z</time>
      </trkpt>
      <trkpt lat="46.93923" lon="6.18435">
        <ele>790.933781</ele>
        <time>2020-10-11T09:52:16.654Z</time>
      </trkpt>
      <trkpt lat="46.93901" lon="6.18392">
        <ele>791.296113</ele>
        <time>2020-10-11T09:52:28.850Z</time>
      </trkpt>
      <trkpt lat="46.93889" lon="6.18351">
        <ele>791.891507</ele>
        <time>2020-10-11T09:52:41.845Z</time>
      </trkpt>
      <trkpt lat="46.9387" lon="6.18196">
        <ele>795.671162</ele>
        <time>2020-10-11T09:53:30.744Z</time>
      </trkpt>
      <trkpt lat="46.93861" lon="6.1815">
        <ele>796.811879</ele>
        <time>2020-10-11T09:53:43.703Z</time>
      </trkpt>
      <trkpt lat="46.93856" lon="6.18129">
        <ele>797.352951</ele>
        <time>2020-10-11T09:53:49.588Z</time>
      </trkpt>
      <trkpt lat="46.93848" lon="6.18106">
        <ele>797.784072</ele>
        <time>2020-10-11T09:53:55.301Z</time>
      </trkpt>
      <trkpt lat="46.93843" lon="6.18092">
        <ele>797.739247</ele>
        <time>2020-10-11T09:53:58.838Z</time>
      </trkpt>
      <trkpt lat="46.93818" lon="6.18018">
        <ele>797.507328</ele>
        <time>2020-10-11T09:54:14.524Z</time>
      </trkpt>
      <trkpt lat="46.93801" lon="6.17972">
        <ele>797.357773</ele>
        <time>2020-10-11T09:54:22.287Z</time>
      </trkpt>
      <trkpt lat="46.93794" lon="6.17935">
        <ele>797.252655</ele>
        <time>2020-10-11T09:54:26.581Z</time>
      </trkpt>
      <trkpt lat="46.93795" lon="6.17885">
        <ele>797.112717</ele>
        <time>2020-10-11T09:54:31.572Z</time>
      </trkpt>
      <trkpt lat="46.93815" lon="6.17767">
        <ele>793.692681</ele>
        <time>2020-10-11T09:54:42.803Z</time>
      </trkpt>
      <trkpt lat="46.93821" lon="6.17672">
        <ele>790.604122</ele>
        <time>2020-10-11T09:54:51.393Z</time>
      </trkpt>
      <trkpt lat="46.93816" lon="6.17634">
        <ele>789.345018</ele>
        <time>2020-10-11T09:54:54.839Z</time>
      </trkpt>
      <trkpt lat="46.93805" lon="6.1759">
        <ele>787.792074</ele>
        <time>2020-10-11T09:54:59.010Z</time>
      </trkpt>
      <trkpt lat="46.93793" lon="6.17558">
        <ele>786.547592</ele>
        <time>2020-10-11T09:55:02.219Z</time>
      </trkpt>
      <trkpt lat="46.93706" lon="6.17291">
        <ele>777.516681</ele>
        <time>2020-10-11T09:55:29.062Z</time>
      </trkpt>
      <trkpt lat="46.93681" lon="6.17245">
        <ele>776.292029</ele>
        <time>2020-10-11T09:55:34.737Z</time>
      </trkpt>
      <trkpt lat="46.93644" lon="6.17196">
        <ele>774.741891</ele>
        <time>2020-10-11T09:55:42.266Z</time>
      </trkpt>
      <trkpt lat="46.93588" lon="6.1714">
        <ele>773.871091</ele>
        <time>2020-10-11T09:55:53.695Z</time>
      </trkpt>
      <trkpt lat="46.93527" lon="6.17084">
        <ele>773.866417</ele>
        <time>2020-10-11T09:56:09.086Z</time>
      </trkpt>
      <trkpt lat="46.93468" lon="6.17039">
        <ele>773.862014</ele>
        <time>2020-10-11T09:56:26.543Z</time>
      </trkpt>
      <trkpt lat="46.93428" lon="6.17013">
        <ele>774.194952</ele>
        <time>2020-10-11T09:56:37.300Z</time>
      </trkpt>
      <trkpt lat="46.93409" lon="6.16991">
        <ele>774.382822</ele>
        <time>2020-10-11T09:56:43.106Z</time>
      </trkpt>
      <trkpt lat="46.93317" lon="6.16816">
        <ele>775.969238</ele>
        <time>2020-10-11T09:57:20.997Z</time>
      </trkpt>
      <trkpt lat="46.93285" lon="6.16761">
        <ele>776.898468</ele>
        <time>2020-10-11T09:57:35.548Z</time>
      </trkpt>
      <trkpt lat="46.93264" lon="6.16724">
        <ele>777.52907</ele>
        <time>2020-10-11T09:57:46.126Z</time>
      </trkpt>
      <trkpt lat="46.93254" lon="6.16703">
        <ele>777.851726</ele>
        <time>2020-10-11T09:57:51.907Z</time>
      </trkpt>
      <trkpt lat="46.93238" lon="6.16659">
        <ele>778.496769</ele>
        <time>2020-10-11T09:58:04.356Z</time>
      </trkpt>
      <trkpt lat="46.93229" lon="6.16607">
        <ele>779.704864</ele>
        <time>2020-10-11T09:58:18.124Z</time>
      </trkpt>
      <trkpt lat="46.9323" lon="6.16592">
        <ele>780.112548</ele>
        <time>2020-10-11T09:58:22.476Z</time>
      </trkpt>
      <trkpt lat="46.93231" lon="6.16581">
        <ele>780.37811</ele>
        <time>2020-10-11T09:58:25.153Z</time>
      </trkpt>
      <trkpt lat="46.9323" lon="6.16575">
        <ele>780.528995</ele>
        <time>2020-10-11T09:58:27.204Z</time>
      </trkpt>
      <trkpt lat="46.93225" lon="6.16551">
        <ele>781.184408</ele>
        <time>2020-10-11T09:58:33.459Z</time>
      </trkpt>
      <trkpt lat="46.93211" lon="6.16512">
        <ele>782.301321</ele>
        <time>2020-10-11T09:58:45.109Z</time>
      </trkpt>
      <trkpt lat="46.93204" lon="6.16497">
        <ele>782.790022</ele>
        <time>2020-10-11T09:58:50.228Z</time>
      </trkpt>
      <trkpt lat="46.93166" lon="6.16421">
        <ele>785.214209</ele>
        <time>2020-10-11T09:59:16.183Z</time>
      </trkpt>
      <trkpt lat="46.93154" lon="6.16406">
        <ele>786.079879</ele>
        <time>2020-10-11T09:59:26.680Z</time>
      </trkpt>
      <trkpt lat="46.93094" lon="6.16364">
        <ele>790.332026</ele>
        <time>2020-10-11T10:00:05.149Z</time>
      </trkpt>
      <trkpt lat="46.9307" lon="6.1633">
        <ele>792.446165</ele>
        <time>2020-10-11T10:00:23.402Z</time>
      </trkpt>
      <trkpt lat="46.93062" lon="6.16309">
        <ele>793.484212</ele>
        <time>2020-10-11T10:00:34.176Z</time>
      </trkpt>
      <trkpt lat="46.93058" lon="6.16282">
        <ele>794.722134</ele>
        <time>2020-10-11T10:00:44.710Z</time>
      </trkpt>
      <trkpt lat="46.93057" lon="6.16276">
        <ele>794.979682</ele>
        <time>2020-10-11T10:00:49.853Z</time>
      </trkpt>
      <trkpt lat="46.93055" lon="6.16242">
        <ele>796.491789</ele>
        <time>2020-10-11T10:01:01.143Z</time>
      </trkpt>
      <trkpt lat="46.93063" lon="6.16148">
        <ele>800.143871</ele>
        <time>2020-10-11T10:01:38.998Z</time>
      </trkpt>
      <trkpt lat="46.93062" lon="6.16115">
        <ele>801.383459</ele>
        <time>2020-10-11T10:01:53.407Z</time>
      </trkpt>
      <trkpt lat="46.9306" lon="6.16098">
        <ele>802.041631</ele>
        <time>2020-10-11T10:01:58.676Z</time>
      </trkpt>
      <trkpt lat="46.93055" lon="6.1608">
        <ele>802.800331</ele>
        <time>2020-10-11T10:02:05.769Z</time>
      </trkpt>
      <trkpt lat="46.9305" lon="6.16062">
        <ele>803.513513</ele>
        <time>2020-10-11T10:02:14.985Z</time>
      </trkpt>
      <trkpt lat="46.93031" lon="6.1602">
        <ele>805.451979</ele>
        <time>2020-10-11T10:02:30.382Z</time>
      </trkpt>
      <trkpt lat="46.93014" lon="6.15984">
        <ele>807.003554</ele>
        <time>2020-10-11T10:02:42.618Z</time>
      </trkpt>
      <trkpt lat="46.92987" lon="6.15903">
        <ele>808.304883</ele>
        <time>2020-10-11T10:03:03.130Z</time>
      </trkpt>
      <trkpt lat="46.92963" lon="6.15799">
        <ele>809.897527</ele>
        <time>2020-10-11T10:03:26.763Z</time>
      </trkpt>
      <trkpt lat="46.9292" lon="6.1565">
        <ele>811.016149</ele>
        <time>2020-10-11T10:03:57.562Z</time>
      </trkpt>
      <trkpt lat="46.92872" lon="6.15245">
        <ele>811.213935</ele>
        <time>2020-10-11T10:04:52.561Z</time>
      </trkpt>
      <trkpt lat="46.92854" lon="6.15167">
        <ele>811.475557</ele>
        <time>2020-10-11T10:05:05.837Z</time>
      </trkpt>
      <trkpt lat="46.92825" lon="6.15102">
        <ele>811.780479</ele>
        <time>2020-10-11T10:05:18.985Z</time>
      </trkpt>
      <trkpt lat="46.92758" lon="6.14997">
        <ele>812.027266</ele>
        <time>2020-10-11T10:05:44.756Z</time>
      </trkpt>
      <trkpt lat="46.92698" lon="6.14933">
        <ele>811.163053</ele>
        <time>2020-10-11T10:05:58.677Z</time>
      </trkpt>
      <trkpt lat="46.92646" lon="6.14866">
        <ele>810.348209</ele>
        <time>2020-10-11T10:06:09.449Z</time>
      </trkpt>
      <trkpt lat="46.92639" lon="6.14855">
        <ele>810.230975</ele>
        <time>2020-10-11T10:06:10.931Z</time>
      </trkpt>
      <trkpt lat="46.92608" lon="6.14799">
        <ele>808.485913</ele>
        <time>2020-10-11T10:06:17.840Z</time>
      </trkpt>
      <trkpt lat="46.92554" lon="6.14681">
        <ele>804.569363</ele>
        <time>2020-10-11T10:06:30.872Z</time>
      </trkpt>
      <trkpt lat="46.92532" lon="6.14598">
        <ele>802.27876</ele>
        <time>2020-10-11T10:06:39.124Z</time>
      </trkpt>
      <trkpt lat="46.92528" lon="6.14576">
        <ele>801.782906</ele>
        <time>2020-10-11T10:06:41.179Z</time>
      </trkpt>
      <trkpt lat="46.92524" lon="6.14545">
        <ele>801.081631</ele>
        <time>2020-10-11T10:06:44.357Z</time>
      </trkpt>
      <trkpt lat="46.92523" lon="6.14514">
        <ele>800.392602</ele>
        <time>2020-10-11T10:06:47.333Z</time>
      </trkpt>
      <trkpt lat="46.92524" lon="6.14471">
        <ele>799.4622</ele>
        <time>2020-10-11T10:06:51.415Z</time>
      </trkpt>
      <trkpt lat="46.92525" lon="6.14442">
        <ele>798.822018</ele>
        <time>2020-10-11T10:06:54.447Z</time>
      </trkpt>
      <trkpt lat="46.92522" lon="6.14392">
        <ele>797.709796</ele>
        <time>2020-10-11T10:06:59.501Z</time>
      </trkpt>
      <trkpt lat="46.92515" lon="6.14368">
        <ele>797.128391</ele>
        <time>2020-10-11T10:07:02.055Z</time>
      </trkpt>
      <trkpt lat="46.9241" lon="6.14201">
        <ele>793.909429</ele>
        <time>2020-10-11T10:07:26.152Z</time>
      </trkpt>
      <trkpt lat="46.92374" lon="6.14122">
        <ele>792.64686</ele>
        <time>2020-10-11T10:07:35.871Z</time>
      </trkpt>
      <trkpt lat="46.92327" lon="6.13986">
        <ele>790.701872</ele>
        <time>2020-10-11T10:07:51.896Z</time>
      </trkpt>
      <trkpt lat="46.9231" lon="6.13925">
        <ele>789.984277</ele>
        <time>2020-10-11T10:07:59.266Z</time>
      </trkpt>
      <trkpt lat="46.92302" lon="6.13895">
        <ele>789.895165</ele>
        <time>2020-10-11T10:08:03.045Z</time>
      </trkpt>
      <trkpt lat="46.92292" lon="6.13822">
        <ele>789.689263</ele>
        <time>2020-10-11T10:08:12.208Z</time>
      </trkpt>
      <trkpt lat="46.92292" lon="6.13782">
        <ele>789.579287</ele>
        <time>2020-10-11T10:08:17.432Z</time>
      </trkpt>
      <trkpt lat="46.92296" lon="6.13736">
        <ele>789.449243</ele>
        <time>2020-10-11T10:08:23.953Z</time>
      </trkpt>
      <trkpt lat="46.923" lon="6.13655">
        <ele>789.35723</ele>
        <time>2020-10-11T10:08:36.432Z</time>
      </trkpt>
      <trkpt lat="46.92298" lon="6.1356">
        <ele>789.647341</ele>
        <time>2020-10-11T10:08:51.604Z</time>
      </trkpt>
      <trkpt lat="46.9228" lon="6.13501">
        <ele>789.844965</ele>
        <time>2020-10-11T10:09:02.024Z</time>
      </trkpt>
      <trkpt lat="46.92088" lon="6.13083">
        <ele>792.0972</ele>
        <time>2020-10-11T10:10:23.470Z</time>
      </trkpt>
      <trkpt lat="46.91772" lon="6.12565">
        <ele>798.732143</ele>
        <time>2020-10-11T10:12:46.892Z</time>
      </trkpt>
      <trkpt lat="46.91447" lon="6.12163">
        <ele>799.291298</ele>
        <time>2020-10-11T10:14:12.943Z</time>
      </trkpt>
      <trkpt lat="46.91344" lon="6.1201">
        <ele>799.925948</ele>
        <time>2020-10-11T10:14:46.040Z</time>
      </trkpt>
      <trkpt lat="46.91304" lon="6.11919">
        <ele>800.491425</ele>
        <time>2020-10-11T10:15:05.344Z</time>
      </trkpt>
      <trkpt lat="46.91266" lon="6.11769">
        <ele>801.746527</ele>
        <time>2020-10-11T10:15:35.885Z</time>
      </trkpt>
      <trkpt lat="46.91236" lon="6.11707">
        <ele>802.428151</ele>
        <time>2020-10-11T10:15:50.779Z</time>
      </trkpt>
      <trkpt lat="46.91195" lon="6.11652">
        <ele>803.150441</ele>
        <time>2020-10-11T10:16:06.672Z</time>
      </trkpt>
      <trkpt lat="46.91189" lon="6.11627">
        <ele>803.390665</ele>
        <time>2020-10-11T10:16:11.549Z</time>
      </trkpt>
      <trkpt lat="46.91189" lon="6.11606">
        <ele>803.579409</ele>
        <time>2020-10-11T10:16:15.874Z</time>
      </trkpt>
      <trkpt lat="46.91107" lon="6.11586">
        <ele>804.673485</ele>
        <time>2020-10-11T10:16:38.743Z</time>
      </trkpt>
      <trkpt lat="46.90804" lon="6.11464">
        <ele>809.679233</ele>
        <time>2020-10-11T10:18:08.933Z</time>
      </trkpt>
      <trkpt lat="46.90578" lon="6.11327">
        <ele>815.903149</ele>
        <time>2020-10-11T10:19:37.415Z</time>
      </trkpt>
      <trkpt lat="46.90493" lon="6.11274">
        <ele>818.513006</ele>
        <time>2020-10-11T10:20:12.624Z</time>
      </trkpt>
      <trkpt lat="46.90471" lon="6.11256">
        <ele>819.206655</ele>
        <time>2020-10-11T10:20:21.964Z</time>
      </trkpt>
      <trkpt lat="46.90433" lon="6.11227">
        <ele>820.431826</ele>
        <time>2020-10-11T10:20:38.097Z</time>
      </trkpt>
      <trkpt lat="46.90268" lon="6.11017">
        <ele>825.638497</ele>
        <time>2020-10-11T10:21:54.272Z</time>
      </trkpt>
      <trkpt lat="46.90241" lon="6.10973">
        <ele>826.138159</ele>
        <time>2020-10-11T10:22:05.876Z</time>
      </trkpt>
      <trkpt lat="46.90074" lon="6.10509">
        <ele>826.159295</ele>
        <time>2020-10-11T10:23:21.867Z</time>
      </trkpt>
      <trkpt lat="46.89905" lon="6.10149">
        <ele>818.7062</ele>
        <time>2020-10-11T10:24:05.692Z</time>
      </trkpt>
      <trkpt lat="46.89796" lon="6.09871">
        <ele>812.080443</ele>
        <time>2020-10-11T10:24:36.777Z</time>
      </trkpt>
      <trkpt lat="46.89784" lon="6.09849">
        <ele>811.735965</ele>
        <time>2020-10-11T10:24:39.420Z</time>
      </trkpt>
      <trkpt lat="46.8966" lon="6.09607">
        <ele>808.316597</ele>
        <time>2020-10-11T10:25:12.648Z</time>
      </trkpt>
      <trkpt lat="46.89623" lon="6.0954">
        <ele>807.726504</ele>
        <time>2020-10-11T10:25:23.186Z</time>
      </trkpt>
      <trkpt lat="46.8958" lon="6.09484">
        <ele>807.143903</ele>
        <time>2020-10-11T10:25:33.585Z</time>
      </trkpt>
      <trkpt lat="46.89522" lon="6.09436">
        <ele>806.590554</ele>
        <time>2020-10-11T10:25:44.820Z</time>
      </trkpt>
      <trkpt lat="46.89481" lon="6.09411">
        <ele>806.245831</ele>
        <time>2020-10-11T10:25:52.361Z</time>
      </trkpt>
      <trkpt lat="46.89439" lon="6.09386">
        <ele>805.886816</ele>
        <time>2020-10-11T10:26:00.115Z</time>
      </trkpt>
      <trkpt lat="46.8941" lon="6.09369">
        <ele>805.643928</ele>
        <time>2020-10-11T10:26:05.946Z</time>
      </trkpt>
      <trkpt lat="46.89336" lon="6.09327">
        <ele>805.862895</ele>
        <time>2020-10-11T10:26:23.194Z</time>
      </trkpt>
      <trkpt lat="46.893" lon="6.09307">
        <ele>806.027766</ele>
        <time>2020-10-11T10:26:32.317Z</time>
      </trkpt>
      <trkpt lat="46.89277" lon="6.0929">
        <ele>806.13995</ele>
        <time>2020-10-11T10:26:38.790Z</time>
      </trkpt>
      <trkpt lat="46.89219" lon="6.09246">
        <ele>806.423557</ele>
        <time>2020-10-11T10:26:55.545Z</time>
      </trkpt>
      <trkpt lat="46.89186" lon="6.09221">
        <ele>806.577085</ele>
        <time>2020-10-11T10:27:04.820Z</time>
      </trkpt>
      <trkpt lat="46.89147" lon="6.09192">
        <ele>806.757348</ele>
        <time>2020-10-11T10:27:14.672Z</time>
      </trkpt>
      <trkpt lat="46.89067" lon="6.09099">
        <ele>807.240797</ele>
        <time>2020-10-11T10:27:37.394Z</time>
      </trkpt>
      <trkpt lat="46.89059" lon="6.09092">
        <ele>807.305521</ele>
        <time>2020-10-11T10:27:38.972Z</time>
      </trkpt>
      <trkpt lat="46.89055" lon="6.09089">
        <ele>807.336506</ele>
        <time>2020-10-11T10:27:40.088Z</time>
      </trkpt>
      <trkpt lat="46.89048" lon="6.09085">
        <ele>807.391807</ele>
        <time>2020-10-11T10:27:41.913Z</time>
      </trkpt>
      <trkpt lat="46.8904" lon="6.09081">
        <ele>807.45333</ele>
        <time>2020-10-11T10:27:43.795Z</time>
      </trkpt>
      <trkpt lat="46.89028" lon="6.09077">
        <ele>807.538225</ele>
        <time>2020-10-11T10:27:46.113Z</time>
      </trkpt>
      <trkpt lat="46.89019" lon="6.09073">
        <ele>807.598028</ele>
        <time>2020-10-11T10:27:48.401Z</time>
      </trkpt>
      <trkpt lat="46.88993" lon="6.09057">
        <ele>807.796872</ele>
        <time>2020-10-11T10:27:55.033Z</time>
      </trkpt>
      <trkpt lat="46.88978" lon="6.09035">
        <ele>807.950463</ele>
        <time>2020-10-11T10:28:01.093Z</time>
      </trkpt>
      <trkpt lat="46.88924" lon="6.08822">
        <ele>809.716178</ele>
        <time>2020-10-11T10:28:44.409Z</time>
      </trkpt>
      <trkpt lat="46.88813" lon="6.08588">
        <ele>813.055975</ele>
        <time>2020-10-11T10:29:41.726Z</time>
      </trkpt>
      <trkpt lat="46.88804" lon="6.08572">
        <ele>813.325885</ele>
        <time>2020-10-11T10:29:45.999Z</time>
      </trkpt>
      <trkpt lat="46.88797" lon="6.08564">
        <ele>813.508029</ele>
        <time>2020-10-11T10:29:49.637Z</time>
      </trkpt>
      <trkpt lat="46.88775" lon="6.08545">
        <ele>814.006553</ele>
        <time>2020-10-11T10:29:58.553Z</time>
      </trkpt>
      <trkpt lat="46.88772" lon="6.08542">
        <ele>814.071968</ele>
        <time>2020-10-11T10:29:59.780Z</time>
      </trkpt>
      <trkpt lat="46.88776" lon="6.0852">
        <ele>814.373304</ele>
        <time>2020-10-11T10:30:06.204Z</time>
      </trkpt>
      <trkpt lat="46.88783" lon="6.08478">
        <ele>814.74701</ele>
        <time>2020-10-11T10:30:16.209Z</time>
      </trkpt>
      <trkpt lat="46.88785" lon="6.0845">
        <ele>814.993779</ele>
        <time>2020-10-11T10:30:23.262Z</time>
      </trkpt>
      <trkpt lat="46.88787" lon="6.08433">
        <ele>815.150528</ele>
        <time>2020-10-11T10:30:27.257Z</time>
      </trkpt>
      <trkpt lat="46.8879" lon="6.08387">
        <ele>815.555018</ele>
        <time>2020-10-11T10:30:37.264Z</time>
      </trkpt>
      <trkpt lat="46.8879" lon="6.08339">
        <ele>815.969843</ele>
        <time>2020-10-11T10:30:46.854Z</time>
      </trkpt>
      <trkpt lat="46.88779" lon="6.08232">
        <ele>816.271169</ele>
        <time>2020-10-11T10:31:02.060Z</time>
      </trkpt>
      <trkpt lat="46.88777" lon="6.08195">
        <ele>815.759122</ele>
        <time>2020-10-11T10:31:05.885Z</time>
      </trkpt>
      <trkpt lat="46.88779" lon="6.08164">
        <ele>815.329348</ele>
        <time>2020-10-11T10:31:09.058Z</time>
      </trkpt>
      <trkpt lat="46.88786" lon="6.08139">
        <ele>814.964896</ele>
        <time>2020-10-11T10:31:11.793Z</time>
      </trkpt>
      <trkpt lat="46.88791" lon="6.08129">
        <ele>814.798768</ele>
        <time>2020-10-11T10:31:12.964Z</time>
      </trkpt>
      <trkpt lat="46.88782" lon="6.08111">
        <ele>814.497268</ele>
        <time>2020-10-11T10:31:16.143Z</time>
      </trkpt>
      <trkpt lat="46.88766" lon="6.08087">
        <ele>814.046399</ele>
        <time>2020-10-11T10:31:20.905Z</time>
      </trkpt>
      <trkpt lat="46.88759" lon="6.08078">
        <ele>813.848129</ele>
        <time>2020-10-11T10:31:22.967Z</time>
      </trkpt>
      <trkpt lat="46.88764" lon="6.08072">
        <ele>813.714877</ele>
        <time>2020-10-11T10:31:24.419Z</time>
      </trkpt>
      <trkpt lat="46.88772" lon="6.08061">
        <ele>813.492597</ele>
        <time>2020-10-11T10:31:26.778Z</time>
      </trkpt>
      <trkpt lat="46.8878" lon="6.08048">
        <ele>813.260692</ele>
        <time>2020-10-11T10:31:29.158Z</time>
      </trkpt>
      <trkpt lat="46.88788" lon="6.08028">
        <ele>812.984701</ele>
        <time>2020-10-11T10:31:32.706Z</time>
      </trkpt>
      <trkpt lat="46.8879" lon="6.08024">
        <ele>812.94471</ele>
        <time>2020-10-11T10:31:33.322Z</time>
      </trkpt>
      <trkpt lat="46.8878" lon="6.08015">
        <ele>812.803515</ele>
        <time>2020-10-11T10:31:34.983Z</time>
      </trkpt>
      <trkpt lat="46.88778" lon="6.08014">
        <ele>812.768601</ele>
        <time>2020-10-11T10:31:35.455Z</time>
      </trkpt>
      <trkpt lat="46.88682" lon="6.07942">
        <ele>811.434581</ele>
        <time>2020-10-11T10:31:52.997Z</time>
      </trkpt>
      <trkpt lat="46.88669" lon="6.07931">
        <ele>811.250602</ele>
        <time>2020-10-11T10:31:56.132Z</time>
      </trkpt>
      <trkpt lat="46.88558" lon="6.078">
        <ele>810.81963</ele>
        <time>2020-10-11T10:32:25.564Z</time>
      </trkpt>
      <trkpt lat="46.88547" lon="6.07786">
        <ele>810.817193</ele>
        <time>2020-10-11T10:32:28.558Z</time>
      </trkpt>
      <trkpt lat="46.88529" lon="6.07768">
        <ele>810.813481</ele>
        <time>2020-10-11T10:32:33.126Z</time>
      </trkpt>
      <trkpt lat="46.88521" lon="6.07762">
        <ele>810.811909</ele>
        <time>2020-10-11T10:32:35.115Z</time>
      </trkpt>
      <trkpt lat="46.8848" lon="6.0773">
        <ele>810.915113</ele>
        <time>2020-10-11T10:32:45.082Z</time>
      </trkpt>
      <trkpt lat="46.88436" lon="6.07697">
        <ele>811.169533</ele>
        <time>2020-10-11T10:32:56.354Z</time>
      </trkpt>
      <trkpt lat="46.88263" lon="6.07564">
        <ele>812.361155</ele>
        <time>2020-10-11T10:33:44.149Z</time>
      </trkpt>
      <trkpt lat="46.88213" lon="6.07532">
        <ele>812.766487</ele>
        <time>2020-10-11T10:33:58.073Z</time>
      </trkpt>
      <trkpt lat="46.88161" lon="6.07512">
        <ele>813.214491</ele>
        <time>2020-10-11T10:34:11.539Z</time>
      </trkpt>
      <trkpt lat="46.88062" lon="6.07476">
        <ele>814.327714</ele>
        <time>2020-10-11T10:34:37.408Z</time>
      </trkpt>
      <trkpt lat="46.87953" lon="6.07415">
        <ele>816.117117</ele>
        <time>2020-10-11T10:35:11.830Z</time>
      </trkpt>
      <trkpt lat="46.87759" lon="6.07303">
        <ele>820.809997</ele>
        <time>2020-10-11T10:36:22.133Z</time>
      </trkpt>
      <trkpt lat="46.87729" lon="6.07286">
        <ele>821.613962</ele>
        <time>2020-10-11T10:36:33.273Z</time>
      </trkpt>
      <trkpt lat="46.8732" lon="6.07043">
        <ele>834.087728</ele>
        <time>2020-10-11T10:39:16.032Z</time>
      </trkpt>
      <trkpt lat="46.87288" lon="6.07025">
        <ele>835.016234</ele>
        <time>2020-10-11T10:39:28.447Z</time>
      </trkpt>
      <trkpt lat="46.87271" lon="6.07023">
        <ele>835.511714</ele>
        <time>2020-10-11T10:39:34.991Z</time>
      </trkpt>
      <trkpt lat="46.87208" lon="6.07055">
        <ele>837.334143</ele>
        <time>2020-10-11T10:39:58.958Z</time>
      </trkpt>
      <trkpt lat="46.87173" lon="6.07055">
        <ele>838.303187</ele>
        <time>2020-10-11T10:40:11.473Z</time>
      </trkpt>
      <trkpt lat="46.87155" lon="6.07046">
        <ele>838.716212</ele>
        <time>2020-10-11T10:40:18.834Z</time>
      </trkpt>
      <trkpt lat="46.87094" lon="6.06976">
        <ele>839.848932</ele>
        <time>2020-10-11T10:40:44.043Z</time>
      </trkpt>
      <trkpt lat="46.87066" lon="6.06957">
        <ele>840.307148</ele>
        <time>2020-10-11T10:40:53.016Z</time>
      </trkpt>
      <trkpt lat="46.87046" lon="6.0695">
        <ele>840.607656</ele>
        <time>2020-10-11T10:40:57.885Z</time>
      </trkpt>
      <trkpt lat="46.87031" lon="6.06949">
        <ele>840.828726</ele>
        <time>2020-10-11T10:41:02.202Z</time>
      </trkpt>
      <trkpt lat="46.86915" lon="6.06968">
        <ele>840.084969</ele>
        <time>2020-10-11T10:41:25.991Z</time>
      </trkpt>
      <trkpt lat="46.86759" lon="6.06995">
        <ele>836.589458</ele>
        <time>2020-10-11T10:41:49.133Z</time>
      </trkpt>
      <trkpt lat="46.86729" lon="6.07">
        <ele>835.541539</ele>
        <time>2020-10-11T10:41:53.288Z</time>
      </trkpt>
      <trkpt lat="46.86694" lon="6.07004">
        <ele>834.310571</ele>
        <time>2020-10-11T10:41:58.131Z</time>
      </trkpt>
      <trkpt lat="46.8667" lon="6.06999">
        <ele>833.435483</ele>
        <time>2020-10-11T10:42:01.520Z</time>
      </trkpt>
      <trkpt lat="46.86654" lon="6.06984">
        <ele>832.786683</ele>
        <time>2020-10-11T10:42:04.037Z</time>
      </trkpt>
      <trkpt lat="46.86639" lon="6.0696">
        <ele>831.832833</ele>
        <time>2020-10-11T10:42:07.047Z</time>
      </trkpt>
      <trkpt lat="46.86588" lon="6.06839">
        <ele>827.476318</ele>
        <time>2020-10-11T10:42:20.060Z</time>
      </trkpt>
      <trkpt lat="46.86504" lon="6.06734">
        <ele>822.962732</ele>
        <time>2020-10-11T10:42:34.927Z</time>
      </trkpt>
      <trkpt lat="46.86448" lon="6.06622">
        <ele>819.620303</ele>
        <time>2020-10-11T10:42:48.127Z</time>
      </trkpt>
      <trkpt lat="46.86372" lon="6.06457">
        <ele>816.598527</ele>
        <time>2020-10-11T10:43:08.498Z</time>
      </trkpt>
      <trkpt lat="46.86351" lon="6.06411">
        <ele>815.963644</ele>
        <time>2020-10-11T10:43:14.984Z</time>
      </trkpt>
      <trkpt lat="46.86273" lon="6.06248">
        <ele>815.067037</ele>
        <time>2020-10-11T10:43:39.984Z</time>
      </trkpt>
      <trkpt lat="46.86269" lon="6.06241">
        <ele>815.057717</ele>
        <time>2020-10-11T10:43:41.101Z</time>
      </trkpt>
      <trkpt lat="46.86262" lon="6.06233">
        <ele>815.045507</ele>
        <time>2020-10-11T10:43:42.821Z</time>
      </trkpt>
      <trkpt lat="46.86244" lon="6.0622">
        <ele>815.01742</ele>
        <time>2020-10-11T10:43:46.726Z</time>
      </trkpt>
      <trkpt lat="46.86223" lon="6.06217">
        <ele>814.987124</ele>
        <time>2020-10-11T10:43:50.784Z</time>
      </trkpt>
      <trkpt lat="46.86219" lon="6.06218">
        <ele>814.980599</ele>
        <time>2020-10-11T10:43:51.775Z</time>
      </trkpt>
      <trkpt lat="46.86213" lon="6.06222">
        <ele>814.971515</ele>
        <time>2020-10-11T10:43:53.067Z</time>
      </trkpt>
      <trkpt lat="46.86189" lon="6.0624">
        <ele>815.003808</ele>
        <time>2020-10-11T10:44:00.039Z</time>
      </trkpt>
      <trkpt lat="46.86171" lon="6.06253">
        <ele>815.302814</ele>
        <time>2020-10-11T10:44:04.953Z</time>
      </trkpt>
      <trkpt lat="46.86167" lon="6.06256">
        <ele>815.368406</ele>
        <time>2020-10-11T10:44:06.738Z</time>
      </trkpt>
      <trkpt lat="46.86155" lon="6.06266">
        <ele>815.583052</ele>
        <time>2020-10-11T10:44:10.950Z</time>
      </trkpt>
      <trkpt lat="46.86131" lon="6.06284">
        <ele>815.982947</ele>
        <time>2020-10-11T10:44:19.121Z</time>
      </trkpt>
      <trkpt lat="46.86085" lon="6.06317">
        <ele>816.767503</ele>
        <time>2020-10-11T10:44:33.782Z</time>
      </trkpt>
      <trkpt lat="46.86076" lon="6.06323">
        <ele>816.905822</ele>
        <time>2020-10-11T10:44:36.410Z</time>
      </trkpt>
      <trkpt lat="46.86065" lon="6.06327">
        <ele>817.085965</ele>
        <time>2020-10-11T10:44:41.262Z</time>
      </trkpt>
      <trkpt lat="46.86042" lon="6.06329">
        <ele>817.425705</ele>
        <time>2020-10-11T10:44:47.018Z</time>
      </trkpt>
      <trkpt lat="46.86029" lon="6.06327">
        <ele>817.620627</ele>
        <time>2020-10-11T10:44:52.355Z</time>
      </trkpt>
      <trkpt lat="46.86015" lon="6.06325">
        <ele>817.907093</ele>
        <time>2020-10-11T10:44:56.092Z</time>
      </trkpt>
      <trkpt lat="46.85975" lon="6.06307">
        <ele>818.729354</ele>
        <time>2020-10-11T10:45:09.636Z</time>
      </trkpt>
      <trkpt lat="46.85966" lon="6.063">
        <ele>818.954413</ele>
        <time>2020-10-11T10:45:13.862Z</time>
      </trkpt>
      <trkpt lat="46.85956" lon="6.06291">
        <ele>819.178585</ele>
        <time>2020-10-11T10:45:18.129Z</time>
      </trkpt>
      <trkpt lat="46.85743" lon="6.06057">
        <ele>824.486353</ele>
        <time>2020-10-11T10:46:40.754Z</time>
      </trkpt>
      <trkpt lat="46.85713" lon="6.06043">
        <ele>825.199879</ele>
        <time>2020-10-11T10:46:51.979Z</time>
      </trkpt>
      <trkpt lat="46.85606" lon="6.06027">
        <ele>828.056279</ele>
        <time>2020-10-11T10:47:30.771Z</time>
      </trkpt>
      <trkpt lat="46.85575" lon="6.06023">
        <ele>828.886203</ele>
        <time>2020-10-11T10:47:42.150Z</time>
      </trkpt>
      <trkpt lat="46.85515" lon="6.06016">
        <ele>830.246746</ele>
        <time>2020-10-11T10:48:04.129Z</time>
      </trkpt>
      <trkpt lat="46.85456" lon="6.06016">
        <ele>831.385944</ele>
        <time>2020-10-11T10:48:23.448Z</time>
      </trkpt>
      <trkpt lat="46.85442" lon="6.06024">
        <ele>831.675665</ele>
        <time>2020-10-11T10:48:28.873Z</time>
      </trkpt>
      <trkpt lat="46.85422" lon="6.06047">
        <ele>832.167196</ele>
        <time>2020-10-11T10:48:35.849Z</time>
      </trkpt>
      <trkpt lat="46.85418" lon="6.06056">
        <ele>832.309827</ele>
        <time>2020-10-11T10:48:38.554Z</time>
      </trkpt>
      <trkpt lat="46.85415" lon="6.06062">
        <ele>832.416536</ele>
        <time>2020-10-11T10:48:39.849Z</time>
      </trkpt>
      <trkpt lat="46.8531" lon="6.06298">
        <ele>834.609487</ele>
        <time>2020-10-11T10:49:29.928Z</time>
      </trkpt>
      <trkpt lat="46.85298" lon="6.06325">
        <ele>834.82656</ele>
        <time>2020-10-11T10:49:35.833Z</time>
      </trkpt>
      <trkpt lat="46.85289" lon="6.06344">
        <ele>834.956503</ele>
        <time>2020-10-11T10:49:39.808Z</time>
      </trkpt>
      <trkpt lat="46.85254" lon="6.06423">
        <ele>835.488046</ele>
        <time>2020-10-11T10:49:57.070Z</time>
      </trkpt>
      <trkpt lat="46.85181" lon="6.06583">
        <ele>835.963851</ele>
        <time>2020-10-11T10:50:30.357Z</time>
      </trkpt>
      <trkpt lat="46.8515" lon="6.06626">
        <ele>835.49614</ele>
        <time>2020-10-11T10:50:38.546Z</time>
      </trkpt>
      <trkpt lat="46.8512" lon="6.06653">
        <ele>835.120178</ele>
        <time>2020-10-11T10:50:44.496Z</time>
      </trkpt>
      <trkpt lat="46.85111" lon="6.0666">
        <ele>835.004003</ele>
        <time>2020-10-11T10:50:46.580Z</time>
      </trkpt>
      <trkpt lat="46.85091" lon="6.06676">
        <ele>834.759265</ele>
        <time>2020-10-11T10:50:50.050Z</time>
      </trkpt>
      <trkpt lat="46.85029" lon="6.06727">
        <ele>832.740092</ele>
        <time>2020-10-11T10:51:00.387Z</time>
      </trkpt>
      <trkpt lat="46.84954" lon="6.06817">
        <ele>828.226609</ele>
        <time>2020-10-11T10:51:13.019Z</time>
      </trkpt>
      <trkpt lat="46.84929" lon="6.06829">
        <ele>826.974975</ele>
        <time>2020-10-11T10:51:16.522Z</time>
      </trkpt>
      <trkpt lat="46.8492" lon="6.0683">
        <ele>826.561586</ele>
        <time>2020-10-11T10:51:17.623Z</time>
      </trkpt>
      <trkpt lat="46.84909" lon="6.06829">
        <ele>826.059316</ele>
        <time>2020-10-11T10:51:18.973Z</time>
      </trkpt>
      <trkpt lat="46.84902" lon="6.06827">
        <ele>825.758902</ele>
        <time>2020-10-11T10:51:20.009Z</time>
      </trkpt>
      <trkpt lat="46.84844" lon="6.06814">
        <ele>823.618261</ele>
        <time>2020-10-11T10:51:27.734Z</time>
      </trkpt>
      <trkpt lat="46.84805" lon="6.06804">
        <ele>822.173709</ele>
        <time>2020-10-11T10:51:33.106Z</time>
      </trkpt>
      <trkpt lat="46.84749" lon="6.0679">
        <ele>820.120908</ele>
        <time>2020-10-11T10:51:41.249Z</time>
      </trkpt>
      <trkpt lat="46.84721" lon="6.06782">
        <ele>819.438576</ele>
        <time>2020-10-11T10:51:45.937Z</time>
      </trkpt>
      <trkpt lat="46.8467" lon="6.06772">
        <ele>819.760438</ele>
        <time>2020-10-11T10:51:56.711Z</time>
      </trkpt>
      <trkpt lat="46.84446" lon="6.06685">
        <ele>821.937265</ele>
        <time>2020-10-11T10:53:03.356Z</time>
      </trkpt>
      <trkpt lat="46.84402" lon="6.06673">
        <ele>822.506093</ele>
        <time>2020-10-11T10:53:15.595Z</time>
      </trkpt>
      <trkpt lat="46.84289" lon="6.0666">
        <ele>823.566885</ele>
        <time>2020-10-11T10:53:44.968Z</time>
      </trkpt>
      <trkpt lat="46.84033" lon="6.06632">
        <ele>825.492832</ele>
        <time>2020-10-11T10:54:48.491Z</time>
      </trkpt>
      <trkpt lat="46.83856" lon="6.06613">
        <ele>826.384337</ele>
        <time>2020-10-11T10:55:32.174Z</time>
      </trkpt>
      <trkpt lat="46.83811" lon="6.06609">
        <ele>826.176823</ele>
        <time>2020-10-11T10:55:40.889Z</time>
      </trkpt>
      <trkpt lat="46.83732" lon="6.06602">
        <ele>825.404587</ele>
        <time>2020-10-11T10:55:54.760Z</time>
      </trkpt>
      <trkpt lat="46.83412" lon="6.06614">
        <ele>820.908293</ele>
        <time>2020-10-11T10:56:45.481Z</time>
      </trkpt>
      <trkpt lat="46.83403" lon="6.06615">
        <ele>820.799696</ele>
        <time>2020-10-11T10:56:46.884Z</time>
      </trkpt>
      <trkpt lat="46.83356" lon="6.06618">
        <ele>820.234929</ele>
        <time>2020-10-11T10:56:54.780Z</time>
      </trkpt>
      <trkpt lat="46.83316" lon="6.06623">
        <ele>819.743515</ele>
        <time>2020-10-11T10:57:01.786Z</time>
      </trkpt>
      <trkpt lat="46.83179" lon="6.06653">
        <ele>819.750544</ele>
        <time>2020-10-11T10:57:28.729Z</time>
      </trkpt>
      <trkpt lat="46.83142" lon="6.06661">
        <ele>819.804309</ele>
        <time>2020-10-11T10:57:37.700Z</time>
      </trkpt>
      <trkpt lat="46.82983" lon="6.06695">
        <ele>822.156271</ele>
        <time>2020-10-11T10:58:25.534Z</time>
      </trkpt>
      <trkpt lat="46.82947" lon="6.06702">
        <ele>822.744748</ele>
        <time>2020-10-11T10:58:37.352Z</time>
      </trkpt>
      <trkpt lat="46.82923" lon="6.06713">
        <ele>823.165099</ele>
        <time>2020-10-11T10:58:45.506Z</time>
      </trkpt>
      <trkpt lat="46.82915" lon="6.06716">
        <ele>823.310082</ele>
        <time>2020-10-11T10:58:48.417Z</time>
      </trkpt>
      <trkpt lat="46.82848" lon="6.06771">
        <ele>824.599557</ele>
        <time>2020-10-11T10:59:12.651Z</time>
      </trkpt>
      <trkpt lat="46.8283" lon="6.06787">
        <ele>824.950512</ele>
        <time>2020-10-11T10:59:19.017Z</time>
      </trkpt>
      <trkpt lat="46.8281" lon="6.06803">
        <ele>825.337985</ele>
        <time>2020-10-11T10:59:25.767Z</time>
      </trkpt>
      <trkpt lat="46.82783" lon="6.06826">
        <ele>825.818138</ele>
        <time>2020-10-11T10:59:34.417Z</time>
      </trkpt>
      <trkpt lat="46.82775" lon="6.06832">
        <ele>825.874331</ele>
        <time>2020-10-11T10:59:36.826Z</time>
      </trkpt>
      <trkpt lat="46.82711" lon="6.06881">
        <ele>826.308627</ele>
        <time>2020-10-11T10:59:54.129Z</time>
      </trkpt>
      <trkpt lat="46.827" lon="6.06886">
        <ele>826.37894</ele>
        <time>2020-10-11T10:59:56.806Z</time>
      </trkpt>
      <trkpt lat="46.82666" lon="6.06904">
        <ele>826.595781</ele>
        <time>2020-10-11T11:00:04.724Z</time>
      </trkpt>
      <trkpt lat="46.8262" lon="6.06924">
        <ele>826.888454</ele>
        <time>2020-10-11T11:00:15.566Z</time>
      </trkpt>
      <trkpt lat="46.8257" lon="6.06946">
        <ele>827.396939</ele>
        <time>2020-10-11T11:00:28.197Z</time>
      </trkpt>
      <trkpt lat="46.82534" lon="6.06961">
        <ele>827.754256</ele>
        <time>2020-10-11T11:00:37.615Z</time>
      </trkpt>
      <trkpt lat="46.82435" lon="6.07002">
        <ele>828.844107</ele>
        <time>2020-10-11T11:01:06.100Z</time>
      </trkpt>
      <trkpt lat="46.82101" lon="6.07143">
        <ele>834.838954</ele>
        <time>2020-10-11T11:02:53.008Z</time>
      </trkpt>
      <trkpt lat="46.82077" lon="6.07146">
        <ele>835.214056</ele>
        <time>2020-10-11T11:02:59.970Z</time>
      </trkpt>
      <trkpt lat="46.82055" lon="6.07147">
        <ele>835.551317</ele>
        <time>2020-10-11T11:03:06.480Z</time>
      </trkpt>
      <trkpt lat="46.82052" lon="6.07148">
        <ele>835.596833</ele>
        <time>2020-10-11T11:03:07.318Z</time>
      </trkpt>
      <trkpt lat="46.8203" lon="6.07054">
        <ele>836.658762</ele>
        <time>2020-10-11T11:03:28.705Z</time>
      </trkpt>
      <trkpt lat="46.81996" lon="6.06907">
        <ele>837.509348</ele>
        <time>2020-10-11T11:03:58.038Z</time>
      </trkpt>
      <trkpt lat="46.81987" lon="6.06871">
        <ele>837.449008</ele>
        <time>2020-10-11T11:04:05.178Z</time>
      </trkpt>
      <trkpt lat="46.81836" lon="6.06215">
        <ele>836.161846</ele>
        <time>2020-10-11T11:05:31.582Z</time>
      </trkpt>
      <trkpt lat="46.81818" lon="6.0614">
        <ele>836.947976</ele>
        <time>2020-10-11T11:05:46.401Z</time>
      </trkpt>
      <trkpt lat="46.81812" lon="6.06115">
        <ele>837.218473</ele>
        <time>2020-10-11T11:05:51.831Z</time>
      </trkpt>
      <trkpt lat="46.81749" lon="6.05846">
        <ele>840.023125</ele>
        <time>2020-10-11T11:06:54.711Z</time>
      </trkpt>
      <trkpt lat="46.81747" lon="6.05838">
        <ele>840.102158</ele>
        <time>2020-10-11T11:06:56.297Z</time>
      </trkpt>
      <trkpt lat="46.81732" lon="6.05772">
        <ele>840.793461</ele>
        <time>2020-10-11T11:07:09.877Z</time>
      </trkpt>
      <trkpt lat="46.81723" lon="6.05735">
        <ele>841.182116</ele>
        <time>2020-10-11T11:07:16.359Z</time>
      </trkpt>
      <trkpt lat="46.81721" lon="6.05727">
        <ele>841.264406</ele>
        <time>2020-10-11T11:07:17.903Z</time>
      </trkpt>
      <trkpt lat="46.81692" lon="6.05605">
        <ele>840.807917</ele>
        <time>2020-10-11T11:07:35.792Z</time>
      </trkpt>
      <trkpt lat="46.81676" lon="6.05541">
        <ele>840.55888</ele>
        <time>2020-10-11T11:07:43.915Z</time>
      </trkpt>
      <trkpt lat="46.8148" lon="6.04731">
        <ele>833.307876</ele>
        <time>2020-10-11T11:09:19.693Z</time>
      </trkpt>
      <trkpt lat="46.81428" lon="6.04514">
        <ele>835.126795</ele>
        <time>2020-10-11T11:10:06.390Z</time>
      </trkpt>
      <trkpt lat="46.81423" lon="6.04492">
        <ele>835.312473</ele>
        <time>2020-10-11T11:10:11.504Z</time>
      </trkpt>
      <trkpt lat="46.81396" lon="6.04391">
        <ele>835.317898</ele>
        <time>2020-10-11T11:10:32.250Z</time>
      </trkpt>
      <trkpt lat="46.81319" lon="6.0412">
        <ele>833.285708</ele>
        <time>2020-10-11T11:11:06.706Z</time>
      </trkpt>
      <trkpt lat="46.81307" lon="6.04076">
        <ele>832.575638</ele>
        <time>2020-10-11T11:11:11.482Z</time>
      </trkpt>
      <trkpt lat="46.81279" lon="6.03976">
        <ele>830.661328</ele>
        <time>2020-10-11T11:11:21.846Z</time>
      </trkpt>
      <trkpt lat="46.81235" lon="6.03671">
        <ele>822.434003</ele>
        <time>2020-10-11T11:11:50.974Z</time>
      </trkpt>
      <trkpt lat="46.81173" lon="6.03499">
        <ele>818.016994</ele>
        <time>2020-10-11T11:12:09.830Z</time>
      </trkpt>
      <trkpt lat="46.81134" lon="6.03387">
        <ele>816.937843</ele>
        <time>2020-10-11T11:12:23.020Z</time>
      </trkpt>
      <trkpt lat="46.81062" lon="6.03177">
        <ele>816.668067</ele>
        <time>2020-10-11T11:12:55.384Z</time>
      </trkpt>
      <trkpt lat="46.81046" lon="6.03133">
        <ele>817.09336</ele>
        <time>2020-10-11T11:13:06.022Z</time>
      </trkpt>
      <trkpt lat="46.81027" lon="6.03088">
        <ele>817.525746</ele>
        <time>2020-10-11T11:13:17.571Z</time>
      </trkpt>
      <trkpt lat="46.80993" lon="6.03026">
        <ele>818.292944</ele>
        <time>2020-10-11T11:13:36.526Z</time>
      </trkpt>
      <trkpt lat="46.80903" lon="6.02899">
        <ele>820.552121</ele>
        <time>2020-10-11T11:14:17.482Z</time>
      </trkpt>
      <trkpt lat="46.80797" lon="6.02751">
        <ele>821.752674</ele>
        <time>2020-10-11T11:14:53.496Z</time>
      </trkpt>
      <trkpt lat="46.80284" lon="6.02035">
        <ele>822.083223</ele>
        <time>2020-10-11T11:17:20.656Z</time>
      </trkpt>
      <trkpt lat="46.80197" lon="6.01907">
        <ele>821.917539</ele>
        <time>2020-10-11T11:17:47.410Z</time>
      </trkpt>
      <trkpt lat="46.80106" lon="6.01753">
        <ele>821.15015</ele>
        <time>2020-10-11T11:18:12.682Z</time>
      </trkpt>
      <trkpt lat="46.80099" lon="6.01742">
        <ele>820.983919</ele>
        <time>2020-10-11T11:18:14.480Z</time>
      </trkpt>
      <trkpt lat="46.80095" lon="6.01736">
        <ele>820.887539</ele>
        <time>2020-10-11T11:18:15.330Z</time>
      </trkpt>
      <trkpt lat="46.7981" lon="6.01235">
        <ele>814.700515</ele>
        <time>2020-10-11T11:19:25.760Z</time>
      </trkpt>
      <trkpt lat="46.79765" lon="6.01175">
        <ele>814.369995</ele>
        <time>2020-10-11T11:19:40.642Z</time>
      </trkpt>
      <trkpt lat="46.79685" lon="6.01097">
        <ele>815.228098</ele>
        <time>2020-10-11T11:20:09.629Z</time>
      </trkpt>
      <trkpt lat="46.79644" lon="6.01058">
        <ele>815.806931</ele>
        <time>2020-10-11T11:20:24.771Z</time>
      </trkpt>
      <trkpt lat="46.796" lon="6.01011">
        <ele>816.378932</ele>
        <time>2020-10-11T11:20:38.671Z</time>
      </trkpt>
      <trkpt lat="46.79572" lon="6.00972">
        <ele>816.062327</ele>
        <time>2020-10-11T11:20:45.626Z</time>
      </trkpt>
      <trkpt lat="46.79534" lon="6.00908">
        <ele>815.586509</ele>
        <time>2020-10-11T11:20:55.590Z</time>
      </trkpt>
      <trkpt lat="46.79504" lon="6.00864">
        <ele>815.237533</ele>
        <time>2020-10-11T11:21:02.819Z</time>
      </trkpt>
      <trkpt lat="46.79471" lon="6.00811">
        <ele>814.797835</ele>
        <time>2020-10-11T11:21:10.727Z</time>
      </trkpt>
      <trkpt lat="46.79452" lon="6.00781">
        <ele>814.472298</ele>
        <time>2020-10-11T11:21:15.287Z</time>
      </trkpt>
      <trkpt lat="46.7943" lon="6.00754">
        <ele>814.146393</ele>
        <time>2020-10-11T11:21:19.840Z</time>
      </trkpt>
      <trkpt lat="46.79397" lon="6.00701">
        <ele>813.583329</ele>
        <time>2020-10-11T11:21:31.188Z</time>
      </trkpt>
      <trkpt lat="46.79284" lon="6.00533">
        <ele>812.204427</ele>
        <time>2020-10-11T11:22:12.605Z</time>
      </trkpt>
      <trkpt lat="46.79184" lon="6.00404">
        <ele>811.484405</ele>
        <time>2020-10-11T11:22:46.044Z</time>
      </trkpt>
      <trkpt lat="46.79092" lon="6.00268">
        <ele>811.06088</ele>
        <time>2020-10-11T11:23:22.205Z</time>
      </trkpt>
      <trkpt lat="46.7903" lon="6.00177">
        <ele>811.058192</ele>
        <time>2020-10-11T11:23:47.098Z</time>
      </trkpt>
      <trkpt lat="46.78753" lon="5.99763">
        <ele>810.819876</ele>
        <time>2020-10-11T11:25:38.652Z</time>
      </trkpt>
      <trkpt lat="46.78587" lon="5.99515">
        <ele>809.973758</ele>
        <time>2020-10-11T11:26:42.920Z</time>
      </trkpt>
      <trkpt lat="46.7846" lon="5.99369">
        <ele>807.969193</ele>
        <time>2020-10-11T11:27:19.850Z</time>
      </trkpt>
      <trkpt lat="46.78357" lon="5.99245">
        <ele>807.591745</ele>
        <time>2020-10-11T11:27:54.544Z</time>
      </trkpt>
      <trkpt lat="46.78296" lon="5.9917">
        <ele>807.516318</ele>
        <time>2020-10-11T11:28:20.285Z</time>
      </trkpt>
      <trkpt lat="46.78258" lon="5.99128">
        <ele>807.594121</ele>
        <time>2020-10-11T11:28:35.891Z</time>
      </trkpt>
      <trkpt lat="46.7824" lon="5.99102">
        <ele>807.635783</ele>
        <time>2020-10-11T11:28:43.708Z</time>
      </trkpt>
      <trkpt lat="46.78185" lon="5.99001">
        <ele>807.741306</ele>
        <time>2020-10-11T11:29:08.824Z</time>
      </trkpt>
      <trkpt lat="46.78088" lon="5.98874">
        <ele>806.062412</ele>
        <time>2020-10-11T11:29:38.802Z</time>
      </trkpt>
      <trkpt lat="46.7804" lon="5.98799">
        <ele>805.387869</ele>
        <time>2020-10-11T11:29:54.693Z</time>
      </trkpt>
      <trkpt lat="46.77969" lon="5.98598">
        <ele>804.896096</ele>
        <time>2020-10-11T11:30:36.081Z</time>
      </trkpt>
      <trkpt lat="46.77906" lon="5.98485">
        <ele>806.585419</ele>
        <time>2020-10-11T11:31:14.230Z</time>
      </trkpt>
      <trkpt lat="46.77887" lon="5.98458">
        <ele>807.047855</ele>
        <time>2020-10-11T11:31:25.347Z</time>
      </trkpt>
      <trkpt lat="46.77869" lon="5.98433">
        <ele>807.467798</ele>
        <time>2020-10-11T11:31:35.388Z</time>
      </trkpt>
      <trkpt lat="46.77776" lon="5.98279">
        <ele>809.671427</ele>
        <time>2020-10-11T11:32:32.067Z</time>
      </trkpt>
      <trkpt lat="46.77761" lon="5.98272">
        <ele>809.901777</ele>
        <time>2020-10-11T11:32:37.001Z</time>
      </trkpt>
      <trkpt lat="46.77749" lon="5.98271">
        <ele>810.083623</ele>
        <time>2020-10-11T11:32:41.448Z</time>
      </trkpt>
      <trkpt lat="46.77749" lon="5.9825">
        <ele>810.29713</ele>
        <time>2020-10-11T11:32:44.535Z</time>
      </trkpt>
      <trkpt lat="46.77747" lon="5.98233">
        <ele>810.478673</ele>
        <time>2020-10-11T11:32:47.628Z</time>
      </trkpt>
      <trkpt lat="46.77731" lon="5.98196">
        <ele>810.670184</ele>
        <time>2020-10-11T11:32:55.227Z</time>
      </trkpt>
      <trkpt lat="46.77655" lon="5.9806">
        <ele>810.230064</ele>
        <time>2020-10-11T11:33:19.049Z</time>
      </trkpt>
      <trkpt lat="46.77627" lon="5.98011">
        <ele>810.070635</ele>
        <time>2020-10-11T11:33:26.026Z</time>
      </trkpt>
      <trkpt lat="46.77595" lon="5.97952">
        <ele>809.42028</ele>
        <time>2020-10-11T11:33:34.748Z</time>
      </trkpt>
      <trkpt lat="46.77593" lon="5.97949">
        <ele>809.378967</ele>
        <time>2020-10-11T11:33:35.174Z</time>
      </trkpt>
      <trkpt lat="46.77568" lon="5.97904">
        <ele>808.875051</ele>
        <time>2020-10-11T11:33:41.810Z</time>
      </trkpt>
      <trkpt lat="46.77545" lon="5.97869">
        <ele>808.433883</ele>
        <time>2020-10-11T11:33:47.807Z</time>
      </trkpt>
      <trkpt lat="46.77534" lon="5.97854">
        <ele>808.237815</ele>
        <time>2020-10-11T11:33:50.442Z</time>
      </trkpt>
      <trkpt lat="46.77528" lon="5.97845">
        <ele>808.130668</ele>
        <time>2020-10-11T11:33:51.889Z</time>
      </trkpt>
      <trkpt lat="46.77517" lon="5.97833">
        <ele>807.948873</ele>
        <time>2020-10-11T11:33:53.942Z</time>
      </trkpt>
      <trkpt lat="46.77503" lon="5.97818">
        <ele>807.73266</ele>
        <time>2020-10-11T11:33:56.610Z</time>
      </trkpt>
      <trkpt lat="46.77489" lon="5.97808">
        <ele>807.319631</ele>
        <time>2020-10-11T11:33:59.024Z</time>
      </trkpt>
      <trkpt lat="46.77442" lon="5.9777">
        <ele>805.875249</ele>
        <time>2020-10-11T11:34:07.548Z</time>
      </trkpt>
      <trkpt lat="46.7742" lon="5.97748">
        <ele>805.172557</ele>
        <time>2020-10-11T11:34:11.650Z</time>
      </trkpt>
      <trkpt lat="46.77414" lon="5.97741">
        <ele>804.971655</ele>
        <time>2020-10-11T11:34:12.827Z</time>
      </trkpt>
      <trkpt lat="46.77404" lon="5.97724">
        <ele>804.577281</ele>
        <time>2020-10-11T11:34:15.054Z</time>
      </trkpt>
      <trkpt lat="46.77367" lon="5.97645">
        <ele>802.644047</ele>
        <time>2020-10-11T11:34:24.328Z</time>
      </trkpt>
      <trkpt lat="46.77358" lon="5.97581">
        <ele>799.682691</ele>
        <time>2020-10-11T11:34:30.164Z</time>
      </trkpt>
      <trkpt lat="46.7736" lon="5.97543">
        <ele>797.98591</ele>
        <time>2020-10-11T11:34:33.447Z</time>
      </trkpt>
      <trkpt lat="46.77388" lon="5.97386">
        <ele>790.662265</ele>
        <time>2020-10-11T11:34:47.296Z</time>
      </trkpt>
      <trkpt lat="46.77387" lon="5.97344">
        <ele>788.831028</ele>
        <time>2020-10-11T11:34:50.945Z</time>
      </trkpt>
      <trkpt lat="46.77375" lon="5.97291">
        <ele>786.409519</ele>
        <time>2020-10-11T11:34:55.780Z</time>
      </trkpt>
      <trkpt lat="46.77371" lon="5.97277">
        <ele>785.771883</ele>
        <time>2020-10-11T11:34:56.994Z</time>
      </trkpt>
      <trkpt lat="46.77345" lon="5.97193">
        <ele>781.778761</ele>
        <time>2020-10-11T11:35:05.144Z</time>
      </trkpt>
      <trkpt lat="46.77344" lon="5.97188">
        <ele>781.544075</ele>
        <time>2020-10-11T11:35:05.600Z</time>
      </trkpt>
      <trkpt lat="46.77327" lon="5.97125">
        <ele>779.214446</ele>
        <time>2020-10-11T11:35:11.804Z</time>
      </trkpt>
      <trkpt lat="46.77316" lon="5.97084">
        <ele>778.421342</ele>
        <time>2020-10-11T11:35:15.830Z</time>
      </trkpt>
      <trkpt lat="46.7731" lon="5.97047">
        <ele>777.719579</ele>
        <time>2020-10-11T11:35:19.789Z</time>
      </trkpt>
      <trkpt lat="46.77308" lon="5.97029">
        <ele>777.378659</ele>
        <time>2020-10-11T11:35:21.772Z</time>
      </trkpt>
      <trkpt lat="46.7729" lon="5.96843">
        <ele>774.774978</ele>
        <time>2020-10-11T11:35:41.937Z</time>
      </trkpt>
      <trkpt lat="46.77281" lon="5.96759">
        <ele>774.635248</ele>
        <time>2020-10-11T11:35:53.509Z</time>
      </trkpt>
      <trkpt lat="46.77275" lon="5.96696">
        <ele>774.530395</ele>
        <time>2020-10-11T11:36:03.772Z</time>
      </trkpt>
      <trkpt lat="46.77269" lon="5.96657">
        <ele>774.464474</ele>
        <time>2020-10-11T11:36:10.159Z</time>
      </trkpt>
      <trkpt lat="46.77266" lon="5.96646">
        <ele>774.445187</ele>
        <time>2020-10-11T11:36:12.398Z</time>
      </trkpt>
      <trkpt lat="46.77265" lon="5.9664">
        <ele>774.434073</ele>
        <time>2020-10-11T11:36:14.018Z</time>
      </trkpt>
      <trkpt lat="46.77244" lon="5.96593">
        <ele>774.237198</ele>
        <time>2020-10-11T11:36:22.937Z</time>
      </trkpt>
      <trkpt lat="46.77174" lon="5.96507">
        <ele>773.744348</ele>
        <time>2020-10-11T11:36:40.777Z</time>
      </trkpt>
      <trkpt lat="46.77148" lon="5.96484">
        <ele>773.577542</ele>
        <time>2020-10-11T11:36:46.114Z</time>
      </trkpt>
      <trkpt lat="46.77123" lon="5.96461">
        <ele>773.268378</ele>
        <time>2020-10-11T11:36:50.643Z</time>
      </trkpt>
      <trkpt lat="46.77075" lon="5.96422">
        <ele>771.605639</ele>
        <time>2020-10-11T11:36:58.853Z</time>
      </trkpt>
      <trkpt lat="46.76872" lon="5.96285">
        <ele>765.235813</ele>
        <time>2020-10-11T11:37:30.077Z</time>
      </trkpt>
      <trkpt lat="46.76847" lon="5.96265">
        <ele>764.473593</ele>
        <time>2020-10-11T11:37:34.309Z</time>
      </trkpt>
      <trkpt lat="46.76838" lon="5.96258">
        <ele>764.193496</ele>
        <time>2020-10-11T11:37:36.095Z</time>
      </trkpt>
      <trkpt lat="46.76803" lon="5.96215">
        <ele>763.106324</ele>
        <time>2020-10-11T11:37:43.477Z</time>
      </trkpt>
      <trkpt lat="46.76789" lon="5.96189">
        <ele>762.846804</ele>
        <time>2020-10-11T11:37:47.275Z</time>
      </trkpt>
      <trkpt lat="46.76751" lon="5.9611">
        <ele>762.072465</ele>
        <time>2020-10-11T11:37:58.762Z</time>
      </trkpt>
      <trkpt lat="46.7672" lon="5.96012">
        <ele>761.206102</ele>
        <time>2020-10-11T11:38:12.497Z</time>
      </trkpt>
      <trkpt lat="46.76639" lon="5.95756">
        <ele>756.245435</ele>
        <time>2020-10-11T11:38:40.903Z</time>
      </trkpt>
      <trkpt lat="46.7662" lon="5.95699">
        <ele>754.100719</ele>
        <time>2020-10-11T11:38:46.858Z</time>
      </trkpt>
      <trkpt lat="46.76607" lon="5.95628">
        <ele>751.621432</ele>
        <time>2020-10-11T11:38:53.662Z</time>
      </trkpt>
      <trkpt lat="46.76607" lon="5.95619">
        <ele>751.32142</ele>
        <time>2020-10-11T11:38:54.417Z</time>
      </trkpt>
      <trkpt lat="46.76604" lon="5.95618">
        <ele>751.162694</ele>
        <time>2020-10-11T11:38:55.004Z</time>
      </trkpt>
      <trkpt lat="46.76582" lon="5.95586">
        <ele>749.654114</ele>
        <time>2020-10-11T11:39:00.810Z</time>
      </trkpt>
      <trkpt lat="46.76568" lon="5.95556">
        <ele>748.424836</ele>
        <time>2020-10-11T11:39:05.442Z</time>
      </trkpt>
      <trkpt lat="46.76466" lon="5.95501">
        <ele>740.461922</ele>
        <time>2020-10-11T11:39:24.950Z</time>
      </trkpt>
      <trkpt lat="46.76305" lon="5.95412">
        <ele>725.105201</ele>
        <time>2020-10-11T11:39:54.829Z</time>
      </trkpt>
      <trkpt lat="46.76099" lon="5.95341">
        <ele>702.382526</ele>
        <time>2020-10-11T11:40:30.503Z</time>
      </trkpt>
      <trkpt lat="46.76038" lon="5.95326">
        <ele>695.432831</ele>
        <time>2020-10-11T11:40:40.895Z</time>
      </trkpt>
      <trkpt lat="46.75982" lon="5.95323">
        <ele>689.301431</ele>
        <time>2020-10-11T11:40:50.240Z</time>
      </trkpt>
      <trkpt lat="46.75967" lon="5.95314">
        <ele>687.467707</ele>
        <time>2020-10-11T11:40:53.047Z</time>
      </trkpt>
      <trkpt lat="46.76056" lon="5.95097">
        <ele>667.954684</ele>
        <time>2020-10-11T11:41:22.405Z</time>
      </trkpt>
      <trkpt lat="46.76192" lon="5.9488">
        <ele>644.636497</ele>
        <time>2020-10-11T11:41:56.050Z</time>
      </trkpt>
      <trkpt lat="46.76193" lon="5.94867">
        <ele>643.556105</ele>
        <time>2020-10-11T11:41:57.614Z</time>
      </trkpt>
      <trkpt lat="46.76192" lon="5.94854">
        <ele>642.603632</ele>
        <time>2020-10-11T11:41:58.967Z</time>
      </trkpt>
      <trkpt lat="46.76157" lon="5.94755">
        <ele>633.874402</ele>
        <time>2020-10-11T11:42:12.043Z</time>
      </trkpt>
      <trkpt lat="46.7607" lon="5.94524">
        <ele>622.973385</ele>
        <time>2020-10-11T11:42:45.416Z</time>
      </trkpt>
      <trkpt lat="46.76068" lon="5.94519">
        <ele>622.855213</ele>
        <time>2020-10-11T11:42:46.289Z</time>
      </trkpt>
      <trkpt lat="46.76037" lon="5.94437">
        <ele>620.975823</ele>
        <time>2020-10-11T11:42:59.938Z</time>
      </trkpt>
      <trkpt lat="46.76017" lon="5.94373">
        <ele>619.574423</ele>
        <time>2020-10-11T11:43:10.381Z</time>
      </trkpt>
      <trkpt lat="46.76009" lon="5.94353">
        <ele>619.096112</ele>
        <time>2020-10-11T11:43:14.026Z</time>
      </trkpt>
      <trkpt lat="46.76001" lon="5.9434">
        <ele>618.755095</ele>
        <time>2020-10-11T11:43:16.515Z</time>
      </trkpt>
      <trkpt lat="46.75883" lon="5.94026">
        <ele>611.082253</ele>
        <time>2020-10-11T11:44:07.113Z</time>
      </trkpt>
      <trkpt lat="46.7588" lon="5.94025">
        <ele>610.966132</ele>
        <time>2020-10-11T11:44:07.694Z</time>
      </trkpt>
      <trkpt lat="46.7588" lon="5.94013">
        <ele>610.676757</ele>
        <time>2020-10-11T11:44:08.873Z</time>
      </trkpt>
      <trkpt lat="46.75881" lon="5.93997">
        <ele>610.282228</ele>
        <time>2020-10-11T11:44:10.500Z</time>
      </trkpt>
      <trkpt lat="46.75884" lon="5.93989">
        <ele>610.054081</ele>
        <time>2020-10-11T11:44:11.439Z</time>
      </trkpt>
      <trkpt lat="46.75881" lon="5.93986">
        <ele>609.919073</ele>
        <time>2020-10-11T11:44:12.068Z</time>
      </trkpt>
      <trkpt lat="46.7587" lon="5.9397">
        <ele>609.373957</ele>
        <time>2020-10-11T11:44:15.071Z</time>
      </trkpt>
      <trkpt lat="46.75832" lon="5.93752">
        <ele>604.049613</ele>
        <time>2020-10-11T11:44:45.770Z</time>
      </trkpt>
      <trkpt lat="46.75829" lon="5.93737">
        <ele>603.715401</ele>
        <time>2020-10-11T11:44:47.957Z</time>
      </trkpt>
      <trkpt lat="46.75808" lon="5.93683">
        <ele>602.358544</ele>
        <time>2020-10-11T11:44:57.049Z</time>
      </trkpt>
      <trkpt lat="46.75745" lon="5.93538">
        <ele>598.494326</ele>
        <time>2020-10-11T11:45:21.233Z</time>
      </trkpt>
      <trkpt lat="46.75739" lon="5.93523">
        <ele>598.059752</ele>
        <time>2020-10-11T11:45:23.759Z</time>
      </trkpt>
      <trkpt lat="46.75707" lon="5.93453">
        <ele>596.065367</ele>
        <time>2020-10-11T11:45:35.247Z</time>
      </trkpt>
      <trkpt lat="46.75683" lon="5.93417">
        <ele>594.864553</ele>
        <time>2020-10-11T11:45:42.067Z</time>
      </trkpt>
      <trkpt lat="46.75641" lon="5.93379">
        <ele>593.300222</ele>
        <time>2020-10-11T11:45:51.898Z</time>
      </trkpt>
      <trkpt lat="46.75593" lon="5.93357">
        <ele>591.994218</ele>
        <time>2020-10-11T11:46:02.153Z</time>
      </trkpt>
      <trkpt lat="46.75538" lon="5.93336">
        <ele>590.520159</ele>
        <time>2020-10-11T11:46:14.907Z</time>
      </trkpt>
      <trkpt lat="46.75523" lon="5.93327">
        <ele>590.096029</ele>
        <time>2020-10-11T11:46:18.542Z</time>
      </trkpt>
      <trkpt lat="46.75423" lon="5.93243">
        <ele>585.98129</ele>
        <time>2020-10-11T11:46:43.225Z</time>
      </trkpt>
      <trkpt lat="46.75405" lon="5.93227">
        <ele>585.145001</ele>
        <time>2020-10-11T11:46:47.757Z</time>
      </trkpt>
      <trkpt lat="46.75355" lon="5.93185">
        <ele>582.823152</ele>
        <time>2020-10-11T11:46:58.441Z</time>
      </trkpt>
      <trkpt lat="46.75327" lon="5.93169">
        <ele>581.45944</ele>
        <time>2020-10-11T11:47:03.959Z</time>
      </trkpt>
      <trkpt lat="46.7527" lon="5.93157">
        <ele>577.70049</ele>
        <time>2020-10-11T11:47:14.523Z</time>
      </trkpt>
      <trkpt lat="46.75252" lon="5.93152">
        <ele>576.498489</ele>
        <time>2020-10-11T11:47:17.675Z</time>
      </trkpt>
      <trkpt lat="46.75231" lon="5.93143">
        <ele>575.056376</ele>
        <time>2020-10-11T11:47:21.725Z</time>
      </trkpt>
      <trkpt lat="46.75225" lon="5.93141">
        <ele>574.707486</ele>
        <time>2020-10-11T11:47:22.627Z</time>
      </trkpt>
      <trkpt lat="46.75219" lon="5.93137">
        <ele>574.266214</ele>
        <time>2020-10-11T11:47:23.798Z</time>
      </trkpt>
      <trkpt lat="46.75211" lon="5.93135">
        <ele>573.749348</ele>
        <time>2020-10-11T11:47:25.279Z</time>
      </trkpt>
      <trkpt lat="46.75203" lon="5.93136">
        <ele>573.173893</ele>
        <time>2020-10-11T11:47:26.951Z</time>
      </trkpt>
      <trkpt lat="46.752" lon="5.93137">
        <ele>573.023287</ele>
        <time>2020-10-11T11:47:27.389Z</time>
      </trkpt>
      <trkpt lat="46.75197" lon="5.93128">
        <ele>572.576084</ele>
        <time>2020-10-11T11:47:28.248Z</time>
      </trkpt>
      <trkpt lat="46.75165" lon="5.93077">
        <ele>569.685149</ele>
        <time>2020-10-11T11:47:34.310Z</time>
      </trkpt>
      <trkpt lat="46.75154" lon="5.93062">
        <ele>569.077919</ele>
        <time>2020-10-11T11:47:36.314Z</time>
      </trkpt>
      <trkpt lat="46.75135" lon="5.93032">
        <ele>567.919951</ele>
        <time>2020-10-11T11:47:39.896Z</time>
      </trkpt>
      <trkpt lat="46.75124" lon="5.93013">
        <ele>567.212777</ele>
        <time>2020-10-11T11:47:42.240Z</time>
      </trkpt>
      <trkpt lat="46.75119" lon="5.93005">
        <ele>566.905187</ele>
        <time>2020-10-11T11:47:43.203Z</time>
      </trkpt>
      <trkpt lat="46.75106" lon="5.92981">
        <ele>566.043325</ele>
        <time>2020-10-11T11:47:46.131Z</time>
      </trkpt>
      <trkpt lat="46.75076" lon="5.92929">
        <ele>564.09693</ele>
        <time>2020-10-11T11:47:52.947Z</time>
      </trkpt>
      <trkpt lat="46.7506" lon="5.92906">
        <ele>563.192637</ele>
        <time>2020-10-11T11:47:56.051Z</time>
      </trkpt>
      <trkpt lat="46.75017" lon="5.92826">
        <ele>561.006893</ele>
        <time>2020-10-11T11:48:06.145Z</time>
      </trkpt>
      <trkpt lat="46.74931" lon="5.92659">
        <ele>556.785139</ele>
        <time>2020-10-11T11:48:26.970Z</time>
      </trkpt>
      <trkpt lat="46.74884" lon="5.9257">
        <ele>554.319947</ele>
        <time>2020-10-11T11:48:37.861Z</time>
      </trkpt>
      <trkpt lat="46.74801" lon="5.92407">
        <ele>549.940468</ele>
        <time>2020-10-11T11:48:57.430Z</time>
      </trkpt>
      <trkpt lat="46.74787" lon="5.92378">
        <ele>549.191112</ele>
        <time>2020-10-11T11:49:00.911Z</time>
      </trkpt>
      <trkpt lat="46.74772" lon="5.9235">
        <ele>548.467326</ele>
        <time>2020-10-11T11:49:04.318Z</time>
      </trkpt>
      <trkpt lat="46.7476" lon="5.92325">
        <ele>547.819019</ele>
        <time>2020-10-11T11:49:07.388Z</time>
      </trkpt>
      <trkpt lat="46.74726" lon="5.9226">
        <ele>546.153899</ele>
        <time>2020-10-11T11:49:15.516Z</time>
      </trkpt>
      <trkpt lat="46.74719" lon="5.92234">
        <ele>545.844706</ele>
        <time>2020-10-11T11:49:18.532Z</time>
      </trkpt>
      <trkpt lat="46.74717" lon="5.92224">
        <ele>545.742729</ele>
        <time>2020-10-11T11:49:19.567Z</time>
      </trkpt>
      <trkpt lat="46.74717" lon="5.92212">
        <ele>545.615575</ele>
        <time>2020-10-11T11:49:20.762Z</time>
      </trkpt>
      <trkpt lat="46.74717" lon="5.92209">
        <ele>545.577096</ele>
        <time>2020-10-11T11:49:21.142Z</time>
      </trkpt>
      <trkpt lat="46.74718" lon="5.92205">
        <ele>545.538576</ele>
        <time>2020-10-11T11:49:21.522Z</time>
      </trkpt>
      <trkpt lat="46.74718" lon="5.92202">
        <ele>545.500181</ele>
        <time>2020-10-11T11:49:21.904Z</time>
      </trkpt>
      <trkpt lat="46.74717" lon="5.92197">
        <ele>545.451962</ele>
        <time>2020-10-11T11:49:22.376Z</time>
      </trkpt>
      <trkpt lat="46.74709" lon="5.92178">
        <ele>545.215114</ele>
        <time>2020-10-11T11:49:24.803Z</time>
      </trkpt>
      <trkpt lat="46.74707" lon="5.92176">
        <ele>545.167944</ele>
        <time>2020-10-11T11:49:25.276Z</time>
      </trkpt>
      <trkpt lat="46.74705" lon="5.92174">
        <ele>545.131073</ele>
        <time>2020-10-11T11:49:25.626Z</time>
      </trkpt>
      <trkpt lat="46.74698" lon="5.92172">
        <ele>545.020417</ele>
        <time>2020-10-11T11:49:26.713Z</time>
      </trkpt>
      <trkpt lat="46.74695" lon="5.92172">
        <ele>544.983046</ele>
        <time>2020-10-11T11:49:27.085Z</time>
      </trkpt>
      <trkpt lat="46.74689" lon="5.92167">
        <ele>544.881336</ele>
        <time>2020-10-11T11:49:28.116Z</time>
      </trkpt>
      <trkpt lat="46.74682" lon="5.92161">
        <ele>544.752555</ele>
        <time>2020-10-11T11:49:29.476Z</time>
      </trkpt>
      <trkpt lat="46.74675" lon="5.92155">
        <ele>544.623559</ele>
        <time>2020-10-11T11:49:30.846Z</time>
      </trkpt>
      <trkpt lat="46.74667" lon="5.92141">
        <ele>544.429591</ele>
        <time>2020-10-11T11:49:32.793Z</time>
      </trkpt>
      <trkpt lat="46.74623" lon="5.92055">
        <ele>543.345985</ele>
        <time>2020-10-11T11:49:45.508Z</time>
      </trkpt>
      <trkpt lat="46.74618" lon="5.92045">
        <ele>543.307554</ele>
        <time>2020-10-11T11:49:47.035Z</time>
      </trkpt>
      <trkpt lat="46.74608" lon="5.92024">
        <ele>543.224076</ele>
        <time>2020-10-11T11:49:50.421Z</time>
      </trkpt>
      <trkpt lat="46.74573" lon="5.91956">
        <ele>542.95155</ele>
        <time>2020-10-11T11:50:01.509Z</time>
      </trkpt>
      <trkpt lat="46.7455" lon="5.91912">
        <ele>542.775805</ele>
        <time>2020-10-11T11:50:08.755Z</time>
      </trkpt>
      <trkpt lat="46.74547" lon="5.91907">
        <ele>542.755654</ele>
        <time>2020-10-11T11:50:09.589Z</time>
      </trkpt>
      <trkpt lat="46.74513" lon="5.91837">
        <ele>542.486662</ele>
        <time>2020-10-11T11:50:20.929Z</time>
      </trkpt>
      <trkpt lat="46.74506" lon="5.91823">
        <ele>542.442806</ele>
        <time>2020-10-11T11:50:23.169Z</time>
      </trkpt>
      <trkpt lat="46.745" lon="5.91812">
        <ele>542.407922</ele>
        <time>2020-10-11T11:50:24.842Z</time>
      </trkpt>
      <trkpt lat="46.74484" lon="5.9178">
        <ele>542.303044</ele>
        <time>2020-10-11T11:50:30.199Z</time>
      </trkpt>
      <trkpt lat="46.74445" lon="5.91703">
        <ele>542.055835</ele>
        <time>2020-10-11T11:50:42.449Z</time>
      </trkpt>
      <trkpt lat="46.74438" lon="5.91691">
        <ele>542.01625</ele>
        <time>2020-10-11T11:50:44.418Z</time>
      </trkpt>
      <trkpt lat="46.7442" lon="5.91656">
        <ele>541.901082</ele>
        <time>2020-10-11T11:50:50.298Z</time>
      </trkpt>
      <trkpt lat="46.74399" lon="5.91614">
        <ele>541.751364</ele>
        <time>2020-10-11T11:50:57.201Z</time>
      </trkpt>
      <trkpt lat="46.74374" lon="5.91565">
        <ele>541.563839</ele>
        <time>2020-10-11T11:51:05.223Z</time>
      </trkpt>
      <trkpt lat="46.74369" lon="5.91555">
        <ele>541.524818</ele>
        <time>2020-10-11T11:51:06.897Z</time>
      </trkpt>
      <trkpt lat="46.74361" lon="5.91541">
        <ele>541.470087</ele>
        <time>2020-10-11T11:51:09.396Z</time>
      </trkpt>
      <trkpt lat="46.74358" lon="5.91535">
        <ele>541.449302</ele>
        <time>2020-10-11T11:51:10.359Z</time>
      </trkpt>
      <trkpt lat="46.74356" lon="5.9153">
        <ele>541.430305</ele>
        <time>2020-10-11T11:51:11.130Z</time>
      </trkpt>
      <trkpt lat="46.74341" lon="5.91501">
        <ele>541.317591</ele>
        <time>2020-10-11T11:51:15.885Z</time>
      </trkpt>
      <trkpt lat="46.74323" lon="5.91465">
        <ele>541.181073</ele>
        <time>2020-10-11T11:51:21.604Z</time>
      </trkpt>
      <trkpt lat="46.74318" lon="5.91454">
        <ele>541.142586</ele>
        <time>2020-10-11T11:51:23.404Z</time>
      </trkpt>
      <trkpt lat="46.74313" lon="5.91443">
        <ele>541.100808</ele>
        <time>2020-10-11T11:51:25.109Z</time>
      </trkpt>
      <trkpt lat="46.74312" lon="5.91434">
        <ele>541.072567</ele>
        <time>2020-10-11T11:51:26.152Z</time>
      </trkpt>
      <trkpt lat="46.74314" lon="5.91432">
        <ele>541.061877</ele>
        <time>2020-10-11T11:51:26.501Z</time>
      </trkpt>
      <trkpt lat="46.74316" lon="5.91426">
        <ele>541.042552</ele>
        <time>2020-10-11T11:51:27.196Z</time>
      </trkpt>
      <trkpt lat="46.74316" lon="5.91423">
        <ele>541.034399</ele>
        <time>2020-10-11T11:51:27.530Z</time>
      </trkpt>
      <trkpt lat="46.74315" lon="5.9142">
        <ele>541.028053</ele>
        <time>2020-10-11T11:51:27.819Z</time>
      </trkpt>
      <trkpt lat="46.74314" lon="5.91418">
        <ele>541.021909</ele>
        <time>2020-10-11T11:51:28.168Z</time>
      </trkpt>
      <trkpt lat="46.74313" lon="5.91417">
        <ele>541.015807</ele>
        <time>2020-10-11T11:51:28.530Z</time>
      </trkpt>
      <trkpt lat="46.74311" lon="5.91415">
        <ele>541.008247</ele>
        <time>2020-10-11T11:51:28.988Z</time>
      </trkpt>
      <trkpt lat="46.74304" lon="5.91418">
        <ele>540.98616</ele>
        <time>2020-10-11T11:51:30.139Z</time>
      </trkpt>
      <trkpt lat="46.74303" lon="5.9142">
        <ele>540.978425</ele>
        <time>2020-10-11T11:51:30.455Z</time>
      </trkpt>
      <trkpt lat="46.74296" lon="5.91413">
        <ele>540.949477</ele>
        <time>2020-10-11T11:51:31.756Z</time>
      </trkpt>
      <trkpt lat="46.7423" lon="5.91287">
        <ele>540.569533</ele>
        <time>2020-10-11T11:51:52.724Z</time>
      </trkpt>
      <trkpt lat="46.74226" lon="5.91277">
        <ele>540.540433</ele>
        <time>2020-10-11T11:51:54.109Z</time>
      </trkpt>
      <trkpt lat="46.74228" lon="5.91273">
        <ele>540.528954</ele>
        <time>2020-10-11T11:51:54.584Z</time>
      </trkpt>
      <trkpt lat="46.74226" lon="5.91256">
        <ele>540.487033</ele>
        <time>2020-10-11T11:51:58.493Z</time>
      </trkpt>
      <trkpt lat="46.74224" lon="5.91253">
        <ele>540.475736</ele>
        <time>2020-10-11T11:51:59.037Z</time>
      </trkpt>
      <trkpt lat="46.74221" lon="5.91252">
        <ele>540.466128</ele>
        <time>2020-10-11T11:51:59.480Z</time>
      </trkpt>
      <trkpt lat="46.74218" lon="5.91251">
        <ele>540.456328</ele>
        <time>2020-10-11T11:51:59.992Z</time>
      </trkpt>
      <trkpt lat="46.74216" lon="5.91252">
        <ele>540.446645</ele>
        <time>2020-10-11T11:52:00.443Z</time>
      </trkpt>
      <trkpt lat="46.74213" lon="5.91254">
        <ele>540.436791</ele>
        <time>2020-10-11T11:52:01.139Z</time>
      </trkpt>
      <trkpt lat="46.74209" lon="5.91269">
        <ele>540.424792</ele>
        <time>2020-10-11T11:52:02.846Z</time>
      </trkpt>
      <trkpt lat="46.7421" lon="5.91273">
        <ele>540.429305</ele>
        <time>2020-10-11T11:52:03.771Z</time>
      </trkpt>
      <trkpt lat="46.74202" lon="5.91282">
        <ele>540.445159</ele>
        <time>2020-10-11T11:52:06.914Z</time>
      </trkpt>
      <trkpt lat="46.74116" lon="5.91397">
        <ele>540.631937</ele>
        <time>2020-10-11T11:52:32.596Z</time>
      </trkpt>
      <trkpt lat="46.74061" lon="5.91473">
        <ele>540.252336</ele>
        <time>2020-10-11T11:52:49.519Z</time>
      </trkpt>
      <trkpt lat="46.74052" lon="5.91485">
        <ele>540.070557</ele>
        <time>2020-10-11T11:52:51.769Z</time>
      </trkpt>
      <trkpt lat="46.7405" lon="5.91488">
        <ele>540.019229</ele>
        <time>2020-10-11T11:52:52.535Z</time>
      </trkpt>
      <trkpt lat="46.74043" lon="5.91497">
        <ele>539.887187</ele>
        <time>2020-10-11T11:52:54.315Z</time>
      </trkpt>
      <trkpt lat="46.74036" lon="5.91487">
        <ele>539.732368</ele>
        <time>2020-10-11T11:52:55.840Z</time>
      </trkpt>
      <trkpt lat="46.74024" lon="5.91478">
        <ele>539.538558</ele>
        <time>2020-10-11T11:52:58.066Z</time>
      </trkpt>
      <trkpt lat="46.74014" lon="5.91471">
        <ele>539.36753</ele>
        <time>2020-10-11T11:53:00.320Z</time>
      </trkpt>
      <trkpt lat="46.74004" lon="5.91461">
        <ele>539.190031</ele>
        <time>2020-10-11T11:53:02.050Z</time>
      </trkpt>
      <trkpt lat="46.73988" lon="5.91423">
        <ele>538.737852</ele>
        <time>2020-10-11T11:53:06.996Z</time>
      </trkpt>
      <trkpt lat="46.73993" lon="5.91379">
        <ele>538.282932</ele>
        <time>2020-10-11T11:53:11.872Z</time>
      </trkpt>
      <trkpt lat="46.73996" lon="5.91369">
        <ele>538.173528</ele>
        <time>2020-10-11T11:53:12.853Z</time>
      </trkpt>
      <trkpt lat="46.74001" lon="5.9136">
        <ele>538.051004</ele>
        <time>2020-10-11T11:53:13.953Z</time>
      </trkpt>
      <trkpt lat="46.7402" lon="5.91343">
        <ele>537.315873</ele>
        <time>2020-10-11T11:53:17.089Z</time>
      </trkpt>
      <trkpt lat="46.74093" lon="5.91313">
        <ele>534.671301</ele>
        <time>2020-10-11T11:53:27.304Z</time>
      </trkpt>
      <trkpt lat="46.74117" lon="5.91282">
        <ele>533.557958</ele>
        <time>2020-10-11T11:53:31.734Z</time>
      </trkpt>
      <trkpt lat="46.74121" lon="5.91263">
        <ele>533.06978</ele>
        <time>2020-10-11T11:53:33.585Z</time>
      </trkpt>
      <trkpt lat="46.74121" lon="5.91249">
        <ele>532.737697</ele>
        <time>2020-10-11T11:53:34.890Z</time>
      </trkpt>
      <trkpt lat="46.74119" lon="5.91232">
        <ele>532.338474</ele>
        <time>2020-10-11T11:53:36.706Z</time>
      </trkpt>
      <trkpt lat="46.74116" lon="5.9122">
        <ele>532.020691</ele>
        <time>2020-10-11T11:53:37.978Z</time>
      </trkpt>
      <trkpt lat="46.74096" lon="5.91166">
        <ele>531.685419</ele>
        <time>2020-10-11T11:53:44.600Z</time>
      </trkpt>
      <trkpt lat="46.74093" lon="5.91155">
        <ele>531.669459</ele>
        <time>2020-10-11T11:53:45.693Z</time>
      </trkpt>
      <trkpt lat="46.74092" lon="5.91142">
        <ele>531.6502</ele>
        <time>2020-10-11T11:53:48.097Z</time>
      </trkpt>
      <trkpt lat="46.74107" lon="5.91078">
        <ele>531.554717</ele>
        <time>2020-10-11T11:53:55.861Z</time>
      </trkpt>
      <trkpt lat="46.74109" lon="5.91025">
        <ele>531.480815</ele>
        <time>2020-10-11T11:54:03.252Z</time>
      </trkpt>
      <trkpt lat="46.74108" lon="5.91012">
        <ele>531.461451</ele>
        <time>2020-10-11T11:54:06.293Z</time>
      </trkpt>
      <trkpt lat="46.74104" lon="5.91">
        <ele>531.443806</ele>
        <time>2020-10-11T11:54:08.419Z</time>
      </trkpt>
      <trkpt lat="46.741" lon="5.90991">
        <ele>531.42869</ele>
        <time>2020-10-11T11:54:11.836Z</time>
      </trkpt>
      <trkpt lat="46.74076" lon="5.90946">
        <ele>531.950775</ele>
        <time>2020-10-11T11:54:25.603Z</time>
      </trkpt>
      <trkpt lat="46.74044" lon="5.90875">
        <ele>533.687192</ele>
        <time>2020-10-11T11:54:48.314Z</time>
      </trkpt>
      <trkpt lat="46.74002" lon="5.9078">
        <ele>536.009744</ele>
        <time>2020-10-11T11:55:19.676Z</time>
      </trkpt>
      <trkpt lat="46.7398" lon="5.90715">
        <ele>537.161653</ele>
        <time>2020-10-11T11:55:37.833Z</time>
      </trkpt>
      <trkpt lat="46.73963" lon="5.90651">
        <ele>537.920632</ele>
        <time>2020-10-11T11:55:53.840Z</time>
      </trkpt>
      <trkpt lat="46.7392" lon="5.9052">
        <ele>539.519056</ele>
        <time>2020-10-11T11:56:21.453Z</time>
      </trkpt>
      <trkpt lat="46.7389" lon="5.9043">
        <ele>539.161607</ele>
        <time>2020-10-11T11:56:34.759Z</time>
      </trkpt>
      <trkpt lat="46.73884" lon="5.90408">
        <ele>539.020855</ele>
        <time>2020-10-11T11:56:37.653Z</time>
      </trkpt>
      <trkpt lat="46.7388" lon="5.90387">
        <ele>538.89831</ele>
        <time>2020-10-11T11:56:40.145Z</time>
      </trkpt>
      <trkpt lat="46.73872" lon="5.90332">
        <ele>538.575534</ele>
        <time>2020-10-11T11:56:46.522Z</time>
      </trkpt>
      <trkpt lat="46.73802" lon="5.89884">
        <ele>534.31884</ele>
        <time>2020-10-11T11:57:36.787Z</time>
      </trkpt>
      <trkpt lat="46.73757" lon="5.89594">
        <ele>532.835637</ele>
        <time>2020-10-11T11:58:14.686Z</time>
      </trkpt>
      <trkpt lat="46.73753" lon="5.89572">
        <ele>532.762672</ele>
        <time>2020-10-11T11:58:17.779Z</time>
      </trkpt>
      <trkpt lat="46.73739" lon="5.89482">
        <ele>532.501825</ele>
        <time>2020-10-11T11:58:29.382Z</time>
      </trkpt>
      <trkpt lat="46.73728" lon="5.89408">
        <ele>532.458988</ele>
        <time>2020-10-11T11:58:39.435Z</time>
      </trkpt>
      <trkpt lat="46.73724" lon="5.89381">
        <ele>532.442942</ele>
        <time>2020-10-11T11:58:43.382Z</time>
      </trkpt>
      <trkpt lat="46.7371" lon="5.89293">
        <ele>532.391772</ele>
        <time>2020-10-11T11:58:56.117Z</time>
      </trkpt>
      <trkpt lat="46.73703" lon="5.8925">
        <ele>532.367336</ele>
        <time>2020-10-11T11:59:02.317Z</time>
      </trkpt>
      <trkpt lat="46.73687" lon="5.89142">
        <ele>533.093675</ele>
        <time>2020-10-11T11:59:20.482Z</time>
      </trkpt>
      <trkpt lat="46.73685" lon="5.89132">
        <ele>533.16907</ele>
        <time>2020-10-11T11:59:22.210Z</time>
      </trkpt>
      <trkpt lat="46.73668" lon="5.89022">
        <ele>534.029455</ele>
        <time>2020-10-11T11:59:44.819Z</time>
      </trkpt>
      <trkpt lat="46.73665" lon="5.89004">
        <ele>534.164971</ele>
        <time>2020-10-11T11:59:49.062Z</time>
      </trkpt>
      <trkpt lat="46.73644" lon="5.88873">
        <ele>535.106849</ele>
        <time>2020-10-11T12:00:16.366Z</time>
      </trkpt>
      <trkpt lat="46.73639" lon="5.88845">
        <ele>535.304131</ele>
        <time>2020-10-11T12:00:21.950Z</time>
      </trkpt>
      <trkpt lat="46.73626" lon="5.88772">
        <ele>535.81523</ele>
        <time>2020-10-11T12:00:35.291Z</time>
      </trkpt>
      <trkpt lat="46.73622" lon="5.88746">
        <ele>535.996975</ele>
        <time>2020-10-11T12:00:39.508Z</time>
      </trkpt>
      <trkpt lat="46.73619" lon="5.88733">
        <ele>536.091526</ele>
        <time>2020-10-11T12:00:41.587Z</time>
      </trkpt>
      <trkpt lat="46.73618" lon="5.88722">
        <ele>536.107592</ele>
        <time>2020-10-11T12:00:43.167Z</time>
      </trkpt>
      <trkpt lat="46.73618" lon="5.88713">
        <ele>536.017427</ele>
        <time>2020-10-11T12:00:44.645Z</time>
      </trkpt>
      <trkpt lat="46.73618" lon="5.88699">
        <ele>535.888186</ele>
        <time>2020-10-11T12:00:46.405Z</time>
      </trkpt>
      <trkpt lat="46.73624" lon="5.88641">
        <ele>535.33751</ele>
        <time>2020-10-11T12:00:53.571Z</time>
      </trkpt>
      <trkpt lat="46.73618" lon="5.88543">
        <ele>534.415816</ele>
        <time>2020-10-11T12:01:04.271Z</time>
      </trkpt>
      <trkpt lat="46.73618" lon="5.88453">
        <ele>533.519705</ele>
        <time>2020-10-11T12:01:13.587Z</time>
      </trkpt>
      <trkpt lat="46.73615" lon="5.88452">
        <ele>533.461357</ele>
        <time>2020-10-11T12:01:13.958Z</time>
      </trkpt>
      <trkpt lat="46.73602" lon="5.88441">
        <ele>533.139902</ele>
        <time>2020-10-11T12:01:16.392Z</time>
      </trkpt>
      <trkpt lat="46.73573" lon="5.88394">
        <ele>532.268288</ele>
        <time>2020-10-11T12:01:22.822Z</time>
      </trkpt>
      <trkpt lat="46.73548" lon="5.88352">
        <ele>531.485416</ele>
        <time>2020-10-11T12:01:28.597Z</time>
      </trkpt>
      <trkpt lat="46.73511" lon="5.8829">
        <ele>530.333758</ele>
        <time>2020-10-11T12:01:37.177Z</time>
      </trkpt>
      <trkpt lat="46.73272" lon="5.87963">
        <ele>526.639347</ele>
        <time>2020-10-11T12:02:32.553Z</time>
      </trkpt>
      <trkpt lat="46.73224" lon="5.87897">
        <ele>526.112721</ele>
        <time>2020-10-11T12:02:44.871Z</time>
      </trkpt>
      <trkpt lat="46.73138" lon="5.87765">
        <ele>525.523031</ele>
        <time>2020-10-11T12:03:07.931Z</time>
      </trkpt>
      <trkpt lat="46.73106" lon="5.87719">
        <ele>525.386331</ele>
        <time>2020-10-11T12:03:16.441Z</time>
      </trkpt>
      <trkpt lat="46.73094" lon="5.87684">
        <ele>525.509798</ele>
        <time>2020-10-11T12:03:21.819Z</time>
      </trkpt>
      <trkpt lat="46.73088" lon="5.87614">
        <ele>525.7343</ele>
        <time>2020-10-11T12:03:31.874Z</time>
      </trkpt>
      <trkpt lat="46.73072" lon="5.87448">
        <ele>526.506659</ele>
        <time>2020-10-11T12:04:01.625Z</time>
      </trkpt>
      <trkpt lat="46.73071" lon="5.87433">
        <ele>526.68733</ele>
        <time>2020-10-11T12:04:04.256Z</time>
      </trkpt>
      <trkpt lat="46.73066" lon="5.87371">
        <ele>527.448217</ele>
        <time>2020-10-11T12:04:16.815Z</time>
      </trkpt>
      <trkpt lat="46.73064" lon="5.8736">
        <ele>527.584155</ele>
        <time>2020-10-11T12:04:19.491Z</time>
      </trkpt>
      <trkpt lat="46.73063" lon="5.87344">
        <ele>527.782452</ele>
        <time>2020-10-11T12:04:22.800Z</time>
      </trkpt>
      <trkpt lat="46.73066" lon="5.87315">
        <ele>528.147834</ele>
        <time>2020-10-11T12:04:29.286Z</time>
      </trkpt>
      <trkpt lat="46.73105" lon="5.87236">
        <ele>529.326071</ele>
        <time>2020-10-11T12:04:51.175Z</time>
      </trkpt>
      <trkpt lat="46.73109" lon="5.87192">
        <ele>530.129031</ele>
        <time>2020-10-11T12:05:01.935Z</time>
      </trkpt>
      <trkpt lat="46.73103" lon="5.87167">
        <ele>530.619732</ele>
        <time>2020-10-11T12:05:08.355Z</time>
      </trkpt>
      <trkpt lat="46.73091" lon="5.87137">
        <ele>531.273232</ele>
        <time>2020-10-11T12:05:16.285Z</time>
      </trkpt>
      <trkpt lat="46.73035" lon="5.87027">
        <ele>533.836662</ele>
        <time>2020-10-11T12:05:52.091Z</time>
      </trkpt>
      <trkpt lat="46.73011" lon="5.86948">
        <ele>534.791803</ele>
        <time>2020-10-11T12:06:13.894Z</time>
      </trkpt>
      <trkpt lat="46.73004" lon="5.86915">
        <ele>535.06914</ele>
        <time>2020-10-11T12:06:21.867Z</time>
      </trkpt>
      <trkpt lat="46.73" lon="5.86859">
        <ele>535.51337</ele>
        <time>2020-10-11T12:06:33.530Z</time>
      </trkpt>
      <trkpt lat="46.72996" lon="5.86823">
        <ele>535.802569</ele>
        <time>2020-10-11T12:06:40.848Z</time>
      </trkpt>
      <trkpt lat="46.72989" lon="5.86765">
        <ele>536.273452</ele>
        <time>2020-10-11T12:06:48.299Z</time>
      </trkpt>
      <trkpt lat="46.7297" lon="5.86601">
        <ele>534.491982</ele>
        <time>2020-10-11T12:07:05.612Z</time>
      </trkpt>
      <trkpt lat="46.72971" lon="5.86594">
        <ele>534.401863</ele>
        <time>2020-10-11T12:07:06.233Z</time>
      </trkpt>
      <trkpt lat="46.72971" lon="5.86579">
        <ele>534.217769</ele>
        <time>2020-10-11T12:07:07.557Z</time>
      </trkpt>
      <trkpt lat="46.72999" lon="5.86507">
        <ele>533.191555</ele>
        <time>2020-10-11T12:07:17.419Z</time>
      </trkpt>
      <trkpt lat="46.73002" lon="5.86491">
        <ele>533.223249</ele>
        <time>2020-10-11T12:07:19.022Z</time>
      </trkpt>
      <trkpt lat="46.73005" lon="5.8648">
        <ele>533.350889</ele>
        <time>2020-10-11T12:07:20.515Z</time>
      </trkpt>
      <trkpt lat="46.73005" lon="5.86449">
        <ele>533.677586</ele>
        <time>2020-10-11T12:07:25.566Z</time>
      </trkpt>
      <trkpt lat="46.72995" lon="5.86381">
        <ele>534.420558</ele>
        <time>2020-10-11T12:07:34.449Z</time>
      </trkpt>
      <trkpt lat="46.72959" lon="5.86309">
        <ele>535.376679</ele>
        <time>2020-10-11T12:07:56.112Z</time>
      </trkpt>
      <trkpt lat="46.72886" lon="5.86191">
        <ele>539.61027</ele>
        <time>2020-10-11T12:08:48.980Z</time>
      </trkpt>
      <trkpt lat="46.72886" lon="5.86151">
        <ele>540.996734</ele>
        <time>2020-10-11T12:09:02.368Z</time>
      </trkpt>
      <trkpt lat="46.7289" lon="5.86136">
        <ele>541.556879</ele>
        <time>2020-10-11T12:09:08.329Z</time>
      </trkpt>
      <trkpt lat="46.72913" lon="5.86087">
        <ele>543.540583</ele>
        <time>2020-10-11T12:09:27.580Z</time>
      </trkpt>
      <trkpt lat="46.72947" lon="5.86037">
        <ele>546.130537</ele>
        <time>2020-10-11T12:09:51.954Z</time>
      </trkpt>
      <trkpt lat="46.73018" lon="5.85995">
        <ele>550.477387</ele>
        <time>2020-10-11T12:10:33.307Z</time>
      </trkpt>
      <trkpt lat="46.73079" lon="5.8597">
        <ele>554.060918</ele>
        <time>2020-10-11T12:11:06.591Z</time>
      </trkpt>
      <trkpt lat="46.73123" lon="5.85975">
        <ele>556.686117</ele>
        <time>2020-10-11T12:11:29.705Z</time>
      </trkpt>
      <trkpt lat="46.7315" lon="5.85989">
        <ele>558.509109</ele>
        <time>2020-10-11T12:11:45.700Z</time>
      </trkpt>
      <trkpt lat="46.73157" lon="5.85983">
        <ele>559.012014</ele>
        <time>2020-10-11T12:11:50.115Z</time>
      </trkpt>
      <trkpt lat="46.73157" lon="5.85966">
        <ele>559.720446</ele>
        <time>2020-10-11T12:11:56.664Z</time>
      </trkpt>
      <trkpt lat="46.73101" lon="5.85934">
        <ele>563.516408</ele>
        <time>2020-10-11T12:12:30.763Z</time>
      </trkpt>
      <trkpt lat="46.72958" lon="5.8579">
        <ele>574.701319</ele>
        <time>2020-10-11T12:14:09.730Z</time>
      </trkpt>
      <trkpt lat="46.7282" lon="5.85623">
        <ele>586.451114</ele>
        <time>2020-10-11T12:15:54.679Z</time>
      </trkpt>
      <trkpt lat="46.72754" lon="5.85578">
        <ele>591.158433</ele>
        <time>2020-10-11T12:16:34.467Z</time>
      </trkpt>
      <trkpt lat="46.72534" lon="5.85483">
        <ele>607.928998</ele>
        <time>2020-10-11T12:18:42.926Z</time>
      </trkpt>
      <trkpt lat="46.72406" lon="5.85463">
        <ele>620.544679</ele>
        <time>2020-10-11T12:20:35.215Z</time>
      </trkpt>
      <trkpt lat="46.72379" lon="5.85423">
        <ele>624.555998</ele>
        <time>2020-10-11T12:21:10.846Z</time>
      </trkpt>
      <trkpt lat="46.72333" lon="5.85363">
        <ele>630.967665</ele>
        <time>2020-10-11T12:22:03.304Z</time>
      </trkpt>
      <trkpt lat="46.72289" lon="5.85305">
        <ele>637.141772</ele>
        <time>2020-10-11T12:22:43.968Z</time>
      </trkpt>
      <trkpt lat="46.72279" lon="5.85293">
        <ele>637.495659</ele>
        <time>2020-10-11T12:22:52.777Z</time>
      </trkpt>
      <trkpt lat="46.72245" lon="5.85263">
        <ele>638.646985</ele>
        <time>2020-10-11T12:23:14.798Z</time>
      </trkpt>
      <trkpt lat="46.72205" lon="5.85196">
        <ele>640.388576</ele>
        <time>2020-10-11T12:23:34.076Z</time>
      </trkpt>
      <trkpt lat="46.72142" lon="5.85121">
        <ele>642.29456</ele>
        <time>2020-10-11T12:23:49.793Z</time>
      </trkpt>
      <trkpt lat="46.72124" lon="5.85079">
        <ele>642.35484</ele>
        <time>2020-10-11T12:23:56.227Z</time>
      </trkpt>
      <trkpt lat="46.72111" lon="5.84997">
        <ele>642.456028</ele>
        <time>2020-10-11T12:24:07.393Z</time>
      </trkpt>
      <trkpt lat="46.72092" lon="5.84948">
        <ele>642.524023</ele>
        <time>2020-10-11T12:24:15.970Z</time>
      </trkpt>
      <trkpt lat="46.72042" lon="5.84893">
        <ele>643.236498</ele>
        <time>2020-10-11T12:24:32.560Z</time>
      </trkpt>
      <trkpt lat="46.72008" lon="5.84848">
        <ele>644.303339</ele>
        <time>2020-10-11T12:24:46.777Z</time>
      </trkpt>
      <trkpt lat="46.71924" lon="5.8472">
        <ele>647.269029</ele>
        <time>2020-10-11T12:25:32.059Z</time>
      </trkpt>
      <trkpt lat="46.7185" lon="5.84585">
        <ele>651.212017</ele>
        <time>2020-10-11T12:26:21.364Z</time>
      </trkpt>
      <trkpt lat="46.71726" lon="5.84429">
        <ele>655.393492</ele>
        <time>2020-10-11T12:27:21.348Z</time>
      </trkpt>
      <trkpt lat="46.71665" lon="5.84358">
        <ele>656.773198</ele>
        <time>2020-10-11T12:27:43.385Z</time>
      </trkpt>
      <trkpt lat="46.71629" lon="5.8434">
        <ele>656.779169</ele>
        <time>2020-10-11T12:27:52.809Z</time>
      </trkpt>
      <trkpt lat="46.71501" lon="5.8431">
        <ele>656.757856</ele>
        <time>2020-10-11T12:28:17.337Z</time>
      </trkpt>
      <trkpt lat="46.71454" lon="5.84274">
        <ele>656.268369</ele>
        <time>2020-10-11T12:28:26.369Z</time>
      </trkpt>
      <trkpt lat="46.71394" lon="5.84218">
        <ele>655.608566</ele>
        <time>2020-10-11T12:28:38.513Z</time>
      </trkpt>
      <trkpt lat="46.71343" lon="5.84206">
        <ele>655.137409</ele>
        <time>2020-10-11T12:28:47.225Z</time>
      </trkpt>
      <trkpt lat="46.71332" lon="5.84203">
        <ele>655.044484</ele>
        <time>2020-10-11T12:28:49.051Z</time>
      </trkpt>
      <trkpt lat="46.71144" lon="5.84038">
        <ele>653.182743</ele>
        <time>2020-10-11T12:29:27.795Z</time>
      </trkpt>
      <trkpt lat="46.71124" lon="5.84021">
        <ele>652.983564</ele>
        <time>2020-10-11T12:29:31.900Z</time>
      </trkpt>
      <trkpt lat="46.71064" lon="5.83974">
        <ele>652.406439</ele>
        <time>2020-10-11T12:29:43.630Z</time>
      </trkpt>
      <trkpt lat="46.71032" lon="5.83957">
        <ele>652.119692</ele>
        <time>2020-10-11T12:29:49.483Z</time>
      </trkpt>
      <trkpt lat="46.71007" lon="5.83954">
        <ele>652.023811</ele>
        <time>2020-10-11T12:29:53.952Z</time>
      </trkpt>
      <trkpt lat="46.70988" lon="5.83948">
        <ele>651.966691</ele>
        <time>2020-10-11T12:29:57.415Z</time>
      </trkpt>
      <trkpt lat="46.70982" lon="5.83942">
        <ele>651.944255</ele>
        <time>2020-10-11T12:29:58.780Z</time>
      </trkpt>
      <trkpt lat="46.70974" lon="5.83935">
        <ele>651.917439</ele>
        <time>2020-10-11T12:30:00.372Z</time>
      </trkpt>
      <trkpt lat="46.70966" lon="5.83925">
        <ele>651.886592</ele>
        <time>2020-10-11T12:30:02.281Z</time>
      </trkpt>
      <trkpt lat="46.70945" lon="5.83897">
        <ele>651.803449</ele>
        <time>2020-10-11T12:30:07.453Z</time>
      </trkpt>
      <trkpt lat="46.70909" lon="5.83846">
        <ele>651.654955</ele>
        <time>2020-10-11T12:30:18.359Z</time>
      </trkpt>
      <trkpt lat="46.70897" lon="5.8381">
        <ele>651.573542</ele>
        <time>2020-10-11T12:30:24.402Z</time>
      </trkpt>
      <trkpt lat="46.70887" lon="5.83797">
        <ele>651.599097</ele>
        <time>2020-10-11T12:30:27.411Z</time>
      </trkpt>
      <trkpt lat="46.70841" lon="5.83771">
        <ele>651.872969</ele>
        <time>2020-10-11T12:30:38.636Z</time>
      </trkpt>
      <trkpt lat="46.70837" lon="5.83769">
        <ele>651.892432</ele>
        <time>2020-10-11T12:30:39.621Z</time>
      </trkpt>
      <trkpt lat="46.70858" lon="5.83708">
        <ele>652.149002</ele>
        <time>2020-10-11T12:30:51.396Z</time>
      </trkpt>
      <trkpt lat="46.70844" lon="5.8369">
        <ele>652.251617</ele>
        <time>2020-10-11T12:30:57.058Z</time>
      </trkpt>
      <trkpt lat="46.70827" lon="5.8363">
        <ele>652.495342</ele>
        <time>2020-10-11T12:31:11.995Z</time>
      </trkpt>
      <trkpt lat="46.70826" lon="5.83595">
        <ele>652.49724</ele>
        <time>2020-10-11T12:31:19.561Z</time>
      </trkpt>
      <trkpt lat="46.70863" lon="5.83491">
        <ele>652.219895</ele>
        <time>2020-10-11T12:31:42.487Z</time>
      </trkpt>
      <trkpt lat="46.70863" lon="5.83453">
        <ele>652.130788</ele>
        <time>2020-10-11T12:31:49.161Z</time>
      </trkpt>
      <trkpt lat="46.70872" lon="5.83428">
        <ele>652.063526</ele>
        <time>2020-10-11T12:31:54.052Z</time>
      </trkpt>
      <trkpt lat="46.7086" lon="5.83422">
        <ele>652.021909</ele>
        <time>2020-10-11T12:31:57.040Z</time>
      </trkpt>
      <trkpt lat="46.70861" lon="5.83402">
        <ele>651.974457</ele>
        <time>2020-10-11T12:32:00.225Z</time>
      </trkpt>
      <trkpt lat="46.70858" lon="5.8336">
        <ele>651.723499</ele>
        <time>2020-10-11T12:32:07.190Z</time>
      </trkpt>
      <trkpt lat="46.70832" lon="5.83279">
        <ele>650.899123</ele>
        <time>2020-10-11T12:32:21.189Z</time>
      </trkpt>
      <trkpt lat="46.70845" lon="5.83233">
        <ele>650.44562</ele>
        <time>2020-10-11T12:32:29.201Z</time>
      </trkpt>
      <trkpt lat="46.70877" lon="5.83157">
        <ele>649.624891</ele>
        <time>2020-10-11T12:32:43.733Z</time>
      </trkpt>
      <trkpt lat="46.70882" lon="5.83143">
        <ele>649.476627</ele>
        <time>2020-10-11T12:32:45.994Z</time>
      </trkpt>
      <trkpt lat="46.70883" lon="5.83127">
        <ele>649.284776</ele>
        <time>2020-10-11T12:32:48.843Z</time>
      </trkpt>
      <trkpt lat="46.70879" lon="5.83102">
        <ele>648.99069</ele>
        <time>2020-10-11T12:32:53.012Z</time>
      </trkpt>
      <trkpt lat="46.70859" lon="5.8307">
        <ele>648.492764</ele>
        <time>2020-10-11T12:32:59.922Z</time>
      </trkpt>
      <trkpt lat="46.70852" lon="5.83056">
        <ele>648.287462</ele>
        <time>2020-10-11T12:33:02.702Z</time>
      </trkpt>
      <trkpt lat="46.70824" lon="5.83028">
        <ele>647.703215</ele>
        <time>2020-10-11T12:33:10.909Z</time>
      </trkpt>
      <trkpt lat="46.70813" lon="5.83018">
        <ele>647.494817</ele>
        <time>2020-10-11T12:33:13.678Z</time>
      </trkpt>
      <trkpt lat="46.70782" lon="5.82995">
        <ele>646.903204</ele>
        <time>2020-10-11T12:33:21.460Z</time>
      </trkpt>
      <trkpt lat="46.70689" lon="5.82938">
        <ele>643.657972</ele>
        <time>2020-10-11T12:33:42.623Z</time>
      </trkpt>
      <trkpt lat="46.70624" lon="5.82885">
        <ele>640.88659</ele>
        <time>2020-10-11T12:33:57.112Z</time>
      </trkpt>
      <trkpt lat="46.70515" lon="5.82803">
        <ele>635.624367</ele>
        <time>2020-10-11T12:34:20.360Z</time>
      </trkpt>
      <trkpt lat="46.7038" lon="5.8275">
        <ele>629.984959</ele>
        <time>2020-10-11T12:34:47.696Z</time>
      </trkpt>
      <trkpt lat="46.70351" lon="5.82748">
        <ele>629.034052</ele>
        <time>2020-10-11T12:34:53.573Z</time>
      </trkpt>
      <trkpt lat="46.70331" lon="5.82754">
        <ele>628.360752</ele>
        <time>2020-10-11T12:34:57.768Z</time>
      </trkpt>
      <trkpt lat="46.70278" lon="5.82798">
        <ele>626.370239</ele>
        <time>2020-10-11T12:35:10.442Z</time>
      </trkpt>
      <trkpt lat="46.70232" lon="5.82818">
        <ele>625.234575</ele>
        <time>2020-10-11T12:35:20.827Z</time>
      </trkpt>
      <trkpt lat="46.70143" lon="5.82826">
        <ele>623.56249</ele>
        <time>2020-10-11T12:35:40.560Z</time>
      </trkpt>
      <trkpt lat="46.70088" lon="5.82811">
        <ele>622.513893</ele>
        <time>2020-10-11T12:35:53.557Z</time>
      </trkpt>
      <trkpt lat="46.70068" lon="5.8279">
        <ele>622.290028</ele>
        <time>2020-10-11T12:35:59.173Z</time>
      </trkpt>
      <trkpt lat="46.70061" lon="5.82769">
        <ele>622.161105</ele>
        <time>2020-10-11T12:36:03.128Z</time>
      </trkpt>
      <trkpt lat="46.7005" lon="5.82738">
        <ele>621.965889</ele>
        <time>2020-10-11T12:36:09.012Z</time>
      </trkpt>
      <trkpt lat="46.70033" lon="5.82698">
        <ele>621.706809</ele>
        <time>2020-10-11T12:36:16.993Z</time>
      </trkpt>
      <trkpt lat="46.69992" lon="5.82648">
        <ele>621.281343</ele>
        <time>2020-10-11T12:36:30.535Z</time>
      </trkpt>
      <trkpt lat="46.69922" lon="5.82581">
        <ele>620.921232</ele>
        <time>2020-10-11T12:36:52.940Z</time>
      </trkpt>
      <trkpt lat="46.69916" lon="5.82576">
        <ele>620.909015</ele>
        <time>2020-10-11T12:36:54.775Z</time>
      </trkpt>
      <trkpt lat="46.69896" lon="5.82561">
        <ele>620.866509</ele>
        <time>2020-10-11T12:37:01.155Z</time>
      </trkpt>
      <trkpt lat="46.69755" lon="5.82506">
        <ele>620.820565</ele>
        <time>2020-10-11T12:37:41.615Z</time>
      </trkpt>
      <trkpt lat="46.69674" lon="5.82455">
        <ele>621.081974</ele>
        <time>2020-10-11T12:38:07.126Z</time>
      </trkpt>
      <trkpt lat="46.69589" lon="5.82383">
        <ele>621.625548</ele>
        <time>2020-10-11T12:38:39.762Z</time>
      </trkpt>
      <trkpt lat="46.69546" lon="5.82375">
        <ele>621.962491</ele>
        <time>2020-10-11T12:38:54.643Z</time>
      </trkpt>
      <trkpt lat="46.69461" lon="5.82402">
        <ele>622.599838</ele>
        <time>2020-10-11T12:39:23.394Z</time>
      </trkpt>
      <trkpt lat="46.69422" lon="5.82392">
        <ele>622.369426</ele>
        <time>2020-10-11T12:39:35.025Z</time>
      </trkpt>
      <trkpt lat="46.69358" lon="5.82361">
        <ele>621.973011</ele>
        <time>2020-10-11T12:39:52.938Z</time>
      </trkpt>
      <trkpt lat="46.69181" lon="5.82351">
        <ele>620.582435</ele>
        <time>2020-10-11T12:40:33.730Z</time>
      </trkpt>
      <trkpt lat="46.69023" lon="5.82357">
        <ele>619.69578</ele>
        <time>2020-10-11T12:41:17.392Z</time>
      </trkpt>
      <trkpt lat="46.68993" lon="5.82352">
        <ele>619.616206</ele>
        <time>2020-10-11T12:41:26.278Z</time>
      </trkpt>
      <trkpt lat="46.68938" lon="5.82322">
        <ele>619.463894</ele>
        <time>2020-10-11T12:41:42.646Z</time>
      </trkpt>
      <trkpt lat="46.68917" lon="5.82316">
        <ele>619.127177</ele>
        <time>2020-10-11T12:41:47.689Z</time>
      </trkpt>
      <trkpt lat="46.68803" lon="5.82318">
        <ele>616.755538</ele>
        <time>2020-10-11T12:42:13.615Z</time>
      </trkpt>
      <trkpt lat="46.68779" lon="5.82313">
        <ele>616.241417</ele>
        <time>2020-10-11T12:42:18.497Z</time>
      </trkpt>
      <trkpt lat="46.68744" lon="5.82293">
        <ele>615.37009</ele>
        <time>2020-10-11T12:42:25.854Z</time>
      </trkpt>
      <trkpt lat="46.68702" lon="5.82274">
        <ele>614.099073</ele>
        <time>2020-10-11T12:42:34.627Z</time>
      </trkpt>
      <trkpt lat="46.6864" lon="5.82226">
        <ele>612.072392</ele>
        <time>2020-10-11T12:42:49.043Z</time>
      </trkpt>
      <trkpt lat="46.68622" lon="5.82209">
        <ele>611.444129</ele>
        <time>2020-10-11T12:42:53.630Z</time>
      </trkpt>
      <trkpt lat="46.68589" lon="5.82184">
        <ele>610.472692</ele>
        <time>2020-10-11T12:43:01.726Z</time>
      </trkpt>
      <trkpt lat="46.68561" lon="5.82171">
        <ele>610.287472</ele>
        <time>2020-10-11T12:43:08.246Z</time>
      </trkpt>
      <trkpt lat="46.68521" lon="5.82178">
        <ele>610.02488</ele>
        <time>2020-10-11T12:43:15.213Z</time>
      </trkpt>
      <trkpt lat="46.68492" lon="5.8218">
        <ele>609.839439</ele>
        <time>2020-10-11T12:43:20.716Z</time>
      </trkpt>
      <trkpt lat="46.6842" lon="5.82188">
        <ele>609.380795</ele>
        <time>2020-10-11T12:43:36.370Z</time>
      </trkpt>
      <trkpt lat="46.6841" lon="5.8219">
        <ele>609.383073</ele>
        <time>2020-10-11T12:43:38.888Z</time>
      </trkpt>
      <trkpt lat="46.68321" lon="5.82286">
        <ele>609.93987</ele>
        <time>2020-10-11T12:44:05.468Z</time>
      </trkpt>
      <trkpt lat="46.68218" lon="5.82424">
        <ele>610.26502</ele>
        <time>2020-10-11T12:44:38.572Z</time>
      </trkpt>
      <trkpt lat="46.68199" lon="5.82431">
        <ele>610.267706</ele>
        <time>2020-10-11T12:44:42.457Z</time>
      </trkpt>
      <trkpt lat="46.68191" lon="5.8243">
        <ele>610.268755</ele>
        <time>2020-10-11T12:44:44.533Z</time>
      </trkpt>
      <trkpt lat="46.68166" lon="5.82419">
        <ele>610.272476</ele>
        <time>2020-10-11T12:44:49.673Z</time>
      </trkpt>
      <trkpt lat="46.68143" lon="5.82414">
        <ele>610.275668</ele>
        <time>2020-10-11T12:44:54.401Z</time>
      </trkpt>
      <trkpt lat="46.6808" lon="5.82428">
        <ele>609.635928</ele>
        <time>2020-10-11T12:45:05.490Z</time>
      </trkpt>
      <trkpt lat="46.6805" lon="5.82428">
        <ele>609.120647</ele>
        <time>2020-10-11T12:45:10.373Z</time>
      </trkpt>
      <trkpt lat="46.68004" lon="5.82405">
        <ele>608.279737</ele>
        <time>2020-10-11T12:45:18.041Z</time>
      </trkpt>
      <trkpt lat="46.67988" lon="5.82391">
        <ele>607.955751</ele>
        <time>2020-10-11T12:45:20.939Z</time>
      </trkpt>
      <trkpt lat="46.67961" lon="5.82364">
        <ele>607.400071</ele>
        <time>2020-10-11T12:45:25.663Z</time>
      </trkpt>
      <trkpt lat="46.67904" lon="5.82294">
        <ele>605.541637</ele>
        <time>2020-10-11T12:45:36.534Z</time>
      </trkpt>
      <trkpt lat="46.6786" lon="5.82254">
        <ele>604.179974</ele>
        <time>2020-10-11T12:45:44.134Z</time>
      </trkpt>
      <trkpt lat="46.6785" lon="5.82248">
        <ele>603.892189</ele>
        <time>2020-10-11T12:45:45.650Z</time>
      </trkpt>
      <trkpt lat="46.6784" lon="5.82242">
        <ele>603.599391</ele>
        <time>2020-10-11T12:45:47.245Z</time>
      </trkpt>
      <trkpt lat="46.67798" lon="5.82241">
        <ele>602.489625</ele>
        <time>2020-10-11T12:45:53.547Z</time>
      </trkpt>
      <trkpt lat="46.67756" lon="5.82262">
        <ele>601.6108</ele>
        <time>2020-10-11T12:46:00.225Z</time>
      </trkpt>
      <trkpt lat="46.67653" lon="5.82363">
        <ele>599.187937</ele>
        <time>2020-10-11T12:46:19.414Z</time>
      </trkpt>
      <trkpt lat="46.67609" lon="5.82422">
        <ele>598.395293</ele>
        <time>2020-10-11T12:46:29.236Z</time>
      </trkpt>
      <trkpt lat="46.67579" lon="5.82451">
        <ele>597.975602</ele>
        <time>2020-10-11T12:46:35.306Z</time>
      </trkpt>
      <trkpt lat="46.67567" lon="5.82456">
        <ele>597.833702</ele>
        <time>2020-10-11T12:46:37.313Z</time>
      </trkpt>
      <trkpt lat="46.67555" lon="5.82454">
        <ele>597.69542</ele>
        <time>2020-10-11T12:46:39.324Z</time>
      </trkpt>
      <trkpt lat="46.67482" lon="5.82412">
        <ele>596.805241</ele>
        <time>2020-10-11T12:46:52.955Z</time>
      </trkpt>
      <trkpt lat="46.67455" lon="5.82402">
        <ele>596.591949</ele>
        <time>2020-10-11T12:46:57.765Z</time>
      </trkpt>
      <trkpt lat="46.67383" lon="5.82422">
        <ele>596.033689</ele>
        <time>2020-10-11T12:47:10.848Z</time>
      </trkpt>
      <trkpt lat="46.67312" lon="5.82398">
        <ele>595.482821</ele>
        <time>2020-10-11T12:47:23.943Z</time>
      </trkpt>
      <trkpt lat="46.67221" lon="5.82402">
        <ele>594.964433</ele>
        <time>2020-10-11T12:47:39.941Z</time>
      </trkpt>
      <trkpt lat="46.67154" lon="5.82394">
        <ele>594.578731</ele>
        <time>2020-10-11T12:47:52.856Z</time>
      </trkpt>
      <trkpt lat="46.67132" lon="5.8239">
        <ele>594.455441</ele>
        <time>2020-10-11T12:47:56.990Z</time>
      </trkpt>
      <trkpt lat="46.67113" lon="5.82388">
        <ele>594.343243</ele>
        <time>2020-10-11T12:48:00.712Z</time>
      </trkpt>
      <trkpt lat="46.67098" lon="5.82389">
        <ele>594.257379</ele>
        <time>2020-10-11T12:48:03.599Z</time>
      </trkpt>
      <trkpt lat="46.67073" lon="5.82393">
        <ele>594.115323</ele>
        <time>2020-10-11T12:48:08.189Z</time>
      </trkpt>
      <trkpt lat="46.67047" lon="5.82396">
        <ele>593.961769</ele>
        <time>2020-10-11T12:48:13.295Z</time>
      </trkpt>
      <trkpt lat="46.67036" lon="5.82396">
        <ele>593.902471</ele>
        <time>2020-10-11T12:48:15.111Z</time>
      </trkpt>
      <trkpt lat="46.67026" lon="5.82393">
        <ele>593.843429</ele>
        <time>2020-10-11T12:48:17.093Z</time>
      </trkpt>
      <trkpt lat="46.67006" lon="5.82364">
        <ele>593.680059</ele>
        <time>2020-10-11T12:48:22.235Z</time>
      </trkpt>
      <trkpt lat="46.66933" lon="5.82282">
        <ele>592.837631</ele>
        <time>2020-10-11T12:48:38.545Z</time>
      </trkpt>
      <trkpt lat="46.66883" lon="5.82248">
        <ele>592.162738</ele>
        <time>2020-10-11T12:48:47.311Z</time>
      </trkpt>
      <trkpt lat="46.66853" lon="5.82248">
        <ele>591.787837</ele>
        <time>2020-10-11T12:48:52.120Z</time>
      </trkpt>
      <trkpt lat="46.6681" lon="5.82287">
        <ele>591.182641</ele>
        <time>2020-10-11T12:49:00.511Z</time>
      </trkpt>
      <trkpt lat="46.66795" lon="5.82295">
        <ele>591.086868</ele>
        <time>2020-10-11T12:49:02.909Z</time>
      </trkpt>
      <trkpt lat="46.66783" lon="5.82305">
        <ele>590.99824</ele>
        <time>2020-10-11T12:49:05.505Z</time>
      </trkpt>
      <trkpt lat="46.66762" lon="5.82337">
        <ele>590.814924</ele>
        <time>2020-10-11T12:49:10.683Z</time>
      </trkpt>
      <trkpt lat="46.66758" lon="5.82341">
        <ele>590.784048</ele>
        <time>2020-10-11T12:49:11.652Z</time>
      </trkpt>
      <trkpt lat="46.66756" lon="5.82344">
        <ele>590.763713</ele>
        <time>2020-10-11T12:49:12.400Z</time>
      </trkpt>
      <trkpt lat="46.66663" lon="5.82441">
        <ele>590.128487</ele>
        <time>2020-10-11T12:49:33.651Z</time>
      </trkpt>
      <trkpt lat="46.6666" lon="5.82444">
        <ele>590.160417</ele>
        <time>2020-10-11T12:49:34.722Z</time>
      </trkpt>
      <trkpt lat="46.66654" lon="5.8245">
        <ele>590.230959</ele>
        <time>2020-10-11T12:49:36.433Z</time>
      </trkpt>
      <trkpt lat="46.66638" lon="5.82469">
        <ele>590.421464</ele>
        <time>2020-10-11T12:49:40.527Z</time>
      </trkpt>
      <trkpt lat="46.66626" lon="5.8248">
        <ele>590.548896</ele>
        <time>2020-10-11T12:49:43.902Z</time>
      </trkpt>
      <trkpt lat="46.66611" lon="5.82491">
        <ele>590.703158</ele>
        <time>2020-10-11T12:49:46.984Z</time>
      </trkpt>
      <trkpt lat="46.6657" lon="5.82508">
        <ele>591.091965</ele>
        <time>2020-10-11T12:49:55.807Z</time>
      </trkpt>
      <trkpt lat="46.66516" lon="5.82553">
        <ele>591.661436</ele>
        <time>2020-10-11T12:50:15.825Z</time>
      </trkpt>
      <trkpt lat="46.66469" lon="5.82571">
        <ele>592.75859</ele>
        <time>2020-10-11T12:50:34.659Z</time>
      </trkpt>
      <trkpt lat="46.66435" lon="5.82574">
        <ele>593.64287</ele>
        <time>2020-10-11T12:50:47.900Z</time>
      </trkpt>
      <trkpt lat="46.66408" lon="5.82579">
        <ele>594.336286</ele>
        <time>2020-10-11T12:50:58.830Z</time>
      </trkpt>
      <trkpt lat="46.6639" lon="5.82589">
        <ele>594.826067</ele>
        <time>2020-10-11T12:51:06.001Z</time>
      </trkpt>
      <trkpt lat="46.66375" lon="5.82612">
        <ele>595.364723</ele>
        <time>2020-10-11T12:51:12.036Z</time>
      </trkpt>
      <trkpt lat="46.6637" lon="5.82618">
        <ele>595.524818</ele>
        <time>2020-10-11T12:51:14.171Z</time>
      </trkpt>
      <trkpt lat="46.66366" lon="5.82622">
        <ele>595.652353</ele>
        <time>2020-10-11T12:51:16.407Z</time>
      </trkpt>
      <trkpt lat="46.66363" lon="5.82623">
        <ele>595.740552</ele>
        <time>2020-10-11T12:51:18.099Z</time>
      </trkpt>
      <trkpt lat="46.66358" lon="5.82625">
        <ele>595.858894</ele>
        <time>2020-10-11T12:51:20.584Z</time>
      </trkpt>
      <trkpt lat="46.66358" lon="5.82602">
        <ele>596.259258</ele>
        <time>2020-10-11T12:51:23.529Z</time>
      </trkpt>
      <trkpt lat="46.6637" lon="5.8247">
        <ele>595.196541</ele>
        <time>2020-10-11T12:51:49.551Z</time>
      </trkpt>
      <trkpt lat="46.66372" lon="5.82264">
        <ele>592.431097</ele>
        <time>2020-10-11T12:52:08.984Z</time>
      </trkpt>
      <trkpt lat="46.66367" lon="5.82222">
        <ele>591.484803</ele>
        <time>2020-10-11T12:52:13.019Z</time>
      </trkpt>
      <trkpt lat="46.66362" lon="5.82203">
        <ele>591.036988</ele>
        <time>2020-10-11T12:52:14.913Z</time>
      </trkpt>
      <trkpt lat="46.66356" lon="5.82185">
        <ele>590.600058</ele>
        <time>2020-10-11T12:52:16.772Z</time>
      </trkpt>
      <trkpt lat="46.66325" lon="5.82114">
        <ele>588.713359</ele>
        <time>2020-10-11T12:52:25.175Z</time>
      </trkpt>
      <trkpt lat="46.66289" lon="5.82074">
        <ele>588.871401</ele>
        <time>2020-10-11T12:52:32.122Z</time>
      </trkpt>
      <trkpt lat="46.6622" lon="5.82026">
        <ele>590.293082</ele>
        <time>2020-10-11T12:52:51.502Z</time>
      </trkpt>
      <trkpt lat="46.66205" lon="5.82">
        <ele>590.722434</ele>
        <time>2020-10-11T12:53:02.124Z</time>
      </trkpt>
      <trkpt lat="46.66198" lon="5.81971">
        <ele>591.110053</ele>
        <time>2020-10-11T12:53:09.554Z</time>
      </trkpt>
      <trkpt lat="46.66191" lon="5.81862">
        <ele>595.209239</ele>
        <time>2020-10-11T12:53:51.342Z</time>
      </trkpt>
      <trkpt lat="46.6619" lon="5.81852">
        <ele>595.692292</ele>
        <time>2020-10-11T12:53:58.124Z</time>
      </trkpt>
      <trkpt lat="46.66178" lon="5.81772">
        <ele>599.897208</ele>
        <time>2020-10-11T12:54:34.417Z</time>
      </trkpt>
      <trkpt lat="46.66132" lon="5.8161">
        <ele>607.77644</ele>
        <time>2020-10-11T12:55:56.818Z</time>
      </trkpt>
      <trkpt lat="46.6608" lon="5.81486">
        <ele>612.912532</ele>
        <time>2020-10-11T12:56:42.665Z</time>
      </trkpt>
      <trkpt lat="46.66061" lon="5.81438">
        <ele>614.48444</ele>
        <time>2020-10-11T12:56:56.253Z</time>
      </trkpt>
      <trkpt lat="46.66049" lon="5.81412">
        <ele>614.60897</ele>
        <time>2020-10-11T12:57:02.858Z</time>
      </trkpt>
      <trkpt lat="46.66038" lon="5.81391">
        <ele>614.714808</ele>
        <time>2020-10-11T12:57:07.310Z</time>
      </trkpt>
      <trkpt lat="46.66034" lon="5.8139">
        <ele>614.73595</ele>
        <time>2020-10-11T12:57:08.921Z</time>
      </trkpt>
      <trkpt lat="46.66003" lon="5.81383">
        <ele>614.919791</ele>
        <time>2020-10-11T12:57:16.117Z</time>
      </trkpt>
      <trkpt lat="46.6589" lon="5.81375">
        <ele>615.118026</ele>
        <time>2020-10-11T12:57:38.179Z</time>
      </trkpt>
      <trkpt lat="46.65792" lon="5.81382">
        <ele>613.09694</ele>
        <time>2020-10-11T12:57:54.081Z</time>
      </trkpt>
      <trkpt lat="46.65768" lon="5.81392">
        <ele>612.574125</ele>
        <time>2020-10-11T12:57:57.821Z</time>
      </trkpt>
      <trkpt lat="46.65728" lon="5.81408">
        <ele>611.66738</ele>
        <time>2020-10-11T12:58:03.497Z</time>
      </trkpt>
      <trkpt lat="46.65669" lon="5.81424">
        <ele>609.087515</ele>
        <time>2020-10-11T12:58:11.463Z</time>
      </trkpt>
      <trkpt lat="46.65612" lon="5.8145">
        <ele>606.479769</ele>
        <time>2020-10-11T12:58:19.438Z</time>
      </trkpt>
      <trkpt lat="46.65592" lon="5.81453">
        <ele>605.609378</ele>
        <time>2020-10-11T12:58:22.029Z</time>
      </trkpt>
      <trkpt lat="46.6554" lon="5.81456">
        <ele>603.717968</ele>
        <time>2020-10-11T12:58:29.141Z</time>
      </trkpt>
      <trkpt lat="46.65522" lon="5.81472">
        <ele>603.373144</ele>
        <time>2020-10-11T12:58:31.957Z</time>
      </trkpt>
      <trkpt lat="46.65485" lon="5.8157">
        <ele>602.118789</ele>
        <time>2020-10-11T12:58:43.398Z</time>
      </trkpt>
      <trkpt lat="46.65474" lon="5.81592">
        <ele>601.80924</ele>
        <time>2020-10-11T12:58:47.318Z</time>
      </trkpt>
      <trkpt lat="46.65468" lon="5.81594">
        <ele>601.716959</ele>
        <time>2020-10-11T12:58:48.420Z</time>
      </trkpt>
      <trkpt lat="46.65466" lon="5.81593">
        <ele>601.672759</ele>
        <time>2020-10-11T12:58:48.792Z</time>
      </trkpt>
      <trkpt lat="46.65449" lon="5.8167">
        <ele>601.467095</ele>
        <time>2020-10-11T12:59:03.828Z</time>
      </trkpt>
      <trkpt lat="46.6543" lon="5.81742">
        <ele>603.094359</ele>
        <time>2020-10-11T12:59:22.180Z</time>
      </trkpt>
      <trkpt lat="46.654" lon="5.81815">
        <ele>604.891765</ele>
        <time>2020-10-11T12:59:46.798Z</time>
      </trkpt>
      <trkpt lat="46.65383" lon="5.81852">
        <ele>605.833131</ele>
        <time>2020-10-11T13:00:00.289Z</time>
      </trkpt>
      <trkpt lat="46.6536" lon="5.81884">
        <ele>606.842394</ele>
        <time>2020-10-11T13:00:14.510Z</time>
      </trkpt>
      <trkpt lat="46.65243" lon="5.81956">
        <ele>611.136615</ele>
        <time>2020-10-11T13:01:07.206Z</time>
      </trkpt>
      <trkpt lat="46.65233" lon="5.81962">
        <ele>611.49927</ele>
        <time>2020-10-11T13:01:11.646Z</time>
      </trkpt>
      <trkpt lat="46.65222" lon="5.81971">
        <ele>611.904717</ele>
        <time>2020-10-11T13:01:15.557Z</time>
      </trkpt>
      <trkpt lat="46.65202" lon="5.81986">
        <ele>612.624715</ele>
        <time>2020-10-11T13:01:23.443Z</time>
      </trkpt>
      <trkpt lat="46.65187" lon="5.81999">
        <ele>612.624715</ele>
        <time>2020-10-11T13:01:28.445Z</time>
      </trkpt>
      <trkpt lat="46.65192" lon="5.82004">
        <ele>612.624715</ele>
        <time>2020-10-11T13:01:30.881Z</time>
      </trkpt>
      <trkpt lat="46.65223" lon="5.82015">
        <ele>612.624715</ele>
        <time>2020-10-11T13:01:43.234Z</time>
      </trkpt>
      <trkpt lat="46.65236" lon="5.82041">
        <ele>612.624715</ele>
        <time>2020-10-11T13:01:51.430Z</time>
      </trkpt>
      <trkpt lat="46.65239" lon="5.82064">
        <ele>612.624715</ele>
        <time>2020-10-11T13:01:57.456Z</time>
      </trkpt>
    </trkseg>
  </trk>
</gpx>